<?xml version='1.0' encoding='UTF-8'?><gpx version="1.1" creator="JPX - https://github.com/jenetics/jpx" xmlns="http://www.topografix.com/GPX/1/1"><trk><trkseg><trkpt lat="38.1644742" lon="15.6542408"><ele>18.0</ele><time>2026-03-29T06:18:34.58Z</time></trkpt><trkpt lat="38.1646172" lon="15.6542387"><ele>18.0</ele><time>2026-03-29T06:31:46.581Z</time></trkpt><trkpt lat="38.1645731" lon="15.6543036"><ele>18.0</ele><time>2026-03-29T06:39:41.58Z</time></trkpt><trkpt lat="38.1645305" lon="15.6541744"><ele>18.0</ele><time>2026-03-29T06:40:15.58Z</time></trkpt><trkpt lat="38.1645472" lon="15.6540946"><ele>18.0</ele><time>2026-03-29T06:40:26.58Z</time></trkpt><trkpt lat="38.1646319" lon="15.6540651"><ele>18.0</ele><time>2026-03-29T06:40:30.58Z</time></trkpt><trkpt lat="38.1647073" lon="15.6540354"><ele>18.0</ele><time>2026-03-29T06:40:32.58Z</time></trkpt><trkpt lat="38.1647981" lon="15.6540014"><ele>18.0</ele><time>2026-03-29T06:40:34.58Z</time></trkpt><trkpt lat="38.1649187" lon="15.6539594"><ele>18.0</ele><time>2026-03-29T06:40:36.58Z</time></trkpt><trkpt lat="38.1649896" lon="15.653929"><ele>18.0</ele><time>2026-03-29T06:40:37.58Z</time></trkpt><trkpt lat="38.1650667" lon="15.6539058"><ele>18.6</ele><time>2026-03-29T06:40:38.58Z</time></trkpt><trkpt lat="38.1651441" lon="15.6538726"><ele>19.200000000000003</ele><time>2026-03-29T06:40:39.58Z</time></trkpt><trkpt lat="38.1652244" lon="15.6538373"><ele>19.8</ele><time>2026-03-29T06:40:40.58Z</time></trkpt><trkpt lat="38.1653146" lon="15.6537942"><ele>20.400000000000002</ele><time>2026-03-29T06:40:41.581Z</time></trkpt><trkpt lat="38.1654049" lon="15.6537556"><ele>21.0</ele><time>2026-03-29T06:40:42.58Z</time></trkpt><trkpt lat="38.1654942" lon="15.6537149"><ele>21.0</ele><time>2026-03-29T06:40:43.58Z</time></trkpt><trkpt lat="38.1655829" lon="15.6536722"><ele>21.0</ele><time>2026-03-29T06:40:44.58Z</time></trkpt><trkpt lat="38.1656697" lon="15.653634"><ele>21.0</ele><time>2026-03-29T06:40:45.58Z</time></trkpt><trkpt lat="38.1657576" lon="15.6535993"><ele>21.0</ele><time>2026-03-29T06:40:46.58Z</time></trkpt><trkpt lat="38.1658621" lon="15.6535762"><ele>21.0</ele><time>2026-03-29T06:40:47.58Z</time></trkpt><trkpt lat="38.1659586" lon="15.6535557"><ele>20.8</ele><time>2026-03-29T06:40:48.58Z</time></trkpt><trkpt lat="38.1660447" lon="15.6535229"><ele>20.6</ele><time>2026-03-29T06:40:49.58Z</time></trkpt><trkpt lat="38.1661299" lon="15.6534897"><ele>20.4</ele><time>2026-03-29T06:40:50.58Z</time></trkpt><trkpt lat="38.1662178" lon="15.6534518"><ele>20.2</ele><time>2026-03-29T06:40:51.58Z</time></trkpt><trkpt lat="38.1663099" lon="15.6534061"><ele>20.0</ele><time>2026-03-29T06:40:52.58Z</time></trkpt><trkpt lat="38.166401" lon="15.6533663"><ele>20.0</ele><time>2026-03-29T06:40:53.58Z</time></trkpt><trkpt lat="38.1665069" lon="15.6533225"><ele>20.0</ele><time>2026-03-29T06:40:54.58Z</time></trkpt><trkpt lat="38.1666225" lon="15.6532864"><ele>20.0</ele><time>2026-03-29T06:40:55.58Z</time></trkpt><trkpt lat="38.1667377" lon="15.6532525"><ele>20.0</ele><time>2026-03-29T06:40:56.58Z</time></trkpt><trkpt lat="38.166855" lon="15.6532249"><ele>21.25</ele><time>2026-03-29T06:40:57.58Z</time></trkpt><trkpt lat="38.1669747" lon="15.6531923"><ele>22.5</ele><time>2026-03-29T06:40:58.58Z</time></trkpt><trkpt lat="38.1670906" lon="15.6531592"><ele>23.75</ele><time>2026-03-29T06:40:59.58Z</time></trkpt><trkpt lat="38.167204" lon="15.6531152"><ele>25.0</ele><time>2026-03-29T06:41:00.58Z</time></trkpt><trkpt lat="38.1673167" lon="15.6530733"><ele>25.0</ele><time>2026-03-29T06:41:01.58Z</time></trkpt><trkpt lat="38.1674252" lon="15.6530428"><ele>25.0</ele><time>2026-03-29T06:41:02.58Z</time></trkpt><trkpt lat="38.1675345" lon="15.6530279"><ele>25.0</ele><time>2026-03-29T06:41:03.58Z</time></trkpt><trkpt lat="38.1676409" lon="15.653005"><ele>25.0</ele><time>2026-03-29T06:41:04.58Z</time></trkpt><trkpt lat="38.167743" lon="15.6529648"><ele>25.0</ele><time>2026-03-29T06:41:05.58Z</time></trkpt><trkpt lat="38.1678376" lon="15.6529186"><ele>25.0</ele><time>2026-03-29T06:41:06.58Z</time></trkpt><trkpt lat="38.1679347" lon="15.6528848"><ele>25.0</ele><time>2026-03-29T06:41:07.58Z</time></trkpt><trkpt lat="38.168029" lon="15.6528531"><ele>25.0</ele><time>2026-03-29T06:41:08.58Z</time></trkpt><trkpt lat="38.1681189" lon="15.6528254"><ele>25.0</ele><time>2026-03-29T06:41:09.58Z</time></trkpt><trkpt lat="38.1682029" lon="15.6528001"><ele>25.0</ele><time>2026-03-29T06:41:10.58Z</time></trkpt><trkpt lat="38.1682739" lon="15.6527663"><ele>24.833333333333336</ele><time>2026-03-29T06:41:11.58Z</time></trkpt><trkpt lat="38.1683388" lon="15.6527415"><ele>24.666666666666668</ele><time>2026-03-29T06:41:12.58Z</time></trkpt><trkpt lat="38.1684031" lon="15.6527054"><ele>24.5</ele><time>2026-03-29T06:41:13.58Z</time></trkpt><trkpt lat="38.1684722" lon="15.6526699"><ele>24.333333333333336</ele><time>2026-03-29T06:41:14.58Z</time></trkpt><trkpt lat="38.1685441" lon="15.6526258"><ele>24.166666666666668</ele><time>2026-03-29T06:41:15.58Z</time></trkpt><trkpt lat="38.168615" lon="15.6525673"><ele>24.0</ele><time>2026-03-29T06:41:16.58Z</time></trkpt><trkpt lat="38.1686958" lon="15.6524983"><ele>24.0</ele><time>2026-03-29T06:41:17.58Z</time></trkpt><trkpt lat="38.1687829" lon="15.6524193"><ele>24.0</ele><time>2026-03-29T06:41:18.58Z</time></trkpt><trkpt lat="38.1688756" lon="15.6523351"><ele>24.0</ele><time>2026-03-29T06:41:19.58Z</time></trkpt><trkpt lat="38.1689659" lon="15.6522606"><ele>24.0</ele><time>2026-03-29T06:41:20.58Z</time></trkpt><trkpt lat="38.1690588" lon="15.6521885"><ele>24.0</ele><time>2026-03-29T06:41:21.58Z</time></trkpt><trkpt lat="38.1691406" lon="15.6521163"><ele>23.999999999999996</ele><time>2026-03-29T06:41:22.58Z</time></trkpt><trkpt lat="38.1692176" lon="15.6520583"><ele>24.0</ele><time>2026-03-29T06:41:23.58Z</time></trkpt><trkpt lat="38.1692891" lon="15.6520173"><ele>24.0</ele><time>2026-03-29T06:41:24.58Z</time></trkpt><trkpt lat="38.1693559" lon="15.6519783"><ele>24.0</ele><time>2026-03-29T06:41:25.58Z</time></trkpt><trkpt lat="38.1694179" lon="15.6519396"><ele>24.0</ele><time>2026-03-29T06:41:26.581Z</time></trkpt><trkpt lat="38.1694815" lon="15.6519058"><ele>23.999999999999996</ele><time>2026-03-29T06:41:27.58Z</time></trkpt><trkpt lat="38.1695445" lon="15.6518695"><ele>24.0</ele><time>2026-03-29T06:41:28.58Z</time></trkpt><trkpt lat="38.1696037" lon="15.6518339"><ele>24.0</ele><time>2026-03-29T06:41:29.58Z</time></trkpt><trkpt lat="38.1696758" lon="15.6517961"><ele>24.0</ele><time>2026-03-29T06:41:30.58Z</time></trkpt><trkpt lat="38.1697681" lon="15.6517514"><ele>24.0</ele><time>2026-03-29T06:41:31.58Z</time></trkpt><trkpt lat="38.1698887" lon="15.6516906"><ele>24.0</ele><time>2026-03-29T06:41:32.58Z</time></trkpt><trkpt lat="38.1700274" lon="15.6516394"><ele>23.75</ele><time>2026-03-29T06:41:33.58Z</time></trkpt><trkpt lat="38.1701651" lon="15.6516232"><ele>23.5</ele><time>2026-03-29T06:41:34.58Z</time></trkpt><trkpt lat="38.1702945" lon="15.6516528"><ele>23.25</ele><time>2026-03-29T06:41:35.58Z</time></trkpt><trkpt lat="38.1704038" lon="15.6517255"><ele>23.0</ele><time>2026-03-29T06:41:36.58Z</time></trkpt><trkpt lat="38.1705112" lon="15.651817"><ele>23.0</ele><time>2026-03-29T06:41:37.581Z</time></trkpt><trkpt lat="38.1706276" lon="15.6518932"><ele>23.0</ele><time>2026-03-29T06:41:38.58Z</time></trkpt><trkpt lat="38.1707659" lon="15.6519408"><ele>23.0</ele><time>2026-03-29T06:41:39.58Z</time></trkpt><trkpt lat="38.1708948" lon="15.6519522"><ele>23.0</ele><time>2026-03-29T06:41:40.58Z</time></trkpt><trkpt lat="38.1710107" lon="15.6519535"><ele>23.4</ele><time>2026-03-29T06:41:41.58Z</time></trkpt><trkpt lat="38.1711235" lon="15.6519498"><ele>23.799999999999997</ele><time>2026-03-29T06:41:42.58Z</time></trkpt><trkpt lat="38.1712324" lon="15.6519708"><ele>24.2</ele><time>2026-03-29T06:41:43.58Z</time></trkpt><trkpt lat="38.1713319" lon="15.652022"><ele>24.6</ele><time>2026-03-29T06:41:44.58Z</time></trkpt><trkpt lat="38.1714258" lon="15.6520992"><ele>25.0</ele><time>2026-03-29T06:41:45.58Z</time></trkpt><trkpt lat="38.1715091" lon="15.6521978"><ele>25.6</ele><time>2026-03-29T06:41:46.58Z</time></trkpt><trkpt lat="38.1715807" lon="15.6523112"><ele>26.2</ele><time>2026-03-29T06:41:47.58Z</time></trkpt><trkpt lat="38.1716347" lon="15.6524213"><ele>26.799999999999997</ele><time>2026-03-29T06:41:48.58Z</time></trkpt><trkpt lat="38.1716733" lon="15.6525299"><ele>27.4</ele><time>2026-03-29T06:41:49.58Z</time></trkpt><trkpt lat="38.1717077" lon="15.6526474"><ele>28.0</ele><time>2026-03-29T06:41:50.58Z</time></trkpt><trkpt lat="38.1717352" lon="15.6527616"><ele>28.166666666666668</ele><time>2026-03-29T06:41:51.58Z</time></trkpt><trkpt lat="38.1717624" lon="15.6528629"><ele>28.333333333333336</ele><time>2026-03-29T06:41:52.58Z</time></trkpt><trkpt lat="38.1717917" lon="15.6529543"><ele>28.5</ele><time>2026-03-29T06:41:53.58Z</time></trkpt><trkpt lat="38.1718219" lon="15.6530306"><ele>28.666666666666664</ele><time>2026-03-29T06:41:54.58Z</time></trkpt><trkpt lat="38.171869" lon="15.6531028"><ele>28.833333333333332</ele><time>2026-03-29T06:41:55.58Z</time></trkpt><trkpt lat="38.1719308" lon="15.6531705"><ele>29.0</ele><time>2026-03-29T06:41:56.58Z</time></trkpt><trkpt lat="38.1720071" lon="15.6532322"><ele>29.0</ele><time>2026-03-29T06:41:57.58Z</time></trkpt><trkpt lat="38.1720968" lon="15.6532858"><ele>29.0</ele><time>2026-03-29T06:41:58.58Z</time></trkpt><trkpt lat="38.1722029" lon="15.6533335"><ele>29.0</ele><time>2026-03-29T06:41:59.58Z</time></trkpt><trkpt lat="38.1723202" lon="15.6533609"><ele>29.0</ele><time>2026-03-29T06:42:00.58Z</time></trkpt><trkpt lat="38.1724654" lon="15.6533535"><ele>29.666666666666664</ele><time>2026-03-29T06:42:01.58Z</time></trkpt><trkpt lat="38.1726407" lon="15.6533143"><ele>30.333333333333336</ele><time>2026-03-29T06:42:02.58Z</time></trkpt><trkpt lat="38.1728358" lon="15.6532664"><ele>31.0</ele><time>2026-03-29T06:42:03.58Z</time></trkpt><trkpt lat="38.1730506" lon="15.6532076"><ele>31.0</ele><time>2026-03-29T06:42:04.58Z</time></trkpt><trkpt lat="38.1732682" lon="15.6531456"><ele>31.0</ele><time>2026-03-29T06:42:05.58Z</time></trkpt><trkpt lat="38.1734539" lon="15.6531037"><ele>31.0</ele><time>2026-03-29T06:42:06.58Z</time></trkpt><trkpt lat="38.1736256" lon="15.6530824"><ele>31.0</ele><time>2026-03-29T06:42:07.58Z</time></trkpt><trkpt lat="38.1737889" lon="15.6531078"><ele>31.0</ele><time>2026-03-29T06:42:08.58Z</time></trkpt><trkpt lat="38.1739281" lon="15.6531705"><ele>31.0</ele><time>2026-03-29T06:42:09.58Z</time></trkpt><trkpt lat="38.1740408" lon="15.6532678"><ele>31.0</ele><time>2026-03-29T06:42:10.58Z</time></trkpt><trkpt lat="38.174135" lon="15.6534009"><ele>32.0</ele><time>2026-03-29T06:42:11.58Z</time></trkpt><trkpt lat="38.1742134" lon="15.653551"><ele>33.0</ele><time>2026-03-29T06:42:12.58Z</time></trkpt><trkpt lat="38.1742709" lon="15.6537267"><ele>34.0</ele><time>2026-03-29T06:42:13.58Z</time></trkpt><trkpt lat="38.1743077" lon="15.6538983"><ele>35.0</ele><time>2026-03-29T06:42:14.58Z</time></trkpt><trkpt lat="38.1743087" lon="15.6540726"><ele>35.25</ele><time>2026-03-29T06:42:15.58Z</time></trkpt><trkpt lat="38.1742685" lon="15.6542423"><ele>35.5</ele><time>2026-03-29T06:42:16.58Z</time></trkpt><trkpt lat="38.1742003" lon="15.6544119"><ele>35.75</ele><time>2026-03-29T06:42:17.58Z</time></trkpt><trkpt lat="38.1741051" lon="15.6545637"><ele>36.0</ele><time>2026-03-29T06:42:18.58Z</time></trkpt><trkpt lat="38.1739822" lon="15.6546835"><ele>35.333333333333336</ele><time>2026-03-29T06:42:19.58Z</time></trkpt><trkpt lat="38.1738354" lon="15.6547792"><ele>34.66666666666667</ele><time>2026-03-29T06:42:20.58Z</time></trkpt><trkpt lat="38.1736743" lon="15.6548659"><ele>34.0</ele><time>2026-03-29T06:42:21.58Z</time></trkpt><trkpt lat="38.1735141" lon="15.654959"><ele>34.0</ele><time>2026-03-29T06:42:22.58Z</time></trkpt><trkpt lat="38.1733578" lon="15.6550505"><ele>34.0</ele><time>2026-03-29T06:42:23.58Z</time></trkpt><trkpt lat="38.1732238" lon="15.6551236"><ele>34.0</ele><time>2026-03-29T06:42:24.58Z</time></trkpt><trkpt lat="38.1731085" lon="15.6551633"><ele>34.0</ele><time>2026-03-29T06:42:25.58Z</time></trkpt><trkpt lat="38.1729915" lon="15.655159"><ele>34.2</ele><time>2026-03-29T06:42:26.58Z</time></trkpt><trkpt lat="38.1728843" lon="15.6551126"><ele>34.4</ele><time>2026-03-29T06:42:27.58Z</time></trkpt><trkpt lat="38.1728078" lon="15.6550256"><ele>34.6</ele><time>2026-03-29T06:42:28.58Z</time></trkpt><trkpt lat="38.1727555" lon="15.6549067"><ele>34.8</ele><time>2026-03-29T06:42:29.58Z</time></trkpt><trkpt lat="38.1727378" lon="15.6547747"><ele>35.0</ele><time>2026-03-29T06:42:30.581Z</time></trkpt><trkpt lat="38.1727484" lon="15.6546482"><ele>35.0</ele><time>2026-03-29T06:42:31.58Z</time></trkpt><trkpt lat="38.1727914" lon="15.6545294"><ele>35.0</ele><time>2026-03-29T06:42:32.58Z</time></trkpt><trkpt lat="38.1728588" lon="15.6544311"><ele>35.0</ele><time>2026-03-29T06:42:33.58Z</time></trkpt><trkpt lat="38.1729534" lon="15.6543527"><ele>35.0</ele><time>2026-03-29T06:42:34.58Z</time></trkpt><trkpt lat="38.1730757" lon="15.6542916"><ele>34.75</ele><time>2026-03-29T06:42:35.58Z</time></trkpt><trkpt lat="38.1732087" lon="15.6542391"><ele>34.5</ele><time>2026-03-29T06:42:36.58Z</time></trkpt><trkpt lat="38.1733466" lon="15.6541808"><ele>34.25</ele><time>2026-03-29T06:42:37.58Z</time></trkpt><trkpt lat="38.1734857" lon="15.6541137"><ele>34.0</ele><time>2026-03-29T06:42:38.58Z</time></trkpt><trkpt lat="38.1736233" lon="15.6540424"><ele>34.0</ele><time>2026-03-29T06:42:39.58Z</time></trkpt><trkpt lat="38.1737632" lon="15.6539735"><ele>34.0</ele><time>2026-03-29T06:42:40.58Z</time></trkpt><trkpt lat="38.1739034" lon="15.6539072"><ele>34.0</ele><time>2026-03-29T06:42:41.58Z</time></trkpt><trkpt lat="38.1740538" lon="15.6538443"><ele>35.333333333333336</ele><time>2026-03-29T06:42:42.58Z</time></trkpt><trkpt lat="38.1741988" lon="15.6537794"><ele>36.666666666666664</ele><time>2026-03-29T06:42:43.58Z</time></trkpt><trkpt lat="38.1743556" lon="15.6537099"><ele>38.0</ele><time>2026-03-29T06:42:44.58Z</time></trkpt><trkpt lat="38.1745157" lon="15.6536397"><ele>37.666666666666664</ele><time>2026-03-29T06:42:45.58Z</time></trkpt><trkpt lat="38.1746776" lon="15.6535667"><ele>37.333333333333336</ele><time>2026-03-29T06:42:46.58Z</time></trkpt><trkpt lat="38.1748504" lon="15.6534928"><ele>37.0</ele><time>2026-03-29T06:42:47.58Z</time></trkpt><trkpt lat="38.1750287" lon="15.6534189"><ele>37.0</ele><time>2026-03-29T06:42:48.58Z</time></trkpt><trkpt lat="38.1752049" lon="15.6533396"><ele>37.0</ele><time>2026-03-29T06:42:49.58Z</time></trkpt><trkpt lat="38.175386" lon="15.653261"><ele>37.0</ele><time>2026-03-29T06:42:50.58Z</time></trkpt><trkpt lat="38.1755783" lon="15.6531787"><ele>38.333333333333336</ele><time>2026-03-29T06:42:51.58Z</time></trkpt><trkpt lat="38.1757694" lon="15.6530952"><ele>39.666666666666664</ele><time>2026-03-29T06:42:52.58Z</time></trkpt><trkpt lat="38.1759716" lon="15.6530171"><ele>41.0</ele><time>2026-03-29T06:42:53.58Z</time></trkpt><trkpt lat="38.1761698" lon="15.6529273"><ele>41.0</ele><time>2026-03-29T06:42:54.58Z</time></trkpt><trkpt lat="38.1763699" lon="15.6528386"><ele>41.0</ele><time>2026-03-29T06:42:55.58Z</time></trkpt><trkpt lat="38.1765704" lon="15.6527528"><ele>41.0</ele><time>2026-03-29T06:42:56.58Z</time></trkpt><trkpt lat="38.1767706" lon="15.6526612"><ele>43.666666666666664</ele><time>2026-03-29T06:42:57.58Z</time></trkpt><trkpt lat="38.1769775" lon="15.6525646"><ele>46.33333333333333</ele><time>2026-03-29T06:42:58.58Z</time></trkpt><trkpt lat="38.1771883" lon="15.652468"><ele>49.0</ele><time>2026-03-29T06:42:59.58Z</time></trkpt><trkpt lat="38.1774029" lon="15.6523805"><ele>49.33333333333333</ele><time>2026-03-29T06:43:00.58Z</time></trkpt><trkpt lat="38.1776125" lon="15.6522921"><ele>49.66666666666667</ele><time>2026-03-29T06:43:01.58Z</time></trkpt><trkpt lat="38.1778189" lon="15.6522028"><ele>50.0</ele><time>2026-03-29T06:43:02.58Z</time></trkpt><trkpt lat="38.1780225" lon="15.6521094"><ele>49.0</ele><time>2026-03-29T06:43:03.58Z</time></trkpt><trkpt lat="38.1782319" lon="15.6520146"><ele>48.0</ele><time>2026-03-29T06:43:04.58Z</time></trkpt><trkpt lat="38.1784416" lon="15.6519182"><ele>47.0</ele><time>2026-03-29T06:43:05.58Z</time></trkpt><trkpt lat="38.1786572" lon="15.651823"><ele>46.5</ele><time>2026-03-29T06:43:06.58Z</time></trkpt><trkpt lat="38.1788727" lon="15.6517328"><ele>46.0</ele><time>2026-03-29T06:43:07.58Z</time></trkpt><trkpt lat="38.1790892" lon="15.6516428"><ele>48.0</ele><time>2026-03-29T06:43:08.58Z</time></trkpt><trkpt lat="38.1793018" lon="15.6515556"><ele>50.0</ele><time>2026-03-29T06:43:09.58Z</time></trkpt><trkpt lat="38.1795092" lon="15.6514674"><ele>52.0</ele><time>2026-03-29T06:43:10.58Z</time></trkpt><trkpt lat="38.1797214" lon="15.6513714"><ele>54.0</ele><time>2026-03-29T06:43:11.58Z</time></trkpt><trkpt lat="38.179936" lon="15.6512776"><ele>56.0</ele><time>2026-03-29T06:43:12.58Z</time></trkpt><trkpt lat="38.1801463" lon="15.651183"><ele>52.333333333333336</ele><time>2026-03-29T06:43:13.58Z</time></trkpt><trkpt lat="38.1803546" lon="15.6510846"><ele>48.66666666666667</ele><time>2026-03-29T06:43:14.58Z</time></trkpt><trkpt lat="38.1805599" lon="15.6509799"><ele>45.0</ele><time>2026-03-29T06:43:15.58Z</time></trkpt><trkpt lat="38.1807635" lon="15.6508699"><ele>44.0</ele><time>2026-03-29T06:43:16.58Z</time></trkpt><trkpt lat="38.1809667" lon="15.6507471"><ele>43.0</ele><time>2026-03-29T06:43:17.58Z</time></trkpt><trkpt lat="38.1811704" lon="15.6506157"><ele>43.0</ele><time>2026-03-29T06:43:18.58Z</time></trkpt><trkpt lat="38.1813748" lon="15.6504797"><ele>43.0</ele><time>2026-03-29T06:43:19.58Z</time></trkpt><trkpt lat="38.1815824" lon="15.6503353"><ele>41.5</ele><time>2026-03-29T06:43:20.58Z</time></trkpt><trkpt lat="38.1817868" lon="15.6501887"><ele>40.0</ele><time>2026-03-29T06:43:21.58Z</time></trkpt><trkpt lat="38.1819886" lon="15.6500385"><ele>40.0</ele><time>2026-03-29T06:43:22.58Z</time></trkpt><trkpt lat="38.1821873" lon="15.6498891"><ele>40.0</ele><time>2026-03-29T06:43:23.58Z</time></trkpt><trkpt lat="38.1823913" lon="15.6497392"><ele>41.0</ele><time>2026-03-29T06:43:24.58Z</time></trkpt><trkpt lat="38.1826009" lon="15.649594"><ele>42.0</ele><time>2026-03-29T06:43:25.58Z</time></trkpt><trkpt lat="38.1828077" lon="15.6494434"><ele>42.0</ele><time>2026-03-29T06:43:26.58Z</time></trkpt><trkpt lat="38.1830071" lon="15.6492899"><ele>42.0</ele><time>2026-03-29T06:43:27.58Z</time></trkpt><trkpt lat="38.1832082" lon="15.6491422"><ele>41.0</ele><time>2026-03-29T06:43:28.58Z</time></trkpt><trkpt lat="38.1834087" lon="15.6489962"><ele>40.0</ele><time>2026-03-29T06:43:29.58Z</time></trkpt><trkpt lat="38.1836143" lon="15.6488539"><ele>40.0</ele><time>2026-03-29T06:43:30.58Z</time></trkpt><trkpt lat="38.183818" lon="15.6487257"><ele>40.0</ele><time>2026-03-29T06:43:31.58Z</time></trkpt><trkpt lat="38.1840324" lon="15.6486101"><ele>38.0</ele><time>2026-03-29T06:43:32.58Z</time></trkpt><trkpt lat="38.1842477" lon="15.6485086"><ele>36.0</ele><time>2026-03-29T06:43:33.58Z</time></trkpt><trkpt lat="38.1844676" lon="15.6484182"><ele>36.0</ele><time>2026-03-29T06:43:34.58Z</time></trkpt><trkpt lat="38.1846895" lon="15.648338"><ele>36.0</ele><time>2026-03-29T06:43:35.58Z</time></trkpt><trkpt lat="38.184916" lon="15.6482623"><ele>37.5</ele><time>2026-03-29T06:43:36.58Z</time></trkpt><trkpt lat="38.1851458" lon="15.6481971"><ele>39.0</ele><time>2026-03-29T06:43:37.58Z</time></trkpt><trkpt lat="38.1853762" lon="15.6481449"><ele>39.0</ele><time>2026-03-29T06:43:38.58Z</time></trkpt><trkpt lat="38.1856121" lon="15.6481096"><ele>39.0</ele><time>2026-03-29T06:43:39.58Z</time></trkpt><trkpt lat="38.1858405" lon="15.6480939"><ele>38.0</ele><time>2026-03-29T06:43:40.58Z</time></trkpt><trkpt lat="38.1860661" lon="15.6480888"><ele>37.0</ele><time>2026-03-29T06:43:41.58Z</time></trkpt><trkpt lat="38.1863013" lon="15.6480932"><ele>34.66666666666667</ele><time>2026-03-29T06:43:42.58Z</time></trkpt><trkpt lat="38.1865297" lon="15.6481109"><ele>32.333333333333336</ele><time>2026-03-29T06:43:43.58Z</time></trkpt><trkpt lat="38.1867487" lon="15.648135"><ele>30.0</ele><time>2026-03-29T06:43:44.58Z</time></trkpt><trkpt lat="38.186958" lon="15.6481626"><ele>30.0</ele><time>2026-03-29T06:43:45.58Z</time></trkpt><trkpt lat="38.1871666" lon="15.6482062"><ele>30.0</ele><time>2026-03-29T06:43:46.581Z</time></trkpt><trkpt lat="38.1873644" lon="15.6482629"><ele>30.0</ele><time>2026-03-29T06:43:47.58Z</time></trkpt><trkpt lat="38.1875638" lon="15.6483217"><ele>30.0</ele><time>2026-03-29T06:43:48.58Z</time></trkpt><trkpt lat="38.187761" lon="15.648395"><ele>30.0</ele><time>2026-03-29T06:43:49.58Z</time></trkpt><trkpt lat="38.1879668" lon="15.6484615"><ele>30.0</ele><time>2026-03-29T06:43:50.58Z</time></trkpt><trkpt lat="38.1881735" lon="15.6485346"><ele>29.666666666666664</ele><time>2026-03-29T06:43:51.58Z</time></trkpt><trkpt lat="38.1883856" lon="15.6486043"><ele>29.333333333333332</ele><time>2026-03-29T06:43:52.58Z</time></trkpt><trkpt lat="38.1886032" lon="15.648682"><ele>29.0</ele><time>2026-03-29T06:43:53.58Z</time></trkpt><trkpt lat="38.1888254" lon="15.6487473"><ele>28.5</ele><time>2026-03-29T06:43:54.58Z</time></trkpt><trkpt lat="38.1890584" lon="15.6488105"><ele>28.0</ele><time>2026-03-29T06:43:55.58Z</time></trkpt><trkpt lat="38.1892941" lon="15.6488547"><ele>28.0</ele><time>2026-03-29T06:43:56.58Z</time></trkpt><trkpt lat="38.1895236" lon="15.6488781"><ele>28.0</ele><time>2026-03-29T06:43:57.58Z</time></trkpt><trkpt lat="38.1897421" lon="15.6488862"><ele>28.0</ele><time>2026-03-29T06:43:58.58Z</time></trkpt><trkpt lat="38.1899566" lon="15.6488726"><ele>28.0</ele><time>2026-03-29T06:43:59.58Z</time></trkpt><trkpt lat="38.1901712" lon="15.6488513"><ele>28.0</ele><time>2026-03-29T06:44:00.581Z</time></trkpt><trkpt lat="38.1903846" lon="15.6488148"><ele>28.0</ele><time>2026-03-29T06:44:01.58Z</time></trkpt><trkpt lat="38.1905963" lon="15.6487634"><ele>28.666666666666668</ele><time>2026-03-29T06:44:02.58Z</time></trkpt><trkpt lat="38.1908021" lon="15.6487075"><ele>29.333333333333336</ele><time>2026-03-29T06:44:03.58Z</time></trkpt><trkpt lat="38.1910071" lon="15.6486411"><ele>30.0</ele><time>2026-03-29T06:44:04.58Z</time></trkpt><trkpt lat="38.1912072" lon="15.6485533"><ele>30.0</ele><time>2026-03-29T06:44:05.58Z</time></trkpt><trkpt lat="38.1914038" lon="15.6484524"><ele>30.0</ele><time>2026-03-29T06:44:06.58Z</time></trkpt><trkpt lat="38.1915941" lon="15.6483361"><ele>30.0</ele><time>2026-03-29T06:44:07.58Z</time></trkpt><trkpt lat="38.1917817" lon="15.6482122"><ele>29.666666666666664</ele><time>2026-03-29T06:44:08.58Z</time></trkpt><trkpt lat="38.1919634" lon="15.6480727"><ele>29.333333333333332</ele><time>2026-03-29T06:44:09.58Z</time></trkpt><trkpt lat="38.1921317" lon="15.647926"><ele>29.0</ele><time>2026-03-29T06:44:10.58Z</time></trkpt><trkpt lat="38.1922991" lon="15.6477762"><ele>30.333333333333332</ele><time>2026-03-29T06:44:11.58Z</time></trkpt><trkpt lat="38.1924608" lon="15.6476125"><ele>31.666666666666664</ele><time>2026-03-29T06:44:12.58Z</time></trkpt><trkpt lat="38.1926219" lon="15.6474437"><ele>33.0</ele><time>2026-03-29T06:44:13.58Z</time></trkpt><trkpt lat="38.1927915" lon="15.6472732"><ele>33.0</ele><time>2026-03-29T06:44:14.58Z</time></trkpt><trkpt lat="38.1929561" lon="15.6471044"><ele>33.0</ele><time>2026-03-29T06:44:15.58Z</time></trkpt><trkpt lat="38.1931252" lon="15.6469205"><ele>33.0</ele><time>2026-03-29T06:44:16.58Z</time></trkpt><trkpt lat="38.1932954" lon="15.6467509"><ele>34.0</ele><time>2026-03-29T06:44:17.58Z</time></trkpt><trkpt lat="38.1934642" lon="15.6465835"><ele>35.0</ele><time>2026-03-29T06:44:18.58Z</time></trkpt><trkpt lat="38.19363" lon="15.646408"><ele>36.0</ele><time>2026-03-29T06:44:19.58Z</time></trkpt><trkpt lat="38.1937982" lon="15.6462313"><ele>35.666666666666664</ele><time>2026-03-29T06:44:20.58Z</time></trkpt><trkpt lat="38.1939694" lon="15.6460587"><ele>35.33333333333333</ele><time>2026-03-29T06:44:21.58Z</time></trkpt><trkpt lat="38.1941443" lon="15.6458776"><ele>35.0</ele><time>2026-03-29T06:44:22.58Z</time></trkpt><trkpt lat="38.1943208" lon="15.6457001"><ele>35.0</ele><time>2026-03-29T06:44:23.58Z</time></trkpt><trkpt lat="38.1944919" lon="15.6455209"><ele>35.0</ele><time>2026-03-29T06:44:24.58Z</time></trkpt><trkpt lat="38.194671" lon="15.6453362"><ele>34.5</ele><time>2026-03-29T06:44:25.58Z</time></trkpt><trkpt lat="38.194861" lon="15.6451452"><ele>34.0</ele><time>2026-03-29T06:44:26.58Z</time></trkpt><trkpt lat="38.1950445" lon="15.6449602"><ele>34.0</ele><time>2026-03-29T06:44:27.58Z</time></trkpt><trkpt lat="38.1952271" lon="15.6447714"><ele>34.0</ele><time>2026-03-29T06:44:28.581Z</time></trkpt><trkpt lat="38.1954086" lon="15.6445779"><ele>33.0</ele><time>2026-03-29T06:44:29.58Z</time></trkpt><trkpt lat="38.1955945" lon="15.644386"><ele>32.0</ele><time>2026-03-29T06:44:30.58Z</time></trkpt><trkpt lat="38.1957811" lon="15.6441942"><ele>35.5</ele><time>2026-03-29T06:44:31.58Z</time></trkpt><trkpt lat="38.1959692" lon="15.6440053"><ele>39.0</ele><time>2026-03-29T06:44:32.58Z</time></trkpt><trkpt lat="38.1961575" lon="15.6438182"><ele>41.0</ele><time>2026-03-29T06:44:33.58Z</time></trkpt><trkpt lat="38.1963418" lon="15.6436268"><ele>43.0</ele><time>2026-03-29T06:44:34.58Z</time></trkpt><trkpt lat="38.196518" lon="15.6434341"><ele>48.0</ele><time>2026-03-29T06:44:35.58Z</time></trkpt><trkpt lat="38.1967014" lon="15.6432481"><ele>53.0</ele><time>2026-03-29T06:44:36.58Z</time></trkpt><trkpt lat="38.1968862" lon="15.643071"><ele>53.0</ele><time>2026-03-29T06:44:37.58Z</time></trkpt><trkpt lat="38.197076" lon="15.6428961"><ele>53.0</ele><time>2026-03-29T06:44:38.58Z</time></trkpt><trkpt lat="38.1972705" lon="15.642733"><ele>54.0</ele><time>2026-03-29T06:44:39.58Z</time></trkpt><trkpt lat="38.1974679" lon="15.6425721"><ele>55.0</ele><time>2026-03-29T06:44:40.58Z</time></trkpt><trkpt lat="38.1976679" lon="15.6424196"><ele>55.0</ele><time>2026-03-29T06:44:41.58Z</time></trkpt><trkpt lat="38.1978724" lon="15.6422765"><ele>55.0</ele><time>2026-03-29T06:44:42.58Z</time></trkpt><trkpt lat="38.1980841" lon="15.6421442"><ele>55.0</ele><time>2026-03-29T06:44:43.58Z</time></trkpt><trkpt lat="38.1982957" lon="15.6420143"><ele>55.0</ele><time>2026-03-29T06:44:44.58Z</time></trkpt><trkpt lat="38.1985073" lon="15.6418951"><ele>55.0</ele><time>2026-03-29T06:44:45.58Z</time></trkpt><trkpt lat="38.1987181" lon="15.6417873"><ele>55.0</ele><time>2026-03-29T06:44:46.58Z</time></trkpt><trkpt lat="38.1989288" lon="15.641688"><ele>57.0</ele><time>2026-03-29T06:44:47.58Z</time></trkpt><trkpt lat="38.1991464" lon="15.641593"><ele>59.0</ele><time>2026-03-29T06:44:48.58Z</time></trkpt><trkpt lat="38.1993682" lon="15.6414886"><ele>59.0</ele><time>2026-03-29T06:44:49.58Z</time></trkpt><trkpt lat="38.1995984" lon="15.6413894"><ele>59.0</ele><time>2026-03-29T06:44:50.58Z</time></trkpt><trkpt lat="38.199828" lon="15.6412927"><ele>60.0</ele><time>2026-03-29T06:44:51.58Z</time></trkpt><trkpt lat="38.2000612" lon="15.6412052"><ele>61.0</ele><time>2026-03-29T06:44:52.58Z</time></trkpt><trkpt lat="38.2002949" lon="15.6411177"><ele>59.0</ele><time>2026-03-29T06:44:53.58Z</time></trkpt><trkpt lat="38.2005316" lon="15.6410466"><ele>57.0</ele><time>2026-03-29T06:44:54.58Z</time></trkpt><trkpt lat="38.2007754" lon="15.6409759"><ele>56.0</ele><time>2026-03-29T06:44:55.58Z</time></trkpt><trkpt lat="38.2010192" lon="15.6409172"><ele>55.0</ele><time>2026-03-29T06:44:56.58Z</time></trkpt><trkpt lat="38.201263" lon="15.6408716"><ele>56.0</ele><time>2026-03-29T06:44:57.58Z</time></trkpt><trkpt lat="38.2015079" lon="15.6408331"><ele>57.0</ele><time>2026-03-29T06:44:58.58Z</time></trkpt><trkpt lat="38.2017488" lon="15.6408006"><ele>57.0</ele><time>2026-03-29T06:44:59.58Z</time></trkpt><trkpt lat="38.2019944" lon="15.6407796"><ele>57.0</ele><time>2026-03-29T06:45:00.58Z</time></trkpt><trkpt lat="38.2022343" lon="15.6407695"><ele>58.5</ele><time>2026-03-29T06:45:01.58Z</time></trkpt><trkpt lat="38.2024819" lon="15.6407743"><ele>60.0</ele><time>2026-03-29T06:45:02.58Z</time></trkpt><trkpt lat="38.2027267" lon="15.6407889"><ele>60.0</ele><time>2026-03-29T06:45:03.58Z</time></trkpt><trkpt lat="38.2029715" lon="15.6408061"><ele>60.0</ele><time>2026-03-29T06:45:04.58Z</time></trkpt><trkpt lat="38.2032141" lon="15.6408187"><ele>58.0</ele><time>2026-03-29T06:45:05.58Z</time></trkpt><trkpt lat="38.2034531" lon="15.6408333"><ele>56.0</ele><time>2026-03-29T06:45:06.58Z</time></trkpt><trkpt lat="38.2036966" lon="15.6408482"><ele>56.0</ele><time>2026-03-29T06:45:07.58Z</time></trkpt><trkpt lat="38.2039412" lon="15.6408548"><ele>56.0</ele><time>2026-03-29T06:45:08.58Z</time></trkpt><trkpt lat="38.2041878" lon="15.6408609"><ele>54.5</ele><time>2026-03-29T06:45:09.58Z</time></trkpt><trkpt lat="38.2044273" lon="15.6408652"><ele>53.0</ele><time>2026-03-29T06:45:10.58Z</time></trkpt><trkpt lat="38.2046701" lon="15.6408752"><ele>53.0</ele><time>2026-03-29T06:45:11.58Z</time></trkpt><trkpt lat="38.204912" lon="15.6408852"><ele>53.0</ele><time>2026-03-29T06:45:12.58Z</time></trkpt><trkpt lat="38.2051625" lon="15.6408988"><ele>53.0</ele><time>2026-03-29T06:45:13.58Z</time></trkpt><trkpt lat="38.2054136" lon="15.6409243"><ele>53.0</ele><time>2026-03-29T06:45:14.58Z</time></trkpt><trkpt lat="38.2056567" lon="15.6409609"><ele>55.0</ele><time>2026-03-29T06:45:15.58Z</time></trkpt><trkpt lat="38.2058944" lon="15.6410125"><ele>57.0</ele><time>2026-03-29T06:45:16.58Z</time></trkpt><trkpt lat="38.2061308" lon="15.6410686"><ele>57.0</ele><time>2026-03-29T06:45:17.58Z</time></trkpt><trkpt lat="38.206367" lon="15.6411296"><ele>57.0</ele><time>2026-03-29T06:45:18.58Z</time></trkpt><trkpt lat="38.2066018" lon="15.6412054"><ele>59.0</ele><time>2026-03-29T06:45:19.58Z</time></trkpt><trkpt lat="38.2068348" lon="15.641291"><ele>61.0</ele><time>2026-03-29T06:45:20.58Z</time></trkpt><trkpt lat="38.2070636" lon="15.6413876"><ele>61.0</ele><time>2026-03-29T06:45:21.581Z</time></trkpt><trkpt lat="38.2072921" lon="15.6414894"><ele>61.0</ele><time>2026-03-29T06:45:22.58Z</time></trkpt><trkpt lat="38.2075237" lon="15.6415959"><ele>58.0</ele><time>2026-03-29T06:45:23.58Z</time></trkpt><trkpt lat="38.2077564" lon="15.6417103"><ele>55.0</ele><time>2026-03-29T06:45:24.58Z</time></trkpt><trkpt lat="38.2079729" lon="15.6418236"><ele>55.33333333333333</ele><time>2026-03-29T06:45:25.58Z</time></trkpt><trkpt lat="38.2081745" lon="15.6419492"><ele>55.66666666666667</ele><time>2026-03-29T06:45:26.58Z</time></trkpt><trkpt lat="38.2083724" lon="15.6420768"><ele>56.0</ele><time>2026-03-29T06:45:27.58Z</time></trkpt><trkpt lat="38.2085771" lon="15.6422042"><ele>57.66666666666667</ele><time>2026-03-29T06:45:28.58Z</time></trkpt><trkpt lat="38.2087736" lon="15.6423374"><ele>59.33333333333333</ele><time>2026-03-29T06:45:29.58Z</time></trkpt><trkpt lat="38.2089644" lon="15.6424757"><ele>61.0</ele><time>2026-03-29T06:45:30.58Z</time></trkpt><trkpt lat="38.2091541" lon="15.6426225"><ele>62.33333333333333</ele><time>2026-03-29T06:45:31.58Z</time></trkpt><trkpt lat="38.2093392" lon="15.6427747"><ele>63.66666666666667</ele><time>2026-03-29T06:45:32.58Z</time></trkpt><trkpt lat="38.2095228" lon="15.6429372"><ele>65.0</ele><time>2026-03-29T06:45:33.58Z</time></trkpt><trkpt lat="38.2097017" lon="15.6431096"><ele>69.5</ele><time>2026-03-29T06:45:34.58Z</time></trkpt><trkpt lat="38.2098781" lon="15.6432856"><ele>74.0</ele><time>2026-03-29T06:45:35.58Z</time></trkpt><trkpt lat="38.2100558" lon="15.6434642"><ele>79.0</ele><time>2026-03-29T06:45:36.581Z</time></trkpt><trkpt lat="38.2102332" lon="15.643648"><ele>84.0</ele><time>2026-03-29T06:45:37.58Z</time></trkpt><trkpt lat="38.2104023" lon="15.6438387"><ele>84.0</ele><time>2026-03-29T06:45:38.58Z</time></trkpt><trkpt lat="38.2105733" lon="15.6440245"><ele>84.0</ele><time>2026-03-29T06:45:39.58Z</time></trkpt><trkpt lat="38.2107464" lon="15.6442152"><ele>83.33333333333333</ele><time>2026-03-29T06:45:40.58Z</time></trkpt><trkpt lat="38.210917" lon="15.644404"><ele>82.66666666666666</ele><time>2026-03-29T06:45:41.58Z</time></trkpt><trkpt lat="38.2110856" lon="15.6445882"><ele>82.0</ele><time>2026-03-29T06:45:42.58Z</time></trkpt><trkpt lat="38.2112582" lon="15.644776"><ele>82.5</ele><time>2026-03-29T06:45:43.58Z</time></trkpt><trkpt lat="38.2114301" lon="15.64496"><ele>83.0</ele><time>2026-03-29T06:45:44.58Z</time></trkpt><trkpt lat="38.2116032" lon="15.6451448"><ele>87.0</ele><time>2026-03-29T06:45:45.58Z</time></trkpt><trkpt lat="38.2117765" lon="15.6453242"><ele>91.0</ele><time>2026-03-29T06:45:46.58Z</time></trkpt><trkpt lat="38.2119511" lon="15.645504"><ele>95.0</ele><time>2026-03-29T06:45:47.58Z</time></trkpt><trkpt lat="38.2121208" lon="15.6456819"><ele>95.0</ele><time>2026-03-29T06:45:48.58Z</time></trkpt><trkpt lat="38.2122997" lon="15.6458597"><ele>95.0</ele><time>2026-03-29T06:45:49.58Z</time></trkpt><trkpt lat="38.2124782" lon="15.6460338"><ele>84.0</ele><time>2026-03-29T06:45:50.58Z</time></trkpt><trkpt lat="38.2126583" lon="15.6462067"><ele>73.0</ele><time>2026-03-29T06:45:51.58Z</time></trkpt><trkpt lat="38.2128462" lon="15.6463689"><ele>73.0</ele><time>2026-03-29T06:45:52.58Z</time></trkpt><trkpt lat="38.2130379" lon="15.6465181"><ele>73.0</ele><time>2026-03-29T06:45:53.58Z</time></trkpt><trkpt lat="38.2132313" lon="15.6466658"><ele>76.0</ele><time>2026-03-29T06:45:54.58Z</time></trkpt><trkpt lat="38.2134322" lon="15.646815"><ele>79.0</ele><time>2026-03-29T06:45:55.58Z</time></trkpt><trkpt lat="38.2136429" lon="15.6469688"><ele>81.0</ele><time>2026-03-29T06:45:56.581Z</time></trkpt><trkpt lat="38.213872" lon="15.6471146"><ele>83.0</ele><time>2026-03-29T06:45:57.58Z</time></trkpt><trkpt lat="38.2141112" lon="15.647248"><ele>91.5</ele><time>2026-03-29T06:45:58.58Z</time></trkpt><trkpt lat="38.2143431" lon="15.6473698"><ele>100.0</ele><time>2026-03-29T06:45:59.58Z</time></trkpt><trkpt lat="38.2145599" lon="15.6474767"><ele>100.0</ele><time>2026-03-29T06:46:00.58Z</time></trkpt><trkpt lat="38.2147665" lon="15.6475696"><ele>100.0</ele><time>2026-03-29T06:46:01.58Z</time></trkpt><trkpt lat="38.2149657" lon="15.6476625"><ele>100.0</ele><time>2026-03-29T06:46:02.58Z</time></trkpt><trkpt lat="38.2151654" lon="15.6477472"><ele>103.66666666666667</ele><time>2026-03-29T06:46:03.58Z</time></trkpt><trkpt lat="38.2153671" lon="15.6478202"><ele>107.33333333333334</ele><time>2026-03-29T06:46:04.58Z</time></trkpt><trkpt lat="38.2155734" lon="15.6478845"><ele>111.0</ele><time>2026-03-29T06:46:05.58Z</time></trkpt><trkpt lat="38.2157858" lon="15.6479387"><ele>111.66666666666666</ele><time>2026-03-29T06:46:06.58Z</time></trkpt><trkpt lat="38.216001" lon="15.6479874"><ele>112.33333333333333</ele><time>2026-03-29T06:46:07.58Z</time></trkpt><trkpt lat="38.2162214" lon="15.648038"><ele>113.0</ele><time>2026-03-29T06:46:08.58Z</time></trkpt><trkpt lat="38.2164423" lon="15.6480811"><ele>111.5</ele><time>2026-03-29T06:46:09.58Z</time></trkpt><trkpt lat="38.2166759" lon="15.6481131"><ele>110.0</ele><time>2026-03-29T06:46:10.58Z</time></trkpt><trkpt lat="38.216907" lon="15.6481264"><ele>110.0</ele><time>2026-03-29T06:46:11.58Z</time></trkpt><trkpt lat="38.2171433" lon="15.6481418"><ele>110.0</ele><time>2026-03-29T06:46:12.58Z</time></trkpt><trkpt lat="38.2173789" lon="15.6481538"><ele>111.5</ele><time>2026-03-29T06:46:13.58Z</time></trkpt><trkpt lat="38.2176214" lon="15.6481548"><ele>113.0</ele><time>2026-03-29T06:46:14.58Z</time></trkpt><trkpt lat="38.2178575" lon="15.6481463"><ele>113.0</ele><time>2026-03-29T06:46:15.58Z</time></trkpt><trkpt lat="38.2180982" lon="15.6481421"><ele>113.0</ele><time>2026-03-29T06:46:16.58Z</time></trkpt><trkpt lat="38.2183371" lon="15.648136"><ele>113.0</ele><time>2026-03-29T06:46:17.581Z</time></trkpt><trkpt lat="38.2185777" lon="15.6481223"><ele>113.0</ele><time>2026-03-29T06:46:18.58Z</time></trkpt><trkpt lat="38.218818" lon="15.6481038"><ele>110.0</ele><time>2026-03-29T06:46:19.58Z</time></trkpt><trkpt lat="38.2190583" lon="15.6480798"><ele>107.0</ele><time>2026-03-29T06:46:20.58Z</time></trkpt><trkpt lat="38.2192955" lon="15.6480541"><ele>107.0</ele><time>2026-03-29T06:46:21.58Z</time></trkpt><trkpt lat="38.2195319" lon="15.6480319"><ele>107.0</ele><time>2026-03-29T06:46:22.58Z</time></trkpt><trkpt lat="38.2197915" lon="15.6480385"><ele>97.0</ele><time>2026-03-29T06:46:23.58Z</time></trkpt><trkpt lat="38.2200431" lon="15.648051"><ele>87.0</ele><time>2026-03-29T06:46:24.58Z</time></trkpt><trkpt lat="38.2202874" lon="15.6480608"><ele>87.0</ele><time>2026-03-29T06:46:25.58Z</time></trkpt><trkpt lat="38.2205266" lon="15.6480767"><ele>87.0</ele><time>2026-03-29T06:46:26.58Z</time></trkpt><trkpt lat="38.2207518" lon="15.6481011"><ele>91.0</ele><time>2026-03-29T06:46:27.58Z</time></trkpt><trkpt lat="38.220981" lon="15.648138"><ele>95.0</ele><time>2026-03-29T06:46:28.58Z</time></trkpt><trkpt lat="38.2212165" lon="15.6481882"><ele>95.0</ele><time>2026-03-29T06:46:29.58Z</time></trkpt><trkpt lat="38.2214414" lon="15.648244"><ele>95.0</ele><time>2026-03-29T06:46:30.581Z</time></trkpt><trkpt lat="38.2216657" lon="15.6483012"><ele>96.5</ele><time>2026-03-29T06:46:31.58Z</time></trkpt><trkpt lat="38.2218918" lon="15.6483616"><ele>98.0</ele><time>2026-03-29T06:46:32.58Z</time></trkpt><trkpt lat="38.2221125" lon="15.6484181"><ele>102.0</ele><time>2026-03-29T06:46:33.58Z</time></trkpt><trkpt lat="38.2223278" lon="15.6484719"><ele>106.0</ele><time>2026-03-29T06:46:34.58Z</time></trkpt><trkpt lat="38.2225305" lon="15.6485237"><ele>110.0</ele><time>2026-03-29T06:46:35.58Z</time></trkpt><trkpt lat="38.2227286" lon="15.6485884"><ele>109.66666666666666</ele><time>2026-03-29T06:46:36.58Z</time></trkpt><trkpt lat="38.22291" lon="15.6486671"><ele>109.33333333333334</ele><time>2026-03-29T06:46:37.58Z</time></trkpt><trkpt lat="38.22311" lon="15.6487311"><ele>109.0</ele><time>2026-03-29T06:46:38.58Z</time></trkpt><trkpt lat="38.2239919" lon="15.6490235"><ele>125.0</ele><time>2026-03-29T06:46:43.706Z</time></trkpt><trkpt lat="38.2285117" lon="15.6547617"><ele>125.0</ele><time>2026-03-29T06:47:08.579Z</time></trkpt><trkpt lat="38.228685" lon="15.6550133"><ele>125.0</ele><time>2026-03-29T06:47:09.579Z</time></trkpt><trkpt lat="38.2287983" lon="15.6552733"><ele>132.0</ele><time>2026-03-29T06:47:10.579Z</time></trkpt><trkpt lat="38.2289117" lon="15.6555383"><ele>139.0</ele><time>2026-03-29T06:47:11.579Z</time></trkpt><trkpt lat="38.2290133" lon="15.6558183"><ele>124.5</ele><time>2026-03-29T06:47:12.579Z</time></trkpt><trkpt lat="38.2291067" lon="15.65611"><ele>110.0</ele><time>2026-03-29T06:47:13.579Z</time></trkpt><trkpt lat="38.2292067" lon="15.6563933"><ele>110.0</ele><time>2026-03-29T06:47:14.579Z</time></trkpt><trkpt lat="38.2293" lon="15.6566833"><ele>110.0</ele><time>2026-03-29T06:47:15.579Z</time></trkpt><trkpt lat="38.2293783" lon="15.6569767"><ele>114.0</ele><time>2026-03-29T06:47:16.579Z</time></trkpt><trkpt lat="38.2294567" lon="15.6572583"><ele>118.0</ele><time>2026-03-29T06:47:17.58Z</time></trkpt><trkpt lat="38.2295417" lon="15.65754"><ele>119.5</ele><time>2026-03-29T06:47:18.579Z</time></trkpt><trkpt lat="38.22963" lon="15.6578267"><ele>121.0</ele><time>2026-03-29T06:47:19.579Z</time></trkpt><trkpt lat="38.2297183" lon="15.6581117"><ele>110.0</ele><time>2026-03-29T06:47:20.579Z</time></trkpt><trkpt lat="38.22981" lon="15.6583933"><ele>99.0</ele><time>2026-03-29T06:47:21.579Z</time></trkpt><trkpt lat="38.22989" lon="15.6586767"><ele>99.0</ele><time>2026-03-29T06:47:22.579Z</time></trkpt><trkpt lat="38.2299733" lon="15.6589633"><ele>99.0</ele><time>2026-03-29T06:47:23.579Z</time></trkpt><trkpt lat="38.2300567" lon="15.65925"><ele>102.0</ele><time>2026-03-29T06:47:24.579Z</time></trkpt><trkpt lat="38.23014" lon="15.6595417"><ele>105.0</ele><time>2026-03-29T06:47:25.579Z</time></trkpt><trkpt lat="38.2302283" lon="15.6598333"><ele>105.0</ele><time>2026-03-29T06:47:26.579Z</time></trkpt><trkpt lat="38.2303133" lon="15.6601283"><ele>105.0</ele><time>2026-03-29T06:47:27.579Z</time></trkpt><trkpt lat="38.2304033" lon="15.6604167"><ele>111.5</ele><time>2026-03-29T06:47:28.58Z</time></trkpt><trkpt lat="38.2304883" lon="15.6606983"><ele>118.0</ele><time>2026-03-29T06:47:29.579Z</time></trkpt><trkpt lat="38.2305683" lon="15.6609833"><ele>107.5</ele><time>2026-03-29T06:47:30.579Z</time></trkpt><trkpt lat="38.2306483" lon="15.6612683"><ele>97.0</ele><time>2026-03-29T06:47:31.579Z</time></trkpt><trkpt lat="38.2307317" lon="15.6615517"><ele>97.0</ele><time>2026-03-29T06:47:32.579Z</time></trkpt><trkpt lat="38.2308167" lon="15.6618383"><ele>97.0</ele><time>2026-03-29T06:47:33.579Z</time></trkpt><trkpt lat="38.230895" lon="15.6621267"><ele>102.0</ele><time>2026-03-29T06:47:34.579Z</time></trkpt><trkpt lat="38.230975" lon="15.66242"><ele>107.0</ele><time>2026-03-29T06:47:35.579Z</time></trkpt><trkpt lat="38.2310533" lon="15.6627117"><ele>110.5</ele><time>2026-03-29T06:47:36.579Z</time></trkpt><trkpt lat="38.2311317" lon="15.6629917"><ele>114.0</ele><time>2026-03-29T06:47:37.579Z</time></trkpt><trkpt lat="38.231215" lon="15.663285"><ele>114.0</ele><time>2026-03-29T06:47:38.579Z</time></trkpt><trkpt lat="38.2312933" lon="15.6635733"><ele>114.0</ele><time>2026-03-29T06:47:39.579Z</time></trkpt><trkpt lat="38.231375" lon="15.6638617"><ele>113.5</ele><time>2026-03-29T06:47:40.58Z</time></trkpt><trkpt lat="38.231455" lon="15.6641533"><ele>113.0</ele><time>2026-03-29T06:47:41.579Z</time></trkpt><trkpt lat="38.231545" lon="15.6644317"><ele>105.5</ele><time>2026-03-29T06:47:42.579Z</time></trkpt><trkpt lat="38.23163" lon="15.6647167"><ele>98.0</ele><time>2026-03-29T06:47:43.579Z</time></trkpt><trkpt lat="38.2317167" lon="15.665005"><ele>103.0</ele><time>2026-03-29T06:47:44.579Z</time></trkpt><trkpt lat="38.2318083" lon="15.6652883"><ele>108.0</ele><time>2026-03-29T06:47:45.579Z</time></trkpt><trkpt lat="38.2318983" lon="15.6655733"><ele>108.0</ele><time>2026-03-29T06:47:46.579Z</time></trkpt><trkpt lat="38.2319917" lon="15.66586"><ele>108.0</ele><time>2026-03-29T06:47:47.579Z</time></trkpt><trkpt lat="38.2320883" lon="15.666145"><ele>116.0</ele><time>2026-03-29T06:47:48.579Z</time></trkpt><trkpt lat="38.2321833" lon="15.6664267"><ele>124.0</ele><time>2026-03-29T06:47:49.579Z</time></trkpt><trkpt lat="38.23228" lon="15.6667083"><ele>115.5</ele><time>2026-03-29T06:47:50.579Z</time></trkpt><trkpt lat="38.2323767" lon="15.6669917"><ele>107.0</ele><time>2026-03-29T06:47:51.579Z</time></trkpt><trkpt lat="38.2324733" lon="15.6672783"><ele>107.0</ele><time>2026-03-29T06:47:52.58Z</time></trkpt><trkpt lat="38.2325667" lon="15.6675583"><ele>107.0</ele><time>2026-03-29T06:47:53.579Z</time></trkpt><trkpt lat="38.2326633" lon="15.6678433"><ele>108.0</ele><time>2026-03-29T06:47:54.579Z</time></trkpt><trkpt lat="38.23276" lon="15.6681333"><ele>109.0</ele><time>2026-03-29T06:47:55.579Z</time></trkpt><trkpt lat="38.2328567" lon="15.6684167"><ele>116.0</ele><time>2026-03-29T06:47:56.579Z</time></trkpt><trkpt lat="38.2329567" lon="15.6686983"><ele>123.0</ele><time>2026-03-29T06:47:57.579Z</time></trkpt><trkpt lat="38.2330583" lon="15.6689817"><ele>118.0</ele><time>2026-03-29T06:47:58.579Z</time></trkpt><trkpt lat="38.2331533" lon="15.669275"><ele>113.0</ele><time>2026-03-29T06:47:59.579Z</time></trkpt><trkpt lat="38.2332483" lon="15.6695533"><ele>113.0</ele><time>2026-03-29T06:48:00.579Z</time></trkpt><trkpt lat="38.2333433" lon="15.6698333"><ele>113.0</ele><time>2026-03-29T06:48:01.579Z</time></trkpt><trkpt lat="38.2334417" lon="15.6701067"><ele>119.0</ele><time>2026-03-29T06:48:02.579Z</time></trkpt><trkpt lat="38.2335367" lon="15.6703883"><ele>125.0</ele><time>2026-03-29T06:48:03.579Z</time></trkpt><trkpt lat="38.2336383" lon="15.6706733"><ele>125.0</ele><time>2026-03-29T06:48:04.579Z</time></trkpt><trkpt lat="38.2337417" lon="15.6709433"><ele>125.0</ele><time>2026-03-29T06:48:05.579Z</time></trkpt><trkpt lat="38.233845" lon="15.6712183"><ele>128.0</ele><time>2026-03-29T06:48:06.58Z</time></trkpt><trkpt lat="38.2339533" lon="15.6714983"><ele>131.0</ele><time>2026-03-29T06:48:07.579Z</time></trkpt><trkpt lat="38.2340667" lon="15.6717717"><ele>128.5</ele><time>2026-03-29T06:48:08.579Z</time></trkpt><trkpt lat="38.2341883" lon="15.6720467"><ele>126.0</ele><time>2026-03-29T06:48:09.579Z</time></trkpt><trkpt lat="38.2343083" lon="15.6723217"><ele>126.0</ele><time>2026-03-29T06:48:10.579Z</time></trkpt><trkpt lat="38.2344217" lon="15.672595"><ele>126.0</ele><time>2026-03-29T06:48:11.579Z</time></trkpt><trkpt lat="38.2345433" lon="15.67286"><ele>130.5</ele><time>2026-03-29T06:48:12.579Z</time></trkpt><trkpt lat="38.2346633" lon="15.673135"><ele>135.0</ele><time>2026-03-29T06:48:13.579Z</time></trkpt><trkpt lat="38.2347833" lon="15.6734033"><ele>128.5</ele><time>2026-03-29T06:48:14.579Z</time></trkpt><trkpt lat="38.2349017" lon="15.673675"><ele>122.0</ele><time>2026-03-29T06:48:15.579Z</time></trkpt><trkpt lat="38.2350133" lon="15.6739467"><ele>122.0</ele><time>2026-03-29T06:48:16.579Z</time></trkpt><trkpt lat="38.2351383" lon="15.6742167"><ele>122.0</ele><time>2026-03-29T06:48:17.579Z</time></trkpt><trkpt lat="38.2352583" lon="15.6744817"><ele>128.0</ele><time>2026-03-29T06:48:18.579Z</time></trkpt><trkpt lat="38.2353783" lon="15.6747467"><ele>134.0</ele><time>2026-03-29T06:48:19.579Z</time></trkpt><trkpt lat="38.2354917" lon="15.67502"><ele>128.0</ele><time>2026-03-29T06:48:20.579Z</time></trkpt><trkpt lat="38.235615" lon="15.6752917"><ele>122.0</ele><time>2026-03-29T06:48:21.579Z</time></trkpt><trkpt lat="38.235735" lon="15.6755633"><ele>122.5</ele><time>2026-03-29T06:48:22.579Z</time></trkpt><trkpt lat="38.2358533" lon="15.6758333"><ele>123.0</ele><time>2026-03-29T06:48:23.579Z</time></trkpt><trkpt lat="38.2359733" lon="15.676105"><ele>123.0</ele><time>2026-03-29T06:48:24.579Z</time></trkpt><trkpt lat="38.236095" lon="15.6763767"><ele>123.0</ele><time>2026-03-29T06:48:25.579Z</time></trkpt><trkpt lat="38.2362133" lon="15.676645"><ele>123.0</ele><time>2026-03-29T06:48:26.579Z</time></trkpt><trkpt lat="38.2363367" lon="15.676905"><ele>123.0</ele><time>2026-03-29T06:48:27.579Z</time></trkpt><trkpt lat="38.23647" lon="15.6771683"><ele>123.0</ele><time>2026-03-29T06:48:28.579Z</time></trkpt><trkpt lat="38.2366017" lon="15.6774217"><ele>123.0</ele><time>2026-03-29T06:48:29.579Z</time></trkpt><trkpt lat="38.23674" lon="15.677675"><ele>132.5</ele><time>2026-03-29T06:48:30.579Z</time></trkpt><trkpt lat="38.2368867" lon="15.6779267"><ele>142.0</ele><time>2026-03-29T06:48:31.579Z</time></trkpt><trkpt lat="38.2370333" lon="15.6781633"><ele>142.0</ele><time>2026-03-29T06:48:32.579Z</time></trkpt><trkpt lat="38.2371933" lon="15.6783933"><ele>142.0</ele><time>2026-03-29T06:48:33.579Z</time></trkpt><trkpt lat="38.2373533" lon="15.6786183"><ele>137.5</ele><time>2026-03-29T06:48:34.579Z</time></trkpt><trkpt lat="38.237515" lon="15.6788367"><ele>133.0</ele><time>2026-03-29T06:48:35.579Z</time></trkpt><trkpt lat="38.2376767" lon="15.6790483"><ele>133.0</ele><time>2026-03-29T06:48:36.58Z</time></trkpt><trkpt lat="38.2378433" lon="15.67925"><ele>133.0</ele><time>2026-03-29T06:48:37.579Z</time></trkpt><trkpt lat="38.238015" lon="15.6794467"><ele>119.5</ele><time>2026-03-29T06:48:38.579Z</time></trkpt><trkpt lat="38.238195" lon="15.679635"><ele>106.0</ele><time>2026-03-29T06:48:39.579Z</time></trkpt><trkpt lat="38.23838" lon="15.6798183"><ele>106.0</ele><time>2026-03-29T06:48:40.579Z</time></trkpt><trkpt lat="38.2385683" lon="15.6799967"><ele>106.0</ele><time>2026-03-29T06:48:41.579Z</time></trkpt><trkpt lat="38.2387667" lon="15.6801633"><ele>101.5</ele><time>2026-03-29T06:48:42.579Z</time></trkpt><trkpt lat="38.2389667" lon="15.6803267"><ele>97.0</ele><time>2026-03-29T06:48:43.579Z</time></trkpt><trkpt lat="38.2391667" lon="15.6804883"><ele>106.5</ele><time>2026-03-29T06:48:44.579Z</time></trkpt><trkpt lat="38.2393683" lon="15.68065"><ele>116.0</ele><time>2026-03-29T06:48:45.579Z</time></trkpt><trkpt lat="38.2395667" lon="15.6808117"><ele>116.0</ele><time>2026-03-29T06:48:46.579Z</time></trkpt><trkpt lat="38.23976" lon="15.6809833"><ele>116.0</ele><time>2026-03-29T06:48:47.579Z</time></trkpt><trkpt lat="38.239955" lon="15.6811583"><ele>130.0</ele><time>2026-03-29T06:48:48.579Z</time></trkpt><trkpt lat="38.2401483" lon="15.681325"><ele>144.0</ele><time>2026-03-29T06:48:49.579Z</time></trkpt><trkpt lat="38.2403467" lon="15.6815033"><ele>144.0</ele><time>2026-03-29T06:48:50.579Z</time></trkpt><trkpt lat="38.2405317" lon="15.6816867"><ele>144.0</ele><time>2026-03-29T06:48:51.579Z</time></trkpt><trkpt lat="38.24072" lon="15.6818717"><ele>149.5</ele><time>2026-03-29T06:48:52.579Z</time></trkpt><trkpt lat="38.2409067" lon="15.6820667"><ele>155.0</ele><time>2026-03-29T06:48:53.579Z</time></trkpt><trkpt lat="38.24109" lon="15.6822433"><ele>155.0</ele><time>2026-03-29T06:48:54.579Z</time></trkpt><trkpt lat="38.2412783" lon="15.6824133"><ele>155.0</ele><time>2026-03-29T06:48:55.579Z</time></trkpt><trkpt lat="38.2414683" lon="15.6825817"><ele>149.5</ele><time>2026-03-29T06:48:56.579Z</time></trkpt><trkpt lat="38.241655" lon="15.6827533"><ele>144.0</ele><time>2026-03-29T06:48:57.58Z</time></trkpt><trkpt lat="38.2418433" lon="15.6829233"><ele>136.5</ele><time>2026-03-29T06:48:58.579Z</time></trkpt><trkpt lat="38.24203" lon="15.683095"><ele>129.0</ele><time>2026-03-29T06:48:59.579Z</time></trkpt><trkpt lat="38.24446" lon="15.6892517"><ele>125.33333333333334</ele><time>2026-03-29T06:49:21.578Z</time></trkpt><trkpt lat="38.2445467" lon="15.689525"><ele>121.66666666666667</ele><time>2026-03-29T06:49:22.578Z</time></trkpt><trkpt lat="38.2446117" lon="15.689785"><ele>118.0</ele><time>2026-03-29T06:49:23.578Z</time></trkpt><trkpt lat="38.2446983" lon="15.6900567"><ele>128.0</ele><time>2026-03-29T06:49:24.578Z</time></trkpt><trkpt lat="38.2447833" lon="15.6903283"><ele>138.0</ele><time>2026-03-29T06:49:25.578Z</time></trkpt><trkpt lat="38.2448733" lon="15.6905983"><ele>151.5</ele><time>2026-03-29T06:49:26.578Z</time></trkpt><trkpt lat="38.244955" lon="15.6908833"><ele>165.0</ele><time>2026-03-29T06:49:27.578Z</time></trkpt><trkpt lat="38.24504" lon="15.69116"><ele>188.5</ele><time>2026-03-29T06:49:28.578Z</time></trkpt><trkpt lat="38.2451217" lon="15.6914383"><ele>212.0</ele><time>2026-03-29T06:49:29.578Z</time></trkpt><trkpt lat="38.245205" lon="15.6917167"><ele>233.5</ele><time>2026-03-29T06:49:30.578Z</time></trkpt><trkpt lat="38.2452883" lon="15.691995"><ele>255.0</ele><time>2026-03-29T06:49:31.578Z</time></trkpt><trkpt lat="38.250994" lon="15.7187973"><ele>122.0</ele><time>2026-03-29T06:50:32.983Z</time></trkpt><trkpt lat="38.248075" lon="15.71392"><ele>117.5</ele><time>2026-03-29T06:50:45.578Z</time></trkpt><trkpt lat="38.2481367" lon="15.7142183"><ele>113.0</ele><time>2026-03-29T06:50:46.578Z</time></trkpt><trkpt lat="38.2482" lon="15.7145183"><ele>108.5</ele><time>2026-03-29T06:50:47.578Z</time></trkpt><trkpt lat="38.248255" lon="15.7148083"><ele>104.0</ele><time>2026-03-29T06:50:48.578Z</time></trkpt><trkpt lat="38.2483033" lon="15.715105"><ele>117.5</ele><time>2026-03-29T06:50:49.578Z</time></trkpt><trkpt lat="38.2483483" lon="15.715395"><ele>131.0</ele><time>2026-03-29T06:50:50.578Z</time></trkpt><trkpt lat="38.248385" lon="15.7156933"><ele>131.0</ele><time>2026-03-29T06:50:51.578Z</time></trkpt><trkpt lat="38.2484267" lon="15.71599"><ele>131.0</ele><time>2026-03-29T06:50:52.578Z</time></trkpt><trkpt lat="38.24846" lon="15.7162867"><ele>143.0</ele><time>2026-03-29T06:50:53.578Z</time></trkpt><trkpt lat="38.2484883" lon="15.71658"><ele>155.0</ele><time>2026-03-29T06:50:54.578Z</time></trkpt><trkpt lat="38.2485033" lon="15.7168833"><ele>158.0</ele><time>2026-03-29T06:50:55.578Z</time></trkpt><trkpt lat="38.24852" lon="15.7171883"><ele>161.0</ele><time>2026-03-29T06:50:56.578Z</time></trkpt><trkpt lat="38.2485333" lon="15.7174867"><ele>157.5</ele><time>2026-03-29T06:50:57.578Z</time></trkpt><trkpt lat="38.248555" lon="15.7177933"><ele>154.0</ele><time>2026-03-29T06:50:58.578Z</time></trkpt><trkpt lat="38.24854" lon="15.7180883"><ele>154.0</ele><time>2026-03-29T06:50:59.578Z</time></trkpt><trkpt lat="38.24853" lon="15.718375"><ele>154.0</ele><time>2026-03-29T06:51:00.578Z</time></trkpt><trkpt lat="38.24852" lon="15.7186783"><ele>152.0</ele><time>2026-03-29T06:51:01.578Z</time></trkpt><trkpt lat="38.2485117" lon="15.7189717"><ele>150.0</ele><time>2026-03-29T06:51:02.578Z</time></trkpt><trkpt lat="38.2485" lon="15.71927"><ele>148.5</ele><time>2026-03-29T06:51:03.578Z</time></trkpt><trkpt lat="38.248495" lon="15.7195767"><ele>147.0</ele><time>2026-03-29T06:51:04.578Z</time></trkpt><trkpt lat="38.248485" lon="15.7198833"><ele>147.0</ele><time>2026-03-29T06:51:05.578Z</time></trkpt><trkpt lat="38.2484783" lon="15.7201867"><ele>147.0</ele><time>2026-03-29T06:51:06.578Z</time></trkpt><trkpt lat="38.24847" lon="15.7204967"><ele>148.0</ele><time>2026-03-29T06:51:07.578Z</time></trkpt><trkpt lat="38.2484667" lon="15.7208067"><ele>149.0</ele><time>2026-03-29T06:51:08.578Z</time></trkpt><trkpt lat="38.2484633" lon="15.7211167"><ele>145.5</ele><time>2026-03-29T06:51:09.578Z</time></trkpt><trkpt lat="38.248465" lon="15.7214217"><ele>142.0</ele><time>2026-03-29T06:51:10.578Z</time></trkpt><trkpt lat="38.2484633" lon="15.7217233"><ele>141.5</ele><time>2026-03-29T06:51:11.578Z</time></trkpt><trkpt lat="38.2484583" lon="15.7220267"><ele>141.0</ele><time>2026-03-29T06:51:12.578Z</time></trkpt><trkpt lat="38.248445" lon="15.72232"><ele>141.0</ele><time>2026-03-29T06:51:13.578Z</time></trkpt><trkpt lat="38.2484433" lon="15.7226217"><ele>141.0</ele><time>2026-03-29T06:51:14.578Z</time></trkpt><trkpt lat="38.2484333" lon="15.72292"><ele>145.0</ele><time>2026-03-29T06:51:15.578Z</time></trkpt><trkpt lat="38.2484333" lon="15.7232217"><ele>149.0</ele><time>2026-03-29T06:51:16.578Z</time></trkpt><trkpt lat="38.24843" lon="15.7235233"><ele>149.5</ele><time>2026-03-29T06:51:17.578Z</time></trkpt><trkpt lat="38.2484233" lon="15.7238217"><ele>150.0</ele><time>2026-03-29T06:51:18.578Z</time></trkpt><trkpt lat="38.2484117" lon="15.7241217"><ele>153.0</ele><time>2026-03-29T06:51:19.578Z</time></trkpt><trkpt lat="38.24841" lon="15.724425"><ele>156.0</ele><time>2026-03-29T06:51:20.578Z</time></trkpt><trkpt lat="38.2484033" lon="15.724735"><ele>156.0</ele><time>2026-03-29T06:51:21.578Z</time></trkpt><trkpt lat="38.248415" lon="15.7250483"><ele>156.0</ele><time>2026-03-29T06:51:22.578Z</time></trkpt><trkpt lat="38.2484133" lon="15.7253533"><ele>155.0</ele><time>2026-03-29T06:51:23.578Z</time></trkpt><trkpt lat="38.2484133" lon="15.7256567"><ele>154.0</ele><time>2026-03-29T06:51:24.578Z</time></trkpt><trkpt lat="38.2484167" lon="15.7259633"><ele>144.5</ele><time>2026-03-29T06:51:25.578Z</time></trkpt><trkpt lat="38.248425" lon="15.7262667"><ele>135.0</ele><time>2026-03-29T06:51:26.578Z</time></trkpt><trkpt lat="38.2484283" lon="15.7265667"><ele>135.0</ele><time>2026-03-29T06:51:27.578Z</time></trkpt><trkpt lat="38.2484433" lon="15.7268733"><ele>135.0</ele><time>2026-03-29T06:51:28.579Z</time></trkpt><trkpt lat="38.2484517" lon="15.7271767"><ele>138.0</ele><time>2026-03-29T06:51:29.578Z</time></trkpt><trkpt lat="38.24846" lon="15.7274733"><ele>141.0</ele><time>2026-03-29T06:51:30.578Z</time></trkpt><trkpt lat="38.2484667" lon="15.7277767"><ele>149.5</ele><time>2026-03-29T06:51:31.578Z</time></trkpt><trkpt lat="38.24847" lon="15.7280767"><ele>158.0</ele><time>2026-03-29T06:51:32.578Z</time></trkpt><trkpt lat="38.2484717" lon="15.7283817"><ele>161.5</ele><time>2026-03-29T06:51:33.578Z</time></trkpt><trkpt lat="38.2484767" lon="15.728685"><ele>165.0</ele><time>2026-03-29T06:51:34.578Z</time></trkpt><trkpt lat="38.2484767" lon="15.7289883"><ele>165.0</ele><time>2026-03-29T06:51:35.578Z</time></trkpt><trkpt lat="38.2484867" lon="15.7292933"><ele>165.0</ele><time>2026-03-29T06:51:36.578Z</time></trkpt><trkpt lat="38.2484917" lon="15.7296"><ele>169.0</ele><time>2026-03-29T06:51:37.578Z</time></trkpt><trkpt lat="38.248495" lon="15.7299067"><ele>173.0</ele><time>2026-03-29T06:51:38.578Z</time></trkpt><trkpt lat="38.2485017" lon="15.7302117"><ele>170.0</ele><time>2026-03-29T06:51:39.578Z</time></trkpt><trkpt lat="38.24851" lon="15.730515"><ele>167.0</ele><time>2026-03-29T06:51:40.578Z</time></trkpt><trkpt lat="38.248515" lon="15.730815"><ele>157.5</ele><time>2026-03-29T06:51:41.578Z</time></trkpt><trkpt lat="38.2485217" lon="15.7311117"><ele>148.0</ele><time>2026-03-29T06:51:42.578Z</time></trkpt><trkpt lat="38.2485283" lon="15.7314133"><ele>148.0</ele><time>2026-03-29T06:51:43.578Z</time></trkpt><trkpt lat="38.2485367" lon="15.7317117"><ele>148.0</ele><time>2026-03-29T06:51:44.578Z</time></trkpt><trkpt lat="38.2485367" lon="15.7320117"><ele>158.5</ele><time>2026-03-29T06:51:45.578Z</time></trkpt><trkpt lat="38.2485533" lon="15.7323"><ele>169.0</ele><time>2026-03-29T06:51:46.578Z</time></trkpt><trkpt lat="38.2485617" lon="15.7326067"><ele>186.0</ele><time>2026-03-29T06:51:47.578Z</time></trkpt><trkpt lat="38.24857" lon="15.7329033"><ele>203.0</ele><time>2026-03-29T06:51:48.578Z</time></trkpt><trkpt lat="38.2485767" lon="15.733205"><ele>203.0</ele><time>2026-03-29T06:51:49.578Z</time></trkpt><trkpt lat="38.24858" lon="15.733505"><ele>203.0</ele><time>2026-03-29T06:51:50.578Z</time></trkpt><trkpt lat="38.2485867" lon="15.7338067"><ele>215.5</ele><time>2026-03-29T06:51:51.578Z</time></trkpt><trkpt lat="38.2485833" lon="15.734115"><ele>228.0</ele><time>2026-03-29T06:51:52.578Z</time></trkpt><trkpt lat="38.2485883" lon="15.7344283"><ele>235.5</ele><time>2026-03-29T06:51:53.578Z</time></trkpt><trkpt lat="38.2485933" lon="15.7347367"><ele>243.0</ele><time>2026-03-29T06:51:54.578Z</time></trkpt><trkpt lat="38.2485967" lon="15.7350467"><ele>187.0</ele><time>2026-03-29T06:51:55.578Z</time></trkpt><trkpt lat="38.2502733" lon="15.7439017"><ele>187.0</ele><time>2026-03-29T06:52:25.578Z</time></trkpt><trkpt lat="38.250325" lon="15.7441833"><ele>187.0</ele><time>2026-03-29T06:52:26.578Z</time></trkpt><trkpt lat="38.2503883" lon="15.7444633"><ele>197.0</ele><time>2026-03-29T06:52:27.578Z</time></trkpt><trkpt lat="38.2504467" lon="15.7447467"><ele>207.0</ele><time>2026-03-29T06:52:28.578Z</time></trkpt><trkpt lat="38.2504917" lon="15.7450383"><ele>212.0</ele><time>2026-03-29T06:52:29.578Z</time></trkpt><trkpt lat="38.250535" lon="15.7453167"><ele>217.0</ele><time>2026-03-29T06:52:30.579Z</time></trkpt><trkpt lat="38.25058" lon="15.7456183"><ele>216.0</ele><time>2026-03-29T06:52:31.578Z</time></trkpt><trkpt lat="38.250635" lon="15.745915"><ele>215.0</ele><time>2026-03-29T06:52:32.578Z</time></trkpt><trkpt lat="38.250685" lon="15.7462183"><ele>230.0</ele><time>2026-03-29T06:52:33.578Z</time></trkpt><trkpt lat="38.25073" lon="15.7465183"><ele>245.0</ele><time>2026-03-29T06:52:34.578Z</time></trkpt><trkpt lat="38.2507633" lon="15.7468183"><ele>258.0</ele><time>2026-03-29T06:52:35.578Z</time></trkpt><trkpt lat="38.2508017" lon="15.7471417"><ele>271.0</ele><time>2026-03-29T06:52:36.578Z</time></trkpt><trkpt lat="38.2508433" lon="15.7474667"><ele>287.0</ele><time>2026-03-29T06:52:37.578Z</time></trkpt><trkpt lat="38.2508817" lon="15.7477817"><ele>303.0</ele><time>2026-03-29T06:52:38.578Z</time></trkpt><trkpt lat="38.25092" lon="15.7480967"><ele>303.0</ele><time>2026-03-29T06:52:39.578Z</time></trkpt><trkpt lat="38.2509617" lon="15.7484117"><ele>303.0</ele><time>2026-03-29T06:52:40.578Z</time></trkpt><trkpt lat="38.251005" lon="15.7487283"><ele>318.5</ele><time>2026-03-29T06:52:41.578Z</time></trkpt><trkpt lat="38.2510517" lon="15.7490467"><ele>334.0</ele><time>2026-03-29T06:52:42.578Z</time></trkpt><trkpt lat="38.254329" lon="15.7672107"><ele>265.0</ele><time>2026-03-29T06:53:25.073Z</time></trkpt><trkpt lat="38.2538633" lon="15.7664033"><ele>265.0</ele><time>2026-03-29T06:53:41.581Z</time></trkpt><trkpt lat="38.253935" lon="15.76666"><ele>265.0</ele><time>2026-03-29T06:53:42.581Z</time></trkpt><trkpt lat="38.25403" lon="15.7669483"><ele>229.0</ele><time>2026-03-29T06:53:43.581Z</time></trkpt><trkpt lat="38.2541333" lon="15.7672167"><ele>193.0</ele><time>2026-03-29T06:53:44.581Z</time></trkpt><trkpt lat="38.254235" lon="15.7674817"><ele>195.5</ele><time>2026-03-29T06:53:45.581Z</time></trkpt><trkpt lat="38.2543417" lon="15.7677517"><ele>198.0</ele><time>2026-03-29T06:53:46.581Z</time></trkpt><trkpt lat="38.2544483" lon="15.7680233"><ele>198.0</ele><time>2026-03-29T06:53:47.581Z</time></trkpt><trkpt lat="38.2545583" lon="15.7682917"><ele>198.0</ele><time>2026-03-29T06:53:48.581Z</time></trkpt><trkpt lat="38.2546633" lon="15.7685467"><ele>213.5</ele><time>2026-03-29T06:53:49.581Z</time></trkpt><trkpt lat="38.2547767" lon="15.7688067"><ele>229.0</ele><time>2026-03-29T06:53:50.581Z</time></trkpt><trkpt lat="38.2549" lon="15.7690717"><ele>233.0</ele><time>2026-03-29T06:53:51.581Z</time></trkpt><trkpt lat="38.2550283" lon="15.769325"><ele>237.0</ele><time>2026-03-29T06:53:52.581Z</time></trkpt><trkpt lat="38.25515" lon="15.7695883"><ele>258.0</ele><time>2026-03-29T06:53:53.581Z</time></trkpt><trkpt lat="38.255275" lon="15.7698467"><ele>279.0</ele><time>2026-03-29T06:53:54.581Z</time></trkpt><trkpt lat="38.2554067" lon="15.770095"><ele>305.5</ele><time>2026-03-29T06:53:55.581Z</time></trkpt><trkpt lat="38.2555433" lon="15.7703433"><ele>332.0</ele><time>2026-03-29T06:53:56.581Z</time></trkpt><trkpt lat="38.25568" lon="15.7705867"><ele>333.5</ele><time>2026-03-29T06:53:57.581Z</time></trkpt><trkpt lat="38.25581" lon="15.770825"><ele>335.0</ele><time>2026-03-29T06:53:58.581Z</time></trkpt><trkpt lat="38.25594" lon="15.7710817"><ele>360.0</ele><time>2026-03-29T06:53:59.581Z</time></trkpt><trkpt lat="38.2560717" lon="15.7713367"><ele>385.0</ele><time>2026-03-29T06:54:00.581Z</time></trkpt><trkpt lat="38.2562033" lon="15.7715933"><ele>385.0</ele><time>2026-03-29T06:54:01.581Z</time></trkpt><trkpt lat="38.2563367" lon="15.7718483"><ele>385.0</ele><time>2026-03-29T06:54:02.581Z</time></trkpt><trkpt lat="38.26182" lon="15.779385"><ele>369.5</ele><time>2026-03-29T06:54:36.579Z</time></trkpt><trkpt lat="38.2619867" lon="15.779655"><ele>354.0</ele><time>2026-03-29T06:54:37.579Z</time></trkpt><trkpt lat="38.262115" lon="15.7798917"><ele>354.0</ele><time>2026-03-29T06:54:38.579Z</time></trkpt><trkpt lat="38.2622467" lon="15.7801367"><ele>354.0</ele><time>2026-03-29T06:54:39.579Z</time></trkpt><trkpt lat="38.2623817" lon="15.7803883"><ele>382.0</ele><time>2026-03-29T06:54:40.579Z</time></trkpt><trkpt lat="38.26251" lon="15.7806367"><ele>410.0</ele><time>2026-03-29T06:54:41.579Z</time></trkpt><trkpt lat="38.2626333" lon="15.7808867"><ele>394.5</ele><time>2026-03-29T06:54:42.579Z</time></trkpt><trkpt lat="38.2627633" lon="15.7811367"><ele>379.0</ele><time>2026-03-29T06:54:43.579Z</time></trkpt><trkpt lat="38.2700986" lon="15.7998603"><ele>379.0</ele><time>2026-03-29T06:55:39.433Z</time></trkpt><trkpt lat="38.2699483" lon="15.7995283"><ele>379.0</ele><time>2026-03-29T06:55:51.579Z</time></trkpt><trkpt lat="38.2700541" lon="15.7998154"><ele>379.0</ele><time>2026-03-29T06:55:52.579Z</time></trkpt><trkpt lat="38.2701528" lon="15.8000935"><ele>379.0</ele><time>2026-03-29T06:55:53.579Z</time></trkpt><trkpt lat="38.2702455" lon="15.8003685"><ele>330.0</ele><time>2026-03-29T06:55:54.579Z</time></trkpt><trkpt lat="38.2703304" lon="15.8006495"><ele>281.0</ele><time>2026-03-29T06:55:55.579Z</time></trkpt><trkpt lat="38.2704131" lon="15.8009288"><ele>255.5</ele><time>2026-03-29T06:55:56.579Z</time></trkpt><trkpt lat="38.2704995" lon="15.8012062"><ele>230.0</ele><time>2026-03-29T06:55:57.579Z</time></trkpt><trkpt lat="38.2705836" lon="15.8014815"><ele>235.0</ele><time>2026-03-29T06:55:58.579Z</time></trkpt><trkpt lat="38.2706708" lon="15.8017593"><ele>240.0</ele><time>2026-03-29T06:55:59.579Z</time></trkpt><trkpt lat="38.2707562" lon="15.8020372"><ele>220.0</ele><time>2026-03-29T06:56:00.579Z</time></trkpt><trkpt lat="38.2708471" lon="15.8023216"><ele>200.0</ele><time>2026-03-29T06:56:01.579Z</time></trkpt><trkpt lat="38.2709308" lon="15.8026067"><ele>194.5</ele><time>2026-03-29T06:56:02.579Z</time></trkpt><trkpt lat="38.2710128" lon="15.8028883"><ele>189.0</ele><time>2026-03-29T06:56:03.579Z</time></trkpt><trkpt lat="38.2710923" lon="15.8031775"><ele>189.0</ele><time>2026-03-29T06:56:04.579Z</time></trkpt><trkpt lat="38.271177" lon="15.8034652"><ele>189.0</ele><time>2026-03-29T06:56:05.579Z</time></trkpt><trkpt lat="38.2712621" lon="15.8037513"><ele>207.5</ele><time>2026-03-29T06:56:06.579Z</time></trkpt><trkpt lat="38.2713446" lon="15.8040355"><ele>226.0</ele><time>2026-03-29T06:56:07.579Z</time></trkpt><trkpt lat="38.2714253" lon="15.8043178"><ele>257.5</ele><time>2026-03-29T06:56:08.579Z</time></trkpt><trkpt lat="38.2715092" lon="15.8046069"><ele>289.0</ele><time>2026-03-29T06:56:09.579Z</time></trkpt><trkpt lat="38.2715914" lon="15.8048943"><ele>304.0</ele><time>2026-03-29T06:56:10.579Z</time></trkpt><trkpt lat="38.2716718" lon="15.8051776"><ele>319.0</ele><time>2026-03-29T06:56:11.579Z</time></trkpt><trkpt lat="38.2717511" lon="15.8054582"><ele>319.0</ele><time>2026-03-29T06:56:12.579Z</time></trkpt><trkpt lat="38.2718271" lon="15.8057443"><ele>319.0</ele><time>2026-03-29T06:56:13.579Z</time></trkpt><trkpt lat="38.2719023" lon="15.8060329"><ele>334.5</ele><time>2026-03-29T06:56:14.579Z</time></trkpt><trkpt lat="38.2719808" lon="15.8063174"><ele>350.0</ele><time>2026-03-29T06:56:15.579Z</time></trkpt><trkpt lat="38.2720638" lon="15.8065951"><ele>373.5</ele><time>2026-03-29T06:56:16.579Z</time></trkpt><trkpt lat="38.2721403" lon="15.8068747"><ele>397.0</ele><time>2026-03-29T06:56:17.579Z</time></trkpt><trkpt lat="38.2722144" lon="15.8071643"><ele>409.5</ele><time>2026-03-29T06:56:18.579Z</time></trkpt><trkpt lat="38.2722854" lon="15.807442"><ele>422.0</ele><time>2026-03-29T06:56:19.579Z</time></trkpt><trkpt lat="38.2723568" lon="15.8077248"><ele>443.0</ele><time>2026-03-29T06:56:20.579Z</time></trkpt><trkpt lat="38.2724306" lon="15.8080105"><ele>464.0</ele><time>2026-03-29T06:56:21.579Z</time></trkpt><trkpt lat="38.272504" lon="15.8082995"><ele>480.5</ele><time>2026-03-29T06:56:22.579Z</time></trkpt><trkpt lat="38.2725785" lon="15.8085907"><ele>497.0</ele><time>2026-03-29T06:56:23.579Z</time></trkpt><trkpt lat="38.2726534" lon="15.8088875"><ele>512.0</ele><time>2026-03-29T06:56:24.58Z</time></trkpt><trkpt lat="38.2840617" lon="15.8220483"><ele>512.0</ele><time>2026-03-29T06:57:30.578Z</time></trkpt><trkpt lat="38.2841946" lon="15.8223334"><ele>512.0</ele><time>2026-03-29T06:57:31.578Z</time></trkpt><trkpt lat="38.2843302" lon="15.8225831"><ele>504.5</ele><time>2026-03-29T06:57:32.578Z</time></trkpt><trkpt lat="38.2844654" lon="15.8228404"><ele>497.0</ele><time>2026-03-29T06:57:33.579Z</time></trkpt><trkpt lat="38.2910717" lon="15.835585"><ele>497.0</ele><time>2026-03-29T06:58:23.579Z</time></trkpt><trkpt lat="38.29122" lon="15.8358533"><ele>497.0</ele><time>2026-03-29T06:58:24.579Z</time></trkpt><trkpt lat="38.29136" lon="15.8361233"><ele>498.5</ele><time>2026-03-29T06:58:25.578Z</time></trkpt><trkpt lat="38.2915017" lon="15.8363883"><ele>500.0</ele><time>2026-03-29T06:58:26.578Z</time></trkpt><trkpt lat="38.2916517" lon="15.8366617"><ele>503.5</ele><time>2026-03-29T06:58:27.578Z</time></trkpt><trkpt lat="38.2917933" lon="15.8369183"><ele>507.0</ele><time>2026-03-29T06:58:28.578Z</time></trkpt><trkpt lat="38.2919333" lon="15.8371767"><ele>507.0</ele><time>2026-03-29T06:58:29.578Z</time></trkpt><trkpt lat="38.2920717" lon="15.8374283"><ele>507.0</ele><time>2026-03-29T06:58:30.578Z</time></trkpt><trkpt lat="38.2922083" lon="15.83768"><ele>505.5</ele><time>2026-03-29T06:58:31.578Z</time></trkpt><trkpt lat="38.292345" lon="15.83793"><ele>504.0</ele><time>2026-03-29T06:58:32.578Z</time></trkpt><trkpt lat="38.2928233" lon="15.8386717"><ele>501.0</ele><time>2026-03-29T06:58:35.579Z</time></trkpt><trkpt lat="38.2930067" lon="15.8389383"><ele>498.0</ele><time>2026-03-29T06:58:36.579Z</time></trkpt><trkpt lat="38.2931883" lon="15.8391767"><ele>490.5</ele><time>2026-03-29T06:58:37.579Z</time></trkpt><trkpt lat="38.2933717" lon="15.8394133"><ele>483.0</ele><time>2026-03-29T06:58:38.579Z</time></trkpt><trkpt lat="38.29354" lon="15.8396433"><ele>483.0</ele><time>2026-03-29T06:58:39.579Z</time></trkpt><trkpt lat="38.2937167" lon="15.83987"><ele>483.0</ele><time>2026-03-29T06:58:40.579Z</time></trkpt><trkpt lat="38.293895" lon="15.8400917"><ele>491.0</ele><time>2026-03-29T06:58:41.579Z</time></trkpt><trkpt lat="38.2940717" lon="15.84029"><ele>499.0</ele><time>2026-03-29T06:58:42.579Z</time></trkpt><trkpt lat="38.29426" lon="15.8405067"><ele>499.0</ele><time>2026-03-29T06:58:43.579Z</time></trkpt><trkpt lat="38.2944533" lon="15.84072"><ele>499.0</ele><time>2026-03-29T06:58:44.579Z</time></trkpt><trkpt lat="38.2946417" lon="15.8409133"><ele>514.5</ele><time>2026-03-29T06:58:45.579Z</time></trkpt><trkpt lat="38.2948333" lon="15.841115"><ele>530.0</ele><time>2026-03-29T06:58:46.579Z</time></trkpt><trkpt lat="38.295025" lon="15.8413167"><ele>530.0</ele><time>2026-03-29T06:58:47.579Z</time></trkpt><trkpt lat="38.2952167" lon="15.8415183"><ele>530.0</ele><time>2026-03-29T06:58:48.579Z</time></trkpt><trkpt lat="38.302385" lon="15.8437817"><ele>515.5</ele><time>2026-03-29T06:59:18.579Z</time></trkpt><trkpt lat="38.3026817" lon="15.843835"><ele>501.0</ele><time>2026-03-29T06:59:19.579Z</time></trkpt><trkpt lat="38.3029317" lon="15.84389"><ele>499.5</ele><time>2026-03-29T06:59:20.579Z</time></trkpt><trkpt lat="38.3031867" lon="15.8439183"><ele>498.0</ele><time>2026-03-29T06:59:21.579Z</time></trkpt><trkpt lat="38.303445" lon="15.843945"><ele>498.0</ele><time>2026-03-29T06:59:22.579Z</time></trkpt><trkpt lat="38.30369" lon="15.84397"><ele>498.0</ele><time>2026-03-29T06:59:23.579Z</time></trkpt><trkpt lat="38.30393" lon="15.8440033"><ele>495.0</ele><time>2026-03-29T06:59:24.579Z</time></trkpt><trkpt lat="38.304165" lon="15.844045"><ele>492.0</ele><time>2026-03-29T06:59:25.579Z</time></trkpt><trkpt lat="38.3044083" lon="15.84408"><ele>492.0</ele><time>2026-03-29T06:59:26.579Z</time></trkpt><trkpt lat="38.304655" lon="15.8441117"><ele>492.0</ele><time>2026-03-29T06:59:27.579Z</time></trkpt><trkpt lat="38.304905" lon="15.8441333"><ele>490.5</ele><time>2026-03-29T06:59:28.579Z</time></trkpt><trkpt lat="38.30515" lon="15.844155"><ele>489.0</ele><time>2026-03-29T06:59:29.579Z</time></trkpt><trkpt lat="38.305405" lon="15.8441767"><ele>488.5</ele><time>2026-03-29T06:59:30.579Z</time></trkpt><trkpt lat="38.30566" lon="15.8441983"><ele>488.0</ele><time>2026-03-29T06:59:31.579Z</time></trkpt><trkpt lat="38.3059067" lon="15.8442233"><ele>488.0</ele><time>2026-03-29T06:59:32.579Z</time></trkpt><trkpt lat="38.3061583" lon="15.8442517"><ele>488.0</ele><time>2026-03-29T06:59:33.579Z</time></trkpt><trkpt lat="38.306405" lon="15.8442767"><ele>487.0</ele><time>2026-03-29T06:59:34.579Z</time></trkpt><trkpt lat="38.3066583" lon="15.8442983"><ele>486.0</ele><time>2026-03-29T06:59:35.579Z</time></trkpt><trkpt lat="38.3069083" lon="15.84431"><ele>486.0</ele><time>2026-03-29T06:59:36.579Z</time></trkpt><trkpt lat="38.3071567" lon="15.8443233"><ele>486.0</ele><time>2026-03-29T06:59:37.579Z</time></trkpt><trkpt lat="38.3074033" lon="15.8443267"><ele>485.0</ele><time>2026-03-29T06:59:38.579Z</time></trkpt><trkpt lat="38.3076533" lon="15.84433"><ele>484.0</ele><time>2026-03-29T06:59:39.579Z</time></trkpt><trkpt lat="38.3079067" lon="15.8443233"><ele>483.5</ele><time>2026-03-29T06:59:40.579Z</time></trkpt><trkpt lat="38.308165" lon="15.8443083"><ele>483.0</ele><time>2026-03-29T06:59:41.579Z</time></trkpt><trkpt lat="38.3084133" lon="15.844295"><ele>482.0</ele><time>2026-03-29T06:59:42.579Z</time></trkpt><trkpt lat="38.308665" lon="15.8442733"><ele>481.0</ele><time>2026-03-29T06:59:43.579Z</time></trkpt><trkpt lat="38.30893" lon="15.84426"><ele>481.0</ele><time>2026-03-29T06:59:44.579Z</time></trkpt><trkpt lat="38.309185" lon="15.8442367"><ele>481.0</ele><time>2026-03-29T06:59:45.579Z</time></trkpt><trkpt lat="38.3094367" lon="15.84421"><ele>481.0</ele><time>2026-03-29T06:59:46.579Z</time></trkpt><trkpt lat="38.3096867" lon="15.8441683"><ele>481.0</ele><time>2026-03-29T06:59:47.579Z</time></trkpt><trkpt lat="38.3099383" lon="15.8441133"><ele>480.5</ele><time>2026-03-29T06:59:48.579Z</time></trkpt><trkpt lat="38.31018" lon="15.8440617"><ele>480.0</ele><time>2026-03-29T06:59:49.579Z</time></trkpt><trkpt lat="38.3104233" lon="15.84401"><ele>479.0</ele><time>2026-03-29T06:59:50.579Z</time></trkpt><trkpt lat="38.3106717" lon="15.8439483"><ele>478.0</ele><time>2026-03-29T06:59:51.579Z</time></trkpt><trkpt lat="38.3109183" lon="15.8438867"><ele>478.0</ele><time>2026-03-29T06:59:52.579Z</time></trkpt><trkpt lat="38.3111683" lon="15.84382"><ele>478.0</ele><time>2026-03-29T06:59:53.579Z</time></trkpt><trkpt lat="38.3114117" lon="15.843755"><ele>477.0</ele><time>2026-03-29T06:59:54.579Z</time></trkpt><trkpt lat="38.31165" lon="15.84368"><ele>476.0</ele><time>2026-03-29T06:59:55.579Z</time></trkpt><trkpt lat="38.3118933" lon="15.8435983"><ele>476.0</ele><time>2026-03-29T06:59:56.579Z</time></trkpt><trkpt lat="38.3121383" lon="15.84353"><ele>476.0</ele><time>2026-03-29T06:59:57.579Z</time></trkpt><trkpt lat="38.31237" lon="15.8434583"><ele>477.5</ele><time>2026-03-29T06:59:58.579Z</time></trkpt><trkpt lat="38.3126117" lon="15.8433733"><ele>479.0</ele><time>2026-03-29T06:59:59.579Z</time></trkpt><trkpt lat="38.31285" lon="15.8433"><ele>480.5</ele><time>2026-03-29T07:00:00.579Z</time></trkpt><trkpt lat="38.313095" lon="15.8432267"><ele>482.0</ele><time>2026-03-29T07:00:01.579Z</time></trkpt><trkpt lat="38.31334" lon="15.8431533"><ele>482.0</ele><time>2026-03-29T07:00:02.579Z</time></trkpt><trkpt lat="38.3135833" lon="15.8430667"><ele>482.0</ele><time>2026-03-29T07:00:03.579Z</time></trkpt><trkpt lat="38.3138217" lon="15.8429817"><ele>482.66666666666663</ele><time>2026-03-29T07:00:04.579Z</time></trkpt><trkpt lat="38.3140417" lon="15.8429133"><ele>483.33333333333337</ele><time>2026-03-29T07:00:05.579Z</time></trkpt><trkpt lat="38.31424" lon="15.8428467"><ele>484.0</ele><time>2026-03-29T07:00:06.58Z</time></trkpt><trkpt lat="38.3144283" lon="15.8427933"><ele>484.0</ele><time>2026-03-29T07:00:07.579Z</time></trkpt><trkpt lat="38.3145933" lon="15.8427383"><ele>484.0</ele><time>2026-03-29T07:00:08.579Z</time></trkpt><trkpt lat="38.3147583" lon="15.8426833"><ele>484.0</ele><time>2026-03-29T07:00:09.579Z</time></trkpt><trkpt lat="38.3149317" lon="15.8426367"><ele>484.0</ele><time>2026-03-29T07:00:10.579Z</time></trkpt><trkpt lat="38.3151" lon="15.842595"><ele>484.0</ele><time>2026-03-29T07:00:11.58Z</time></trkpt><trkpt lat="38.3152717" lon="15.8425417"><ele>484.0</ele><time>2026-03-29T07:00:12.579Z</time></trkpt><trkpt lat="38.3154467" lon="15.8425"><ele>485.0</ele><time>2026-03-29T07:00:13.579Z</time></trkpt><trkpt lat="38.315615" lon="15.8424617"><ele>486.0</ele><time>2026-03-29T07:00:14.579Z</time></trkpt><trkpt lat="38.31578" lon="15.8424367"><ele>487.0</ele><time>2026-03-29T07:00:15.579Z</time></trkpt><trkpt lat="38.31595" lon="15.842415"><ele>487.0</ele><time>2026-03-29T07:00:16.579Z</time></trkpt><trkpt lat="38.316125" lon="15.8423917"><ele>487.0</ele><time>2026-03-29T07:00:17.579Z</time></trkpt><trkpt lat="38.3163067" lon="15.8423683"><ele>487.0</ele><time>2026-03-29T07:00:18.579Z</time></trkpt><trkpt lat="38.33339" lon="15.8592783"><ele>430.5</ele><time>2026-03-29T07:02:51.58Z</time></trkpt><trkpt lat="38.3335817" lon="15.8595283"><ele>374.0</ele><time>2026-03-29T07:02:52.58Z</time></trkpt><trkpt lat="38.333775" lon="15.8597733"><ele>372.5</ele><time>2026-03-29T07:02:53.58Z</time></trkpt><trkpt lat="38.333975" lon="15.8600167"><ele>371.0</ele><time>2026-03-29T07:02:54.58Z</time></trkpt><trkpt lat="38.334185" lon="15.86025"><ele>371.0</ele><time>2026-03-29T07:02:55.58Z</time></trkpt><trkpt lat="38.3343967" lon="15.8604767"><ele>371.0</ele><time>2026-03-29T07:02:56.58Z</time></trkpt><trkpt lat="38.33462" lon="15.8607033"><ele>370.0</ele><time>2026-03-29T07:02:57.58Z</time></trkpt><trkpt lat="38.334845" lon="15.8609283"><ele>369.0</ele><time>2026-03-29T07:02:58.58Z</time></trkpt><trkpt lat="38.33507" lon="15.86114"><ele>369.0</ele><time>2026-03-29T07:02:59.58Z</time></trkpt><trkpt lat="38.3352967" lon="15.861345"><ele>369.0</ele><time>2026-03-29T07:03:00.58Z</time></trkpt><trkpt lat="38.3355283" lon="15.86154"><ele>370.0</ele><time>2026-03-29T07:03:01.58Z</time></trkpt><trkpt lat="38.3357683" lon="15.8617333"><ele>371.0</ele><time>2026-03-29T07:03:02.58Z</time></trkpt><trkpt lat="38.3360067" lon="15.8619283"><ele>366.0</ele><time>2026-03-29T07:03:03.58Z</time></trkpt><trkpt lat="38.336235" lon="15.8621117"><ele>361.0</ele><time>2026-03-29T07:03:04.58Z</time></trkpt><trkpt lat="38.3364617" lon="15.8623083"><ele>360.5</ele><time>2026-03-29T07:03:05.58Z</time></trkpt><trkpt lat="38.3366867" lon="15.862505"><ele>360.0</ele><time>2026-03-29T07:03:06.58Z</time></trkpt><trkpt lat="38.3369133" lon="15.86271"><ele>353.0</ele><time>2026-03-29T07:03:07.58Z</time></trkpt><trkpt lat="38.337145" lon="15.862915"><ele>346.0</ele><time>2026-03-29T07:03:08.58Z</time></trkpt><trkpt lat="38.3373783" lon="15.86312"><ele>346.0</ele><time>2026-03-29T07:03:09.58Z</time></trkpt><trkpt lat="38.3376167" lon="15.8633133"><ele>346.0</ele><time>2026-03-29T07:03:10.58Z</time></trkpt><trkpt lat="38.3378517" lon="15.863505"><ele>340.5</ele><time>2026-03-29T07:03:11.58Z</time></trkpt><trkpt lat="38.33808" lon="15.8636983"><ele>335.0</ele><time>2026-03-29T07:03:12.58Z</time></trkpt><trkpt lat="38.3383133" lon="15.863885"><ele>335.0</ele><time>2026-03-29T07:03:13.58Z</time></trkpt><trkpt lat="38.3385383" lon="15.86408"><ele>335.0</ele><time>2026-03-29T07:03:14.58Z</time></trkpt><trkpt lat="38.33876" lon="15.864275"><ele>336.5</ele><time>2026-03-29T07:03:15.58Z</time></trkpt><trkpt lat="38.33899" lon="15.86446"><ele>338.0</ele><time>2026-03-29T07:03:16.58Z</time></trkpt><trkpt lat="38.339215" lon="15.864655"><ele>338.0</ele><time>2026-03-29T07:03:17.58Z</time></trkpt><trkpt lat="38.339445" lon="15.8648417"><ele>338.0</ele><time>2026-03-29T07:03:18.58Z</time></trkpt><trkpt lat="38.3396717" lon="15.8650283"><ele>341.0</ele><time>2026-03-29T07:03:19.58Z</time></trkpt><trkpt lat="38.3398983" lon="15.8652233"><ele>344.0</ele><time>2026-03-29T07:03:20.58Z</time></trkpt><trkpt lat="38.3401233" lon="15.865415"><ele>344.0</ele><time>2026-03-29T07:03:21.58Z</time></trkpt><trkpt lat="38.34035" lon="15.8656067"><ele>344.0</ele><time>2026-03-29T07:03:22.58Z</time></trkpt><trkpt lat="38.340575" lon="15.8658033"><ele>339.0</ele><time>2026-03-29T07:03:23.581Z</time></trkpt><trkpt lat="38.3408067" lon="15.8659883"><ele>334.0</ele><time>2026-03-29T07:03:24.58Z</time></trkpt><trkpt lat="38.3410367" lon="15.86618"><ele>334.0</ele><time>2026-03-29T07:03:25.58Z</time></trkpt><trkpt lat="38.341265" lon="15.8663717"><ele>334.0</ele><time>2026-03-29T07:03:26.58Z</time></trkpt><trkpt lat="38.341495" lon="15.8665617"><ele>328.5</ele><time>2026-03-29T07:03:27.58Z</time></trkpt><trkpt lat="38.34173" lon="15.8667517"><ele>323.0</ele><time>2026-03-29T07:03:28.58Z</time></trkpt><trkpt lat="38.3419567" lon="15.8669383"><ele>323.0</ele><time>2026-03-29T07:03:29.58Z</time></trkpt><trkpt lat="38.342185" lon="15.8671183"><ele>323.0</ele><time>2026-03-29T07:03:30.58Z</time></trkpt><trkpt lat="38.3424233" lon="15.867305"><ele>319.0</ele><time>2026-03-29T07:03:31.58Z</time></trkpt><trkpt lat="38.3426533" lon="15.867495"><ele>315.0</ele><time>2026-03-29T07:03:32.58Z</time></trkpt><trkpt lat="38.3428867" lon="15.86768"><ele>318.5</ele><time>2026-03-29T07:03:33.58Z</time></trkpt><trkpt lat="38.3431217" lon="15.8678517"><ele>322.0</ele><time>2026-03-29T07:03:34.58Z</time></trkpt><trkpt lat="38.3433583" lon="15.868025"><ele>322.0</ele><time>2026-03-29T07:03:35.58Z</time></trkpt><trkpt lat="38.3435933" lon="15.8681883"><ele>322.0</ele><time>2026-03-29T07:03:36.58Z</time></trkpt><trkpt lat="38.3438333" lon="15.8683483"><ele>320.0</ele><time>2026-03-29T07:03:37.58Z</time></trkpt><trkpt lat="38.34408" lon="15.8685117"><ele>318.0</ele><time>2026-03-29T07:03:38.58Z</time></trkpt><trkpt lat="38.3443283" lon="15.868665"><ele>318.0</ele><time>2026-03-29T07:03:39.58Z</time></trkpt><trkpt lat="38.3445733" lon="15.8688183"><ele>318.0</ele><time>2026-03-29T07:03:40.58Z</time></trkpt><trkpt lat="38.34482" lon="15.86897"><ele>327.0</ele><time>2026-03-29T07:03:41.58Z</time></trkpt><trkpt lat="38.3450717" lon="15.8691083"><ele>336.0</ele><time>2026-03-29T07:03:42.58Z</time></trkpt><trkpt lat="38.345325" lon="15.8692283"><ele>330.0</ele><time>2026-03-29T07:03:43.58Z</time></trkpt><trkpt lat="38.3455767" lon="15.8693483"><ele>324.0</ele><time>2026-03-29T07:03:44.58Z</time></trkpt><trkpt lat="38.34583" lon="15.8694567"><ele>324.0</ele><time>2026-03-29T07:03:45.58Z</time></trkpt><trkpt lat="38.34608" lon="15.869555"><ele>324.0</ele><time>2026-03-29T07:03:46.581Z</time></trkpt><trkpt lat="38.346315" lon="15.8696517"><ele>335.5</ele><time>2026-03-29T07:03:47.58Z</time></trkpt><trkpt lat="38.3465583" lon="15.8697433"><ele>347.0</ele><time>2026-03-29T07:03:48.581Z</time></trkpt><trkpt lat="38.3468033" lon="15.869845"><ele>347.0</ele><time>2026-03-29T07:03:49.58Z</time></trkpt><trkpt lat="38.347035" lon="15.86994"><ele>347.0</ele><time>2026-03-29T07:03:50.58Z</time></trkpt><trkpt lat="38.3472717" lon="15.8700367"><ele>327.0</ele><time>2026-03-29T07:03:51.581Z</time></trkpt><trkpt lat="38.35365" lon="15.8687467"><ele>314.5</ele><time>2026-03-29T07:04:15.58Z</time></trkpt><trkpt lat="38.3539883" lon="15.8684533"><ele>302.0</ele><time>2026-03-29T07:04:16.58Z</time></trkpt><trkpt lat="38.3542767" lon="15.8681983"><ele>302.0</ele><time>2026-03-29T07:04:17.58Z</time></trkpt><trkpt lat="38.3545217" lon="15.8679967"><ele>302.0</ele><time>2026-03-29T07:04:18.58Z</time></trkpt><trkpt lat="38.3547567" lon="15.8678167"><ele>302.0</ele><time>2026-03-29T07:04:19.58Z</time></trkpt><trkpt lat="38.3549917" lon="15.8676317"><ele>302.0</ele><time>2026-03-29T07:04:20.58Z</time></trkpt><trkpt lat="38.3552267" lon="15.8674467"><ele>302.0</ele><time>2026-03-29T07:04:21.58Z</time></trkpt><trkpt lat="38.3554633" lon="15.86726"><ele>302.0</ele><time>2026-03-29T07:04:22.58Z</time></trkpt><trkpt lat="38.3556983" lon="15.8670817"><ele>299.0</ele><time>2026-03-29T07:04:23.58Z</time></trkpt><trkpt lat="38.3559383" lon="15.866905"><ele>296.0</ele><time>2026-03-29T07:04:24.58Z</time></trkpt><trkpt lat="38.3561783" lon="15.866735"><ele>293.0</ele><time>2026-03-29T07:04:25.58Z</time></trkpt><trkpt lat="38.3564167" lon="15.86657"><ele>290.0</ele><time>2026-03-29T07:04:26.58Z</time></trkpt><trkpt lat="38.3566583" lon="15.8664067"><ele>290.0</ele><time>2026-03-29T07:04:27.58Z</time></trkpt><trkpt lat="38.35691" lon="15.8662483"><ele>290.0</ele><time>2026-03-29T07:04:28.58Z</time></trkpt><trkpt lat="38.3571633" lon="15.86609"><ele>294.0</ele><time>2026-03-29T07:04:29.58Z</time></trkpt><trkpt lat="38.3574283" lon="15.865945"><ele>298.0</ele><time>2026-03-29T07:04:30.58Z</time></trkpt><trkpt lat="38.3576967" lon="15.8658067"><ele>298.0</ele><time>2026-03-29T07:04:31.58Z</time></trkpt><trkpt lat="38.35796" lon="15.8656817"><ele>298.0</ele><time>2026-03-29T07:04:32.58Z</time></trkpt><trkpt lat="38.3582317" lon="15.8655733"><ele>295.5</ele><time>2026-03-29T07:04:33.58Z</time></trkpt><trkpt lat="38.3585133" lon="15.8654683"><ele>293.0</ele><time>2026-03-29T07:04:34.58Z</time></trkpt><trkpt lat="38.3587933" lon="15.8653867"><ele>291.0</ele><time>2026-03-29T07:04:35.58Z</time></trkpt><trkpt lat="38.3590683" lon="15.8653133"><ele>289.0</ele><time>2026-03-29T07:04:36.58Z</time></trkpt><trkpt lat="38.35935" lon="15.8652483"><ele>289.0</ele><time>2026-03-29T07:04:37.58Z</time></trkpt><trkpt lat="38.3596317" lon="15.8651967"><ele>289.0</ele><time>2026-03-29T07:04:38.581Z</time></trkpt><trkpt lat="38.35991" lon="15.865165"><ele>287.0</ele><time>2026-03-29T07:04:39.581Z</time></trkpt><trkpt lat="38.3601933" lon="15.8651417"><ele>285.0</ele><time>2026-03-29T07:04:40.58Z</time></trkpt><trkpt lat="38.3604733" lon="15.865125"><ele>288.0</ele><time>2026-03-29T07:04:41.58Z</time></trkpt><trkpt lat="38.3607617" lon="15.86511"><ele>291.0</ele><time>2026-03-29T07:04:42.58Z</time></trkpt><trkpt lat="38.3610467" lon="15.8651083"><ele>291.0</ele><time>2026-03-29T07:04:43.58Z</time></trkpt><trkpt lat="38.361335" lon="15.86511"><ele>291.0</ele><time>2026-03-29T07:04:44.58Z</time></trkpt><trkpt lat="38.3616233" lon="15.8651117"><ele>283.5</ele><time>2026-03-29T07:04:45.58Z</time></trkpt><trkpt lat="38.3619167" lon="15.865125"><ele>276.0</ele><time>2026-03-29T07:04:46.58Z</time></trkpt><trkpt lat="38.362205" lon="15.8651433"><ele>273.5</ele><time>2026-03-29T07:04:47.58Z</time></trkpt><trkpt lat="38.3625" lon="15.8651567"><ele>271.0</ele><time>2026-03-29T07:04:48.58Z</time></trkpt><trkpt lat="38.3627967" lon="15.8651733"><ele>269.0</ele><time>2026-03-29T07:04:49.58Z</time></trkpt><trkpt lat="38.3630967" lon="15.8651867"><ele>267.0</ele><time>2026-03-29T07:04:50.58Z</time></trkpt><trkpt lat="38.3633917" lon="15.865205"><ele>267.0</ele><time>2026-03-29T07:04:51.58Z</time></trkpt><trkpt lat="38.3636917" lon="15.865225"><ele>267.0</ele><time>2026-03-29T07:04:52.58Z</time></trkpt><trkpt lat="38.3639883" lon="15.8652417"><ele>264.5</ele><time>2026-03-29T07:04:53.58Z</time></trkpt><trkpt lat="38.3642883" lon="15.8652583"><ele>262.0</ele><time>2026-03-29T07:04:54.58Z</time></trkpt><trkpt lat="38.364585" lon="15.8652683"><ele>260.5</ele><time>2026-03-29T07:04:55.58Z</time></trkpt><trkpt lat="38.3648883" lon="15.8652833"><ele>259.0</ele><time>2026-03-29T07:04:56.58Z</time></trkpt><trkpt lat="38.365185" lon="15.8652917"><ele>259.0</ele><time>2026-03-29T07:04:57.58Z</time></trkpt><trkpt lat="38.365485" lon="15.8653033"><ele>259.0</ele><time>2026-03-29T07:04:58.58Z</time></trkpt><trkpt lat="38.3657817" lon="15.8653217"><ele>256.5</ele><time>2026-03-29T07:04:59.58Z</time></trkpt><trkpt lat="38.3660783" lon="15.8653433"><ele>254.0</ele><time>2026-03-29T07:05:00.58Z</time></trkpt><trkpt lat="38.3663833" lon="15.86535"><ele>254.0</ele><time>2026-03-29T07:05:01.581Z</time></trkpt><trkpt lat="38.3666767" lon="15.8653683"><ele>254.0</ele><time>2026-03-29T07:05:02.58Z</time></trkpt><trkpt lat="38.3669783" lon="15.8653817"><ele>252.5</ele><time>2026-03-29T07:05:03.58Z</time></trkpt><trkpt lat="38.3672717" lon="15.8654017"><ele>251.0</ele><time>2026-03-29T07:05:04.581Z</time></trkpt><trkpt lat="38.367575" lon="15.8654167"><ele>251.0</ele><time>2026-03-29T07:05:05.58Z</time></trkpt><trkpt lat="38.36788" lon="15.8654433"><ele>251.0</ele><time>2026-03-29T07:05:06.58Z</time></trkpt><trkpt lat="38.3681783" lon="15.865475"><ele>250.5</ele><time>2026-03-29T07:05:07.58Z</time></trkpt><trkpt lat="38.36847" lon="15.8655167"><ele>250.0</ele><time>2026-03-29T07:05:08.58Z</time></trkpt><trkpt lat="38.3687533" lon="15.8655633"><ele>249.0</ele><time>2026-03-29T07:05:09.58Z</time></trkpt><trkpt lat="38.3690383" lon="15.86563"><ele>248.0</ele><time>2026-03-29T07:05:10.58Z</time></trkpt><trkpt lat="38.369335" lon="15.8657133"><ele>248.0</ele><time>2026-03-29T07:05:11.58Z</time></trkpt><trkpt lat="38.3696333" lon="15.865805"><ele>248.0</ele><time>2026-03-29T07:05:12.58Z</time></trkpt><trkpt lat="38.36993" lon="15.8659133"><ele>241.5</ele><time>2026-03-29T07:05:13.58Z</time></trkpt><trkpt lat="38.3702117" lon="15.8660483"><ele>235.0</ele><time>2026-03-29T07:05:14.58Z</time></trkpt><trkpt lat="38.3704917" lon="15.8661883"><ele>240.5</ele><time>2026-03-29T07:05:15.58Z</time></trkpt><trkpt lat="38.3707567" lon="15.866345"><ele>246.0</ele><time>2026-03-29T07:05:16.58Z</time></trkpt><trkpt lat="38.3710233" lon="15.8665217"><ele>246.0</ele><time>2026-03-29T07:05:17.58Z</time></trkpt><trkpt lat="38.37128" lon="15.8667"><ele>246.0</ele><time>2026-03-29T07:05:18.58Z</time></trkpt><trkpt lat="38.3715283" lon="15.8668883"><ele>241.0</ele><time>2026-03-29T07:05:19.58Z</time></trkpt><trkpt lat="38.3717717" lon="15.867095"><ele>236.0</ele><time>2026-03-29T07:05:20.58Z</time></trkpt><trkpt lat="38.37202" lon="15.8673017"><ele>238.0</ele><time>2026-03-29T07:05:21.58Z</time></trkpt><trkpt lat="38.3722683" lon="15.8675133"><ele>240.0</ele><time>2026-03-29T07:05:22.581Z</time></trkpt><trkpt lat="38.3725217" lon="15.8677367"><ele>236.0</ele><time>2026-03-29T07:05:23.58Z</time></trkpt><trkpt lat="38.3727633" lon="15.8679667"><ele>232.0</ele><time>2026-03-29T07:05:24.58Z</time></trkpt><trkpt lat="38.3730067" lon="15.8681917"><ele>230.5</ele><time>2026-03-29T07:05:25.58Z</time></trkpt><trkpt lat="38.3732533" lon="15.868425"><ele>229.0</ele><time>2026-03-29T07:05:26.58Z</time></trkpt><trkpt lat="38.37351" lon="15.8686617"><ele>229.0</ele><time>2026-03-29T07:05:27.58Z</time></trkpt><trkpt lat="38.3737567" lon="15.8688917"><ele>229.0</ele><time>2026-03-29T07:05:28.58Z</time></trkpt><trkpt lat="38.374005" lon="15.8691233"><ele>223.0</ele><time>2026-03-29T07:05:29.58Z</time></trkpt><trkpt lat="38.3742467" lon="15.869365"><ele>217.0</ele><time>2026-03-29T07:05:30.58Z</time></trkpt><trkpt lat="38.3744933" lon="15.8696"><ele>219.5</ele><time>2026-03-29T07:05:31.58Z</time></trkpt><trkpt lat="38.374735" lon="15.8698217"><ele>222.0</ele><time>2026-03-29T07:05:32.58Z</time></trkpt><trkpt lat="38.3749733" lon="15.8700283"><ele>215.5</ele><time>2026-03-29T07:05:33.58Z</time></trkpt><trkpt lat="38.3752183" lon="15.8702417"><ele>209.0</ele><time>2026-03-29T07:05:34.58Z</time></trkpt><trkpt lat="38.3754617" lon="15.8704667"><ele>211.5</ele><time>2026-03-29T07:05:35.58Z</time></trkpt><trkpt lat="38.37571" lon="15.8706833"><ele>214.0</ele><time>2026-03-29T07:05:36.58Z</time></trkpt><trkpt lat="38.3759617" lon="15.8709067"><ele>209.5</ele><time>2026-03-29T07:05:37.58Z</time></trkpt><trkpt lat="38.376205" lon="15.87113"><ele>205.0</ele><time>2026-03-29T07:05:38.58Z</time></trkpt><trkpt lat="38.376445" lon="15.8713567"><ele>210.5</ele><time>2026-03-29T07:05:39.58Z</time></trkpt><trkpt lat="38.3766817" lon="15.8715833"><ele>216.0</ele><time>2026-03-29T07:05:40.58Z</time></trkpt><trkpt lat="38.376925" lon="15.87181"><ele>216.0</ele><time>2026-03-29T07:05:41.58Z</time></trkpt><trkpt lat="38.3771633" lon="15.8720417"><ele>216.0</ele><time>2026-03-29T07:05:42.58Z</time></trkpt><trkpt lat="38.3773983" lon="15.872265"><ele>230.0</ele><time>2026-03-29T07:05:43.58Z</time></trkpt><trkpt lat="38.37763" lon="15.8724817"><ele>244.0</ele><time>2026-03-29T07:05:44.581Z</time></trkpt><trkpt lat="38.37786" lon="15.8727033"><ele>172.0</ele><time>2026-03-29T07:05:45.58Z</time></trkpt><trkpt lat="38.3821833" lon="15.8815067"><ele>167.5</ele><time>2026-03-29T07:06:13.579Z</time></trkpt><trkpt lat="38.3822333" lon="15.8818717"><ele>163.0</ele><time>2026-03-29T07:06:14.579Z</time></trkpt><trkpt lat="38.38229" lon="15.8822183"><ele>163.0</ele><time>2026-03-29T07:06:15.579Z</time></trkpt><trkpt lat="38.3823417" lon="15.882575"><ele>163.0</ele><time>2026-03-29T07:06:16.579Z</time></trkpt><trkpt lat="38.3823933" lon="15.88293"><ele>160.0</ele><time>2026-03-29T07:06:17.579Z</time></trkpt><trkpt lat="38.3824367" lon="15.8832817"><ele>157.0</ele><time>2026-03-29T07:06:18.579Z</time></trkpt><trkpt lat="38.3824817" lon="15.8836333"><ele>155.0</ele><time>2026-03-29T07:06:19.579Z</time></trkpt><trkpt lat="38.382525" lon="15.883985"><ele>153.0</ele><time>2026-03-29T07:06:20.579Z</time></trkpt><trkpt lat="38.3825667" lon="15.8843433"><ele>151.0</ele><time>2026-03-29T07:06:21.579Z</time></trkpt><trkpt lat="38.3826017" lon="15.8847017"><ele>149.0</ele><time>2026-03-29T07:06:22.579Z</time></trkpt><trkpt lat="38.3826367" lon="15.8850533"><ele>147.0</ele><time>2026-03-29T07:06:23.579Z</time></trkpt><trkpt lat="38.38267" lon="15.8853967"><ele>145.0</ele><time>2026-03-29T07:06:24.579Z</time></trkpt><trkpt lat="38.3826867" lon="15.8857417"><ele>143.5</ele><time>2026-03-29T07:06:25.579Z</time></trkpt><trkpt lat="38.382735" lon="15.8860717"><ele>142.0</ele><time>2026-03-29T07:06:26.579Z</time></trkpt><trkpt lat="38.3827683" lon="15.8864183"><ele>142.0</ele><time>2026-03-29T07:06:27.579Z</time></trkpt><trkpt lat="38.3828083" lon="15.8867583"><ele>142.0</ele><time>2026-03-29T07:06:28.579Z</time></trkpt><trkpt lat="38.3828517" lon="15.8870933"><ele>141.0</ele><time>2026-03-29T07:06:29.579Z</time></trkpt><trkpt lat="38.3828983" lon="15.8874333"><ele>140.0</ele><time>2026-03-29T07:06:30.579Z</time></trkpt><trkpt lat="38.38295" lon="15.88778"><ele>139.0</ele><time>2026-03-29T07:06:31.58Z</time></trkpt><trkpt lat="38.3830117" lon="15.8881233"><ele>138.0</ele><time>2026-03-29T07:06:32.579Z</time></trkpt><trkpt lat="38.3830767" lon="15.8884633"><ele>138.0</ele><time>2026-03-29T07:06:33.579Z</time></trkpt><trkpt lat="38.383155" lon="15.88881"><ele>138.0</ele><time>2026-03-29T07:06:34.579Z</time></trkpt><trkpt lat="38.383245" lon="15.8891633"><ele>136.5</ele><time>2026-03-29T07:06:35.579Z</time></trkpt><trkpt lat="38.3833333" lon="15.889515"><ele>135.0</ele><time>2026-03-29T07:06:36.579Z</time></trkpt><trkpt lat="38.383425" lon="15.889865"><ele>132.5</ele><time>2026-03-29T07:06:37.579Z</time></trkpt><trkpt lat="38.3835083" lon="15.8902133"><ele>130.0</ele><time>2026-03-29T07:06:38.579Z</time></trkpt><trkpt lat="38.383595" lon="15.8905533"><ele>130.0</ele><time>2026-03-29T07:06:39.579Z</time></trkpt><trkpt lat="38.3836883" lon="15.8908883"><ele>130.0</ele><time>2026-03-29T07:06:40.579Z</time></trkpt><trkpt lat="38.3837867" lon="15.891225"><ele>133.5</ele><time>2026-03-29T07:06:41.579Z</time></trkpt><trkpt lat="38.3838817" lon="15.8915733"><ele>137.0</ele><time>2026-03-29T07:06:42.579Z</time></trkpt><trkpt lat="38.3839767" lon="15.8919217"><ele>130.0</ele><time>2026-03-29T07:06:43.579Z</time></trkpt><trkpt lat="38.3840783" lon="15.8922683"><ele>123.0</ele><time>2026-03-29T07:06:44.579Z</time></trkpt><trkpt lat="38.384175" lon="15.8926117"><ele>122.5</ele><time>2026-03-29T07:06:45.579Z</time></trkpt><trkpt lat="38.3842783" lon="15.8929583"><ele>122.0</ele><time>2026-03-29T07:06:46.579Z</time></trkpt><trkpt lat="38.3843767" lon="15.8933067"><ele>120.0</ele><time>2026-03-29T07:06:47.579Z</time></trkpt><trkpt lat="38.384475" lon="15.8936617"><ele>118.0</ele><time>2026-03-29T07:06:48.579Z</time></trkpt><trkpt lat="38.3845867" lon="15.8940083"><ele>118.0</ele><time>2026-03-29T07:06:49.579Z</time></trkpt><trkpt lat="38.3846983" lon="15.8943533"><ele>118.0</ele><time>2026-03-29T07:06:50.579Z</time></trkpt><trkpt lat="38.3848183" lon="15.8946883"><ele>118.0</ele><time>2026-03-29T07:06:51.579Z</time></trkpt><trkpt lat="38.38495" lon="15.8950167"><ele>118.0</ele><time>2026-03-29T07:06:52.579Z</time></trkpt><trkpt lat="38.3850967" lon="15.89534"><ele>114.5</ele><time>2026-03-29T07:06:53.579Z</time></trkpt><trkpt lat="38.385255" lon="15.8956617"><ele>111.0</ele><time>2026-03-29T07:06:54.579Z</time></trkpt><trkpt lat="38.3854233" lon="15.8959583"><ele>107.5</ele><time>2026-03-29T07:06:55.579Z</time></trkpt><trkpt lat="38.3856" lon="15.896265"><ele>104.0</ele><time>2026-03-29T07:06:56.579Z</time></trkpt><trkpt lat="38.3857833" lon="15.8965617"><ele>97.5</ele><time>2026-03-29T07:06:57.579Z</time></trkpt><trkpt lat="38.3859817" lon="15.89685"><ele>91.0</ele><time>2026-03-29T07:06:58.579Z</time></trkpt><trkpt lat="38.3861883" lon="15.89713"><ele>91.0</ele><time>2026-03-29T07:06:59.579Z</time></trkpt><trkpt lat="38.3863933" lon="15.897405"><ele>91.0</ele><time>2026-03-29T07:07:00.579Z</time></trkpt><trkpt lat="38.386605" lon="15.8976783"><ele>91.0</ele><time>2026-03-29T07:07:01.579Z</time></trkpt><trkpt lat="38.386825" lon="15.897945"><ele>91.0</ele><time>2026-03-29T07:07:02.579Z</time></trkpt><trkpt lat="38.38705" lon="15.898195"><ele>91.0</ele><time>2026-03-29T07:07:03.579Z</time></trkpt><trkpt lat="38.3872783" lon="15.8984533"><ele>91.0</ele><time>2026-03-29T07:07:04.579Z</time></trkpt><trkpt lat="38.3874983" lon="15.8987233"><ele>91.0</ele><time>2026-03-29T07:07:05.579Z</time></trkpt><trkpt lat="38.3877117" lon="15.8990067"><ele>91.0</ele><time>2026-03-29T07:07:06.579Z</time></trkpt><trkpt lat="38.3879383" lon="15.8992883"><ele>86.5</ele><time>2026-03-29T07:07:07.579Z</time></trkpt><trkpt lat="38.3881717" lon="15.899575"><ele>82.0</ele><time>2026-03-29T07:07:08.579Z</time></trkpt><trkpt lat="38.3883983" lon="15.8998667"><ele>82.0</ele><time>2026-03-29T07:07:09.579Z</time></trkpt><trkpt lat="38.38863" lon="15.9001317"><ele>82.0</ele><time>2026-03-29T07:07:10.579Z</time></trkpt><trkpt lat="38.3888567" lon="15.9004167"><ele>82.0</ele><time>2026-03-29T07:07:11.579Z</time></trkpt><trkpt lat="38.3890833" lon="15.9006933"><ele>82.0</ele><time>2026-03-29T07:07:12.579Z</time></trkpt><trkpt lat="38.3893033" lon="15.9009867"><ele>84.0</ele><time>2026-03-29T07:07:13.579Z</time></trkpt><trkpt lat="38.389525" lon="15.9012717"><ele>86.0</ele><time>2026-03-29T07:07:14.579Z</time></trkpt><trkpt lat="38.3897417" lon="15.90155"><ele>87.0</ele><time>2026-03-29T07:07:15.579Z</time></trkpt><trkpt lat="38.3899617" lon="15.9018233"><ele>88.0</ele><time>2026-03-29T07:07:16.579Z</time></trkpt><trkpt lat="38.3901917" lon="15.9021017"><ele>88.0</ele><time>2026-03-29T07:07:17.579Z</time></trkpt><trkpt lat="38.3904133" lon="15.9023833"><ele>88.0</ele><time>2026-03-29T07:07:18.579Z</time></trkpt><trkpt lat="38.3906383" lon="15.9026633"><ele>85.5</ele><time>2026-03-29T07:07:19.579Z</time></trkpt><trkpt lat="38.3908617" lon="15.9029283"><ele>83.0</ele><time>2026-03-29T07:07:20.579Z</time></trkpt><trkpt lat="38.391085" lon="15.9031933"><ele>77.0</ele><time>2026-03-29T07:07:21.579Z</time></trkpt><trkpt lat="38.3913167" lon="15.9034533"><ele>71.0</ele><time>2026-03-29T07:07:22.579Z</time></trkpt><trkpt lat="38.3915567" lon="15.903695"><ele>71.0</ele><time>2026-03-29T07:07:23.579Z</time></trkpt><trkpt lat="38.3917983" lon="15.903925"><ele>71.0</ele><time>2026-03-29T07:07:24.579Z</time></trkpt><trkpt lat="38.39204" lon="15.9041533"><ele>63.5</ele><time>2026-03-29T07:07:25.579Z</time></trkpt><trkpt lat="38.3922917" lon="15.9043717"><ele>56.0</ele><time>2026-03-29T07:07:26.579Z</time></trkpt><trkpt lat="38.3925483" lon="15.904585"><ele>56.0</ele><time>2026-03-29T07:07:27.579Z</time></trkpt><trkpt lat="38.3928083" lon="15.904775"><ele>56.0</ele><time>2026-03-29T07:07:28.579Z</time></trkpt><trkpt lat="38.393075" lon="15.904965"><ele>54.0</ele><time>2026-03-29T07:07:29.579Z</time></trkpt><trkpt lat="38.3933417" lon="15.90514"><ele>52.0</ele><time>2026-03-29T07:07:30.579Z</time></trkpt><trkpt lat="38.3936133" lon="15.9053033"><ele>51.5</ele><time>2026-03-29T07:07:31.579Z</time></trkpt><trkpt lat="38.3939" lon="15.9054567"><ele>51.0</ele><time>2026-03-29T07:07:32.579Z</time></trkpt><trkpt lat="38.3941833" lon="15.9056067"><ele>51.0</ele><time>2026-03-29T07:07:33.579Z</time></trkpt><trkpt lat="38.39447" lon="15.9057433"><ele>51.0</ele><time>2026-03-29T07:07:34.579Z</time></trkpt><trkpt lat="38.39476" lon="15.9058867"><ele>43.0</ele><time>2026-03-29T07:07:35.579Z</time></trkpt><trkpt lat="38.395055" lon="15.90602"><ele>35.0</ele><time>2026-03-29T07:07:36.579Z</time></trkpt><trkpt lat="38.3953483" lon="15.90615"><ele>39.0</ele><time>2026-03-29T07:07:37.579Z</time></trkpt><trkpt lat="38.3956467" lon="15.9062683"><ele>43.0</ele><time>2026-03-29T07:07:38.579Z</time></trkpt><trkpt lat="38.3959483" lon="15.906365"><ele>43.0</ele><time>2026-03-29T07:07:39.579Z</time></trkpt><trkpt lat="38.396255" lon="15.9064467"><ele>43.0</ele><time>2026-03-29T07:07:40.579Z</time></trkpt><trkpt lat="38.3965633" lon="15.9065133"><ele>47.0</ele><time>2026-03-29T07:07:41.579Z</time></trkpt><trkpt lat="38.3968683" lon="15.9065667"><ele>51.0</ele><time>2026-03-29T07:07:42.579Z</time></trkpt><trkpt lat="38.3971883" lon="15.9066017"><ele>54.5</ele><time>2026-03-29T07:07:43.579Z</time></trkpt><trkpt lat="38.3975083" lon="15.9066167"><ele>58.0</ele><time>2026-03-29T07:07:44.579Z</time></trkpt><trkpt lat="38.3978333" lon="15.9066317"><ele>54.5</ele><time>2026-03-29T07:07:45.579Z</time></trkpt><trkpt lat="38.3981617" lon="15.90664"><ele>51.0</ele><time>2026-03-29T07:07:46.579Z</time></trkpt><trkpt lat="38.3985" lon="15.9066467"><ele>51.0</ele><time>2026-03-29T07:07:47.579Z</time></trkpt><trkpt lat="38.39883" lon="15.9066833"><ele>51.0</ele><time>2026-03-29T07:07:48.579Z</time></trkpt><trkpt lat="38.39916" lon="15.9067317"><ele>40.5</ele><time>2026-03-29T07:07:49.579Z</time></trkpt><trkpt lat="38.3994733" lon="15.906805"><ele>30.0</ele><time>2026-03-29T07:07:50.579Z</time></trkpt><trkpt lat="38.39979" lon="15.9068883"><ele>30.0</ele><time>2026-03-29T07:07:51.579Z</time></trkpt><trkpt lat="38.4000883" lon="15.9069933"><ele>30.0</ele><time>2026-03-29T07:07:52.579Z</time></trkpt><trkpt lat="38.4003783" lon="15.907125"><ele>31.0</ele><time>2026-03-29T07:07:53.579Z</time></trkpt><trkpt lat="38.4006633" lon="15.9072767"><ele>32.0</ele><time>2026-03-29T07:07:54.579Z</time></trkpt><trkpt lat="38.4009383" lon="15.9074417"><ele>27.0</ele><time>2026-03-29T07:07:55.58Z</time></trkpt><trkpt lat="38.4012117" lon="15.9076283"><ele>22.0</ele><time>2026-03-29T07:07:56.579Z</time></trkpt><trkpt lat="38.40148" lon="15.90782"><ele>22.0</ele><time>2026-03-29T07:07:57.579Z</time></trkpt><trkpt lat="38.40174" lon="15.90803"><ele>22.0</ele><time>2026-03-29T07:07:58.579Z</time></trkpt><trkpt lat="38.40199" lon="15.9082383"><ele>22.5</ele><time>2026-03-29T07:07:59.579Z</time></trkpt><trkpt lat="38.4022333" lon="15.9084533"><ele>23.0</ele><time>2026-03-29T07:08:00.579Z</time></trkpt><trkpt lat="38.40247" lon="15.9086683"><ele>23.0</ele><time>2026-03-29T07:08:01.579Z</time></trkpt><trkpt lat="38.4027083" lon="15.90888"><ele>23.0</ele><time>2026-03-29T07:08:02.579Z</time></trkpt><trkpt lat="38.4029467" lon="15.909085"><ele>23.0</ele><time>2026-03-29T07:08:03.579Z</time></trkpt><trkpt lat="38.4031817" lon="15.909295"><ele>23.0</ele><time>2026-03-29T07:08:04.579Z</time></trkpt><trkpt lat="38.4034233" lon="15.9095"><ele>23.0</ele><time>2026-03-29T07:08:05.579Z</time></trkpt><trkpt lat="38.4036667" lon="15.909705"><ele>23.0</ele><time>2026-03-29T07:08:06.579Z</time></trkpt><trkpt lat="38.4039017" lon="15.9099183"><ele>31.5</ele><time>2026-03-29T07:08:07.579Z</time></trkpt><trkpt lat="38.4041317" lon="15.9101317"><ele>40.0</ele><time>2026-03-29T07:08:08.579Z</time></trkpt><trkpt lat="38.4043583" lon="15.910335"><ele>40.0</ele><time>2026-03-29T07:08:09.579Z</time></trkpt><trkpt lat="38.4045817" lon="15.91054"><ele>40.0</ele><time>2026-03-29T07:08:10.579Z</time></trkpt><trkpt lat="38.4048067" lon="15.9107417"><ele>46.5</ele><time>2026-03-29T07:08:11.579Z</time></trkpt><trkpt lat="38.4050317" lon="15.9109417"><ele>53.0</ele><time>2026-03-29T07:08:12.579Z</time></trkpt><trkpt lat="38.4052567" lon="15.9111417"><ele>53.0</ele><time>2026-03-29T07:08:13.579Z</time></trkpt><trkpt lat="38.4054817" lon="15.9113433"><ele>53.0</ele><time>2026-03-29T07:08:14.58Z</time></trkpt><trkpt lat="38.4057117" lon="15.9115517"><ele>53.5</ele><time>2026-03-29T07:08:15.579Z</time></trkpt><trkpt lat="38.4059417" lon="15.9117567"><ele>54.0</ele><time>2026-03-29T07:08:16.579Z</time></trkpt><trkpt lat="38.4061683" lon="15.9119517"><ele>50.0</ele><time>2026-03-29T07:08:17.579Z</time></trkpt><trkpt lat="38.4063883" lon="15.9121517"><ele>46.0</ele><time>2026-03-29T07:08:18.579Z</time></trkpt><trkpt lat="38.406615" lon="15.9123533"><ele>46.0</ele><time>2026-03-29T07:08:19.579Z</time></trkpt><trkpt lat="38.4068433" lon="15.91256"><ele>46.0</ele><time>2026-03-29T07:08:20.579Z</time></trkpt><trkpt lat="38.407065" lon="15.912765"><ele>49.5</ele><time>2026-03-29T07:08:21.579Z</time></trkpt><trkpt lat="38.407285" lon="15.9129817"><ele>53.0</ele><time>2026-03-29T07:08:22.579Z</time></trkpt><trkpt lat="38.4075" lon="15.9132083"><ele>57.0</ele><time>2026-03-29T07:08:23.579Z</time></trkpt><trkpt lat="38.40771" lon="15.91344"><ele>61.0</ele><time>2026-03-29T07:08:24.579Z</time></trkpt><trkpt lat="38.4079167" lon="15.913685"><ele>60.5</ele><time>2026-03-29T07:08:25.579Z</time></trkpt><trkpt lat="38.408115" lon="15.9139483"><ele>60.0</ele><time>2026-03-29T07:08:26.579Z</time></trkpt><trkpt lat="38.4083117" lon="15.91421"><ele>62.0</ele><time>2026-03-29T07:08:27.579Z</time></trkpt><trkpt lat="38.4085133" lon="15.91446"><ele>64.0</ele><time>2026-03-29T07:08:28.579Z</time></trkpt><trkpt lat="38.4087117" lon="15.914705"><ele>64.5</ele><time>2026-03-29T07:08:29.579Z</time></trkpt><trkpt lat="38.4089033" lon="15.9149467"><ele>65.0</ele><time>2026-03-29T07:08:30.579Z</time></trkpt><trkpt lat="38.409095" lon="15.9151983"><ele>65.0</ele><time>2026-03-29T07:08:31.579Z</time></trkpt><trkpt lat="38.4092867" lon="15.91544"><ele>65.0</ele><time>2026-03-29T07:08:32.579Z</time></trkpt><trkpt lat="38.4094733" lon="15.91568"><ele>64.0</ele><time>2026-03-29T07:08:33.579Z</time></trkpt><trkpt lat="38.40966" lon="15.9159133"><ele>63.0</ele><time>2026-03-29T07:08:34.579Z</time></trkpt><trkpt lat="38.4098517" lon="15.9161567"><ele>63.0</ele><time>2026-03-29T07:08:35.579Z</time></trkpt><trkpt lat="38.4100483" lon="15.9164117"><ele>63.0</ele><time>2026-03-29T07:08:36.579Z</time></trkpt><trkpt lat="38.4102483" lon="15.9166517"><ele>62.5</ele><time>2026-03-29T07:08:37.579Z</time></trkpt><trkpt lat="38.41045" lon="15.9168867"><ele>62.0</ele><time>2026-03-29T07:08:38.579Z</time></trkpt><trkpt lat="38.4106533" lon="15.91712"><ele>62.0</ele><time>2026-03-29T07:08:39.579Z</time></trkpt><trkpt lat="38.4108583" lon="15.91735"><ele>62.0</ele><time>2026-03-29T07:08:40.579Z</time></trkpt><trkpt lat="38.4110717" lon="15.917575"><ele>62.5</ele><time>2026-03-29T07:08:41.579Z</time></trkpt><trkpt lat="38.4112867" lon="15.9177917"><ele>63.0</ele><time>2026-03-29T07:08:42.579Z</time></trkpt><trkpt lat="38.4115033" lon="15.9180017"><ele>62.0</ele><time>2026-03-29T07:08:43.579Z</time></trkpt><trkpt lat="38.4117183" lon="15.9182083"><ele>61.0</ele><time>2026-03-29T07:08:44.579Z</time></trkpt><trkpt lat="38.411935" lon="15.9183867"><ele>61.5</ele><time>2026-03-29T07:08:45.579Z</time></trkpt><trkpt lat="38.4121567" lon="15.918565"><ele>62.0</ele><time>2026-03-29T07:08:46.579Z</time></trkpt><trkpt lat="38.4123767" lon="15.91874"><ele>62.0</ele><time>2026-03-29T07:08:47.579Z</time></trkpt><trkpt lat="38.4126117" lon="15.9189183"><ele>62.0</ele><time>2026-03-29T07:08:48.579Z</time></trkpt><trkpt lat="38.4128483" lon="15.919085"><ele>63.0</ele><time>2026-03-29T07:08:49.58Z</time></trkpt><trkpt lat="38.413085" lon="15.9192483"><ele>64.0</ele><time>2026-03-29T07:08:50.579Z</time></trkpt><trkpt lat="38.4133267" lon="15.9194183"><ele>64.0</ele><time>2026-03-29T07:08:51.579Z</time></trkpt><trkpt lat="38.4135683" lon="15.9195667"><ele>64.0</ele><time>2026-03-29T07:08:52.579Z</time></trkpt><trkpt lat="38.4138167" lon="15.9197217"><ele>63.5</ele><time>2026-03-29T07:08:53.579Z</time></trkpt><trkpt lat="38.4140783" lon="15.919855"><ele>63.0</ele><time>2026-03-29T07:08:54.579Z</time></trkpt><trkpt lat="38.4143383" lon="15.9199883"><ele>63.5</ele><time>2026-03-29T07:08:55.579Z</time></trkpt><trkpt lat="38.4146017" lon="15.920115"><ele>64.0</ele><time>2026-03-29T07:08:56.579Z</time></trkpt><trkpt lat="38.4148683" lon="15.9202317"><ele>64.0</ele><time>2026-03-29T07:08:57.579Z</time></trkpt><trkpt lat="38.41514" lon="15.9203567"><ele>64.0</ele><time>2026-03-29T07:08:58.579Z</time></trkpt><trkpt lat="38.4154217" lon="15.9204667"><ele>63.5</ele><time>2026-03-29T07:08:59.579Z</time></trkpt><trkpt lat="38.4157017" lon="15.9205833"><ele>63.0</ele><time>2026-03-29T07:09:00.579Z</time></trkpt><trkpt lat="38.4159917" lon="15.9206917"><ele>63.0</ele><time>2026-03-29T07:09:01.579Z</time></trkpt><trkpt lat="38.4162783" lon="15.9207967"><ele>63.0</ele><time>2026-03-29T07:09:02.579Z</time></trkpt><trkpt lat="38.4165633" lon="15.9209017"><ele>62.5</ele><time>2026-03-29T07:09:03.579Z</time></trkpt><trkpt lat="38.4168367" lon="15.9210167"><ele>62.0</ele><time>2026-03-29T07:09:04.579Z</time></trkpt><trkpt lat="38.4171067" lon="15.92112"><ele>61.0</ele><time>2026-03-29T07:09:05.579Z</time></trkpt><trkpt lat="38.4173733" lon="15.9212267"><ele>60.0</ele><time>2026-03-29T07:09:06.579Z</time></trkpt><trkpt lat="38.4176433" lon="15.9213333"><ele>60.0</ele><time>2026-03-29T07:09:07.579Z</time></trkpt><trkpt lat="38.417925" lon="15.9214333"><ele>60.0</ele><time>2026-03-29T07:09:08.579Z</time></trkpt><trkpt lat="38.4182183" lon="15.9215467"><ele>60.0</ele><time>2026-03-29T07:09:09.579Z</time></trkpt><trkpt lat="38.41851" lon="15.92166"><ele>60.0</ele><time>2026-03-29T07:09:10.579Z</time></trkpt><trkpt lat="38.4188" lon="15.9217617"><ele>60.0</ele><time>2026-03-29T07:09:11.579Z</time></trkpt><trkpt lat="38.4190783" lon="15.92187"><ele>60.0</ele><time>2026-03-29T07:09:12.579Z</time></trkpt><trkpt lat="38.41935" lon="15.92197"><ele>60.0</ele><time>2026-03-29T07:09:13.579Z</time></trkpt><trkpt lat="38.419615" lon="15.9220767"><ele>60.0</ele><time>2026-03-29T07:09:14.579Z</time></trkpt><trkpt lat="38.4198817" lon="15.9221783"><ele>59.5</ele><time>2026-03-29T07:09:15.579Z</time></trkpt><trkpt lat="38.4201533" lon="15.9222767"><ele>59.0</ele><time>2026-03-29T07:09:16.579Z</time></trkpt><trkpt lat="38.42042" lon="15.9223817"><ele>58.0</ele><time>2026-03-29T07:09:17.579Z</time></trkpt><trkpt lat="38.42069" lon="15.9224867"><ele>57.0</ele><time>2026-03-29T07:09:18.579Z</time></trkpt><trkpt lat="38.4209633" lon="15.9225917"><ele>57.5</ele><time>2026-03-29T07:09:19.579Z</time></trkpt><trkpt lat="38.4212417" lon="15.922695"><ele>58.0</ele><time>2026-03-29T07:09:20.579Z</time></trkpt><trkpt lat="38.421515" lon="15.922805"><ele>58.0</ele><time>2026-03-29T07:09:21.579Z</time></trkpt><trkpt lat="38.4217917" lon="15.9229133"><ele>58.0</ele><time>2026-03-29T07:09:22.579Z</time></trkpt><trkpt lat="38.4220767" lon="15.9230117"><ele>54.5</ele><time>2026-03-29T07:09:23.579Z</time></trkpt><trkpt lat="38.4223483" lon="15.923125"><ele>51.0</ele><time>2026-03-29T07:09:24.579Z</time></trkpt><trkpt lat="38.422625" lon="15.923235"><ele>51.0</ele><time>2026-03-29T07:09:25.579Z</time></trkpt><trkpt lat="38.4229" lon="15.9233467"><ele>51.0</ele><time>2026-03-29T07:09:26.579Z</time></trkpt><trkpt lat="38.4231667" lon="15.9234533"><ele>52.5</ele><time>2026-03-29T07:09:27.579Z</time></trkpt><trkpt lat="38.423435" lon="15.9235717"><ele>54.0</ele><time>2026-03-29T07:09:28.579Z</time></trkpt><trkpt lat="38.4237017" lon="15.9236867"><ele>50.0</ele><time>2026-03-29T07:09:29.579Z</time></trkpt><trkpt lat="38.4239733" lon="15.9238083"><ele>46.0</ele><time>2026-03-29T07:09:30.579Z</time></trkpt><trkpt lat="38.4242433" lon="15.92393"><ele>46.0</ele><time>2026-03-29T07:09:31.579Z</time></trkpt><trkpt lat="38.424515" lon="15.9240467"><ele>46.0</ele><time>2026-03-29T07:09:32.579Z</time></trkpt><trkpt lat="38.4247817" lon="15.924185"><ele>47.5</ele><time>2026-03-29T07:09:33.579Z</time></trkpt><trkpt lat="38.4250467" lon="15.9243233"><ele>49.0</ele><time>2026-03-29T07:09:34.579Z</time></trkpt><trkpt lat="38.425315" lon="15.9244567"><ele>42.0</ele><time>2026-03-29T07:09:35.579Z</time></trkpt><trkpt lat="38.4255817" lon="15.9245933"><ele>35.0</ele><time>2026-03-29T07:09:36.579Z</time></trkpt><trkpt lat="38.425845" lon="15.9247417"><ele>35.0</ele><time>2026-03-29T07:09:37.579Z</time></trkpt><trkpt lat="38.4261133" lon="15.9249017"><ele>35.0</ele><time>2026-03-29T07:09:38.579Z</time></trkpt><trkpt lat="38.4263733" lon="15.9250717"><ele>30.0</ele><time>2026-03-29T07:09:39.579Z</time></trkpt><trkpt lat="38.4266283" lon="15.92525"><ele>25.0</ele><time>2026-03-29T07:09:40.579Z</time></trkpt><trkpt lat="38.4268833" lon="15.9254317"><ele>25.0</ele><time>2026-03-29T07:09:41.579Z</time></trkpt><trkpt lat="38.4271417" lon="15.925615"><ele>25.0</ele><time>2026-03-29T07:09:42.579Z</time></trkpt><trkpt lat="38.4274" lon="15.9257983"><ele>21.5</ele><time>2026-03-29T07:09:43.579Z</time></trkpt><trkpt lat="38.42765" lon="15.9260017"><ele>18.0</ele><time>2026-03-29T07:09:44.579Z</time></trkpt><trkpt lat="38.4279033" lon="15.9262017"><ele>17.5</ele><time>2026-03-29T07:09:45.579Z</time></trkpt><trkpt lat="38.428155" lon="15.9264083"><ele>17.0</ele><time>2026-03-29T07:09:46.579Z</time></trkpt><trkpt lat="38.4283983" lon="15.9266217"><ele>17.0</ele><time>2026-03-29T07:09:47.579Z</time></trkpt><trkpt lat="38.42864" lon="15.92684"><ele>17.0</ele><time>2026-03-29T07:09:48.579Z</time></trkpt><trkpt lat="38.4288833" lon="15.9270667"><ele>17.0</ele><time>2026-03-29T07:09:49.579Z</time></trkpt><trkpt lat="38.4291183" lon="15.927295"><ele>17.0</ele><time>2026-03-29T07:09:50.579Z</time></trkpt><trkpt lat="38.4293517" lon="15.9275317"><ele>17.5</ele><time>2026-03-29T07:09:51.579Z</time></trkpt><trkpt lat="38.429575" lon="15.927765"><ele>18.0</ele><time>2026-03-29T07:09:52.579Z</time></trkpt><trkpt lat="38.4297933" lon="15.9280083"><ele>18.0</ele><time>2026-03-29T07:09:53.579Z</time></trkpt><trkpt lat="38.4300167" lon="15.928245"><ele>18.0</ele><time>2026-03-29T07:09:54.579Z</time></trkpt><trkpt lat="38.4302317" lon="15.92848"><ele>18.0</ele><time>2026-03-29T07:09:55.579Z</time></trkpt><trkpt lat="38.4304483" lon="15.9287183"><ele>18.0</ele><time>2026-03-29T07:09:56.579Z</time></trkpt><trkpt lat="38.4306633" lon="15.9289617"><ele>18.0</ele><time>2026-03-29T07:09:57.579Z</time></trkpt><trkpt lat="38.430875" lon="15.92922"><ele>18.0</ele><time>2026-03-29T07:09:58.579Z</time></trkpt><trkpt lat="38.4310983" lon="15.9294833"><ele>23.0</ele><time>2026-03-29T07:09:59.579Z</time></trkpt><trkpt lat="38.4313267" lon="15.9297483"><ele>28.0</ele><time>2026-03-29T07:10:00.579Z</time></trkpt><trkpt lat="38.431555" lon="15.930025"><ele>28.5</ele><time>2026-03-29T07:10:01.579Z</time></trkpt><trkpt lat="38.4317883" lon="15.9303133"><ele>29.0</ele><time>2026-03-29T07:10:02.579Z</time></trkpt><trkpt lat="38.4320317" lon="15.9306067"><ele>27.0</ele><time>2026-03-29T07:10:03.579Z</time></trkpt><trkpt lat="38.432275" lon="15.9309"><ele>25.0</ele><time>2026-03-29T07:10:04.579Z</time></trkpt><trkpt lat="38.432515" lon="15.93119"><ele>25.0</ele><time>2026-03-29T07:10:05.579Z</time></trkpt><trkpt lat="38.4327533" lon="15.9314767"><ele>25.0</ele><time>2026-03-29T07:10:06.579Z</time></trkpt><trkpt lat="38.4329883" lon="15.9317567"><ele>27.0</ele><time>2026-03-29T07:10:07.579Z</time></trkpt><trkpt lat="38.4332183" lon="15.93203"><ele>29.0</ele><time>2026-03-29T07:10:08.579Z</time></trkpt><trkpt lat="38.433455" lon="15.9323033"><ele>30.5</ele><time>2026-03-29T07:10:09.579Z</time></trkpt><trkpt lat="38.433695" lon="15.9325817"><ele>32.0</ele><time>2026-03-29T07:10:10.579Z</time></trkpt><trkpt lat="38.4339217" lon="15.9328583"><ele>32.0</ele><time>2026-03-29T07:10:11.579Z</time></trkpt><trkpt lat="38.4341467" lon="15.9331283"><ele>32.0</ele><time>2026-03-29T07:10:12.579Z</time></trkpt><trkpt lat="38.43437" lon="15.9333933"><ele>30.0</ele><time>2026-03-29T07:10:13.579Z</time></trkpt><trkpt lat="38.4345917" lon="15.9336617"><ele>28.0</ele><time>2026-03-29T07:10:14.579Z</time></trkpt><trkpt lat="38.4348067" lon="15.9339283"><ele>33.5</ele><time>2026-03-29T07:10:15.58Z</time></trkpt><trkpt lat="38.435025" lon="15.934195"><ele>39.0</ele><time>2026-03-29T07:10:16.579Z</time></trkpt><trkpt lat="38.4352383" lon="15.9344683"><ele>39.0</ele><time>2026-03-29T07:10:17.579Z</time></trkpt><trkpt lat="38.435455" lon="15.934735"><ele>39.0</ele><time>2026-03-29T07:10:18.579Z</time></trkpt><trkpt lat="38.43567" lon="15.9350017"><ele>43.5</ele><time>2026-03-29T07:10:19.579Z</time></trkpt><trkpt lat="38.4358867" lon="15.9352717"><ele>48.0</ele><time>2026-03-29T07:10:20.579Z</time></trkpt><trkpt lat="38.4360983" lon="15.9355517"><ele>49.0</ele><time>2026-03-29T07:10:21.579Z</time></trkpt><trkpt lat="38.43631" lon="15.9358417"><ele>50.0</ele><time>2026-03-29T07:10:22.579Z</time></trkpt><trkpt lat="38.4365183" lon="15.93613"><ele>50.0</ele><time>2026-03-29T07:10:23.579Z</time></trkpt><trkpt lat="38.436725" lon="15.9364167"><ele>50.0</ele><time>2026-03-29T07:10:24.579Z</time></trkpt><trkpt lat="38.4369167" lon="15.9366967"><ele>51.0</ele><time>2026-03-29T07:10:25.579Z</time></trkpt><trkpt lat="38.43711" lon="15.93699"><ele>52.0</ele><time>2026-03-29T07:10:26.579Z</time></trkpt><trkpt lat="38.437295" lon="15.9372917"><ele>54.0</ele><time>2026-03-29T07:10:27.579Z</time></trkpt><trkpt lat="38.4374717" lon="15.9375933"><ele>56.0</ele><time>2026-03-29T07:10:28.579Z</time></trkpt><trkpt lat="38.4376517" lon="15.9378867"><ele>56.0</ele><time>2026-03-29T07:10:29.579Z</time></trkpt><trkpt lat="38.4378217" lon="15.9381967"><ele>56.0</ele><time>2026-03-29T07:10:30.579Z</time></trkpt><trkpt lat="38.437995" lon="15.9384967"><ele>55.0</ele><time>2026-03-29T07:10:31.579Z</time></trkpt><trkpt lat="38.438155" lon="15.938805"><ele>54.0</ele><time>2026-03-29T07:10:32.58Z</time></trkpt><trkpt lat="38.43831" lon="15.9391217"><ele>55.0</ele><time>2026-03-29T07:10:33.579Z</time></trkpt><trkpt lat="38.43846" lon="15.9394417"><ele>56.0</ele><time>2026-03-29T07:10:34.579Z</time></trkpt><trkpt lat="38.43861" lon="15.9397683"><ele>57.0</ele><time>2026-03-29T07:10:35.579Z</time></trkpt><trkpt lat="38.4387483" lon="15.94009"><ele>58.0</ele><time>2026-03-29T07:10:36.579Z</time></trkpt><trkpt lat="38.43889" lon="15.9404217"><ele>56.0</ele><time>2026-03-29T07:10:37.579Z</time></trkpt><trkpt lat="38.4390267" lon="15.940755"><ele>54.0</ele><time>2026-03-29T07:10:38.579Z</time></trkpt><trkpt lat="38.4391533" lon="15.94108"><ele>54.0</ele><time>2026-03-29T07:10:39.579Z</time></trkpt><trkpt lat="38.439275" lon="15.9414017"><ele>54.0</ele><time>2026-03-29T07:10:40.579Z</time></trkpt><trkpt lat="38.4393883" lon="15.94172"><ele>53.5</ele><time>2026-03-29T07:10:41.579Z</time></trkpt><trkpt lat="38.4395" lon="15.9420317"><ele>53.0</ele><time>2026-03-29T07:10:42.579Z</time></trkpt><trkpt lat="38.4396217" lon="15.9423483"><ele>54.0</ele><time>2026-03-29T07:10:43.579Z</time></trkpt><trkpt lat="38.4397367" lon="15.942655"><ele>55.0</ele><time>2026-03-29T07:10:44.579Z</time></trkpt><trkpt lat="38.43985" lon="15.94297"><ele>55.0</ele><time>2026-03-29T07:10:45.579Z</time></trkpt><trkpt lat="38.4399667" lon="15.9432883"><ele>55.0</ele><time>2026-03-29T07:10:46.579Z</time></trkpt><trkpt lat="38.4400817" lon="15.9435983"><ele>56.5</ele><time>2026-03-29T07:10:47.579Z</time></trkpt><trkpt lat="38.4401917" lon="15.9439067"><ele>58.0</ele><time>2026-03-29T07:10:48.579Z</time></trkpt><trkpt lat="38.4403083" lon="15.9442167"><ele>59.0</ele><time>2026-03-29T07:10:49.579Z</time></trkpt><trkpt lat="38.440425" lon="15.9445217"><ele>60.0</ele><time>2026-03-29T07:10:50.579Z</time></trkpt><trkpt lat="38.4405417" lon="15.94482"><ele>60.5</ele><time>2026-03-29T07:10:51.579Z</time></trkpt><trkpt lat="38.4406583" lon="15.9451133"><ele>61.0</ele><time>2026-03-29T07:10:52.579Z</time></trkpt><trkpt lat="38.4407833" lon="15.9454117"><ele>61.0</ele><time>2026-03-29T07:10:53.58Z</time></trkpt><trkpt lat="38.4409017" lon="15.9457067"><ele>61.0</ele><time>2026-03-29T07:10:54.579Z</time></trkpt><trkpt lat="38.4410283" lon="15.945995"><ele>62.0</ele><time>2026-03-29T07:10:55.579Z</time></trkpt><trkpt lat="38.4411533" lon="15.946285"><ele>63.0</ele><time>2026-03-29T07:10:56.579Z</time></trkpt><trkpt lat="38.441295" lon="15.94657"><ele>61.0</ele><time>2026-03-29T07:10:57.58Z</time></trkpt><trkpt lat="38.44143" lon="15.9468517"><ele>59.0</ele><time>2026-03-29T07:10:58.579Z</time></trkpt><trkpt lat="38.441575" lon="15.947125"><ele>59.0</ele><time>2026-03-29T07:10:59.579Z</time></trkpt><trkpt lat="38.4417167" lon="15.947405"><ele>59.0</ele><time>2026-03-29T07:11:00.579Z</time></trkpt><trkpt lat="38.4418717" lon="15.9476883"><ele>60.0</ele><time>2026-03-29T07:11:01.579Z</time></trkpt><trkpt lat="38.4420367" lon="15.9479667"><ele>61.0</ele><time>2026-03-29T07:11:02.579Z</time></trkpt><trkpt lat="38.442205" lon="15.94824"><ele>61.5</ele><time>2026-03-29T07:11:03.579Z</time></trkpt><trkpt lat="38.4423783" lon="15.9485167"><ele>62.0</ele><time>2026-03-29T07:11:04.579Z</time></trkpt><trkpt lat="38.4425533" lon="15.9487917"><ele>62.0</ele><time>2026-03-29T07:11:05.579Z</time></trkpt><trkpt lat="38.4427333" lon="15.9490667"><ele>62.0</ele><time>2026-03-29T07:11:06.579Z</time></trkpt><trkpt lat="38.44292" lon="15.9493317"><ele>62.5</ele><time>2026-03-29T07:11:07.579Z</time></trkpt><trkpt lat="38.4431017" lon="15.949595"><ele>63.0</ele><time>2026-03-29T07:11:08.579Z</time></trkpt><trkpt lat="38.4432967" lon="15.9498567"><ele>64.0</ele><time>2026-03-29T07:11:09.579Z</time></trkpt><trkpt lat="38.4434883" lon="15.95012"><ele>65.0</ele><time>2026-03-29T07:11:10.579Z</time></trkpt><trkpt lat="38.44368" lon="15.9503833"><ele>65.0</ele><time>2026-03-29T07:11:11.579Z</time></trkpt><trkpt lat="38.4438733" lon="15.9506367"><ele>65.0</ele><time>2026-03-29T07:11:12.579Z</time></trkpt><trkpt lat="38.4440633" lon="15.950895"><ele>65.0</ele><time>2026-03-29T07:11:13.579Z</time></trkpt><trkpt lat="38.4442583" lon="15.95115"><ele>65.0</ele><time>2026-03-29T07:11:14.579Z</time></trkpt><trkpt lat="38.4444433" lon="15.9514117"><ele>64.0</ele><time>2026-03-29T07:11:15.579Z</time></trkpt><trkpt lat="38.444635" lon="15.9516667"><ele>63.0</ele><time>2026-03-29T07:11:16.579Z</time></trkpt><trkpt lat="38.444825" lon="15.951925"><ele>63.0</ele><time>2026-03-29T07:11:17.579Z</time></trkpt><trkpt lat="38.4450167" lon="15.9521833"><ele>63.0</ele><time>2026-03-29T07:11:18.579Z</time></trkpt><trkpt lat="38.445205" lon="15.9524583"><ele>63.0</ele><time>2026-03-29T07:11:19.579Z</time></trkpt><trkpt lat="38.445395" lon="15.9527367"><ele>63.0</ele><time>2026-03-29T07:11:20.579Z</time></trkpt><trkpt lat="38.445585" lon="15.95303"><ele>64.0</ele><time>2026-03-29T07:11:21.579Z</time></trkpt><trkpt lat="38.44577" lon="15.9533283"><ele>65.0</ele><time>2026-03-29T07:11:22.579Z</time></trkpt><trkpt lat="38.4459417" lon="15.9536267"><ele>65.0</ele><time>2026-03-29T07:11:23.579Z</time></trkpt><trkpt lat="38.44611" lon="15.9539383"><ele>65.0</ele><time>2026-03-29T07:11:24.579Z</time></trkpt><trkpt lat="38.4462683" lon="15.954255"><ele>64.0</ele><time>2026-03-29T07:11:25.579Z</time></trkpt><trkpt lat="38.44642" lon="15.9545667"><ele>63.0</ele><time>2026-03-29T07:11:26.579Z</time></trkpt><trkpt lat="38.4465617" lon="15.9548817"><ele>65.0</ele><time>2026-03-29T07:11:27.579Z</time></trkpt><trkpt lat="38.4466967" lon="15.9552017"><ele>67.0</ele><time>2026-03-29T07:11:28.579Z</time></trkpt><trkpt lat="38.446825" lon="15.955525"><ele>67.0</ele><time>2026-03-29T07:11:29.579Z</time></trkpt><trkpt lat="38.44695" lon="15.95586"><ele>67.0</ele><time>2026-03-29T07:11:30.579Z</time></trkpt><trkpt lat="38.4470683" lon="15.9562"><ele>66.5</ele><time>2026-03-29T07:11:31.579Z</time></trkpt><trkpt lat="38.4471767" lon="15.9565483"><ele>66.0</ele><time>2026-03-29T07:11:32.579Z</time></trkpt><trkpt lat="38.447285" lon="15.9568983"><ele>66.0</ele><time>2026-03-29T07:11:33.579Z</time></trkpt><trkpt lat="38.44739" lon="15.9572417"><ele>66.0</ele><time>2026-03-29T07:11:34.579Z</time></trkpt><trkpt lat="38.4474917" lon="15.9575917"><ele>66.0</ele><time>2026-03-29T07:11:35.579Z</time></trkpt><trkpt lat="38.447585" lon="15.9579433"><ele>66.0</ele><time>2026-03-29T07:11:36.579Z</time></trkpt><trkpt lat="38.4476683" lon="15.9583033"><ele>67.5</ele><time>2026-03-29T07:11:37.579Z</time></trkpt><trkpt lat="38.4477567" lon="15.95866"><ele>69.0</ele><time>2026-03-29T07:11:38.579Z</time></trkpt><trkpt lat="38.4478433" lon="15.9590133"><ele>68.5</ele><time>2026-03-29T07:11:39.579Z</time></trkpt><trkpt lat="38.4479367" lon="15.9593683"><ele>68.0</ele><time>2026-03-29T07:11:40.579Z</time></trkpt><trkpt lat="38.4480333" lon="15.959725"><ele>68.0</ele><time>2026-03-29T07:11:41.579Z</time></trkpt><trkpt lat="38.4481283" lon="15.9600783"><ele>68.0</ele><time>2026-03-29T07:11:42.579Z</time></trkpt><trkpt lat="38.4482283" lon="15.9604317"><ele>68.0</ele><time>2026-03-29T07:11:43.579Z</time></trkpt><trkpt lat="38.4483367" lon="15.9607867"><ele>68.0</ele><time>2026-03-29T07:11:44.579Z</time></trkpt><trkpt lat="38.4484433" lon="15.9611333"><ele>68.0</ele><time>2026-03-29T07:11:45.579Z</time></trkpt><trkpt lat="38.448555" lon="15.9614767"><ele>68.0</ele><time>2026-03-29T07:11:46.579Z</time></trkpt><trkpt lat="38.4486733" lon="15.9618217"><ele>69.5</ele><time>2026-03-29T07:11:47.579Z</time></trkpt><trkpt lat="38.4487883" lon="15.96217"><ele>71.0</ele><time>2026-03-29T07:11:48.579Z</time></trkpt><trkpt lat="38.44891" lon="15.9625183"><ele>71.0</ele><time>2026-03-29T07:11:49.579Z</time></trkpt><trkpt lat="38.4490317" lon="15.9628633"><ele>71.0</ele><time>2026-03-29T07:11:50.579Z</time></trkpt><trkpt lat="38.44917" lon="15.963205"><ele>72.0</ele><time>2026-03-29T07:11:51.579Z</time></trkpt><trkpt lat="38.44931" lon="15.9635417"><ele>73.0</ele><time>2026-03-29T07:11:52.579Z</time></trkpt><trkpt lat="38.4494567" lon="15.96388"><ele>73.0</ele><time>2026-03-29T07:11:53.58Z</time></trkpt><trkpt lat="38.4495967" lon="15.9642233"><ele>73.0</ele><time>2026-03-29T07:11:54.579Z</time></trkpt><trkpt lat="38.449755" lon="15.9645717"><ele>71.5</ele><time>2026-03-29T07:11:55.579Z</time></trkpt><trkpt lat="38.4499083" lon="15.96491"><ele>70.0</ele><time>2026-03-29T07:11:56.579Z</time></trkpt><trkpt lat="38.4500583" lon="15.9652433"><ele>68.0</ele><time>2026-03-29T07:11:57.579Z</time></trkpt><trkpt lat="38.4502217" lon="15.9655783"><ele>66.0</ele><time>2026-03-29T07:11:58.58Z</time></trkpt><trkpt lat="38.4503917" lon="15.9659083"><ele>66.5</ele><time>2026-03-29T07:11:59.579Z</time></trkpt><trkpt lat="38.450565" lon="15.96623"><ele>67.0</ele><time>2026-03-29T07:12:00.579Z</time></trkpt><trkpt lat="38.4507317" lon="15.9665467"><ele>67.5</ele><time>2026-03-29T07:12:01.579Z</time></trkpt><trkpt lat="38.4509017" lon="15.9668633"><ele>68.0</ele><time>2026-03-29T07:12:02.579Z</time></trkpt><trkpt lat="38.4510783" lon="15.9671683"><ele>68.0</ele><time>2026-03-29T07:12:03.579Z</time></trkpt><trkpt lat="38.4512567" lon="15.9674717"><ele>68.0</ele><time>2026-03-29T07:12:04.579Z</time></trkpt><trkpt lat="38.4514317" lon="15.9677767"><ele>68.0</ele><time>2026-03-29T07:12:05.579Z</time></trkpt><trkpt lat="38.45162" lon="15.968075"><ele>68.0</ele><time>2026-03-29T07:12:06.579Z</time></trkpt><trkpt lat="38.4518083" lon="15.9683683"><ele>68.0</ele><time>2026-03-29T07:12:07.579Z</time></trkpt><trkpt lat="38.4520017" lon="15.9686533"><ele>68.0</ele><time>2026-03-29T07:12:08.579Z</time></trkpt><trkpt lat="38.4521983" lon="15.9689467"><ele>69.0</ele><time>2026-03-29T07:12:09.579Z</time></trkpt><trkpt lat="38.4524033" lon="15.969235"><ele>70.0</ele><time>2026-03-29T07:12:10.579Z</time></trkpt><trkpt lat="38.4526117" lon="15.9695217"><ele>70.0</ele><time>2026-03-29T07:12:11.579Z</time></trkpt><trkpt lat="38.4528167" lon="15.9698067"><ele>70.0</ele><time>2026-03-29T07:12:12.579Z</time></trkpt><trkpt lat="38.4530217" lon="15.9700817"><ele>69.0</ele><time>2026-03-29T07:12:13.579Z</time></trkpt><trkpt lat="38.45324" lon="15.9703533"><ele>68.0</ele><time>2026-03-29T07:12:14.579Z</time></trkpt><trkpt lat="38.453455" lon="15.9706217"><ele>68.0</ele><time>2026-03-29T07:12:15.579Z</time></trkpt><trkpt lat="38.453675" lon="15.97089"><ele>68.0</ele><time>2026-03-29T07:12:16.579Z</time></trkpt><trkpt lat="38.4539017" lon="15.9711583"><ele>68.0</ele><time>2026-03-29T07:12:17.579Z</time></trkpt><trkpt lat="38.4541267" lon="15.9714133"><ele>68.0</ele><time>2026-03-29T07:12:18.579Z</time></trkpt><trkpt lat="38.45435" lon="15.9716683"><ele>67.5</ele><time>2026-03-29T07:12:19.579Z</time></trkpt><trkpt lat="38.4545733" lon="15.971915"><ele>67.0</ele><time>2026-03-29T07:12:20.579Z</time></trkpt><trkpt lat="38.4547983" lon="15.972165"><ele>69.5</ele><time>2026-03-29T07:12:21.579Z</time></trkpt><trkpt lat="38.4550217" lon="15.972415"><ele>72.0</ele><time>2026-03-29T07:12:22.579Z</time></trkpt><trkpt lat="38.4552517" lon="15.972655"><ele>72.5</ele><time>2026-03-29T07:12:23.58Z</time></trkpt><trkpt lat="38.45547" lon="15.9728983"><ele>73.0</ele><time>2026-03-29T07:12:24.579Z</time></trkpt><trkpt lat="38.4557133" lon="15.9731367"><ele>74.0</ele><time>2026-03-29T07:12:25.579Z</time></trkpt><trkpt lat="38.45594" lon="15.9733867"><ele>75.0</ele><time>2026-03-29T07:12:26.579Z</time></trkpt><trkpt lat="38.4561617" lon="15.9736267"><ele>74.0</ele><time>2026-03-29T07:12:27.579Z</time></trkpt><trkpt lat="38.45639" lon="15.973865"><ele>73.0</ele><time>2026-03-29T07:12:28.579Z</time></trkpt><trkpt lat="38.4566183" lon="15.9741017"><ele>74.0</ele><time>2026-03-29T07:12:29.579Z</time></trkpt><trkpt lat="38.456845" lon="15.9743433"><ele>75.0</ele><time>2026-03-29T07:12:30.579Z</time></trkpt><trkpt lat="38.4570733" lon="15.9745817"><ele>74.5</ele><time>2026-03-29T07:12:31.579Z</time></trkpt><trkpt lat="38.4572983" lon="15.9748183"><ele>74.0</ele><time>2026-03-29T07:12:32.579Z</time></trkpt><trkpt lat="38.457525" lon="15.9750517"><ele>74.5</ele><time>2026-03-29T07:12:33.58Z</time></trkpt><trkpt lat="38.45776" lon="15.9752967"><ele>75.0</ele><time>2026-03-29T07:12:34.579Z</time></trkpt><trkpt lat="38.4580117" lon="15.9755433"><ele>75.0</ele><time>2026-03-29T07:12:35.579Z</time></trkpt><trkpt lat="38.45828" lon="15.975815"><ele>75.0</ele><time>2026-03-29T07:12:36.579Z</time></trkpt><trkpt lat="38.4585667" lon="15.976105"><ele>74.5</ele><time>2026-03-29T07:12:37.579Z</time></trkpt><trkpt lat="38.4588667" lon="15.9764117"><ele>74.0</ele><time>2026-03-29T07:12:38.579Z</time></trkpt><trkpt lat="38.4591683" lon="15.976735"><ele>74.0</ele><time>2026-03-29T07:12:39.579Z</time></trkpt><trkpt lat="38.459485" lon="15.97707"><ele>74.0</ele><time>2026-03-29T07:12:40.579Z</time></trkpt><trkpt lat="38.459815" lon="15.9774117"><ele>72.0</ele><time>2026-03-29T07:12:41.579Z</time></trkpt><trkpt lat="38.46015" lon="15.9777567"><ele>70.0</ele><time>2026-03-29T07:12:42.579Z</time></trkpt><trkpt lat="38.4604867" lon="15.9781083"><ele>68.5</ele><time>2026-03-29T07:12:43.579Z</time></trkpt><trkpt lat="38.4608217" lon="15.97846"><ele>67.0</ele><time>2026-03-29T07:12:44.579Z</time></trkpt><trkpt lat="38.4611617" lon="15.978815"><ele>66.5</ele><time>2026-03-29T07:12:45.579Z</time></trkpt><trkpt lat="38.461505" lon="15.9791767"><ele>66.0</ele><time>2026-03-29T07:12:46.579Z</time></trkpt><trkpt lat="38.4618517" lon="15.9795417"><ele>66.0</ele><time>2026-03-29T07:12:47.579Z</time></trkpt><trkpt lat="38.4621983" lon="15.9799133"><ele>66.0</ele><time>2026-03-29T07:12:48.579Z</time></trkpt><trkpt lat="38.462545" lon="15.9803"><ele>66.0</ele><time>2026-03-29T07:12:49.579Z</time></trkpt><trkpt lat="38.46289" lon="15.9806883"><ele>67.0</ele><time>2026-03-29T07:12:50.579Z</time></trkpt><trkpt lat="38.463225" lon="15.981085"><ele>67.0</ele><time>2026-03-29T07:12:51.579Z</time></trkpt><trkpt lat="38.46356" lon="15.9814967"><ele>63.0</ele><time>2026-03-29T07:12:52.579Z</time></trkpt><trkpt lat="38.463885" lon="15.9819217"><ele>63.0</ele><time>2026-03-29T07:12:53.579Z</time></trkpt><trkpt lat="38.4641967" lon="15.9823667"><ele>64.0</ele><time>2026-03-29T07:12:54.579Z</time></trkpt><trkpt lat="38.4644933" lon="15.98282"><ele>61.0</ele><time>2026-03-29T07:12:55.579Z</time></trkpt><trkpt lat="38.46478" lon="15.9832983"><ele>66.0</ele><time>2026-03-29T07:12:56.58Z</time></trkpt><trkpt lat="38.4650583" lon="15.98378"><ele>64.0</ele><time>2026-03-29T07:12:57.58Z</time></trkpt><trkpt lat="38.46533" lon="15.984265"><ele>59.0</ele><time>2026-03-29T07:12:58.58Z</time></trkpt><trkpt lat="38.4656033" lon="15.98476"><ele>61.0</ele><time>2026-03-29T07:12:59.58Z</time></trkpt><trkpt lat="38.4658667" lon="15.9852567"><ele>61.0</ele><time>2026-03-29T07:13:00.58Z</time></trkpt><trkpt lat="38.46613" lon="15.985745"><ele>57.0</ele><time>2026-03-29T07:13:01.58Z</time></trkpt><trkpt lat="38.4664" lon="15.9862467"><ele>56.0</ele><time>2026-03-29T07:13:02.58Z</time></trkpt><trkpt lat="38.4666667" lon="15.9867517"><ele>56.0</ele><time>2026-03-29T07:13:03.58Z</time></trkpt><trkpt lat="38.4669367" lon="15.9872483"><ele>55.0</ele><time>2026-03-29T07:13:04.58Z</time></trkpt><trkpt lat="38.4672067" lon="15.9877417"><ele>55.0</ele><time>2026-03-29T07:13:05.58Z</time></trkpt><trkpt lat="38.467475" lon="15.9882417"><ele>54.0</ele><time>2026-03-29T07:13:06.58Z</time></trkpt><trkpt lat="38.4677467" lon="15.98875"><ele>61.0</ele><time>2026-03-29T07:13:07.58Z</time></trkpt><trkpt lat="38.4680133" lon="15.9892467"><ele>61.0</ele><time>2026-03-29T07:13:08.58Z</time></trkpt><trkpt lat="38.4682883" lon="15.9897467"><ele>61.0</ele><time>2026-03-29T07:13:09.58Z</time></trkpt><trkpt lat="38.468555" lon="15.990245"><ele>62.0</ele><time>2026-03-29T07:13:10.58Z</time></trkpt><trkpt lat="38.4688183" lon="15.9907483"><ele>58.0</ele><time>2026-03-29T07:13:11.581Z</time></trkpt><trkpt lat="38.469085" lon="15.9912583"><ele>52.0</ele><time>2026-03-29T07:13:12.58Z</time></trkpt><trkpt lat="38.46935" lon="15.9917667"><ele>33.0</ele><time>2026-03-29T07:13:13.58Z</time></trkpt><trkpt lat="38.4696383" lon="15.9922867"><ele>31.0</ele><time>2026-03-29T07:13:14.58Z</time></trkpt><trkpt lat="38.46991" lon="15.99276"><ele>31.0</ele><time>2026-03-29T07:13:15.58Z</time></trkpt><trkpt lat="38.4701867" lon="15.9932433"><ele>32.0</ele><time>2026-03-29T07:13:16.58Z</time></trkpt><trkpt lat="38.4704533" lon="15.9937033"><ele>33.0</ele><time>2026-03-29T07:13:17.58Z</time></trkpt><trkpt lat="38.470715" lon="15.994145"><ele>33.0</ele><time>2026-03-29T07:13:18.58Z</time></trkpt><trkpt lat="38.470975" lon="15.9945583"><ele>33.0</ele><time>2026-03-29T07:13:19.58Z</time></trkpt><trkpt lat="38.471225" lon="15.994935"><ele>33.5</ele><time>2026-03-29T07:13:20.58Z</time></trkpt><trkpt lat="38.47148" lon="15.99528"><ele>34.0</ele><time>2026-03-29T07:13:21.58Z</time></trkpt><trkpt lat="38.471735" lon="15.9956017"><ele>34.5</ele><time>2026-03-29T07:13:22.58Z</time></trkpt><trkpt lat="38.471995" lon="15.995895"><ele>35.0</ele><time>2026-03-29T07:13:23.58Z</time></trkpt><trkpt lat="38.4722517" lon="15.9961633"><ele>35.5</ele><time>2026-03-29T07:13:24.58Z</time></trkpt><trkpt lat="38.4725067" lon="15.996415"><ele>36.0</ele><time>2026-03-29T07:13:25.58Z</time></trkpt><trkpt lat="38.4727683" lon="15.996655"><ele>35.5</ele><time>2026-03-29T07:13:26.58Z</time></trkpt><trkpt lat="38.47304" lon="15.99688"><ele>35.0</ele><time>2026-03-29T07:13:27.58Z</time></trkpt><trkpt lat="38.4733083" lon="15.9970933"><ele>35.0</ele><time>2026-03-29T07:13:28.58Z</time></trkpt><trkpt lat="38.4735683" lon="15.997295"><ele>35.0</ele><time>2026-03-29T07:13:29.58Z</time></trkpt><trkpt lat="38.4738133" lon="15.9974917"><ele>34.5</ele><time>2026-03-29T07:13:30.58Z</time></trkpt><trkpt lat="38.4740483" lon="15.9976717"><ele>34.0</ele><time>2026-03-29T07:13:31.58Z</time></trkpt><trkpt lat="38.4742783" lon="15.9978467"><ele>34.0</ele><time>2026-03-29T07:13:32.58Z</time></trkpt><trkpt lat="38.47449" lon="15.9980083"><ele>34.0</ele><time>2026-03-29T07:13:33.58Z</time></trkpt><trkpt lat="38.4746917" lon="15.99816"><ele>34.333333333333336</ele><time>2026-03-29T07:13:34.58Z</time></trkpt><trkpt lat="38.4748783" lon="15.9982933"><ele>34.666666666666664</ele><time>2026-03-29T07:13:35.58Z</time></trkpt><trkpt lat="38.475055" lon="15.9984333"><ele>35.0</ele><time>2026-03-29T07:13:36.58Z</time></trkpt><trkpt lat="38.4752233" lon="15.9985667"><ele>35.0</ele><time>2026-03-29T07:13:37.58Z</time></trkpt><trkpt lat="38.4753883" lon="15.9986983"><ele>35.0</ele><time>2026-03-29T07:13:38.58Z</time></trkpt><trkpt lat="38.4755417" lon="15.9988183"><ele>35.0</ele><time>2026-03-29T07:13:39.58Z</time></trkpt><trkpt lat="38.475695" lon="15.9989317"><ele>34.666666666666664</ele><time>2026-03-29T07:13:40.58Z</time></trkpt><trkpt lat="38.475835" lon="15.9990317"><ele>34.333333333333336</ele><time>2026-03-29T07:13:41.58Z</time></trkpt><trkpt lat="38.4759617" lon="15.99913"><ele>34.0</ele><time>2026-03-29T07:13:42.58Z</time></trkpt><trkpt lat="38.4760867" lon="15.9992167"><ele>34.0</ele><time>2026-03-29T07:13:43.58Z</time></trkpt><trkpt lat="38.4762" lon="15.9992983"><ele>34.0</ele><time>2026-03-29T07:13:44.58Z</time></trkpt><trkpt lat="38.4763133" lon="15.9993683"><ele>34.0</ele><time>2026-03-29T07:13:45.58Z</time></trkpt><trkpt lat="38.4764167" lon="15.99944"><ele>34.0</ele><time>2026-03-29T07:13:46.58Z</time></trkpt><trkpt lat="38.4765183" lon="15.999505"><ele>34.5</ele><time>2026-03-29T07:13:47.58Z</time></trkpt><trkpt lat="38.4766167" lon="15.99957"><ele>35.0</ele><time>2026-03-29T07:13:48.58Z</time></trkpt><trkpt lat="38.476715" lon="15.999635"><ele>35.5</ele><time>2026-03-29T07:13:49.58Z</time></trkpt><trkpt lat="38.4768167" lon="15.9997083"><ele>36.0</ele><time>2026-03-29T07:13:50.58Z</time></trkpt><trkpt lat="38.476915" lon="15.999775"><ele>36.0</ele><time>2026-03-29T07:13:51.58Z</time></trkpt><trkpt lat="38.4770183" lon="15.9998417"><ele>36.0</ele><time>2026-03-29T07:13:52.58Z</time></trkpt><trkpt lat="38.4771217" lon="15.99991"><ele>36.0</ele><time>2026-03-29T07:13:53.58Z</time></trkpt><trkpt lat="38.4772233" lon="15.9999767"><ele>36.0</ele><time>2026-03-29T07:13:54.58Z</time></trkpt><trkpt lat="38.4773267" lon="16.0000467"><ele>35.5</ele><time>2026-03-29T07:13:55.58Z</time></trkpt><trkpt lat="38.4774333" lon="16.0001217"><ele>35.0</ele><time>2026-03-29T07:13:56.58Z</time></trkpt><trkpt lat="38.477545" lon="16.0002033"><ele>34.5</ele><time>2026-03-29T07:13:57.58Z</time></trkpt><trkpt lat="38.477645" lon="16.00029"><ele>34.0</ele><time>2026-03-29T07:13:58.58Z</time></trkpt><trkpt lat="38.4777367" lon="16.0003817"><ele>34.0</ele><time>2026-03-29T07:13:59.58Z</time></trkpt><trkpt lat="38.477825" lon="16.0004833"><ele>34.0</ele><time>2026-03-29T07:14:00.58Z</time></trkpt><trkpt lat="38.4779017" lon="16.00059"><ele>34.0</ele><time>2026-03-29T07:14:01.58Z</time></trkpt><trkpt lat="38.4779633" lon="16.0007033"><ele>34.0</ele><time>2026-03-29T07:14:02.58Z</time></trkpt><trkpt lat="38.478015" lon="16.000835"><ele>34.4</ele><time>2026-03-29T07:14:03.58Z</time></trkpt><trkpt lat="38.478055" lon="16.00096"><ele>34.8</ele><time>2026-03-29T07:14:04.58Z</time></trkpt><trkpt lat="38.4780817" lon="16.0010983"><ele>35.2</ele><time>2026-03-29T07:14:05.58Z</time></trkpt><trkpt lat="38.4780983" lon="16.0012317"><ele>35.6</ele><time>2026-03-29T07:14:06.58Z</time></trkpt><trkpt lat="38.478105" lon="16.0013733"><ele>36.0</ele><time>2026-03-29T07:14:07.58Z</time></trkpt><trkpt lat="38.4781117" lon="16.0015133"><ele>36.0</ele><time>2026-03-29T07:14:08.58Z</time></trkpt><trkpt lat="38.478135" lon="16.00165"><ele>36.0</ele><time>2026-03-29T07:14:09.58Z</time></trkpt><trkpt lat="38.4781717" lon="16.001785"><ele>36.0</ele><time>2026-03-29T07:14:10.58Z</time></trkpt><trkpt lat="38.4782167" lon="16.0019083"><ele>36.0</ele><time>2026-03-29T07:14:11.58Z</time></trkpt><trkpt lat="38.4782817" lon="16.002025"><ele>36.0</ele><time>2026-03-29T07:14:12.58Z</time></trkpt><trkpt lat="38.478355" lon="16.00213"><ele>35.75</ele><time>2026-03-29T07:14:13.58Z</time></trkpt><trkpt lat="38.4784417" lon="16.0022183"><ele>35.5</ele><time>2026-03-29T07:14:14.58Z</time></trkpt><trkpt lat="38.4785417" lon="16.002295"><ele>35.25</ele><time>2026-03-29T07:14:15.58Z</time></trkpt><trkpt lat="38.4786567" lon="16.0023467"><ele>35.0</ele><time>2026-03-29T07:14:16.58Z</time></trkpt><trkpt lat="38.4787783" lon="16.0023567"><ele>34.5</ele><time>2026-03-29T07:14:17.58Z</time></trkpt><trkpt lat="38.4789017" lon="16.0023367"><ele>34.0</ele><time>2026-03-29T07:14:18.58Z</time></trkpt><trkpt lat="38.47902" lon="16.0022883"><ele>33.5</ele><time>2026-03-29T07:14:19.58Z</time></trkpt><trkpt lat="38.47913" lon="16.0022167"><ele>33.0</ele><time>2026-03-29T07:14:20.58Z</time></trkpt><trkpt lat="38.4792217" lon="16.0021083"><ele>33.0</ele><time>2026-03-29T07:14:21.58Z</time></trkpt><trkpt lat="38.4793033" lon="16.0019783"><ele>33.0</ele><time>2026-03-29T07:14:22.58Z</time></trkpt><trkpt lat="38.4793733" lon="16.0018267"><ele>33.0</ele><time>2026-03-29T07:14:23.58Z</time></trkpt><trkpt lat="38.4794233" lon="16.0016517"><ele>33.0</ele><time>2026-03-29T07:14:24.58Z</time></trkpt><trkpt lat="38.47947" lon="16.0014617"><ele>34.0</ele><time>2026-03-29T07:14:25.58Z</time></trkpt><trkpt lat="38.4795167" lon="16.001265"><ele>35.0</ele><time>2026-03-29T07:14:26.58Z</time></trkpt><trkpt lat="38.4795583" lon="16.0010633"><ele>36.0</ele><time>2026-03-29T07:14:27.58Z</time></trkpt><trkpt lat="38.4796033" lon="16.0008567"><ele>36.0</ele><time>2026-03-29T07:14:28.58Z</time></trkpt><trkpt lat="38.47964" lon="16.0006467"><ele>36.0</ele><time>2026-03-29T07:14:29.58Z</time></trkpt><trkpt lat="38.479695" lon="16.0004517"><ele>36.0</ele><time>2026-03-29T07:14:30.58Z</time></trkpt><trkpt lat="38.47973" lon="16.0002633"><ele>36.0</ele><time>2026-03-29T07:14:31.58Z</time></trkpt><trkpt lat="38.479755" lon="16.0000833"><ele>36.0</ele><time>2026-03-29T07:14:32.58Z</time></trkpt><trkpt lat="38.47976" lon="15.9999083"><ele>36.0</ele><time>2026-03-29T07:14:33.58Z</time></trkpt><trkpt lat="38.4797467" lon="15.99973"><ele>36.0</ele><time>2026-03-29T07:14:34.58Z</time></trkpt><trkpt lat="38.479705" lon="15.9995583"><ele>36.0</ele><time>2026-03-29T07:14:35.58Z</time></trkpt><trkpt lat="38.479645" lon="15.999395"><ele>36.0</ele><time>2026-03-29T07:14:36.58Z</time></trkpt><trkpt lat="38.4795583" lon="15.999235"><ele>36.0</ele><time>2026-03-29T07:14:37.58Z</time></trkpt><trkpt lat="38.4794583" lon="15.9990883"><ele>36.0</ele><time>2026-03-29T07:14:38.58Z</time></trkpt><trkpt lat="38.4793533" lon="15.9989533"><ele>35.666666666666664</ele><time>2026-03-29T07:14:39.581Z</time></trkpt><trkpt lat="38.47924" lon="15.99882"><ele>35.33333333333333</ele><time>2026-03-29T07:14:40.58Z</time></trkpt><trkpt lat="38.47912" lon="15.9986933"><ele>35.0</ele><time>2026-03-29T07:14:41.58Z</time></trkpt><trkpt lat="38.4789967" lon="15.9985683"><ele>35.0</ele><time>2026-03-29T07:14:42.58Z</time></trkpt><trkpt lat="38.4788783" lon="15.9984483"><ele>35.0</ele><time>2026-03-29T07:14:43.58Z</time></trkpt><trkpt lat="38.4787583" lon="15.998335"><ele>35.0</ele><time>2026-03-29T07:14:44.58Z</time></trkpt><trkpt lat="38.4786433" lon="15.9982233"><ele>35.0</ele><time>2026-03-29T07:14:45.58Z</time></trkpt><trkpt lat="38.4785333" lon="15.9981167"><ele>34.25</ele><time>2026-03-29T07:14:46.58Z</time></trkpt><trkpt lat="38.4784367" lon="15.99801"><ele>33.5</ele><time>2026-03-29T07:14:47.58Z</time></trkpt><trkpt lat="38.4783417" lon="15.9979167"><ele>32.75</ele><time>2026-03-29T07:14:48.58Z</time></trkpt><trkpt lat="38.4782483" lon="15.997825"><ele>32.0</ele><time>2026-03-29T07:14:49.58Z</time></trkpt><trkpt lat="38.478165" lon="15.9977433"><ele>31.999999999999996</ele><time>2026-03-29T07:14:50.58Z</time></trkpt><trkpt lat="38.4780867" lon="15.99766"><ele>32.0</ele><time>2026-03-29T07:14:51.58Z</time></trkpt><trkpt lat="38.47802" lon="15.9975817"><ele>32.0</ele><time>2026-03-29T07:14:52.58Z</time></trkpt><trkpt lat="38.477965" lon="15.9975017"><ele>32.0</ele><time>2026-03-29T07:14:53.58Z</time></trkpt><trkpt lat="38.4779283" lon="15.9974117"><ele>31.999999999999996</ele><time>2026-03-29T07:14:54.58Z</time></trkpt><trkpt lat="38.477915" lon="15.997315"><ele>32.0</ele><time>2026-03-29T07:14:55.581Z</time></trkpt><trkpt lat="38.47792" lon="15.9972117"><ele>32.33333333333333</ele><time>2026-03-29T07:14:56.58Z</time></trkpt><trkpt lat="38.477955" lon="15.99711"><ele>32.666666666666664</ele><time>2026-03-29T07:14:57.58Z</time></trkpt><trkpt lat="38.47801" lon="15.99702"><ele>33.0</ele><time>2026-03-29T07:14:58.58Z</time></trkpt><trkpt lat="38.4780767" lon="15.9969417"><ele>33.333333333333336</ele><time>2026-03-29T07:14:59.58Z</time></trkpt><trkpt lat="38.4781517" lon="15.9968733"><ele>33.66666666666667</ele><time>2026-03-29T07:15:00.58Z</time></trkpt><trkpt lat="38.4782167" lon="15.9968183"><ele>34.0</ele><time>2026-03-29T07:15:01.58Z</time></trkpt><trkpt lat="38.4782717" lon="15.996775"><ele>34.0</ele><time>2026-03-29T07:15:02.58Z</time></trkpt><trkpt lat="38.4783483" lon="15.9967067"><ele>34.0</ele><time>2026-03-29T07:15:04.58Z</time></trkpt><trkpt lat="38.4784067" lon="15.9966433"><ele>34.0</ele><time>2026-03-29T07:15:06.58Z</time></trkpt><trkpt lat="38.4784317" lon="15.99656"><ele>34.0</ele><time>2026-03-29T07:15:08.581Z</time></trkpt><trkpt lat="38.4784067" lon="15.9964333"><ele>34.0</ele><time>2026-03-29T07:15:10.58Z</time></trkpt><trkpt lat="38.4783817" lon="15.9963583"><ele>34.0</ele><time>2026-03-29T07:15:11.58Z</time></trkpt><trkpt lat="38.4783483" lon="15.9962767"><ele>34.14285714285714</ele><time>2026-03-29T07:15:12.58Z</time></trkpt><trkpt lat="38.4783167" lon="15.99619"><ele>34.285714285714285</ele><time>2026-03-29T07:15:13.58Z</time></trkpt><trkpt lat="38.4782867" lon="15.9961017"><ele>34.42857142857143</ele><time>2026-03-29T07:15:14.58Z</time></trkpt><trkpt lat="38.4782617" lon="15.9960133"><ele>34.57142857142857</ele><time>2026-03-29T07:15:15.58Z</time></trkpt><trkpt lat="38.4782417" lon="15.9959133"><ele>34.714285714285715</ele><time>2026-03-29T07:15:16.58Z</time></trkpt><trkpt lat="38.4782233" lon="15.9958183"><ele>34.857142857142854</ele><time>2026-03-29T07:15:17.58Z</time></trkpt><trkpt lat="38.4782033" lon="15.9957367"><ele>35.0</ele><time>2026-03-29T07:15:18.58Z</time></trkpt><trkpt lat="38.4781767" lon="15.9956417"><ele>35.0</ele><time>2026-03-29T07:15:19.58Z</time></trkpt><trkpt lat="38.4781517" lon="15.9955417"><ele>35.0</ele><time>2026-03-29T07:15:20.58Z</time></trkpt><trkpt lat="38.4781217" lon="15.9954417"><ele>35.0</ele><time>2026-03-29T07:15:21.58Z</time></trkpt><trkpt lat="38.47808" lon="15.9953367"><ele>35.0</ele><time>2026-03-29T07:15:22.58Z</time></trkpt><trkpt lat="38.47804" lon="15.9952333"><ele>35.0</ele><time>2026-03-29T07:15:23.58Z</time></trkpt><trkpt lat="38.477995" lon="15.9951517"><ele>35.0</ele><time>2026-03-29T07:15:24.58Z</time></trkpt><trkpt lat="38.4779467" lon="15.9950817"><ele>34.2</ele><time>2026-03-29T07:15:25.58Z</time></trkpt><trkpt lat="38.4778983" lon="15.99503"><ele>33.4</ele><time>2026-03-29T07:15:26.58Z</time></trkpt><trkpt lat="38.47779" lon="15.99501"><ele>32.6</ele><time>2026-03-29T07:15:28.58Z</time></trkpt><trkpt lat="38.47767" lon="15.9950567"><ele>31.8</ele><time>2026-03-29T07:15:30.58Z</time></trkpt><trkpt lat="38.4776033" lon="15.995105"><ele>31.0</ele><time>2026-03-29T07:15:31.58Z</time></trkpt><trkpt lat="38.4775383" lon="15.9951717"><ele>31.0</ele><time>2026-03-29T07:15:32.58Z</time></trkpt><trkpt lat="38.4774633" lon="15.9952567"><ele>31.0</ele><time>2026-03-29T07:15:33.58Z</time></trkpt><trkpt lat="38.4773517" lon="15.995355"><ele>31.0</ele><time>2026-03-29T07:15:34.58Z</time></trkpt><trkpt lat="38.47722" lon="15.9954617"><ele>31.0</ele><time>2026-03-29T07:15:35.58Z</time></trkpt><trkpt lat="38.477085" lon="15.9955683"><ele>31.25</ele><time>2026-03-29T07:15:36.58Z</time></trkpt><trkpt lat="38.4769517" lon="15.9956717"><ele>31.5</ele><time>2026-03-29T07:15:37.58Z</time></trkpt><trkpt lat="38.476825" lon="15.99577"><ele>31.75</ele><time>2026-03-29T07:15:38.58Z</time></trkpt><trkpt lat="38.4767083" lon="15.995865"><ele>32.0</ele><time>2026-03-29T07:15:39.58Z</time></trkpt><trkpt lat="38.4765883" lon="15.9959667"><ele>32.0</ele><time>2026-03-29T07:15:40.58Z</time></trkpt><trkpt lat="38.4764717" lon="15.9960667"><ele>32.0</ele><time>2026-03-29T07:15:41.58Z</time></trkpt><trkpt lat="38.47635" lon="15.996185"><ele>32.0</ele><time>2026-03-29T07:15:42.58Z</time></trkpt><trkpt lat="38.4762333" lon="15.9963017"><ele>32.0</ele><time>2026-03-29T07:15:43.58Z</time></trkpt><trkpt lat="38.4761267" lon="15.9964233"><ele>33.0</ele><time>2026-03-29T07:15:44.58Z</time></trkpt><trkpt lat="38.4760267" lon="15.9965517"><ele>34.0</ele><time>2026-03-29T07:15:45.58Z</time></trkpt><trkpt lat="38.4759317" lon="15.99668"><ele>35.0</ele><time>2026-03-29T07:15:46.58Z</time></trkpt><trkpt lat="38.4758383" lon="15.9968167"><ele>36.0</ele><time>2026-03-29T07:15:47.58Z</time></trkpt><trkpt lat="38.4757433" lon="15.9969583"><ele>36.0</ele><time>2026-03-29T07:15:48.58Z</time></trkpt><trkpt lat="38.475645" lon="15.9971083"><ele>36.0</ele><time>2026-03-29T07:15:49.58Z</time></trkpt><trkpt lat="38.4755433" lon="15.9972633"><ele>36.0</ele><time>2026-03-29T07:15:50.58Z</time></trkpt><trkpt lat="38.47544" lon="15.9974283"><ele>36.0</ele><time>2026-03-29T07:15:51.58Z</time></trkpt><trkpt lat="38.47533" lon="15.9975833"><ele>36.0</ele><time>2026-03-29T07:15:52.58Z</time></trkpt><trkpt lat="38.4752217" lon="15.99775"><ele>36.0</ele><time>2026-03-29T07:15:53.58Z</time></trkpt><trkpt lat="38.475105" lon="15.9979233"><ele>36.0</ele><time>2026-03-29T07:15:54.58Z</time></trkpt><trkpt lat="38.4749917" lon="15.9980883"><ele>36.0</ele><time>2026-03-29T07:15:55.58Z</time></trkpt><trkpt lat="38.4748733" lon="15.9982633"><ele>36.0</ele><time>2026-03-29T07:15:56.58Z</time></trkpt><trkpt lat="38.474755" lon="15.9984417"><ele>36.0</ele><time>2026-03-29T07:15:57.58Z</time></trkpt><trkpt lat="38.4746367" lon="15.99861"><ele>36.0</ele><time>2026-03-29T07:15:58.58Z</time></trkpt><trkpt lat="38.4745167" lon="15.9987817"><ele>36.0</ele><time>2026-03-29T07:15:59.58Z</time></trkpt><trkpt lat="38.474395" lon="15.9989583"><ele>36.0</ele><time>2026-03-29T07:16:00.58Z</time></trkpt><trkpt lat="38.474265" lon="15.9991433"><ele>36.0</ele><time>2026-03-29T07:16:01.58Z</time></trkpt><trkpt lat="38.4741333" lon="15.9993283"><ele>36.0</ele><time>2026-03-29T07:16:02.58Z</time></trkpt><trkpt lat="38.474005" lon="15.9995183"><ele>35.666666666666664</ele><time>2026-03-29T07:16:03.58Z</time></trkpt><trkpt lat="38.47387" lon="15.9997133"><ele>35.33333333333333</ele><time>2026-03-29T07:16:04.58Z</time></trkpt><trkpt lat="38.47374" lon="15.9999067"><ele>35.0</ele><time>2026-03-29T07:16:05.58Z</time></trkpt><trkpt lat="38.4736117" lon="16.0000967"><ele>36.0</ele><time>2026-03-29T07:16:06.581Z</time></trkpt><trkpt lat="38.4734783" lon="16.0002867"><ele>37.0</ele><time>2026-03-29T07:16:07.58Z</time></trkpt><trkpt lat="38.4733467" lon="16.0004717"><ele>38.0</ele><time>2026-03-29T07:16:08.58Z</time></trkpt><trkpt lat="38.4732183" lon="16.0006583"><ele>38.0</ele><time>2026-03-29T07:16:09.58Z</time></trkpt><trkpt lat="38.4730933" lon="16.0008433"><ele>38.0</ele><time>2026-03-29T07:16:10.58Z</time></trkpt><trkpt lat="38.4729717" lon="16.0010233"><ele>38.0</ele><time>2026-03-29T07:16:11.58Z</time></trkpt><trkpt lat="38.4728483" lon="16.0012067"><ele>39.0</ele><time>2026-03-29T07:16:12.58Z</time></trkpt><trkpt lat="38.4727267" lon="16.0013883"><ele>40.0</ele><time>2026-03-29T07:16:13.58Z</time></trkpt><trkpt lat="38.4726133" lon="16.0015683"><ele>41.0</ele><time>2026-03-29T07:16:14.58Z</time></trkpt><trkpt lat="38.4724833" lon="16.0017533"><ele>41.0</ele><time>2026-03-29T07:16:15.58Z</time></trkpt><trkpt lat="38.4723567" lon="16.0019333"><ele>41.0</ele><time>2026-03-29T07:16:16.58Z</time></trkpt><trkpt lat="38.47224" lon="16.0021067"><ele>41.0</ele><time>2026-03-29T07:16:17.58Z</time></trkpt><trkpt lat="38.4721083" lon="16.002295"><ele>40.666666666666664</ele><time>2026-03-29T07:16:18.58Z</time></trkpt><trkpt lat="38.4719833" lon="16.0024783"><ele>40.333333333333336</ele><time>2026-03-29T07:16:19.581Z</time></trkpt><trkpt lat="38.4718633" lon="16.002665"><ele>40.0</ele><time>2026-03-29T07:16:20.58Z</time></trkpt><trkpt lat="38.4717333" lon="16.00285"><ele>40.0</ele><time>2026-03-29T07:16:21.58Z</time></trkpt><trkpt lat="38.471595" lon="16.0030333"><ele>40.0</ele><time>2026-03-29T07:16:22.58Z</time></trkpt><trkpt lat="38.471455" lon="16.0032067"><ele>40.0</ele><time>2026-03-29T07:16:23.58Z</time></trkpt><trkpt lat="38.4713217" lon="16.0033833"><ele>40.0</ele><time>2026-03-29T07:16:24.58Z</time></trkpt><trkpt lat="38.471195" lon="16.00355"><ele>40.0</ele><time>2026-03-29T07:16:25.58Z</time></trkpt><trkpt lat="38.4710683" lon="16.0037217"><ele>40.0</ele><time>2026-03-29T07:16:26.58Z</time></trkpt><trkpt lat="38.4709417" lon="16.00388"><ele>40.0</ele><time>2026-03-29T07:16:27.58Z</time></trkpt><trkpt lat="38.4708267" lon="16.004035"><ele>40.0</ele><time>2026-03-29T07:16:28.58Z</time></trkpt><trkpt lat="38.4707167" lon="16.0041833"><ele>40.0</ele><time>2026-03-29T07:16:29.58Z</time></trkpt><trkpt lat="38.470605" lon="16.0043317"><ele>40.333333333333336</ele><time>2026-03-29T07:16:30.58Z</time></trkpt><trkpt lat="38.470495" lon="16.00448"><ele>40.666666666666664</ele><time>2026-03-29T07:16:31.58Z</time></trkpt><trkpt lat="38.470385" lon="16.0046317"><ele>41.0</ele><time>2026-03-29T07:16:32.58Z</time></trkpt><trkpt lat="38.4702733" lon="16.0047867"><ele>41.33333333333333</ele><time>2026-03-29T07:16:33.58Z</time></trkpt><trkpt lat="38.47016" lon="16.0049383"><ele>41.666666666666664</ele><time>2026-03-29T07:16:34.58Z</time></trkpt><trkpt lat="38.4700417" lon="16.005095"><ele>42.0</ele><time>2026-03-29T07:16:35.58Z</time></trkpt><trkpt lat="38.46993" lon="16.0052483"><ele>42.0</ele><time>2026-03-29T07:16:36.58Z</time></trkpt><trkpt lat="38.4698133" lon="16.0054117"><ele>42.0</ele><time>2026-03-29T07:16:37.58Z</time></trkpt><trkpt lat="38.4696983" lon="16.0055783"><ele>42.0</ele><time>2026-03-29T07:16:38.58Z</time></trkpt><trkpt lat="38.4695783" lon="16.0057433"><ele>42.333333333333336</ele><time>2026-03-29T07:16:39.58Z</time></trkpt><trkpt lat="38.4694533" lon="16.0058983"><ele>42.66666666666667</ele><time>2026-03-29T07:16:40.58Z</time></trkpt><trkpt lat="38.46934" lon="16.006065"><ele>43.0</ele><time>2026-03-29T07:16:41.58Z</time></trkpt><trkpt lat="38.4692217" lon="16.0062217"><ele>43.0</ele><time>2026-03-29T07:16:42.58Z</time></trkpt><trkpt lat="38.4690933" lon="16.0063833"><ele>43.0</ele><time>2026-03-29T07:16:43.58Z</time></trkpt><trkpt lat="38.4689733" lon="16.0065467"><ele>43.0</ele><time>2026-03-29T07:16:44.58Z</time></trkpt><trkpt lat="38.4688533" lon="16.0067083"><ele>44.333333333333336</ele><time>2026-03-29T07:16:45.58Z</time></trkpt><trkpt lat="38.4687383" lon="16.0068767"><ele>45.666666666666664</ele><time>2026-03-29T07:16:46.58Z</time></trkpt><trkpt lat="38.46862" lon="16.007035"><ele>47.0</ele><time>2026-03-29T07:16:47.58Z</time></trkpt><trkpt lat="38.468495" lon="16.0072033"><ele>47.0</ele><time>2026-03-29T07:16:48.58Z</time></trkpt><trkpt lat="38.4683717" lon="16.007375"><ele>47.0</ele><time>2026-03-29T07:16:49.58Z</time></trkpt><trkpt lat="38.46825" lon="16.0075417"><ele>47.0</ele><time>2026-03-29T07:16:50.58Z</time></trkpt><trkpt lat="38.4681283" lon="16.007705"><ele>46.666666666666664</ele><time>2026-03-29T07:16:51.58Z</time></trkpt><trkpt lat="38.46801" lon="16.0078767"><ele>46.333333333333336</ele><time>2026-03-29T07:16:52.58Z</time></trkpt><trkpt lat="38.4678833" lon="16.0080467"><ele>46.0</ele><time>2026-03-29T07:16:53.58Z</time></trkpt><trkpt lat="38.4677533" lon="16.008215"><ele>45.66666666666667</ele><time>2026-03-29T07:16:54.58Z</time></trkpt><trkpt lat="38.4676283" lon="16.0083833"><ele>45.333333333333336</ele><time>2026-03-29T07:16:55.58Z</time></trkpt><trkpt lat="38.4675" lon="16.0085533"><ele>45.0</ele><time>2026-03-29T07:16:56.58Z</time></trkpt><trkpt lat="38.467375" lon="16.0087183"><ele>45.0</ele><time>2026-03-29T07:16:57.58Z</time></trkpt><trkpt lat="38.4672567" lon="16.0088833"><ele>45.0</ele><time>2026-03-29T07:16:58.58Z</time></trkpt><trkpt lat="38.4671333" lon="16.0090483"><ele>45.0</ele><time>2026-03-29T07:16:59.58Z</time></trkpt><trkpt lat="38.4670183" lon="16.0092033"><ele>46.0</ele><time>2026-03-29T07:17:00.58Z</time></trkpt><trkpt lat="38.4669167" lon="16.0093383"><ele>47.0</ele><time>2026-03-29T07:17:01.58Z</time></trkpt><trkpt lat="38.46682" lon="16.0094683"><ele>48.0</ele><time>2026-03-29T07:17:02.58Z</time></trkpt><trkpt lat="38.466735" lon="16.009585"><ele>49.0</ele><time>2026-03-29T07:17:03.58Z</time></trkpt><trkpt lat="38.4666533" lon="16.0096767"><ele>49.0</ele><time>2026-03-29T07:17:04.58Z</time></trkpt><trkpt lat="38.46657" lon="16.0097333"><ele>49.0</ele><time>2026-03-29T07:17:05.58Z</time></trkpt><trkpt lat="38.46648" lon="16.00977"><ele>49.0</ele><time>2026-03-29T07:17:06.58Z</time></trkpt><trkpt lat="38.4663783" lon="16.009805"><ele>49.0</ele><time>2026-03-29T07:17:07.58Z</time></trkpt><trkpt lat="38.4662733" lon="16.009845"><ele>49.0</ele><time>2026-03-29T07:17:08.58Z</time></trkpt><trkpt lat="38.4661817" lon="16.0099133"><ele>49.400000000000006</ele><time>2026-03-29T07:17:09.58Z</time></trkpt><trkpt lat="38.4661167" lon="16.01001"><ele>49.8</ele><time>2026-03-29T07:17:10.58Z</time></trkpt><trkpt lat="38.466075" lon="16.0101217"><ele>50.2</ele><time>2026-03-29T07:17:11.58Z</time></trkpt><trkpt lat="38.4660517" lon="16.0102583"><ele>50.599999999999994</ele><time>2026-03-29T07:17:12.58Z</time></trkpt><trkpt lat="38.4660383" lon="16.0103983"><ele>51.0</ele><time>2026-03-29T07:17:13.58Z</time></trkpt><trkpt lat="38.4659933" lon="16.0105317"><ele>51.0</ele><time>2026-03-29T07:17:14.58Z</time></trkpt><trkpt lat="38.4659333" lon="16.0106583"><ele>51.0</ele><time>2026-03-29T07:17:15.58Z</time></trkpt><trkpt lat="38.465845" lon="16.0107817"><ele>51.0</ele><time>2026-03-29T07:17:16.58Z</time></trkpt><trkpt lat="38.4657467" lon="16.0109183"><ele>51.0</ele><time>2026-03-29T07:17:17.58Z</time></trkpt><trkpt lat="38.4656433" lon="16.0110633"><ele>50.66666666666667</ele><time>2026-03-29T07:17:18.58Z</time></trkpt><trkpt lat="38.46553" lon="16.0112083"><ele>50.333333333333336</ele><time>2026-03-29T07:17:19.58Z</time></trkpt><trkpt lat="38.4654183" lon="16.01136"><ele>50.0</ele><time>2026-03-29T07:17:20.58Z</time></trkpt><trkpt lat="38.4653033" lon="16.0115167"><ele>50.0</ele><time>2026-03-29T07:17:21.581Z</time></trkpt><trkpt lat="38.4651817" lon="16.0116717"><ele>50.0</ele><time>2026-03-29T07:17:22.58Z</time></trkpt><trkpt lat="38.4650567" lon="16.011825"><ele>50.0</ele><time>2026-03-29T07:17:23.581Z</time></trkpt><trkpt lat="38.4649367" lon="16.0119833"><ele>50.0</ele><time>2026-03-29T07:17:24.58Z</time></trkpt><trkpt lat="38.4648183" lon="16.0121467"><ele>50.0</ele><time>2026-03-29T07:17:25.58Z</time></trkpt><trkpt lat="38.4646983" lon="16.0123133"><ele>50.0</ele><time>2026-03-29T07:17:26.581Z</time></trkpt><trkpt lat="38.4645783" lon="16.0124733"><ele>52.66666666666667</ele><time>2026-03-29T07:17:27.58Z</time></trkpt><trkpt lat="38.4644567" lon="16.0126367"><ele>55.33333333333333</ele><time>2026-03-29T07:17:28.58Z</time></trkpt><trkpt lat="38.464335" lon="16.0128033"><ele>58.0</ele><time>2026-03-29T07:17:29.58Z</time></trkpt><trkpt lat="38.46421" lon="16.0129683"><ele>58.0</ele><time>2026-03-29T07:17:30.58Z</time></trkpt><trkpt lat="38.4640917" lon="16.0131317"><ele>58.0</ele><time>2026-03-29T07:17:31.58Z</time></trkpt><trkpt lat="38.4639667" lon="16.0133"><ele>58.0</ele><time>2026-03-29T07:17:32.58Z</time></trkpt><trkpt lat="38.463835" lon="16.013465"><ele>63.0</ele><time>2026-03-29T07:17:33.58Z</time></trkpt><trkpt lat="38.4637067" lon="16.0136233"><ele>68.0</ele><time>2026-03-29T07:17:34.58Z</time></trkpt><trkpt lat="38.4635683" lon="16.01379"><ele>73.0</ele><time>2026-03-29T07:17:35.58Z</time></trkpt><trkpt lat="38.46343" lon="16.0139483"><ele>73.0</ele><time>2026-03-29T07:17:36.58Z</time></trkpt><trkpt lat="38.4633" lon="16.014115"><ele>73.0</ele><time>2026-03-29T07:17:37.58Z</time></trkpt><trkpt lat="38.4631617" lon="16.01428"><ele>73.0</ele><time>2026-03-29T07:17:38.58Z</time></trkpt><trkpt lat="38.4630283" lon="16.014445"><ele>75.66666666666666</ele><time>2026-03-29T07:17:39.58Z</time></trkpt><trkpt lat="38.462895" lon="16.0146117"><ele>78.33333333333333</ele><time>2026-03-29T07:17:40.58Z</time></trkpt><trkpt lat="38.4627583" lon="16.0147783"><ele>81.0</ele><time>2026-03-29T07:17:41.58Z</time></trkpt><trkpt lat="38.4626233" lon="16.014945"><ele>80.66666666666667</ele><time>2026-03-29T07:17:42.58Z</time></trkpt><trkpt lat="38.4624883" lon="16.0151083"><ele>80.33333333333334</ele><time>2026-03-29T07:17:43.58Z</time></trkpt><trkpt lat="38.4623467" lon="16.0152817"><ele>80.0</ele><time>2026-03-29T07:17:44.58Z</time></trkpt><trkpt lat="38.4622067" lon="16.0154583"><ele>79.0</ele><time>2026-03-29T07:17:45.58Z</time></trkpt><trkpt lat="38.4620667" lon="16.0156267"><ele>78.0</ele><time>2026-03-29T07:17:46.58Z</time></trkpt><trkpt lat="38.4619217" lon="16.0157917"><ele>77.0</ele><time>2026-03-29T07:17:47.58Z</time></trkpt><trkpt lat="38.4617833" lon="16.0159667"><ele>75.33333333333334</ele><time>2026-03-29T07:17:48.58Z</time></trkpt><trkpt lat="38.4616417" lon="16.01615"><ele>73.66666666666667</ele><time>2026-03-29T07:17:49.58Z</time></trkpt><trkpt lat="38.4615017" lon="16.01633"><ele>72.0</ele><time>2026-03-29T07:17:50.58Z</time></trkpt><trkpt lat="38.4613617" lon="16.0165017"><ele>68.33333333333333</ele><time>2026-03-29T07:17:51.58Z</time></trkpt><trkpt lat="38.4612167" lon="16.016685"><ele>64.66666666666666</ele><time>2026-03-29T07:17:52.58Z</time></trkpt><trkpt lat="38.461085" lon="16.0168733"><ele>61.0</ele><time>2026-03-29T07:17:53.58Z</time></trkpt><trkpt lat="38.4609467" lon="16.0170667"><ele>61.0</ele><time>2026-03-29T07:17:54.58Z</time></trkpt><trkpt lat="38.4608067" lon="16.01726"><ele>61.0</ele><time>2026-03-29T07:17:55.58Z</time></trkpt><trkpt lat="38.4606683" lon="16.0174333"><ele>61.0</ele><time>2026-03-29T07:17:56.58Z</time></trkpt><trkpt lat="38.46053" lon="16.01763"><ele>61.0</ele><time>2026-03-29T07:17:57.58Z</time></trkpt><trkpt lat="38.46039" lon="16.0178283"><ele>61.0</ele><time>2026-03-29T07:17:58.58Z</time></trkpt><trkpt lat="38.4602467" lon="16.018025"><ele>61.0</ele><time>2026-03-29T07:17:59.581Z</time></trkpt><trkpt lat="38.46011" lon="16.01822"><ele>61.0</ele><time>2026-03-29T07:18:00.58Z</time></trkpt><trkpt lat="38.4599683" lon="16.0184083"><ele>61.0</ele><time>2026-03-29T07:18:01.58Z</time></trkpt><trkpt lat="38.4598267" lon="16.0186117"><ele>61.0</ele><time>2026-03-29T07:18:02.58Z</time></trkpt><trkpt lat="38.4596833" lon="16.0188117"><ele>61.0</ele><time>2026-03-29T07:18:03.58Z</time></trkpt><trkpt lat="38.4595333" lon="16.0190033"><ele>61.0</ele><time>2026-03-29T07:18:04.58Z</time></trkpt><trkpt lat="38.459395" lon="16.0191933"><ele>61.0</ele><time>2026-03-29T07:18:05.58Z</time></trkpt><trkpt lat="38.4592533" lon="16.0193883"><ele>61.33333333333333</ele><time>2026-03-29T07:18:06.58Z</time></trkpt><trkpt lat="38.4591117" lon="16.01959"><ele>61.66666666666667</ele><time>2026-03-29T07:18:07.58Z</time></trkpt><trkpt lat="38.4589667" lon="16.0197883"><ele>62.0</ele><time>2026-03-29T07:18:08.58Z</time></trkpt><trkpt lat="38.4588217" lon="16.0199767"><ele>62.0</ele><time>2026-03-29T07:18:09.58Z</time></trkpt><trkpt lat="38.4586733" lon="16.0201667"><ele>62.0</ele><time>2026-03-29T07:18:10.58Z</time></trkpt><trkpt lat="38.4585333" lon="16.0203633"><ele>62.0</ele><time>2026-03-29T07:18:11.58Z</time></trkpt><trkpt lat="38.45839" lon="16.0205617"><ele>62.0</ele><time>2026-03-29T07:18:12.58Z</time></trkpt><trkpt lat="38.45825" lon="16.0207683"><ele>62.0</ele><time>2026-03-29T07:18:13.58Z</time></trkpt><trkpt lat="38.4581117" lon="16.0209767"><ele>62.0</ele><time>2026-03-29T07:18:14.58Z</time></trkpt><trkpt lat="38.4579633" lon="16.0211817"><ele>63.333333333333336</ele><time>2026-03-29T07:18:15.58Z</time></trkpt><trkpt lat="38.4578167" lon="16.02139"><ele>64.66666666666667</ele><time>2026-03-29T07:18:16.58Z</time></trkpt><trkpt lat="38.45767" lon="16.021595"><ele>66.0</ele><time>2026-03-29T07:18:17.58Z</time></trkpt><trkpt lat="38.45753" lon="16.0217933"><ele>66.0</ele><time>2026-03-29T07:18:18.58Z</time></trkpt><trkpt lat="38.45739" lon="16.0220017"><ele>66.0</ele><time>2026-03-29T07:18:19.58Z</time></trkpt><trkpt lat="38.4572483" lon="16.022205"><ele>66.0</ele><time>2026-03-29T07:18:20.58Z</time></trkpt><trkpt lat="38.457105" lon="16.022405"><ele>66.66666666666667</ele><time>2026-03-29T07:18:21.58Z</time></trkpt><trkpt lat="38.45697" lon="16.0226167"><ele>67.33333333333334</ele><time>2026-03-29T07:18:22.58Z</time></trkpt><trkpt lat="38.4568267" lon="16.02282"><ele>68.0</ele><time>2026-03-29T07:18:23.58Z</time></trkpt><trkpt lat="38.4566883" lon="16.0230267"><ele>68.0</ele><time>2026-03-29T07:18:24.58Z</time></trkpt><trkpt lat="38.4565433" lon="16.0232333"><ele>68.0</ele><time>2026-03-29T07:18:25.58Z</time></trkpt><trkpt lat="38.4564" lon="16.02344"><ele>68.0</ele><time>2026-03-29T07:18:26.58Z</time></trkpt><trkpt lat="38.4562517" lon="16.0236467"><ele>68.0</ele><time>2026-03-29T07:18:27.58Z</time></trkpt><trkpt lat="38.456105" lon="16.0238533"><ele>68.0</ele><time>2026-03-29T07:18:28.58Z</time></trkpt><trkpt lat="38.4559567" lon="16.0240633"><ele>68.0</ele><time>2026-03-29T07:18:29.58Z</time></trkpt><trkpt lat="38.4558083" lon="16.024275"><ele>68.5</ele><time>2026-03-29T07:18:30.58Z</time></trkpt><trkpt lat="38.455665" lon="16.0244967"><ele>69.0</ele><time>2026-03-29T07:18:31.58Z</time></trkpt><trkpt lat="38.4555117" lon="16.0247083"><ele>69.33333333333333</ele><time>2026-03-29T07:18:32.58Z</time></trkpt><trkpt lat="38.455365" lon="16.0249133"><ele>69.66666666666666</ele><time>2026-03-29T07:18:33.58Z</time></trkpt><trkpt lat="38.455215" lon="16.025115"><ele>70.0</ele><time>2026-03-29T07:18:34.58Z</time></trkpt><trkpt lat="38.455075" lon="16.02531"><ele>70.0</ele><time>2026-03-29T07:18:35.581Z</time></trkpt><trkpt lat="38.45494" lon="16.0255"><ele>70.0</ele><time>2026-03-29T07:18:36.58Z</time></trkpt><trkpt lat="38.4548067" lon="16.0256867"><ele>70.0</ele><time>2026-03-29T07:18:37.58Z</time></trkpt><trkpt lat="38.4546817" lon="16.0258683"><ele>71.33333333333333</ele><time>2026-03-29T07:18:38.58Z</time></trkpt><trkpt lat="38.45456" lon="16.026035"><ele>72.66666666666667</ele><time>2026-03-29T07:18:39.58Z</time></trkpt><trkpt lat="38.454445" lon="16.0261917"><ele>74.0</ele><time>2026-03-29T07:18:40.58Z</time></trkpt><trkpt lat="38.4543333" lon="16.0263383"><ele>74.0</ele><time>2026-03-29T07:18:41.58Z</time></trkpt><trkpt lat="38.4542317" lon="16.02648"><ele>74.0</ele><time>2026-03-29T07:18:42.58Z</time></trkpt><trkpt lat="38.4541333" lon="16.026615"><ele>74.0</ele><time>2026-03-29T07:18:43.58Z</time></trkpt><trkpt lat="38.4540467" lon="16.0267433"><ele>74.0</ele><time>2026-03-29T07:18:44.58Z</time></trkpt><trkpt lat="38.45397" lon="16.0268567"><ele>74.25</ele><time>2026-03-29T07:18:45.58Z</time></trkpt><trkpt lat="38.4538833" lon="16.026975"><ele>74.5</ele><time>2026-03-29T07:18:46.58Z</time></trkpt><trkpt lat="38.4538017" lon="16.0270917"><ele>74.75</ele><time>2026-03-29T07:18:47.58Z</time></trkpt><trkpt lat="38.45372" lon="16.0272117"><ele>75.0</ele><time>2026-03-29T07:18:48.58Z</time></trkpt><trkpt lat="38.4536367" lon="16.0273317"><ele>75.0</ele><time>2026-03-29T07:18:49.58Z</time></trkpt><trkpt lat="38.4535583" lon="16.02745"><ele>75.0</ele><time>2026-03-29T07:18:50.58Z</time></trkpt><trkpt lat="38.4534733" lon="16.0275767"><ele>75.0</ele><time>2026-03-29T07:18:51.58Z</time></trkpt><trkpt lat="38.4533883" lon="16.0277033"><ele>75.0</ele><time>2026-03-29T07:18:52.58Z</time></trkpt><trkpt lat="38.4533017" lon="16.0278317"><ele>75.0</ele><time>2026-03-29T07:18:53.58Z</time></trkpt><trkpt lat="38.4532167" lon="16.0279583"><ele>75.0</ele><time>2026-03-29T07:18:54.58Z</time></trkpt><trkpt lat="38.4531317" lon="16.0280817"><ele>75.0</ele><time>2026-03-29T07:18:55.58Z</time></trkpt><trkpt lat="38.45305" lon="16.0282017"><ele>75.0</ele><time>2026-03-29T07:18:56.58Z</time></trkpt><trkpt lat="38.45295" lon="16.0283033"><ele>75.25</ele><time>2026-03-29T07:18:57.58Z</time></trkpt><trkpt lat="38.45285" lon="16.028385"><ele>75.5</ele><time>2026-03-29T07:18:58.58Z</time></trkpt><trkpt lat="38.4527433" lon="16.0284483"><ele>75.75</ele><time>2026-03-29T07:18:59.58Z</time></trkpt><trkpt lat="38.4526333" lon="16.0285167"><ele>76.0</ele><time>2026-03-29T07:19:00.58Z</time></trkpt><trkpt lat="38.45255" lon="16.0286017"><ele>76.0</ele><time>2026-03-29T07:19:01.58Z</time></trkpt><trkpt lat="38.452495" lon="16.0287167"><ele>76.0</ele><time>2026-03-29T07:19:02.58Z</time></trkpt><trkpt lat="38.4524567" lon="16.028855"><ele>76.0</ele><time>2026-03-29T07:19:03.58Z</time></trkpt><trkpt lat="38.452435" lon="16.0290133"><ele>76.0</ele><time>2026-03-29T07:19:04.581Z</time></trkpt><trkpt lat="38.4524033" lon="16.029195"><ele>76.33333333333333</ele><time>2026-03-29T07:19:05.58Z</time></trkpt><trkpt lat="38.452345" lon="16.029385"><ele>76.66666666666667</ele><time>2026-03-29T07:19:06.58Z</time></trkpt><trkpt lat="38.4522733" lon="16.02957"><ele>77.0</ele><time>2026-03-29T07:19:07.58Z</time></trkpt><trkpt lat="38.4521933" lon="16.0297433"><ele>77.0</ele><time>2026-03-29T07:19:08.58Z</time></trkpt><trkpt lat="38.4521117" lon="16.029925"><ele>77.0</ele><time>2026-03-29T07:19:09.58Z</time></trkpt><trkpt lat="38.4520317" lon="16.0301033"><ele>77.0</ele><time>2026-03-29T07:19:10.58Z</time></trkpt><trkpt lat="38.451955" lon="16.0302917"><ele>77.0</ele><time>2026-03-29T07:19:11.58Z</time></trkpt><trkpt lat="38.4518817" lon="16.0304733"><ele>77.0</ele><time>2026-03-29T07:19:12.58Z</time></trkpt><trkpt lat="38.4518133" lon="16.0306567"><ele>77.0</ele><time>2026-03-29T07:19:13.58Z</time></trkpt><trkpt lat="38.45175" lon="16.030845"><ele>77.33333333333334</ele><time>2026-03-29T07:19:14.58Z</time></trkpt><trkpt lat="38.4516867" lon="16.0310333"><ele>77.66666666666667</ele><time>2026-03-29T07:19:15.58Z</time></trkpt><trkpt lat="38.4516167" lon="16.031235"><ele>78.0</ele><time>2026-03-29T07:19:16.58Z</time></trkpt><trkpt lat="38.451545" lon="16.0314333"><ele>78.0</ele><time>2026-03-29T07:19:17.58Z</time></trkpt><trkpt lat="38.4514667" lon="16.0316417"><ele>78.0</ele><time>2026-03-29T07:19:18.58Z</time></trkpt><trkpt lat="38.451385" lon="16.03184"><ele>78.0</ele><time>2026-03-29T07:19:19.58Z</time></trkpt><trkpt lat="38.4513017" lon="16.032035"><ele>79.0</ele><time>2026-03-29T07:19:20.58Z</time></trkpt><trkpt lat="38.4512217" lon="16.03221"><ele>80.0</ele><time>2026-03-29T07:19:21.58Z</time></trkpt><trkpt lat="38.45114" lon="16.032385"><ele>81.0</ele><time>2026-03-29T07:19:22.58Z</time></trkpt><trkpt lat="38.4510617" lon="16.032545"><ele>81.0</ele><time>2026-03-29T07:19:23.58Z</time></trkpt><trkpt lat="38.4509817" lon="16.032705"><ele>81.0</ele><time>2026-03-29T07:19:24.58Z</time></trkpt><trkpt lat="38.450895" lon="16.032865"><ele>81.0</ele><time>2026-03-29T07:19:25.58Z</time></trkpt><trkpt lat="38.4508" lon="16.0330233"><ele>81.0</ele><time>2026-03-29T07:19:26.58Z</time></trkpt><trkpt lat="38.450705" lon="16.0331817"><ele>81.0</ele><time>2026-03-29T07:19:27.58Z</time></trkpt><trkpt lat="38.450605" lon="16.0333367"><ele>81.0</ele><time>2026-03-29T07:19:28.58Z</time></trkpt><trkpt lat="38.4504983" lon="16.033495"><ele>82.0</ele><time>2026-03-29T07:19:29.58Z</time></trkpt><trkpt lat="38.450395" lon="16.03366"><ele>83.0</ele><time>2026-03-29T07:19:30.58Z</time></trkpt><trkpt lat="38.45029" lon="16.0338317"><ele>84.0</ele><time>2026-03-29T07:19:31.58Z</time></trkpt><trkpt lat="38.4501817" lon="16.034005"><ele>83.33333333333333</ele><time>2026-03-29T07:19:32.58Z</time></trkpt><trkpt lat="38.4500667" lon="16.0341783"><ele>82.66666666666666</ele><time>2026-03-29T07:19:33.58Z</time></trkpt><trkpt lat="38.4499533" lon="16.03436"><ele>82.0</ele><time>2026-03-29T07:19:34.58Z</time></trkpt><trkpt lat="38.44984" lon="16.034535"><ele>82.0</ele><time>2026-03-29T07:19:35.58Z</time></trkpt><trkpt lat="38.4497183" lon="16.0347167"><ele>82.0</ele><time>2026-03-29T07:19:36.58Z</time></trkpt><trkpt lat="38.4495933" lon="16.0349033"><ele>82.0</ele><time>2026-03-29T07:19:37.58Z</time></trkpt><trkpt lat="38.4494633" lon="16.0350933"><ele>82.33333333333333</ele><time>2026-03-29T07:19:38.58Z</time></trkpt><trkpt lat="38.44933" lon="16.035285"><ele>82.66666666666667</ele><time>2026-03-29T07:19:39.58Z</time></trkpt><trkpt lat="38.44919" lon="16.0354733"><ele>83.0</ele><time>2026-03-29T07:19:40.58Z</time></trkpt><trkpt lat="38.4490533" lon="16.0356533"><ele>83.0</ele><time>2026-03-29T07:19:41.58Z</time></trkpt><trkpt lat="38.4489117" lon="16.0358367"><ele>83.0</ele><time>2026-03-29T07:19:42.58Z</time></trkpt><trkpt lat="38.4487633" lon="16.0360217"><ele>83.0</ele><time>2026-03-29T07:19:43.58Z</time></trkpt><trkpt lat="38.448615" lon="16.036195"><ele>84.0</ele><time>2026-03-29T07:19:44.58Z</time></trkpt><trkpt lat="38.448465" lon="16.0363633"><ele>85.0</ele><time>2026-03-29T07:19:45.58Z</time></trkpt><trkpt lat="38.4483183" lon="16.0365283"><ele>86.0</ele><time>2026-03-29T07:19:46.58Z</time></trkpt><trkpt lat="38.44816" lon="16.0367"><ele>86.0</ele><time>2026-03-29T07:19:47.58Z</time></trkpt><trkpt lat="38.4479983" lon="16.0368683"><ele>86.0</ele><time>2026-03-29T07:19:48.58Z</time></trkpt><trkpt lat="38.44784" lon="16.0370267"><ele>86.0</ele><time>2026-03-29T07:19:49.58Z</time></trkpt><trkpt lat="38.4476717" lon="16.037185"><ele>86.33333333333334</ele><time>2026-03-29T07:19:50.58Z</time></trkpt><trkpt lat="38.447505" lon="16.037335"><ele>86.66666666666667</ele><time>2026-03-29T07:19:51.58Z</time></trkpt><trkpt lat="38.4473333" lon="16.0374867"><ele>87.0</ele><time>2026-03-29T07:19:52.58Z</time></trkpt><trkpt lat="38.4471617" lon="16.0376367"><ele>88.33333333333333</ele><time>2026-03-29T07:19:53.58Z</time></trkpt><trkpt lat="38.44699" lon="16.0377833"><ele>89.66666666666666</ele><time>2026-03-29T07:19:54.58Z</time></trkpt><trkpt lat="38.4468167" lon="16.0379233"><ele>91.0</ele><time>2026-03-29T07:19:55.58Z</time></trkpt><trkpt lat="38.446645" lon="16.03806"><ele>91.0</ele><time>2026-03-29T07:19:56.58Z</time></trkpt><trkpt lat="38.4464617" lon="16.0381983"><ele>91.0</ele><time>2026-03-29T07:19:57.58Z</time></trkpt><trkpt lat="38.4462783" lon="16.03834"><ele>91.0</ele><time>2026-03-29T07:19:58.58Z</time></trkpt><trkpt lat="38.4460983" lon="16.0384783"><ele>91.33333333333333</ele><time>2026-03-29T07:19:59.58Z</time></trkpt><trkpt lat="38.4459117" lon="16.0386217"><ele>91.66666666666667</ele><time>2026-03-29T07:20:00.58Z</time></trkpt><trkpt lat="38.4457233" lon="16.0387617"><ele>92.0</ele><time>2026-03-29T07:20:01.58Z</time></trkpt><trkpt lat="38.4455333" lon="16.0389033"><ele>92.0</ele><time>2026-03-29T07:20:02.58Z</time></trkpt><trkpt lat="38.4453417" lon="16.03904"><ele>92.0</ele><time>2026-03-29T07:20:03.58Z</time></trkpt><trkpt lat="38.445145" lon="16.0391833"><ele>92.0</ele><time>2026-03-29T07:20:04.58Z</time></trkpt><trkpt lat="38.4449467" lon="16.0393367"><ele>92.0</ele><time>2026-03-29T07:20:05.58Z</time></trkpt><trkpt lat="38.4447467" lon="16.03948"><ele>92.0</ele><time>2026-03-29T07:20:06.58Z</time></trkpt><trkpt lat="38.4445467" lon="16.0396267"><ele>92.0</ele><time>2026-03-29T07:20:07.58Z</time></trkpt><trkpt lat="38.4443433" lon="16.039775"><ele>92.0</ele><time>2026-03-29T07:20:08.58Z</time></trkpt><trkpt lat="38.4441367" lon="16.03993"><ele>94.0</ele><time>2026-03-29T07:20:09.58Z</time></trkpt><trkpt lat="38.4439283" lon="16.0400833"><ele>96.0</ele><time>2026-03-29T07:20:10.58Z</time></trkpt><trkpt lat="38.443725" lon="16.04024"><ele>96.0</ele><time>2026-03-29T07:20:11.58Z</time></trkpt><trkpt lat="38.4435183" lon="16.040395"><ele>96.0</ele><time>2026-03-29T07:20:12.58Z</time></trkpt><trkpt lat="38.4433133" lon="16.0405533"><ele>96.0</ele><time>2026-03-29T07:20:13.58Z</time></trkpt><trkpt lat="38.4431117" lon="16.04071"><ele>96.0</ele><time>2026-03-29T07:20:14.58Z</time></trkpt><trkpt lat="38.4429133" lon="16.0408667"><ele>97.5</ele><time>2026-03-29T07:20:15.58Z</time></trkpt><trkpt lat="38.4427183" lon="16.0410233"><ele>99.0</ele><time>2026-03-29T07:20:16.58Z</time></trkpt><trkpt lat="38.442525" lon="16.0411817"><ele>99.0</ele><time>2026-03-29T07:20:17.58Z</time></trkpt><trkpt lat="38.442335" lon="16.0413383"><ele>99.0</ele><time>2026-03-29T07:20:18.58Z</time></trkpt><trkpt lat="38.4421467" lon="16.0415017"><ele>100.0</ele><time>2026-03-29T07:20:19.58Z</time></trkpt><trkpt lat="38.4419583" lon="16.0416667"><ele>101.0</ele><time>2026-03-29T07:20:20.58Z</time></trkpt><trkpt lat="38.4417717" lon="16.0418383"><ele>101.0</ele><time>2026-03-29T07:20:21.58Z</time></trkpt><trkpt lat="38.441585" lon="16.0420133"><ele>101.0</ele><time>2026-03-29T07:20:22.58Z</time></trkpt><trkpt lat="38.4413967" lon="16.0421967"><ele>101.0</ele><time>2026-03-29T07:20:23.581Z</time></trkpt><trkpt lat="38.441215" lon="16.042385"><ele>101.0</ele><time>2026-03-29T07:20:24.58Z</time></trkpt><trkpt lat="38.4410333" lon="16.04257"><ele>103.5</ele><time>2026-03-29T07:20:25.58Z</time></trkpt><trkpt lat="38.4408533" lon="16.0427567"><ele>106.0</ele><time>2026-03-29T07:20:26.58Z</time></trkpt><trkpt lat="38.440675" lon="16.04295"><ele>106.0</ele><time>2026-03-29T07:20:27.58Z</time></trkpt><trkpt lat="38.44049" lon="16.0431417"><ele>106.0</ele><time>2026-03-29T07:20:28.58Z</time></trkpt><trkpt lat="38.4403083" lon="16.0433367"><ele>107.5</ele><time>2026-03-29T07:20:29.58Z</time></trkpt><trkpt lat="38.4401267" lon="16.0435317"><ele>109.0</ele><time>2026-03-29T07:20:30.58Z</time></trkpt><trkpt lat="38.43994" lon="16.0437283"><ele>109.0</ele><time>2026-03-29T07:20:31.58Z</time></trkpt><trkpt lat="38.4397517" lon="16.0439167"><ele>109.0</ele><time>2026-03-29T07:20:32.58Z</time></trkpt><trkpt lat="38.4395667" lon="16.0441183"><ele>113.5</ele><time>2026-03-29T07:20:33.58Z</time></trkpt><trkpt lat="38.4393817" lon="16.0443183"><ele>118.0</ele><time>2026-03-29T07:20:34.58Z</time></trkpt><trkpt lat="38.4391983" lon="16.044515"><ele>118.0</ele><time>2026-03-29T07:20:35.58Z</time></trkpt><trkpt lat="38.4390133" lon="16.0447117"><ele>118.0</ele><time>2026-03-29T07:20:36.58Z</time></trkpt><trkpt lat="38.4388267" lon="16.0449133"><ele>123.5</ele><time>2026-03-29T07:20:37.58Z</time></trkpt><trkpt lat="38.438645" lon="16.0451133"><ele>129.0</ele><time>2026-03-29T07:20:38.58Z</time></trkpt><trkpt lat="38.4384683" lon="16.0453"><ele>129.0</ele><time>2026-03-29T07:20:39.581Z</time></trkpt><trkpt lat="38.4382883" lon="16.045485"><ele>129.0</ele><time>2026-03-29T07:20:40.58Z</time></trkpt><trkpt lat="38.4381133" lon="16.0456817"><ele>128.0</ele><time>2026-03-29T07:20:41.58Z</time></trkpt><trkpt lat="38.4379317" lon="16.0458683"><ele>127.0</ele><time>2026-03-29T07:20:42.58Z</time></trkpt><trkpt lat="38.437755" lon="16.0460533"><ele>127.0</ele><time>2026-03-29T07:20:43.58Z</time></trkpt><trkpt lat="38.43758" lon="16.0462433"><ele>127.0</ele><time>2026-03-29T07:20:44.58Z</time></trkpt><trkpt lat="38.4374083" lon="16.046425"><ele>127.0</ele><time>2026-03-29T07:20:45.58Z</time></trkpt><trkpt lat="38.437235" lon="16.0466033"><ele>127.0</ele><time>2026-03-29T07:20:46.58Z</time></trkpt><trkpt lat="38.4370667" lon="16.0467717"><ele>127.0</ele><time>2026-03-29T07:20:47.58Z</time></trkpt><trkpt lat="38.4368883" lon="16.0469367"><ele>128.33333333333334</ele><time>2026-03-29T07:20:48.58Z</time></trkpt><trkpt lat="38.4367133" lon="16.0471067"><ele>129.66666666666666</ele><time>2026-03-29T07:20:49.58Z</time></trkpt><trkpt lat="38.4365383" lon="16.0472733"><ele>131.0</ele><time>2026-03-29T07:20:50.58Z</time></trkpt><trkpt lat="38.4363633" lon="16.0474433"><ele>130.66666666666666</ele><time>2026-03-29T07:20:51.58Z</time></trkpt><trkpt lat="38.4361883" lon="16.0476017"><ele>130.33333333333334</ele><time>2026-03-29T07:20:52.58Z</time></trkpt><trkpt lat="38.4360083" lon="16.0477617"><ele>130.0</ele><time>2026-03-29T07:20:53.58Z</time></trkpt><trkpt lat="38.43583" lon="16.0479283"><ele>130.0</ele><time>2026-03-29T07:20:54.58Z</time></trkpt><trkpt lat="38.4356483" lon="16.0480933"><ele>130.0</ele><time>2026-03-29T07:20:55.58Z</time></trkpt><trkpt lat="38.43547" lon="16.048265"><ele>130.0</ele><time>2026-03-29T07:20:56.58Z</time></trkpt><trkpt lat="38.435295" lon="16.048435"><ele>133.66666666666669</ele><time>2026-03-29T07:20:57.58Z</time></trkpt><trkpt lat="38.43511" lon="16.0486083"><ele>137.33333333333334</ele><time>2026-03-29T07:20:58.58Z</time></trkpt><trkpt lat="38.434935" lon="16.0487783"><ele>141.0</ele><time>2026-03-29T07:20:59.58Z</time></trkpt><trkpt lat="38.4347517" lon="16.0489533"><ele>140.66666666666666</ele><time>2026-03-29T07:21:00.58Z</time></trkpt><trkpt lat="38.4345667" lon="16.0491217"><ele>140.33333333333331</ele><time>2026-03-29T07:21:01.58Z</time></trkpt><trkpt lat="38.4343933" lon="16.0492967"><ele>140.0</ele><time>2026-03-29T07:21:02.58Z</time></trkpt><trkpt lat="38.4342233" lon="16.0494767"><ele>142.0</ele><time>2026-03-29T07:21:03.58Z</time></trkpt><trkpt lat="38.4340433" lon="16.0496583"><ele>144.0</ele><time>2026-03-29T07:21:04.58Z</time></trkpt><trkpt lat="38.4338617" lon="16.0498383"><ele>146.0</ele><time>2026-03-29T07:21:05.58Z</time></trkpt><trkpt lat="38.4336833" lon="16.05002"><ele>148.0</ele><time>2026-03-29T07:21:06.58Z</time></trkpt><trkpt lat="38.433505" lon="16.05021"><ele>148.0</ele><time>2026-03-29T07:21:07.58Z</time></trkpt><trkpt lat="38.4333283" lon="16.0504"><ele>148.0</ele><time>2026-03-29T07:21:08.58Z</time></trkpt><trkpt lat="38.4331533" lon="16.0505983"><ele>148.5</ele><time>2026-03-29T07:21:09.58Z</time></trkpt><trkpt lat="38.4329783" lon="16.0508017"><ele>149.0</ele><time>2026-03-29T07:21:10.58Z</time></trkpt><trkpt lat="38.4328033" lon="16.0510017"><ele>149.5</ele><time>2026-03-29T07:21:11.581Z</time></trkpt><trkpt lat="38.4326267" lon="16.0512083"><ele>150.0</ele><time>2026-03-29T07:21:12.58Z</time></trkpt><trkpt lat="38.432445" lon="16.0514083"><ele>150.0</ele><time>2026-03-29T07:21:13.58Z</time></trkpt><trkpt lat="38.4322767" lon="16.0516083"><ele>150.0</ele><time>2026-03-29T07:21:14.58Z</time></trkpt><trkpt lat="38.4321017" lon="16.05181"><ele>150.5</ele><time>2026-03-29T07:21:15.58Z</time></trkpt><trkpt lat="38.4319367" lon="16.0520117"><ele>151.0</ele><time>2026-03-29T07:21:16.581Z</time></trkpt><trkpt lat="38.431755" lon="16.0522167"><ele>151.0</ele><time>2026-03-29T07:21:17.58Z</time></trkpt><trkpt lat="38.4315817" lon="16.05242"><ele>151.0</ele><time>2026-03-29T07:21:18.58Z</time></trkpt><trkpt lat="38.4314067" lon="16.0526167"><ele>154.5</ele><time>2026-03-29T07:21:19.58Z</time></trkpt><trkpt lat="38.4312267" lon="16.05282"><ele>158.0</ele><time>2026-03-29T07:21:20.58Z</time></trkpt><trkpt lat="38.4310533" lon="16.0530167"><ele>158.0</ele><time>2026-03-29T07:21:21.58Z</time></trkpt><trkpt lat="38.43088" lon="16.0532217"><ele>158.0</ele><time>2026-03-29T07:21:22.58Z</time></trkpt><trkpt lat="38.4307117" lon="16.05343"><ele>158.5</ele><time>2026-03-29T07:21:23.58Z</time></trkpt><trkpt lat="38.4305433" lon="16.0536317"><ele>159.0</ele><time>2026-03-29T07:21:24.58Z</time></trkpt><trkpt lat="38.4303717" lon="16.053835"><ele>159.5</ele><time>2026-03-29T07:21:25.58Z</time></trkpt><trkpt lat="38.4302" lon="16.0540317"><ele>160.0</ele><time>2026-03-29T07:21:26.581Z</time></trkpt><trkpt lat="38.4300283" lon="16.0542167"><ele>160.0</ele><time>2026-03-29T07:21:27.58Z</time></trkpt><trkpt lat="38.4298617" lon="16.0544"><ele>160.0</ele><time>2026-03-29T07:21:28.58Z</time></trkpt><trkpt lat="38.4296917" lon="16.054585"><ele>160.0</ele><time>2026-03-29T07:21:29.58Z</time></trkpt><trkpt lat="38.4295267" lon="16.05477"><ele>160.33333333333334</ele><time>2026-03-29T07:21:30.58Z</time></trkpt><trkpt lat="38.4293633" lon="16.0549617"><ele>160.66666666666666</ele><time>2026-03-29T07:21:31.58Z</time></trkpt><trkpt lat="38.4292017" lon="16.0551567"><ele>161.0</ele><time>2026-03-29T07:21:32.58Z</time></trkpt><trkpt lat="38.42904" lon="16.0553483"><ele>161.0</ele><time>2026-03-29T07:21:33.58Z</time></trkpt><trkpt lat="38.4288767" lon="16.05554"><ele>161.0</ele><time>2026-03-29T07:21:34.58Z</time></trkpt><trkpt lat="38.4287083" lon="16.055735"><ele>161.0</ele><time>2026-03-29T07:21:35.58Z</time></trkpt><trkpt lat="38.428545" lon="16.055925"><ele>163.5</ele><time>2026-03-29T07:21:36.58Z</time></trkpt><trkpt lat="38.4283767" lon="16.056125"><ele>166.0</ele><time>2026-03-29T07:21:37.581Z</time></trkpt><trkpt lat="38.42821" lon="16.0563233"><ele>166.0</ele><time>2026-03-29T07:21:38.58Z</time></trkpt><trkpt lat="38.428045" lon="16.05652"><ele>166.0</ele><time>2026-03-29T07:21:39.58Z</time></trkpt><trkpt lat="38.4278717" lon="16.056715"><ele>167.5</ele><time>2026-03-29T07:21:40.58Z</time></trkpt><trkpt lat="38.4276983" lon="16.056915"><ele>169.0</ele><time>2026-03-29T07:21:41.58Z</time></trkpt><trkpt lat="38.4275317" lon="16.0571167"><ele>169.0</ele><time>2026-03-29T07:21:42.58Z</time></trkpt><trkpt lat="38.42736" lon="16.0573117"><ele>169.0</ele><time>2026-03-29T07:21:43.58Z</time></trkpt><trkpt lat="38.42719" lon="16.0575083"><ele>172.5</ele><time>2026-03-29T07:21:44.58Z</time></trkpt><trkpt lat="38.4270183" lon="16.0576983"><ele>176.0</ele><time>2026-03-29T07:21:45.58Z</time></trkpt><trkpt lat="38.4268517" lon="16.057895"><ele>176.0</ele><time>2026-03-29T07:21:46.58Z</time></trkpt><trkpt lat="38.4266833" lon="16.0580883"><ele>176.0</ele><time>2026-03-29T07:21:47.58Z</time></trkpt><trkpt lat="38.4265133" lon="16.058285"><ele>176.33333333333331</ele><time>2026-03-29T07:21:48.58Z</time></trkpt><trkpt lat="38.4263417" lon="16.05848"><ele>176.66666666666666</ele><time>2026-03-29T07:21:49.58Z</time></trkpt><trkpt lat="38.4261867" lon="16.05867"><ele>177.0</ele><time>2026-03-29T07:21:50.58Z</time></trkpt><trkpt lat="38.4260267" lon="16.0588533"><ele>177.66666666666666</ele><time>2026-03-29T07:21:51.58Z</time></trkpt><trkpt lat="38.42586" lon="16.0590433"><ele>178.33333333333331</ele><time>2026-03-29T07:21:52.58Z</time></trkpt><trkpt lat="38.4256983" lon="16.0592267"><ele>179.0</ele><time>2026-03-29T07:21:53.58Z</time></trkpt><trkpt lat="38.42554" lon="16.0594033"><ele>179.66666666666666</ele><time>2026-03-29T07:21:54.58Z</time></trkpt><trkpt lat="38.4253833" lon="16.05959"><ele>180.33333333333334</ele><time>2026-03-29T07:21:55.58Z</time></trkpt><trkpt lat="38.4252267" lon="16.05978"><ele>181.0</ele><time>2026-03-29T07:21:56.58Z</time></trkpt><trkpt lat="38.4250717" lon="16.059955"><ele>181.0</ele><time>2026-03-29T07:21:57.581Z</time></trkpt><trkpt lat="38.4249217" lon="16.0601283"><ele>181.0</ele><time>2026-03-29T07:21:58.58Z</time></trkpt><trkpt lat="38.424775" lon="16.060305"><ele>181.0</ele><time>2026-03-29T07:21:59.58Z</time></trkpt><trkpt lat="38.424625" lon="16.0604733"><ele>181.33333333333334</ele><time>2026-03-29T07:22:00.58Z</time></trkpt><trkpt lat="38.4244733" lon="16.060645"><ele>181.66666666666666</ele><time>2026-03-29T07:22:01.58Z</time></trkpt><trkpt lat="38.4243267" lon="16.0608017"><ele>182.0</ele><time>2026-03-29T07:22:02.581Z</time></trkpt><trkpt lat="38.4241933" lon="16.06097"><ele>182.0</ele><time>2026-03-29T07:22:03.58Z</time></trkpt><trkpt lat="38.4240617" lon="16.061135"><ele>182.0</ele><time>2026-03-29T07:22:04.58Z</time></trkpt><trkpt lat="38.42393" lon="16.0612867"><ele>182.0</ele><time>2026-03-29T07:22:05.58Z</time></trkpt><trkpt lat="38.4238033" lon="16.06142"><ele>183.25</ele><time>2026-03-29T07:22:06.58Z</time></trkpt><trkpt lat="38.4236883" lon="16.0615467"><ele>184.5</ele><time>2026-03-29T07:22:07.58Z</time></trkpt><trkpt lat="38.4235783" lon="16.0616617"><ele>185.75</ele><time>2026-03-29T07:22:08.58Z</time></trkpt><trkpt lat="38.4234733" lon="16.0617733"><ele>187.0</ele><time>2026-03-29T07:22:09.58Z</time></trkpt><trkpt lat="38.4233783" lon="16.06188"><ele>187.2</ele><time>2026-03-29T07:22:10.58Z</time></trkpt><trkpt lat="38.42329" lon="16.061975"><ele>187.39999999999998</ele><time>2026-03-29T07:22:11.58Z</time></trkpt><trkpt lat="38.423205" lon="16.0620633"><ele>187.60000000000002</ele><time>2026-03-29T07:22:12.58Z</time></trkpt><trkpt lat="38.423135" lon="16.062145"><ele>187.8</ele><time>2026-03-29T07:22:13.58Z</time></trkpt><trkpt lat="38.4230683" lon="16.062205"><ele>188.0</ele><time>2026-03-29T07:22:14.581Z</time></trkpt><trkpt lat="38.423" lon="16.0622483"><ele>187.83333333333331</ele><time>2026-03-29T07:22:15.581Z</time></trkpt><trkpt lat="38.42289" lon="16.0622567"><ele>187.66666666666666</ele><time>2026-03-29T07:22:17.581Z</time></trkpt><trkpt lat="38.4228083" lon="16.062235"><ele>187.5</ele><time>2026-03-29T07:22:20.581Z</time></trkpt><trkpt lat="38.4227683" lon="16.0623067"><ele>187.33333333333334</ele><time>2026-03-29T07:22:39.581Z</time></trkpt><trkpt lat="38.4227833" lon="16.0624033"><ele>187.16666666666669</ele><time>2026-03-29T07:22:41.581Z</time></trkpt><trkpt lat="38.4228217" lon="16.0624683"><ele>187.0</ele><time>2026-03-29T07:31:01.581Z</time></trkpt><trkpt lat="38.422775" lon="16.06255"><ele>187.6</ele><time>2026-03-29T07:31:03.581Z</time></trkpt><trkpt lat="38.4226867" lon="16.06266"><ele>188.2</ele><time>2026-03-29T07:31:05.581Z</time></trkpt><trkpt lat="38.4226333" lon="16.0627217"><ele>188.8</ele><time>2026-03-29T07:31:06.581Z</time></trkpt><trkpt lat="38.422575" lon="16.0627933"><ele>189.4</ele><time>2026-03-29T07:31:07.581Z</time></trkpt><trkpt lat="38.42251" lon="16.06287"><ele>190.0</ele><time>2026-03-29T07:31:08.581Z</time></trkpt><trkpt lat="38.422445" lon="16.0629533"><ele>190.0</ele><time>2026-03-29T07:31:09.581Z</time></trkpt><trkpt lat="38.4223783" lon="16.063045"><ele>190.0</ele><time>2026-03-29T07:31:10.581Z</time></trkpt><trkpt lat="38.4223067" lon="16.0631383"><ele>190.0</ele><time>2026-03-29T07:31:11.581Z</time></trkpt><trkpt lat="38.422235" lon="16.0632317"><ele>190.0</ele><time>2026-03-29T07:31:12.581Z</time></trkpt><trkpt lat="38.4221517" lon="16.063335"><ele>190.0</ele><time>2026-03-29T07:31:13.581Z</time></trkpt><trkpt lat="38.4220617" lon="16.06344"><ele>190.5</ele><time>2026-03-29T07:31:14.581Z</time></trkpt><trkpt lat="38.421965" lon="16.0635533"><ele>191.0</ele><time>2026-03-29T07:31:15.581Z</time></trkpt><trkpt lat="38.42186" lon="16.0636817"><ele>191.5</ele><time>2026-03-29T07:31:16.581Z</time></trkpt><trkpt lat="38.4217533" lon="16.06381"><ele>192.0</ele><time>2026-03-29T07:31:17.581Z</time></trkpt><trkpt lat="38.421635" lon="16.0639583"><ele>192.0</ele><time>2026-03-29T07:31:18.581Z</time></trkpt><trkpt lat="38.4215117" lon="16.0641117"><ele>192.0</ele><time>2026-03-29T07:31:19.581Z</time></trkpt><trkpt lat="38.4213833" lon="16.064275"><ele>192.0</ele><time>2026-03-29T07:31:20.581Z</time></trkpt><trkpt lat="38.421255" lon="16.06444"><ele>193.0</ele><time>2026-03-29T07:31:21.581Z</time></trkpt><trkpt lat="38.4211317" lon="16.0646117"><ele>194.0</ele><time>2026-03-29T07:31:22.581Z</time></trkpt><trkpt lat="38.4210067" lon="16.0647883"><ele>195.0</ele><time>2026-03-29T07:31:23.581Z</time></trkpt><trkpt lat="38.42088" lon="16.06496"><ele>195.0</ele><time>2026-03-29T07:31:24.581Z</time></trkpt><trkpt lat="38.4207467" lon="16.06514"><ele>195.0</ele><time>2026-03-29T07:31:25.581Z</time></trkpt><trkpt lat="38.4206067" lon="16.0653367"><ele>195.0</ele><time>2026-03-29T07:31:26.581Z</time></trkpt><trkpt lat="38.4204633" lon="16.0655367"><ele>195.0</ele><time>2026-03-29T07:31:27.581Z</time></trkpt><trkpt lat="38.4203183" lon="16.0657567"><ele>195.0</ele><time>2026-03-29T07:31:28.581Z</time></trkpt><trkpt lat="38.4201767" lon="16.06597"><ele>195.0</ele><time>2026-03-29T07:31:29.581Z</time></trkpt><trkpt lat="38.4200383" lon="16.0661833"><ele>195.66666666666669</ele><time>2026-03-29T07:31:30.581Z</time></trkpt><trkpt lat="38.4198967" lon="16.0664033"><ele>196.33333333333334</ele><time>2026-03-29T07:31:31.581Z</time></trkpt><trkpt lat="38.4197567" lon="16.0666233"><ele>197.0</ele><time>2026-03-29T07:31:32.581Z</time></trkpt><trkpt lat="38.4196183" lon="16.0668583"><ele>199.5</ele><time>2026-03-29T07:31:33.581Z</time></trkpt><trkpt lat="38.419475" lon="16.067095"><ele>202.0</ele><time>2026-03-29T07:31:34.581Z</time></trkpt><trkpt lat="38.4193383" lon="16.06734"><ele>201.5</ele><time>2026-03-29T07:31:35.581Z</time></trkpt><trkpt lat="38.4192033" lon="16.0675883"><ele>201.0</ele><time>2026-03-29T07:31:36.581Z</time></trkpt><trkpt lat="38.4190683" lon="16.067845"><ele>201.0</ele><time>2026-03-29T07:31:37.581Z</time></trkpt><trkpt lat="38.4189367" lon="16.068105"><ele>201.0</ele><time>2026-03-29T07:31:38.581Z</time></trkpt><trkpt lat="38.4188183" lon="16.0683733"><ele>201.0</ele><time>2026-03-29T07:31:39.581Z</time></trkpt><trkpt lat="38.4186933" lon="16.0686367"><ele>201.0</ele><time>2026-03-29T07:31:40.581Z</time></trkpt><trkpt lat="38.4185783" lon="16.0689083"><ele>202.0</ele><time>2026-03-29T07:31:41.581Z</time></trkpt><trkpt lat="38.4184633" lon="16.06918"><ele>203.0</ele><time>2026-03-29T07:31:42.581Z</time></trkpt><trkpt lat="38.4183583" lon="16.06946"><ele>203.0</ele><time>2026-03-29T07:31:43.581Z</time></trkpt><trkpt lat="38.4182533" lon="16.0697517"><ele>203.0</ele><time>2026-03-29T07:31:44.581Z</time></trkpt><trkpt lat="38.4181533" lon="16.0700317"><ele>203.5</ele><time>2026-03-29T07:31:45.581Z</time></trkpt><trkpt lat="38.4180567" lon="16.0703167"><ele>204.0</ele><time>2026-03-29T07:31:46.581Z</time></trkpt><trkpt lat="38.41797" lon="16.0706067"><ele>204.5</ele><time>2026-03-29T07:31:47.581Z</time></trkpt><trkpt lat="38.4178883" lon="16.070905"><ele>205.0</ele><time>2026-03-29T07:31:48.581Z</time></trkpt><trkpt lat="38.4178167" lon="16.0712"><ele>205.0</ele><time>2026-03-29T07:31:49.581Z</time></trkpt><trkpt lat="38.4177517" lon="16.0715"><ele>205.0</ele><time>2026-03-29T07:31:50.581Z</time></trkpt><trkpt lat="38.4176933" lon="16.0717983"><ele>207.5</ele><time>2026-03-29T07:31:51.581Z</time></trkpt><trkpt lat="38.4176383" lon="16.0720933"><ele>210.0</ele><time>2026-03-29T07:31:52.581Z</time></trkpt><trkpt lat="38.4175917" lon="16.0724"><ele>211.0</ele><time>2026-03-29T07:31:53.581Z</time></trkpt><trkpt lat="38.4175483" lon="16.0726967"><ele>212.0</ele><time>2026-03-29T07:31:54.581Z</time></trkpt><trkpt lat="38.41751" lon="16.072995"><ele>212.5</ele><time>2026-03-29T07:31:55.581Z</time></trkpt><trkpt lat="38.4174767" lon="16.0733017"><ele>213.0</ele><time>2026-03-29T07:31:56.581Z</time></trkpt><trkpt lat="38.4174467" lon="16.0736117"><ele>213.0</ele><time>2026-03-29T07:31:57.581Z</time></trkpt><trkpt lat="38.4174217" lon="16.0739117"><ele>213.0</ele><time>2026-03-29T07:31:58.581Z</time></trkpt><trkpt lat="38.417405" lon="16.0742117"><ele>213.0</ele><time>2026-03-29T07:31:59.581Z</time></trkpt><trkpt lat="38.417395" lon="16.0745083"><ele>213.0</ele><time>2026-03-29T07:32:00.581Z</time></trkpt><trkpt lat="38.4173883" lon="16.0748067"><ele>213.0</ele><time>2026-03-29T07:32:01.581Z</time></trkpt><trkpt lat="38.4173933" lon="16.0751133"><ele>213.0</ele><time>2026-03-29T07:32:02.581Z</time></trkpt><trkpt lat="38.4173917" lon="16.0754133"><ele>213.0</ele><time>2026-03-29T07:32:03.581Z</time></trkpt><trkpt lat="38.4174033" lon="16.0757067"><ele>213.0</ele><time>2026-03-29T07:32:04.581Z</time></trkpt><trkpt lat="38.4174183" lon="16.0760117"><ele>215.0</ele><time>2026-03-29T07:32:05.581Z</time></trkpt><trkpt lat="38.4174367" lon="16.0763117"><ele>217.0</ele><time>2026-03-29T07:32:06.581Z</time></trkpt><trkpt lat="38.4174633" lon="16.076615"><ele>218.0</ele><time>2026-03-29T07:32:07.581Z</time></trkpt><trkpt lat="38.4174933" lon="16.076905"><ele>219.0</ele><time>2026-03-29T07:32:08.581Z</time></trkpt><trkpt lat="38.4175267" lon="16.07719"><ele>219.66666666666669</ele><time>2026-03-29T07:32:09.581Z</time></trkpt><trkpt lat="38.4175617" lon="16.0774833"><ele>220.33333333333334</ele><time>2026-03-29T07:32:10.581Z</time></trkpt><trkpt lat="38.417595" lon="16.077755"><ele>221.0</ele><time>2026-03-29T07:32:11.581Z</time></trkpt><trkpt lat="38.4176267" lon="16.0780367"><ele>221.0</ele><time>2026-03-29T07:32:12.581Z</time></trkpt><trkpt lat="38.4176617" lon="16.078305"><ele>221.0</ele><time>2026-03-29T07:32:13.581Z</time></trkpt><trkpt lat="38.4176933" lon="16.078575"><ele>221.0</ele><time>2026-03-29T07:32:14.581Z</time></trkpt><trkpt lat="38.4177317" lon="16.0788517"><ele>223.0</ele><time>2026-03-29T07:32:15.581Z</time></trkpt><trkpt lat="38.41778" lon="16.079115"><ele>225.0</ele><time>2026-03-29T07:32:16.581Z</time></trkpt><trkpt lat="38.4178017" lon="16.0793717"><ele>227.0</ele><time>2026-03-29T07:32:17.581Z</time></trkpt><trkpt lat="38.4178367" lon="16.0796267"><ele>227.0</ele><time>2026-03-29T07:32:18.581Z</time></trkpt><trkpt lat="38.4178617" lon="16.07988"><ele>227.0</ele><time>2026-03-29T07:32:19.581Z</time></trkpt><trkpt lat="38.4178933" lon="16.0801317"><ele>227.0</ele><time>2026-03-29T07:32:20.581Z</time></trkpt><trkpt lat="38.417925" lon="16.0803967"><ele>228.0</ele><time>2026-03-29T07:32:21.581Z</time></trkpt><trkpt lat="38.4179617" lon="16.0806583"><ele>229.0</ele><time>2026-03-29T07:32:22.581Z</time></trkpt><trkpt lat="38.4180033" lon="16.08094"><ele>230.0</ele><time>2026-03-29T07:32:23.581Z</time></trkpt><trkpt lat="38.41804" lon="16.0812317"><ele>230.0</ele><time>2026-03-29T07:32:24.581Z</time></trkpt><trkpt lat="38.4180883" lon="16.0815333"><ele>230.0</ele><time>2026-03-29T07:32:25.581Z</time></trkpt><trkpt lat="38.4181267" lon="16.08185"><ele>230.0</ele><time>2026-03-29T07:32:26.581Z</time></trkpt><trkpt lat="38.4181667" lon="16.082185"><ele>230.0</ele><time>2026-03-29T07:32:27.581Z</time></trkpt><trkpt lat="38.4182033" lon="16.0825217"><ele>230.0</ele><time>2026-03-29T07:32:28.581Z</time></trkpt><trkpt lat="38.4182417" lon="16.0828617"><ele>230.0</ele><time>2026-03-29T07:32:29.581Z</time></trkpt><trkpt lat="38.41828" lon="16.083195"><ele>231.5</ele><time>2026-03-29T07:32:30.581Z</time></trkpt><trkpt lat="38.4183217" lon="16.0835283"><ele>233.0</ele><time>2026-03-29T07:32:31.581Z</time></trkpt><trkpt lat="38.4183717" lon="16.0838467"><ele>233.0</ele><time>2026-03-29T07:32:32.581Z</time></trkpt><trkpt lat="38.4184283" lon="16.0841683"><ele>233.0</ele><time>2026-03-29T07:32:33.581Z</time></trkpt><trkpt lat="38.4184983" lon="16.0844833"><ele>233.0</ele><time>2026-03-29T07:32:34.582Z</time></trkpt><trkpt lat="38.4185733" lon="16.0847933"><ele>233.0</ele><time>2026-03-29T07:32:35.581Z</time></trkpt><trkpt lat="38.4186583" lon="16.0850883"><ele>232.5</ele><time>2026-03-29T07:32:36.581Z</time></trkpt><trkpt lat="38.4187517" lon="16.0853817"><ele>232.0</ele><time>2026-03-29T07:32:37.581Z</time></trkpt><trkpt lat="38.4188467" lon="16.0856717"><ele>233.0</ele><time>2026-03-29T07:32:38.581Z</time></trkpt><trkpt lat="38.4189533" lon="16.0859583"><ele>234.0</ele><time>2026-03-29T07:32:39.581Z</time></trkpt><trkpt lat="38.4190683" lon="16.0862333"><ele>234.0</ele><time>2026-03-29T07:32:40.581Z</time></trkpt><trkpt lat="38.4191883" lon="16.08651"><ele>234.0</ele><time>2026-03-29T07:32:41.581Z</time></trkpt><trkpt lat="38.4193183" lon="16.08679"><ele>235.5</ele><time>2026-03-29T07:32:42.581Z</time></trkpt><trkpt lat="38.41946" lon="16.0870717"><ele>237.0</ele><time>2026-03-29T07:32:43.581Z</time></trkpt><trkpt lat="38.41961" lon="16.087355"><ele>237.5</ele><time>2026-03-29T07:32:44.581Z</time></trkpt><trkpt lat="38.4197667" lon="16.0876417"><ele>238.0</ele><time>2026-03-29T07:32:45.581Z</time></trkpt><trkpt lat="38.41993" lon="16.08793"><ele>238.0</ele><time>2026-03-29T07:32:46.581Z</time></trkpt><trkpt lat="38.420085" lon="16.08822"><ele>238.0</ele><time>2026-03-29T07:32:47.581Z</time></trkpt><trkpt lat="38.4202433" lon="16.0885183"><ele>238.0</ele><time>2026-03-29T07:32:48.581Z</time></trkpt><trkpt lat="38.4203917" lon="16.0888133"><ele>238.0</ele><time>2026-03-29T07:32:49.581Z</time></trkpt><trkpt lat="38.420535" lon="16.0891117"><ele>236.0</ele><time>2026-03-29T07:32:50.581Z</time></trkpt><trkpt lat="38.4206767" lon="16.089405"><ele>234.0</ele><time>2026-03-29T07:32:51.581Z</time></trkpt><trkpt lat="38.4208017" lon="16.0897033"><ele>234.5</ele><time>2026-03-29T07:32:52.581Z</time></trkpt><trkpt lat="38.42092" lon="16.090005"><ele>235.0</ele><time>2026-03-29T07:32:53.581Z</time></trkpt><trkpt lat="38.4210267" lon="16.0903167"><ele>235.0</ele><time>2026-03-29T07:32:54.581Z</time></trkpt><trkpt lat="38.421125" lon="16.0906367"><ele>235.0</ele><time>2026-03-29T07:32:55.581Z</time></trkpt><trkpt lat="38.4212133" lon="16.0909683"><ele>237.0</ele><time>2026-03-29T07:32:56.581Z</time></trkpt><trkpt lat="38.4213033" lon="16.0913067"><ele>239.0</ele><time>2026-03-29T07:32:57.581Z</time></trkpt><trkpt lat="38.4213833" lon="16.091645"><ele>239.0</ele><time>2026-03-29T07:32:58.581Z</time></trkpt><trkpt lat="38.4214583" lon="16.09199"><ele>239.0</ele><time>2026-03-29T07:32:59.581Z</time></trkpt><trkpt lat="38.4215067" lon="16.09234"><ele>240.0</ele><time>2026-03-29T07:33:00.582Z</time></trkpt><trkpt lat="38.42155" lon="16.092685"><ele>241.0</ele><time>2026-03-29T07:33:01.581Z</time></trkpt><trkpt lat="38.4215883" lon="16.0930367"><ele>239.0</ele><time>2026-03-29T07:33:02.581Z</time></trkpt><trkpt lat="38.4216183" lon="16.0933867"><ele>237.0</ele><time>2026-03-29T07:33:03.581Z</time></trkpt><trkpt lat="38.4216367" lon="16.09374"><ele>237.0</ele><time>2026-03-29T07:33:04.581Z</time></trkpt><trkpt lat="38.42165" lon="16.0940867"><ele>237.0</ele><time>2026-03-29T07:33:05.581Z</time></trkpt><trkpt lat="38.4216517" lon="16.09444"><ele>233.0</ele><time>2026-03-29T07:33:06.581Z</time></trkpt><trkpt lat="38.4216417" lon="16.0947933"><ele>229.0</ele><time>2026-03-29T07:33:07.582Z</time></trkpt><trkpt lat="38.4216233" lon="16.0951433"><ele>228.5</ele><time>2026-03-29T07:33:08.581Z</time></trkpt><trkpt lat="38.4215967" lon="16.0954883"><ele>228.0</ele><time>2026-03-29T07:33:09.581Z</time></trkpt><trkpt lat="38.42156" lon="16.09583"><ele>230.0</ele><time>2026-03-29T07:33:10.581Z</time></trkpt><trkpt lat="38.42152" lon="16.096155"><ele>232.0</ele><time>2026-03-29T07:33:11.581Z</time></trkpt><trkpt lat="38.4214633" lon="16.096485"><ele>232.5</ele><time>2026-03-29T07:33:12.581Z</time></trkpt><trkpt lat="38.4213967" lon="16.0968133"><ele>233.0</ele><time>2026-03-29T07:33:13.581Z</time></trkpt><trkpt lat="38.421325" lon="16.0971417"><ele>234.5</ele><time>2026-03-29T07:33:14.581Z</time></trkpt><trkpt lat="38.4212483" lon="16.09747"><ele>236.0</ele><time>2026-03-29T07:33:15.581Z</time></trkpt><trkpt lat="38.421165" lon="16.0977917"><ele>236.0</ele><time>2026-03-29T07:33:16.581Z</time></trkpt><trkpt lat="38.421075" lon="16.0981017"><ele>236.0</ele><time>2026-03-29T07:33:17.581Z</time></trkpt><trkpt lat="38.42098" lon="16.098405"><ele>237.5</ele><time>2026-03-29T07:33:18.581Z</time></trkpt><trkpt lat="38.4208717" lon="16.0986983"><ele>239.0</ele><time>2026-03-29T07:33:19.581Z</time></trkpt><trkpt lat="38.4207583" lon="16.0989833"><ele>239.0</ele><time>2026-03-29T07:33:20.581Z</time></trkpt><trkpt lat="38.42064" lon="16.09927"><ele>239.0</ele><time>2026-03-29T07:33:21.581Z</time></trkpt><trkpt lat="38.420515" lon="16.09955"><ele>239.5</ele><time>2026-03-29T07:33:22.581Z</time></trkpt><trkpt lat="38.4203817" lon="16.0998283"><ele>240.0</ele><time>2026-03-29T07:33:23.581Z</time></trkpt><trkpt lat="38.4202433" lon="16.1000917"><ele>240.5</ele><time>2026-03-29T07:33:24.581Z</time></trkpt><trkpt lat="38.4201" lon="16.10036"><ele>241.0</ele><time>2026-03-29T07:33:25.581Z</time></trkpt><trkpt lat="38.4199467" lon="16.1006183"><ele>243.0</ele><time>2026-03-29T07:33:26.581Z</time></trkpt><trkpt lat="38.4197817" lon="16.1008717"><ele>245.0</ele><time>2026-03-29T07:33:27.581Z</time></trkpt><trkpt lat="38.419615" lon="16.1011183"><ele>245.5</ele><time>2026-03-29T07:33:28.581Z</time></trkpt><trkpt lat="38.41944" lon="16.101375"><ele>246.0</ele><time>2026-03-29T07:33:29.581Z</time></trkpt><trkpt lat="38.4192617" lon="16.10163"><ele>246.5</ele><time>2026-03-29T07:33:30.581Z</time></trkpt><trkpt lat="38.419085" lon="16.1018933"><ele>247.0</ele><time>2026-03-29T07:33:31.581Z</time></trkpt><trkpt lat="38.418905" lon="16.1021517"><ele>249.5</ele><time>2026-03-29T07:33:32.581Z</time></trkpt><trkpt lat="38.4187333" lon="16.1024133"><ele>252.0</ele><time>2026-03-29T07:33:33.581Z</time></trkpt><trkpt lat="38.41856" lon="16.10267"><ele>252.5</ele><time>2026-03-29T07:33:34.581Z</time></trkpt><trkpt lat="38.4184" lon="16.10293"><ele>253.0</ele><time>2026-03-29T07:33:35.581Z</time></trkpt><trkpt lat="38.4182467" lon="16.1031917"><ele>253.5</ele><time>2026-03-29T07:33:36.581Z</time></trkpt><trkpt lat="38.4180983" lon="16.10345"><ele>254.0</ele><time>2026-03-29T07:33:37.581Z</time></trkpt><trkpt lat="38.4179583" lon="16.1037117"><ele>259.5</ele><time>2026-03-29T07:33:38.581Z</time></trkpt><trkpt lat="38.4178283" lon="16.1039833"><ele>265.0</ele><time>2026-03-29T07:33:39.581Z</time></trkpt><trkpt lat="38.4177" lon="16.1042517"><ele>265.0</ele><time>2026-03-29T07:33:40.581Z</time></trkpt><trkpt lat="38.41758" lon="16.104525"><ele>265.0</ele><time>2026-03-29T07:33:41.581Z</time></trkpt><trkpt lat="38.417465" lon="16.1048017"><ele>264.5</ele><time>2026-03-29T07:33:42.581Z</time></trkpt><trkpt lat="38.4173633" lon="16.1050867"><ele>264.0</ele><time>2026-03-29T07:33:43.581Z</time></trkpt><trkpt lat="38.41727" lon="16.10537"><ele>264.0</ele><time>2026-03-29T07:33:44.581Z</time></trkpt><trkpt lat="38.417175" lon="16.1056533"><ele>264.0</ele><time>2026-03-29T07:33:45.581Z</time></trkpt><trkpt lat="38.417085" lon="16.1059583"><ele>274.0</ele><time>2026-03-29T07:33:46.581Z</time></trkpt><trkpt lat="38.417" lon="16.1062567"><ele>284.0</ele><time>2026-03-29T07:33:47.581Z</time></trkpt><trkpt lat="38.4169217" lon="16.1065633"><ele>279.5</ele><time>2026-03-29T07:33:48.581Z</time></trkpt><trkpt lat="38.41685" lon="16.1068767"><ele>275.0</ele><time>2026-03-29T07:33:49.581Z</time></trkpt><trkpt lat="38.4167933" lon="16.1071867"><ele>279.0</ele><time>2026-03-29T07:33:50.581Z</time></trkpt><trkpt lat="38.4167367" lon="16.1075017"><ele>283.0</ele><time>2026-03-29T07:33:51.581Z</time></trkpt><trkpt lat="38.4166867" lon="16.1078167"><ele>283.0</ele><time>2026-03-29T07:33:52.582Z</time></trkpt><trkpt lat="38.4166433" lon="16.1081433"><ele>283.0</ele><time>2026-03-29T07:33:53.581Z</time></trkpt><trkpt lat="38.416615" lon="16.10847"><ele>282.5</ele><time>2026-03-29T07:33:54.581Z</time></trkpt><trkpt lat="38.41659" lon="16.1087967"><ele>282.0</ele><time>2026-03-29T07:33:55.581Z</time></trkpt><trkpt lat="38.4165733" lon="16.1091283"><ele>281.0</ele><time>2026-03-29T07:33:56.581Z</time></trkpt><trkpt lat="38.416565" lon="16.1094667"><ele>280.0</ele><time>2026-03-29T07:33:57.581Z</time></trkpt><trkpt lat="38.4165667" lon="16.1098"><ele>283.5</ele><time>2026-03-29T07:33:58.581Z</time></trkpt><trkpt lat="38.4165733" lon="16.11014"><ele>287.0</ele><time>2026-03-29T07:33:59.581Z</time></trkpt><trkpt lat="38.4165917" lon="16.1104733"><ele>288.5</ele><time>2026-03-29T07:34:00.581Z</time></trkpt><trkpt lat="38.41662" lon="16.1108167"><ele>290.0</ele><time>2026-03-29T07:34:01.581Z</time></trkpt><trkpt lat="38.4166567" lon="16.1111583"><ele>290.0</ele><time>2026-03-29T07:34:02.581Z</time></trkpt><trkpt lat="38.4167067" lon="16.1115017"><ele>290.0</ele><time>2026-03-29T07:34:03.581Z</time></trkpt><trkpt lat="38.416765" lon="16.11184"><ele>292.0</ele><time>2026-03-29T07:34:04.581Z</time></trkpt><trkpt lat="38.4168267" lon="16.11218"><ele>294.0</ele><time>2026-03-29T07:34:05.581Z</time></trkpt><trkpt lat="38.4169033" lon="16.1125217"><ele>295.5</ele><time>2026-03-29T07:34:06.581Z</time></trkpt><trkpt lat="38.4169833" lon="16.1128583"><ele>297.0</ele><time>2026-03-29T07:34:07.581Z</time></trkpt><trkpt lat="38.4170683" lon="16.113195"><ele>292.0</ele><time>2026-03-29T07:34:08.581Z</time></trkpt><trkpt lat="38.4171567" lon="16.1135217"><ele>287.0</ele><time>2026-03-29T07:34:09.581Z</time></trkpt><trkpt lat="38.41724" lon="16.1138433"><ele>290.5</ele><time>2026-03-29T07:34:10.581Z</time></trkpt><trkpt lat="38.417315" lon="16.11417"><ele>294.0</ele><time>2026-03-29T07:34:11.581Z</time></trkpt><trkpt lat="38.4173817" lon="16.11449"><ele>294.0</ele><time>2026-03-29T07:34:12.581Z</time></trkpt><trkpt lat="38.417445" lon="16.1148183"><ele>294.0</ele><time>2026-03-29T07:34:13.581Z</time></trkpt><trkpt lat="38.4175117" lon="16.11515"><ele>299.0</ele><time>2026-03-29T07:34:14.581Z</time></trkpt><trkpt lat="38.4175667" lon="16.1154833"><ele>304.0</ele><time>2026-03-29T07:34:15.581Z</time></trkpt><trkpt lat="38.4176183" lon="16.1158183"><ele>310.0</ele><time>2026-03-29T07:34:16.581Z</time></trkpt><trkpt lat="38.4176583" lon="16.1161633"><ele>316.0</ele><time>2026-03-29T07:34:17.581Z</time></trkpt><trkpt lat="38.41769" lon="16.1165"><ele>321.5</ele><time>2026-03-29T07:34:18.581Z</time></trkpt><trkpt lat="38.4177217" lon="16.1168367"><ele>327.0</ele><time>2026-03-29T07:34:19.581Z</time></trkpt><trkpt lat="38.41774" lon="16.11718"><ele>325.5</ele><time>2026-03-29T07:34:20.581Z</time></trkpt><trkpt lat="38.4177517" lon="16.117525"><ele>324.0</ele><time>2026-03-29T07:34:21.581Z</time></trkpt><trkpt lat="38.4177583" lon="16.11786"><ele>324.0</ele><time>2026-03-29T07:34:22.581Z</time></trkpt><trkpt lat="38.4177533" lon="16.118185"><ele>324.0</ele><time>2026-03-29T07:34:23.581Z</time></trkpt><trkpt lat="38.4177467" lon="16.118505"><ele>317.5</ele><time>2026-03-29T07:34:24.581Z</time></trkpt><trkpt lat="38.41774" lon="16.1188233"><ele>311.0</ele><time>2026-03-29T07:34:25.581Z</time></trkpt><trkpt lat="38.41772" lon="16.119125"><ele>311.0</ele><time>2026-03-29T07:34:26.581Z</time></trkpt><trkpt lat="38.4176983" lon="16.119425"><ele>311.0</ele><time>2026-03-29T07:34:27.581Z</time></trkpt><trkpt lat="38.41767" lon="16.119725"><ele>311.5</ele><time>2026-03-29T07:34:28.581Z</time></trkpt><trkpt lat="38.4176383" lon="16.1200267"><ele>312.0</ele><time>2026-03-29T07:34:29.581Z</time></trkpt><trkpt lat="38.41761" lon="16.1203317"><ele>312.0</ele><time>2026-03-29T07:34:30.581Z</time></trkpt><trkpt lat="38.4175717" lon="16.1206533"><ele>312.0</ele><time>2026-03-29T07:34:31.581Z</time></trkpt><trkpt lat="38.4175283" lon="16.12097"><ele>314.5</ele><time>2026-03-29T07:34:32.581Z</time></trkpt><trkpt lat="38.4174883" lon="16.1212767"><ele>317.0</ele><time>2026-03-29T07:34:33.581Z</time></trkpt><trkpt lat="38.4174467" lon="16.121605"><ele>319.5</ele><time>2026-03-29T07:34:34.581Z</time></trkpt><trkpt lat="38.4174067" lon="16.121935"><ele>322.0</ele><time>2026-03-29T07:34:35.581Z</time></trkpt><trkpt lat="38.4173667" lon="16.1222683"><ele>326.0</ele><time>2026-03-29T07:34:36.581Z</time></trkpt><trkpt lat="38.41731" lon="16.1226"><ele>330.0</ele><time>2026-03-29T07:34:37.581Z</time></trkpt><trkpt lat="38.417255" lon="16.1229267"><ele>327.5</ele><time>2026-03-29T07:34:38.581Z</time></trkpt><trkpt lat="38.4171917" lon="16.1232583"><ele>325.0</ele><time>2026-03-29T07:34:39.581Z</time></trkpt><trkpt lat="38.4171217" lon="16.1235933"><ele>325.0</ele><time>2026-03-29T07:34:40.581Z</time></trkpt><trkpt lat="38.41705" lon="16.1239233"><ele>325.0</ele><time>2026-03-29T07:34:41.581Z</time></trkpt><trkpt lat="38.4169733" lon="16.1242533"><ele>327.0</ele><time>2026-03-29T07:34:42.581Z</time></trkpt><trkpt lat="38.416885" lon="16.1245783"><ele>329.0</ele><time>2026-03-29T07:34:43.581Z</time></trkpt><trkpt lat="38.416785" lon="16.124915"><ele>330.0</ele><time>2026-03-29T07:34:44.581Z</time></trkpt><trkpt lat="38.4166717" lon="16.1252433"><ele>331.0</ele><time>2026-03-29T07:34:45.581Z</time></trkpt><trkpt lat="38.4165533" lon="16.125575"><ele>331.5</ele><time>2026-03-29T07:34:46.581Z</time></trkpt><trkpt lat="38.4164317" lon="16.1258983"><ele>332.0</ele><time>2026-03-29T07:34:47.581Z</time></trkpt><trkpt lat="38.4163067" lon="16.1262167"><ele>345.5</ele><time>2026-03-29T07:34:48.581Z</time></trkpt><trkpt lat="38.41619" lon="16.126515"><ele>359.0</ele><time>2026-03-29T07:34:49.581Z</time></trkpt><trkpt lat="38.4160783" lon="16.1267967"><ele>359.0</ele><time>2026-03-29T07:34:50.581Z</time></trkpt><trkpt lat="38.4159633" lon="16.1270667"><ele>359.0</ele><time>2026-03-29T07:34:51.582Z</time></trkpt><trkpt lat="38.41585" lon="16.12734"><ele>352.0</ele><time>2026-03-29T07:34:52.582Z</time></trkpt><trkpt lat="38.41573" lon="16.12761"><ele>345.0</ele><time>2026-03-29T07:34:53.582Z</time></trkpt><trkpt lat="38.4156133" lon="16.12788"><ele>345.0</ele><time>2026-03-29T07:34:54.582Z</time></trkpt><trkpt lat="38.4154967" lon="16.1281467"><ele>345.0</ele><time>2026-03-29T07:34:55.582Z</time></trkpt><trkpt lat="38.41538" lon="16.1284067"><ele>352.5</ele><time>2026-03-29T07:34:56.582Z</time></trkpt><trkpt lat="38.415265" lon="16.1286767"><ele>360.0</ele><time>2026-03-29T07:34:57.582Z</time></trkpt><trkpt lat="38.4151517" lon="16.1289467"><ele>357.5</ele><time>2026-03-29T07:34:58.582Z</time></trkpt><trkpt lat="38.4150283" lon="16.129215"><ele>355.0</ele><time>2026-03-29T07:34:59.582Z</time></trkpt><trkpt lat="38.41491" lon="16.1294817"><ele>355.0</ele><time>2026-03-29T07:35:00.582Z</time></trkpt><trkpt lat="38.4147917" lon="16.12974"><ele>355.0</ele><time>2026-03-29T07:35:01.582Z</time></trkpt><trkpt lat="38.4146783" lon="16.1299967"><ele>357.5</ele><time>2026-03-29T07:35:02.582Z</time></trkpt><trkpt lat="38.4145717" lon="16.1302583"><ele>360.0</ele><time>2026-03-29T07:35:03.582Z</time></trkpt><trkpt lat="38.4144633" lon="16.1305267"><ele>359.0</ele><time>2026-03-29T07:35:04.582Z</time></trkpt><trkpt lat="38.4143633" lon="16.130775"><ele>358.0</ele><time>2026-03-29T07:35:05.582Z</time></trkpt><trkpt lat="38.4142783" lon="16.1310017"><ele>357.0</ele><time>2026-03-29T07:35:06.582Z</time></trkpt><trkpt lat="38.414185" lon="16.131225"><ele>357.0</ele><time>2026-03-29T07:35:07.582Z</time></trkpt><trkpt lat="38.414105" lon="16.1314517"><ele>357.0</ele><time>2026-03-29T07:35:08.582Z</time></trkpt><trkpt lat="38.4140283" lon="16.1316933"><ele>357.0</ele><time>2026-03-29T07:35:09.582Z</time></trkpt><trkpt lat="38.41396" lon="16.1319433"><ele>359.3333333333333</ele><time>2026-03-29T07:35:10.582Z</time></trkpt><trkpt lat="38.4138967" lon="16.1321967"><ele>361.66666666666663</ele><time>2026-03-29T07:35:11.582Z</time></trkpt><trkpt lat="38.413845" lon="16.1324667"><ele>364.0</ele><time>2026-03-29T07:35:12.582Z</time></trkpt><trkpt lat="38.4137983" lon="16.1327467"><ele>366.5</ele><time>2026-03-29T07:35:13.582Z</time></trkpt><trkpt lat="38.4137633" lon="16.1330367"><ele>369.0</ele><time>2026-03-29T07:35:14.582Z</time></trkpt><trkpt lat="38.4137217" lon="16.1333317"><ele>372.0</ele><time>2026-03-29T07:35:15.582Z</time></trkpt><trkpt lat="38.4136883" lon="16.1336467"><ele>375.0</ele><time>2026-03-29T07:35:16.582Z</time></trkpt><trkpt lat="38.413655" lon="16.13397"><ele>376.5</ele><time>2026-03-29T07:35:17.582Z</time></trkpt><trkpt lat="38.4136317" lon="16.1342933"><ele>378.0</ele><time>2026-03-29T07:35:18.582Z</time></trkpt><trkpt lat="38.413605" lon="16.134635"><ele>383.5</ele><time>2026-03-29T07:35:19.582Z</time></trkpt><trkpt lat="38.4135733" lon="16.134985"><ele>389.0</ele><time>2026-03-29T07:35:20.582Z</time></trkpt><trkpt lat="38.4135383" lon="16.1353317"><ele>389.0</ele><time>2026-03-29T07:35:21.582Z</time></trkpt><trkpt lat="38.413505" lon="16.1356667"><ele>389.0</ele><time>2026-03-29T07:35:22.582Z</time></trkpt><trkpt lat="38.413465" lon="16.1359933"><ele>394.0</ele><time>2026-03-29T07:35:23.582Z</time></trkpt><trkpt lat="38.4134183" lon="16.1362967"><ele>399.0</ele><time>2026-03-29T07:35:24.582Z</time></trkpt><trkpt lat="38.4133717" lon="16.1366133"><ele>401.0</ele><time>2026-03-29T07:35:25.582Z</time></trkpt><trkpt lat="38.4132983" lon="16.1369233"><ele>403.0</ele><time>2026-03-29T07:35:26.582Z</time></trkpt><trkpt lat="38.4132167" lon="16.1372317"><ele>398.0</ele><time>2026-03-29T07:35:27.582Z</time></trkpt><trkpt lat="38.4131317" lon="16.1375367"><ele>393.0</ele><time>2026-03-29T07:35:28.582Z</time></trkpt><trkpt lat="38.4130317" lon="16.1378517"><ele>401.5</ele><time>2026-03-29T07:35:29.582Z</time></trkpt><trkpt lat="38.41292" lon="16.13816"><ele>410.0</ele><time>2026-03-29T07:35:30.582Z</time></trkpt><trkpt lat="38.4127933" lon="16.138455"><ele>410.0</ele><time>2026-03-29T07:35:31.582Z</time></trkpt><trkpt lat="38.4126533" lon="16.138745"><ele>410.0</ele><time>2026-03-29T07:35:32.582Z</time></trkpt><trkpt lat="38.4125133" lon="16.1390267"><ele>409.0</ele><time>2026-03-29T07:35:33.582Z</time></trkpt><trkpt lat="38.4123733" lon="16.1393117"><ele>408.0</ele><time>2026-03-29T07:35:34.582Z</time></trkpt><trkpt lat="38.412225" lon="16.1395967"><ele>416.0</ele><time>2026-03-29T07:35:35.582Z</time></trkpt><trkpt lat="38.4120683" lon="16.1398883"><ele>424.0</ele><time>2026-03-29T07:35:36.582Z</time></trkpt><trkpt lat="38.41191" lon="16.1401867"><ele>424.0</ele><time>2026-03-29T07:35:37.582Z</time></trkpt><trkpt lat="38.4117433" lon="16.1404717"><ele>424.0</ele><time>2026-03-29T07:35:38.582Z</time></trkpt><trkpt lat="38.4115783" lon="16.1407683"><ele>419.0</ele><time>2026-03-29T07:35:39.582Z</time></trkpt><trkpt lat="38.4114133" lon="16.14106"><ele>414.0</ele><time>2026-03-29T07:35:40.582Z</time></trkpt><trkpt lat="38.4112517" lon="16.141365"><ele>416.5</ele><time>2026-03-29T07:35:41.582Z</time></trkpt><trkpt lat="38.4110783" lon="16.1416617"><ele>419.0</ele><time>2026-03-29T07:35:42.582Z</time></trkpt><trkpt lat="38.4109117" lon="16.1419533"><ele>419.0</ele><time>2026-03-29T07:35:43.582Z</time></trkpt><trkpt lat="38.4107467" lon="16.1422483"><ele>419.0</ele><time>2026-03-29T07:35:44.582Z</time></trkpt><trkpt lat="38.4105817" lon="16.1425467"><ele>420.5</ele><time>2026-03-29T07:35:45.582Z</time></trkpt><trkpt lat="38.4104117" lon="16.1428467"><ele>422.0</ele><time>2026-03-29T07:35:46.582Z</time></trkpt><trkpt lat="38.410255" lon="16.1431383"><ele>424.5</ele><time>2026-03-29T07:35:47.582Z</time></trkpt><trkpt lat="38.410095" lon="16.1434367"><ele>427.0</ele><time>2026-03-29T07:35:48.582Z</time></trkpt><trkpt lat="38.4099417" lon="16.1437283"><ele>427.0</ele><time>2026-03-29T07:35:49.582Z</time></trkpt><trkpt lat="38.4097883" lon="16.1440233"><ele>427.0</ele><time>2026-03-29T07:35:50.582Z</time></trkpt><trkpt lat="38.409635" lon="16.144315"><ele>449.0</ele><time>2026-03-29T07:35:51.582Z</time></trkpt><trkpt lat="38.4094933" lon="16.1445967"><ele>471.0</ele><time>2026-03-29T07:35:52.582Z</time></trkpt><trkpt lat="38.4093417" lon="16.1448933"><ele>478.0</ele><time>2026-03-29T07:35:53.582Z</time></trkpt><trkpt lat="38.4092" lon="16.1451783"><ele>485.0</ele><time>2026-03-29T07:35:54.582Z</time></trkpt><trkpt lat="38.40905" lon="16.1454633"><ele>485.5</ele><time>2026-03-29T07:35:55.582Z</time></trkpt><trkpt lat="38.4088967" lon="16.1457483"><ele>486.0</ele><time>2026-03-29T07:35:56.582Z</time></trkpt><trkpt lat="38.4087333" lon="16.1460383"><ele>492.0</ele><time>2026-03-29T07:35:57.582Z</time></trkpt><trkpt lat="38.4085783" lon="16.14638"><ele>498.0</ele><time>2026-03-29T07:35:58.582Z</time></trkpt><trkpt lat="38.408415" lon="16.1466767"><ele>477.0</ele><time>2026-03-29T07:35:59.583Z</time></trkpt><trkpt lat="38.408235" lon="16.1469583"><ele>456.0</ele><time>2026-03-29T07:36:00.582Z</time></trkpt><trkpt lat="38.40805" lon="16.14725"><ele>459.0</ele><time>2026-03-29T07:36:01.582Z</time></trkpt><trkpt lat="38.407885" lon="16.1475533"><ele>462.0</ele><time>2026-03-29T07:36:02.582Z</time></trkpt><trkpt lat="38.4077133" lon="16.1478567"><ele>462.0</ele><time>2026-03-29T07:36:03.582Z</time></trkpt><trkpt lat="38.40755" lon="16.1481683"><ele>462.0</ele><time>2026-03-29T07:36:04.582Z</time></trkpt><trkpt lat="38.40738" lon="16.1484833"><ele>463.0</ele><time>2026-03-29T07:36:05.582Z</time></trkpt><trkpt lat="38.4072033" lon="16.1487983"><ele>464.0</ele><time>2026-03-29T07:36:06.582Z</time></trkpt><trkpt lat="38.4070317" lon="16.149115"><ele>464.0</ele><time>2026-03-29T07:36:07.582Z</time></trkpt><trkpt lat="38.4068733" lon="16.1494267"><ele>464.0</ele><time>2026-03-29T07:36:08.582Z</time></trkpt><trkpt lat="38.4067133" lon="16.14973"><ele>469.0</ele><time>2026-03-29T07:36:09.583Z</time></trkpt><trkpt lat="38.406555" lon="16.1500383"><ele>474.0</ele><time>2026-03-29T07:36:10.582Z</time></trkpt><trkpt lat="38.4064067" lon="16.1503367"><ele>474.5</ele><time>2026-03-29T07:36:11.582Z</time></trkpt><trkpt lat="38.40625" lon="16.15064"><ele>475.0</ele><time>2026-03-29T07:36:12.582Z</time></trkpt><trkpt lat="38.4060933" lon="16.1509467"><ele>475.0</ele><time>2026-03-29T07:36:13.582Z</time></trkpt><trkpt lat="38.40595" lon="16.1512433"><ele>475.0</ele><time>2026-03-29T07:36:14.582Z</time></trkpt><trkpt lat="38.4058067" lon="16.151555"><ele>476.0</ele><time>2026-03-29T07:36:15.583Z</time></trkpt><trkpt lat="38.4056633" lon="16.151865"><ele>477.0</ele><time>2026-03-29T07:36:16.582Z</time></trkpt><trkpt lat="38.4055283" lon="16.1521817"><ele>479.0</ele><time>2026-03-29T07:36:17.582Z</time></trkpt><trkpt lat="38.405395" lon="16.1524983"><ele>481.0</ele><time>2026-03-29T07:36:18.582Z</time></trkpt><trkpt lat="38.4052667" lon="16.15281"><ele>481.0</ele><time>2026-03-29T07:36:19.582Z</time></trkpt><trkpt lat="38.405145" lon="16.1531283"><ele>481.0</ele><time>2026-03-29T07:36:20.582Z</time></trkpt><trkpt lat="38.4050267" lon="16.1534567"><ele>483.5</ele><time>2026-03-29T07:36:21.582Z</time></trkpt><trkpt lat="38.4049117" lon="16.1537833"><ele>486.0</ele><time>2026-03-29T07:36:22.583Z</time></trkpt><trkpt lat="38.4048" lon="16.1541083"><ele>486.0</ele><time>2026-03-29T07:36:23.582Z</time></trkpt><trkpt lat="38.4046933" lon="16.154435"><ele>486.0</ele><time>2026-03-29T07:36:24.583Z</time></trkpt><trkpt lat="38.40459" lon="16.1547633"><ele>493.5</ele><time>2026-03-29T07:36:25.582Z</time></trkpt><trkpt lat="38.40449" lon="16.1550967"><ele>501.0</ele><time>2026-03-29T07:36:26.582Z</time></trkpt><trkpt lat="38.4043883" lon="16.15543"><ele>502.0</ele><time>2026-03-29T07:36:27.582Z</time></trkpt><trkpt lat="38.4042833" lon="16.1557667"><ele>503.0</ele><time>2026-03-29T07:36:28.582Z</time></trkpt><trkpt lat="38.4041733" lon="16.1561067"><ele>503.0</ele><time>2026-03-29T07:36:29.582Z</time></trkpt><trkpt lat="38.4040667" lon="16.156445"><ele>503.0</ele><time>2026-03-29T07:36:30.582Z</time></trkpt><trkpt lat="38.40398" lon="16.156795"><ele>503.5</ele><time>2026-03-29T07:36:31.582Z</time></trkpt><trkpt lat="38.4038817" lon="16.15715"><ele>504.0</ele><time>2026-03-29T07:36:32.582Z</time></trkpt><trkpt lat="38.4037967" lon="16.1574983"><ele>514.0</ele><time>2026-03-29T07:36:33.582Z</time></trkpt><trkpt lat="38.4037017" lon="16.157835"><ele>524.0</ele><time>2026-03-29T07:36:34.582Z</time></trkpt><trkpt lat="38.4036067" lon="16.1581717"><ele>522.5</ele><time>2026-03-29T07:36:35.582Z</time></trkpt><trkpt lat="38.40351" lon="16.1585033"><ele>521.0</ele><time>2026-03-29T07:36:36.582Z</time></trkpt><trkpt lat="38.403415" lon="16.1588217"><ele>523.5</ele><time>2026-03-29T07:36:37.582Z</time></trkpt><trkpt lat="38.4033267" lon="16.1591167"><ele>526.0</ele><time>2026-03-29T07:36:38.582Z</time></trkpt><trkpt lat="38.4032433" lon="16.159395"><ele>526.0</ele><time>2026-03-29T07:36:39.582Z</time></trkpt><trkpt lat="38.4031617" lon="16.159645"><ele>526.0</ele><time>2026-03-29T07:36:40.582Z</time></trkpt><trkpt lat="38.403085" lon="16.1598733"><ele>526.0</ele><time>2026-03-29T07:36:41.582Z</time></trkpt><trkpt lat="38.4030167" lon="16.1600567"><ele>530.8333333333334</ele><time>2026-03-29T07:36:42.582Z</time></trkpt><trkpt lat="38.4029583" lon="16.16018"><ele>535.6666666666667</ele><time>2026-03-29T07:36:43.582Z</time></trkpt><trkpt lat="38.4029183" lon="16.16028"><ele>540.5</ele><time>2026-03-29T07:36:44.582Z</time></trkpt><trkpt lat="38.4028783" lon="16.1603517"><ele>545.3333333333334</ele><time>2026-03-29T07:36:45.582Z</time></trkpt><trkpt lat="38.402795" lon="16.1603967"><ele>550.1666666666666</ele><time>2026-03-29T07:36:47.582Z</time></trkpt><trkpt lat="38.4027117" lon="16.16038"><ele>555.0</ele><time>2026-03-29T07:36:49.582Z</time></trkpt><trkpt lat="38.4026633" lon="16.160325"><ele>555.0</ele><time>2026-03-29T07:37:00.582Z</time></trkpt><trkpt lat="38.4025567" lon="16.160285"><ele>555.0</ele><time>2026-03-29T07:37:02.582Z</time></trkpt><trkpt lat="38.40247" lon="16.16026"><ele>555.0</ele><time>2026-03-29T07:37:03.582Z</time></trkpt><trkpt lat="38.4023767" lon="16.160245"><ele>555.0</ele><time>2026-03-29T07:37:04.582Z</time></trkpt><trkpt lat="38.40229" lon="16.1602567"><ele>555.0</ele><time>2026-03-29T07:37:05.582Z</time></trkpt><trkpt lat="38.4022117" lon="16.16029"><ele>556.6666666666666</ele><time>2026-03-29T07:37:06.582Z</time></trkpt><trkpt lat="38.4021467" lon="16.160325"><ele>558.3333333333334</ele><time>2026-03-29T07:37:07.582Z</time></trkpt><trkpt lat="38.4020917" lon="16.1603733"><ele>560.0</ele><time>2026-03-29T07:37:09.582Z</time></trkpt><trkpt lat="38.4020517" lon="16.16046"><ele>561.6666666666667</ele><time>2026-03-29T07:37:28.582Z</time></trkpt><trkpt lat="38.4020033" lon="16.1605933"><ele>563.3333333333334</ele><time>2026-03-29T07:37:30.582Z</time></trkpt><trkpt lat="38.4019717" lon="16.1606817"><ele>565.0</ele><time>2026-03-29T07:37:31.582Z</time></trkpt><trkpt lat="38.4019533" lon="16.1607967"><ele>565.0</ele><time>2026-03-29T07:37:32.582Z</time></trkpt><trkpt lat="38.40194" lon="16.160915"><ele>565.0</ele><time>2026-03-29T07:37:33.582Z</time></trkpt><trkpt lat="38.401945" lon="16.1610283"><ele>565.0</ele><time>2026-03-29T07:37:34.582Z</time></trkpt><trkpt lat="38.4019483" lon="16.1611367"><ele>565.0</ele><time>2026-03-29T07:37:35.582Z</time></trkpt><trkpt lat="38.401975" lon="16.1612567"><ele>565.0</ele><time>2026-03-29T07:37:36.582Z</time></trkpt><trkpt lat="38.4020217" lon="16.16138"><ele>565.0</ele><time>2026-03-29T07:37:37.582Z</time></trkpt><trkpt lat="38.4020933" lon="16.1614933"><ele>565.0</ele><time>2026-03-29T07:37:38.582Z</time></trkpt><trkpt lat="38.4021667" lon="16.161625"><ele>565.0</ele><time>2026-03-29T07:37:39.582Z</time></trkpt><trkpt lat="38.4022633" lon="16.1617483"><ele>565.0</ele><time>2026-03-29T07:37:40.582Z</time></trkpt><trkpt lat="38.40236" lon="16.161865"><ele>558.6</ele><time>2026-03-29T07:37:41.582Z</time></trkpt><trkpt lat="38.4024467" lon="16.1619667"><ele>552.2</ele><time>2026-03-29T07:37:42.582Z</time></trkpt><trkpt lat="38.4025183" lon="16.1620567"><ele>545.8</ele><time>2026-03-29T07:37:43.582Z</time></trkpt><trkpt lat="38.4025783" lon="16.1621283"><ele>539.4</ele><time>2026-03-29T07:37:44.582Z</time></trkpt><trkpt lat="38.402625" lon="16.1621883"><ele>533.0</ele><time>2026-03-29T07:37:45.582Z</time></trkpt><trkpt lat="38.4026933" lon="16.1622917"><ele>536.4</ele><time>2026-03-29T07:37:47.582Z</time></trkpt><trkpt lat="38.4027133" lon="16.1623917"><ele>539.8</ele><time>2026-03-29T07:37:49.582Z</time></trkpt><trkpt lat="38.4026617" lon="16.1625083"><ele>543.2</ele><time>2026-03-29T07:37:51.582Z</time></trkpt><trkpt lat="38.4025883" lon="16.1625817"><ele>546.6</ele><time>2026-03-29T07:37:52.582Z</time></trkpt><trkpt lat="38.40249" lon="16.1626717"><ele>550.0</ele><time>2026-03-29T07:37:53.582Z</time></trkpt><trkpt lat="38.4023617" lon="16.1628"><ele>550.0</ele><time>2026-03-29T07:37:54.582Z</time></trkpt><trkpt lat="38.4022433" lon="16.162945"><ele>550.0</ele><time>2026-03-29T07:37:55.582Z</time></trkpt><trkpt lat="38.4021317" lon="16.1630767"><ele>550.0</ele><time>2026-03-29T07:37:56.582Z</time></trkpt><trkpt lat="38.4020233" lon="16.1632333"><ele>552.6666666666667</ele><time>2026-03-29T07:37:57.582Z</time></trkpt><trkpt lat="38.4019167" lon="16.1633833"><ele>555.3333333333334</ele><time>2026-03-29T07:37:58.582Z</time></trkpt><trkpt lat="38.4018117" lon="16.1635483"><ele>558.0</ele><time>2026-03-29T07:37:59.582Z</time></trkpt><trkpt lat="38.401705" lon="16.1637017"><ele>558.0</ele><time>2026-03-29T07:38:00.582Z</time></trkpt><trkpt lat="38.4015967" lon="16.1638567"><ele>558.0</ele><time>2026-03-29T07:38:01.582Z</time></trkpt><trkpt lat="38.4014917" lon="16.16403"><ele>558.0</ele><time>2026-03-29T07:38:02.582Z</time></trkpt><trkpt lat="38.4015167" lon="16.1642933"><ele>561.6666666666666</ele><time>2026-03-29T07:38:03.582Z</time></trkpt><trkpt lat="38.4015883" lon="16.1645883"><ele>565.3333333333333</ele><time>2026-03-29T07:38:04.583Z</time></trkpt><trkpt lat="38.4015767" lon="16.1648283"><ele>569.0</ele><time>2026-03-29T07:38:05.582Z</time></trkpt><trkpt lat="38.4015317" lon="16.1650283"><ele>572.0</ele><time>2026-03-29T07:38:06.582Z</time></trkpt><trkpt lat="38.401505" lon="16.1652717"><ele>575.0</ele><time>2026-03-29T07:38:07.582Z</time></trkpt><trkpt lat="38.4014667" lon="16.165475"><ele>578.0</ele><time>2026-03-29T07:38:08.582Z</time></trkpt><trkpt lat="38.4013983" lon="16.1656867"><ele>578.0</ele><time>2026-03-29T07:38:09.582Z</time></trkpt><trkpt lat="38.4013183" lon="16.1658683"><ele>578.0</ele><time>2026-03-29T07:38:10.582Z</time></trkpt><trkpt lat="38.401235" lon="16.1660417"><ele>578.0</ele><time>2026-03-29T07:38:11.582Z</time></trkpt><trkpt lat="38.4011133" lon="16.166225"><ele>578.0</ele><time>2026-03-29T07:38:12.582Z</time></trkpt><trkpt lat="38.4009683" lon="16.166405"><ele>578.0</ele><time>2026-03-29T07:38:13.582Z</time></trkpt><trkpt lat="38.40082" lon="16.1665917"><ele>578.0</ele><time>2026-03-29T07:38:14.582Z</time></trkpt><trkpt lat="38.4006633" lon="16.1667567"><ele>580.6666666666666</ele><time>2026-03-29T07:38:15.582Z</time></trkpt><trkpt lat="38.4005217" lon="16.1669067"><ele>583.3333333333334</ele><time>2026-03-29T07:38:16.582Z</time></trkpt><trkpt lat="38.4003717" lon="16.1670433"><ele>586.0</ele><time>2026-03-29T07:38:17.582Z</time></trkpt><trkpt lat="38.4002067" lon="16.1671533"><ele>586.0</ele><time>2026-03-29T07:38:18.582Z</time></trkpt><trkpt lat="38.4000283" lon="16.1672617"><ele>586.0</ele><time>2026-03-29T07:38:19.582Z</time></trkpt><trkpt lat="38.3998217" lon="16.167345"><ele>586.0</ele><time>2026-03-29T07:38:20.582Z</time></trkpt><trkpt lat="38.3996283" lon="16.1674283"><ele>593.3333333333334</ele><time>2026-03-29T07:38:21.582Z</time></trkpt><trkpt lat="38.3994433" lon="16.167525"><ele>600.6666666666666</ele><time>2026-03-29T07:38:22.582Z</time></trkpt><trkpt lat="38.3992667" lon="16.1676367"><ele>608.0</ele><time>2026-03-29T07:38:23.582Z</time></trkpt><trkpt lat="38.39909" lon="16.1677683"><ele>608.0</ele><time>2026-03-29T07:38:24.582Z</time></trkpt><trkpt lat="38.398925" lon="16.16793"><ele>608.0</ele><time>2026-03-29T07:38:25.582Z</time></trkpt><trkpt lat="38.3987567" lon="16.1681183"><ele>608.0</ele><time>2026-03-29T07:38:26.582Z</time></trkpt><trkpt lat="38.3986133" lon="16.1683333"><ele>609.3333333333333</ele><time>2026-03-29T07:38:27.582Z</time></trkpt><trkpt lat="38.3984867" lon="16.1685533"><ele>610.6666666666666</ele><time>2026-03-29T07:38:28.582Z</time></trkpt><trkpt lat="38.3983617" lon="16.1687733"><ele>612.0</ele><time>2026-03-29T07:38:29.582Z</time></trkpt><trkpt lat="38.3982333" lon="16.1689867"><ele>618.3333333333334</ele><time>2026-03-29T07:38:30.582Z</time></trkpt><trkpt lat="38.3980883" lon="16.1691867"><ele>624.6666666666667</ele><time>2026-03-29T07:38:31.582Z</time></trkpt><trkpt lat="38.3979467" lon="16.16938"><ele>631.0</ele><time>2026-03-29T07:38:32.583Z</time></trkpt><trkpt lat="38.3977867" lon="16.1695717"><ele>631.0</ele><time>2026-03-29T07:38:33.582Z</time></trkpt><trkpt lat="38.397615" lon="16.1697883"><ele>631.0</ele><time>2026-03-29T07:38:34.582Z</time></trkpt><trkpt lat="38.3974433" lon="16.17001"><ele>632.0</ele><time>2026-03-29T07:38:35.582Z</time></trkpt><trkpt lat="38.397275" lon="16.170205"><ele>633.0</ele><time>2026-03-29T07:38:36.582Z</time></trkpt><trkpt lat="38.397125" lon="16.1703633"><ele>634.0</ele><time>2026-03-29T07:38:37.582Z</time></trkpt><trkpt lat="38.3969467" lon="16.1704933"><ele>635.3333333333334</ele><time>2026-03-29T07:38:38.582Z</time></trkpt><trkpt lat="38.3967717" lon="16.1706083"><ele>636.6666666666666</ele><time>2026-03-29T07:38:39.582Z</time></trkpt><trkpt lat="38.3965883" lon="16.1706883"><ele>638.0</ele><time>2026-03-29T07:38:40.582Z</time></trkpt><trkpt lat="38.396395" lon="16.1707633"><ele>639.6666666666666</ele><time>2026-03-29T07:38:41.582Z</time></trkpt><trkpt lat="38.3961933" lon="16.1708383"><ele>641.3333333333334</ele><time>2026-03-29T07:38:42.582Z</time></trkpt><trkpt lat="38.39599" lon="16.170895"><ele>643.0</ele><time>2026-03-29T07:38:43.582Z</time></trkpt><trkpt lat="38.3957817" lon="16.1709567"><ele>643.0</ele><time>2026-03-29T07:38:44.582Z</time></trkpt><trkpt lat="38.3955833" lon="16.1710133"><ele>643.0</ele><time>2026-03-29T07:38:45.582Z</time></trkpt><trkpt lat="38.3953833" lon="16.1710733"><ele>643.0</ele><time>2026-03-29T07:38:46.582Z</time></trkpt><trkpt lat="38.39518" lon="16.17113"><ele>649.0</ele><time>2026-03-29T07:38:47.582Z</time></trkpt><trkpt lat="38.3949733" lon="16.1711817"><ele>655.0</ele><time>2026-03-29T07:38:48.582Z</time></trkpt><trkpt lat="38.3947733" lon="16.17125"><ele>661.0</ele><time>2026-03-29T07:38:49.582Z</time></trkpt><trkpt lat="38.3945767" lon="16.17132"><ele>668.6666666666667</ele><time>2026-03-29T07:38:50.583Z</time></trkpt><trkpt lat="38.394385" lon="16.171395"><ele>676.3333333333334</ele><time>2026-03-29T07:38:51.582Z</time></trkpt><trkpt lat="38.394205" lon="16.1714833"><ele>684.0</ele><time>2026-03-29T07:38:52.582Z</time></trkpt><trkpt lat="38.3940233" lon="16.17159"><ele>684.0</ele><time>2026-03-29T07:38:53.582Z</time></trkpt><trkpt lat="38.3938617" lon="16.1717083"><ele>684.0</ele><time>2026-03-29T07:38:54.582Z</time></trkpt><trkpt lat="38.3937267" lon="16.1718117"><ele>684.0</ele><time>2026-03-29T07:38:55.582Z</time></trkpt><trkpt lat="38.3936067" lon="16.1719267"><ele>685.6666666666666</ele><time>2026-03-29T07:38:56.582Z</time></trkpt><trkpt lat="38.39349" lon="16.1720733"><ele>687.3333333333333</ele><time>2026-03-29T07:38:57.582Z</time></trkpt><trkpt lat="38.3933767" lon="16.17228"><ele>689.0</ele><time>2026-03-29T07:38:58.582Z</time></trkpt><trkpt lat="38.3932533" lon="16.172495"><ele>689.0</ele><time>2026-03-29T07:38:59.582Z</time></trkpt><trkpt lat="38.3931183" lon="16.17272"><ele>689.0</ele><time>2026-03-29T07:39:00.582Z</time></trkpt><trkpt lat="38.3929783" lon="16.172945"><ele>689.0</ele><time>2026-03-29T07:39:01.582Z</time></trkpt><trkpt lat="38.3928433" lon="16.17317"><ele>691.3333333333333</ele><time>2026-03-29T07:39:02.582Z</time></trkpt><trkpt lat="38.392715" lon="16.1733983"><ele>693.6666666666666</ele><time>2026-03-29T07:39:03.582Z</time></trkpt><trkpt lat="38.3925767" lon="16.173625"><ele>696.0</ele><time>2026-03-29T07:39:04.582Z</time></trkpt><trkpt lat="38.3924417" lon="16.1738583"><ele>695.3333333333334</ele><time>2026-03-29T07:39:05.582Z</time></trkpt><trkpt lat="38.39231" lon="16.17408"><ele>694.6666666666667</ele><time>2026-03-29T07:39:06.582Z</time></trkpt><trkpt lat="38.3921833" lon="16.174305"><ele>694.0</ele><time>2026-03-29T07:39:07.582Z</time></trkpt><trkpt lat="38.39206" lon="16.174545"><ele>696.3333333333334</ele><time>2026-03-29T07:39:08.582Z</time></trkpt><trkpt lat="38.391925" lon="16.1747617"><ele>698.6666666666666</ele><time>2026-03-29T07:39:09.582Z</time></trkpt><trkpt lat="38.3917983" lon="16.174985"><ele>701.0</ele><time>2026-03-29T07:39:10.582Z</time></trkpt><trkpt lat="38.3916783" lon="16.1752067"><ele>701.0</ele><time>2026-03-29T07:39:11.582Z</time></trkpt><trkpt lat="38.3915867" lon="16.175395"><ele>701.0</ele><time>2026-03-29T07:39:12.582Z</time></trkpt><trkpt lat="38.3915133" lon="16.1755833"><ele>701.0</ele><time>2026-03-29T07:39:13.582Z</time></trkpt><trkpt lat="38.391475" lon="16.1757633"><ele>701.25</ele><time>2026-03-29T07:39:14.582Z</time></trkpt><trkpt lat="38.3914583" lon="16.1759117"><ele>701.5</ele><time>2026-03-29T07:39:15.582Z</time></trkpt><trkpt lat="38.3914783" lon="16.17608"><ele>701.75</ele><time>2026-03-29T07:39:16.582Z</time></trkpt><trkpt lat="38.3915167" lon="16.1762267"><ele>702.0</ele><time>2026-03-29T07:39:17.582Z</time></trkpt><trkpt lat="38.3915833" lon="16.1763267"><ele>702.0</ele><time>2026-03-29T07:39:18.582Z</time></trkpt><trkpt lat="38.39166" lon="16.176425"><ele>702.0</ele><time>2026-03-29T07:39:19.582Z</time></trkpt><trkpt lat="38.3917567" lon="16.1764867"><ele>702.0</ele><time>2026-03-29T07:39:20.582Z</time></trkpt><trkpt lat="38.39187" lon="16.1765283"><ele>702.0</ele><time>2026-03-29T07:39:21.582Z</time></trkpt><trkpt lat="38.3919933" lon="16.176575"><ele>707.0</ele><time>2026-03-29T07:39:22.582Z</time></trkpt><trkpt lat="38.392125" lon="16.1766333"><ele>712.0</ele><time>2026-03-29T07:39:23.582Z</time></trkpt><trkpt lat="38.3922283" lon="16.176715"><ele>717.0</ele><time>2026-03-29T07:39:24.582Z</time></trkpt><trkpt lat="38.392315" lon="16.1768217"><ele>722.0</ele><time>2026-03-29T07:39:25.582Z</time></trkpt><trkpt lat="38.3923817" lon="16.1769517"><ele>722.5</ele><time>2026-03-29T07:39:26.582Z</time></trkpt><trkpt lat="38.3924383" lon="16.1770867"><ele>723.0</ele><time>2026-03-29T07:39:27.582Z</time></trkpt><trkpt lat="38.3924767" lon="16.177235"><ele>723.5</ele><time>2026-03-29T07:39:28.582Z</time></trkpt><trkpt lat="38.3925033" lon="16.1774167"><ele>724.0</ele><time>2026-03-29T07:39:29.582Z</time></trkpt><trkpt lat="38.3925467" lon="16.1775783"><ele>726.5</ele><time>2026-03-29T07:39:30.583Z</time></trkpt><trkpt lat="38.39261" lon="16.17772"><ele>729.0</ele><time>2026-03-29T07:39:31.582Z</time></trkpt><trkpt lat="38.3926967" lon="16.1778383"><ele>731.5</ele><time>2026-03-29T07:39:32.582Z</time></trkpt><trkpt lat="38.392795" lon="16.1779383"><ele>734.0</ele><time>2026-03-29T07:39:33.582Z</time></trkpt><trkpt lat="38.3929117" lon="16.1780283"><ele>740.25</ele><time>2026-03-29T07:39:34.582Z</time></trkpt><trkpt lat="38.393025" lon="16.1781167"><ele>746.5</ele><time>2026-03-29T07:39:35.582Z</time></trkpt><trkpt lat="38.3931267" lon="16.17823"><ele>752.75</ele><time>2026-03-29T07:39:36.582Z</time></trkpt><trkpt lat="38.393205" lon="16.1783733"><ele>759.0</ele><time>2026-03-29T07:39:37.582Z</time></trkpt><trkpt lat="38.3932717" lon="16.17855"><ele>759.3333333333334</ele><time>2026-03-29T07:39:38.582Z</time></trkpt><trkpt lat="38.3933267" lon="16.17875"><ele>759.6666666666667</ele><time>2026-03-29T07:39:39.582Z</time></trkpt><trkpt lat="38.39338" lon="16.1789917"><ele>760.0</ele><time>2026-03-29T07:39:40.582Z</time></trkpt><trkpt lat="38.3934317" lon="16.1792317"><ele>760.0</ele><time>2026-03-29T07:39:41.582Z</time></trkpt><trkpt lat="38.39347" lon="16.1794317"><ele>760.0</ele><time>2026-03-29T07:39:42.582Z</time></trkpt><trkpt lat="38.3935233" lon="16.1795967"><ele>760.0</ele><time>2026-03-29T07:39:43.582Z</time></trkpt><trkpt lat="38.3936133" lon="16.1797267"><ele>760.0</ele><time>2026-03-29T07:39:44.582Z</time></trkpt><trkpt lat="38.3937133" lon="16.1798483"><ele>760.3333333333334</ele><time>2026-03-29T07:39:45.582Z</time></trkpt><trkpt lat="38.3938383" lon="16.17995"><ele>760.6666666666666</ele><time>2026-03-29T07:39:46.582Z</time></trkpt><trkpt lat="38.393965" lon="16.1800433"><ele>761.0</ele><time>2026-03-29T07:39:47.582Z</time></trkpt><trkpt lat="38.3940967" lon="16.1801633"><ele>761.0</ele><time>2026-03-29T07:39:48.582Z</time></trkpt><trkpt lat="38.3942317" lon="16.18033"><ele>761.0</ele><time>2026-03-29T07:39:49.582Z</time></trkpt><trkpt lat="38.39438" lon="16.18053"><ele>761.0</ele><time>2026-03-29T07:39:50.582Z</time></trkpt><trkpt lat="38.3945283" lon="16.1807417"><ele>764.3333333333333</ele><time>2026-03-29T07:39:51.582Z</time></trkpt><trkpt lat="38.3947017" lon="16.18092"><ele>767.6666666666666</ele><time>2026-03-29T07:39:52.582Z</time></trkpt><trkpt lat="38.3948817" lon="16.1810817"><ele>771.0</ele><time>2026-03-29T07:39:53.582Z</time></trkpt><trkpt lat="38.3950667" lon="16.18123"><ele>771.0</ele><time>2026-03-29T07:39:54.582Z</time></trkpt><trkpt lat="38.395225" lon="16.1813667"><ele>771.0</ele><time>2026-03-29T07:39:55.582Z</time></trkpt><trkpt lat="38.395355" lon="16.1815333"><ele>771.0</ele><time>2026-03-29T07:39:56.582Z</time></trkpt><trkpt lat="38.395475" lon="16.1817233"><ele>777.0</ele><time>2026-03-29T07:39:57.582Z</time></trkpt><trkpt lat="38.3955833" lon="16.1819167"><ele>783.0</ele><time>2026-03-29T07:39:58.582Z</time></trkpt><trkpt lat="38.395675" lon="16.1821233"><ele>789.0</ele><time>2026-03-29T07:39:59.582Z</time></trkpt><trkpt lat="38.39575" lon="16.18232"><ele>789.3333333333333</ele><time>2026-03-29T07:40:00.582Z</time></trkpt><trkpt lat="38.395805" lon="16.18251"><ele>789.6666666666666</ele><time>2026-03-29T07:40:01.582Z</time></trkpt><trkpt lat="38.395835" lon="16.1826983"><ele>790.0</ele><time>2026-03-29T07:40:02.583Z</time></trkpt><trkpt lat="38.395855" lon="16.1829067"><ele>790.0</ele><time>2026-03-29T07:40:03.582Z</time></trkpt><trkpt lat="38.3958467" lon="16.1831283"><ele>790.0</ele><time>2026-03-29T07:40:04.582Z</time></trkpt><trkpt lat="38.3958333" lon="16.18332"><ele>790.0</ele><time>2026-03-29T07:40:05.582Z</time></trkpt><trkpt lat="38.39581" lon="16.183515"><ele>790.6666666666666</ele><time>2026-03-29T07:40:06.582Z</time></trkpt><trkpt lat="38.3957683" lon="16.1837117"><ele>791.3333333333333</ele><time>2026-03-29T07:40:07.582Z</time></trkpt><trkpt lat="38.3957067" lon="16.18389"><ele>792.0</ele><time>2026-03-29T07:40:08.582Z</time></trkpt><trkpt lat="38.395645" lon="16.1840633"><ele>793.25</ele><time>2026-03-29T07:40:09.582Z</time></trkpt><trkpt lat="38.3955717" lon="16.1842283"><ele>794.5</ele><time>2026-03-29T07:40:10.582Z</time></trkpt><trkpt lat="38.3954883" lon="16.1843767"><ele>795.75</ele><time>2026-03-29T07:40:11.582Z</time></trkpt><trkpt lat="38.3954" lon="16.1845217"><ele>797.0</ele><time>2026-03-29T07:40:12.582Z</time></trkpt><trkpt lat="38.3953017" lon="16.18466"><ele>797.5</ele><time>2026-03-29T07:40:13.582Z</time></trkpt><trkpt lat="38.3951933" lon="16.1847733"><ele>798.0</ele><time>2026-03-29T07:40:14.582Z</time></trkpt><trkpt lat="38.39508" lon="16.1848633"><ele>798.5</ele><time>2026-03-29T07:40:15.582Z</time></trkpt><trkpt lat="38.3949617" lon="16.184965"><ele>799.0</ele><time>2026-03-29T07:40:16.582Z</time></trkpt><trkpt lat="38.3948183" lon="16.1850517"><ele>800.6666666666666</ele><time>2026-03-29T07:40:17.582Z</time></trkpt><trkpt lat="38.3946633" lon="16.1851417"><ele>802.3333333333333</ele><time>2026-03-29T07:40:18.582Z</time></trkpt><trkpt lat="38.394495" lon="16.185215"><ele>804.0</ele><time>2026-03-29T07:40:19.582Z</time></trkpt><trkpt lat="38.3943283" lon="16.185285"><ele>804.0</ele><time>2026-03-29T07:40:20.582Z</time></trkpt><trkpt lat="38.39416" lon="16.1853567"><ele>804.0</ele><time>2026-03-29T07:40:21.582Z</time></trkpt><trkpt lat="38.3940117" lon="16.1854367"><ele>804.0</ele><time>2026-03-29T07:40:22.582Z</time></trkpt><trkpt lat="38.39388" lon="16.1855283"><ele>804.75</ele><time>2026-03-29T07:40:23.582Z</time></trkpt><trkpt lat="38.3937617" lon="16.1856283"><ele>805.5</ele><time>2026-03-29T07:40:24.582Z</time></trkpt><trkpt lat="38.3936567" lon="16.185745"><ele>806.25</ele><time>2026-03-29T07:40:25.582Z</time></trkpt><trkpt lat="38.3935533" lon="16.1858683"><ele>807.0</ele><time>2026-03-29T07:40:26.582Z</time></trkpt><trkpt lat="38.39346" lon="16.1859967"><ele>807.25</ele><time>2026-03-29T07:40:27.582Z</time></trkpt><trkpt lat="38.3933667" lon="16.186135"><ele>807.5</ele><time>2026-03-29T07:40:28.582Z</time></trkpt><trkpt lat="38.393285" lon="16.18629"><ele>807.75</ele><time>2026-03-29T07:40:29.582Z</time></trkpt><trkpt lat="38.3932083" lon="16.1864633"><ele>808.0</ele><time>2026-03-29T07:40:30.582Z</time></trkpt><trkpt lat="38.3931417" lon="16.1866433"><ele>808.0</ele><time>2026-03-29T07:40:31.582Z</time></trkpt><trkpt lat="38.3930917" lon="16.186805"><ele>808.0</ele><time>2026-03-29T07:40:32.582Z</time></trkpt><trkpt lat="38.393055" lon="16.186955"><ele>808.0</ele><time>2026-03-29T07:40:33.582Z</time></trkpt><trkpt lat="38.3930267" lon="16.187095"><ele>808.0</ele><time>2026-03-29T07:40:34.582Z</time></trkpt><trkpt lat="38.3929983" lon="16.18722"><ele>808.9999999999999</ele><time>2026-03-29T07:40:35.582Z</time></trkpt><trkpt lat="38.39297" lon="16.1873133"><ele>810.0</ele><time>2026-03-29T07:40:36.582Z</time></trkpt><trkpt lat="38.3929317" lon="16.187395"><ele>811.0</ele><time>2026-03-29T07:40:37.582Z</time></trkpt><trkpt lat="38.3928767" lon="16.1874567"><ele>812.0</ele><time>2026-03-29T07:40:38.582Z</time></trkpt><trkpt lat="38.39281" lon="16.187525"><ele>812.9999999999999</ele><time>2026-03-29T07:40:39.582Z</time></trkpt><trkpt lat="38.3927667" lon="16.187605"><ele>814.0</ele><time>2026-03-29T07:40:40.582Z</time></trkpt><trkpt lat="38.39274" lon="16.187705"><ele>814.8000000000001</ele><time>2026-03-29T07:40:41.582Z</time></trkpt><trkpt lat="38.3927333" lon="16.18781"><ele>815.6</ele><time>2026-03-29T07:40:42.582Z</time></trkpt><trkpt lat="38.392755" lon="16.1879317"><ele>816.4</ele><time>2026-03-29T07:40:43.582Z</time></trkpt><trkpt lat="38.3927917" lon="16.1880617"><ele>817.2</ele><time>2026-03-29T07:40:44.582Z</time></trkpt><trkpt lat="38.392825" lon="16.1881733"><ele>818.0</ele><time>2026-03-29T07:40:45.582Z</time></trkpt><trkpt lat="38.392865" lon="16.1882567"><ele>817.3333333333334</ele><time>2026-03-29T07:40:46.582Z</time></trkpt><trkpt lat="38.3929033" lon="16.1883217"><ele>816.6666666666667</ele><time>2026-03-29T07:40:47.582Z</time></trkpt><trkpt lat="38.392995" lon="16.1883767"><ele>816.0</ele><time>2026-03-29T07:40:49.582Z</time></trkpt><trkpt lat="38.3930583" lon="16.188375"><ele>815.3333333333333</ele><time>2026-03-29T07:40:50.582Z</time></trkpt><trkpt lat="38.393135" lon="16.1883667"><ele>814.6666666666666</ele><time>2026-03-29T07:40:51.582Z</time></trkpt><trkpt lat="38.393215" lon="16.18835"><ele>814.0</ele><time>2026-03-29T07:40:52.582Z</time></trkpt><trkpt lat="38.393295" lon="16.188335"><ele>814.0</ele><time>2026-03-29T07:40:53.582Z</time></trkpt><trkpt lat="38.3933833" lon="16.188315"><ele>814.0</ele><time>2026-03-29T07:40:54.582Z</time></trkpt><trkpt lat="38.39347" lon="16.1882917"><ele>814.0</ele><time>2026-03-29T07:40:55.582Z</time></trkpt><trkpt lat="38.3935567" lon="16.1882633"><ele>814.0</ele><time>2026-03-29T07:40:56.582Z</time></trkpt><trkpt lat="38.3936433" lon="16.1882367"><ele>814.0</ele><time>2026-03-29T07:40:57.582Z</time></trkpt><trkpt lat="38.3937367" lon="16.188205"><ele>813.4000000000001</ele><time>2026-03-29T07:40:58.582Z</time></trkpt><trkpt lat="38.3938367" lon="16.18817"><ele>812.8</ele><time>2026-03-29T07:40:59.582Z</time></trkpt><trkpt lat="38.3939383" lon="16.1881417"><ele>812.2</ele><time>2026-03-29T07:41:00.582Z</time></trkpt><trkpt lat="38.39403" lon="16.1881217"><ele>811.5999999999999</ele><time>2026-03-29T07:41:01.582Z</time></trkpt><trkpt lat="38.3941017" lon="16.1881167"><ele>811.0</ele><time>2026-03-29T07:41:02.582Z</time></trkpt><trkpt lat="38.3941933" lon="16.1880983"><ele>812.1666666666666</ele><time>2026-03-29T07:41:04.582Z</time></trkpt><trkpt lat="38.3942633" lon="16.1880867"><ele>813.3333333333333</ele><time>2026-03-29T07:41:09.582Z</time></trkpt><trkpt lat="38.3943267" lon="16.1880767"><ele>814.5</ele><time>2026-03-29T07:43:44.583Z</time></trkpt><trkpt lat="38.39445" lon="16.1880433"><ele>815.6666666666667</ele><time>2026-03-29T07:43:46.583Z</time></trkpt><trkpt lat="38.39452" lon="16.188025"><ele>816.8333333333334</ele><time>2026-03-29T07:43:47.583Z</time></trkpt><trkpt lat="38.3945983" lon="16.1879983"><ele>818.0</ele><time>2026-03-29T07:43:48.583Z</time></trkpt><trkpt lat="38.3946817" lon="16.1879783"><ele>818.4</ele><time>2026-03-29T07:43:49.583Z</time></trkpt><trkpt lat="38.39477" lon="16.1879533"><ele>818.8</ele><time>2026-03-29T07:43:50.583Z</time></trkpt><trkpt lat="38.39487" lon="16.1879183"><ele>819.2</ele><time>2026-03-29T07:43:51.583Z</time></trkpt><trkpt lat="38.39497" lon="16.1878817"><ele>819.6</ele><time>2026-03-29T07:43:52.583Z</time></trkpt><trkpt lat="38.3950683" lon="16.1878283"><ele>820.0</ele><time>2026-03-29T07:43:53.584Z</time></trkpt><trkpt lat="38.3951883" lon="16.187775"><ele>820.0</ele><time>2026-03-29T07:43:54.583Z</time></trkpt><trkpt lat="38.3953133" lon="16.1877117"><ele>820.0</ele><time>2026-03-29T07:43:55.583Z</time></trkpt><trkpt lat="38.3954433" lon="16.1876467"><ele>820.0</ele><time>2026-03-29T07:43:56.583Z</time></trkpt><trkpt lat="38.395585" lon="16.1875833"><ele>820.0</ele><time>2026-03-29T07:43:57.583Z</time></trkpt><trkpt lat="38.3957283" lon="16.1875217"><ele>820.0</ele><time>2026-03-29T07:43:58.583Z</time></trkpt><trkpt lat="38.3958583" lon="16.18745"><ele>820.0</ele><time>2026-03-29T07:43:59.583Z</time></trkpt><trkpt lat="38.3959783" lon="16.1873833"><ele>820.0</ele><time>2026-03-29T07:44:00.583Z</time></trkpt><trkpt lat="38.3961017" lon="16.1873167"><ele>820.0</ele><time>2026-03-29T07:44:01.583Z</time></trkpt><trkpt lat="38.3962217" lon="16.1872233"><ele>821.0</ele><time>2026-03-29T07:44:02.583Z</time></trkpt><trkpt lat="38.39633" lon="16.1871217"><ele>822.0</ele><time>2026-03-29T07:44:03.583Z</time></trkpt><trkpt lat="38.3964417" lon="16.187025"><ele>823.0</ele><time>2026-03-29T07:44:04.583Z</time></trkpt><trkpt lat="38.3965483" lon="16.186925"><ele>824.0</ele><time>2026-03-29T07:44:05.583Z</time></trkpt><trkpt lat="38.3966567" lon="16.1868367"><ele>824.0</ele><time>2026-03-29T07:44:06.583Z</time></trkpt><trkpt lat="38.3967617" lon="16.1867283"><ele>824.0</ele><time>2026-03-29T07:44:07.583Z</time></trkpt><trkpt lat="38.39686" lon="16.186625"><ele>824.0</ele><time>2026-03-29T07:44:08.583Z</time></trkpt><trkpt lat="38.3969517" lon="16.1865117"><ele>824.0</ele><time>2026-03-29T07:44:09.583Z</time></trkpt><trkpt lat="38.3970383" lon="16.1864"><ele>823.5</ele><time>2026-03-29T07:44:10.583Z</time></trkpt><trkpt lat="38.3971233" lon="16.1862733"><ele>823.0</ele><time>2026-03-29T07:44:11.583Z</time></trkpt><trkpt lat="38.3972067" lon="16.186155"><ele>822.5</ele><time>2026-03-29T07:44:12.583Z</time></trkpt><trkpt lat="38.397285" lon="16.1860467"><ele>822.0</ele><time>2026-03-29T07:44:13.583Z</time></trkpt><trkpt lat="38.3973767" lon="16.185955"><ele>822.0</ele><time>2026-03-29T07:44:14.583Z</time></trkpt><trkpt lat="38.3974817" lon="16.1858883"><ele>822.0</ele><time>2026-03-29T07:44:15.583Z</time></trkpt><trkpt lat="38.39758" lon="16.1858433"><ele>822.0</ele><time>2026-03-29T07:44:16.583Z</time></trkpt><trkpt lat="38.397695" lon="16.185825"><ele>822.0</ele><time>2026-03-29T07:44:17.583Z</time></trkpt><trkpt lat="38.39782" lon="16.1858283"><ele>822.0</ele><time>2026-03-29T07:44:18.583Z</time></trkpt><trkpt lat="38.39794" lon="16.1858317"><ele>822.0</ele><time>2026-03-29T07:44:19.583Z</time></trkpt><trkpt lat="38.3980633" lon="16.185805"><ele>822.0</ele><time>2026-03-29T07:44:20.583Z</time></trkpt><trkpt lat="38.3981867" lon="16.1857733"><ele>822.0</ele><time>2026-03-29T07:44:21.584Z</time></trkpt><trkpt lat="38.39831" lon="16.1857367"><ele>822.75</ele><time>2026-03-29T07:44:22.583Z</time></trkpt><trkpt lat="38.3984383" lon="16.1857033"><ele>823.5</ele><time>2026-03-29T07:44:23.583Z</time></trkpt><trkpt lat="38.3985617" lon="16.1856667"><ele>824.25</ele><time>2026-03-29T07:44:24.583Z</time></trkpt><trkpt lat="38.3986917" lon="16.1856267"><ele>825.0</ele><time>2026-03-29T07:44:25.583Z</time></trkpt><trkpt lat="38.3988167" lon="16.1855883"><ele>826.75</ele><time>2026-03-29T07:44:26.583Z</time></trkpt><trkpt lat="38.398945" lon="16.1855467"><ele>828.5</ele><time>2026-03-29T07:44:27.583Z</time></trkpt><trkpt lat="38.399065" lon="16.1854917"><ele>830.25</ele><time>2026-03-29T07:44:28.583Z</time></trkpt><trkpt lat="38.3991683" lon="16.1854217"><ele>832.0</ele><time>2026-03-29T07:44:29.583Z</time></trkpt><trkpt lat="38.39926" lon="16.1853383"><ele>832.0</ele><time>2026-03-29T07:44:30.584Z</time></trkpt><trkpt lat="38.3993367" lon="16.1852183"><ele>832.0</ele><time>2026-03-29T07:44:31.583Z</time></trkpt><trkpt lat="38.3993983" lon="16.1850833"><ele>832.0</ele><time>2026-03-29T07:44:32.583Z</time></trkpt><trkpt lat="38.399455" lon="16.1849367"><ele>832.0</ele><time>2026-03-29T07:44:33.583Z</time></trkpt><trkpt lat="38.39951" lon="16.18477"><ele>831.6666666666666</ele><time>2026-03-29T07:44:34.583Z</time></trkpt><trkpt lat="38.3995917" lon="16.1845967"><ele>831.3333333333333</ele><time>2026-03-29T07:44:35.583Z</time></trkpt><trkpt lat="38.399695" lon="16.1844317"><ele>831.0</ele><time>2026-03-29T07:44:36.583Z</time></trkpt><trkpt lat="38.3998083" lon="16.1842833"><ele>832.3333333333333</ele><time>2026-03-29T07:44:37.583Z</time></trkpt><trkpt lat="38.3999433" lon="16.18415"><ele>833.6666666666666</ele><time>2026-03-29T07:44:38.583Z</time></trkpt><trkpt lat="38.400065" lon="16.18403"><ele>835.0</ele><time>2026-03-29T07:44:39.583Z</time></trkpt><trkpt lat="38.4001733" lon="16.1839117"><ele>837.5</ele><time>2026-03-29T07:44:40.583Z</time></trkpt><trkpt lat="38.4002767" lon="16.1837833"><ele>840.0</ele><time>2026-03-29T07:44:41.583Z</time></trkpt><trkpt lat="38.400365" lon="16.1836517"><ele>842.5</ele><time>2026-03-29T07:44:42.583Z</time></trkpt><trkpt lat="38.4004367" lon="16.1835233"><ele>845.0</ele><time>2026-03-29T07:44:43.583Z</time></trkpt><trkpt lat="38.4005017" lon="16.1833867"><ele>846.0</ele><time>2026-03-29T07:44:44.583Z</time></trkpt><trkpt lat="38.4005533" lon="16.18326"><ele>847.0</ele><time>2026-03-29T07:44:45.583Z</time></trkpt><trkpt lat="38.4005933" lon="16.18314"><ele>848.0</ele><time>2026-03-29T07:44:46.583Z</time></trkpt><trkpt lat="38.40064" lon="16.1830117"><ele>849.0</ele><time>2026-03-29T07:44:47.583Z</time></trkpt><trkpt lat="38.4007" lon="16.182875"><ele>850.0</ele><time>2026-03-29T07:44:48.583Z</time></trkpt><trkpt lat="38.4007733" lon="16.1827533"><ele>850.5</ele><time>2026-03-29T07:44:49.583Z</time></trkpt><trkpt lat="38.40085" lon="16.1826417"><ele>851.0</ele><time>2026-03-29T07:44:50.583Z</time></trkpt><trkpt lat="38.400945" lon="16.182535"><ele>851.5</ele><time>2026-03-29T07:44:51.583Z</time></trkpt><trkpt lat="38.401045" lon="16.18243"><ele>852.0</ele><time>2026-03-29T07:44:52.583Z</time></trkpt><trkpt lat="38.4011433" lon="16.18233"><ele>852.0</ele><time>2026-03-29T07:44:53.583Z</time></trkpt><trkpt lat="38.40125" lon="16.1822483"><ele>852.0</ele><time>2026-03-29T07:44:54.583Z</time></trkpt><trkpt lat="38.4013583" lon="16.1821833"><ele>852.0</ele><time>2026-03-29T07:44:55.583Z</time></trkpt><trkpt lat="38.4014767" lon="16.1821417"><ele>852.0</ele><time>2026-03-29T07:44:56.583Z</time></trkpt><trkpt lat="38.4015933" lon="16.18212"><ele>853.8</ele><time>2026-03-29T07:44:57.583Z</time></trkpt><trkpt lat="38.4017067" lon="16.182125"><ele>855.6</ele><time>2026-03-29T07:44:58.583Z</time></trkpt><trkpt lat="38.4018133" lon="16.1821417"><ele>857.3999999999999</ele><time>2026-03-29T07:44:59.583Z</time></trkpt><trkpt lat="38.4019267" lon="16.1821533"><ele>859.1999999999999</ele><time>2026-03-29T07:45:00.583Z</time></trkpt><trkpt lat="38.4020367" lon="16.1821733"><ele>861.0</ele><time>2026-03-29T07:45:01.583Z</time></trkpt><trkpt lat="38.4021517" lon="16.1821917"><ele>863.0</ele><time>2026-03-29T07:45:02.583Z</time></trkpt><trkpt lat="38.4022733" lon="16.1822133"><ele>865.0</ele><time>2026-03-29T07:45:03.583Z</time></trkpt><trkpt lat="38.4023883" lon="16.182235"><ele>867.0</ele><time>2026-03-29T07:45:04.583Z</time></trkpt><trkpt lat="38.4025067" lon="16.1822367"><ele>869.0</ele><time>2026-03-29T07:45:05.583Z</time></trkpt><trkpt lat="38.4026217" lon="16.18223"><ele>869.0</ele><time>2026-03-29T07:45:06.583Z</time></trkpt><trkpt lat="38.4027383" lon="16.1822"><ele>869.0</ele><time>2026-03-29T07:45:07.583Z</time></trkpt><trkpt lat="38.4028567" lon="16.1821567"><ele>869.0</ele><time>2026-03-29T07:45:08.583Z</time></trkpt><trkpt lat="38.4029767" lon="16.1820983"><ele>869.0</ele><time>2026-03-29T07:45:09.583Z</time></trkpt><trkpt lat="38.4030933" lon="16.1820317"><ele>871.0</ele><time>2026-03-29T07:45:10.584Z</time></trkpt><trkpt lat="38.4032033" lon="16.1819533"><ele>873.0</ele><time>2026-03-29T07:45:11.583Z</time></trkpt><trkpt lat="38.4032983" lon="16.1818783"><ele>875.0</ele><time>2026-03-29T07:45:12.583Z</time></trkpt><trkpt lat="38.4033867" lon="16.1817983"><ele>877.0</ele><time>2026-03-29T07:45:13.583Z</time></trkpt><trkpt lat="38.4034883" lon="16.1817133"><ele>877.0</ele><time>2026-03-29T07:45:14.583Z</time></trkpt><trkpt lat="38.4035983" lon="16.1816267"><ele>877.0</ele><time>2026-03-29T07:45:15.583Z</time></trkpt><trkpt lat="38.4037117" lon="16.1815367"><ele>877.0</ele><time>2026-03-29T07:45:16.583Z</time></trkpt><trkpt lat="38.403835" lon="16.18144"><ele>877.0</ele><time>2026-03-29T07:45:17.583Z</time></trkpt><trkpt lat="38.403955" lon="16.181355"><ele>879.25</ele><time>2026-03-29T07:45:18.583Z</time></trkpt><trkpt lat="38.404075" lon="16.181285"><ele>881.5</ele><time>2026-03-29T07:45:19.583Z</time></trkpt><trkpt lat="38.40419" lon="16.181225"><ele>883.75</ele><time>2026-03-29T07:45:20.583Z</time></trkpt><trkpt lat="38.4043067" lon="16.1811533"><ele>886.0</ele><time>2026-03-29T07:45:21.583Z</time></trkpt><trkpt lat="38.4044183" lon="16.181085"><ele>886.0</ele><time>2026-03-29T07:45:22.583Z</time></trkpt><trkpt lat="38.404545" lon="16.181015"><ele>886.0</ele><time>2026-03-29T07:45:23.583Z</time></trkpt><trkpt lat="38.40466" lon="16.1809667"><ele>886.0</ele><time>2026-03-29T07:45:24.583Z</time></trkpt><trkpt lat="38.4047633" lon="16.18093"><ele>886.0</ele><time>2026-03-29T07:45:25.583Z</time></trkpt><trkpt lat="38.4048583" lon="16.1809017"><ele>888.75</ele><time>2026-03-29T07:45:26.584Z</time></trkpt><trkpt lat="38.4049483" lon="16.18088"><ele>891.5</ele><time>2026-03-29T07:45:27.583Z</time></trkpt><trkpt lat="38.4050583" lon="16.1808633"><ele>894.25</ele><time>2026-03-29T07:45:28.583Z</time></trkpt><trkpt lat="38.4051783" lon="16.1808383"><ele>897.0</ele><time>2026-03-29T07:45:29.583Z</time></trkpt><trkpt lat="38.4053017" lon="16.1808033"><ele>897.0</ele><time>2026-03-29T07:45:30.583Z</time></trkpt><trkpt lat="38.4054117" lon="16.1807667"><ele>897.0</ele><time>2026-03-29T07:45:31.583Z</time></trkpt><trkpt lat="38.4055267" lon="16.1807217"><ele>897.0</ele><time>2026-03-29T07:45:32.583Z</time></trkpt><trkpt lat="38.40563" lon="16.1806633"><ele>897.0</ele><time>2026-03-29T07:45:33.583Z</time></trkpt><trkpt lat="38.4057433" lon="16.1806067"><ele>895.25</ele><time>2026-03-29T07:45:34.583Z</time></trkpt><trkpt lat="38.4058617" lon="16.180545"><ele>893.5</ele><time>2026-03-29T07:45:35.583Z</time></trkpt><trkpt lat="38.4059767" lon="16.1804717"><ele>891.75</ele><time>2026-03-29T07:45:36.583Z</time></trkpt><trkpt lat="38.40609" lon="16.1803917"><ele>890.0</ele><time>2026-03-29T07:45:37.583Z</time></trkpt><trkpt lat="38.40621" lon="16.180295"><ele>888.75</ele><time>2026-03-29T07:45:38.583Z</time></trkpt><trkpt lat="38.4063367" lon="16.1801933"><ele>887.5</ele><time>2026-03-29T07:45:39.583Z</time></trkpt><trkpt lat="38.40646" lon="16.18009"><ele>886.25</ele><time>2026-03-29T07:45:40.583Z</time></trkpt><trkpt lat="38.4065783" lon="16.1799783"><ele>885.0</ele><time>2026-03-29T07:45:41.583Z</time></trkpt><trkpt lat="38.4066867" lon="16.1798783"><ele>884.5</ele><time>2026-03-29T07:45:42.583Z</time></trkpt><trkpt lat="38.4068067" lon="16.17977"><ele>884.0</ele><time>2026-03-29T07:45:43.583Z</time></trkpt><trkpt lat="38.40693" lon="16.1796633"><ele>883.5</ele><time>2026-03-29T07:45:44.583Z</time></trkpt><trkpt lat="38.4070383" lon="16.179565"><ele>883.0</ele><time>2026-03-29T07:45:45.584Z</time></trkpt><trkpt lat="38.4071433" lon="16.1794733"><ele>883.0</ele><time>2026-03-29T07:45:46.583Z</time></trkpt><trkpt lat="38.407245" lon="16.1793733"><ele>883.0</ele><time>2026-03-29T07:45:47.583Z</time></trkpt><trkpt lat="38.4073567" lon="16.1792733"><ele>883.0</ele><time>2026-03-29T07:45:48.583Z</time></trkpt><trkpt lat="38.4074717" lon="16.1791767"><ele>883.0</ele><time>2026-03-29T07:45:49.583Z</time></trkpt><trkpt lat="38.4075933" lon="16.1790767"><ele>883.0</ele><time>2026-03-29T07:45:50.583Z</time></trkpt><trkpt lat="38.4077117" lon="16.1789767"><ele>883.0</ele><time>2026-03-29T07:45:51.583Z</time></trkpt><trkpt lat="38.4078367" lon="16.1788683"><ele>883.0</ele><time>2026-03-29T07:45:52.583Z</time></trkpt><trkpt lat="38.4079517" lon="16.1787883"><ele>883.0</ele><time>2026-03-29T07:45:53.583Z</time></trkpt><trkpt lat="38.4080767" lon="16.178715"><ele>883.0</ele><time>2026-03-29T07:45:54.583Z</time></trkpt><trkpt lat="38.4082183" lon="16.178645"><ele>883.0</ele><time>2026-03-29T07:45:55.583Z</time></trkpt><trkpt lat="38.408365" lon="16.178595"><ele>883.0</ele><time>2026-03-29T07:45:56.583Z</time></trkpt><trkpt lat="38.4085167" lon="16.1785733"><ele>883.0</ele><time>2026-03-29T07:45:57.583Z</time></trkpt><trkpt lat="38.40867" lon="16.1785633"><ele>883.0</ele><time>2026-03-29T07:45:58.583Z</time></trkpt><trkpt lat="38.4088133" lon="16.178555"><ele>883.0</ele><time>2026-03-29T07:45:59.583Z</time></trkpt><trkpt lat="38.4089583" lon="16.1785567"><ele>883.0</ele><time>2026-03-29T07:46:00.583Z</time></trkpt><trkpt lat="38.4091" lon="16.178555"><ele>883.75</ele><time>2026-03-29T07:46:01.583Z</time></trkpt><trkpt lat="38.4092417" lon="16.1785533"><ele>884.5</ele><time>2026-03-29T07:46:02.583Z</time></trkpt><trkpt lat="38.409385" lon="16.17855"><ele>885.25</ele><time>2026-03-29T07:46:03.583Z</time></trkpt><trkpt lat="38.4095367" lon="16.178545"><ele>886.0</ele><time>2026-03-29T07:46:04.583Z</time></trkpt><trkpt lat="38.40969" lon="16.178545"><ele>886.0</ele><time>2026-03-29T07:46:05.583Z</time></trkpt><trkpt lat="38.4098333" lon="16.178545"><ele>886.0</ele><time>2026-03-29T07:46:06.583Z</time></trkpt><trkpt lat="38.4099767" lon="16.1785383"><ele>886.0</ele><time>2026-03-29T07:46:07.583Z</time></trkpt><trkpt lat="38.410115" lon="16.1785217"><ele>886.0</ele><time>2026-03-29T07:46:08.583Z</time></trkpt><trkpt lat="38.4102417" lon="16.1784933"><ele>886.0</ele><time>2026-03-29T07:46:09.583Z</time></trkpt><trkpt lat="38.41037" lon="16.1784233"><ele>886.0</ele><time>2026-03-29T07:46:10.583Z</time></trkpt><trkpt lat="38.410495" lon="16.178325"><ele>886.0</ele><time>2026-03-29T07:46:11.583Z</time></trkpt><trkpt lat="38.410625" lon="16.1781967"><ele>886.0</ele><time>2026-03-29T07:46:12.583Z</time></trkpt><trkpt lat="38.4107417" lon="16.178075"><ele>886.0</ele><time>2026-03-29T07:46:13.583Z</time></trkpt><trkpt lat="38.4108633" lon="16.1779367"><ele>886.0</ele><time>2026-03-29T07:46:14.583Z</time></trkpt><trkpt lat="38.4109883" lon="16.1778067"><ele>886.0</ele><time>2026-03-29T07:46:15.583Z</time></trkpt><trkpt lat="38.4111167" lon="16.1776833"><ele>886.0</ele><time>2026-03-29T07:46:16.583Z</time></trkpt><trkpt lat="38.41125" lon="16.1775583"><ele>886.0</ele><time>2026-03-29T07:46:17.583Z</time></trkpt><trkpt lat="38.411375" lon="16.1774317"><ele>886.0</ele><time>2026-03-29T07:46:18.583Z</time></trkpt><trkpt lat="38.4114967" lon="16.1773267"><ele>886.0</ele><time>2026-03-29T07:46:19.583Z</time></trkpt><trkpt lat="38.41161" lon="16.177235"><ele>886.0</ele><time>2026-03-29T07:46:20.583Z</time></trkpt><trkpt lat="38.4117267" lon="16.17717"><ele>886.0</ele><time>2026-03-29T07:46:21.583Z</time></trkpt><trkpt lat="38.4118433" lon="16.177145"><ele>886.0</ele><time>2026-03-29T07:46:22.583Z</time></trkpt><trkpt lat="38.4119717" lon="16.17714"><ele>886.0</ele><time>2026-03-29T07:46:23.583Z</time></trkpt><trkpt lat="38.4121067" lon="16.177145"><ele>886.0</ele><time>2026-03-29T07:46:24.583Z</time></trkpt><trkpt lat="38.412235" lon="16.1771617"><ele>886.0</ele><time>2026-03-29T07:46:25.583Z</time></trkpt><trkpt lat="38.4123633" lon="16.1771467"><ele>889.25</ele><time>2026-03-29T07:46:26.583Z</time></trkpt><trkpt lat="38.41249" lon="16.17711"><ele>892.5</ele><time>2026-03-29T07:46:27.583Z</time></trkpt><trkpt lat="38.4126117" lon="16.17704"><ele>895.75</ele><time>2026-03-29T07:46:28.583Z</time></trkpt><trkpt lat="38.41271" lon="16.1769583"><ele>899.0</ele><time>2026-03-29T07:46:29.583Z</time></trkpt><trkpt lat="38.4127733" lon="16.176845"><ele>899.0</ele><time>2026-03-29T07:46:30.583Z</time></trkpt><trkpt lat="38.4128333" lon="16.1767183"><ele>899.0</ele><time>2026-03-29T07:46:31.583Z</time></trkpt><trkpt lat="38.4128817" lon="16.1765717"><ele>899.0</ele><time>2026-03-29T07:46:32.583Z</time></trkpt><trkpt lat="38.412945" lon="16.17645"><ele>899.0</ele><time>2026-03-29T07:46:33.583Z</time></trkpt><trkpt lat="38.4130183" lon="16.17637"><ele>898.0</ele><time>2026-03-29T07:46:34.583Z</time></trkpt><trkpt lat="38.4131167" lon="16.1763317"><ele>897.0</ele><time>2026-03-29T07:46:35.583Z</time></trkpt><trkpt lat="38.4132333" lon="16.1763383"><ele>896.0</ele><time>2026-03-29T07:46:36.584Z</time></trkpt><trkpt lat="38.41336" lon="16.1763767"><ele>895.0</ele><time>2026-03-29T07:46:37.583Z</time></trkpt><trkpt lat="38.413495" lon="16.1764267"><ele>895.0</ele><time>2026-03-29T07:46:38.583Z</time></trkpt><trkpt lat="38.4136567" lon="16.1764683"><ele>895.0</ele><time>2026-03-29T07:46:39.584Z</time></trkpt><trkpt lat="38.4138117" lon="16.1765083"><ele>895.0</ele><time>2026-03-29T07:46:40.583Z</time></trkpt><trkpt lat="38.41397" lon="16.1765517"><ele>900.0</ele><time>2026-03-29T07:46:41.583Z</time></trkpt><trkpt lat="38.4141367" lon="16.1765883"><ele>905.0</ele><time>2026-03-29T07:46:42.583Z</time></trkpt><trkpt lat="38.4142933" lon="16.1766433"><ele>910.0</ele><time>2026-03-29T07:46:43.583Z</time></trkpt><trkpt lat="38.4144617" lon="16.1766867"><ele>910.0</ele><time>2026-03-29T07:46:44.583Z</time></trkpt><trkpt lat="38.4146183" lon="16.1767367"><ele>910.0</ele><time>2026-03-29T07:46:45.583Z</time></trkpt><trkpt lat="38.4147683" lon="16.1767733"><ele>910.0</ele><time>2026-03-29T07:46:46.583Z</time></trkpt><trkpt lat="38.4149117" lon="16.1768083"><ele>909.75</ele><time>2026-03-29T07:46:47.583Z</time></trkpt><trkpt lat="38.415055" lon="16.1768283"><ele>909.5</ele><time>2026-03-29T07:46:48.583Z</time></trkpt><trkpt lat="38.4151933" lon="16.1768283"><ele>909.25</ele><time>2026-03-29T07:46:49.583Z</time></trkpt><trkpt lat="38.41534" lon="16.1767867"><ele>909.0</ele><time>2026-03-29T07:46:50.583Z</time></trkpt><trkpt lat="38.415475" lon="16.1767483"><ele>909.0</ele><time>2026-03-29T07:46:51.583Z</time></trkpt><trkpt lat="38.4155867" lon="16.1767317"><ele>909.0000000000001</ele><time>2026-03-29T07:46:52.583Z</time></trkpt><trkpt lat="38.4156933" lon="16.1767383"><ele>909.0000000000001</ele><time>2026-03-29T07:46:53.583Z</time></trkpt><trkpt lat="38.4157783" lon="16.1767833"><ele>909.0</ele><time>2026-03-29T07:46:54.583Z</time></trkpt><trkpt lat="38.415855" lon="16.1768567"><ele>909.0</ele><time>2026-03-29T07:46:55.583Z</time></trkpt><trkpt lat="38.41592" lon="16.1769767"><ele>909.0</ele><time>2026-03-29T07:46:56.583Z</time></trkpt><trkpt lat="38.4159883" lon="16.1771067"><ele>909.0000000000001</ele><time>2026-03-29T07:46:57.583Z</time></trkpt><trkpt lat="38.4160517" lon="16.1772233"><ele>909.0000000000001</ele><time>2026-03-29T07:46:58.583Z</time></trkpt><trkpt lat="38.41611" lon="16.1773217"><ele>909.0</ele><time>2026-03-29T07:46:59.583Z</time></trkpt><trkpt lat="38.4161667" lon="16.1774017"><ele>909.0</ele><time>2026-03-29T07:47:00.583Z</time></trkpt><trkpt lat="38.4162133" lon="16.1774667"><ele>909.0</ele><time>2026-03-29T07:47:01.583Z</time></trkpt><trkpt lat="38.4162767" lon="16.1775517"><ele>909.0000000000001</ele><time>2026-03-29T07:47:03.583Z</time></trkpt><trkpt lat="38.4163333" lon="16.1775933"><ele>909.0000000000001</ele><time>2026-03-29T07:47:06.583Z</time></trkpt><trkpt lat="38.416385" lon="16.17766"><ele>909.0</ele><time>2026-03-29T07:47:17.583Z</time></trkpt><trkpt lat="38.416455" lon="16.177765"><ele>909.0</ele><time>2026-03-29T07:48:06.583Z</time></trkpt><trkpt lat="38.4165417" lon="16.1778767"><ele>910.3333333333334</ele><time>2026-03-29T07:48:08.583Z</time></trkpt><trkpt lat="38.416595" lon="16.1779333"><ele>911.6666666666667</ele><time>2026-03-29T07:48:09.583Z</time></trkpt><trkpt lat="38.4166567" lon="16.177995"><ele>913.0</ele><time>2026-03-29T07:48:10.583Z</time></trkpt><trkpt lat="38.4167417" lon="16.17804"><ele>914.3333333333334</ele><time>2026-03-29T07:48:11.583Z</time></trkpt><trkpt lat="38.4168333" lon="16.1780667"><ele>915.6666666666667</ele><time>2026-03-29T07:48:12.583Z</time></trkpt><trkpt lat="38.416935" lon="16.17807"><ele>917.0</ele><time>2026-03-29T07:48:13.583Z</time></trkpt><trkpt lat="38.4170267" lon="16.1780317"><ele>917.0</ele><time>2026-03-29T07:48:14.583Z</time></trkpt><trkpt lat="38.4171117" lon="16.177975"><ele>917.0</ele><time>2026-03-29T07:48:15.583Z</time></trkpt><trkpt lat="38.4171983" lon="16.1778983"><ele>917.0</ele><time>2026-03-29T07:48:16.583Z</time></trkpt><trkpt lat="38.4172833" lon="16.177815"><ele>917.0</ele><time>2026-03-29T07:48:17.583Z</time></trkpt><trkpt lat="38.4173683" lon="16.1777167"><ele>917.0</ele><time>2026-03-29T07:48:18.583Z</time></trkpt><trkpt lat="38.4174633" lon="16.17763"><ele>921.0</ele><time>2026-03-29T07:48:19.583Z</time></trkpt><trkpt lat="38.4175567" lon="16.1775267"><ele>925.0</ele><time>2026-03-29T07:48:20.583Z</time></trkpt><trkpt lat="38.4176483" lon="16.1774033"><ele>929.0</ele><time>2026-03-29T07:48:21.583Z</time></trkpt><trkpt lat="38.417735" lon="16.177285"><ele>933.0</ele><time>2026-03-29T07:48:22.583Z</time></trkpt><trkpt lat="38.41782" lon="16.1771733"><ele>933.0</ele><time>2026-03-29T07:48:23.583Z</time></trkpt><trkpt lat="38.417895" lon="16.1770483"><ele>933.0</ele><time>2026-03-29T07:48:24.583Z</time></trkpt><trkpt lat="38.4179633" lon="16.1769217"><ele>933.0</ele><time>2026-03-29T07:48:25.583Z</time></trkpt><trkpt lat="38.41804" lon="16.1767733"><ele>933.0</ele><time>2026-03-29T07:48:26.583Z</time></trkpt><trkpt lat="38.4181017" lon="16.1766233"><ele>937.0</ele><time>2026-03-29T07:48:27.583Z</time></trkpt><trkpt lat="38.41815" lon="16.17647"><ele>941.0</ele><time>2026-03-29T07:48:28.583Z</time></trkpt><trkpt lat="38.418195" lon="16.176315"><ele>945.0</ele><time>2026-03-29T07:48:29.584Z</time></trkpt><trkpt lat="38.418245" lon="16.1761617"><ele>949.0</ele><time>2026-03-29T07:48:30.583Z</time></trkpt><trkpt lat="38.4183033" lon="16.1760183"><ele>949.0</ele><time>2026-03-29T07:48:31.583Z</time></trkpt><trkpt lat="38.4184" lon="16.1758733"><ele>949.0</ele><time>2026-03-29T07:48:32.583Z</time></trkpt><trkpt lat="38.4184767" lon="16.1757583"><ele>949.0</ele><time>2026-03-29T07:48:33.584Z</time></trkpt><trkpt lat="38.4185567" lon="16.175655"><ele>949.0</ele><time>2026-03-29T07:48:34.583Z</time></trkpt><trkpt lat="38.41864" lon="16.1755783"><ele>951.0</ele><time>2026-03-29T07:48:35.583Z</time></trkpt><trkpt lat="38.4187333" lon="16.1755183"><ele>953.0000000000001</ele><time>2026-03-29T07:48:36.583Z</time></trkpt><trkpt lat="38.4188233" lon="16.1754783"><ele>955.0000000000001</ele><time>2026-03-29T07:48:37.583Z</time></trkpt><trkpt lat="38.4189133" lon="16.1754467"><ele>957.0</ele><time>2026-03-29T07:48:38.583Z</time></trkpt><trkpt lat="38.4189967" lon="16.1754267"><ele>959.0</ele><time>2026-03-29T07:48:39.583Z</time></trkpt><trkpt lat="38.4190833" lon="16.1754283"><ele>959.0</ele><time>2026-03-29T07:48:40.583Z</time></trkpt><trkpt lat="38.4191667" lon="16.17546"><ele>959.0000000000001</ele><time>2026-03-29T07:48:41.583Z</time></trkpt><trkpt lat="38.4192567" lon="16.1755017"><ele>959.0000000000001</ele><time>2026-03-29T07:48:42.583Z</time></trkpt><trkpt lat="38.4193567" lon="16.1755617"><ele>959.0</ele><time>2026-03-29T07:48:43.583Z</time></trkpt><trkpt lat="38.4194517" lon="16.17565"><ele>959.0</ele><time>2026-03-29T07:48:44.583Z</time></trkpt><trkpt lat="38.41954" lon="16.17575"><ele>958.5</ele><time>2026-03-29T07:48:45.583Z</time></trkpt><trkpt lat="38.4196317" lon="16.17586"><ele>958.0</ele><time>2026-03-29T07:48:46.583Z</time></trkpt><trkpt lat="38.41973" lon="16.1759717"><ele>957.5</ele><time>2026-03-29T07:48:47.583Z</time></trkpt><trkpt lat="38.4198383" lon="16.1760783"><ele>957.0</ele><time>2026-03-29T07:48:48.583Z</time></trkpt><trkpt lat="38.4199633" lon="16.1761833"><ele>957.0</ele><time>2026-03-29T07:48:49.583Z</time></trkpt><trkpt lat="38.4200867" lon="16.1762933"><ele>957.0</ele><time>2026-03-29T07:48:50.583Z</time></trkpt><trkpt lat="38.4202233" lon="16.1764267"><ele>957.0</ele><time>2026-03-29T07:48:51.583Z</time></trkpt><trkpt lat="38.4203367" lon="16.1765383"><ele>959.0</ele><time>2026-03-29T07:48:52.583Z</time></trkpt><trkpt lat="38.4204283" lon="16.17664"><ele>961.0</ele><time>2026-03-29T07:48:53.583Z</time></trkpt><trkpt lat="38.420505" lon="16.176755"><ele>963.0</ele><time>2026-03-29T07:48:54.583Z</time></trkpt><trkpt lat="38.4205683" lon="16.1768967"><ele>965.0</ele><time>2026-03-29T07:48:55.583Z</time></trkpt><trkpt lat="38.4206217" lon="16.17705"><ele>965.0</ele><time>2026-03-29T07:48:56.583Z</time></trkpt><trkpt lat="38.4206483" lon="16.1772083"><ele>965.0</ele><time>2026-03-29T07:48:57.583Z</time></trkpt><trkpt lat="38.4206617" lon="16.17734"><ele>965.0</ele><time>2026-03-29T07:48:58.583Z</time></trkpt><trkpt lat="38.4206617" lon="16.1774667"><ele>965.0</ele><time>2026-03-29T07:48:59.583Z</time></trkpt><trkpt lat="38.4206517" lon="16.1775917"><ele>965.0</ele><time>2026-03-29T07:49:00.583Z</time></trkpt><trkpt lat="38.42063" lon="16.1777133"><ele>967.4</ele><time>2026-03-29T07:49:01.583Z</time></trkpt><trkpt lat="38.4205967" lon="16.1778367"><ele>969.8</ele><time>2026-03-29T07:49:02.583Z</time></trkpt><trkpt lat="38.420555" lon="16.1779617"><ele>972.2</ele><time>2026-03-29T07:49:03.583Z</time></trkpt><trkpt lat="38.4205083" lon="16.1780917"><ele>974.6</ele><time>2026-03-29T07:49:04.583Z</time></trkpt><trkpt lat="38.4204583" lon="16.1782233"><ele>977.0</ele><time>2026-03-29T07:49:05.583Z</time></trkpt><trkpt lat="38.4204" lon="16.1783683"><ele>980.0</ele><time>2026-03-29T07:49:06.583Z</time></trkpt><trkpt lat="38.4203217" lon="16.1785317"><ele>983.0</ele><time>2026-03-29T07:49:07.583Z</time></trkpt><trkpt lat="38.4202417" lon="16.17869"><ele>986.0</ele><time>2026-03-29T07:49:08.583Z</time></trkpt><trkpt lat="38.4201383" lon="16.1788683"><ele>985.6666666666667</ele><time>2026-03-29T07:49:09.583Z</time></trkpt><trkpt lat="38.4200367" lon="16.1790533"><ele>985.3333333333333</ele><time>2026-03-29T07:49:10.583Z</time></trkpt><trkpt lat="38.4199383" lon="16.179235"><ele>985.0</ele><time>2026-03-29T07:49:11.583Z</time></trkpt><trkpt lat="38.4198767" lon="16.179415"><ele>985.0</ele><time>2026-03-29T07:49:12.583Z</time></trkpt><trkpt lat="38.4198417" lon="16.179595"><ele>985.0</ele><time>2026-03-29T07:49:13.583Z</time></trkpt><trkpt lat="38.4198383" lon="16.1797683"><ele>985.0</ele><time>2026-03-29T07:49:14.583Z</time></trkpt><trkpt lat="38.41987" lon="16.17993"><ele>985.0</ele><time>2026-03-29T07:49:15.583Z</time></trkpt><trkpt lat="38.4199217" lon="16.1800817"><ele>986.5</ele><time>2026-03-29T07:49:16.583Z</time></trkpt><trkpt lat="38.41998" lon="16.18023"><ele>988.0</ele><time>2026-03-29T07:49:17.583Z</time></trkpt><trkpt lat="38.4200417" lon="16.18035"><ele>989.5</ele><time>2026-03-29T07:49:18.584Z</time></trkpt><trkpt lat="38.4201367" lon="16.1804567"><ele>991.0</ele><time>2026-03-29T07:49:19.583Z</time></trkpt><trkpt lat="38.42025" lon="16.18054"><ele>991.0</ele><time>2026-03-29T07:49:20.583Z</time></trkpt><trkpt lat="38.420385" lon="16.1806017"><ele>991.0</ele><time>2026-03-29T07:49:21.583Z</time></trkpt><trkpt lat="38.4205383" lon="16.18066"><ele>991.0</ele><time>2026-03-29T07:49:22.583Z</time></trkpt><trkpt lat="38.4206917" lon="16.1807067"><ele>993.3333333333333</ele><time>2026-03-29T07:49:23.583Z</time></trkpt><trkpt lat="38.4208333" lon="16.1807517"><ele>995.6666666666667</ele><time>2026-03-29T07:49:24.583Z</time></trkpt><trkpt lat="38.4209967" lon="16.1808033"><ele>998.0</ele><time>2026-03-29T07:49:25.583Z</time></trkpt><trkpt lat="38.4211317" lon="16.1808583"><ele>998.0</ele><time>2026-03-29T07:49:26.583Z</time></trkpt><trkpt lat="38.4212717" lon="16.18091"><ele>998.0</ele><time>2026-03-29T07:49:27.583Z</time></trkpt><trkpt lat="38.4214217" lon="16.1809683"><ele>998.0</ele><time>2026-03-29T07:49:28.583Z</time></trkpt><trkpt lat="38.42156" lon="16.18102"><ele>998.0</ele><time>2026-03-29T07:49:29.583Z</time></trkpt><trkpt lat="38.4216817" lon="16.1810617"><ele>999.0</ele><time>2026-03-29T07:49:30.583Z</time></trkpt><trkpt lat="38.4218133" lon="16.1811"><ele>1000.0</ele><time>2026-03-29T07:49:31.584Z</time></trkpt><trkpt lat="38.4219517" lon="16.181145"><ele>1001.0</ele><time>2026-03-29T07:49:32.583Z</time></trkpt><trkpt lat="38.422085" lon="16.1811933"><ele>1002.0</ele><time>2026-03-29T07:49:33.583Z</time></trkpt><trkpt lat="38.4222217" lon="16.1812467"><ele>1002.0</ele><time>2026-03-29T07:49:34.583Z</time></trkpt><trkpt lat="38.42237" lon="16.1813067"><ele>1002.0</ele><time>2026-03-29T07:49:35.583Z</time></trkpt><trkpt lat="38.422505" lon="16.1813783"><ele>1002.0</ele><time>2026-03-29T07:49:36.583Z</time></trkpt><trkpt lat="38.42262" lon="16.1814867"><ele>1002.0</ele><time>2026-03-29T07:49:37.583Z</time></trkpt><trkpt lat="38.422715" lon="16.1816017"><ele>1001.75</ele><time>2026-03-29T07:49:38.583Z</time></trkpt><trkpt lat="38.4228" lon="16.1817333"><ele>1001.5</ele><time>2026-03-29T07:49:39.583Z</time></trkpt><trkpt lat="38.4228817" lon="16.1818733"><ele>1001.25</ele><time>2026-03-29T07:49:40.583Z</time></trkpt><trkpt lat="38.4229583" lon="16.1820033"><ele>1001.0</ele><time>2026-03-29T07:49:41.583Z</time></trkpt><trkpt lat="38.423055" lon="16.1821"><ele>999.75</ele><time>2026-03-29T07:49:42.583Z</time></trkpt><trkpt lat="38.4231717" lon="16.1821883"><ele>998.5</ele><time>2026-03-29T07:49:43.583Z</time></trkpt><trkpt lat="38.4233" lon="16.1822617"><ele>997.25</ele><time>2026-03-29T07:49:44.583Z</time></trkpt><trkpt lat="38.4234517" lon="16.182315"><ele>996.0</ele><time>2026-03-29T07:49:45.583Z</time></trkpt><trkpt lat="38.4236133" lon="16.1823383"><ele>995.6666666666667</ele><time>2026-03-29T07:49:46.583Z</time></trkpt><trkpt lat="38.4237917" lon="16.1823567"><ele>995.3333333333334</ele><time>2026-03-29T07:49:47.583Z</time></trkpt><trkpt lat="38.4239767" lon="16.18237"><ele>995.0</ele><time>2026-03-29T07:49:48.583Z</time></trkpt><trkpt lat="38.4241767" lon="16.182365"><ele>995.0</ele><time>2026-03-29T07:49:49.583Z</time></trkpt><trkpt lat="38.4243783" lon="16.182375"><ele>995.0</ele><time>2026-03-29T07:49:50.583Z</time></trkpt><trkpt lat="38.42457" lon="16.182375"><ele>995.0</ele><time>2026-03-29T07:49:51.583Z</time></trkpt><trkpt lat="38.42475" lon="16.1823683"><ele>997.3333333333334</ele><time>2026-03-29T07:49:52.583Z</time></trkpt><trkpt lat="38.4249217" lon="16.1823717"><ele>999.6666666666667</ele><time>2026-03-29T07:49:53.583Z</time></trkpt><trkpt lat="38.4250933" lon="16.1823783"><ele>1002.0</ele><time>2026-03-29T07:49:54.583Z</time></trkpt><trkpt lat="38.4252483" lon="16.1824033"><ele>1002.0</ele><time>2026-03-29T07:49:55.583Z</time></trkpt><trkpt lat="38.4253967" lon="16.18245"><ele>1002.0</ele><time>2026-03-29T07:49:56.583Z</time></trkpt><trkpt lat="38.4255333" lon="16.1825183"><ele>1002.0</ele><time>2026-03-29T07:49:57.583Z</time></trkpt><trkpt lat="38.4256517" lon="16.1826067"><ele>1002.0</ele><time>2026-03-29T07:49:58.584Z</time></trkpt><trkpt lat="38.4257517" lon="16.1826967"><ele>1003.0</ele><time>2026-03-29T07:49:59.584Z</time></trkpt><trkpt lat="38.4258333" lon="16.1827933"><ele>1004.0</ele><time>2026-03-29T07:50:00.584Z</time></trkpt><trkpt lat="38.4259" lon="16.1829133"><ele>1005.0</ele><time>2026-03-29T07:50:01.584Z</time></trkpt><trkpt lat="38.42595" lon="16.18304"><ele>1006.0</ele><time>2026-03-29T07:50:02.584Z</time></trkpt><trkpt lat="38.4259933" lon="16.1831883"><ele>1006.0</ele><time>2026-03-29T07:50:03.584Z</time></trkpt><trkpt lat="38.4260133" lon="16.1833267"><ele>1006.0</ele><time>2026-03-29T07:50:04.584Z</time></trkpt><trkpt lat="38.426035" lon="16.18347"><ele>1006.0</ele><time>2026-03-29T07:50:05.584Z</time></trkpt><trkpt lat="38.4260567" lon="16.183635"><ele>1006.0</ele><time>2026-03-29T07:50:06.584Z</time></trkpt><trkpt lat="38.4260583" lon="16.18381"><ele>1006.0</ele><time>2026-03-29T07:50:07.584Z</time></trkpt><trkpt lat="38.426055" lon="16.183965"><ele>1006.0</ele><time>2026-03-29T07:50:08.584Z</time></trkpt><trkpt lat="38.42606" lon="16.1841217"><ele>1006.0</ele><time>2026-03-29T07:50:09.584Z</time></trkpt><trkpt lat="38.4260583" lon="16.184265"><ele>1006.0</ele><time>2026-03-29T07:50:10.584Z</time></trkpt><trkpt lat="38.4260617" lon="16.184405"><ele>1006.5</ele><time>2026-03-29T07:50:11.584Z</time></trkpt><trkpt lat="38.4260667" lon="16.1845417"><ele>1007.0</ele><time>2026-03-29T07:50:12.584Z</time></trkpt><trkpt lat="38.4260733" lon="16.1846883"><ele>1007.5</ele><time>2026-03-29T07:50:13.584Z</time></trkpt><trkpt lat="38.4260783" lon="16.1848333"><ele>1008.0</ele><time>2026-03-29T07:50:14.584Z</time></trkpt><trkpt lat="38.4260833" lon="16.18498"><ele>1007.0</ele><time>2026-03-29T07:50:15.584Z</time></trkpt><trkpt lat="38.426095" lon="16.1851233"><ele>1006.0</ele><time>2026-03-29T07:50:16.584Z</time></trkpt><trkpt lat="38.4260967" lon="16.1852717"><ele>1005.0</ele><time>2026-03-29T07:50:17.585Z</time></trkpt><trkpt lat="38.4260933" lon="16.1854267"><ele>1004.0</ele><time>2026-03-29T07:50:18.584Z</time></trkpt><trkpt lat="38.426075" lon="16.1855867"><ele>1004.0</ele><time>2026-03-29T07:50:19.584Z</time></trkpt><trkpt lat="38.42604" lon="16.1857383"><ele>1004.0</ele><time>2026-03-29T07:50:20.584Z</time></trkpt><trkpt lat="38.425985" lon="16.1858767"><ele>1004.0</ele><time>2026-03-29T07:50:21.584Z</time></trkpt><trkpt lat="38.4259167" lon="16.1860117"><ele>1004.0</ele><time>2026-03-29T07:50:22.584Z</time></trkpt><trkpt lat="38.4258483" lon="16.186145"><ele>1004.0</ele><time>2026-03-29T07:50:23.584Z</time></trkpt><trkpt lat="38.425785" lon="16.186275"><ele>1004.0000000000001</ele><time>2026-03-29T07:50:24.584Z</time></trkpt><trkpt lat="38.42574" lon="16.1863867"><ele>1004.0000000000001</ele><time>2026-03-29T07:50:25.584Z</time></trkpt><trkpt lat="38.4256983" lon="16.1865"><ele>1004.0</ele><time>2026-03-29T07:50:26.584Z</time></trkpt><trkpt lat="38.4256717" lon="16.1866083"><ele>1004.0</ele><time>2026-03-29T07:50:27.584Z</time></trkpt><trkpt lat="38.4256617" lon="16.186715"><ele>1004.2</ele><time>2026-03-29T07:50:28.584Z</time></trkpt><trkpt lat="38.425675" lon="16.1868233"><ele>1004.4000000000001</ele><time>2026-03-29T07:50:29.584Z</time></trkpt><trkpt lat="38.42571" lon="16.1869383"><ele>1004.6</ele><time>2026-03-29T07:50:30.584Z</time></trkpt><trkpt lat="38.42576" lon="16.187055"><ele>1004.8</ele><time>2026-03-29T07:50:31.584Z</time></trkpt><trkpt lat="38.42584" lon="16.1871717"><ele>1005.0</ele><time>2026-03-29T07:50:32.584Z</time></trkpt><trkpt lat="38.425935" lon="16.18728"><ele>1003.0</ele><time>2026-03-29T07:50:33.584Z</time></trkpt><trkpt lat="38.426055" lon="16.18741"><ele>1001.0</ele><time>2026-03-29T07:50:34.584Z</time></trkpt><trkpt lat="38.42618" lon="16.1875483"><ele>999.0</ele><time>2026-03-29T07:50:35.584Z</time></trkpt><trkpt lat="38.4263117" lon="16.1876983"><ele>999.0</ele><time>2026-03-29T07:50:36.584Z</time></trkpt><trkpt lat="38.426445" lon="16.18786"><ele>999.0</ele><time>2026-03-29T07:50:37.584Z</time></trkpt><trkpt lat="38.42658" lon="16.1880167"><ele>999.0</ele><time>2026-03-29T07:50:38.584Z</time></trkpt><trkpt lat="38.4267167" lon="16.1881783"><ele>996.5</ele><time>2026-03-29T07:50:39.584Z</time></trkpt><trkpt lat="38.4268467" lon="16.1883083"><ele>994.0</ele><time>2026-03-29T07:50:40.584Z</time></trkpt><trkpt lat="38.4269333" lon="16.188445"><ele>991.5</ele><time>2026-03-29T07:50:41.584Z</time></trkpt><trkpt lat="38.4270317" lon="16.1885683"><ele>989.0</ele><time>2026-03-29T07:50:42.584Z</time></trkpt><trkpt lat="38.4271233" lon="16.188705"><ele>991.25</ele><time>2026-03-29T07:50:43.584Z</time></trkpt><trkpt lat="38.4272067" lon="16.1888517"><ele>993.5</ele><time>2026-03-29T07:50:44.584Z</time></trkpt><trkpt lat="38.427275" lon="16.18902"><ele>995.75</ele><time>2026-03-29T07:50:45.584Z</time></trkpt><trkpt lat="38.4273417" lon="16.1891917"><ele>998.0</ele><time>2026-03-29T07:50:46.584Z</time></trkpt><trkpt lat="38.4273867" lon="16.1893583"><ele>998.25</ele><time>2026-03-29T07:50:47.584Z</time></trkpt><trkpt lat="38.4274217" lon="16.18953"><ele>998.5</ele><time>2026-03-29T07:50:48.584Z</time></trkpt><trkpt lat="38.4274433" lon="16.1897017"><ele>998.75</ele><time>2026-03-29T07:50:49.584Z</time></trkpt><trkpt lat="38.427465" lon="16.18988"><ele>999.0</ele><time>2026-03-29T07:50:50.584Z</time></trkpt><trkpt lat="38.4274617" lon="16.1900633"><ele>1000.25</ele><time>2026-03-29T07:50:51.584Z</time></trkpt><trkpt lat="38.4274367" lon="16.1902417"><ele>1001.5</ele><time>2026-03-29T07:50:52.584Z</time></trkpt><trkpt lat="38.4273917" lon="16.190405"><ele>1002.75</ele><time>2026-03-29T07:50:53.584Z</time></trkpt><trkpt lat="38.4273417" lon="16.1905583"><ele>1004.0</ele><time>2026-03-29T07:50:54.584Z</time></trkpt><trkpt lat="38.42729" lon="16.1907083"><ele>1005.75</ele><time>2026-03-29T07:50:55.584Z</time></trkpt><trkpt lat="38.4272267" lon="16.190865"><ele>1007.5</ele><time>2026-03-29T07:50:56.584Z</time></trkpt><trkpt lat="38.427165" lon="16.1910217"><ele>1009.25</ele><time>2026-03-29T07:50:57.584Z</time></trkpt><trkpt lat="38.427105" lon="16.1911817"><ele>1011.0</ele><time>2026-03-29T07:50:58.584Z</time></trkpt><trkpt lat="38.4270483" lon="16.1913333"><ele>1012.0</ele><time>2026-03-29T07:50:59.584Z</time></trkpt><trkpt lat="38.4269983" lon="16.1914733"><ele>1013.0</ele><time>2026-03-29T07:51:00.584Z</time></trkpt><trkpt lat="38.4269517" lon="16.19162"><ele>1014.0</ele><time>2026-03-29T07:51:01.584Z</time></trkpt><trkpt lat="38.4269033" lon="16.19177"><ele>1015.0</ele><time>2026-03-29T07:51:02.584Z</time></trkpt><trkpt lat="38.4268383" lon="16.19192"><ele>1015.0</ele><time>2026-03-29T07:51:03.584Z</time></trkpt><trkpt lat="38.426765" lon="16.1920817"><ele>1015.0</ele><time>2026-03-29T07:51:04.584Z</time></trkpt><trkpt lat="38.426685" lon="16.19225"><ele>1015.0</ele><time>2026-03-29T07:51:05.584Z</time></trkpt><trkpt lat="38.4266083" lon="16.1924183"><ele>1012.3333333333333</ele><time>2026-03-29T07:51:06.584Z</time></trkpt><trkpt lat="38.4265317" lon="16.1925783"><ele>1009.6666666666667</ele><time>2026-03-29T07:51:07.584Z</time></trkpt><trkpt lat="38.4264417" lon="16.19272"><ele>1007.0</ele><time>2026-03-29T07:51:08.584Z</time></trkpt><trkpt lat="38.4263383" lon="16.1928833"><ele>1007.5</ele><time>2026-03-29T07:51:09.584Z</time></trkpt><trkpt lat="38.4262417" lon="16.1930283"><ele>1008.0</ele><time>2026-03-29T07:51:10.584Z</time></trkpt><trkpt lat="38.4261467" lon="16.1931517"><ele>1008.5</ele><time>2026-03-29T07:51:11.584Z</time></trkpt><trkpt lat="38.42607" lon="16.193275"><ele>1009.0</ele><time>2026-03-29T07:51:12.584Z</time></trkpt><trkpt lat="38.4260117" lon="16.193395"><ele>1009.0</ele><time>2026-03-29T07:51:13.584Z</time></trkpt><trkpt lat="38.42598" lon="16.193515"><ele>1009.0000000000001</ele><time>2026-03-29T07:51:14.584Z</time></trkpt><trkpt lat="38.425955" lon="16.1936433"><ele>1009.0000000000001</ele><time>2026-03-29T07:51:15.584Z</time></trkpt><trkpt lat="38.4259667" lon="16.1937867"><ele>1009.0</ele><time>2026-03-29T07:51:16.584Z</time></trkpt><trkpt lat="38.4260067" lon="16.1939267"><ele>1009.0</ele><time>2026-03-29T07:51:17.584Z</time></trkpt><trkpt lat="38.4260817" lon="16.19406"><ele>1009.25</ele><time>2026-03-29T07:51:18.584Z</time></trkpt><trkpt lat="38.4261383" lon="16.1942133"><ele>1009.5</ele><time>2026-03-29T07:51:19.584Z</time></trkpt><trkpt lat="38.42621" lon="16.194365"><ele>1009.75</ele><time>2026-03-29T07:51:20.584Z</time></trkpt><trkpt lat="38.4262717" lon="16.1945133"><ele>1010.0</ele><time>2026-03-29T07:51:21.584Z</time></trkpt><trkpt lat="38.426335" lon="16.1946483"><ele>1010.0</ele><time>2026-03-29T07:51:22.584Z</time></trkpt><trkpt lat="38.426395" lon="16.1947983"><ele>1010.0</ele><time>2026-03-29T07:51:23.584Z</time></trkpt><trkpt lat="38.426455" lon="16.1949483"><ele>1010.0</ele><time>2026-03-29T07:51:24.584Z</time></trkpt><trkpt lat="38.4265167" lon="16.1951067"><ele>1010.0</ele><time>2026-03-29T07:51:25.584Z</time></trkpt><trkpt lat="38.4265767" lon="16.1952683"><ele>1010.0</ele><time>2026-03-29T07:51:26.584Z</time></trkpt><trkpt lat="38.4266383" lon="16.1954383"><ele>1010.0</ele><time>2026-03-29T07:51:27.584Z</time></trkpt><trkpt lat="38.4266933" lon="16.1956233"><ele>1010.0</ele><time>2026-03-29T07:51:28.584Z</time></trkpt><trkpt lat="38.426735" lon="16.1958133"><ele>1012.0</ele><time>2026-03-29T07:51:29.584Z</time></trkpt><trkpt lat="38.4267683" lon="16.1960067"><ele>1014.0</ele><time>2026-03-29T07:51:30.584Z</time></trkpt><trkpt lat="38.4267933" lon="16.1961983"><ele>1016.0</ele><time>2026-03-29T07:51:31.584Z</time></trkpt><trkpt lat="38.4268083" lon="16.1964033"><ele>1016.5</ele><time>2026-03-29T07:51:32.584Z</time></trkpt><trkpt lat="38.4268117" lon="16.1966067"><ele>1017.0</ele><time>2026-03-29T07:51:33.584Z</time></trkpt><trkpt lat="38.4268183" lon="16.1967933"><ele>1017.5</ele><time>2026-03-29T07:51:34.584Z</time></trkpt><trkpt lat="38.4268333" lon="16.1969667"><ele>1018.0</ele><time>2026-03-29T07:51:35.584Z</time></trkpt><trkpt lat="38.4268567" lon="16.197125"><ele>1018.0</ele><time>2026-03-29T07:51:36.584Z</time></trkpt><trkpt lat="38.4268917" lon="16.1972667"><ele>1018.0</ele><time>2026-03-29T07:51:37.584Z</time></trkpt><trkpt lat="38.4269383" lon="16.1974017"><ele>1018.0</ele><time>2026-03-29T07:51:38.585Z</time></trkpt><trkpt lat="38.4270033" lon="16.1975417"><ele>1018.0</ele><time>2026-03-29T07:51:39.584Z</time></trkpt><trkpt lat="38.4270817" lon="16.1976867"><ele>1016.5</ele><time>2026-03-29T07:51:40.584Z</time></trkpt><trkpt lat="38.4271683" lon="16.1978183"><ele>1015.0</ele><time>2026-03-29T07:51:41.584Z</time></trkpt><trkpt lat="38.4272533" lon="16.1979433"><ele>1013.5</ele><time>2026-03-29T07:51:42.585Z</time></trkpt><trkpt lat="38.4273433" lon="16.19808"><ele>1012.0</ele><time>2026-03-29T07:51:43.584Z</time></trkpt><trkpt lat="38.4274417" lon="16.1982033"><ele>1012.0</ele><time>2026-03-29T07:51:44.584Z</time></trkpt><trkpt lat="38.4275367" lon="16.19833"><ele>1012.0</ele><time>2026-03-29T07:51:45.584Z</time></trkpt><trkpt lat="38.4276317" lon="16.1984517"><ele>1012.0</ele><time>2026-03-29T07:51:46.584Z</time></trkpt><trkpt lat="38.4277233" lon="16.1985767"><ele>1012.0</ele><time>2026-03-29T07:51:47.584Z</time></trkpt><trkpt lat="38.4278133" lon="16.1987"><ele>1012.0</ele><time>2026-03-29T07:51:48.584Z</time></trkpt><trkpt lat="38.42792" lon="16.19883"><ele>1012.0</ele><time>2026-03-29T07:51:49.584Z</time></trkpt><trkpt lat="38.4280017" lon="16.198955"><ele>1012.0</ele><time>2026-03-29T07:51:50.584Z</time></trkpt><trkpt lat="38.4280683" lon="16.1990783"><ele>1012.0</ele><time>2026-03-29T07:51:51.584Z</time></trkpt><trkpt lat="38.4281333" lon="16.199205"><ele>1012.3333333333333</ele><time>2026-03-29T07:51:52.584Z</time></trkpt><trkpt lat="38.42825" lon="16.1993517"><ele>1012.6666666666667</ele><time>2026-03-29T07:51:53.584Z</time></trkpt><trkpt lat="38.4283433" lon="16.1995033"><ele>1013.0</ele><time>2026-03-29T07:51:54.584Z</time></trkpt><trkpt lat="38.4284417" lon="16.1996533"><ele>1013.0</ele><time>2026-03-29T07:51:55.584Z</time></trkpt><trkpt lat="38.4285133" lon="16.1997983"><ele>1013.0</ele><time>2026-03-29T07:51:56.584Z</time></trkpt><trkpt lat="38.4285783" lon="16.1999517"><ele>1013.0</ele><time>2026-03-29T07:51:57.584Z</time></trkpt><trkpt lat="38.42863" lon="16.2001283"><ele>1013.0</ele><time>2026-03-29T07:51:58.584Z</time></trkpt><trkpt lat="38.4286767" lon="16.2003017"><ele>1015.5</ele><time>2026-03-29T07:51:59.584Z</time></trkpt><trkpt lat="38.428715" lon="16.2004667"><ele>1018.0</ele><time>2026-03-29T07:52:00.584Z</time></trkpt><trkpt lat="38.4287333" lon="16.200635"><ele>1020.5</ele><time>2026-03-29T07:52:01.584Z</time></trkpt><trkpt lat="38.4287117" lon="16.200745"><ele>1023.0</ele><time>2026-03-29T07:52:02.584Z</time></trkpt><trkpt lat="38.4286783" lon="16.2008867"><ele>1025.0</ele><time>2026-03-29T07:52:03.584Z</time></trkpt><trkpt lat="38.4286433" lon="16.201025"><ele>1027.0</ele><time>2026-03-29T07:52:04.584Z</time></trkpt><trkpt lat="38.4286017" lon="16.2011817"><ele>1029.0</ele><time>2026-03-29T07:52:05.584Z</time></trkpt><trkpt lat="38.4285617" lon="16.2013317"><ele>1031.0</ele><time>2026-03-29T07:52:06.584Z</time></trkpt><trkpt lat="38.4285283" lon="16.2014883"><ele>1031.5</ele><time>2026-03-29T07:52:07.584Z</time></trkpt><trkpt lat="38.428495" lon="16.2016433"><ele>1032.0</ele><time>2026-03-29T07:52:08.584Z</time></trkpt><trkpt lat="38.4284683" lon="16.201795"><ele>1032.5</ele><time>2026-03-29T07:52:09.584Z</time></trkpt><trkpt lat="38.4284467" lon="16.2019583"><ele>1033.0</ele><time>2026-03-29T07:52:10.584Z</time></trkpt><trkpt lat="38.4284383" lon="16.2021233"><ele>1033.0</ele><time>2026-03-29T07:52:11.584Z</time></trkpt><trkpt lat="38.4284483" lon="16.2022867"><ele>1033.0</ele><time>2026-03-29T07:52:12.584Z</time></trkpt><trkpt lat="38.4284867" lon="16.202445"><ele>1033.0</ele><time>2026-03-29T07:52:13.584Z</time></trkpt><trkpt lat="38.4285417" lon="16.2026033"><ele>1033.0</ele><time>2026-03-29T07:52:14.584Z</time></trkpt><trkpt lat="38.4286083" lon="16.2027683"><ele>1033.0</ele><time>2026-03-29T07:52:15.584Z</time></trkpt><trkpt lat="38.4286717" lon="16.20293"><ele>1033.0</ele><time>2026-03-29T07:52:16.584Z</time></trkpt><trkpt lat="38.4287433" lon="16.2030817"><ele>1033.0</ele><time>2026-03-29T07:52:17.584Z</time></trkpt><trkpt lat="38.4288183" lon="16.2032333"><ele>1033.0</ele><time>2026-03-29T07:52:18.584Z</time></trkpt><trkpt lat="38.4288883" lon="16.203385"><ele>1033.0</ele><time>2026-03-29T07:52:19.584Z</time></trkpt><trkpt lat="38.4289433" lon="16.203525"><ele>1033.0</ele><time>2026-03-29T07:52:20.584Z</time></trkpt><trkpt lat="38.4290067" lon="16.20366"><ele>1033.0</ele><time>2026-03-29T07:52:21.584Z</time></trkpt><trkpt lat="38.4290667" lon="16.203785"><ele>1033.0</ele><time>2026-03-29T07:52:22.584Z</time></trkpt><trkpt lat="38.4291167" lon="16.203905"><ele>1032.5</ele><time>2026-03-29T07:52:23.584Z</time></trkpt><trkpt lat="38.42917" lon="16.204035"><ele>1032.0</ele><time>2026-03-29T07:52:24.584Z</time></trkpt><trkpt lat="38.4292317" lon="16.204165"><ele>1031.5</ele><time>2026-03-29T07:52:25.584Z</time></trkpt><trkpt lat="38.4292883" lon="16.2043033"><ele>1031.0</ele><time>2026-03-29T07:52:26.584Z</time></trkpt><trkpt lat="38.4293567" lon="16.2044533"><ele>1031.0</ele><time>2026-03-29T07:52:27.584Z</time></trkpt><trkpt lat="38.4294217" lon="16.2045983"><ele>1031.0</ele><time>2026-03-29T07:52:28.584Z</time></trkpt><trkpt lat="38.429485" lon="16.2047433"><ele>1031.0</ele><time>2026-03-29T07:52:29.584Z</time></trkpt><trkpt lat="38.42955" lon="16.2048867"><ele>1031.0</ele><time>2026-03-29T07:52:30.584Z</time></trkpt><trkpt lat="38.4296167" lon="16.2050333"><ele>1033.0</ele><time>2026-03-29T07:52:31.584Z</time></trkpt><trkpt lat="38.429695" lon="16.205175"><ele>1035.0</ele><time>2026-03-29T07:52:32.584Z</time></trkpt><trkpt lat="38.42977" lon="16.2053167"><ele>1037.0</ele><time>2026-03-29T07:52:33.584Z</time></trkpt><trkpt lat="38.429845" lon="16.20546"><ele>1039.0</ele><time>2026-03-29T07:52:34.584Z</time></trkpt><trkpt lat="38.429935" lon="16.2055983"><ele>1038.0</ele><time>2026-03-29T07:52:35.584Z</time></trkpt><trkpt lat="38.4300267" lon="16.2057217"><ele>1037.0</ele><time>2026-03-29T07:52:36.585Z</time></trkpt><trkpt lat="38.4301267" lon="16.20584"><ele>1036.0</ele><time>2026-03-29T07:52:37.584Z</time></trkpt><trkpt lat="38.4302283" lon="16.2059417"><ele>1035.0</ele><time>2026-03-29T07:52:38.584Z</time></trkpt><trkpt lat="38.430335" lon="16.2060133"><ele>1035.0</ele><time>2026-03-29T07:52:39.584Z</time></trkpt><trkpt lat="38.43044" lon="16.2060883"><ele>1035.0</ele><time>2026-03-29T07:52:40.584Z</time></trkpt><trkpt lat="38.4305483" lon="16.2061667"><ele>1035.0</ele><time>2026-03-29T07:52:41.584Z</time></trkpt><trkpt lat="38.4306533" lon="16.2062483"><ele>1035.0</ele><time>2026-03-29T07:52:42.584Z</time></trkpt><trkpt lat="38.4307567" lon="16.2063417"><ele>1035.75</ele><time>2026-03-29T07:52:43.584Z</time></trkpt><trkpt lat="38.4308533" lon="16.2064333"><ele>1036.5</ele><time>2026-03-29T07:52:44.584Z</time></trkpt><trkpt lat="38.4309467" lon="16.2065417"><ele>1037.25</ele><time>2026-03-29T07:52:45.584Z</time></trkpt><trkpt lat="38.4310367" lon="16.2066583"><ele>1038.0</ele><time>2026-03-29T07:52:46.584Z</time></trkpt><trkpt lat="38.4311233" lon="16.2067817"><ele>1038.0</ele><time>2026-03-29T07:52:47.584Z</time></trkpt><trkpt lat="38.4312033" lon="16.20692"><ele>1038.0</ele><time>2026-03-29T07:52:48.584Z</time></trkpt><trkpt lat="38.4312683" lon="16.2070533"><ele>1038.0</ele><time>2026-03-29T07:52:49.584Z</time></trkpt><trkpt lat="38.4313233" lon="16.2072033"><ele>1038.0</ele><time>2026-03-29T07:52:50.584Z</time></trkpt><trkpt lat="38.43137" lon="16.2073617"><ele>1037.3333333333333</ele><time>2026-03-29T07:52:51.585Z</time></trkpt><trkpt lat="38.431415" lon="16.2075333"><ele>1036.6666666666665</ele><time>2026-03-29T07:52:52.584Z</time></trkpt><trkpt lat="38.4314567" lon="16.2077183"><ele>1036.0</ele><time>2026-03-29T07:52:53.584Z</time></trkpt><trkpt lat="38.4315" lon="16.2079183"><ele>1036.0</ele><time>2026-03-29T07:52:54.584Z</time></trkpt><trkpt lat="38.4315467" lon="16.208125"><ele>1036.0</ele><time>2026-03-29T07:52:55.584Z</time></trkpt><trkpt lat="38.43159" lon="16.208325"><ele>1036.0</ele><time>2026-03-29T07:52:56.584Z</time></trkpt><trkpt lat="38.4316383" lon="16.2085233"><ele>1035.6666666666665</ele><time>2026-03-29T07:52:57.584Z</time></trkpt><trkpt lat="38.4316883" lon="16.208735"><ele>1035.3333333333333</ele><time>2026-03-29T07:52:58.584Z</time></trkpt><trkpt lat="38.4317333" lon="16.2089567"><ele>1035.0</ele><time>2026-03-29T07:52:59.584Z</time></trkpt><trkpt lat="38.431765" lon="16.209165"><ele>1036.3333333333333</ele><time>2026-03-29T07:53:00.584Z</time></trkpt><trkpt lat="38.43181" lon="16.2093733"><ele>1037.6666666666665</ele><time>2026-03-29T07:53:01.584Z</time></trkpt><trkpt lat="38.4318617" lon="16.209585"><ele>1039.0</ele><time>2026-03-29T07:53:02.585Z</time></trkpt><trkpt lat="38.4319233" lon="16.2097783"><ele>1041.0</ele><time>2026-03-29T07:53:03.584Z</time></trkpt><trkpt lat="38.4319917" lon="16.20996"><ele>1043.0</ele><time>2026-03-29T07:53:04.584Z</time></trkpt><trkpt lat="38.4320633" lon="16.210145"><ele>1045.0</ele><time>2026-03-29T07:53:05.584Z</time></trkpt><trkpt lat="38.43214" lon="16.2103"><ele>1048.0</ele><time>2026-03-29T07:53:06.584Z</time></trkpt><trkpt lat="38.432245" lon="16.21046"><ele>1051.0</ele><time>2026-03-29T07:53:07.585Z</time></trkpt><trkpt lat="38.43238" lon="16.2106067"><ele>1054.0</ele><time>2026-03-29T07:53:08.584Z</time></trkpt><trkpt lat="38.4325" lon="16.2107533"><ele>1054.0</ele><time>2026-03-29T07:53:09.584Z</time></trkpt><trkpt lat="38.4326033" lon="16.21087"><ele>1054.0</ele><time>2026-03-29T07:53:10.584Z</time></trkpt><trkpt lat="38.4327467" lon="16.2110033"><ele>1054.0</ele><time>2026-03-29T07:53:11.584Z</time></trkpt><trkpt lat="38.4328617" lon="16.2111267"><ele>1054.0</ele><time>2026-03-29T07:53:12.584Z</time></trkpt><trkpt lat="38.4329683" lon="16.2112533"><ele>1054.0</ele><time>2026-03-29T07:53:13.584Z</time></trkpt><trkpt lat="38.433075" lon="16.211415"><ele>1054.0</ele><time>2026-03-29T07:53:14.584Z</time></trkpt><trkpt lat="38.43316" lon="16.211615"><ele>1050.3333333333333</ele><time>2026-03-29T07:53:15.584Z</time></trkpt><trkpt lat="38.4332233" lon="16.2118117"><ele>1046.6666666666667</ele><time>2026-03-29T07:53:16.584Z</time></trkpt><trkpt lat="38.4332467" lon="16.2120067"><ele>1043.0</ele><time>2026-03-29T07:53:17.584Z</time></trkpt><trkpt lat="38.4332367" lon="16.212205"><ele>1043.25</ele><time>2026-03-29T07:53:18.584Z</time></trkpt><trkpt lat="38.4332167" lon="16.2123933"><ele>1043.5</ele><time>2026-03-29T07:53:19.584Z</time></trkpt><trkpt lat="38.4331817" lon="16.2125783"><ele>1043.75</ele><time>2026-03-29T07:53:20.584Z</time></trkpt><trkpt lat="38.4331317" lon="16.2127567"><ele>1044.0</ele><time>2026-03-29T07:53:21.584Z</time></trkpt><trkpt lat="38.4330717" lon="16.2129317"><ele>1044.0</ele><time>2026-03-29T07:53:22.584Z</time></trkpt><trkpt lat="38.4330117" lon="16.2131"><ele>1044.0</ele><time>2026-03-29T07:53:23.584Z</time></trkpt><trkpt lat="38.4329633" lon="16.213245"><ele>1044.0</ele><time>2026-03-29T07:53:24.584Z</time></trkpt><trkpt lat="38.43293" lon="16.2133883"><ele>1044.0</ele><time>2026-03-29T07:53:25.584Z</time></trkpt><trkpt lat="38.4329333" lon="16.2135317"><ele>1045.25</ele><time>2026-03-29T07:53:26.584Z</time></trkpt><trkpt lat="38.4329817" lon="16.2136733"><ele>1046.5</ele><time>2026-03-29T07:53:27.584Z</time></trkpt><trkpt lat="38.4330567" lon="16.2138217"><ele>1047.75</ele><time>2026-03-29T07:53:28.585Z</time></trkpt><trkpt lat="38.4331617" lon="16.21398"><ele>1049.0</ele><time>2026-03-29T07:53:29.584Z</time></trkpt><trkpt lat="38.4332917" lon="16.2141567"><ele>1049.0</ele><time>2026-03-29T07:53:30.584Z</time></trkpt><trkpt lat="38.43344" lon="16.2143517"><ele>1049.0</ele><time>2026-03-29T07:53:31.584Z</time></trkpt><trkpt lat="38.4335883" lon="16.2145417"><ele>1049.0</ele><time>2026-03-29T07:53:32.584Z</time></trkpt><trkpt lat="38.4337267" lon="16.2147267"><ele>1051.0</ele><time>2026-03-29T07:53:33.584Z</time></trkpt><trkpt lat="38.4338683" lon="16.2148933"><ele>1053.0</ele><time>2026-03-29T07:53:34.584Z</time></trkpt><trkpt lat="38.4339967" lon="16.2150367"><ele>1055.0</ele><time>2026-03-29T07:53:35.584Z</time></trkpt><trkpt lat="38.4341483" lon="16.21515"><ele>1055.0</ele><time>2026-03-29T07:53:36.585Z</time></trkpt><trkpt lat="38.4342917" lon="16.2152733"><ele>1055.0</ele><time>2026-03-29T07:53:37.584Z</time></trkpt><trkpt lat="38.4344367" lon="16.21538"><ele>1055.0</ele><time>2026-03-29T07:53:38.584Z</time></trkpt><trkpt lat="38.434575" lon="16.215465"><ele>1057.3333333333335</ele><time>2026-03-29T07:53:39.584Z</time></trkpt><trkpt lat="38.4347067" lon="16.2155383"><ele>1059.6666666666667</ele><time>2026-03-29T07:53:40.584Z</time></trkpt><trkpt lat="38.4348667" lon="16.215595"><ele>1062.0</ele><time>2026-03-29T07:53:41.584Z</time></trkpt><trkpt lat="38.43501" lon="16.2156267"><ele>1062.0</ele><time>2026-03-29T07:53:42.584Z</time></trkpt><trkpt lat="38.4351367" lon="16.215645"><ele>1062.0</ele><time>2026-03-29T07:53:43.584Z</time></trkpt><trkpt lat="38.4352483" lon="16.2156633"><ele>1062.0</ele><time>2026-03-29T07:53:44.584Z</time></trkpt><trkpt lat="38.4353533" lon="16.215665"><ele>1062.0</ele><time>2026-03-29T07:53:45.584Z</time></trkpt><trkpt lat="38.4354783" lon="16.2156533"><ele>1061.5</ele><time>2026-03-29T07:53:46.584Z</time></trkpt><trkpt lat="38.4356067" lon="16.2156367"><ele>1061.0</ele><time>2026-03-29T07:53:47.584Z</time></trkpt><trkpt lat="38.4357467" lon="16.2156117"><ele>1060.5</ele><time>2026-03-29T07:53:48.584Z</time></trkpt><trkpt lat="38.435905" lon="16.2155817"><ele>1060.0</ele><time>2026-03-29T07:53:49.584Z</time></trkpt><trkpt lat="38.4360733" lon="16.2155433"><ele>1060.0</ele><time>2026-03-29T07:53:50.584Z</time></trkpt><trkpt lat="38.436225" lon="16.215525"><ele>1060.0</ele><time>2026-03-29T07:53:51.584Z</time></trkpt><trkpt lat="38.4363567" lon="16.2155333"><ele>1060.0</ele><time>2026-03-29T07:53:52.584Z</time></trkpt><trkpt lat="38.43649" lon="16.21558"><ele>1060.0</ele><time>2026-03-29T07:53:53.584Z</time></trkpt><trkpt lat="38.4366117" lon="16.2156517"><ele>1062.4</ele><time>2026-03-29T07:53:54.584Z</time></trkpt><trkpt lat="38.4367167" lon="16.2157317"><ele>1064.8</ele><time>2026-03-29T07:53:55.584Z</time></trkpt><trkpt lat="38.4367967" lon="16.21581"><ele>1067.2</ele><time>2026-03-29T07:53:56.584Z</time></trkpt><trkpt lat="38.4368633" lon="16.215895"><ele>1069.6</ele><time>2026-03-29T07:53:57.584Z</time></trkpt><trkpt lat="38.4369167" lon="16.2160133"><ele>1072.0</ele><time>2026-03-29T07:53:58.584Z</time></trkpt><trkpt lat="38.4369483" lon="16.2161467"><ele>1072.0</ele><time>2026-03-29T07:53:59.584Z</time></trkpt><trkpt lat="38.4369483" lon="16.216285"><ele>1072.0</ele><time>2026-03-29T07:54:00.585Z</time></trkpt><trkpt lat="38.43694" lon="16.2164133"><ele>1072.0</ele><time>2026-03-29T07:54:01.584Z</time></trkpt><trkpt lat="38.4369083" lon="16.2165433"><ele>1072.0</ele><time>2026-03-29T07:54:02.584Z</time></trkpt><trkpt lat="38.4368583" lon="16.2166817"><ele>1072.0</ele><time>2026-03-29T07:54:03.584Z</time></trkpt><trkpt lat="38.4367983" lon="16.2168183"><ele>1071.25</ele><time>2026-03-29T07:54:04.584Z</time></trkpt><trkpt lat="38.4367133" lon="16.2169633"><ele>1070.5</ele><time>2026-03-29T07:54:05.584Z</time></trkpt><trkpt lat="38.4366183" lon="16.2171033"><ele>1069.75</ele><time>2026-03-29T07:54:06.584Z</time></trkpt><trkpt lat="38.4365133" lon="16.2172483"><ele>1069.0</ele><time>2026-03-29T07:54:07.584Z</time></trkpt><trkpt lat="38.436415" lon="16.2173983"><ele>1069.0</ele><time>2026-03-29T07:54:08.584Z</time></trkpt><trkpt lat="38.4363117" lon="16.2175417"><ele>1069.0</ele><time>2026-03-29T07:54:09.584Z</time></trkpt><trkpt lat="38.4362217" lon="16.217685"><ele>1069.0</ele><time>2026-03-29T07:54:10.584Z</time></trkpt><trkpt lat="38.4361383" lon="16.217815"><ele>1069.0</ele><time>2026-03-29T07:54:11.584Z</time></trkpt><trkpt lat="38.43607" lon="16.2179733"><ele>1071.75</ele><time>2026-03-29T07:54:12.584Z</time></trkpt><trkpt lat="38.4360133" lon="16.2181267"><ele>1074.5</ele><time>2026-03-29T07:54:13.584Z</time></trkpt><trkpt lat="38.4359683" lon="16.218265"><ele>1077.25</ele><time>2026-03-29T07:54:14.584Z</time></trkpt><trkpt lat="38.435945" lon="16.21841"><ele>1080.0</ele><time>2026-03-29T07:54:15.584Z</time></trkpt><trkpt lat="38.4359383" lon="16.2185617"><ele>1080.75</ele><time>2026-03-29T07:54:16.584Z</time></trkpt><trkpt lat="38.4359617" lon="16.2187183"><ele>1081.5</ele><time>2026-03-29T07:54:17.584Z</time></trkpt><trkpt lat="38.435995" lon="16.218865"><ele>1082.25</ele><time>2026-03-29T07:54:18.584Z</time></trkpt><trkpt lat="38.436035" lon="16.21901"><ele>1083.0</ele><time>2026-03-29T07:54:19.584Z</time></trkpt><trkpt lat="38.4360767" lon="16.2191683"><ele>1085.5</ele><time>2026-03-29T07:54:20.584Z</time></trkpt><trkpt lat="38.4361117" lon="16.2193317"><ele>1088.0</ele><time>2026-03-29T07:54:21.584Z</time></trkpt><trkpt lat="38.4361533" lon="16.2194967"><ele>1090.5</ele><time>2026-03-29T07:54:22.584Z</time></trkpt><trkpt lat="38.4362033" lon="16.2196533"><ele>1093.0</ele><time>2026-03-29T07:54:23.584Z</time></trkpt><trkpt lat="38.4362383" lon="16.219815"><ele>1095.75</ele><time>2026-03-29T07:54:24.584Z</time></trkpt><trkpt lat="38.4362633" lon="16.2199833"><ele>1098.5</ele><time>2026-03-29T07:54:25.584Z</time></trkpt><trkpt lat="38.4363" lon="16.2201567"><ele>1101.25</ele><time>2026-03-29T07:54:26.584Z</time></trkpt><trkpt lat="38.436325" lon="16.22033"><ele>1104.0</ele><time>2026-03-29T07:54:27.584Z</time></trkpt><trkpt lat="38.4363333" lon="16.2204717"><ele>1103.2</ele><time>2026-03-29T07:54:28.584Z</time></trkpt><trkpt lat="38.4363133" lon="16.2205867"><ele>1102.4</ele><time>2026-03-29T07:54:29.584Z</time></trkpt><trkpt lat="38.43627" lon="16.2206933"><ele>1101.6</ele><time>2026-03-29T07:54:30.584Z</time></trkpt><trkpt lat="38.436215" lon="16.220785"><ele>1100.8</ele><time>2026-03-29T07:54:31.584Z</time></trkpt><trkpt lat="38.43613" lon="16.22086"><ele>1100.0</ele><time>2026-03-29T07:54:32.584Z</time></trkpt><trkpt lat="38.4360417" lon="16.2209083"><ele>1100.0</ele><time>2026-03-29T07:54:33.584Z</time></trkpt><trkpt lat="38.43595" lon="16.22094"><ele>1100.0</ele><time>2026-03-29T07:54:34.584Z</time></trkpt><trkpt lat="38.4358533" lon="16.2209417"><ele>1100.0</ele><time>2026-03-29T07:54:35.584Z</time></trkpt><trkpt lat="38.4357567" lon="16.2209267"><ele>1100.0</ele><time>2026-03-29T07:54:36.584Z</time></trkpt><trkpt lat="38.435665" lon="16.220915"><ele>1100.0</ele><time>2026-03-29T07:54:37.584Z</time></trkpt><trkpt lat="38.4355667" lon="16.2208933"><ele>1103.0</ele><time>2026-03-29T07:54:38.584Z</time></trkpt><trkpt lat="38.4354417" lon="16.22084"><ele>1106.0</ele><time>2026-03-29T07:54:39.584Z</time></trkpt><trkpt lat="38.4353117" lon="16.22078"><ele>1109.0</ele><time>2026-03-29T07:54:40.584Z</time></trkpt><trkpt lat="38.4351767" lon="16.220745"><ele>1112.0</ele><time>2026-03-29T07:54:41.584Z</time></trkpt><trkpt lat="38.4350583" lon="16.2207267"><ele>1112.0</ele><time>2026-03-29T07:54:42.584Z</time></trkpt><trkpt lat="38.4349383" lon="16.2207183"><ele>1112.0</ele><time>2026-03-29T07:54:43.584Z</time></trkpt><trkpt lat="38.4348267" lon="16.220735"><ele>1112.0</ele><time>2026-03-29T07:54:44.584Z</time></trkpt><trkpt lat="38.4347183" lon="16.22078"><ele>1112.0</ele><time>2026-03-29T07:54:45.584Z</time></trkpt><trkpt lat="38.4346033" lon="16.2208733"><ele>1113.3333333333335</ele><time>2026-03-29T07:54:46.584Z</time></trkpt><trkpt lat="38.4344883" lon="16.2210117"><ele>1114.6666666666667</ele><time>2026-03-29T07:54:47.584Z</time></trkpt><trkpt lat="38.434395" lon="16.22116"><ele>1116.0</ele><time>2026-03-29T07:54:48.584Z</time></trkpt><trkpt lat="38.43431" lon="16.2213067"><ele>1116.0</ele><time>2026-03-29T07:54:49.584Z</time></trkpt><trkpt lat="38.434235" lon="16.2214583"><ele>1116.0</ele><time>2026-03-29T07:54:50.584Z</time></trkpt><trkpt lat="38.43416" lon="16.2216083"><ele>1116.0</ele><time>2026-03-29T07:54:51.584Z</time></trkpt><trkpt lat="38.4340733" lon="16.221755"><ele>1116.0</ele><time>2026-03-29T07:54:52.584Z</time></trkpt><trkpt lat="38.4339817" lon="16.2218917"><ele>1115.5</ele><time>2026-03-29T07:54:53.584Z</time></trkpt><trkpt lat="38.4338967" lon="16.2220283"><ele>1115.0</ele><time>2026-03-29T07:54:54.584Z</time></trkpt><trkpt lat="38.4338317" lon="16.2221667"><ele>1114.5</ele><time>2026-03-29T07:54:55.584Z</time></trkpt><trkpt lat="38.4337867" lon="16.2223017"><ele>1114.0</ele><time>2026-03-29T07:54:56.584Z</time></trkpt><trkpt lat="38.43376" lon="16.2224283"><ele>1114.2</ele><time>2026-03-29T07:54:57.584Z</time></trkpt><trkpt lat="38.4337533" lon="16.2225417"><ele>1114.4</ele><time>2026-03-29T07:54:58.584Z</time></trkpt><trkpt lat="38.4337817" lon="16.2226567"><ele>1114.6</ele><time>2026-03-29T07:54:59.584Z</time></trkpt><trkpt lat="38.4338367" lon="16.222775"><ele>1114.8</ele><time>2026-03-29T07:55:00.584Z</time></trkpt><trkpt lat="38.4339017" lon="16.222875"><ele>1115.0</ele><time>2026-03-29T07:55:01.584Z</time></trkpt><trkpt lat="38.4339867" lon="16.2229633"><ele>1115.0</ele><time>2026-03-29T07:55:02.584Z</time></trkpt><trkpt lat="38.4340867" lon="16.223045"><ele>1115.0</ele><time>2026-03-29T07:55:03.584Z</time></trkpt><trkpt lat="38.434195" lon="16.2231267"><ele>1115.0</ele><time>2026-03-29T07:55:04.584Z</time></trkpt><trkpt lat="38.4342983" lon="16.2232"><ele>1115.0</ele><time>2026-03-29T07:55:05.584Z</time></trkpt><trkpt lat="38.4344117" lon="16.2232683"><ele>1113.25</ele><time>2026-03-29T07:55:06.584Z</time></trkpt><trkpt lat="38.4345333" lon="16.223335"><ele>1111.5</ele><time>2026-03-29T07:55:07.584Z</time></trkpt><trkpt lat="38.4346533" lon="16.223415"><ele>1109.75</ele><time>2026-03-29T07:55:08.584Z</time></trkpt><trkpt lat="38.4347633" lon="16.2234883"><ele>1108.0</ele><time>2026-03-29T07:55:09.584Z</time></trkpt><trkpt lat="38.434885" lon="16.2235733"><ele>1108.0</ele><time>2026-03-29T07:55:10.584Z</time></trkpt><trkpt lat="38.4350383" lon="16.2236867"><ele>1108.0</ele><time>2026-03-29T07:55:11.584Z</time></trkpt><trkpt lat="38.4351517" lon="16.2237883"><ele>1108.0</ele><time>2026-03-29T07:55:12.584Z</time></trkpt><trkpt lat="38.4352483" lon="16.2238967"><ele>1108.0</ele><time>2026-03-29T07:55:13.584Z</time></trkpt><trkpt lat="38.4353283" lon="16.2240267"><ele>1108.5</ele><time>2026-03-29T07:55:14.584Z</time></trkpt><trkpt lat="38.4353917" lon="16.2241817"><ele>1109.0</ele><time>2026-03-29T07:55:15.585Z</time></trkpt><trkpt lat="38.4354267" lon="16.2243283"><ele>1109.5</ele><time>2026-03-29T07:55:16.584Z</time></trkpt><trkpt lat="38.4354333" lon="16.224465"><ele>1110.0</ele><time>2026-03-29T07:55:17.584Z</time></trkpt><trkpt lat="38.4354183" lon="16.2245933"><ele>1110.0</ele><time>2026-03-29T07:55:18.584Z</time></trkpt><trkpt lat="38.435395" lon="16.2247183"><ele>1110.0</ele><time>2026-03-29T07:55:19.584Z</time></trkpt><trkpt lat="38.4353667" lon="16.2248433"><ele>1110.0</ele><time>2026-03-29T07:55:20.584Z</time></trkpt><trkpt lat="38.4353383" lon="16.2249833"><ele>1110.0</ele><time>2026-03-29T07:55:21.584Z</time></trkpt><trkpt lat="38.4353033" lon="16.22513"><ele>1110.0</ele><time>2026-03-29T07:55:22.584Z</time></trkpt><trkpt lat="38.4352767" lon="16.2252817"><ele>1111.8</ele><time>2026-03-29T07:55:23.584Z</time></trkpt><trkpt lat="38.43525" lon="16.225425"><ele>1113.6</ele><time>2026-03-29T07:55:24.584Z</time></trkpt><trkpt lat="38.4352317" lon="16.2255617"><ele>1115.4</ele><time>2026-03-29T07:55:25.584Z</time></trkpt><trkpt lat="38.43522" lon="16.2257017"><ele>1117.2</ele><time>2026-03-29T07:55:26.584Z</time></trkpt><trkpt lat="38.4352283" lon="16.2258417"><ele>1119.0</ele><time>2026-03-29T07:55:27.584Z</time></trkpt><trkpt lat="38.4352617" lon="16.2259867"><ele>1120.5</ele><time>2026-03-29T07:55:28.584Z</time></trkpt><trkpt lat="38.4353033" lon="16.2261283"><ele>1122.0</ele><time>2026-03-29T07:55:29.584Z</time></trkpt><trkpt lat="38.4353633" lon="16.2262733"><ele>1123.5</ele><time>2026-03-29T07:55:30.584Z</time></trkpt><trkpt lat="38.4354383" lon="16.2264267"><ele>1125.0</ele><time>2026-03-29T07:55:31.584Z</time></trkpt><trkpt lat="38.4355167" lon="16.22657"><ele>1125.0</ele><time>2026-03-29T07:55:32.584Z</time></trkpt><trkpt lat="38.43559" lon="16.22671"><ele>1125.0</ele><time>2026-03-29T07:55:33.584Z</time></trkpt><trkpt lat="38.435655" lon="16.2268517"><ele>1125.0</ele><time>2026-03-29T07:55:34.584Z</time></trkpt><trkpt lat="38.43574" lon="16.227005"><ele>1125.0</ele><time>2026-03-29T07:55:35.584Z</time></trkpt><trkpt lat="38.43582" lon="16.227165"><ele>1124.25</ele><time>2026-03-29T07:55:36.584Z</time></trkpt><trkpt lat="38.4359067" lon="16.22733"><ele>1123.5</ele><time>2026-03-29T07:55:37.585Z</time></trkpt><trkpt lat="38.4359867" lon="16.2274833"><ele>1122.75</ele><time>2026-03-29T07:55:38.585Z</time></trkpt><trkpt lat="38.436065" lon="16.2276267"><ele>1122.0</ele><time>2026-03-29T07:55:39.584Z</time></trkpt><trkpt lat="38.4361383" lon="16.22777"><ele>1122.0</ele><time>2026-03-29T07:55:40.584Z</time></trkpt><trkpt lat="38.4362117" lon="16.2279183"><ele>1122.0</ele><time>2026-03-29T07:55:41.584Z</time></trkpt><trkpt lat="38.4362917" lon="16.228075"><ele>1122.0</ele><time>2026-03-29T07:55:42.584Z</time></trkpt><trkpt lat="38.4363583" lon="16.2282283"><ele>1122.0</ele><time>2026-03-29T07:55:43.584Z</time></trkpt><trkpt lat="38.436415" lon="16.2283867"><ele>1123.25</ele><time>2026-03-29T07:55:44.584Z</time></trkpt><trkpt lat="38.4364617" lon="16.228535"><ele>1124.5</ele><time>2026-03-29T07:55:45.584Z</time></trkpt><trkpt lat="38.4364967" lon="16.2286783"><ele>1125.75</ele><time>2026-03-29T07:55:46.584Z</time></trkpt><trkpt lat="38.43651" lon="16.22882"><ele>1127.0</ele><time>2026-03-29T07:55:47.584Z</time></trkpt><trkpt lat="38.4365117" lon="16.2289683"><ele>1126.25</ele><time>2026-03-29T07:55:48.584Z</time></trkpt><trkpt lat="38.436495" lon="16.2291133"><ele>1125.5</ele><time>2026-03-29T07:55:49.584Z</time></trkpt><trkpt lat="38.4364517" lon="16.2292533"><ele>1124.75</ele><time>2026-03-29T07:55:50.585Z</time></trkpt><trkpt lat="38.4363967" lon="16.229385"><ele>1124.0</ele><time>2026-03-29T07:55:51.584Z</time></trkpt><trkpt lat="38.4363233" lon="16.2295167"><ele>1125.5</ele><time>2026-03-29T07:55:52.584Z</time></trkpt><trkpt lat="38.4362167" lon="16.2296417"><ele>1127.0</ele><time>2026-03-29T07:55:53.584Z</time></trkpt><trkpt lat="38.436125" lon="16.2297733"><ele>1128.5</ele><time>2026-03-29T07:55:54.584Z</time></trkpt><trkpt lat="38.4360517" lon="16.22991"><ele>1130.0</ele><time>2026-03-29T07:55:55.584Z</time></trkpt><trkpt lat="38.4360067" lon="16.230055"><ele>1131.25</ele><time>2026-03-29T07:55:56.584Z</time></trkpt><trkpt lat="38.4359817" lon="16.230215"><ele>1132.5</ele><time>2026-03-29T07:55:57.584Z</time></trkpt><trkpt lat="38.4359817" lon="16.2303767"><ele>1133.75</ele><time>2026-03-29T07:55:58.584Z</time></trkpt><trkpt lat="38.436" lon="16.230525"><ele>1135.0</ele><time>2026-03-29T07:55:59.584Z</time></trkpt><trkpt lat="38.4360217" lon="16.23066"><ele>1136.0</ele><time>2026-03-29T07:56:00.584Z</time></trkpt><trkpt lat="38.4360567" lon="16.2308033"><ele>1137.0</ele><time>2026-03-29T07:56:01.584Z</time></trkpt><trkpt lat="38.4360967" lon="16.2309617"><ele>1138.0</ele><time>2026-03-29T07:56:02.584Z</time></trkpt><trkpt lat="38.436145" lon="16.231125"><ele>1139.0</ele><time>2026-03-29T07:56:03.584Z</time></trkpt><trkpt lat="38.436195" lon="16.23129"><ele>1139.0</ele><time>2026-03-29T07:56:04.585Z</time></trkpt><trkpt lat="38.4362483" lon="16.23145"><ele>1139.0</ele><time>2026-03-29T07:56:05.584Z</time></trkpt><trkpt lat="38.4362967" lon="16.231595"><ele>1139.0</ele><time>2026-03-29T07:56:06.584Z</time></trkpt><trkpt lat="38.4363467" lon="16.2317233"><ele>1139.0</ele><time>2026-03-29T07:56:07.584Z</time></trkpt><trkpt lat="38.4363967" lon="16.2318317"><ele>1137.8333333333335</ele><time>2026-03-29T07:56:08.584Z</time></trkpt><trkpt lat="38.43644" lon="16.231925"><ele>1136.6666666666667</ele><time>2026-03-29T07:56:09.584Z</time></trkpt><trkpt lat="38.4364767" lon="16.2320117"><ele>1135.5</ele><time>2026-03-29T07:56:10.585Z</time></trkpt><trkpt lat="38.4365" lon="16.2320983"><ele>1134.3333333333333</ele><time>2026-03-29T07:56:11.585Z</time></trkpt><trkpt lat="38.43652" lon="16.2322"><ele>1133.1666666666665</ele><time>2026-03-29T07:56:12.585Z</time></trkpt><trkpt lat="38.436545" lon="16.2322967"><ele>1132.0</ele><time>2026-03-29T07:56:13.585Z</time></trkpt><trkpt lat="38.4365683" lon="16.232375"><ele>1132.0</ele><time>2026-03-29T07:56:14.585Z</time></trkpt><trkpt lat="38.4365983" lon="16.232475"><ele>1132.0</ele><time>2026-03-29T07:56:16.585Z</time></trkpt><trkpt lat="38.4366467" lon="16.23257"><ele>1132.0</ele><time>2026-03-29T07:56:58.586Z</time></trkpt><trkpt lat="38.4367233" lon="16.2326533"><ele>1132.0</ele><time>2026-03-29T07:57:01.585Z</time></trkpt><trkpt lat="38.436785" lon="16.2326917"><ele>1132.0</ele><time>2026-03-29T07:57:02.585Z</time></trkpt><trkpt lat="38.43686" lon="16.2327367"><ele>1132.0</ele><time>2026-03-29T07:57:03.585Z</time></trkpt><trkpt lat="38.4369417" lon="16.2327883"><ele>1132.0</ele><time>2026-03-29T07:57:04.585Z</time></trkpt><trkpt lat="38.43704" lon="16.2328467"><ele>1132.0</ele><time>2026-03-29T07:57:05.585Z</time></trkpt><trkpt lat="38.437175" lon="16.2329617"><ele>1132.0</ele><time>2026-03-29T07:57:06.585Z</time></trkpt><trkpt lat="38.437285" lon="16.2330267"><ele>1132.0</ele><time>2026-03-29T07:57:07.585Z</time></trkpt><trkpt lat="38.4374067" lon="16.2330917"><ele>1130.5</ele><time>2026-03-29T07:57:08.585Z</time></trkpt><trkpt lat="38.4375367" lon="16.233155"><ele>1129.0</ele><time>2026-03-29T07:57:09.585Z</time></trkpt><trkpt lat="38.4376667" lon="16.233215"><ele>1127.5</ele><time>2026-03-29T07:57:10.585Z</time></trkpt><trkpt lat="38.4378033" lon="16.2332867"><ele>1126.0</ele><time>2026-03-29T07:57:11.585Z</time></trkpt><trkpt lat="38.43792" lon="16.2333533"><ele>1122.75</ele><time>2026-03-29T07:57:12.585Z</time></trkpt><trkpt lat="38.4380333" lon="16.2334217"><ele>1119.5</ele><time>2026-03-29T07:57:13.585Z</time></trkpt><trkpt lat="38.4381617" lon="16.2334967"><ele>1116.25</ele><time>2026-03-29T07:57:14.585Z</time></trkpt><trkpt lat="38.43827" lon="16.2335567"><ele>1113.0</ele><time>2026-03-29T07:57:15.585Z</time></trkpt><trkpt lat="38.4383733" lon="16.2336167"><ele>1113.0</ele><time>2026-03-29T07:57:16.585Z</time></trkpt><trkpt lat="38.4384783" lon="16.233675"><ele>1113.0</ele><time>2026-03-29T07:57:17.586Z</time></trkpt><trkpt lat="38.43858" lon="16.2337167"><ele>1113.0</ele><time>2026-03-29T07:57:18.585Z</time></trkpt><trkpt lat="38.4386567" lon="16.2337567"><ele>1113.0</ele><time>2026-03-29T07:57:19.585Z</time></trkpt><trkpt lat="38.4387283" lon="16.23378"><ele>1113.0</ele><time>2026-03-29T07:57:20.585Z</time></trkpt><trkpt lat="38.4387967" lon="16.2337933"><ele>1113.0</ele><time>2026-03-29T07:57:21.585Z</time></trkpt><trkpt lat="38.4388667" lon="16.2337967"><ele>1113.0</ele><time>2026-03-29T07:57:22.585Z</time></trkpt><trkpt lat="38.43897" lon="16.2338233"><ele>1113.0</ele><time>2026-03-29T07:57:24.585Z</time></trkpt><trkpt lat="38.4390383" lon="16.2338633"><ele>1113.0</ele><time>2026-03-29T07:57:26.585Z</time></trkpt><trkpt lat="38.439095" lon="16.23397"><ele>1113.0</ele><time>2026-03-29T07:57:36.585Z</time></trkpt><trkpt lat="38.43914" lon="16.234095"><ele>1113.0</ele><time>2026-03-29T07:57:38.585Z</time></trkpt><trkpt lat="38.4391817" lon="16.23423"><ele>1113.0</ele><time>2026-03-29T07:57:40.585Z</time></trkpt><trkpt lat="38.4392133" lon="16.23432"><ele>1113.0</ele><time>2026-03-29T07:57:42.585Z</time></trkpt><trkpt lat="38.43924" lon="16.2343983"><ele>1113.0</ele><time>2026-03-29T07:57:45.585Z</time></trkpt><trkpt lat="38.4392333" lon="16.2344917"><ele>1113.0</ele><time>2026-03-29T07:57:49.585Z</time></trkpt><trkpt lat="38.4392683" lon="16.2345633"><ele>1113.0</ele><time>2026-03-29T07:58:07.585Z</time></trkpt><trkpt lat="38.4393067" lon="16.2346733"><ele>1113.0</ele><time>2026-03-29T07:58:09.585Z</time></trkpt><trkpt lat="38.4393317" lon="16.2347483"><ele>1113.0</ele><time>2026-03-29T07:58:10.585Z</time></trkpt><trkpt lat="38.43935" lon="16.2348383"><ele>1112.4</ele><time>2026-03-29T07:58:11.585Z</time></trkpt><trkpt lat="38.43935" lon="16.2349467"><ele>1111.8</ele><time>2026-03-29T07:58:12.586Z</time></trkpt><trkpt lat="38.4393417" lon="16.2350667"><ele>1111.2</ele><time>2026-03-29T07:58:13.585Z</time></trkpt><trkpt lat="38.4393267" lon="16.235195"><ele>1110.6</ele><time>2026-03-29T07:58:14.585Z</time></trkpt><trkpt lat="38.439305" lon="16.2353383"><ele>1110.0</ele><time>2026-03-29T07:58:15.585Z</time></trkpt><trkpt lat="38.4392583" lon="16.2354783"><ele>1110.0</ele><time>2026-03-29T07:58:16.585Z</time></trkpt><trkpt lat="38.4392333" lon="16.2356233"><ele>1110.0</ele><time>2026-03-29T07:58:17.585Z</time></trkpt><trkpt lat="38.4392033" lon="16.235755"><ele>1110.0</ele><time>2026-03-29T07:58:18.585Z</time></trkpt><trkpt lat="38.4391783" lon="16.2358933"><ele>1110.0</ele><time>2026-03-29T07:58:19.585Z</time></trkpt><trkpt lat="38.4391533" lon="16.2360467"><ele>1109.0</ele><time>2026-03-29T07:58:20.585Z</time></trkpt><trkpt lat="38.4391283" lon="16.2362033"><ele>1108.0</ele><time>2026-03-29T07:58:21.585Z</time></trkpt><trkpt lat="38.439105" lon="16.2363567"><ele>1107.0</ele><time>2026-03-29T07:58:22.585Z</time></trkpt><trkpt lat="38.43908" lon="16.2365233"><ele>1106.0</ele><time>2026-03-29T07:58:23.585Z</time></trkpt><trkpt lat="38.4390567" lon="16.2366983"><ele>1106.0</ele><time>2026-03-29T07:58:24.585Z</time></trkpt><trkpt lat="38.4390267" lon="16.23689"><ele>1106.0</ele><time>2026-03-29T07:58:25.585Z</time></trkpt><trkpt lat="38.4390033" lon="16.23709"><ele>1106.0</ele><time>2026-03-29T07:58:26.585Z</time></trkpt><trkpt lat="38.438985" lon="16.2372817"><ele>1105.5</ele><time>2026-03-29T07:58:27.585Z</time></trkpt><trkpt lat="38.4389583" lon="16.2374567"><ele>1105.0</ele><time>2026-03-29T07:58:28.585Z</time></trkpt><trkpt lat="38.438925" lon="16.2376217"><ele>1104.5</ele><time>2026-03-29T07:58:29.585Z</time></trkpt><trkpt lat="38.43887" lon="16.2377833"><ele>1104.0</ele><time>2026-03-29T07:58:30.585Z</time></trkpt><trkpt lat="38.4387983" lon="16.2379383"><ele>1103.6666666666667</ele><time>2026-03-29T07:58:31.585Z</time></trkpt><trkpt lat="38.43872" lon="16.238095"><ele>1103.3333333333335</ele><time>2026-03-29T07:58:32.585Z</time></trkpt><trkpt lat="38.438635" lon="16.238255"><ele>1103.0</ele><time>2026-03-29T07:58:33.585Z</time></trkpt><trkpt lat="38.4385417" lon="16.2384267"><ele>1104.25</ele><time>2026-03-29T07:58:34.585Z</time></trkpt><trkpt lat="38.4384633" lon="16.2385917"><ele>1105.5</ele><time>2026-03-29T07:58:35.585Z</time></trkpt><trkpt lat="38.43839" lon="16.2387467"><ele>1106.75</ele><time>2026-03-29T07:58:36.585Z</time></trkpt><trkpt lat="38.4383367" lon="16.2388717"><ele>1108.0</ele><time>2026-03-29T07:58:37.585Z</time></trkpt><trkpt lat="38.4382817" lon="16.2390083"><ele>1109.0</ele><time>2026-03-29T07:58:38.585Z</time></trkpt><trkpt lat="38.4382567" lon="16.2391417"><ele>1110.0</ele><time>2026-03-29T07:58:39.585Z</time></trkpt><trkpt lat="38.4382483" lon="16.2392833"><ele>1111.0</ele><time>2026-03-29T07:58:40.585Z</time></trkpt><trkpt lat="38.438245" lon="16.2394283"><ele>1112.0</ele><time>2026-03-29T07:58:41.585Z</time></trkpt><trkpt lat="38.4382483" lon="16.2395883"><ele>1112.0</ele><time>2026-03-29T07:58:42.585Z</time></trkpt><trkpt lat="38.4382467" lon="16.23975"><ele>1112.0</ele><time>2026-03-29T07:58:43.585Z</time></trkpt><trkpt lat="38.4382433" lon="16.2399183"><ele>1112.0</ele><time>2026-03-29T07:58:44.585Z</time></trkpt><trkpt lat="38.4382367" lon="16.2400867"><ele>1112.0</ele><time>2026-03-29T07:58:45.585Z</time></trkpt><trkpt lat="38.4382333" lon="16.2402483"><ele>1112.0</ele><time>2026-03-29T07:58:46.586Z</time></trkpt><trkpt lat="38.438235" lon="16.240395"><ele>1112.0</ele><time>2026-03-29T07:58:47.585Z</time></trkpt><trkpt lat="38.4382417" lon="16.2405183"><ele>1112.0</ele><time>2026-03-29T07:58:48.585Z</time></trkpt><trkpt lat="38.4382617" lon="16.24062"><ele>1112.0</ele><time>2026-03-29T07:58:49.585Z</time></trkpt><trkpt lat="38.43829" lon="16.240715"><ele>1112.0</ele><time>2026-03-29T07:58:50.585Z</time></trkpt><trkpt lat="38.4383317" lon="16.2408083"><ele>1112.0</ele><time>2026-03-29T07:58:51.585Z</time></trkpt><trkpt lat="38.4383883" lon="16.24091"><ele>1112.0</ele><time>2026-03-29T07:58:52.585Z</time></trkpt><trkpt lat="38.438455" lon="16.241015"><ele>1112.0</ele><time>2026-03-29T07:58:53.585Z</time></trkpt><trkpt lat="38.4385267" lon="16.2411517"><ele>1112.0</ele><time>2026-03-29T07:58:54.585Z</time></trkpt><trkpt lat="38.4385867" lon="16.2413017"><ele>1112.0</ele><time>2026-03-29T07:58:55.585Z</time></trkpt><trkpt lat="38.4386333" lon="16.2414567"><ele>1112.0</ele><time>2026-03-29T07:58:56.585Z</time></trkpt><trkpt lat="38.43869" lon="16.241625"><ele>1112.0</ele><time>2026-03-29T07:58:57.585Z</time></trkpt><trkpt lat="38.4387517" lon="16.2417967"><ele>1112.0</ele><time>2026-03-29T07:58:58.585Z</time></trkpt><trkpt lat="38.438815" lon="16.24198"><ele>1112.0</ele><time>2026-03-29T07:58:59.585Z</time></trkpt><trkpt lat="38.438865" lon="16.2421633"><ele>1112.0</ele><time>2026-03-29T07:59:00.585Z</time></trkpt><trkpt lat="38.4389033" lon="16.2423183"><ele>1112.0</ele><time>2026-03-29T07:59:01.585Z</time></trkpt><trkpt lat="38.4389283" lon="16.24245"><ele>1112.0</ele><time>2026-03-29T07:59:02.585Z</time></trkpt><trkpt lat="38.4389317" lon="16.2425633"><ele>1112.0</ele><time>2026-03-29T07:59:03.585Z</time></trkpt><trkpt lat="38.4389133" lon="16.2426667"><ele>1112.0</ele><time>2026-03-29T07:59:04.585Z</time></trkpt><trkpt lat="38.4388733" lon="16.2427667"><ele>1112.0</ele><time>2026-03-29T07:59:05.585Z</time></trkpt><trkpt lat="38.4388267" lon="16.2428833"><ele>1112.0</ele><time>2026-03-29T07:59:06.585Z</time></trkpt><trkpt lat="38.4387517" lon="16.2430017"><ele>1112.0</ele><time>2026-03-29T07:59:07.585Z</time></trkpt><trkpt lat="38.4386667" lon="16.24314"><ele>1111.0</ele><time>2026-03-29T07:59:08.585Z</time></trkpt><trkpt lat="38.4385867" lon="16.243295"><ele>1110.0</ele><time>2026-03-29T07:59:09.585Z</time></trkpt><trkpt lat="38.4385217" lon="16.24346"><ele>1109.0</ele><time>2026-03-29T07:59:10.585Z</time></trkpt><trkpt lat="38.4384667" lon="16.2436217"><ele>1108.0</ele><time>2026-03-29T07:59:11.585Z</time></trkpt><trkpt lat="38.4384217" lon="16.2437683"><ele>1108.0</ele><time>2026-03-29T07:59:12.585Z</time></trkpt><trkpt lat="38.4383717" lon="16.2439"><ele>1108.0</ele><time>2026-03-29T07:59:13.585Z</time></trkpt><trkpt lat="38.4383233" lon="16.2440117"><ele>1108.0</ele><time>2026-03-29T07:59:14.585Z</time></trkpt><trkpt lat="38.4382583" lon="16.2441"><ele>1108.0</ele><time>2026-03-29T07:59:15.585Z</time></trkpt><trkpt lat="38.43818" lon="16.2441617"><ele>1108.0</ele><time>2026-03-29T07:59:16.585Z</time></trkpt><trkpt lat="38.438105" lon="16.244215"><ele>1107.2</ele><time>2026-03-29T07:59:17.585Z</time></trkpt><trkpt lat="38.4380467" lon="16.2442583"><ele>1106.4</ele><time>2026-03-29T07:59:18.585Z</time></trkpt><trkpt lat="38.43799" lon="16.24438"><ele>1105.6000000000001</ele><time>2026-03-29T07:59:20.585Z</time></trkpt><trkpt lat="38.4380217" lon="16.2445"><ele>1104.8</ele><time>2026-03-29T07:59:22.585Z</time></trkpt><trkpt lat="38.4381333" lon="16.24457"><ele>1104.0</ele><time>2026-03-29T07:59:24.585Z</time></trkpt><trkpt lat="38.438255" lon="16.24458"><ele>1104.0</ele><time>2026-03-29T07:59:26.585Z</time></trkpt><trkpt lat="38.4383267" lon="16.2445733"><ele>1104.0</ele><time>2026-03-29T07:59:27.585Z</time></trkpt><trkpt lat="38.4384067" lon="16.2445733"><ele>1104.0</ele><time>2026-03-29T07:59:28.585Z</time></trkpt><trkpt lat="38.4385" lon="16.2445817"><ele>1104.0</ele><time>2026-03-29T07:59:29.585Z</time></trkpt><trkpt lat="38.4386017" lon="16.2446217"><ele>1104.0</ele><time>2026-03-29T07:59:30.585Z</time></trkpt><trkpt lat="38.4387333" lon="16.2446583"><ele>1103.25</ele><time>2026-03-29T07:59:31.585Z</time></trkpt><trkpt lat="38.43886" lon="16.244655"><ele>1102.5</ele><time>2026-03-29T07:59:32.586Z</time></trkpt><trkpt lat="38.43896" lon="16.2446217"><ele>1101.75</ele><time>2026-03-29T07:59:33.585Z</time></trkpt><trkpt lat="38.439055" lon="16.24455"><ele>1101.0</ele><time>2026-03-29T07:59:34.585Z</time></trkpt><trkpt lat="38.4391433" lon="16.2444333"><ele>1101.0</ele><time>2026-03-29T07:59:35.585Z</time></trkpt><trkpt lat="38.4392283" lon="16.2442867"><ele>1101.0</ele><time>2026-03-29T07:59:36.585Z</time></trkpt><trkpt lat="38.439295" lon="16.244145"><ele>1101.0</ele><time>2026-03-29T07:59:37.585Z</time></trkpt><trkpt lat="38.4393483" lon="16.24405"><ele>1101.0</ele><time>2026-03-29T07:59:38.585Z</time></trkpt><trkpt lat="38.4393983" lon="16.2439967"><ele>1101.0</ele><time>2026-03-29T07:59:39.585Z</time></trkpt><trkpt lat="38.4395183" lon="16.2439783"><ele>1101.0</ele><time>2026-03-29T07:59:41.585Z</time></trkpt><trkpt lat="38.4396333" lon="16.2440867"><ele>1101.0</ele><time>2026-03-29T07:59:43.585Z</time></trkpt><trkpt lat="38.4396783" lon="16.2441967"><ele>1101.0</ele><time>2026-03-29T07:59:44.585Z</time></trkpt><trkpt lat="38.43973" lon="16.24433"><ele>1101.0</ele><time>2026-03-29T07:59:45.585Z</time></trkpt><trkpt lat="38.4398" lon="16.244445"><ele>1098.6666666666667</ele><time>2026-03-29T07:59:46.585Z</time></trkpt><trkpt lat="38.4398667" lon="16.2445417"><ele>1096.3333333333333</ele><time>2026-03-29T07:59:47.585Z</time></trkpt><trkpt lat="38.439925" lon="16.2446317"><ele>1094.0</ele><time>2026-03-29T07:59:48.585Z</time></trkpt><trkpt lat="38.4399667" lon="16.2447117"><ele>1091.6666666666665</ele><time>2026-03-29T07:59:49.585Z</time></trkpt><trkpt lat="38.4399867" lon="16.2447983"><ele>1089.3333333333333</ele><time>2026-03-29T07:59:50.585Z</time></trkpt><trkpt lat="38.4400033" lon="16.24488"><ele>1087.0</ele><time>2026-03-29T07:59:51.585Z</time></trkpt><trkpt lat="38.4399983" lon="16.244975"><ele>1084.0</ele><time>2026-03-29T07:59:52.585Z</time></trkpt><trkpt lat="38.4399883" lon="16.2450683"><ele>1081.0</ele><time>2026-03-29T07:59:53.585Z</time></trkpt><trkpt lat="38.43996" lon="16.2451683"><ele>1078.0</ele><time>2026-03-29T07:59:54.585Z</time></trkpt><trkpt lat="38.4399317" lon="16.2453083"><ele>1075.0</ele><time>2026-03-29T07:59:55.585Z</time></trkpt><trkpt lat="38.4399167" lon="16.2454683"><ele>1072.0</ele><time>2026-03-29T07:59:56.585Z</time></trkpt><trkpt lat="38.4399117" lon="16.2456767"><ele>1069.6666666666665</ele><time>2026-03-29T07:59:57.585Z</time></trkpt><trkpt lat="38.4399133" lon="16.2459033"><ele>1067.3333333333333</ele><time>2026-03-29T07:59:58.585Z</time></trkpt><trkpt lat="38.43991" lon="16.24612"><ele>1065.0</ele><time>2026-03-29T07:59:59.585Z</time></trkpt><trkpt lat="38.439895" lon="16.24634"><ele>1063.0</ele><time>2026-03-29T08:00:00.585Z</time></trkpt><trkpt lat="38.43988" lon="16.2465233"><ele>1061.0</ele><time>2026-03-29T08:00:01.585Z</time></trkpt><trkpt lat="38.4398733" lon="16.2466483"><ele>1059.0</ele><time>2026-03-29T08:00:02.585Z</time></trkpt><trkpt lat="38.4398883" lon="16.246755"><ele>1057.0</ele><time>2026-03-29T08:00:03.585Z</time></trkpt><trkpt lat="38.439935" lon="16.24683"><ele>1055.0</ele><time>2026-03-29T08:00:04.585Z</time></trkpt><trkpt lat="38.44" lon="16.2468933"><ele>1055.0</ele><time>2026-03-29T08:00:05.585Z</time></trkpt><trkpt lat="38.44009" lon="16.2469433"><ele>1055.0</ele><time>2026-03-29T08:00:06.586Z</time></trkpt><trkpt lat="38.4402" lon="16.2469683"><ele>1055.0</ele><time>2026-03-29T08:00:07.585Z</time></trkpt><trkpt lat="38.4403133" lon="16.2469433"><ele>1055.0</ele><time>2026-03-29T08:00:08.585Z</time></trkpt><trkpt lat="38.4404117" lon="16.2469067"><ele>1055.0</ele><time>2026-03-29T08:00:09.585Z</time></trkpt><trkpt lat="38.4404917" lon="16.2468317"><ele>1054.5</ele><time>2026-03-29T08:00:10.585Z</time></trkpt><trkpt lat="38.4405583" lon="16.2467483"><ele>1054.0</ele><time>2026-03-29T08:00:11.585Z</time></trkpt><trkpt lat="38.44062" lon="16.2466667"><ele>1053.5</ele><time>2026-03-29T08:00:12.585Z</time></trkpt><trkpt lat="38.4406783" lon="16.246605"><ele>1053.0</ele><time>2026-03-29T08:00:13.585Z</time></trkpt><trkpt lat="38.4407383" lon="16.2465667"><ele>1052.5</ele><time>2026-03-29T08:00:14.585Z</time></trkpt><trkpt lat="38.4408417" lon="16.24656"><ele>1052.0</ele><time>2026-03-29T08:00:16.585Z</time></trkpt><trkpt lat="38.44091" lon="16.2466367"><ele>1052.0</ele><time>2026-03-29T08:00:18.586Z</time></trkpt><trkpt lat="38.44095" lon="16.246705"><ele>1052.0</ele><time>2026-03-29T08:00:19.585Z</time></trkpt><trkpt lat="38.4409933" lon="16.2468133"><ele>1052.0</ele><time>2026-03-29T08:00:20.585Z</time></trkpt><trkpt lat="38.44103" lon="16.2469383"><ele>1052.0</ele><time>2026-03-29T08:00:21.585Z</time></trkpt><trkpt lat="38.4410467" lon="16.2470817"><ele>1052.0</ele><time>2026-03-29T08:00:22.585Z</time></trkpt><trkpt lat="38.4410483" lon="16.2472317"><ele>1048.2</ele><time>2026-03-29T08:00:23.585Z</time></trkpt><trkpt lat="38.4410317" lon="16.2473783"><ele>1044.4</ele><time>2026-03-29T08:00:24.585Z</time></trkpt><trkpt lat="38.4410067" lon="16.2475033"><ele>1040.6</ele><time>2026-03-29T08:00:25.585Z</time></trkpt><trkpt lat="38.4409933" lon="16.2476333"><ele>1036.8</ele><time>2026-03-29T08:00:26.585Z</time></trkpt><trkpt lat="38.4410167" lon="16.2477533"><ele>1033.0</ele><time>2026-03-29T08:00:27.585Z</time></trkpt><trkpt lat="38.4410483" lon="16.24787"><ele>1033.0</ele><time>2026-03-29T08:00:28.585Z</time></trkpt><trkpt lat="38.4411367" lon="16.2480033"><ele>1033.0</ele><time>2026-03-29T08:00:29.585Z</time></trkpt><trkpt lat="38.4412467" lon="16.2481483"><ele>1033.0</ele><time>2026-03-29T08:00:30.585Z</time></trkpt><trkpt lat="38.441375" lon="16.2483083"><ele>1027.6666666666665</ele><time>2026-03-29T08:00:31.585Z</time></trkpt><trkpt lat="38.441495" lon="16.24847"><ele>1022.3333333333333</ele><time>2026-03-29T08:00:32.585Z</time></trkpt><trkpt lat="38.44159" lon="16.2486233"><ele>1017.0</ele><time>2026-03-29T08:00:33.585Z</time></trkpt><trkpt lat="38.4416733" lon="16.24877"><ele>1017.0</ele><time>2026-03-29T08:00:34.585Z</time></trkpt><trkpt lat="38.44174" lon="16.2489217"><ele>1017.0</ele><time>2026-03-29T08:00:35.585Z</time></trkpt><trkpt lat="38.441805" lon="16.249085"><ele>1017.0</ele><time>2026-03-29T08:00:36.585Z</time></trkpt><trkpt lat="38.4418667" lon="16.2492517"><ele>1017.0</ele><time>2026-03-29T08:00:37.585Z</time></trkpt><trkpt lat="38.4419117" lon="16.249405"><ele>1016.75</ele><time>2026-03-29T08:00:38.585Z</time></trkpt><trkpt lat="38.441945" lon="16.2495517"><ele>1016.5</ele><time>2026-03-29T08:00:39.585Z</time></trkpt><trkpt lat="38.4419717" lon="16.249695"><ele>1016.25</ele><time>2026-03-29T08:00:40.585Z</time></trkpt><trkpt lat="38.4419983" lon="16.2498317"><ele>1016.0</ele><time>2026-03-29T08:00:41.585Z</time></trkpt><trkpt lat="38.44202" lon="16.2499833"><ele>1014.75</ele><time>2026-03-29T08:00:42.585Z</time></trkpt><trkpt lat="38.4420317" lon="16.2501333"><ele>1013.5</ele><time>2026-03-29T08:00:43.585Z</time></trkpt><trkpt lat="38.442025" lon="16.2503"><ele>1012.25</ele><time>2026-03-29T08:00:44.585Z</time></trkpt><trkpt lat="38.442" lon="16.2504667"><ele>1011.0</ele><time>2026-03-29T08:00:45.585Z</time></trkpt><trkpt lat="38.4419683" lon="16.2506317"><ele>1011.0</ele><time>2026-03-29T08:00:46.585Z</time></trkpt><trkpt lat="38.4419333" lon="16.2508033"><ele>1011.0</ele><time>2026-03-29T08:00:47.585Z</time></trkpt><trkpt lat="38.4418983" lon="16.25098"><ele>1011.0</ele><time>2026-03-29T08:00:48.585Z</time></trkpt><trkpt lat="38.441865" lon="16.2511517"><ele>1011.0</ele><time>2026-03-29T08:00:49.585Z</time></trkpt><trkpt lat="38.4418167" lon="16.2513417"><ele>1014.6666666666667</ele><time>2026-03-29T08:00:50.585Z</time></trkpt><trkpt lat="38.4417583" lon="16.2515317"><ele>1018.3333333333334</ele><time>2026-03-29T08:00:51.585Z</time></trkpt><trkpt lat="38.4416917" lon="16.2517183"><ele>1022.0</ele><time>2026-03-29T08:00:52.585Z</time></trkpt><trkpt lat="38.441625" lon="16.2519017"><ele>1022.0</ele><time>2026-03-29T08:00:53.585Z</time></trkpt><trkpt lat="38.4415733" lon="16.25208"><ele>1022.0</ele><time>2026-03-29T08:00:54.585Z</time></trkpt><trkpt lat="38.441535" lon="16.252235"><ele>1022.0</ele><time>2026-03-29T08:00:55.585Z</time></trkpt><trkpt lat="38.441525" lon="16.252365"><ele>1022.0</ele><time>2026-03-29T08:00:56.585Z</time></trkpt><trkpt lat="38.4415233" lon="16.25248"><ele>1023.75</ele><time>2026-03-29T08:00:57.585Z</time></trkpt><trkpt lat="38.4415567" lon="16.2525917"><ele>1025.5</ele><time>2026-03-29T08:00:58.585Z</time></trkpt><trkpt lat="38.441635" lon="16.252685"><ele>1027.25</ele><time>2026-03-29T08:00:59.585Z</time></trkpt><trkpt lat="38.4417417" lon="16.2527883"><ele>1029.0</ele><time>2026-03-29T08:01:00.585Z</time></trkpt><trkpt lat="38.441855" lon="16.252875"><ele>1029.0</ele><time>2026-03-29T08:01:01.585Z</time></trkpt><trkpt lat="38.44196" lon="16.2529233"><ele>1029.0</ele><time>2026-03-29T08:01:02.585Z</time></trkpt><trkpt lat="38.4420683" lon="16.25294"><ele>1029.0</ele><time>2026-03-29T08:01:03.585Z</time></trkpt><trkpt lat="38.4421867" lon="16.25292"><ele>1029.0</ele><time>2026-03-29T08:01:04.585Z</time></trkpt><trkpt lat="38.442325" lon="16.2528667"><ele>1031.75</ele><time>2026-03-29T08:01:05.585Z</time></trkpt><trkpt lat="38.4424567" lon="16.25281"><ele>1034.5</ele><time>2026-03-29T08:01:06.585Z</time></trkpt><trkpt lat="38.4425833" lon="16.2527733"><ele>1037.25</ele><time>2026-03-29T08:01:07.585Z</time></trkpt><trkpt lat="38.44273" lon="16.25278"><ele>1040.0</ele><time>2026-03-29T08:01:08.585Z</time></trkpt><trkpt lat="38.4428783" lon="16.2528183"><ele>1041.75</ele><time>2026-03-29T08:01:09.585Z</time></trkpt><trkpt lat="38.4430267" lon="16.252885"><ele>1043.5</ele><time>2026-03-29T08:01:10.585Z</time></trkpt><trkpt lat="38.4431517" lon="16.2529733"><ele>1045.25</ele><time>2026-03-29T08:01:11.585Z</time></trkpt><trkpt lat="38.4432483" lon="16.2530967"><ele>1047.0</ele><time>2026-03-29T08:01:12.585Z</time></trkpt><trkpt lat="38.44335" lon="16.25321"><ele>1047.0</ele><time>2026-03-29T08:01:13.585Z</time></trkpt><trkpt lat="38.4434617" lon="16.2533167"><ele>1047.0</ele><time>2026-03-29T08:01:14.585Z</time></trkpt><trkpt lat="38.4436017" lon="16.2533933"><ele>1047.0</ele><time>2026-03-29T08:01:15.585Z</time></trkpt><trkpt lat="38.44377" lon="16.2534483"><ele>1049.3333333333333</ele><time>2026-03-29T08:01:16.585Z</time></trkpt><trkpt lat="38.443945" lon="16.2535083"><ele>1051.6666666666665</ele><time>2026-03-29T08:01:17.585Z</time></trkpt><trkpt lat="38.444115" lon="16.2535633"><ele>1054.0</ele><time>2026-03-29T08:01:18.585Z</time></trkpt><trkpt lat="38.44425" lon="16.2536233"><ele>1054.0</ele><time>2026-03-29T08:01:19.585Z</time></trkpt><trkpt lat="38.444355" lon="16.2537"><ele>1054.0</ele><time>2026-03-29T08:01:20.585Z</time></trkpt><trkpt lat="38.4444233" lon="16.2537833"><ele>1054.0</ele><time>2026-03-29T08:01:21.585Z</time></trkpt><trkpt lat="38.4444683" lon="16.253895"><ele>1054.0</ele><time>2026-03-29T08:01:22.585Z</time></trkpt><trkpt lat="38.4444983" lon="16.254035"><ele>1054.0</ele><time>2026-03-29T08:01:23.585Z</time></trkpt><trkpt lat="38.4445133" lon="16.254205"><ele>1056.6666666666665</ele><time>2026-03-29T08:01:24.585Z</time></trkpt><trkpt lat="38.44451" lon="16.2544183"><ele>1059.3333333333333</ele><time>2026-03-29T08:01:25.585Z</time></trkpt><trkpt lat="38.4444967" lon="16.2546667"><ele>1062.0</ele><time>2026-03-29T08:01:26.585Z</time></trkpt><trkpt lat="38.4444867" lon="16.2549267"><ele>1063.3333333333333</ele><time>2026-03-29T08:01:27.585Z</time></trkpt><trkpt lat="38.4444767" lon="16.2551767"><ele>1064.6666666666665</ele><time>2026-03-29T08:01:28.585Z</time></trkpt><trkpt lat="38.4444883" lon="16.2554367"><ele>1066.0</ele><time>2026-03-29T08:01:29.585Z</time></trkpt><trkpt lat="38.4444833" lon="16.2556883"><ele>1066.0</ele><time>2026-03-29T08:01:30.585Z</time></trkpt><trkpt lat="38.44447" lon="16.2559067"><ele>1066.0</ele><time>2026-03-29T08:01:31.585Z</time></trkpt><trkpt lat="38.444435" lon="16.2561133"><ele>1066.0</ele><time>2026-03-29T08:01:32.585Z</time></trkpt><trkpt lat="38.44439" lon="16.2562867"><ele>1066.0</ele><time>2026-03-29T08:01:33.585Z</time></trkpt><trkpt lat="38.444355" lon="16.25643"><ele>1066.0</ele><time>2026-03-29T08:01:34.585Z</time></trkpt><trkpt lat="38.4443467" lon="16.256555"><ele>1066.0</ele><time>2026-03-29T08:01:35.585Z</time></trkpt><trkpt lat="38.4443733" lon="16.2566717"><ele>1066.0</ele><time>2026-03-29T08:01:36.585Z</time></trkpt><trkpt lat="38.4444317" lon="16.2567733"><ele>1066.0</ele><time>2026-03-29T08:01:37.585Z</time></trkpt><trkpt lat="38.444525" lon="16.2568733"><ele>1071.6666666666665</ele><time>2026-03-29T08:01:38.585Z</time></trkpt><trkpt lat="38.4446417" lon="16.2569783"><ele>1077.3333333333333</ele><time>2026-03-29T08:01:39.585Z</time></trkpt><trkpt lat="38.4447817" lon="16.25709"><ele>1083.0</ele><time>2026-03-29T08:01:40.585Z</time></trkpt><trkpt lat="38.4449217" lon="16.257205"><ele>1087.6666666666667</ele><time>2026-03-29T08:01:41.585Z</time></trkpt><trkpt lat="38.4450683" lon="16.257305"><ele>1092.3333333333335</ele><time>2026-03-29T08:01:42.585Z</time></trkpt><trkpt lat="38.4452117" lon="16.257385"><ele>1097.0</ele><time>2026-03-29T08:01:43.585Z</time></trkpt><trkpt lat="38.445345" lon="16.2574517"><ele>1094.75</ele><time>2026-03-29T08:01:44.585Z</time></trkpt><trkpt lat="38.4454783" lon="16.2575"><ele>1092.5</ele><time>2026-03-29T08:01:45.585Z</time></trkpt><trkpt lat="38.4456067" lon="16.2575517"><ele>1090.25</ele><time>2026-03-29T08:01:46.585Z</time></trkpt><trkpt lat="38.4457167" lon="16.2576267"><ele>1088.0</ele><time>2026-03-29T08:01:47.586Z</time></trkpt><trkpt lat="38.4457983" lon="16.2577217"><ele>1088.0</ele><time>2026-03-29T08:01:48.585Z</time></trkpt><trkpt lat="38.4458467" lon="16.2578233"><ele>1088.0</ele><time>2026-03-29T08:01:49.585Z</time></trkpt><trkpt lat="38.4458833" lon="16.2579467"><ele>1088.0</ele><time>2026-03-29T08:01:50.585Z</time></trkpt><trkpt lat="38.4458817" lon="16.25806"><ele>1088.0</ele><time>2026-03-29T08:01:51.585Z</time></trkpt><trkpt lat="38.44586" lon="16.25817"><ele>1088.0</ele><time>2026-03-29T08:01:52.585Z</time></trkpt><trkpt lat="38.4458" lon="16.2582483"><ele>1090.0</ele><time>2026-03-29T08:01:53.586Z</time></trkpt><trkpt lat="38.4457317" lon="16.258295"><ele>1092.0</ele><time>2026-03-29T08:01:54.585Z</time></trkpt><trkpt lat="38.4456367" lon="16.2583"><ele>1094.0</ele><time>2026-03-29T08:01:55.585Z</time></trkpt><trkpt lat="38.44553" lon="16.2582833"><ele>1096.0</ele><time>2026-03-29T08:01:56.585Z</time></trkpt><trkpt lat="38.4453967" lon="16.25826"><ele>1098.0</ele><time>2026-03-29T08:01:57.586Z</time></trkpt><trkpt lat="38.44525" lon="16.2582417"><ele>1101.0</ele><time>2026-03-29T08:01:58.586Z</time></trkpt><trkpt lat="38.4451" lon="16.258265"><ele>1104.0</ele><time>2026-03-29T08:01:59.587Z</time></trkpt><trkpt lat="38.4449333" lon="16.2583233"><ele>1107.0</ele><time>2026-03-29T08:02:00.586Z</time></trkpt><trkpt lat="38.4447817" lon="16.2584"><ele>1107.0</ele><time>2026-03-29T08:02:01.586Z</time></trkpt><trkpt lat="38.44465" lon="16.258485"><ele>1107.0</ele><time>2026-03-29T08:02:02.586Z</time></trkpt><trkpt lat="38.4445433" lon="16.2585833"><ele>1107.0</ele><time>2026-03-29T08:02:03.586Z</time></trkpt><trkpt lat="38.4444467" lon="16.2586983"><ele>1107.0</ele><time>2026-03-29T08:02:04.586Z</time></trkpt><trkpt lat="38.44438" lon="16.2588133"><ele>1108.0</ele><time>2026-03-29T08:02:05.586Z</time></trkpt><trkpt lat="38.44434" lon="16.2589367"><ele>1109.0</ele><time>2026-03-29T08:02:06.586Z</time></trkpt><trkpt lat="38.4443183" lon="16.2590717"><ele>1110.0</ele><time>2026-03-29T08:02:07.586Z</time></trkpt><trkpt lat="38.4443233" lon="16.259235"><ele>1111.0</ele><time>2026-03-29T08:02:08.586Z</time></trkpt><trkpt lat="38.4443517" lon="16.2593983"><ele>1113.0</ele><time>2026-03-29T08:02:09.586Z</time></trkpt><trkpt lat="38.44439" lon="16.2595417"><ele>1115.0</ele><time>2026-03-29T08:02:10.586Z</time></trkpt><trkpt lat="38.4444467" lon="16.2596567"><ele>1117.0</ele><time>2026-03-29T08:02:11.586Z</time></trkpt><trkpt lat="38.444515" lon="16.2597417"><ele>1119.0</ele><time>2026-03-29T08:02:12.586Z</time></trkpt><trkpt lat="38.444595" lon="16.2598083"><ele>1121.0</ele><time>2026-03-29T08:02:13.586Z</time></trkpt><trkpt lat="38.4447017" lon="16.259845"><ele>1121.2</ele><time>2026-03-29T08:02:14.586Z</time></trkpt><trkpt lat="38.4448117" lon="16.2598767"><ele>1121.3999999999999</ele><time>2026-03-29T08:02:15.586Z</time></trkpt><trkpt lat="38.4449067" lon="16.2599083"><ele>1121.6</ele><time>2026-03-29T08:02:16.586Z</time></trkpt><trkpt lat="38.4449983" lon="16.2599583"><ele>1121.8</ele><time>2026-03-29T08:02:17.586Z</time></trkpt><trkpt lat="38.44506" lon="16.260035"><ele>1122.0</ele><time>2026-03-29T08:02:18.586Z</time></trkpt><trkpt lat="38.4451017" lon="16.2601467"><ele>1122.0</ele><time>2026-03-29T08:02:19.586Z</time></trkpt><trkpt lat="38.445105" lon="16.26029"><ele>1122.0</ele><time>2026-03-29T08:02:20.586Z</time></trkpt><trkpt lat="38.4450817" lon="16.26044"><ele>1122.0</ele><time>2026-03-29T08:02:21.586Z</time></trkpt><trkpt lat="38.4450517" lon="16.2606067"><ele>1122.0</ele><time>2026-03-29T08:02:22.586Z</time></trkpt><trkpt lat="38.445" lon="16.2607933"><ele>1121.6666666666667</ele><time>2026-03-29T08:02:23.586Z</time></trkpt><trkpt lat="38.444925" lon="16.2609883"><ele>1121.3333333333335</ele><time>2026-03-29T08:02:24.586Z</time></trkpt><trkpt lat="38.4448733" lon="16.2612183"><ele>1121.0</ele><time>2026-03-29T08:02:25.587Z</time></trkpt><trkpt lat="38.4448083" lon="16.261445"><ele>1119.3333333333335</ele><time>2026-03-29T08:02:26.586Z</time></trkpt><trkpt lat="38.4447583" lon="16.2616733"><ele>1117.6666666666667</ele><time>2026-03-29T08:02:27.586Z</time></trkpt><trkpt lat="38.4447183" lon="16.26191"><ele>1116.0</ele><time>2026-03-29T08:02:28.586Z</time></trkpt><trkpt lat="38.4446783" lon="16.2621383"><ele>1115.6666666666667</ele><time>2026-03-29T08:02:29.586Z</time></trkpt><trkpt lat="38.4446433" lon="16.2623617"><ele>1115.3333333333335</ele><time>2026-03-29T08:02:30.586Z</time></trkpt><trkpt lat="38.444625" lon="16.2625717"><ele>1115.0</ele><time>2026-03-29T08:02:31.586Z</time></trkpt><trkpt lat="38.4446217" lon="16.26276"><ele>1115.0</ele><time>2026-03-29T08:02:32.587Z</time></trkpt><trkpt lat="38.444645" lon="16.262935"><ele>1115.0</ele><time>2026-03-29T08:02:33.586Z</time></trkpt><trkpt lat="38.444695" lon="16.2631317"><ele>1115.0</ele><time>2026-03-29T08:02:34.586Z</time></trkpt><trkpt lat="38.4447567" lon="16.26333"><ele>1115.0</ele><time>2026-03-29T08:02:35.586Z</time></trkpt><trkpt lat="38.4448367" lon="16.26353"><ele>1115.0</ele><time>2026-03-29T08:02:36.586Z</time></trkpt><trkpt lat="38.4449317" lon="16.2637367"><ele>1115.0</ele><time>2026-03-29T08:02:37.586Z</time></trkpt><trkpt lat="38.44504" lon="16.2639383"><ele>1115.3333333333335</ele><time>2026-03-29T08:02:38.586Z</time></trkpt><trkpt lat="38.4451417" lon="16.2641583"><ele>1115.6666666666667</ele><time>2026-03-29T08:02:39.586Z</time></trkpt><trkpt lat="38.4452567" lon="16.2643567"><ele>1116.0</ele><time>2026-03-29T08:02:40.586Z</time></trkpt><trkpt lat="38.4453483" lon="16.26454"><ele>1116.0</ele><time>2026-03-29T08:02:41.586Z</time></trkpt><trkpt lat="38.4454167" lon="16.26472"><ele>1116.0</ele><time>2026-03-29T08:02:42.586Z</time></trkpt><trkpt lat="38.4454767" lon="16.264905"><ele>1116.0</ele><time>2026-03-29T08:02:43.586Z</time></trkpt><trkpt lat="38.4455233" lon="16.2650833"><ele>1116.6666666666667</ele><time>2026-03-29T08:02:44.586Z</time></trkpt><trkpt lat="38.4455617" lon="16.2652767"><ele>1117.3333333333335</ele><time>2026-03-29T08:02:45.586Z</time></trkpt><trkpt lat="38.4455833" lon="16.2654933"><ele>1118.0</ele><time>2026-03-29T08:02:46.586Z</time></trkpt><trkpt lat="38.4455917" lon="16.265705"><ele>1120.3333333333335</ele><time>2026-03-29T08:02:47.586Z</time></trkpt><trkpt lat="38.4456" lon="16.2659283"><ele>1122.6666666666667</ele><time>2026-03-29T08:02:48.586Z</time></trkpt><trkpt lat="38.4456133" lon="16.2661533"><ele>1125.0</ele><time>2026-03-29T08:02:49.586Z</time></trkpt><trkpt lat="38.445615" lon="16.26634"><ele>1125.6</ele><time>2026-03-29T08:02:50.586Z</time></trkpt><trkpt lat="38.4456067" lon="16.2664933"><ele>1126.2</ele><time>2026-03-29T08:02:51.586Z</time></trkpt><trkpt lat="38.445585" lon="16.26662"><ele>1126.8</ele><time>2026-03-29T08:02:52.586Z</time></trkpt><trkpt lat="38.4455417" lon="16.2667283"><ele>1127.4</ele><time>2026-03-29T08:02:53.586Z</time></trkpt><trkpt lat="38.4454767" lon="16.2668217"><ele>1128.0</ele><time>2026-03-29T08:02:54.586Z</time></trkpt><trkpt lat="38.445395" lon="16.2669"><ele>1128.25</ele><time>2026-03-29T08:02:55.586Z</time></trkpt><trkpt lat="38.4453017" lon="16.2669767"><ele>1128.5</ele><time>2026-03-29T08:02:56.586Z</time></trkpt><trkpt lat="38.4451717" lon="16.26705"><ele>1128.75</ele><time>2026-03-29T08:02:57.586Z</time></trkpt><trkpt lat="38.445025" lon="16.267125"><ele>1129.0</ele><time>2026-03-29T08:02:58.586Z</time></trkpt><trkpt lat="38.44489" lon="16.2672167"><ele>1127.5</ele><time>2026-03-29T08:02:59.586Z</time></trkpt><trkpt lat="38.4447883" lon="16.2672967"><ele>1126.0</ele><time>2026-03-29T08:03:00.586Z</time></trkpt><trkpt lat="38.4446967" lon="16.26738"><ele>1124.5</ele><time>2026-03-29T08:03:01.586Z</time></trkpt><trkpt lat="38.444625" lon="16.26749"><ele>1123.0</ele><time>2026-03-29T08:03:02.586Z</time></trkpt><trkpt lat="38.4445667" lon="16.267625"><ele>1123.0</ele><time>2026-03-29T08:03:03.586Z</time></trkpt><trkpt lat="38.4445383" lon="16.2677967"><ele>1123.0</ele><time>2026-03-29T08:03:04.586Z</time></trkpt><trkpt lat="38.44454" lon="16.2680117"><ele>1123.0</ele><time>2026-03-29T08:03:05.586Z</time></trkpt><trkpt lat="38.4445667" lon="16.2682533"><ele>1124.6666666666665</ele><time>2026-03-29T08:03:06.586Z</time></trkpt><trkpt lat="38.4445683" lon="16.2684733"><ele>1126.3333333333333</ele><time>2026-03-29T08:03:07.586Z</time></trkpt><trkpt lat="38.4445533" lon="16.26867"><ele>1128.0</ele><time>2026-03-29T08:03:08.586Z</time></trkpt><trkpt lat="38.4445117" lon="16.2688417"><ele>1129.25</ele><time>2026-03-29T08:03:09.587Z</time></trkpt><trkpt lat="38.4444433" lon="16.2689967"><ele>1130.5</ele><time>2026-03-29T08:03:10.586Z</time></trkpt><trkpt lat="38.4443483" lon="16.2691367"><ele>1131.75</ele><time>2026-03-29T08:03:11.586Z</time></trkpt><trkpt lat="38.4442517" lon="16.2692683"><ele>1133.0</ele><time>2026-03-29T08:03:12.586Z</time></trkpt><trkpt lat="38.4441683" lon="16.2694017"><ele>1133.0</ele><time>2026-03-29T08:03:13.586Z</time></trkpt><trkpt lat="38.44411" lon="16.2695517"><ele>1133.0</ele><time>2026-03-29T08:03:14.586Z</time></trkpt><trkpt lat="38.4440767" lon="16.2697083"><ele>1133.0</ele><time>2026-03-29T08:03:15.586Z</time></trkpt><trkpt lat="38.4440517" lon="16.2698917"><ele>1133.0</ele><time>2026-03-29T08:03:16.586Z</time></trkpt><trkpt lat="38.444005" lon="16.2700633"><ele>1129.25</ele><time>2026-03-29T08:03:17.586Z</time></trkpt><trkpt lat="38.443965" lon="16.2702517"><ele>1125.5</ele><time>2026-03-29T08:03:18.586Z</time></trkpt><trkpt lat="38.4439083" lon="16.2704183"><ele>1121.75</ele><time>2026-03-29T08:03:19.586Z</time></trkpt><trkpt lat="38.443845" lon="16.2705783"><ele>1118.0</ele><time>2026-03-29T08:03:20.586Z</time></trkpt><trkpt lat="38.4438" lon="16.2707917"><ele>1117.3333333333335</ele><time>2026-03-29T08:03:21.586Z</time></trkpt><trkpt lat="38.4437667" lon="16.271"><ele>1116.6666666666667</ele><time>2026-03-29T08:03:22.586Z</time></trkpt><trkpt lat="38.44373" lon="16.2712083"><ele>1116.0</ele><time>2026-03-29T08:03:23.586Z</time></trkpt><trkpt lat="38.443705" lon="16.271415"><ele>1114.5</ele><time>2026-03-29T08:03:24.586Z</time></trkpt><trkpt lat="38.4436933" lon="16.2716117"><ele>1113.0</ele><time>2026-03-29T08:03:25.586Z</time></trkpt><trkpt lat="38.4436683" lon="16.2717817"><ele>1111.5</ele><time>2026-03-29T08:03:26.586Z</time></trkpt><trkpt lat="38.4436383" lon="16.2719233"><ele>1110.0</ele><time>2026-03-29T08:03:27.586Z</time></trkpt><trkpt lat="38.4436117" lon="16.2720367"><ele>1110.0000000000002</ele><time>2026-03-29T08:03:28.586Z</time></trkpt><trkpt lat="38.4436017" lon="16.2721283"><ele>1110.0</ele><time>2026-03-29T08:03:29.586Z</time></trkpt><trkpt lat="38.443595" lon="16.27222"><ele>1110.0</ele><time>2026-03-29T08:03:31.586Z</time></trkpt><trkpt lat="38.44366" lon="16.2722683"><ele>1110.0</ele><time>2026-03-29T08:18:17.588Z</time></trkpt><trkpt lat="38.4437133" lon="16.272325"><ele>1110.0</ele><time>2026-03-29T08:18:20.588Z</time></trkpt><trkpt lat="38.4437817" lon="16.2723117"><ele>1110.0000000000002</ele><time>2026-03-29T08:18:23.588Z</time></trkpt><trkpt lat="38.4438517" lon="16.2722683"><ele>1110.0</ele><time>2026-03-29T08:18:26.588Z</time></trkpt><trkpt lat="38.443915" lon="16.2722133"><ele>1109.6</ele><time>2026-03-29T08:18:28.588Z</time></trkpt><trkpt lat="38.443975" lon="16.272155"><ele>1109.2</ele><time>2026-03-29T08:18:30.588Z</time></trkpt><trkpt lat="38.4440333" lon="16.2720433"><ele>1108.8</ele><time>2026-03-29T08:18:32.588Z</time></trkpt><trkpt lat="38.4440783" lon="16.271915"><ele>1108.4</ele><time>2026-03-29T08:18:34.588Z</time></trkpt><trkpt lat="38.4441083" lon="16.271775"><ele>1108.0</ele><time>2026-03-29T08:18:36.588Z</time></trkpt><trkpt lat="38.4441317" lon="16.2716267"><ele>1108.0</ele><time>2026-03-29T08:18:38.588Z</time></trkpt><trkpt lat="38.4441433" lon="16.2715383"><ele>1108.0</ele><time>2026-03-29T08:18:39.588Z</time></trkpt><trkpt lat="38.444155" lon="16.2714467"><ele>1108.0</ele><time>2026-03-29T08:18:40.588Z</time></trkpt><trkpt lat="38.4441667" lon="16.2713533"><ele>1108.0</ele><time>2026-03-29T08:18:41.588Z</time></trkpt><trkpt lat="38.44418" lon="16.271255"><ele>1108.0</ele><time>2026-03-29T08:18:42.588Z</time></trkpt><trkpt lat="38.444195" lon="16.2711433"><ele>1108.0</ele><time>2026-03-29T08:18:43.589Z</time></trkpt><trkpt lat="38.444205" lon="16.2710283"><ele>1108.5</ele><time>2026-03-29T08:18:44.588Z</time></trkpt><trkpt lat="38.4442167" lon="16.2709083"><ele>1109.0</ele><time>2026-03-29T08:18:45.588Z</time></trkpt><trkpt lat="38.4442283" lon="16.2708033"><ele>1109.5</ele><time>2026-03-29T08:18:46.588Z</time></trkpt><trkpt lat="38.4442383" lon="16.2707067"><ele>1110.0</ele><time>2026-03-29T08:18:47.588Z</time></trkpt><trkpt lat="38.4442517" lon="16.270615"><ele>1110.5</ele><time>2026-03-29T08:18:48.588Z</time></trkpt><trkpt lat="38.4442683" lon="16.2705317"><ele>1111.0</ele><time>2026-03-29T08:18:49.588Z</time></trkpt><trkpt lat="38.444285" lon="16.2704433"><ele>1110.6666666666665</ele><time>2026-03-29T08:18:50.588Z</time></trkpt><trkpt lat="38.4443083" lon="16.2703617"><ele>1110.3333333333333</ele><time>2026-03-29T08:18:51.588Z</time></trkpt><trkpt lat="38.4443433" lon="16.2702917"><ele>1110.0</ele><time>2026-03-29T08:18:52.588Z</time></trkpt><trkpt lat="38.4443967" lon="16.2702117"><ele>1109.6666666666667</ele><time>2026-03-29T08:18:54.588Z</time></trkpt><trkpt lat="38.4444817" lon="16.2701883"><ele>1109.3333333333335</ele><time>2026-03-29T08:18:56.588Z</time></trkpt><trkpt lat="38.4445883" lon="16.270215"><ele>1109.0</ele><time>2026-03-29T08:18:58.588Z</time></trkpt><trkpt lat="38.4446933" lon="16.270265"><ele>1109.0</ele><time>2026-03-29T08:19:00.588Z</time></trkpt><trkpt lat="38.4447917" lon="16.2703517"><ele>1109.0</ele><time>2026-03-29T08:19:02.588Z</time></trkpt><trkpt lat="38.44484" lon="16.2704067"><ele>1109.0</ele><time>2026-03-29T08:19:03.588Z</time></trkpt><trkpt lat="38.4448967" lon="16.2704633"><ele>1109.0</ele><time>2026-03-29T08:19:04.588Z</time></trkpt><trkpt lat="38.4449733" lon="16.2705233"><ele>1109.0</ele><time>2026-03-29T08:19:05.588Z</time></trkpt><trkpt lat="38.4450583" lon="16.2705917"><ele>1109.0</ele><time>2026-03-29T08:19:06.588Z</time></trkpt><trkpt lat="38.4451383" lon="16.27067"><ele>1107.6000000000001</ele><time>2026-03-29T08:19:07.588Z</time></trkpt><trkpt lat="38.4452133" lon="16.27074"><ele>1106.2</ele><time>2026-03-29T08:19:08.588Z</time></trkpt><trkpt lat="38.4452967" lon="16.2707933"><ele>1104.8000000000002</ele><time>2026-03-29T08:19:09.589Z</time></trkpt><trkpt lat="38.44538" lon="16.27084"><ele>1103.4</ele><time>2026-03-29T08:19:10.588Z</time></trkpt><trkpt lat="38.4454733" lon="16.2708767"><ele>1102.0</ele><time>2026-03-29T08:19:11.588Z</time></trkpt><trkpt lat="38.445565" lon="16.2708917"><ele>1101.5</ele><time>2026-03-29T08:19:12.588Z</time></trkpt><trkpt lat="38.4456483" lon="16.27089"><ele>1101.0</ele><time>2026-03-29T08:19:13.588Z</time></trkpt><trkpt lat="38.4457317" lon="16.2708667"><ele>1100.5</ele><time>2026-03-29T08:19:14.588Z</time></trkpt><trkpt lat="38.4458067" lon="16.2708167"><ele>1100.0</ele><time>2026-03-29T08:19:15.588Z</time></trkpt><trkpt lat="38.4458817" lon="16.27074"><ele>1099.5</ele><time>2026-03-29T08:19:16.588Z</time></trkpt><trkpt lat="38.445935" lon="16.2706533"><ele>1099.0</ele><time>2026-03-29T08:19:17.588Z</time></trkpt><trkpt lat="38.4460183" lon="16.2705433"><ele>1100.6000000000001</ele><time>2026-03-29T08:19:18.588Z</time></trkpt><trkpt lat="38.44611" lon="16.2704483"><ele>1102.2</ele><time>2026-03-29T08:19:19.588Z</time></trkpt><trkpt lat="38.446205" lon="16.270365"><ele>1103.8000000000002</ele><time>2026-03-29T08:19:20.588Z</time></trkpt><trkpt lat="38.4462917" lon="16.2702833"><ele>1105.4</ele><time>2026-03-29T08:19:21.588Z</time></trkpt><trkpt lat="38.44637" lon="16.2702117"><ele>1107.0</ele><time>2026-03-29T08:19:22.588Z</time></trkpt><trkpt lat="38.446425" lon="16.27013"><ele>1104.1666666666667</ele><time>2026-03-29T08:19:23.588Z</time></trkpt><trkpt lat="38.446475" lon="16.2700417"><ele>1101.3333333333333</ele><time>2026-03-29T08:19:24.588Z</time></trkpt><trkpt lat="38.4464983" lon="16.2699467"><ele>1098.5</ele><time>2026-03-29T08:19:25.588Z</time></trkpt><trkpt lat="38.4465067" lon="16.26984"><ele>1095.6666666666665</ele><time>2026-03-29T08:19:26.588Z</time></trkpt><trkpt lat="38.4464983" lon="16.2697433"><ele>1092.8333333333333</ele><time>2026-03-29T08:19:27.588Z</time></trkpt><trkpt lat="38.44648" lon="16.26966"><ele>1090.0</ele><time>2026-03-29T08:19:28.588Z</time></trkpt><trkpt lat="38.446455" lon="16.2695583"><ele>1090.0</ele><time>2026-03-29T08:19:29.588Z</time></trkpt><trkpt lat="38.4464283" lon="16.26944"><ele>1090.0</ele><time>2026-03-29T08:19:30.588Z</time></trkpt><trkpt lat="38.446415" lon="16.2693283"><ele>1090.0</ele><time>2026-03-29T08:19:31.588Z</time></trkpt><trkpt lat="38.4464017" lon="16.269215"><ele>1090.0</ele><time>2026-03-29T08:19:32.588Z</time></trkpt><trkpt lat="38.4463883" lon="16.2691133"><ele>1090.0</ele><time>2026-03-29T08:19:33.588Z</time></trkpt><trkpt lat="38.4463783" lon="16.2690133"><ele>1090.0</ele><time>2026-03-29T08:19:34.588Z</time></trkpt><trkpt lat="38.4463817" lon="16.26892"><ele>1091.6</ele><time>2026-03-29T08:19:35.589Z</time></trkpt><trkpt lat="38.4464517" lon="16.2687833"><ele>1093.2</ele><time>2026-03-29T08:19:37.588Z</time></trkpt><trkpt lat="38.446525" lon="16.2687433"><ele>1094.8</ele><time>2026-03-29T08:19:38.588Z</time></trkpt><trkpt lat="38.4466" lon="16.2687017"><ele>1096.4</ele><time>2026-03-29T08:19:39.588Z</time></trkpt><trkpt lat="38.4466983" lon="16.268685"><ele>1098.0</ele><time>2026-03-29T08:19:40.588Z</time></trkpt><trkpt lat="38.4467983" lon="16.2687117"><ele>1098.0</ele><time>2026-03-29T08:19:41.588Z</time></trkpt><trkpt lat="38.4469083" lon="16.2687517"><ele>1098.0</ele><time>2026-03-29T08:19:42.588Z</time></trkpt><trkpt lat="38.447015" lon="16.2688083"><ele>1098.0</ele><time>2026-03-29T08:19:43.588Z</time></trkpt><trkpt lat="38.447125" lon="16.2688533"><ele>1098.0</ele><time>2026-03-29T08:19:44.588Z</time></trkpt><trkpt lat="38.4472233" lon="16.2688683"><ele>1098.0</ele><time>2026-03-29T08:19:45.588Z</time></trkpt><trkpt lat="38.447305" lon="16.2688533"><ele>1096.6</ele><time>2026-03-29T08:19:46.588Z</time></trkpt><trkpt lat="38.4473783" lon="16.2688083"><ele>1095.1999999999998</ele><time>2026-03-29T08:19:47.588Z</time></trkpt><trkpt lat="38.4474433" lon="16.2687233"><ele>1093.8</ele><time>2026-03-29T08:19:48.588Z</time></trkpt><trkpt lat="38.447495" lon="16.26863"><ele>1092.3999999999999</ele><time>2026-03-29T08:19:49.588Z</time></trkpt><trkpt lat="38.4475417" lon="16.2685233"><ele>1091.0</ele><time>2026-03-29T08:19:50.588Z</time></trkpt><trkpt lat="38.4475783" lon="16.2684117"><ele>1091.0</ele><time>2026-03-29T08:19:51.588Z</time></trkpt><trkpt lat="38.4476133" lon="16.2683217"><ele>1091.0</ele><time>2026-03-29T08:19:52.588Z</time></trkpt><trkpt lat="38.4476467" lon="16.2682483"><ele>1091.0</ele><time>2026-03-29T08:19:53.588Z</time></trkpt><trkpt lat="38.4477317" lon="16.2681417"><ele>1091.0</ele><time>2026-03-29T08:19:55.588Z</time></trkpt><trkpt lat="38.44781" lon="16.268125"><ele>1091.0</ele><time>2026-03-29T08:19:57.588Z</time></trkpt><trkpt lat="38.4478683" lon="16.2682283"><ele>1091.0</ele><time>2026-03-29T08:19:59.588Z</time></trkpt><trkpt lat="38.4478883" lon="16.2683383"><ele>1091.0</ele><time>2026-03-29T08:20:00.588Z</time></trkpt><trkpt lat="38.447895" lon="16.2684567"><ele>1091.0</ele><time>2026-03-29T08:20:01.588Z</time></trkpt><trkpt lat="38.447895" lon="16.26858"><ele>1091.0</ele><time>2026-03-29T08:20:02.588Z</time></trkpt><trkpt lat="38.447895" lon="16.26875"><ele>1091.0</ele><time>2026-03-29T08:20:03.588Z</time></trkpt><trkpt lat="38.4478983" lon="16.2689483"><ele>1088.75</ele><time>2026-03-29T08:20:04.588Z</time></trkpt><trkpt lat="38.447905" lon="16.26914"><ele>1086.5</ele><time>2026-03-29T08:20:05.588Z</time></trkpt><trkpt lat="38.4479233" lon="16.2693117"><ele>1084.25</ele><time>2026-03-29T08:20:06.588Z</time></trkpt><trkpt lat="38.447955" lon="16.2694567"><ele>1082.0</ele><time>2026-03-29T08:20:07.588Z</time></trkpt><trkpt lat="38.447995" lon="16.2695883"><ele>1080.6</ele><time>2026-03-29T08:20:08.588Z</time></trkpt><trkpt lat="38.44805" lon="16.2697233"><ele>1079.2</ele><time>2026-03-29T08:20:09.588Z</time></trkpt><trkpt lat="38.4481117" lon="16.2698483"><ele>1077.8</ele><time>2026-03-29T08:20:10.588Z</time></trkpt><trkpt lat="38.4481767" lon="16.2699517"><ele>1076.4</ele><time>2026-03-29T08:20:11.588Z</time></trkpt><trkpt lat="38.4482533" lon="16.2700417"><ele>1075.0</ele><time>2026-03-29T08:20:12.588Z</time></trkpt><trkpt lat="38.4483283" lon="16.2700967"><ele>1075.0</ele><time>2026-03-29T08:20:13.588Z</time></trkpt><trkpt lat="38.4484033" lon="16.2701117"><ele>1075.0</ele><time>2026-03-29T08:20:14.588Z</time></trkpt><trkpt lat="38.4484733" lon="16.2700917"><ele>1075.0</ele><time>2026-03-29T08:20:15.588Z</time></trkpt><trkpt lat="38.44854" lon="16.2700333"><ele>1075.0</ele><time>2026-03-29T08:20:16.588Z</time></trkpt><trkpt lat="38.44859" lon="16.269945"><ele>1075.0</ele><time>2026-03-29T08:20:17.588Z</time></trkpt><trkpt lat="38.4486383" lon="16.2698417"><ele>1075.0</ele><time>2026-03-29T08:20:18.588Z</time></trkpt><trkpt lat="38.44868" lon="16.2697233"><ele>1075.0</ele><time>2026-03-29T08:20:19.588Z</time></trkpt><trkpt lat="38.4487083" lon="16.269575"><ele>1075.0</ele><time>2026-03-29T08:20:20.588Z</time></trkpt><trkpt lat="38.4487233" lon="16.2694167"><ele>1075.0</ele><time>2026-03-29T08:20:21.588Z</time></trkpt><trkpt lat="38.448745" lon="16.2692533"><ele>1075.0</ele><time>2026-03-29T08:20:22.588Z</time></trkpt><trkpt lat="38.4487633" lon="16.2690967"><ele>1075.0</ele><time>2026-03-29T08:20:23.588Z</time></trkpt><trkpt lat="38.44879" lon="16.2689583"><ele>1075.0</ele><time>2026-03-29T08:20:24.588Z</time></trkpt><trkpt lat="38.448825" lon="16.26887"><ele>1075.0</ele><time>2026-03-29T08:20:25.588Z</time></trkpt><trkpt lat="38.4488617" lon="16.2687717"><ele>1075.0</ele><time>2026-03-29T08:20:26.588Z</time></trkpt><trkpt lat="38.4489117" lon="16.2687067"><ele>1075.0</ele><time>2026-03-29T08:20:27.588Z</time></trkpt><trkpt lat="38.4489833" lon="16.2686667"><ele>1075.0</ele><time>2026-03-29T08:20:28.588Z</time></trkpt><trkpt lat="38.449065" lon="16.2686483"><ele>1072.6666666666665</ele><time>2026-03-29T08:20:29.588Z</time></trkpt><trkpt lat="38.449185" lon="16.2686817"><ele>1070.3333333333333</ele><time>2026-03-29T08:20:30.588Z</time></trkpt><trkpt lat="38.4493433" lon="16.2687567"><ele>1068.0</ele><time>2026-03-29T08:20:31.588Z</time></trkpt><trkpt lat="38.449505" lon="16.2688283"><ele>1068.0</ele><time>2026-03-29T08:20:32.588Z</time></trkpt><trkpt lat="38.4496967" lon="16.268935"><ele>1068.0</ele><time>2026-03-29T08:20:33.588Z</time></trkpt><trkpt lat="38.4498883" lon="16.2690417"><ele>1068.0</ele><time>2026-03-29T08:20:34.588Z</time></trkpt><trkpt lat="38.45002" lon="16.2690833"><ele>1068.0</ele><time>2026-03-29T08:20:35.588Z</time></trkpt><trkpt lat="38.4501367" lon="16.26907"><ele>1068.0</ele><time>2026-03-29T08:20:36.588Z</time></trkpt><trkpt lat="38.4502383" lon="16.269025"><ele>1068.0</ele><time>2026-03-29T08:20:37.588Z</time></trkpt><trkpt lat="38.4503267" lon="16.2689417"><ele>1068.0</ele><time>2026-03-29T08:20:38.588Z</time></trkpt><trkpt lat="38.450405" lon="16.2688283"><ele>1064.25</ele><time>2026-03-29T08:20:39.588Z</time></trkpt><trkpt lat="38.450465" lon="16.268675"><ele>1060.5</ele><time>2026-03-29T08:20:40.588Z</time></trkpt><trkpt lat="38.4505183" lon="16.2685"><ele>1056.75</ele><time>2026-03-29T08:20:41.588Z</time></trkpt><trkpt lat="38.4505533" lon="16.2683133"><ele>1053.0</ele><time>2026-03-29T08:20:42.588Z</time></trkpt><trkpt lat="38.450575" lon="16.268125"><ele>1053.25</ele><time>2026-03-29T08:20:43.588Z</time></trkpt><trkpt lat="38.450585" lon="16.2679583"><ele>1053.5</ele><time>2026-03-29T08:20:44.588Z</time></trkpt><trkpt lat="38.4505767" lon="16.267785"><ele>1053.75</ele><time>2026-03-29T08:20:45.588Z</time></trkpt><trkpt lat="38.45056" lon="16.26764"><ele>1054.0</ele><time>2026-03-29T08:20:46.588Z</time></trkpt><trkpt lat="38.450555" lon="16.267535"><ele>1054.0</ele><time>2026-03-29T08:20:47.588Z</time></trkpt><trkpt lat="38.4505533" lon="16.2674433"><ele>1054.0</ele><time>2026-03-29T08:20:48.588Z</time></trkpt><trkpt lat="38.4505583" lon="16.2673367"><ele>1054.0</ele><time>2026-03-29T08:20:49.588Z</time></trkpt><trkpt lat="38.4506" lon="16.2672283"><ele>1054.0</ele><time>2026-03-29T08:20:50.588Z</time></trkpt><trkpt lat="38.4506567" lon="16.26714"><ele>1054.0</ele><time>2026-03-29T08:20:51.588Z</time></trkpt><trkpt lat="38.450735" lon="16.2670833"><ele>1054.0</ele><time>2026-03-29T08:20:52.588Z</time></trkpt><trkpt lat="38.4508233" lon="16.26704"><ele>1054.25</ele><time>2026-03-29T08:20:53.589Z</time></trkpt><trkpt lat="38.4509467" lon="16.2670717"><ele>1054.5</ele><time>2026-03-29T08:20:54.588Z</time></trkpt><trkpt lat="38.4510717" lon="16.2671167"><ele>1054.75</ele><time>2026-03-29T08:20:55.588Z</time></trkpt><trkpt lat="38.4511867" lon="16.2671733"><ele>1055.0</ele><time>2026-03-29T08:20:56.588Z</time></trkpt><trkpt lat="38.451295" lon="16.2672183"><ele>1054.25</ele><time>2026-03-29T08:20:57.588Z</time></trkpt><trkpt lat="38.4513983" lon="16.2672817"><ele>1053.5</ele><time>2026-03-29T08:20:58.588Z</time></trkpt><trkpt lat="38.451485" lon="16.26737"><ele>1052.75</ele><time>2026-03-29T08:20:59.588Z</time></trkpt><trkpt lat="38.4515583" lon="16.26747"><ele>1052.0</ele><time>2026-03-29T08:21:00.588Z</time></trkpt><trkpt lat="38.4516067" lon="16.2676083"><ele>1052.0</ele><time>2026-03-29T08:21:01.588Z</time></trkpt><trkpt lat="38.4516333" lon="16.2677483"><ele>1052.0</ele><time>2026-03-29T08:21:02.588Z</time></trkpt><trkpt lat="38.4516433" lon="16.2678933"><ele>1052.0</ele><time>2026-03-29T08:21:03.588Z</time></trkpt><trkpt lat="38.4516583" lon="16.268025"><ele>1052.0</ele><time>2026-03-29T08:21:04.588Z</time></trkpt><trkpt lat="38.4516933" lon="16.2681583"><ele>1052.0</ele><time>2026-03-29T08:21:05.588Z</time></trkpt><trkpt lat="38.4517383" lon="16.2682683"><ele>1052.0</ele><time>2026-03-29T08:21:06.588Z</time></trkpt><trkpt lat="38.4517917" lon="16.2683833"><ele>1052.0</ele><time>2026-03-29T08:21:07.588Z</time></trkpt><trkpt lat="38.45186" lon="16.26848"><ele>1052.0</ele><time>2026-03-29T08:21:08.588Z</time></trkpt><trkpt lat="38.4519467" lon="16.26857"><ele>1052.0</ele><time>2026-03-29T08:21:09.588Z</time></trkpt><trkpt lat="38.4520817" lon="16.2686567"><ele>1051.0</ele><time>2026-03-29T08:21:10.588Z</time></trkpt><trkpt lat="38.4522083" lon="16.2687467"><ele>1050.0</ele><time>2026-03-29T08:21:11.588Z</time></trkpt><trkpt lat="38.4523133" lon="16.2688183"><ele>1049.0</ele><time>2026-03-29T08:21:12.589Z</time></trkpt><trkpt lat="38.452405" lon="16.26888"><ele>1048.0</ele><time>2026-03-29T08:21:13.588Z</time></trkpt><trkpt lat="38.4525033" lon="16.2689417"><ele>1048.25</ele><time>2026-03-29T08:21:14.588Z</time></trkpt><trkpt lat="38.4526117" lon="16.2690117"><ele>1048.5</ele><time>2026-03-29T08:21:15.588Z</time></trkpt><trkpt lat="38.452725" lon="16.2690817"><ele>1048.75</ele><time>2026-03-29T08:21:16.588Z</time></trkpt><trkpt lat="38.4528467" lon="16.2691467"><ele>1049.0</ele><time>2026-03-29T08:21:17.588Z</time></trkpt><trkpt lat="38.4529683" lon="16.2692217"><ele>1047.75</ele><time>2026-03-29T08:21:18.588Z</time></trkpt><trkpt lat="38.453085" lon="16.2692817"><ele>1046.5</ele><time>2026-03-29T08:21:19.588Z</time></trkpt><trkpt lat="38.4531917" lon="16.2693533"><ele>1045.25</ele><time>2026-03-29T08:21:20.588Z</time></trkpt><trkpt lat="38.4532967" lon="16.2694267"><ele>1044.0</ele><time>2026-03-29T08:21:21.588Z</time></trkpt><trkpt lat="38.4533983" lon="16.2694783"><ele>1044.0</ele><time>2026-03-29T08:21:22.588Z</time></trkpt><trkpt lat="38.4534933" lon="16.269525"><ele>1044.0</ele><time>2026-03-29T08:21:23.588Z</time></trkpt><trkpt lat="38.453585" lon="16.2695567"><ele>1044.0</ele><time>2026-03-29T08:21:24.588Z</time></trkpt><trkpt lat="38.453685" lon="16.2695783"><ele>1044.0</ele><time>2026-03-29T08:21:25.588Z</time></trkpt><trkpt lat="38.45379" lon="16.2695883"><ele>1044.0</ele><time>2026-03-29T08:21:26.588Z</time></trkpt><trkpt lat="38.45391" lon="16.269585"><ele>1044.3333333333333</ele><time>2026-03-29T08:21:27.588Z</time></trkpt><trkpt lat="38.4540633" lon="16.2695833"><ele>1044.6666666666665</ele><time>2026-03-29T08:21:28.588Z</time></trkpt><trkpt lat="38.4542267" lon="16.2695833"><ele>1045.0</ele><time>2026-03-29T08:21:29.588Z</time></trkpt><trkpt lat="38.4543883" lon="16.2695817"><ele>1045.0</ele><time>2026-03-29T08:21:30.588Z</time></trkpt><trkpt lat="38.4545417" lon="16.269575"><ele>1045.0</ele><time>2026-03-29T08:21:31.588Z</time></trkpt><trkpt lat="38.4546833" lon="16.2695733"><ele>1045.0</ele><time>2026-03-29T08:21:32.588Z</time></trkpt><trkpt lat="38.4548083" lon="16.269565"><ele>1045.0</ele><time>2026-03-29T08:21:33.588Z</time></trkpt><trkpt lat="38.4549317" lon="16.269545"><ele>1045.75</ele><time>2026-03-29T08:21:34.588Z</time></trkpt><trkpt lat="38.4550533" lon="16.269505"><ele>1046.5</ele><time>2026-03-29T08:21:35.588Z</time></trkpt><trkpt lat="38.4551667" lon="16.2694583"><ele>1047.25</ele><time>2026-03-29T08:21:36.588Z</time></trkpt><trkpt lat="38.4552717" lon="16.2694083"><ele>1048.0</ele><time>2026-03-29T08:21:37.588Z</time></trkpt><trkpt lat="38.4553733" lon="16.2693583"><ele>1047.3333333333333</ele><time>2026-03-29T08:21:38.588Z</time></trkpt><trkpt lat="38.4554717" lon="16.269325"><ele>1046.6666666666665</ele><time>2026-03-29T08:21:39.588Z</time></trkpt><trkpt lat="38.4555583" lon="16.2693033"><ele>1046.0</ele><time>2026-03-29T08:21:40.589Z</time></trkpt><trkpt lat="38.4556483" lon="16.2692683"><ele>1045.3333333333333</ele><time>2026-03-29T08:21:41.588Z</time></trkpt><trkpt lat="38.45573" lon="16.2692467"><ele>1044.6666666666667</ele><time>2026-03-29T08:21:42.589Z</time></trkpt><trkpt lat="38.4557967" lon="16.2692317"><ele>1044.0</ele><time>2026-03-29T08:21:43.588Z</time></trkpt><trkpt lat="38.4558667" lon="16.2692183"><ele>1044.0</ele><time>2026-03-29T08:21:45.588Z</time></trkpt><trkpt lat="38.4559333" lon="16.2691867"><ele>1044.0</ele><time>2026-03-29T08:22:14.588Z</time></trkpt><trkpt lat="38.4558567" lon="16.2691867"><ele>1044.0</ele><time>2026-03-29T08:22:18.588Z</time></trkpt><trkpt lat="38.4557533" lon="16.26911"><ele>1044.0</ele><time>2026-03-29T08:22:28.588Z</time></trkpt><trkpt lat="38.455835" lon="16.2690717"><ele>1044.0</ele><time>2026-03-29T08:28:59.589Z</time></trkpt><trkpt lat="38.4559067" lon="16.2690933"><ele>1044.0</ele><time>2026-03-29T08:29:01.589Z</time></trkpt><trkpt lat="38.4559867" lon="16.26915"><ele>1044.0</ele><time>2026-03-29T08:29:03.589Z</time></trkpt><trkpt lat="38.45607" lon="16.2692017"><ele>1044.0</ele><time>2026-03-29T08:29:05.589Z</time></trkpt><trkpt lat="38.456165" lon="16.2692717"><ele>1044.0</ele><time>2026-03-29T08:29:07.589Z</time></trkpt><trkpt lat="38.4562633" lon="16.2693433"><ele>1044.0</ele><time>2026-03-29T08:29:09.589Z</time></trkpt><trkpt lat="38.4563567" lon="16.26941"><ele>1044.0</ele><time>2026-03-29T08:29:11.589Z</time></trkpt><trkpt lat="38.4564533" lon="16.2694817"><ele>1043.8</ele><time>2026-03-29T08:29:13.589Z</time></trkpt><trkpt lat="38.4565433" lon="16.2695483"><ele>1043.6000000000001</ele><time>2026-03-29T08:29:15.589Z</time></trkpt><trkpt lat="38.4566283" lon="16.2696117"><ele>1043.4</ele><time>2026-03-29T08:29:17.589Z</time></trkpt><trkpt lat="38.4567133" lon="16.2696867"><ele>1043.2</ele><time>2026-03-29T08:29:19.589Z</time></trkpt><trkpt lat="38.4567883" lon="16.2697667"><ele>1043.0</ele><time>2026-03-29T08:29:21.589Z</time></trkpt><trkpt lat="38.4568683" lon="16.2698433"><ele>1043.0</ele><time>2026-03-29T08:29:23.59Z</time></trkpt><trkpt lat="38.45695" lon="16.26991"><ele>1043.0</ele><time>2026-03-29T08:29:25.589Z</time></trkpt><trkpt lat="38.4570633" lon="16.2699817"><ele>1043.0</ele><time>2026-03-29T08:29:27.589Z</time></trkpt><trkpt lat="38.4571367" lon="16.270025"><ele>1043.0</ele><time>2026-03-29T08:29:28.589Z</time></trkpt><trkpt lat="38.45721" lon="16.2700733"><ele>1043.0</ele><time>2026-03-29T08:29:29.589Z</time></trkpt><trkpt lat="38.4572783" lon="16.27011"><ele>1043.4</ele><time>2026-03-29T08:29:30.589Z</time></trkpt><trkpt lat="38.4573883" lon="16.27017"><ele>1043.8</ele><time>2026-03-29T08:29:32.589Z</time></trkpt><trkpt lat="38.45751" lon="16.2702333"><ele>1044.2</ele><time>2026-03-29T08:29:34.589Z</time></trkpt><trkpt lat="38.4575717" lon="16.2702683"><ele>1044.6</ele><time>2026-03-29T08:29:35.589Z</time></trkpt><trkpt lat="38.4576317" lon="16.2703"><ele>1045.0</ele><time>2026-03-29T08:29:36.589Z</time></trkpt><trkpt lat="38.457705" lon="16.27034"><ele>1045.0</ele><time>2026-03-29T08:29:37.589Z</time></trkpt><trkpt lat="38.4577767" lon="16.27037"><ele>1045.0</ele><time>2026-03-29T08:29:38.589Z</time></trkpt><trkpt lat="38.4578433" lon="16.2704"><ele>1045.0</ele><time>2026-03-29T08:29:39.589Z</time></trkpt><trkpt lat="38.4579033" lon="16.270435"><ele>1045.0</ele><time>2026-03-29T08:29:40.589Z</time></trkpt><trkpt lat="38.4579683" lon="16.2704717"><ele>1045.0</ele><time>2026-03-29T08:29:41.589Z</time></trkpt><trkpt lat="38.45809" lon="16.2705283"><ele>1045.0</ele><time>2026-03-29T08:29:43.59Z</time></trkpt><trkpt lat="38.4581567" lon="16.2705583"><ele>1044.857142857143</ele><time>2026-03-29T08:29:44.589Z</time></trkpt><trkpt lat="38.45823" lon="16.2705917"><ele>1044.7142857142856</ele><time>2026-03-29T08:29:45.59Z</time></trkpt><trkpt lat="38.4582933" lon="16.2706117"><ele>1044.5714285714284</ele><time>2026-03-29T08:29:46.59Z</time></trkpt><trkpt lat="38.4583567" lon="16.27064"><ele>1044.4285714285713</ele><time>2026-03-29T08:29:47.589Z</time></trkpt><trkpt lat="38.4584233" lon="16.2706617"><ele>1044.2857142857142</ele><time>2026-03-29T08:29:48.589Z</time></trkpt><trkpt lat="38.45849" lon="16.2706867"><ele>1044.142857142857</ele><time>2026-03-29T08:29:49.589Z</time></trkpt><trkpt lat="38.4585617" lon="16.2707167"><ele>1044.0</ele><time>2026-03-29T08:29:50.589Z</time></trkpt><trkpt lat="38.4586317" lon="16.2707467"><ele>1043.0</ele><time>2026-03-29T08:29:51.589Z</time></trkpt><trkpt lat="38.4587067" lon="16.27078"><ele>1042.0</ele><time>2026-03-29T08:29:52.589Z</time></trkpt><trkpt lat="38.45878" lon="16.2708183"><ele>1041.0</ele><time>2026-03-29T08:29:53.589Z</time></trkpt><trkpt lat="38.4588483" lon="16.270855"><ele>1040.0</ele><time>2026-03-29T08:29:54.589Z</time></trkpt><trkpt lat="38.45892" lon="16.2708933"><ele>1039.0</ele><time>2026-03-29T08:29:55.589Z</time></trkpt><trkpt lat="38.4589867" lon="16.2709433"><ele>1038.0</ele><time>2026-03-29T08:29:56.589Z</time></trkpt><trkpt lat="38.4590583" lon="16.2709967"><ele>1038.0</ele><time>2026-03-29T08:29:57.589Z</time></trkpt><trkpt lat="38.4591383" lon="16.2710567"><ele>1038.0</ele><time>2026-03-29T08:29:58.589Z</time></trkpt><trkpt lat="38.4592233" lon="16.2711283"><ele>1038.0</ele><time>2026-03-29T08:29:59.589Z</time></trkpt><trkpt lat="38.4593217" lon="16.2712217"><ele>1038.0</ele><time>2026-03-29T08:30:00.589Z</time></trkpt><trkpt lat="38.4594217" lon="16.2713233"><ele>1038.0</ele><time>2026-03-29T08:30:01.589Z</time></trkpt><trkpt lat="38.459535" lon="16.2714267"><ele>1037.0</ele><time>2026-03-29T08:30:02.589Z</time></trkpt><trkpt lat="38.4596533" lon="16.2715217"><ele>1036.0</ele><time>2026-03-29T08:30:03.589Z</time></trkpt><trkpt lat="38.45977" lon="16.27161"><ele>1035.0</ele><time>2026-03-29T08:30:04.589Z</time></trkpt><trkpt lat="38.459885" lon="16.2716917"><ele>1034.0</ele><time>2026-03-29T08:30:05.589Z</time></trkpt><trkpt lat="38.46" lon="16.271775"><ele>1034.0</ele><time>2026-03-29T08:30:06.589Z</time></trkpt><trkpt lat="38.460115" lon="16.2718667"><ele>1034.0</ele><time>2026-03-29T08:30:07.589Z</time></trkpt><trkpt lat="38.4602333" lon="16.2719633"><ele>1034.0</ele><time>2026-03-29T08:30:08.589Z</time></trkpt><trkpt lat="38.4603233" lon="16.272085"><ele>1034.0</ele><time>2026-03-29T08:30:09.589Z</time></trkpt><trkpt lat="38.4604033" lon="16.272215"><ele>1033.2</ele><time>2026-03-29T08:30:10.589Z</time></trkpt><trkpt lat="38.46046" lon="16.2723467"><ele>1032.4</ele><time>2026-03-29T08:30:11.59Z</time></trkpt><trkpt lat="38.4605" lon="16.2724717"><ele>1031.6</ele><time>2026-03-29T08:30:12.589Z</time></trkpt><trkpt lat="38.4605267" lon="16.272585"><ele>1030.8</ele><time>2026-03-29T08:30:13.589Z</time></trkpt><trkpt lat="38.4605433" lon="16.2727067"><ele>1030.0</ele><time>2026-03-29T08:30:14.589Z</time></trkpt><trkpt lat="38.4605367" lon="16.27283"><ele>1030.0</ele><time>2026-03-29T08:30:15.589Z</time></trkpt><trkpt lat="38.4605033" lon="16.27297"><ele>1030.0</ele><time>2026-03-29T08:30:16.589Z</time></trkpt><trkpt lat="38.4604367" lon="16.2731017"><ele>1030.0</ele><time>2026-03-29T08:30:17.589Z</time></trkpt><trkpt lat="38.4603633" lon="16.27324"><ele>1030.0</ele><time>2026-03-29T08:30:18.589Z</time></trkpt><trkpt lat="38.4603033" lon="16.2733917"><ele>1029.2</ele><time>2026-03-29T08:30:19.589Z</time></trkpt><trkpt lat="38.460245" lon="16.2735383"><ele>1028.4</ele><time>2026-03-29T08:30:20.59Z</time></trkpt><trkpt lat="38.4602083" lon="16.2736517"><ele>1027.6</ele><time>2026-03-29T08:30:21.589Z</time></trkpt><trkpt lat="38.4601917" lon="16.273765"><ele>1026.8</ele><time>2026-03-29T08:30:22.589Z</time></trkpt><trkpt lat="38.4601967" lon="16.2738717"><ele>1026.0</ele><time>2026-03-29T08:30:23.589Z</time></trkpt><trkpt lat="38.46022" lon="16.2739933"><ele>1026.0</ele><time>2026-03-29T08:30:24.59Z</time></trkpt><trkpt lat="38.4602533" lon="16.2741"><ele>1026.0</ele><time>2026-03-29T08:30:25.589Z</time></trkpt><trkpt lat="38.460315" lon="16.2742067"><ele>1026.0</ele><time>2026-03-29T08:30:26.589Z</time></trkpt><trkpt lat="38.460395" lon="16.274295"><ele>1026.0</ele><time>2026-03-29T08:30:27.589Z</time></trkpt><trkpt lat="38.4604933" lon="16.27435"><ele>1026.0</ele><time>2026-03-29T08:30:28.589Z</time></trkpt><trkpt lat="38.4606183" lon="16.274365"><ele>1028.6666666666667</ele><time>2026-03-29T08:30:29.589Z</time></trkpt><trkpt lat="38.460775" lon="16.274365"><ele>1031.3333333333335</ele><time>2026-03-29T08:30:30.59Z</time></trkpt><trkpt lat="38.4609417" lon="16.2743483"><ele>1034.0</ele><time>2026-03-29T08:30:31.589Z</time></trkpt><trkpt lat="38.4611167" lon="16.2743533"><ele>1035.6666666666667</ele><time>2026-03-29T08:30:32.589Z</time></trkpt><trkpt lat="38.4612833" lon="16.2743767"><ele>1037.3333333333333</ele><time>2026-03-29T08:30:33.589Z</time></trkpt><trkpt lat="38.4614383" lon="16.2744433"><ele>1039.0</ele><time>2026-03-29T08:30:34.589Z</time></trkpt><trkpt lat="38.4615783" lon="16.274505"><ele>1039.0</ele><time>2026-03-29T08:30:35.589Z</time></trkpt><trkpt lat="38.4617167" lon="16.274565"><ele>1039.0</ele><time>2026-03-29T08:30:36.589Z</time></trkpt><trkpt lat="38.4618533" lon="16.2746567"><ele>1039.0</ele><time>2026-03-29T08:30:37.589Z</time></trkpt><trkpt lat="38.4619883" lon="16.2747567"><ele>1037.75</ele><time>2026-03-29T08:30:38.589Z</time></trkpt><trkpt lat="38.4621033" lon="16.2748567"><ele>1036.5</ele><time>2026-03-29T08:30:39.589Z</time></trkpt><trkpt lat="38.462205" lon="16.27495"><ele>1035.25</ele><time>2026-03-29T08:30:40.589Z</time></trkpt><trkpt lat="38.4623233" lon="16.275015"><ele>1034.0</ele><time>2026-03-29T08:30:41.589Z</time></trkpt><trkpt lat="38.4624667" lon="16.2750783"><ele>1033.6666666666667</ele><time>2026-03-29T08:30:42.589Z</time></trkpt><trkpt lat="38.4626217" lon="16.2751317"><ele>1033.3333333333333</ele><time>2026-03-29T08:30:43.589Z</time></trkpt><trkpt lat="38.4627917" lon="16.2752083"><ele>1033.0</ele><time>2026-03-29T08:30:44.589Z</time></trkpt><trkpt lat="38.4629483" lon="16.27528"><ele>1032.0</ele><time>2026-03-29T08:30:45.589Z</time></trkpt><trkpt lat="38.4630933" lon="16.2753233"><ele>1031.0</ele><time>2026-03-29T08:30:46.589Z</time></trkpt><trkpt lat="38.4632283" lon="16.2753967"><ele>1030.0</ele><time>2026-03-29T08:30:47.589Z</time></trkpt><trkpt lat="38.4633533" lon="16.275475"><ele>1029.0</ele><time>2026-03-29T08:30:48.589Z</time></trkpt><trkpt lat="38.4634867" lon="16.275555"><ele>1028.25</ele><time>2026-03-29T08:30:49.589Z</time></trkpt><trkpt lat="38.4636083" lon="16.2756483"><ele>1027.5</ele><time>2026-03-29T08:30:50.589Z</time></trkpt><trkpt lat="38.4637217" lon="16.27575"><ele>1026.75</ele><time>2026-03-29T08:30:51.589Z</time></trkpt><trkpt lat="38.4638283" lon="16.2758267"><ele>1026.0</ele><time>2026-03-29T08:30:52.589Z</time></trkpt><trkpt lat="38.4639333" lon="16.2759"><ele>1025.5</ele><time>2026-03-29T08:30:53.589Z</time></trkpt><trkpt lat="38.4640417" lon="16.2759417"><ele>1025.0</ele><time>2026-03-29T08:30:54.589Z</time></trkpt><trkpt lat="38.464165" lon="16.275975"><ele>1024.5</ele><time>2026-03-29T08:30:55.589Z</time></trkpt><trkpt lat="38.464285" lon="16.2759633"><ele>1024.0</ele><time>2026-03-29T08:30:56.589Z</time></trkpt><trkpt lat="38.4644033" lon="16.27595"><ele>1024.0</ele><time>2026-03-29T08:30:57.589Z</time></trkpt><trkpt lat="38.4645183" lon="16.2759183"><ele>1024.0</ele><time>2026-03-29T08:30:58.589Z</time></trkpt><trkpt lat="38.4646333" lon="16.2758533"><ele>1024.0</ele><time>2026-03-29T08:30:59.589Z</time></trkpt><trkpt lat="38.464735" lon="16.27577"><ele>1024.0</ele><time>2026-03-29T08:31:00.589Z</time></trkpt><trkpt lat="38.464825" lon="16.2756567"><ele>1023.5</ele><time>2026-03-29T08:31:01.589Z</time></trkpt><trkpt lat="38.464905" lon="16.27554"><ele>1023.0</ele><time>2026-03-29T08:31:02.589Z</time></trkpt><trkpt lat="38.464985" lon="16.27539"><ele>1022.5</ele><time>2026-03-29T08:31:03.589Z</time></trkpt><trkpt lat="38.4650517" lon="16.2752333"><ele>1022.0</ele><time>2026-03-29T08:31:04.59Z</time></trkpt><trkpt lat="38.4650883" lon="16.27507"><ele>1022.0</ele><time>2026-03-29T08:31:05.589Z</time></trkpt><trkpt lat="38.4651017" lon="16.274915"><ele>1022.0</ele><time>2026-03-29T08:31:06.589Z</time></trkpt><trkpt lat="38.465095" lon="16.27475"><ele>1022.0</ele><time>2026-03-29T08:31:07.589Z</time></trkpt><trkpt lat="38.46508" lon="16.2745883"><ele>1022.0</ele><time>2026-03-29T08:31:08.589Z</time></trkpt><trkpt lat="38.4650517" lon="16.2744217"><ele>1021.25</ele><time>2026-03-29T08:31:09.589Z</time></trkpt><trkpt lat="38.4649767" lon="16.2742517"><ele>1020.5</ele><time>2026-03-29T08:31:10.589Z</time></trkpt><trkpt lat="38.4649033" lon="16.274085"><ele>1019.75</ele><time>2026-03-29T08:31:11.589Z</time></trkpt><trkpt lat="38.464845" lon="16.2739367"><ele>1019.0</ele><time>2026-03-29T08:31:12.589Z</time></trkpt><trkpt lat="38.4648117" lon="16.2738067"><ele>1018.8333333333334</ele><time>2026-03-29T08:31:13.589Z</time></trkpt><trkpt lat="38.46479" lon="16.2737"><ele>1018.6666666666667</ele><time>2026-03-29T08:31:14.589Z</time></trkpt><trkpt lat="38.46478" lon="16.2736"><ele>1018.5</ele><time>2026-03-29T08:31:15.589Z</time></trkpt><trkpt lat="38.4647833" lon="16.2735117"><ele>1018.3333333333333</ele><time>2026-03-29T08:31:16.589Z</time></trkpt><trkpt lat="38.46484" lon="16.2734033"><ele>1018.1666666666666</ele><time>2026-03-29T08:31:18.589Z</time></trkpt><trkpt lat="38.4649217" lon="16.2733567"><ele>1018.0</ele><time>2026-03-29T08:31:20.589Z</time></trkpt><trkpt lat="38.4650033" lon="16.27338"><ele>1018.0</ele><time>2026-03-29T08:31:32.589Z</time></trkpt><trkpt lat="38.4651017" lon="16.2734533"><ele>1018.0</ele><time>2026-03-29T08:31:35.589Z</time></trkpt><trkpt lat="38.4651633" lon="16.2735017"><ele>1018.0</ele><time>2026-03-29T08:31:36.589Z</time></trkpt><trkpt lat="38.4652217" lon="16.273535"><ele>1018.0</ele><time>2026-03-29T08:31:37.589Z</time></trkpt><trkpt lat="38.4652933" lon="16.2735583"><ele>1018.0</ele><time>2026-03-29T08:31:38.589Z</time></trkpt><trkpt lat="38.4654383" lon="16.2735883"><ele>1016.0</ele><time>2026-03-29T08:31:39.59Z</time></trkpt><trkpt lat="38.4656017" lon="16.273615"><ele>1014.0</ele><time>2026-03-29T08:31:40.589Z</time></trkpt><trkpt lat="38.4657967" lon="16.2736117"><ele>1012.0</ele><time>2026-03-29T08:31:41.589Z</time></trkpt><trkpt lat="38.4659733" lon="16.2736133"><ele>1012.0</ele><time>2026-03-29T08:31:42.589Z</time></trkpt><trkpt lat="38.466125" lon="16.2736117"><ele>1012.0</ele><time>2026-03-29T08:31:43.589Z</time></trkpt><trkpt lat="38.46626" lon="16.2736167"><ele>1012.0</ele><time>2026-03-29T08:31:44.589Z</time></trkpt><trkpt lat="38.4663833" lon="16.2736367"><ele>1012.0</ele><time>2026-03-29T08:31:45.589Z</time></trkpt><trkpt lat="38.4664883" lon="16.2736717"><ele>1012.0</ele><time>2026-03-29T08:31:46.589Z</time></trkpt><trkpt lat="38.4665983" lon="16.27374"><ele>1012.0</ele><time>2026-03-29T08:31:47.59Z</time></trkpt><trkpt lat="38.46667" lon="16.2737983"><ele>1012.0</ele><time>2026-03-29T08:31:48.589Z</time></trkpt><trkpt lat="38.4667433" lon="16.273865"><ele>1012.0</ele><time>2026-03-29T08:31:49.589Z</time></trkpt><trkpt lat="38.46681" lon="16.2739433"><ele>1012.0</ele><time>2026-03-29T08:31:50.589Z</time></trkpt><trkpt lat="38.4668583" lon="16.274025"><ele>1010.9999999999999</ele><time>2026-03-29T08:31:51.589Z</time></trkpt><trkpt lat="38.4668933" lon="16.27411"><ele>1010.0</ele><time>2026-03-29T08:31:52.589Z</time></trkpt><trkpt lat="38.4669217" lon="16.2741933"><ele>1009.0</ele><time>2026-03-29T08:31:53.589Z</time></trkpt><trkpt lat="38.46693" lon="16.274295"><ele>1008.0</ele><time>2026-03-29T08:31:54.589Z</time></trkpt><trkpt lat="38.466915" lon="16.274405"><ele>1006.9999999999999</ele><time>2026-03-29T08:31:55.589Z</time></trkpt><trkpt lat="38.4668683" lon="16.2745283"><ele>1006.0</ele><time>2026-03-29T08:31:56.589Z</time></trkpt><trkpt lat="38.4667433" lon="16.2747017"><ele>1007.5</ele><time>2026-03-29T08:31:57.589Z</time></trkpt><trkpt lat="38.4666683" lon="16.274855"><ele>1009.0</ele><time>2026-03-29T08:31:58.589Z</time></trkpt><trkpt lat="38.466605" lon="16.2750117"><ele>1010.5</ele><time>2026-03-29T08:31:59.589Z</time></trkpt><trkpt lat="38.46654" lon="16.27517"><ele>1012.0</ele><time>2026-03-29T08:32:00.589Z</time></trkpt><trkpt lat="38.4664933" lon="16.2753317"><ele>1012.0</ele><time>2026-03-29T08:32:01.59Z</time></trkpt><trkpt lat="38.46647" lon="16.27551"><ele>1012.0</ele><time>2026-03-29T08:32:02.589Z</time></trkpt><trkpt lat="38.466475" lon="16.27569"><ele>1012.0</ele><time>2026-03-29T08:32:03.589Z</time></trkpt><trkpt lat="38.46649" lon="16.2758983"><ele>1012.0</ele><time>2026-03-29T08:32:04.589Z</time></trkpt><trkpt lat="38.4664967" lon="16.276125"><ele>1014.0</ele><time>2026-03-29T08:32:05.589Z</time></trkpt><trkpt lat="38.466505" lon="16.2763783"><ele>1016.0</ele><time>2026-03-29T08:32:06.589Z</time></trkpt><trkpt lat="38.4665" lon="16.2766633"><ele>1018.0</ele><time>2026-03-29T08:32:07.589Z</time></trkpt><trkpt lat="38.4665067" lon="16.2769267"><ele>1018.3333333333333</ele><time>2026-03-29T08:32:08.589Z</time></trkpt><trkpt lat="38.4665167" lon="16.27715"><ele>1018.6666666666667</ele><time>2026-03-29T08:32:09.589Z</time></trkpt><trkpt lat="38.46655" lon="16.277345"><ele>1019.0</ele><time>2026-03-29T08:32:10.589Z</time></trkpt><trkpt lat="38.46659" lon="16.27751"><ele>1019.0</ele><time>2026-03-29T08:32:11.589Z</time></trkpt><trkpt lat="38.46665" lon="16.277645"><ele>1019.0</ele><time>2026-03-29T08:32:12.589Z</time></trkpt><trkpt lat="38.4667517" lon="16.2777867"><ele>1019.0</ele><time>2026-03-29T08:32:13.589Z</time></trkpt><trkpt lat="38.4668733" lon="16.2779417"><ele>1019.0</ele><time>2026-03-29T08:32:14.589Z</time></trkpt><trkpt lat="38.46701" lon="16.278105"><ele>1020.3333333333334</ele><time>2026-03-29T08:32:15.589Z</time></trkpt><trkpt lat="38.46713" lon="16.2782833"><ele>1021.6666666666667</ele><time>2026-03-29T08:32:16.589Z</time></trkpt><trkpt lat="38.46725" lon="16.2784633"><ele>1023.0</ele><time>2026-03-29T08:32:17.589Z</time></trkpt><trkpt lat="38.4673533" lon="16.27863"><ele>1023.0</ele><time>2026-03-29T08:32:18.589Z</time></trkpt><trkpt lat="38.46744" lon="16.2787533"><ele>1023.0</ele><time>2026-03-29T08:32:19.589Z</time></trkpt><trkpt lat="38.4675217" lon="16.2788583"><ele>1023.0</ele><time>2026-03-29T08:32:20.589Z</time></trkpt><trkpt lat="38.467625" lon="16.2789533"><ele>1023.0</ele><time>2026-03-29T08:32:21.589Z</time></trkpt><trkpt lat="38.4677517" lon="16.279035"><ele>1022.75</ele><time>2026-03-29T08:32:22.589Z</time></trkpt><trkpt lat="38.46788" lon="16.2791167"><ele>1022.5</ele><time>2026-03-29T08:32:23.589Z</time></trkpt><trkpt lat="38.4679967" lon="16.2792"><ele>1022.25</ele><time>2026-03-29T08:32:24.589Z</time></trkpt><trkpt lat="38.4681017" lon="16.2792717"><ele>1022.0</ele><time>2026-03-29T08:32:25.589Z</time></trkpt><trkpt lat="38.468185" lon="16.2793567"><ele>1022.0</ele><time>2026-03-29T08:32:26.589Z</time></trkpt><trkpt lat="38.468255" lon="16.27946"><ele>1022.0</ele><time>2026-03-29T08:32:27.589Z</time></trkpt><trkpt lat="38.46831" lon="16.2795783"><ele>1022.0</ele><time>2026-03-29T08:32:28.589Z</time></trkpt><trkpt lat="38.4683583" lon="16.2797067"><ele>1022.0</ele><time>2026-03-29T08:32:29.589Z</time></trkpt><trkpt lat="38.4683867" lon="16.2798517"><ele>1022.0</ele><time>2026-03-29T08:32:30.589Z</time></trkpt><trkpt lat="38.4684" lon="16.28"><ele>1021.25</ele><time>2026-03-29T08:32:31.589Z</time></trkpt><trkpt lat="38.4684183" lon="16.2801517"><ele>1020.5</ele><time>2026-03-29T08:32:32.589Z</time></trkpt><trkpt lat="38.4684583" lon="16.2802917"><ele>1019.75</ele><time>2026-03-29T08:32:33.59Z</time></trkpt><trkpt lat="38.468525" lon="16.280415"><ele>1019.0</ele><time>2026-03-29T08:32:34.589Z</time></trkpt><trkpt lat="38.4685967" lon="16.2805383"><ele>1017.5</ele><time>2026-03-29T08:32:35.589Z</time></trkpt><trkpt lat="38.4686783" lon="16.28065"><ele>1016.0</ele><time>2026-03-29T08:32:36.59Z</time></trkpt><trkpt lat="38.468755" lon="16.28076"><ele>1014.5</ele><time>2026-03-29T08:32:37.59Z</time></trkpt><trkpt lat="38.4688183" lon="16.2808917"><ele>1013.0</ele><time>2026-03-29T08:32:38.589Z</time></trkpt><trkpt lat="38.4688583" lon="16.2810333"><ele>1017.75</ele><time>2026-03-29T08:32:39.589Z</time></trkpt><trkpt lat="38.46887" lon="16.28118"><ele>1022.5</ele><time>2026-03-29T08:32:40.589Z</time></trkpt><trkpt lat="38.46885" lon="16.2813317"><ele>1027.25</ele><time>2026-03-29T08:32:41.59Z</time></trkpt><trkpt lat="38.4688133" lon="16.2814983"><ele>1032.0</ele><time>2026-03-29T08:32:42.589Z</time></trkpt><trkpt lat="38.4687783" lon="16.2816867"><ele>1033.6666666666667</ele><time>2026-03-29T08:32:43.589Z</time></trkpt><trkpt lat="38.4687633" lon="16.2818917"><ele>1035.3333333333335</ele><time>2026-03-29T08:32:44.589Z</time></trkpt><trkpt lat="38.4687717" lon="16.2821233"><ele>1037.0</ele><time>2026-03-29T08:32:45.589Z</time></trkpt><trkpt lat="38.4688033" lon="16.2823683"><ele>1037.0</ele><time>2026-03-29T08:32:46.589Z</time></trkpt><trkpt lat="38.4688267" lon="16.2826283"><ele>1037.0</ele><time>2026-03-29T08:32:47.589Z</time></trkpt><trkpt lat="38.4688433" lon="16.2828733"><ele>1037.0</ele><time>2026-03-29T08:32:48.589Z</time></trkpt><trkpt lat="38.4688483" lon="16.2830933"><ele>1036.25</ele><time>2026-03-29T08:32:49.589Z</time></trkpt><trkpt lat="38.4688733" lon="16.2832717"><ele>1035.5</ele><time>2026-03-29T08:32:50.589Z</time></trkpt><trkpt lat="38.4689267" lon="16.28344"><ele>1034.75</ele><time>2026-03-29T08:32:51.589Z</time></trkpt><trkpt lat="38.468985" lon="16.2835683"><ele>1034.0</ele><time>2026-03-29T08:32:52.589Z</time></trkpt><trkpt lat="38.469045" lon="16.2836817"><ele>1034.0</ele><time>2026-03-29T08:32:53.589Z</time></trkpt><trkpt lat="38.46911" lon="16.2837717"><ele>1034.0</ele><time>2026-03-29T08:32:54.589Z</time></trkpt><trkpt lat="38.4691883" lon="16.28384"><ele>1034.0</ele><time>2026-03-29T08:32:55.589Z</time></trkpt><trkpt lat="38.46925" lon="16.2838717"><ele>1034.0</ele><time>2026-03-29T08:32:56.589Z</time></trkpt><trkpt lat="38.4693317" lon="16.2838883"><ele>1034.0</ele><time>2026-03-29T08:32:57.589Z</time></trkpt><trkpt lat="38.4694133" lon="16.2838633"><ele>1034.0</ele><time>2026-03-29T08:32:58.589Z</time></trkpt><trkpt lat="38.46951" lon="16.2837833"><ele>1034.0</ele><time>2026-03-29T08:32:59.589Z</time></trkpt><trkpt lat="38.4696017" lon="16.2836883"><ele>1034.0</ele><time>2026-03-29T08:33:00.589Z</time></trkpt><trkpt lat="38.4696933" lon="16.2836017"><ele>1034.0</ele><time>2026-03-29T08:33:01.589Z</time></trkpt><trkpt lat="38.4697883" lon="16.28352"><ele>1034.0</ele><time>2026-03-29T08:33:02.589Z</time></trkpt><trkpt lat="38.4698817" lon="16.2834767"><ele>1034.0</ele><time>2026-03-29T08:33:03.59Z</time></trkpt><trkpt lat="38.469965" lon="16.2834533"><ele>1034.6666666666667</ele><time>2026-03-29T08:33:04.59Z</time></trkpt><trkpt lat="38.4700383" lon="16.28347"><ele>1035.3333333333335</ele><time>2026-03-29T08:33:05.59Z</time></trkpt><trkpt lat="38.470105" lon="16.2835233"><ele>1036.0</ele><time>2026-03-29T08:33:06.59Z</time></trkpt><trkpt lat="38.4701583" lon="16.2835983"><ele>1036.6666666666667</ele><time>2026-03-29T08:33:07.59Z</time></trkpt><trkpt lat="38.4701933" lon="16.2836917"><ele>1037.3333333333333</ele><time>2026-03-29T08:33:08.59Z</time></trkpt><trkpt lat="38.470175" lon="16.2838483"><ele>1038.0</ele><time>2026-03-29T08:33:09.59Z</time></trkpt><trkpt lat="38.47013" lon="16.28404"><ele>1033.75</ele><time>2026-03-29T08:33:10.591Z</time></trkpt><trkpt lat="38.4700917" lon="16.28424"><ele>1029.5</ele><time>2026-03-29T08:33:11.59Z</time></trkpt><trkpt lat="38.470075" lon="16.28441"><ele>1025.25</ele><time>2026-03-29T08:33:12.59Z</time></trkpt><trkpt lat="38.4701017" lon="16.2845533"><ele>1021.0</ele><time>2026-03-29T08:33:13.59Z</time></trkpt><trkpt lat="38.4701533" lon="16.2846533"><ele>1021.0</ele><time>2026-03-29T08:33:14.59Z</time></trkpt><trkpt lat="38.470235" lon="16.2847267"><ele>1020.9999999999999</ele><time>2026-03-29T08:33:15.59Z</time></trkpt><trkpt lat="38.470325" lon="16.284775"><ele>1020.9999999999999</ele><time>2026-03-29T08:33:16.59Z</time></trkpt><trkpt lat="38.47042" lon="16.284785"><ele>1021.0</ele><time>2026-03-29T08:33:17.59Z</time></trkpt><trkpt lat="38.4705117" lon="16.2847667"><ele>1021.0</ele><time>2026-03-29T08:33:18.59Z</time></trkpt><trkpt lat="38.4705933" lon="16.2847067"><ele>1022.75</ele><time>2026-03-29T08:33:19.59Z</time></trkpt><trkpt lat="38.470675" lon="16.2846217"><ele>1024.5</ele><time>2026-03-29T08:33:20.59Z</time></trkpt><trkpt lat="38.4707733" lon="16.2844983"><ele>1026.25</ele><time>2026-03-29T08:33:21.591Z</time></trkpt><trkpt lat="38.4708783" lon="16.2843383"><ele>1028.0</ele><time>2026-03-29T08:33:22.59Z</time></trkpt><trkpt lat="38.47097" lon="16.2841583"><ele>1028.0</ele><time>2026-03-29T08:33:23.59Z</time></trkpt><trkpt lat="38.4710483" lon="16.2839717"><ele>1028.0</ele><time>2026-03-29T08:33:24.59Z</time></trkpt><trkpt lat="38.47112" lon="16.28383"><ele>1028.0</ele><time>2026-03-29T08:33:25.59Z</time></trkpt><trkpt lat="38.4711817" lon="16.2837317"><ele>1028.0</ele><time>2026-03-29T08:33:26.59Z</time></trkpt><trkpt lat="38.4712467" lon="16.2836567"><ele>1027.6</ele><time>2026-03-29T08:33:27.59Z</time></trkpt><trkpt lat="38.4713133" lon="16.2836217"><ele>1027.1999999999998</ele><time>2026-03-29T08:33:28.591Z</time></trkpt><trkpt lat="38.4713933" lon="16.2835983"><ele>1026.8</ele><time>2026-03-29T08:33:29.59Z</time></trkpt><trkpt lat="38.4714817" lon="16.2835983"><ele>1026.3999999999999</ele><time>2026-03-29T08:33:30.59Z</time></trkpt><trkpt lat="38.4715833" lon="16.28363"><ele>1026.0</ele><time>2026-03-29T08:33:31.59Z</time></trkpt><trkpt lat="38.4717017" lon="16.283685"><ele>1026.0</ele><time>2026-03-29T08:33:32.591Z</time></trkpt><trkpt lat="38.4718083" lon="16.2837233"><ele>1026.0</ele><time>2026-03-29T08:33:33.59Z</time></trkpt><trkpt lat="38.4719133" lon="16.2837383"><ele>1026.0</ele><time>2026-03-29T08:33:34.59Z</time></trkpt><trkpt lat="38.47202" lon="16.28372"><ele>1026.0</ele><time>2026-03-29T08:33:35.59Z</time></trkpt><trkpt lat="38.4721183" lon="16.28367"><ele>1026.0</ele><time>2026-03-29T08:33:36.59Z</time></trkpt><trkpt lat="38.47222" lon="16.2835867"><ele>1021.5</ele><time>2026-03-29T08:33:37.59Z</time></trkpt><trkpt lat="38.472295" lon="16.28348"><ele>1017.0</ele><time>2026-03-29T08:33:38.59Z</time></trkpt><trkpt lat="38.4723467" lon="16.283355"><ele>1012.5</ele><time>2026-03-29T08:33:39.59Z</time></trkpt><trkpt lat="38.4723917" lon="16.2832033"><ele>1008.0</ele><time>2026-03-29T08:33:40.59Z</time></trkpt><trkpt lat="38.4724367" lon="16.2830417"><ele>1008.0</ele><time>2026-03-29T08:33:41.59Z</time></trkpt><trkpt lat="38.47248" lon="16.28286"><ele>1008.0</ele><time>2026-03-29T08:33:42.59Z</time></trkpt><trkpt lat="38.4725133" lon="16.2826617"><ele>1008.0</ele><time>2026-03-29T08:33:43.59Z</time></trkpt><trkpt lat="38.4725283" lon="16.2824583"><ele>1009.6666666666667</ele><time>2026-03-29T08:33:44.59Z</time></trkpt><trkpt lat="38.4725333" lon="16.282245"><ele>1011.3333333333334</ele><time>2026-03-29T08:33:45.59Z</time></trkpt><trkpt lat="38.472545" lon="16.282035"><ele>1013.0</ele><time>2026-03-29T08:33:46.59Z</time></trkpt><trkpt lat="38.47256" lon="16.28183"><ele>1013.0</ele><time>2026-03-29T08:33:47.59Z</time></trkpt><trkpt lat="38.472575" lon="16.28163"><ele>1013.0</ele><time>2026-03-29T08:33:48.59Z</time></trkpt><trkpt lat="38.47259" lon="16.281455"><ele>1013.0</ele><time>2026-03-29T08:33:49.59Z</time></trkpt><trkpt lat="38.472605" lon="16.2812933"><ele>1013.0</ele><time>2026-03-29T08:33:50.59Z</time></trkpt><trkpt lat="38.47263" lon="16.2811483"><ele>1012.8</ele><time>2026-03-29T08:33:51.59Z</time></trkpt><trkpt lat="38.4726533" lon="16.2810217"><ele>1012.5999999999999</ele><time>2026-03-29T08:33:52.59Z</time></trkpt><trkpt lat="38.4726733" lon="16.2809283"><ele>1012.4000000000001</ele><time>2026-03-29T08:33:53.59Z</time></trkpt><trkpt lat="38.47272" lon="16.28083"><ele>1012.2</ele><time>2026-03-29T08:33:55.59Z</time></trkpt><trkpt lat="38.4728467" lon="16.2808583"><ele>1012.0</ele><time>2026-03-29T08:33:57.59Z</time></trkpt><trkpt lat="38.4729317" lon="16.280915"><ele>1010.25</ele><time>2026-03-29T08:33:58.59Z</time></trkpt><trkpt lat="38.4730417" lon="16.2810183"><ele>1008.5</ele><time>2026-03-29T08:33:59.59Z</time></trkpt><trkpt lat="38.4731767" lon="16.28115"><ele>1006.75</ele><time>2026-03-29T08:34:00.59Z</time></trkpt><trkpt lat="38.4732933" lon="16.2812533"><ele>1005.0</ele><time>2026-03-29T08:34:01.59Z</time></trkpt><trkpt lat="38.473405" lon="16.2813667"><ele>1005.6</ele><time>2026-03-29T08:34:02.59Z</time></trkpt><trkpt lat="38.473495" lon="16.2814617"><ele>1006.2</ele><time>2026-03-29T08:34:03.59Z</time></trkpt><trkpt lat="38.4735733" lon="16.2815267"><ele>1006.8</ele><time>2026-03-29T08:34:04.59Z</time></trkpt><trkpt lat="38.4736283" lon="16.2815867"><ele>1007.4</ele><time>2026-03-29T08:34:05.59Z</time></trkpt><trkpt lat="38.4736817" lon="16.28163"><ele>1008.0</ele><time>2026-03-29T08:34:06.59Z</time></trkpt><trkpt lat="38.473775" lon="16.281735"><ele>1008.0</ele><time>2026-03-29T08:34:08.59Z</time></trkpt><trkpt lat="38.473835" lon="16.2817967"><ele>1008.0</ele><time>2026-03-29T08:34:09.59Z</time></trkpt><trkpt lat="38.4738967" lon="16.2818783"><ele>1008.0</ele><time>2026-03-29T08:34:10.59Z</time></trkpt><trkpt lat="38.47396" lon="16.2819767"><ele>1008.0</ele><time>2026-03-29T08:34:11.59Z</time></trkpt><trkpt lat="38.4740233" lon="16.2820833"><ele>1008.0</ele><time>2026-03-29T08:34:12.59Z</time></trkpt><trkpt lat="38.474075" lon="16.2821933"><ele>1007.25</ele><time>2026-03-29T08:34:13.59Z</time></trkpt><trkpt lat="38.4741267" lon="16.2823167"><ele>1006.5</ele><time>2026-03-29T08:34:14.59Z</time></trkpt><trkpt lat="38.4741583" lon="16.2824733"><ele>1005.75</ele><time>2026-03-29T08:34:15.59Z</time></trkpt><trkpt lat="38.474195" lon="16.2826467"><ele>1005.0</ele><time>2026-03-29T08:34:16.59Z</time></trkpt><trkpt lat="38.474235" lon="16.28283"><ele>1005.0</ele><time>2026-03-29T08:34:17.59Z</time></trkpt><trkpt lat="38.474275" lon="16.2830033"><ele>1005.0</ele><time>2026-03-29T08:34:18.59Z</time></trkpt><trkpt lat="38.4743167" lon="16.28317"><ele>1005.0</ele><time>2026-03-29T08:34:19.59Z</time></trkpt><trkpt lat="38.47437" lon="16.2833517"><ele>1005.0</ele><time>2026-03-29T08:34:20.59Z</time></trkpt><trkpt lat="38.4744433" lon="16.283515"><ele>1005.5</ele><time>2026-03-29T08:34:21.59Z</time></trkpt><trkpt lat="38.47453" lon="16.28366"><ele>1006.0</ele><time>2026-03-29T08:34:22.59Z</time></trkpt><trkpt lat="38.47463" lon="16.28378"><ele>1006.5</ele><time>2026-03-29T08:34:23.59Z</time></trkpt><trkpt lat="38.474745" lon="16.2838733"><ele>1007.0</ele><time>2026-03-29T08:34:24.59Z</time></trkpt><trkpt lat="38.4748717" lon="16.28393"><ele>1004.75</ele><time>2026-03-29T08:34:25.59Z</time></trkpt><trkpt lat="38.475005" lon="16.28395"><ele>1002.5</ele><time>2026-03-29T08:34:26.59Z</time></trkpt><trkpt lat="38.4751533" lon="16.2839617"><ele>1000.25</ele><time>2026-03-29T08:34:27.59Z</time></trkpt><trkpt lat="38.475305" lon="16.2839583"><ele>998.0</ele><time>2026-03-29T08:34:28.59Z</time></trkpt><trkpt lat="38.4754517" lon="16.283925"><ele>997.6666666666667</ele><time>2026-03-29T08:34:29.591Z</time></trkpt><trkpt lat="38.47558" lon="16.2838717"><ele>997.3333333333333</ele><time>2026-03-29T08:34:30.59Z</time></trkpt><trkpt lat="38.4757133" lon="16.2837983"><ele>997.0</ele><time>2026-03-29T08:34:31.59Z</time></trkpt><trkpt lat="38.4758567" lon="16.2836633"><ele>997.0</ele><time>2026-03-29T08:34:32.59Z</time></trkpt><trkpt lat="38.4759933" lon="16.2835033"><ele>997.0</ele><time>2026-03-29T08:34:33.59Z</time></trkpt><trkpt lat="38.47612" lon="16.28332"><ele>997.0</ele><time>2026-03-29T08:34:34.59Z</time></trkpt><trkpt lat="38.4762317" lon="16.28315"><ele>993.0</ele><time>2026-03-29T08:34:35.59Z</time></trkpt><trkpt lat="38.4762967" lon="16.2829983"><ele>989.0</ele><time>2026-03-29T08:34:36.59Z</time></trkpt><trkpt lat="38.4763417" lon="16.2828467"><ele>985.0</ele><time>2026-03-29T08:34:37.59Z</time></trkpt><trkpt lat="38.47637" lon="16.28266"><ele>981.0</ele><time>2026-03-29T08:34:38.59Z</time></trkpt><trkpt lat="38.4763683" lon="16.2824767"><ele>981.0</ele><time>2026-03-29T08:34:39.59Z</time></trkpt><trkpt lat="38.476355" lon="16.2822833"><ele>981.0</ele><time>2026-03-29T08:34:40.59Z</time></trkpt><trkpt lat="38.47635" lon="16.2820833"><ele>981.0</ele><time>2026-03-29T08:34:41.59Z</time></trkpt><trkpt lat="38.4763467" lon="16.281915"><ele>981.0</ele><time>2026-03-29T08:34:42.59Z</time></trkpt><trkpt lat="38.476345" lon="16.2817683"><ele>982.25</ele><time>2026-03-29T08:34:43.591Z</time></trkpt><trkpt lat="38.476385" lon="16.2816267"><ele>983.5</ele><time>2026-03-29T08:34:44.591Z</time></trkpt><trkpt lat="38.4764517" lon="16.2814967"><ele>984.75</ele><time>2026-03-29T08:34:45.59Z</time></trkpt><trkpt lat="38.4765367" lon="16.2813633"><ele>986.0</ele><time>2026-03-29T08:34:46.59Z</time></trkpt><trkpt lat="38.4766433" lon="16.28124"><ele>989.3333333333334</ele><time>2026-03-29T08:34:47.59Z</time></trkpt><trkpt lat="38.4767517" lon="16.2811017"><ele>992.6666666666667</ele><time>2026-03-29T08:34:48.59Z</time></trkpt><trkpt lat="38.4768517" lon="16.2809467"><ele>996.0</ele><time>2026-03-29T08:34:49.59Z</time></trkpt><trkpt lat="38.47693" lon="16.2807867"><ele>996.0</ele><time>2026-03-29T08:34:50.59Z</time></trkpt><trkpt lat="38.47699" lon="16.2806233"><ele>996.0</ele><time>2026-03-29T08:34:51.59Z</time></trkpt><trkpt lat="38.477035" lon="16.2804567"><ele>996.0</ele><time>2026-03-29T08:34:52.59Z</time></trkpt><trkpt lat="38.47709" lon="16.2803217"><ele>996.0</ele><time>2026-03-29T08:34:53.591Z</time></trkpt><trkpt lat="38.4771533" lon="16.280215"><ele>993.1666666666666</ele><time>2026-03-29T08:34:54.59Z</time></trkpt><trkpt lat="38.47721" lon="16.2801367"><ele>990.3333333333333</ele><time>2026-03-29T08:34:55.59Z</time></trkpt><trkpt lat="38.4772683" lon="16.2800833"><ele>987.5</ele><time>2026-03-29T08:34:56.59Z</time></trkpt><trkpt lat="38.4773367" lon="16.2800333"><ele>984.6666666666666</ele><time>2026-03-29T08:34:57.59Z</time></trkpt><trkpt lat="38.4774033" lon="16.2800117"><ele>981.8333333333333</ele><time>2026-03-29T08:34:58.59Z</time></trkpt><trkpt lat="38.477475" lon="16.2800033"><ele>979.0</ele><time>2026-03-29T08:34:59.591Z</time></trkpt><trkpt lat="38.4775533" lon="16.2800133"><ele>978.9999999999999</ele><time>2026-03-29T08:35:00.59Z</time></trkpt><trkpt lat="38.4776283" lon="16.280035"><ele>979.0</ele><time>2026-03-29T08:35:01.59Z</time></trkpt><trkpt lat="38.477695" lon="16.2800783"><ele>979.0</ele><time>2026-03-29T08:35:02.59Z</time></trkpt><trkpt lat="38.4777533" lon="16.2801417"><ele>979.0</ele><time>2026-03-29T08:35:03.59Z</time></trkpt><trkpt lat="38.4778283" lon="16.2802167"><ele>978.9999999999999</ele><time>2026-03-29T08:35:04.59Z</time></trkpt><trkpt lat="38.477885" lon="16.2802833"><ele>979.0</ele><time>2026-03-29T08:35:05.59Z</time></trkpt><trkpt lat="38.47793" lon="16.2803617"><ele>979.75</ele><time>2026-03-29T08:35:06.59Z</time></trkpt><trkpt lat="38.4779517" lon="16.2804633"><ele>980.5</ele><time>2026-03-29T08:35:07.59Z</time></trkpt><trkpt lat="38.4779567" lon="16.2805983"><ele>981.25</ele><time>2026-03-29T08:35:08.59Z</time></trkpt><trkpt lat="38.477965" lon="16.280755"><ele>982.0</ele><time>2026-03-29T08:35:09.59Z</time></trkpt><trkpt lat="38.477965" lon="16.2809317"><ele>982.25</ele><time>2026-03-29T08:35:10.59Z</time></trkpt><trkpt lat="38.4779683" lon="16.2811017"><ele>982.5</ele><time>2026-03-29T08:35:11.59Z</time></trkpt><trkpt lat="38.4779967" lon="16.2812833"><ele>982.75</ele><time>2026-03-29T08:35:12.59Z</time></trkpt><trkpt lat="38.4780533" lon="16.2814617"><ele>983.0</ele><time>2026-03-29T08:35:13.59Z</time></trkpt><trkpt lat="38.4781467" lon="16.2816567"><ele>982.3333333333334</ele><time>2026-03-29T08:35:14.59Z</time></trkpt><trkpt lat="38.478245" lon="16.28186"><ele>981.6666666666667</ele><time>2026-03-29T08:35:15.59Z</time></trkpt><trkpt lat="38.4783417" lon="16.2820633"><ele>981.0</ele><time>2026-03-29T08:35:16.59Z</time></trkpt><trkpt lat="38.478445" lon="16.2822633"><ele>979.6666666666667</ele><time>2026-03-29T08:35:17.59Z</time></trkpt><trkpt lat="38.4785367" lon="16.2824517"><ele>978.3333333333334</ele><time>2026-03-29T08:35:18.59Z</time></trkpt><trkpt lat="38.478625" lon="16.2826183"><ele>977.0</ele><time>2026-03-29T08:35:19.59Z</time></trkpt><trkpt lat="38.478685" lon="16.2827517"><ele>977.0</ele><time>2026-03-29T08:35:20.59Z</time></trkpt><trkpt lat="38.4787517" lon="16.2828683"><ele>977.0</ele><time>2026-03-29T08:35:21.59Z</time></trkpt><trkpt lat="38.4788283" lon="16.2829617"><ele>977.0</ele><time>2026-03-29T08:35:22.59Z</time></trkpt><trkpt lat="38.4789083" lon="16.2830333"><ele>977.0</ele><time>2026-03-29T08:35:23.59Z</time></trkpt><trkpt lat="38.4789983" lon="16.2830817"><ele>977.0</ele><time>2026-03-29T08:35:24.591Z</time></trkpt><trkpt lat="38.4791167" lon="16.2830983"><ele>978.25</ele><time>2026-03-29T08:35:25.59Z</time></trkpt><trkpt lat="38.47926" lon="16.2830683"><ele>979.5</ele><time>2026-03-29T08:35:26.59Z</time></trkpt><trkpt lat="38.4793883" lon="16.283025"><ele>980.75</ele><time>2026-03-29T08:35:27.59Z</time></trkpt><trkpt lat="38.4795033" lon="16.2829617"><ele>982.0</ele><time>2026-03-29T08:35:28.59Z</time></trkpt><trkpt lat="38.4795867" lon="16.2828883"><ele>980.5</ele><time>2026-03-29T08:35:29.59Z</time></trkpt><trkpt lat="38.4796717" lon="16.2827917"><ele>979.0</ele><time>2026-03-29T08:35:30.59Z</time></trkpt><trkpt lat="38.4797533" lon="16.2826817"><ele>977.5</ele><time>2026-03-29T08:35:31.59Z</time></trkpt><trkpt lat="38.4798567" lon="16.2825667"><ele>976.0</ele><time>2026-03-29T08:35:32.59Z</time></trkpt><trkpt lat="38.4799583" lon="16.2824667"><ele>976.0</ele><time>2026-03-29T08:35:33.59Z</time></trkpt><trkpt lat="38.48006" lon="16.2823783"><ele>976.0</ele><time>2026-03-29T08:35:34.59Z</time></trkpt><trkpt lat="38.4801717" lon="16.2823117"><ele>976.0</ele><time>2026-03-29T08:35:35.59Z</time></trkpt><trkpt lat="38.4802983" lon="16.282255"><ele>976.0</ele><time>2026-03-29T08:35:36.59Z</time></trkpt><trkpt lat="38.4804183" lon="16.2821833"><ele>976.0</ele><time>2026-03-29T08:35:37.59Z</time></trkpt><trkpt lat="38.4805433" lon="16.2820983"><ele>976.0</ele><time>2026-03-29T08:35:38.591Z</time></trkpt><trkpt lat="38.480675" lon="16.2820167"><ele>976.0</ele><time>2026-03-29T08:35:39.59Z</time></trkpt><trkpt lat="38.4808" lon="16.2819467"><ele>976.0</ele><time>2026-03-29T08:35:40.59Z</time></trkpt><trkpt lat="38.4809317" lon="16.2818967"><ele>976.0</ele><time>2026-03-29T08:35:41.59Z</time></trkpt><trkpt lat="38.4810983" lon="16.28188"><ele>976.0</ele><time>2026-03-29T08:35:42.591Z</time></trkpt><trkpt lat="38.4812667" lon="16.281885"><ele>976.0</ele><time>2026-03-29T08:35:43.59Z</time></trkpt><trkpt lat="38.481455" lon="16.2819133"><ele>976.3333333333333</ele><time>2026-03-29T08:35:44.59Z</time></trkpt><trkpt lat="38.4816283" lon="16.28195"><ele>976.6666666666667</ele><time>2026-03-29T08:35:45.59Z</time></trkpt><trkpt lat="38.4817917" lon="16.2819883"><ele>977.0</ele><time>2026-03-29T08:35:46.59Z</time></trkpt><trkpt lat="38.4819317" lon="16.282035"><ele>977.0</ele><time>2026-03-29T08:35:47.59Z</time></trkpt><trkpt lat="38.4820533" lon="16.2820883"><ele>977.0</ele><time>2026-03-29T08:35:48.59Z</time></trkpt><trkpt lat="38.48215" lon="16.282155"><ele>977.0</ele><time>2026-03-29T08:35:49.59Z</time></trkpt><trkpt lat="38.4822383" lon="16.2822233"><ele>977.0</ele><time>2026-03-29T08:35:50.59Z</time></trkpt><trkpt lat="38.4823217" lon="16.2822983"><ele>977.0</ele><time>2026-03-29T08:35:51.59Z</time></trkpt><trkpt lat="38.48238" lon="16.2823867"><ele>973.25</ele><time>2026-03-29T08:35:52.59Z</time></trkpt><trkpt lat="38.4824217" lon="16.2824983"><ele>969.5</ele><time>2026-03-29T08:35:53.59Z</time></trkpt><trkpt lat="38.48246" lon="16.2826433"><ele>965.75</ele><time>2026-03-29T08:35:54.591Z</time></trkpt><trkpt lat="38.4825083" lon="16.28281"><ele>962.0</ele><time>2026-03-29T08:35:55.59Z</time></trkpt><trkpt lat="38.48258" lon="16.2829917"><ele>960.0</ele><time>2026-03-29T08:35:56.59Z</time></trkpt><trkpt lat="38.482665" lon="16.28318"><ele>958.0</ele><time>2026-03-29T08:35:57.59Z</time></trkpt><trkpt lat="38.4827617" lon="16.2833583"><ele>956.0</ele><time>2026-03-29T08:35:58.59Z</time></trkpt><trkpt lat="38.482865" lon="16.283525"><ele>956.75</ele><time>2026-03-29T08:35:59.59Z</time></trkpt><trkpt lat="38.4829667" lon="16.2836817"><ele>957.5</ele><time>2026-03-29T08:36:00.59Z</time></trkpt><trkpt lat="38.4830533" lon="16.2838333"><ele>958.25</ele><time>2026-03-29T08:36:01.59Z</time></trkpt><trkpt lat="38.48311" lon="16.283955"><ele>959.0</ele><time>2026-03-29T08:36:02.59Z</time></trkpt><trkpt lat="38.483135" lon="16.284055"><ele>959.0000000000001</ele><time>2026-03-29T08:36:03.591Z</time></trkpt><trkpt lat="38.4831767" lon="16.28417"><ele>959.0</ele><time>2026-03-29T08:36:04.59Z</time></trkpt><trkpt lat="38.4832133" lon="16.28428"><ele>959.0</ele><time>2026-03-29T08:36:05.59Z</time></trkpt><trkpt lat="38.4832517" lon="16.2843783"><ele>959.0</ele><time>2026-03-29T08:36:06.59Z</time></trkpt><trkpt lat="38.4833033" lon="16.28446"><ele>959.0000000000001</ele><time>2026-03-29T08:36:07.59Z</time></trkpt><trkpt lat="38.4833583" lon="16.28453"><ele>959.0</ele><time>2026-03-29T08:36:08.59Z</time></trkpt><trkpt lat="38.4834267" lon="16.2845767"><ele>959.0</ele><time>2026-03-29T08:36:09.59Z</time></trkpt><trkpt lat="38.4835183" lon="16.2846017"><ele>959.0</ele><time>2026-03-29T08:36:10.59Z</time></trkpt><trkpt lat="38.4836333" lon="16.2846183"><ele>959.0</ele><time>2026-03-29T08:36:11.59Z</time></trkpt><trkpt lat="38.4837733" lon="16.284645"><ele>959.0</ele><time>2026-03-29T08:36:12.59Z</time></trkpt><trkpt lat="38.4839233" lon="16.28468"><ele>962.0</ele><time>2026-03-29T08:36:13.59Z</time></trkpt><trkpt lat="38.4840867" lon="16.2847633"><ele>965.0</ele><time>2026-03-29T08:36:14.59Z</time></trkpt><trkpt lat="38.4842483" lon="16.28485"><ele>968.0</ele><time>2026-03-29T08:36:15.59Z</time></trkpt><trkpt lat="38.4844333" lon="16.284965"><ele>967.0</ele><time>2026-03-29T08:36:16.59Z</time></trkpt><trkpt lat="38.48463" lon="16.28508"><ele>966.0</ele><time>2026-03-29T08:36:17.59Z</time></trkpt><trkpt lat="38.4848217" lon="16.2851917"><ele>965.0</ele><time>2026-03-29T08:36:18.59Z</time></trkpt><trkpt lat="38.4849917" lon="16.2852983"><ele>965.0</ele><time>2026-03-29T08:36:19.59Z</time></trkpt><trkpt lat="38.4851333" lon="16.285375"><ele>965.0</ele><time>2026-03-29T08:36:20.59Z</time></trkpt><trkpt lat="38.4852567" lon="16.2854233"><ele>965.0</ele><time>2026-03-29T08:36:21.59Z</time></trkpt><trkpt lat="38.485375" lon="16.2854267"><ele>965.0</ele><time>2026-03-29T08:36:22.59Z</time></trkpt><trkpt lat="38.4855" lon="16.2854017"><ele>964.75</ele><time>2026-03-29T08:36:23.591Z</time></trkpt><trkpt lat="38.4856233" lon="16.2853617"><ele>964.5</ele><time>2026-03-29T08:36:24.59Z</time></trkpt><trkpt lat="38.4857433" lon="16.28532"><ele>964.25</ele><time>2026-03-29T08:36:25.59Z</time></trkpt><trkpt lat="38.48586" lon="16.2853"><ele>964.0</ele><time>2026-03-29T08:36:26.59Z</time></trkpt><trkpt lat="38.485975" lon="16.2853133"><ele>964.0</ele><time>2026-03-29T08:36:27.59Z</time></trkpt><trkpt lat="38.4861017" lon="16.2853433"><ele>964.0</ele><time>2026-03-29T08:36:28.59Z</time></trkpt><trkpt lat="38.48622" lon="16.2853767"><ele>964.0</ele><time>2026-03-29T08:36:29.59Z</time></trkpt><trkpt lat="38.48633" lon="16.28541"><ele>964.0</ele><time>2026-03-29T08:36:30.59Z</time></trkpt><trkpt lat="38.486425" lon="16.2854417"><ele>964.4000000000001</ele><time>2026-03-29T08:36:31.59Z</time></trkpt><trkpt lat="38.4865017" lon="16.28547"><ele>964.8000000000001</ele><time>2026-03-29T08:36:32.59Z</time></trkpt><trkpt lat="38.486575" lon="16.2855"><ele>965.1999999999999</ele><time>2026-03-29T08:36:33.59Z</time></trkpt><trkpt lat="38.4866583" lon="16.285545"><ele>965.5999999999999</ele><time>2026-03-29T08:36:34.59Z</time></trkpt><trkpt lat="38.4867533" lon="16.2855867"><ele>966.0</ele><time>2026-03-29T08:36:35.59Z</time></trkpt><trkpt lat="38.4868683" lon="16.2856417"><ele>966.0</ele><time>2026-03-29T08:36:36.59Z</time></trkpt><trkpt lat="38.4869917" lon="16.2857"><ele>966.0</ele><time>2026-03-29T08:36:37.59Z</time></trkpt><trkpt lat="38.48712" lon="16.285745"><ele>966.0</ele><time>2026-03-29T08:36:38.59Z</time></trkpt><trkpt lat="38.4872233" lon="16.2857883"><ele>966.0</ele><time>2026-03-29T08:36:39.59Z</time></trkpt><trkpt lat="38.4873233" lon="16.2858333"><ele>965.0</ele><time>2026-03-29T08:36:40.59Z</time></trkpt><trkpt lat="38.4874067" lon="16.2858983"><ele>963.9999999999999</ele><time>2026-03-29T08:36:41.59Z</time></trkpt><trkpt lat="38.4874767" lon="16.2859767"><ele>962.9999999999999</ele><time>2026-03-29T08:36:42.59Z</time></trkpt><trkpt lat="38.4875467" lon="16.28606"><ele>962.0</ele><time>2026-03-29T08:36:43.59Z</time></trkpt><trkpt lat="38.4876233" lon="16.2861467"><ele>961.0</ele><time>2026-03-29T08:36:44.59Z</time></trkpt><trkpt lat="38.4876867" lon="16.2862367"><ele>960.9999999999999</ele><time>2026-03-29T08:36:45.59Z</time></trkpt><trkpt lat="38.4877333" lon="16.2863317"><ele>961.0</ele><time>2026-03-29T08:36:46.59Z</time></trkpt><trkpt lat="38.4877583" lon="16.2864183"><ele>961.0</ele><time>2026-03-29T08:36:47.59Z</time></trkpt><trkpt lat="38.487785" lon="16.2865333"><ele>961.0</ele><time>2026-03-29T08:36:49.59Z</time></trkpt><trkpt lat="38.4878317" lon="16.286595"><ele>960.9999999999999</ele><time>2026-03-29T08:36:53.59Z</time></trkpt><trkpt lat="38.4879467" lon="16.2865483"><ele>961.0</ele><time>2026-03-29T08:44:41.591Z</time></trkpt><trkpt lat="38.4880167" lon="16.2865267"><ele>960.8</ele><time>2026-03-29T08:44:42.591Z</time></trkpt><trkpt lat="38.488095" lon="16.2865267"><ele>960.5999999999999</ele><time>2026-03-29T08:44:43.591Z</time></trkpt><trkpt lat="38.4881867" lon="16.286535"><ele>960.4</ele><time>2026-03-29T08:44:44.591Z</time></trkpt><trkpt lat="38.48829" lon="16.2865667"><ele>960.2</ele><time>2026-03-29T08:44:45.591Z</time></trkpt><trkpt lat="38.4884" lon="16.2866067"><ele>960.0</ele><time>2026-03-29T08:44:46.592Z</time></trkpt><trkpt lat="38.48851" lon="16.2866417"><ele>960.0</ele><time>2026-03-29T08:44:47.591Z</time></trkpt><trkpt lat="38.4886233" lon="16.286675"><ele>960.0</ele><time>2026-03-29T08:44:48.591Z</time></trkpt><trkpt lat="38.4887417" lon="16.286715"><ele>960.0</ele><time>2026-03-29T08:44:49.591Z</time></trkpt><trkpt lat="38.48884" lon="16.2867583"><ele>960.0</ele><time>2026-03-29T08:44:50.591Z</time></trkpt><trkpt lat="38.488955" lon="16.2868"><ele>962.5</ele><time>2026-03-29T08:44:51.591Z</time></trkpt><trkpt lat="38.4890717" lon="16.286845"><ele>965.0</ele><time>2026-03-29T08:44:52.591Z</time></trkpt><trkpt lat="38.4891683" lon="16.2868867"><ele>967.5</ele><time>2026-03-29T08:44:53.591Z</time></trkpt><trkpt lat="38.4892767" lon="16.2869483"><ele>970.0</ele><time>2026-03-29T08:44:54.591Z</time></trkpt><trkpt lat="38.4893733" lon="16.2870083"><ele>970.0</ele><time>2026-03-29T08:44:55.591Z</time></trkpt><trkpt lat="38.4894667" lon="16.2870817"><ele>970.0</ele><time>2026-03-29T08:44:56.591Z</time></trkpt><trkpt lat="38.48955" lon="16.2871733"><ele>970.0</ele><time>2026-03-29T08:44:57.591Z</time></trkpt><trkpt lat="38.4896383" lon="16.2872733"><ele>970.0</ele><time>2026-03-29T08:44:58.591Z</time></trkpt><trkpt lat="38.4897217" lon="16.287365"><ele>970.0</ele><time>2026-03-29T08:44:59.591Z</time></trkpt><trkpt lat="38.4898083" lon="16.2874333"><ele>971.6</ele><time>2026-03-29T08:45:00.591Z</time></trkpt><trkpt lat="38.4899" lon="16.2874817"><ele>973.2</ele><time>2026-03-29T08:45:01.591Z</time></trkpt><trkpt lat="38.4899933" lon="16.2875267"><ele>974.8</ele><time>2026-03-29T08:45:02.591Z</time></trkpt><trkpt lat="38.4900917" lon="16.2875467"><ele>976.4</ele><time>2026-03-29T08:45:03.591Z</time></trkpt><trkpt lat="38.49019" lon="16.2875567"><ele>978.0</ele><time>2026-03-29T08:45:04.591Z</time></trkpt><trkpt lat="38.4902833" lon="16.2875517"><ele>978.0</ele><time>2026-03-29T08:45:05.591Z</time></trkpt><trkpt lat="38.4903867" lon="16.2875417"><ele>978.0</ele><time>2026-03-29T08:45:06.591Z</time></trkpt><trkpt lat="38.4904983" lon="16.2875367"><ele>978.0</ele><time>2026-03-29T08:45:07.591Z</time></trkpt><trkpt lat="38.4906133" lon="16.2875467"><ele>978.0</ele><time>2026-03-29T08:45:08.591Z</time></trkpt><trkpt lat="38.4907317" lon="16.2875683"><ele>979.0</ele><time>2026-03-29T08:45:09.591Z</time></trkpt><trkpt lat="38.49086" lon="16.2875967"><ele>980.0</ele><time>2026-03-29T08:45:10.591Z</time></trkpt><trkpt lat="38.490985" lon="16.28762"><ele>981.0</ele><time>2026-03-29T08:45:11.591Z</time></trkpt><trkpt lat="38.4911" lon="16.2876533"><ele>982.0</ele><time>2026-03-29T08:45:12.591Z</time></trkpt><trkpt lat="38.4912117" lon="16.2876833"><ele>982.4000000000001</ele><time>2026-03-29T08:45:13.591Z</time></trkpt><trkpt lat="38.4913183" lon="16.2877117"><ele>982.8000000000001</ele><time>2026-03-29T08:45:14.591Z</time></trkpt><trkpt lat="38.4914233" lon="16.287735"><ele>983.2</ele><time>2026-03-29T08:45:15.591Z</time></trkpt><trkpt lat="38.4915317" lon="16.287755"><ele>983.6</ele><time>2026-03-29T08:45:16.591Z</time></trkpt><trkpt lat="38.4916433" lon="16.2877817"><ele>984.0</ele><time>2026-03-29T08:45:17.591Z</time></trkpt><trkpt lat="38.4917617" lon="16.2878033"><ele>984.0</ele><time>2026-03-29T08:45:18.591Z</time></trkpt><trkpt lat="38.49189" lon="16.2878167"><ele>984.0</ele><time>2026-03-29T08:45:19.591Z</time></trkpt><trkpt lat="38.4920267" lon="16.2878217"><ele>984.0</ele><time>2026-03-29T08:45:20.591Z</time></trkpt><trkpt lat="38.492165" lon="16.2878333"><ele>984.0</ele><time>2026-03-29T08:45:21.591Z</time></trkpt><trkpt lat="38.492295" lon="16.2878617"><ele>984.25</ele><time>2026-03-29T08:45:22.591Z</time></trkpt><trkpt lat="38.4924167" lon="16.2879"><ele>984.5</ele><time>2026-03-29T08:45:23.591Z</time></trkpt><trkpt lat="38.4925367" lon="16.2879617"><ele>984.75</ele><time>2026-03-29T08:45:24.591Z</time></trkpt><trkpt lat="38.492665" lon="16.288025"><ele>985.0</ele><time>2026-03-29T08:45:25.591Z</time></trkpt><trkpt lat="38.492785" lon="16.28808"><ele>985.25</ele><time>2026-03-29T08:45:26.591Z</time></trkpt><trkpt lat="38.4928933" lon="16.2881383"><ele>985.5</ele><time>2026-03-29T08:45:27.591Z</time></trkpt><trkpt lat="38.493005" lon="16.2882033"><ele>985.75</ele><time>2026-03-29T08:45:28.591Z</time></trkpt><trkpt lat="38.49312" lon="16.2882617"><ele>986.0</ele><time>2026-03-29T08:45:29.591Z</time></trkpt><trkpt lat="38.4932267" lon="16.288315"><ele>985.5999999999999</ele><time>2026-03-29T08:45:30.591Z</time></trkpt><trkpt lat="38.49332" lon="16.2883683"><ele>985.1999999999999</ele><time>2026-03-29T08:45:31.591Z</time></trkpt><trkpt lat="38.49339" lon="16.288425"><ele>984.8000000000001</ele><time>2026-03-29T08:45:32.591Z</time></trkpt><trkpt lat="38.49346" lon="16.2885067"><ele>984.4000000000001</ele><time>2026-03-29T08:45:33.591Z</time></trkpt><trkpt lat="38.4935383" lon="16.2885933"><ele>984.0</ele><time>2026-03-29T08:45:34.591Z</time></trkpt><trkpt lat="38.49362" lon="16.288695"><ele>984.0</ele><time>2026-03-29T08:45:35.591Z</time></trkpt><trkpt lat="38.493705" lon="16.2888067"><ele>984.0000000000001</ele><time>2026-03-29T08:45:36.591Z</time></trkpt><trkpt lat="38.4937833" lon="16.28891"><ele>984.0000000000001</ele><time>2026-03-29T08:45:37.591Z</time></trkpt><trkpt lat="38.4938533" lon="16.2889967"><ele>984.0</ele><time>2026-03-29T08:45:38.591Z</time></trkpt><trkpt lat="38.4939217" lon="16.2890733"><ele>984.0</ele><time>2026-03-29T08:45:39.591Z</time></trkpt><trkpt lat="38.493985" lon="16.2891567"><ele>982.0</ele><time>2026-03-29T08:45:40.591Z</time></trkpt><trkpt lat="38.4940517" lon="16.2892367"><ele>980.0000000000001</ele><time>2026-03-29T08:45:41.591Z</time></trkpt><trkpt lat="38.4941133" lon="16.2893383"><ele>978.0000000000001</ele><time>2026-03-29T08:45:42.591Z</time></trkpt><trkpt lat="38.49418" lon="16.2894367"><ele>976.0</ele><time>2026-03-29T08:45:43.591Z</time></trkpt><trkpt lat="38.4942383" lon="16.289535"><ele>974.0</ele><time>2026-03-29T08:45:44.591Z</time></trkpt><trkpt lat="38.4942933" lon="16.2896283"><ele>974.0000000000001</ele><time>2026-03-29T08:45:45.591Z</time></trkpt><trkpt lat="38.494345" lon="16.289715"><ele>974.0</ele><time>2026-03-29T08:45:46.591Z</time></trkpt><trkpt lat="38.4943883" lon="16.2898033"><ele>974.0</ele><time>2026-03-29T08:45:47.591Z</time></trkpt><trkpt lat="38.4944317" lon="16.2899017"><ele>974.0</ele><time>2026-03-29T08:45:48.591Z</time></trkpt><trkpt lat="38.49448" lon="16.28999"><ele>974.0000000000001</ele><time>2026-03-29T08:45:49.591Z</time></trkpt><trkpt lat="38.4945283" lon="16.290075"><ele>974.0</ele><time>2026-03-29T08:45:50.591Z</time></trkpt><trkpt lat="38.49456" lon="16.29016"><ele>972.8000000000001</ele><time>2026-03-29T08:45:51.591Z</time></trkpt><trkpt lat="38.49459" lon="16.2902567"><ele>971.6000000000001</ele><time>2026-03-29T08:45:52.591Z</time></trkpt><trkpt lat="38.494615" lon="16.2904133"><ele>970.4</ele><time>2026-03-29T08:45:53.592Z</time></trkpt><trkpt lat="38.4946433" lon="16.29052"><ele>969.2</ele><time>2026-03-29T08:45:54.591Z</time></trkpt><trkpt lat="38.4946767" lon="16.2906167"><ele>968.0</ele><time>2026-03-29T08:45:55.591Z</time></trkpt><trkpt lat="38.4947167" lon="16.2907183"><ele>967.0</ele><time>2026-03-29T08:45:56.591Z</time></trkpt><trkpt lat="38.4947667" lon="16.2908183"><ele>966.0</ele><time>2026-03-29T08:45:57.591Z</time></trkpt><trkpt lat="38.4948033" lon="16.2909317"><ele>965.0</ele><time>2026-03-29T08:45:58.591Z</time></trkpt><trkpt lat="38.49483" lon="16.291045"><ele>964.0</ele><time>2026-03-29T08:45:59.591Z</time></trkpt><trkpt lat="38.494865" lon="16.2911467"><ele>963.0</ele><time>2026-03-29T08:46:00.591Z</time></trkpt><trkpt lat="38.4949067" lon="16.2912567"><ele>963.0</ele><time>2026-03-29T08:46:01.591Z</time></trkpt><trkpt lat="38.4949567" lon="16.291375"><ele>963.0</ele><time>2026-03-29T08:46:02.591Z</time></trkpt><trkpt lat="38.49502" lon="16.2914767"><ele>963.0</ele><time>2026-03-29T08:46:03.591Z</time></trkpt><trkpt lat="38.4950917" lon="16.2915783"><ele>963.0</ele><time>2026-03-29T08:46:04.591Z</time></trkpt><trkpt lat="38.49515" lon="16.2916817"><ele>963.0</ele><time>2026-03-29T08:46:05.591Z</time></trkpt><trkpt lat="38.495195" lon="16.29179"><ele>962.3333333333334</ele><time>2026-03-29T08:46:06.591Z</time></trkpt><trkpt lat="38.49523" lon="16.2918833"><ele>961.6666666666667</ele><time>2026-03-29T08:46:07.591Z</time></trkpt><trkpt lat="38.4952683" lon="16.2919567"><ele>961.0</ele><time>2026-03-29T08:46:08.591Z</time></trkpt><trkpt lat="38.4953067" lon="16.2920333"><ele>960.3333333333334</ele><time>2026-03-29T08:46:09.591Z</time></trkpt><trkpt lat="38.495355" lon="16.29212"><ele>959.6666666666667</ele><time>2026-03-29T08:46:10.591Z</time></trkpt><trkpt lat="38.4954217" lon="16.2922217"><ele>959.0</ele><time>2026-03-29T08:46:11.591Z</time></trkpt><trkpt lat="38.4954933" lon="16.2923417"><ele>959.0</ele><time>2026-03-29T08:46:12.591Z</time></trkpt><trkpt lat="38.49557" lon="16.2924617"><ele>959.0000000000001</ele><time>2026-03-29T08:46:13.591Z</time></trkpt><trkpt lat="38.49564" lon="16.2925533"><ele>959.0000000000001</ele><time>2026-03-29T08:46:14.591Z</time></trkpt><trkpt lat="38.4957" lon="16.2926267"><ele>959.0</ele><time>2026-03-29T08:46:15.591Z</time></trkpt><trkpt lat="38.495755" lon="16.2926867"><ele>959.0</ele><time>2026-03-29T08:46:16.591Z</time></trkpt><trkpt lat="38.4958383" lon="16.2927817"><ele>959.0</ele><time>2026-03-29T08:46:18.591Z</time></trkpt><trkpt lat="38.4959133" lon="16.2928483"><ele>959.0000000000001</ele><time>2026-03-29T08:46:20.591Z</time></trkpt><trkpt lat="38.4960083" lon="16.2929167"><ele>959.0000000000001</ele><time>2026-03-29T08:46:22.591Z</time></trkpt><trkpt lat="38.4961117" lon="16.2930033"><ele>959.0</ele><time>2026-03-29T08:46:24.591Z</time></trkpt><trkpt lat="38.496165" lon="16.2930717"><ele>959.0</ele><time>2026-03-29T08:46:25.591Z</time></trkpt><trkpt lat="38.496205" lon="16.2931667"><ele>960.5000000000001</ele><time>2026-03-29T08:46:26.591Z</time></trkpt><trkpt lat="38.4962267" lon="16.293265"><ele>962.0</ele><time>2026-03-29T08:46:27.591Z</time></trkpt><trkpt lat="38.4962433" lon="16.2933617"><ele>963.5</ele><time>2026-03-29T08:46:28.591Z</time></trkpt><trkpt lat="38.4962333" lon="16.2934883"><ele>965.0</ele><time>2026-03-29T08:46:30.591Z</time></trkpt><trkpt lat="38.4961467" lon="16.2935233"><ele>966.5000000000001</ele><time>2026-03-29T08:46:42.591Z</time></trkpt><trkpt lat="38.4960717" lon="16.2935883"><ele>968.0</ele><time>2026-03-29T08:46:44.591Z</time></trkpt><trkpt lat="38.49596" lon="16.2936617"><ele>968.0</ele><time>2026-03-29T08:46:46.591Z</time></trkpt><trkpt lat="38.4958867" lon="16.2937083"><ele>968.0</ele><time>2026-03-29T08:46:47.591Z</time></trkpt><trkpt lat="38.4958167" lon="16.2937667"><ele>968.0</ele><time>2026-03-29T08:46:48.591Z</time></trkpt><trkpt lat="38.4957367" lon="16.2938333"><ele>968.0</ele><time>2026-03-29T08:46:49.591Z</time></trkpt><trkpt lat="38.4956533" lon="16.2938983"><ele>968.0</ele><time>2026-03-29T08:46:50.591Z</time></trkpt><trkpt lat="38.4955717" lon="16.2939617"><ele>967.8</ele><time>2026-03-29T08:46:51.591Z</time></trkpt><trkpt lat="38.495485" lon="16.2940183"><ele>967.5999999999999</ele><time>2026-03-29T08:46:52.591Z</time></trkpt><trkpt lat="38.4953933" lon="16.2940783"><ele>967.4000000000001</ele><time>2026-03-29T08:46:53.591Z</time></trkpt><trkpt lat="38.4952917" lon="16.29415"><ele>967.2</ele><time>2026-03-29T08:46:54.591Z</time></trkpt><trkpt lat="38.4951967" lon="16.2942283"><ele>967.0</ele><time>2026-03-29T08:46:55.591Z</time></trkpt><trkpt lat="38.4951067" lon="16.2943017"><ele>967.0</ele><time>2026-03-29T08:46:56.591Z</time></trkpt><trkpt lat="38.4950083" lon="16.2943717"><ele>967.0</ele><time>2026-03-29T08:46:57.591Z</time></trkpt><trkpt lat="38.4949267" lon="16.2944317"><ele>967.0</ele><time>2026-03-29T08:46:58.591Z</time></trkpt><trkpt lat="38.49484" lon="16.2944817"><ele>967.0</ele><time>2026-03-29T08:46:59.591Z</time></trkpt><trkpt lat="38.4947717" lon="16.2945283"><ele>967.0</ele><time>2026-03-29T08:47:00.591Z</time></trkpt><trkpt lat="38.4947067" lon="16.2945683"><ele>966.9999999999999</ele><time>2026-03-29T08:47:01.591Z</time></trkpt><trkpt lat="38.494645" lon="16.2946033"><ele>967.0</ele><time>2026-03-29T08:47:02.591Z</time></trkpt><trkpt lat="38.494555" lon="16.2946517"><ele>967.0</ele><time>2026-03-29T08:47:04.591Z</time></trkpt><trkpt lat="38.49455" lon="16.29475"><ele>967.0</ele><time>2026-03-29T08:47:10.592Z</time></trkpt><trkpt lat="38.49463" lon="16.29478"><ele>966.9999999999999</ele><time>2026-03-29T08:47:12.591Z</time></trkpt><trkpt lat="38.494695" lon="16.294775"><ele>967.0</ele><time>2026-03-29T08:47:13.591Z</time></trkpt><trkpt lat="38.49478" lon="16.2947633"><ele>967.0</ele><time>2026-03-29T08:47:14.591Z</time></trkpt><trkpt lat="38.49488" lon="16.2947333"><ele>967.0</ele><time>2026-03-29T08:47:15.591Z</time></trkpt><trkpt lat="38.4950167" lon="16.294715"><ele>967.0</ele><time>2026-03-29T08:47:16.591Z</time></trkpt><trkpt lat="38.4951783" lon="16.2946967"><ele>967.0</ele><time>2026-03-29T08:47:17.591Z</time></trkpt><trkpt lat="38.495355" lon="16.29467"><ele>968.0</ele><time>2026-03-29T08:47:18.592Z</time></trkpt><trkpt lat="38.4955417" lon="16.294645"><ele>969.0</ele><time>2026-03-29T08:47:19.591Z</time></trkpt><trkpt lat="38.4957317" lon="16.2946333"><ele>970.0</ele><time>2026-03-29T08:47:20.591Z</time></trkpt><trkpt lat="38.4959217" lon="16.294605"><ele>970.0</ele><time>2026-03-29T08:47:21.591Z</time></trkpt><trkpt lat="38.49611" lon="16.2945867"><ele>970.0</ele><time>2026-03-29T08:47:22.592Z</time></trkpt><trkpt lat="38.4963117" lon="16.2945717"><ele>970.0</ele><time>2026-03-29T08:47:23.592Z</time></trkpt><trkpt lat="38.4965067" lon="16.2945433"><ele>970.6666666666666</ele><time>2026-03-29T08:47:24.592Z</time></trkpt><trkpt lat="38.4966783" lon="16.2945367"><ele>971.3333333333333</ele><time>2026-03-29T08:47:25.592Z</time></trkpt><trkpt lat="38.49684" lon="16.2945167"><ele>972.0</ele><time>2026-03-29T08:47:26.592Z</time></trkpt><trkpt lat="38.497005" lon="16.2944867"><ele>971.6666666666667</ele><time>2026-03-29T08:47:27.592Z</time></trkpt><trkpt lat="38.4971933" lon="16.2944517"><ele>971.3333333333334</ele><time>2026-03-29T08:47:28.592Z</time></trkpt><trkpt lat="38.4973517" lon="16.2944417"><ele>971.0</ele><time>2026-03-29T08:47:29.592Z</time></trkpt><trkpt lat="38.497495" lon="16.29445"><ele>971.0</ele><time>2026-03-29T08:47:30.592Z</time></trkpt><trkpt lat="38.4976333" lon="16.2944617"><ele>971.0</ele><time>2026-03-29T08:47:31.592Z</time></trkpt><trkpt lat="38.49777" lon="16.294455"><ele>971.0</ele><time>2026-03-29T08:47:32.592Z</time></trkpt><trkpt lat="38.4979067" lon="16.2944267"><ele>971.0</ele><time>2026-03-29T08:47:33.592Z</time></trkpt><trkpt lat="38.49804" lon="16.29441"><ele>971.8</ele><time>2026-03-29T08:47:34.592Z</time></trkpt><trkpt lat="38.4981617" lon="16.29441"><ele>972.5999999999999</ele><time>2026-03-29T08:47:35.592Z</time></trkpt><trkpt lat="38.4982633" lon="16.2944"><ele>973.4</ele><time>2026-03-29T08:47:36.592Z</time></trkpt><trkpt lat="38.4983483" lon="16.2943817"><ele>974.2</ele><time>2026-03-29T08:47:37.592Z</time></trkpt><trkpt lat="38.4984167" lon="16.2943733"><ele>975.0</ele><time>2026-03-29T08:47:38.592Z</time></trkpt><trkpt lat="38.4984883" lon="16.2943617"><ele>975.0</ele><time>2026-03-29T08:47:39.592Z</time></trkpt><trkpt lat="38.49858" lon="16.2943383"><ele>975.0</ele><time>2026-03-29T08:47:40.592Z</time></trkpt><trkpt lat="38.4987067" lon="16.2943033"><ele>975.0</ele><time>2026-03-29T08:47:41.592Z</time></trkpt><trkpt lat="38.49885" lon="16.2942417"><ele>975.0</ele><time>2026-03-29T08:47:42.592Z</time></trkpt><trkpt lat="38.4990267" lon="16.294155"><ele>976.0</ele><time>2026-03-29T08:47:43.592Z</time></trkpt><trkpt lat="38.4992017" lon="16.2940517"><ele>977.0</ele><time>2026-03-29T08:47:44.592Z</time></trkpt><trkpt lat="38.49934" lon="16.2939583"><ele>978.0</ele><time>2026-03-29T08:47:45.592Z</time></trkpt><trkpt lat="38.4994533" lon="16.2938817"><ele>978.0</ele><time>2026-03-29T08:47:46.592Z</time></trkpt><trkpt lat="38.49956" lon="16.2938433"><ele>978.0</ele><time>2026-03-29T08:47:47.592Z</time></trkpt><trkpt lat="38.499655" lon="16.29378"><ele>978.0</ele><time>2026-03-29T08:47:48.592Z</time></trkpt><trkpt lat="38.4997383" lon="16.2937233"><ele>978.0</ele><time>2026-03-29T08:47:49.592Z</time></trkpt><trkpt lat="38.4998133" lon="16.2936667"><ele>978.0</ele><time>2026-03-29T08:47:50.592Z</time></trkpt><trkpt lat="38.499885" lon="16.2936183"><ele>979.5999999999999</ele><time>2026-03-29T08:47:51.592Z</time></trkpt><trkpt lat="38.499955" lon="16.293575"><ele>981.1999999999999</ele><time>2026-03-29T08:47:52.592Z</time></trkpt><trkpt lat="38.5000317" lon="16.293535"><ele>982.8</ele><time>2026-03-29T08:47:53.592Z</time></trkpt><trkpt lat="38.5001033" lon="16.293495"><ele>984.4</ele><time>2026-03-29T08:47:54.592Z</time></trkpt><trkpt lat="38.5001983" lon="16.29347"><ele>986.0</ele><time>2026-03-29T08:47:55.592Z</time></trkpt><trkpt lat="38.5003067" lon="16.2934133"><ele>986.5</ele><time>2026-03-29T08:47:56.592Z</time></trkpt><trkpt lat="38.50042" lon="16.2933517"><ele>987.0</ele><time>2026-03-29T08:47:57.592Z</time></trkpt><trkpt lat="38.5005383" lon="16.2932917"><ele>987.5</ele><time>2026-03-29T08:47:58.592Z</time></trkpt><trkpt lat="38.5006583" lon="16.2932533"><ele>988.0</ele><time>2026-03-29T08:47:59.592Z</time></trkpt><trkpt lat="38.50077" lon="16.29322"><ele>988.0</ele><time>2026-03-29T08:48:00.592Z</time></trkpt><trkpt lat="38.5008733" lon="16.2931983"><ele>988.0</ele><time>2026-03-29T08:48:01.592Z</time></trkpt><trkpt lat="38.50099" lon="16.2931833"><ele>988.0</ele><time>2026-03-29T08:48:02.592Z</time></trkpt><trkpt lat="38.5011167" lon="16.2931817"><ele>988.0</ele><time>2026-03-29T08:48:03.592Z</time></trkpt><trkpt lat="38.5012567" lon="16.2931767"><ele>989.5</ele><time>2026-03-29T08:48:04.592Z</time></trkpt><trkpt lat="38.50139" lon="16.29316"><ele>991.0</ele><time>2026-03-29T08:48:05.592Z</time></trkpt><trkpt lat="38.5015267" lon="16.2931317"><ele>992.5</ele><time>2026-03-29T08:48:06.592Z</time></trkpt><trkpt lat="38.5016667" lon="16.2930883"><ele>994.0</ele><time>2026-03-29T08:48:07.592Z</time></trkpt><trkpt lat="38.5017983" lon="16.29304"><ele>997.0</ele><time>2026-03-29T08:48:08.592Z</time></trkpt><trkpt lat="38.50192" lon="16.2929867"><ele>1000.0</ele><time>2026-03-29T08:48:09.592Z</time></trkpt><trkpt lat="38.5020417" lon="16.2929233"><ele>1003.0</ele><time>2026-03-29T08:48:10.592Z</time></trkpt><trkpt lat="38.5021567" lon="16.2928433"><ele>1006.0</ele><time>2026-03-29T08:48:11.592Z</time></trkpt><trkpt lat="38.50227" lon="16.2927417"><ele>1006.0</ele><time>2026-03-29T08:48:12.592Z</time></trkpt><trkpt lat="38.50236" lon="16.2926017"><ele>1006.0</ele><time>2026-03-29T08:48:13.592Z</time></trkpt><trkpt lat="38.5024333" lon="16.2924417"><ele>1006.0</ele><time>2026-03-29T08:48:14.592Z</time></trkpt><trkpt lat="38.5025083" lon="16.29227"><ele>1006.0</ele><time>2026-03-29T08:48:15.593Z</time></trkpt><trkpt lat="38.5025683" lon="16.2921"><ele>1009.3333333333333</ele><time>2026-03-29T08:48:16.592Z</time></trkpt><trkpt lat="38.5026117" lon="16.2919167"><ele>1012.6666666666667</ele><time>2026-03-29T08:48:17.592Z</time></trkpt><trkpt lat="38.5026533" lon="16.29173"><ele>1016.0</ele><time>2026-03-29T08:48:18.592Z</time></trkpt><trkpt lat="38.50269" lon="16.2915067"><ele>1017.0</ele><time>2026-03-29T08:48:19.592Z</time></trkpt><trkpt lat="38.5027283" lon="16.2912883"><ele>1018.0</ele><time>2026-03-29T08:48:20.593Z</time></trkpt><trkpt lat="38.50276" lon="16.2910867"><ele>1019.0</ele><time>2026-03-29T08:48:21.592Z</time></trkpt><trkpt lat="38.50278" lon="16.29089"><ele>1019.0</ele><time>2026-03-29T08:48:22.592Z</time></trkpt><trkpt lat="38.5028017" lon="16.2907017"><ele>1019.0</ele><time>2026-03-29T08:48:23.592Z</time></trkpt><trkpt lat="38.5028267" lon="16.29053"><ele>1019.0</ele><time>2026-03-29T08:48:24.592Z</time></trkpt><trkpt lat="38.5028533" lon="16.29037"><ele>1019.0</ele><time>2026-03-29T08:48:25.592Z</time></trkpt><trkpt lat="38.5028883" lon="16.290195"><ele>1018.25</ele><time>2026-03-29T08:48:26.592Z</time></trkpt><trkpt lat="38.5029333" lon="16.2900183"><ele>1017.5</ele><time>2026-03-29T08:48:27.592Z</time></trkpt><trkpt lat="38.5029967" lon="16.289845"><ele>1016.75</ele><time>2026-03-29T08:48:28.592Z</time></trkpt><trkpt lat="38.5030583" lon="16.289695"><ele>1016.0</ele><time>2026-03-29T08:48:29.592Z</time></trkpt><trkpt lat="38.5031083" lon="16.2895717"><ele>1017.1999999999999</ele><time>2026-03-29T08:48:30.592Z</time></trkpt><trkpt lat="38.5031583" lon="16.28946"><ele>1018.3999999999999</ele><time>2026-03-29T08:48:31.592Z</time></trkpt><trkpt lat="38.503215" lon="16.2893767"><ele>1019.6</ele><time>2026-03-29T08:48:32.592Z</time></trkpt><trkpt lat="38.50329" lon="16.289305"><ele>1020.8</ele><time>2026-03-29T08:48:33.593Z</time></trkpt><trkpt lat="38.50338" lon="16.28923"><ele>1022.0</ele><time>2026-03-29T08:48:34.592Z</time></trkpt><trkpt lat="38.5035" lon="16.2891617"><ele>1022.0</ele><time>2026-03-29T08:48:35.592Z</time></trkpt><trkpt lat="38.503635" lon="16.2890983"><ele>1022.0</ele><time>2026-03-29T08:48:36.592Z</time></trkpt><trkpt lat="38.503785" lon="16.289035"><ele>1022.0</ele><time>2026-03-29T08:48:37.592Z</time></trkpt><trkpt lat="38.5039183" lon="16.288965"><ele>1022.0</ele><time>2026-03-29T08:48:38.592Z</time></trkpt><trkpt lat="38.504045" lon="16.2888817"><ele>1027.0</ele><time>2026-03-29T08:48:39.592Z</time></trkpt><trkpt lat="38.5041733" lon="16.2887317"><ele>1032.0</ele><time>2026-03-29T08:48:40.592Z</time></trkpt><trkpt lat="38.504285" lon="16.288575"><ele>1037.0</ele><time>2026-03-29T08:48:41.593Z</time></trkpt><trkpt lat="38.5044117" lon="16.2884233"><ele>1037.0</ele><time>2026-03-29T08:48:42.592Z</time></trkpt><trkpt lat="38.5045283" lon="16.2882833"><ele>1037.0</ele><time>2026-03-29T08:48:43.592Z</time></trkpt><trkpt lat="38.50462" lon="16.2881517"><ele>1037.0</ele><time>2026-03-29T08:48:44.592Z</time></trkpt><trkpt lat="38.50469" lon="16.2880317"><ele>1037.0</ele><time>2026-03-29T08:48:45.592Z</time></trkpt><trkpt lat="38.5047333" lon="16.2879133"><ele>1039.5</ele><time>2026-03-29T08:48:46.592Z</time></trkpt><trkpt lat="38.5047667" lon="16.28778"><ele>1042.0</ele><time>2026-03-29T08:48:47.592Z</time></trkpt><trkpt lat="38.50477" lon="16.2876117"><ele>1044.5</ele><time>2026-03-29T08:48:48.592Z</time></trkpt><trkpt lat="38.5047517" lon="16.2874267"><ele>1047.0</ele><time>2026-03-29T08:48:49.592Z</time></trkpt><trkpt lat="38.504725" lon="16.2872467"><ele>1048.6</ele><time>2026-03-29T08:48:50.592Z</time></trkpt><trkpt lat="38.5046933" lon="16.2870633"><ele>1050.2</ele><time>2026-03-29T08:48:51.592Z</time></trkpt><trkpt lat="38.504685" lon="16.28694"><ele>1051.8</ele><time>2026-03-29T08:48:52.592Z</time></trkpt><trkpt lat="38.5047017" lon="16.2868267"><ele>1053.4</ele><time>2026-03-29T08:48:53.592Z</time></trkpt><trkpt lat="38.5047367" lon="16.2866967"><ele>1055.0</ele><time>2026-03-29T08:48:54.592Z</time></trkpt><trkpt lat="38.5047867" lon="16.2865567"><ele>1054.6666666666667</ele><time>2026-03-29T08:48:55.592Z</time></trkpt><trkpt lat="38.5048633" lon="16.2864067"><ele>1054.3333333333333</ele><time>2026-03-29T08:48:56.592Z</time></trkpt><trkpt lat="38.5049683" lon="16.2862417"><ele>1054.0</ele><time>2026-03-29T08:48:57.592Z</time></trkpt><trkpt lat="38.5050867" lon="16.286085"><ele>1054.0</ele><time>2026-03-29T08:48:58.592Z</time></trkpt><trkpt lat="38.5052017" lon="16.2859567"><ele>1054.0</ele><time>2026-03-29T08:48:59.592Z</time></trkpt><trkpt lat="38.5053233" lon="16.2858117"><ele>1054.0</ele><time>2026-03-29T08:49:00.592Z</time></trkpt><trkpt lat="38.5054633" lon="16.2856633"><ele>1056.5</ele><time>2026-03-29T08:49:01.592Z</time></trkpt><trkpt lat="38.5056333" lon="16.2855133"><ele>1059.0</ele><time>2026-03-29T08:49:02.593Z</time></trkpt><trkpt lat="38.5058383" lon="16.2853467"><ele>1059.0</ele><time>2026-03-29T08:49:03.592Z</time></trkpt><trkpt lat="38.5060417" lon="16.2851867"><ele>1059.0</ele><time>2026-03-29T08:49:04.592Z</time></trkpt><trkpt lat="38.5062367" lon="16.285005"><ele>1061.0</ele><time>2026-03-29T08:49:05.592Z</time></trkpt><trkpt lat="38.506435" lon="16.284805"><ele>1063.0</ele><time>2026-03-29T08:49:06.592Z</time></trkpt><trkpt lat="38.50662" lon="16.2845833"><ele>1064.5</ele><time>2026-03-29T08:49:07.592Z</time></trkpt><trkpt lat="38.5068117" lon="16.2843667"><ele>1066.0</ele><time>2026-03-29T08:49:08.592Z</time></trkpt><trkpt lat="38.506975" lon="16.2841333"><ele>1067.0</ele><time>2026-03-29T08:49:09.592Z</time></trkpt><trkpt lat="38.50714" lon="16.2839317"><ele>1068.0</ele><time>2026-03-29T08:49:10.592Z</time></trkpt><trkpt lat="38.5072883" lon="16.28375"><ele>1069.0</ele><time>2026-03-29T08:49:11.592Z</time></trkpt><trkpt lat="38.5074333" lon="16.2835767"><ele>1070.6666666666665</ele><time>2026-03-29T08:49:12.592Z</time></trkpt><trkpt lat="38.5075683" lon="16.2834283"><ele>1072.3333333333333</ele><time>2026-03-29T08:49:13.592Z</time></trkpt><trkpt lat="38.507705" lon="16.2832867"><ele>1074.0</ele><time>2026-03-29T08:49:14.593Z</time></trkpt><trkpt lat="38.5078383" lon="16.2831683"><ele>1078.0</ele><time>2026-03-29T08:49:15.592Z</time></trkpt><trkpt lat="38.5079833" lon="16.2830483"><ele>1082.0</ele><time>2026-03-29T08:49:16.592Z</time></trkpt><trkpt lat="38.5081233" lon="16.2829383"><ele>1086.0</ele><time>2026-03-29T08:49:17.592Z</time></trkpt><trkpt lat="38.5082833" lon="16.282835"><ele>1086.0</ele><time>2026-03-29T08:49:18.592Z</time></trkpt><trkpt lat="38.5084267" lon="16.2827483"><ele>1086.0</ele><time>2026-03-29T08:49:19.592Z</time></trkpt><trkpt lat="38.5085667" lon="16.28268"><ele>1086.0</ele><time>2026-03-29T08:49:20.592Z</time></trkpt><trkpt lat="38.5086867" lon="16.2826333"><ele>1086.0</ele><time>2026-03-29T08:49:21.592Z</time></trkpt><trkpt lat="38.5087967" lon="16.282585"><ele>1086.75</ele><time>2026-03-29T08:49:22.592Z</time></trkpt><trkpt lat="38.5089167" lon="16.282525"><ele>1087.5</ele><time>2026-03-29T08:49:23.592Z</time></trkpt><trkpt lat="38.509045" lon="16.2824433"><ele>1088.25</ele><time>2026-03-29T08:49:24.592Z</time></trkpt><trkpt lat="38.5091767" lon="16.2823417"><ele>1089.0</ele><time>2026-03-29T08:49:25.592Z</time></trkpt><trkpt lat="38.509295" lon="16.282235"><ele>1089.6000000000001</ele><time>2026-03-29T08:49:26.592Z</time></trkpt><trkpt lat="38.5093867" lon="16.28214"><ele>1090.2</ele><time>2026-03-29T08:49:27.592Z</time></trkpt><trkpt lat="38.5094667" lon="16.2820567"><ele>1090.8000000000002</ele><time>2026-03-29T08:49:28.592Z</time></trkpt><trkpt lat="38.5095233" lon="16.282"><ele>1091.4</ele><time>2026-03-29T08:49:29.592Z</time></trkpt><trkpt lat="38.5095933" lon="16.2819133"><ele>1092.0</ele><time>2026-03-29T08:49:31.592Z</time></trkpt><trkpt lat="38.50965" lon="16.2818483"><ele>1091.0</ele><time>2026-03-29T08:49:34.592Z</time></trkpt><trkpt lat="38.5097267" lon="16.2818867"><ele>1090.0</ele><time>2026-03-29T08:49:51.592Z</time></trkpt><trkpt lat="38.5097667" lon="16.2819583"><ele>1089.0</ele><time>2026-03-29T08:49:53.592Z</time></trkpt><trkpt lat="38.5098217" lon="16.2820683"><ele>1088.0</ele><time>2026-03-29T08:49:55.592Z</time></trkpt><trkpt lat="38.5098583" lon="16.2821667"><ele>1087.0</ele><time>2026-03-29T08:49:56.592Z</time></trkpt><trkpt lat="38.5099" lon="16.28228"><ele>1086.0</ele><time>2026-03-29T08:49:57.592Z</time></trkpt><trkpt lat="38.50995" lon="16.2824367"><ele>1085.6666666666667</ele><time>2026-03-29T08:49:58.592Z</time></trkpt><trkpt lat="38.5100367" lon="16.2827033"><ele>1085.3333333333335</ele><time>2026-03-29T08:49:59.592Z</time></trkpt><trkpt lat="38.510085" lon="16.2829033"><ele>1085.0</ele><time>2026-03-29T08:50:00.592Z</time></trkpt><trkpt lat="38.51016" lon="16.2831283"><ele>1084.6666666666667</ele><time>2026-03-29T08:50:01.592Z</time></trkpt><trkpt lat="38.5102233" lon="16.28336"><ele>1084.3333333333333</ele><time>2026-03-29T08:50:02.593Z</time></trkpt><trkpt lat="38.5102933" lon="16.28362"><ele>1084.0</ele><time>2026-03-29T08:50:03.592Z</time></trkpt><trkpt lat="38.510365" lon="16.283945"><ele>1084.0</ele><time>2026-03-29T08:50:04.592Z</time></trkpt><trkpt lat="38.510405" lon="16.284255"><ele>1084.0</ele><time>2026-03-29T08:50:05.592Z</time></trkpt><trkpt lat="38.51043" lon="16.284545"><ele>1080.0</ele><time>2026-03-29T08:50:06.592Z</time></trkpt><trkpt lat="38.5104217" lon="16.28486"><ele>1076.0</ele><time>2026-03-29T08:50:07.592Z</time></trkpt><trkpt lat="38.51045" lon="16.285135"><ele>1076.0</ele><time>2026-03-29T08:50:08.593Z</time></trkpt><trkpt lat="38.5104683" lon="16.2854"><ele>1076.0</ele><time>2026-03-29T08:50:09.592Z</time></trkpt><trkpt lat="38.5104883" lon="16.285645"><ele>1076.0</ele><time>2026-03-29T08:50:10.592Z</time></trkpt><trkpt lat="38.5104983" lon="16.2858817"><ele>1078.3333333333335</ele><time>2026-03-29T08:50:11.592Z</time></trkpt><trkpt lat="38.510495" lon="16.2861133"><ele>1080.6666666666667</ele><time>2026-03-29T08:50:12.592Z</time></trkpt><trkpt lat="38.51047" lon="16.2863317"><ele>1083.0</ele><time>2026-03-29T08:50:13.592Z</time></trkpt><trkpt lat="38.510445" lon="16.2865467"><ele>1085.6666666666667</ele><time>2026-03-29T08:50:14.593Z</time></trkpt><trkpt lat="38.5104167" lon="16.2867583"><ele>1088.3333333333335</ele><time>2026-03-29T08:50:15.592Z</time></trkpt><trkpt lat="38.51039" lon="16.2869633"><ele>1091.0</ele><time>2026-03-29T08:50:16.592Z</time></trkpt><trkpt lat="38.5103733" lon="16.2871533"><ele>1086.5</ele><time>2026-03-29T08:50:17.592Z</time></trkpt><trkpt lat="38.5103533" lon="16.2873333"><ele>1082.0</ele><time>2026-03-29T08:50:18.592Z</time></trkpt><trkpt lat="38.5103467" lon="16.2874917"><ele>1077.5</ele><time>2026-03-29T08:50:19.592Z</time></trkpt><trkpt lat="38.5103567" lon="16.2876183"><ele>1073.0</ele><time>2026-03-29T08:50:20.592Z</time></trkpt><trkpt lat="38.510395" lon="16.2877183"><ele>1077.5</ele><time>2026-03-29T08:50:21.593Z</time></trkpt><trkpt lat="38.510475" lon="16.2877867"><ele>1082.0</ele><time>2026-03-29T08:50:22.592Z</time></trkpt><trkpt lat="38.5105817" lon="16.2878367"><ele>1086.5</ele><time>2026-03-29T08:50:23.592Z</time></trkpt><trkpt lat="38.5106983" lon="16.2878783"><ele>1091.0</ele><time>2026-03-29T08:50:24.592Z</time></trkpt><trkpt lat="38.5108317" lon="16.28793"><ele>1091.0</ele><time>2026-03-29T08:50:25.592Z</time></trkpt><trkpt lat="38.51095" lon="16.2879933"><ele>1091.0</ele><time>2026-03-29T08:50:26.592Z</time></trkpt><trkpt lat="38.5110633" lon="16.288075"><ele>1091.0</ele><time>2026-03-29T08:50:27.592Z</time></trkpt><trkpt lat="38.511165" lon="16.2881867"><ele>1091.0</ele><time>2026-03-29T08:50:28.592Z</time></trkpt><trkpt lat="38.511265" lon="16.2883467"><ele>1083.3333333333335</ele><time>2026-03-29T08:50:29.592Z</time></trkpt><trkpt lat="38.5113533" lon="16.2885533"><ele>1075.6666666666667</ele><time>2026-03-29T08:50:30.592Z</time></trkpt><trkpt lat="38.5114517" lon="16.288765"><ele>1068.0</ele><time>2026-03-29T08:50:31.592Z</time></trkpt><trkpt lat="38.5115667" lon="16.289015"><ele>1068.0</ele><time>2026-03-29T08:50:32.592Z</time></trkpt><trkpt lat="38.5116917" lon="16.289255"><ele>1068.0</ele><time>2026-03-29T08:50:33.592Z</time></trkpt><trkpt lat="38.5118483" lon="16.2895417"><ele>1066.0</ele><time>2026-03-29T08:50:34.592Z</time></trkpt><trkpt lat="38.5119833" lon="16.2898083"><ele>1064.0</ele><time>2026-03-29T08:50:35.592Z</time></trkpt><trkpt lat="38.512105" lon="16.2900583"><ele>1064.0</ele><time>2026-03-29T08:50:36.592Z</time></trkpt><trkpt lat="38.5122183" lon="16.29029"><ele>1064.0</ele><time>2026-03-29T08:50:37.592Z</time></trkpt><trkpt lat="38.51231" lon="16.2905233"><ele>1064.0</ele><time>2026-03-29T08:50:38.592Z</time></trkpt><trkpt lat="38.5123983" lon="16.29076"><ele>1065.0</ele><time>2026-03-29T08:50:39.592Z</time></trkpt><trkpt lat="38.5124717" lon="16.2909783"><ele>1066.0</ele><time>2026-03-29T08:50:40.592Z</time></trkpt><trkpt lat="38.512535" lon="16.2911817"><ele>1067.0</ele><time>2026-03-29T08:50:41.592Z</time></trkpt><trkpt lat="38.5125833" lon="16.2913717"><ele>1065.3333333333335</ele><time>2026-03-29T08:50:42.592Z</time></trkpt><trkpt lat="38.51262" lon="16.2915933"><ele>1063.6666666666667</ele><time>2026-03-29T08:50:43.592Z</time></trkpt><trkpt lat="38.512635" lon="16.2918083"><ele>1062.0</ele><time>2026-03-29T08:50:44.592Z</time></trkpt><trkpt lat="38.51265" lon="16.2920183"><ele>1062.0</ele><time>2026-03-29T08:50:45.593Z</time></trkpt><trkpt lat="38.512645" lon="16.2922333"><ele>1062.0</ele><time>2026-03-29T08:50:46.592Z</time></trkpt><trkpt lat="38.5126417" lon="16.292465"><ele>1062.0</ele><time>2026-03-29T08:50:47.592Z</time></trkpt><trkpt lat="38.51266" lon="16.29271"><ele>1062.0</ele><time>2026-03-29T08:50:48.592Z</time></trkpt><trkpt lat="38.512675" lon="16.2929383"><ele>1062.0</ele><time>2026-03-29T08:50:49.592Z</time></trkpt><trkpt lat="38.5126967" lon="16.2931617"><ele>1062.0</ele><time>2026-03-29T08:50:50.592Z</time></trkpt><trkpt lat="38.51271" lon="16.293355"><ele>1060.6</ele><time>2026-03-29T08:50:51.592Z</time></trkpt><trkpt lat="38.5127217" lon="16.29352"><ele>1059.2</ele><time>2026-03-29T08:50:52.592Z</time></trkpt><trkpt lat="38.5127317" lon="16.293665"><ele>1057.8</ele><time>2026-03-29T08:50:53.592Z</time></trkpt><trkpt lat="38.5127383" lon="16.2937783"><ele>1056.4</ele><time>2026-03-29T08:50:54.592Z</time></trkpt><trkpt lat="38.5127817" lon="16.293885"><ele>1055.0</ele><time>2026-03-29T08:50:56.592Z</time></trkpt><trkpt lat="38.512855" lon="16.2939667"><ele>1054.8</ele><time>2026-03-29T08:50:58.592Z</time></trkpt><trkpt lat="38.5129733" lon="16.293995"><ele>1054.6</ele><time>2026-03-29T08:51:00.592Z</time></trkpt><trkpt lat="38.5130517" lon="16.2939867"><ele>1054.4</ele><time>2026-03-29T08:51:01.592Z</time></trkpt><trkpt lat="38.5131283" lon="16.2939733"><ele>1054.2</ele><time>2026-03-29T08:51:02.592Z</time></trkpt><trkpt lat="38.5132533" lon="16.2939967"><ele>1054.0</ele><time>2026-03-29T08:51:04.592Z</time></trkpt><trkpt lat="38.5133333" lon="16.2940017"><ele>1054.0</ele><time>2026-03-29T08:51:05.592Z</time></trkpt><trkpt lat="38.5134467" lon="16.2939867"><ele>1054.0</ele><time>2026-03-29T08:51:06.592Z</time></trkpt><trkpt lat="38.5135633" lon="16.2939667"><ele>1054.0</ele><time>2026-03-29T08:51:07.592Z</time></trkpt><trkpt lat="38.51367" lon="16.293945"><ele>1054.0</ele><time>2026-03-29T08:51:08.592Z</time></trkpt><trkpt lat="38.5137933" lon="16.2939217"><ele>1054.25</ele><time>2026-03-29T08:51:09.592Z</time></trkpt><trkpt lat="38.5139317" lon="16.2939017"><ele>1054.5</ele><time>2026-03-29T08:51:10.592Z</time></trkpt><trkpt lat="38.5140717" lon="16.2938933"><ele>1054.75</ele><time>2026-03-29T08:51:11.592Z</time></trkpt><trkpt lat="38.5141833" lon="16.2939"><ele>1055.0</ele><time>2026-03-29T08:51:12.592Z</time></trkpt><trkpt lat="38.5143067" lon="16.2939267"><ele>1052.6</ele><time>2026-03-29T08:51:13.592Z</time></trkpt><trkpt lat="38.5143683" lon="16.2939883"><ele>1050.2</ele><time>2026-03-29T08:51:14.592Z</time></trkpt><trkpt lat="38.514415" lon="16.29407"><ele>1047.8</ele><time>2026-03-29T08:51:15.592Z</time></trkpt><trkpt lat="38.5144683" lon="16.29419"><ele>1045.4</ele><time>2026-03-29T08:51:16.592Z</time></trkpt><trkpt lat="38.5145283" lon="16.2943083"><ele>1043.0</ele><time>2026-03-29T08:51:17.592Z</time></trkpt><trkpt lat="38.514615" lon="16.29442"><ele>1040.5</ele><time>2026-03-29T08:51:18.592Z</time></trkpt><trkpt lat="38.5147133" lon="16.29455"><ele>1038.0</ele><time>2026-03-29T08:51:19.592Z</time></trkpt><trkpt lat="38.5148017" lon="16.294645"><ele>1035.5</ele><time>2026-03-29T08:51:20.592Z</time></trkpt><trkpt lat="38.514885" lon="16.29474"><ele>1033.0</ele><time>2026-03-29T08:51:21.592Z</time></trkpt><trkpt lat="38.51497" lon="16.2948517"><ele>1031.3333333333333</ele><time>2026-03-29T08:51:22.592Z</time></trkpt><trkpt lat="38.5150583" lon="16.2950017"><ele>1029.6666666666667</ele><time>2026-03-29T08:51:23.592Z</time></trkpt><trkpt lat="38.5151467" lon="16.2951833"><ele>1028.0</ele><time>2026-03-29T08:51:24.592Z</time></trkpt><trkpt lat="38.51524" lon="16.2953733"><ele>1028.0</ele><time>2026-03-29T08:51:25.592Z</time></trkpt><trkpt lat="38.5153067" lon="16.29557"><ele>1028.0</ele><time>2026-03-29T08:51:26.592Z</time></trkpt><trkpt lat="38.515375" lon="16.295765"><ele>1028.0</ele><time>2026-03-29T08:51:27.593Z</time></trkpt><trkpt lat="38.5154217" lon="16.2959517"><ele>1022.6666666666667</ele><time>2026-03-29T08:51:28.592Z</time></trkpt><trkpt lat="38.51547" lon="16.296125"><ele>1017.3333333333333</ele><time>2026-03-29T08:51:29.592Z</time></trkpt><trkpt lat="38.5155267" lon="16.2963867"><ele>1012.0</ele><time>2026-03-29T08:51:30.592Z</time></trkpt><trkpt lat="38.51564" lon="16.2965967"><ele>1010.6666666666666</ele><time>2026-03-29T08:51:31.592Z</time></trkpt><trkpt lat="38.515735" lon="16.2967967"><ele>1009.3333333333333</ele><time>2026-03-29T08:51:32.592Z</time></trkpt><trkpt lat="38.5158717" lon="16.2969917"><ele>1008.0</ele><time>2026-03-29T08:51:33.592Z</time></trkpt><trkpt lat="38.5159333" lon="16.297125"><ele>1004.6666666666667</ele><time>2026-03-29T08:51:34.592Z</time></trkpt><trkpt lat="38.516025" lon="16.2973033"><ele>1001.3333333333334</ele><time>2026-03-29T08:51:35.592Z</time></trkpt><trkpt lat="38.516085" lon="16.29747"><ele>998.0</ele><time>2026-03-29T08:51:36.592Z</time></trkpt><trkpt lat="38.51616" lon="16.2976867"><ele>998.0</ele><time>2026-03-29T08:51:37.592Z</time></trkpt><trkpt lat="38.516205" lon="16.2979067"><ele>998.0</ele><time>2026-03-29T08:51:38.592Z</time></trkpt><trkpt lat="38.5162433" lon="16.29812"><ele>998.0</ele><time>2026-03-29T08:51:39.592Z</time></trkpt><trkpt lat="38.5162783" lon="16.298355"><ele>995.0</ele><time>2026-03-29T08:51:40.592Z</time></trkpt><trkpt lat="38.516295" lon="16.2986083"><ele>992.0</ele><time>2026-03-29T08:51:41.592Z</time></trkpt><trkpt lat="38.5163233" lon="16.29885"><ele>989.0</ele><time>2026-03-29T08:51:42.592Z</time></trkpt><trkpt lat="38.5163433" lon="16.29906"><ele>987.75</ele><time>2026-03-29T08:51:43.592Z</time></trkpt><trkpt lat="38.51635" lon="16.29926"><ele>986.5</ele><time>2026-03-29T08:51:44.592Z</time></trkpt><trkpt lat="38.5163733" lon="16.2994367"><ele>985.25</ele><time>2026-03-29T08:51:45.592Z</time></trkpt><trkpt lat="38.5164033" lon="16.2995933"><ele>984.0</ele><time>2026-03-29T08:51:46.592Z</time></trkpt><trkpt lat="38.5164567" lon="16.2997517"><ele>981.3333333333333</ele><time>2026-03-29T08:51:47.592Z</time></trkpt><trkpt lat="38.5165217" lon="16.2999383"><ele>978.6666666666666</ele><time>2026-03-29T08:51:48.592Z</time></trkpt><trkpt lat="38.5166283" lon="16.300215"><ele>976.0</ele><time>2026-03-29T08:51:49.592Z</time></trkpt><trkpt lat="38.5167367" lon="16.3004633"><ele>974.6666666666666</ele><time>2026-03-29T08:51:50.592Z</time></trkpt><trkpt lat="38.5168433" lon="16.3007217"><ele>973.3333333333333</ele><time>2026-03-29T08:51:51.592Z</time></trkpt><trkpt lat="38.5169467" lon="16.3009483"><ele>972.0</ele><time>2026-03-29T08:51:52.592Z</time></trkpt><trkpt lat="38.5170217" lon="16.3011383"><ele>971.75</ele><time>2026-03-29T08:51:53.592Z</time></trkpt><trkpt lat="38.5170817" lon="16.301295"><ele>971.5</ele><time>2026-03-29T08:51:54.592Z</time></trkpt><trkpt lat="38.517115" lon="16.301435"><ele>971.25</ele><time>2026-03-29T08:51:55.592Z</time></trkpt><trkpt lat="38.51713" lon="16.30161"><ele>971.0</ele><time>2026-03-29T08:51:56.592Z</time></trkpt><trkpt lat="38.51713" lon="16.30178"><ele>971.0</ele><time>2026-03-29T08:51:57.592Z</time></trkpt><trkpt lat="38.5170883" lon="16.3019733"><ele>971.0</ele><time>2026-03-29T08:51:58.592Z</time></trkpt><trkpt lat="38.51703" lon="16.3021617"><ele>971.0</ele><time>2026-03-29T08:51:59.592Z</time></trkpt><trkpt lat="38.516965" lon="16.302405"><ele>970.6666666666667</ele><time>2026-03-29T08:52:00.592Z</time></trkpt><trkpt lat="38.5169117" lon="16.3026433"><ele>970.3333333333333</ele><time>2026-03-29T08:52:01.592Z</time></trkpt><trkpt lat="38.5168817" lon="16.30286"><ele>970.0</ele><time>2026-03-29T08:52:02.592Z</time></trkpt><trkpt lat="38.5168467" lon="16.3030833"><ele>969.25</ele><time>2026-03-29T08:52:03.592Z</time></trkpt><trkpt lat="38.5168167" lon="16.3032867"><ele>968.5</ele><time>2026-03-29T08:52:04.592Z</time></trkpt><trkpt lat="38.5168067" lon="16.303455"><ele>967.75</ele><time>2026-03-29T08:52:05.592Z</time></trkpt><trkpt lat="38.5167933" lon="16.3036417"><ele>967.0</ele><time>2026-03-29T08:52:06.592Z</time></trkpt><trkpt lat="38.5167683" lon="16.3038283"><ele>965.6666666666666</ele><time>2026-03-29T08:52:07.592Z</time></trkpt><trkpt lat="38.5167317" lon="16.30402"><ele>964.3333333333333</ele><time>2026-03-29T08:52:08.592Z</time></trkpt><trkpt lat="38.5166633" lon="16.304225"><ele>963.0</ele><time>2026-03-29T08:52:09.592Z</time></trkpt><trkpt lat="38.51654" lon="16.3044667"><ele>963.0</ele><time>2026-03-29T08:52:10.592Z</time></trkpt><trkpt lat="38.5164233" lon="16.3047"><ele>963.0</ele><time>2026-03-29T08:52:11.593Z</time></trkpt><trkpt lat="38.5163033" lon="16.3049717"><ele>958.5</ele><time>2026-03-29T08:52:12.592Z</time></trkpt><trkpt lat="38.5162" lon="16.30522"><ele>954.0</ele><time>2026-03-29T08:52:13.592Z</time></trkpt><trkpt lat="38.5160533" lon="16.3055683"><ele>952.5</ele><time>2026-03-29T08:52:14.592Z</time></trkpt><trkpt lat="38.51589" lon="16.3058933"><ele>951.0</ele><time>2026-03-29T08:52:15.592Z</time></trkpt><trkpt lat="38.5157533" lon="16.30618"><ele>950.0</ele><time>2026-03-29T08:52:16.592Z</time></trkpt><trkpt lat="38.5156017" lon="16.3064717"><ele>949.0</ele><time>2026-03-29T08:52:17.592Z</time></trkpt><trkpt lat="38.5154767" lon="16.3067417"><ele>946.5</ele><time>2026-03-29T08:52:18.592Z</time></trkpt><trkpt lat="38.5153483" lon="16.3069967"><ele>944.0</ele><time>2026-03-29T08:52:19.592Z</time></trkpt><trkpt lat="38.515245" lon="16.30725"><ele>942.6666666666667</ele><time>2026-03-29T08:52:20.593Z</time></trkpt><trkpt lat="38.5151383" lon="16.30746"><ele>941.3333333333333</ele><time>2026-03-29T08:52:21.592Z</time></trkpt><trkpt lat="38.5150533" lon="16.3076533"><ele>940.0</ele><time>2026-03-29T08:52:22.592Z</time></trkpt><trkpt lat="38.514975" lon="16.3078033"><ele>940.0</ele><time>2026-03-29T08:52:23.592Z</time></trkpt><trkpt lat="38.5148833" lon="16.3079567"><ele>940.0</ele><time>2026-03-29T08:52:24.592Z</time></trkpt><trkpt lat="38.5147917" lon="16.3080817"><ele>940.0</ele><time>2026-03-29T08:52:25.592Z</time></trkpt><trkpt lat="38.5146983" lon="16.3081883"><ele>940.0</ele><time>2026-03-29T08:52:26.592Z</time></trkpt><trkpt lat="38.514575" lon="16.308235"><ele>939.9999999999999</ele><time>2026-03-29T08:52:27.592Z</time></trkpt><trkpt lat="38.5145017" lon="16.3083233"><ele>940.0</ele><time>2026-03-29T08:52:28.592Z</time></trkpt><trkpt lat="38.5144483" lon="16.3084117"><ele>940.0</ele><time>2026-03-29T08:52:29.592Z</time></trkpt><trkpt lat="38.5144117" lon="16.308515"><ele>940.0</ele><time>2026-03-29T08:52:30.593Z</time></trkpt><trkpt lat="38.51437" lon="16.30861"><ele>939.9999999999999</ele><time>2026-03-29T08:52:31.592Z</time></trkpt><trkpt lat="38.5143417" lon="16.3087067"><ele>940.0</ele><time>2026-03-29T08:52:32.592Z</time></trkpt><trkpt lat="38.5143217" lon="16.3088183"><ele>939.6</ele><time>2026-03-29T08:52:33.592Z</time></trkpt><trkpt lat="38.5143183" lon="16.3089467"><ele>939.2</ele><time>2026-03-29T08:52:34.592Z</time></trkpt><trkpt lat="38.5143283" lon="16.3090883"><ele>938.8</ele><time>2026-03-29T08:52:35.592Z</time></trkpt><trkpt lat="38.5143383" lon="16.3092467"><ele>938.4</ele><time>2026-03-29T08:52:36.592Z</time></trkpt><trkpt lat="38.5143417" lon="16.3093883"><ele>938.0</ele><time>2026-03-29T08:52:37.592Z</time></trkpt><trkpt lat="38.51435" lon="16.309545"><ele>938.0</ele><time>2026-03-29T08:52:38.592Z</time></trkpt><trkpt lat="38.514385" lon="16.30972"><ele>938.0</ele><time>2026-03-29T08:52:39.592Z</time></trkpt><trkpt lat="38.5144483" lon="16.3099133"><ele>938.0</ele><time>2026-03-29T08:52:40.592Z</time></trkpt><trkpt lat="38.5145667" lon="16.3101583"><ele>935.0</ele><time>2026-03-29T08:52:41.592Z</time></trkpt><trkpt lat="38.5146667" lon="16.3103717"><ele>932.0</ele><time>2026-03-29T08:52:42.592Z</time></trkpt><trkpt lat="38.5148317" lon="16.31064"><ele>932.0</ele><time>2026-03-29T08:52:43.592Z</time></trkpt><trkpt lat="38.5149967" lon="16.3109067"><ele>932.0</ele><time>2026-03-29T08:52:44.592Z</time></trkpt><trkpt lat="38.51513" lon="16.311135"><ele>932.0</ele><time>2026-03-29T08:52:45.592Z</time></trkpt><trkpt lat="38.5152867" lon="16.3113683"><ele>932.0</ele><time>2026-03-29T08:52:46.593Z</time></trkpt><trkpt lat="38.515415" lon="16.3115817"><ele>929.6666666666667</ele><time>2026-03-29T08:52:47.592Z</time></trkpt><trkpt lat="38.515495" lon="16.3117733"><ele>927.3333333333333</ele><time>2026-03-29T08:52:48.592Z</time></trkpt><trkpt lat="38.515545" lon="16.3119533"><ele>925.0</ele><time>2026-03-29T08:52:49.592Z</time></trkpt><trkpt lat="38.515575" lon="16.3121317"><ele>923.75</ele><time>2026-03-29T08:52:50.592Z</time></trkpt><trkpt lat="38.51558" lon="16.3123033"><ele>922.5</ele><time>2026-03-29T08:52:51.592Z</time></trkpt><trkpt lat="38.5155683" lon="16.3124633"><ele>921.25</ele><time>2026-03-29T08:52:52.592Z</time></trkpt><trkpt lat="38.515535" lon="16.312615"><ele>920.0</ele><time>2026-03-29T08:52:53.592Z</time></trkpt><trkpt lat="38.51549" lon="16.3127583"><ele>920.0</ele><time>2026-03-29T08:52:54.592Z</time></trkpt><trkpt lat="38.5154333" lon="16.312905"><ele>920.0</ele><time>2026-03-29T08:52:55.592Z</time></trkpt><trkpt lat="38.51535" lon="16.3130183"><ele>920.0</ele><time>2026-03-29T08:52:56.592Z</time></trkpt><trkpt lat="38.5152283" lon="16.313115"><ele>920.0</ele><time>2026-03-29T08:52:57.592Z</time></trkpt><trkpt lat="38.5150967" lon="16.313175"><ele>919.6</ele><time>2026-03-29T08:52:58.592Z</time></trkpt><trkpt lat="38.514985" lon="16.3132283"><ele>919.2</ele><time>2026-03-29T08:52:59.593Z</time></trkpt><trkpt lat="38.5148783" lon="16.3132733"><ele>918.8</ele><time>2026-03-29T08:53:00.592Z</time></trkpt><trkpt lat="38.5147817" lon="16.31332"><ele>918.4</ele><time>2026-03-29T08:53:01.592Z</time></trkpt><trkpt lat="38.5146833" lon="16.313365"><ele>918.0</ele><time>2026-03-29T08:53:02.592Z</time></trkpt><trkpt lat="38.5146083" lon="16.313425"><ele>918.2</ele><time>2026-03-29T08:53:03.592Z</time></trkpt><trkpt lat="38.514565" lon="16.3135083"><ele>918.4</ele><time>2026-03-29T08:53:04.592Z</time></trkpt><trkpt lat="38.5145483" lon="16.3136083"><ele>918.6000000000001</ele><time>2026-03-29T08:53:05.592Z</time></trkpt><trkpt lat="38.5145533" lon="16.313745"><ele>918.8000000000001</ele><time>2026-03-29T08:53:06.593Z</time></trkpt><trkpt lat="38.5145567" lon="16.3138883"><ele>919.0</ele><time>2026-03-29T08:53:07.592Z</time></trkpt><trkpt lat="38.51456" lon="16.3140367"><ele>919.0</ele><time>2026-03-29T08:53:08.592Z</time></trkpt><trkpt lat="38.5145467" lon="16.31416"><ele>919.0000000000001</ele><time>2026-03-29T08:53:09.592Z</time></trkpt><trkpt lat="38.51454" lon="16.3142717"><ele>919.0000000000001</ele><time>2026-03-29T08:53:10.592Z</time></trkpt><trkpt lat="38.51451" lon="16.3143717"><ele>919.0</ele><time>2026-03-29T08:53:11.592Z</time></trkpt><trkpt lat="38.5144767" lon="16.31445"><ele>919.0</ele><time>2026-03-29T08:53:12.592Z</time></trkpt><trkpt lat="38.5145117" lon="16.3146067"><ele>919.0</ele><time>2026-03-29T08:53:14.592Z</time></trkpt><trkpt lat="38.51457" lon="16.3146783"><ele>919.0000000000001</ele><time>2026-03-29T08:53:15.592Z</time></trkpt><trkpt lat="38.5146467" lon="16.31475"><ele>919.0000000000001</ele><time>2026-03-29T08:53:16.592Z</time></trkpt><trkpt lat="38.514705" lon="16.3148167"><ele>919.0</ele><time>2026-03-29T08:53:17.592Z</time></trkpt><trkpt lat="38.5147717" lon="16.3149133"><ele>919.0</ele><time>2026-03-29T08:53:19.592Z</time></trkpt><trkpt lat="38.514805" lon="16.3150283"><ele>915.6666666666666</ele><time>2026-03-29T08:53:21.592Z</time></trkpt><trkpt lat="38.5147683" lon="16.3152183"><ele>912.3333333333333</ele><time>2026-03-29T08:53:23.592Z</time></trkpt><trkpt lat="38.5147133" lon="16.3153733"><ele>909.0</ele><time>2026-03-29T08:53:24.592Z</time></trkpt><trkpt lat="38.5146367" lon="16.315575"><ele>906.5</ele><time>2026-03-29T08:53:25.592Z</time></trkpt><trkpt lat="38.5145567" lon="16.3157733"><ele>904.0</ele><time>2026-03-29T08:53:26.592Z</time></trkpt><trkpt lat="38.514475" lon="16.315945"><ele>901.5</ele><time>2026-03-29T08:53:27.592Z</time></trkpt><trkpt lat="38.5144433" lon="16.316085"><ele>899.0</ele><time>2026-03-29T08:53:28.592Z</time></trkpt><trkpt lat="38.5144433" lon="16.3162083"><ele>899.0</ele><time>2026-03-29T08:53:29.592Z</time></trkpt><trkpt lat="38.5144783" lon="16.3163217"><ele>899.0000000000001</ele><time>2026-03-29T08:53:30.592Z</time></trkpt><trkpt lat="38.514525" lon="16.3164283"><ele>899.0000000000001</ele><time>2026-03-29T08:53:31.592Z</time></trkpt><trkpt lat="38.5146033" lon="16.316515"><ele>899.0</ele><time>2026-03-29T08:53:32.592Z</time></trkpt><trkpt lat="38.5147" lon="16.316605"><ele>899.0</ele><time>2026-03-29T08:53:33.592Z</time></trkpt><trkpt lat="38.5147983" lon="16.3167083"><ele>901.75</ele><time>2026-03-29T08:53:34.592Z</time></trkpt><trkpt lat="38.5149033" lon="16.3168133"><ele>904.5</ele><time>2026-03-29T08:53:35.592Z</time></trkpt><trkpt lat="38.5150017" lon="16.3169183"><ele>907.25</ele><time>2026-03-29T08:53:36.592Z</time></trkpt><trkpt lat="38.5150883" lon="16.3170317"><ele>910.0</ele><time>2026-03-29T08:53:37.592Z</time></trkpt><trkpt lat="38.5151683" lon="16.3171083"><ele>909.9999999999999</ele><time>2026-03-29T08:53:38.592Z</time></trkpt><trkpt lat="38.515245" lon="16.3171817"><ele>910.0</ele><time>2026-03-29T08:53:39.592Z</time></trkpt><trkpt lat="38.515315" lon="16.317255"><ele>910.0</ele><time>2026-03-29T08:53:40.592Z</time></trkpt><trkpt lat="38.5153867" lon="16.3173233"><ele>910.0</ele><time>2026-03-29T08:53:41.592Z</time></trkpt><trkpt lat="38.5154383" lon="16.3174"><ele>909.9999999999999</ele><time>2026-03-29T08:53:42.592Z</time></trkpt><trkpt lat="38.51549" lon="16.3174567"><ele>910.0</ele><time>2026-03-29T08:53:43.592Z</time></trkpt><trkpt lat="38.51555" lon="16.3175283"><ele>910.6666666666666</ele><time>2026-03-29T08:53:45.592Z</time></trkpt><trkpt lat="38.515585" lon="16.317605"><ele>911.3333333333333</ele><time>2026-03-29T08:53:58.593Z</time></trkpt><trkpt lat="38.5156283" lon="16.3176917"><ele>912.0</ele><time>2026-03-29T08:54:01.593Z</time></trkpt><trkpt lat="38.51563" lon="16.317605"><ele>912.6666666666667</ele><time>2026-03-29T08:54:07.593Z</time></trkpt><trkpt lat="38.515575" lon="16.3175433"><ele>913.3333333333334</ele><time>2026-03-29T08:54:10.593Z</time></trkpt><trkpt lat="38.5155283" lon="16.31745"><ele>914.0</ele><time>2026-03-29T08:54:13.593Z</time></trkpt><trkpt lat="38.5154683" lon="16.3173833"><ele>914.0</ele><time>2026-03-29T08:54:16.593Z</time></trkpt><trkpt lat="38.5154133" lon="16.3173433"><ele>914.0</ele><time>2026-03-29T08:54:18.593Z</time></trkpt><trkpt lat="38.5153533" lon="16.3172967"><ele>911.0</ele><time>2026-03-29T08:54:21.593Z</time></trkpt><trkpt lat="38.5153967" lon="16.3173917"><ele>911.0</ele><time>2026-03-29T08:54:27.593Z</time></trkpt><trkpt lat="38.5154517" lon="16.3174333"><ele>914.0</ele><time>2026-03-29T08:54:30.593Z</time></trkpt></trkseg><trkseg><trkpt lat="38.5154233" lon="16.3174467"><ele>914.0000000000001</ele><time>2026-03-29T09:05:10.594Z</time></trkpt><trkpt lat="38.5153967" lon="16.317525"><ele>914.0</ele><time>2026-03-29T09:10:53.594Z</time></trkpt><trkpt lat="38.5154667" lon="16.317485"><ele>914.0</ele><time>2026-03-29T09:26:09.594Z</time></trkpt><trkpt lat="38.5154617" lon="16.3173833"><ele>914.0</ele><time>2026-03-29T09:38:56.593Z</time></trkpt><trkpt lat="38.5154067" lon="16.3173033"><ele>914.0000000000001</ele><time>2026-03-29T09:38:58.593Z</time></trkpt><trkpt lat="38.5153183" lon="16.31721"><ele>914.0</ele><time>2026-03-29T09:39:00.593Z</time></trkpt><trkpt lat="38.5152583" lon="16.317145"><ele>913.2</ele><time>2026-03-29T09:39:01.593Z</time></trkpt><trkpt lat="38.5151917" lon="16.3170683"><ele>912.4000000000001</ele><time>2026-03-29T09:39:02.593Z</time></trkpt><trkpt lat="38.5151233" lon="16.3169967"><ele>911.6</ele><time>2026-03-29T09:39:03.594Z</time></trkpt><trkpt lat="38.5150533" lon="16.3169283"><ele>910.8</ele><time>2026-03-29T09:39:04.593Z</time></trkpt><trkpt lat="38.5149817" lon="16.3168517"><ele>910.0</ele><time>2026-03-29T09:39:05.594Z</time></trkpt><trkpt lat="38.5148983" lon="16.3167767"><ele>910.0</ele><time>2026-03-29T09:39:06.593Z</time></trkpt><trkpt lat="38.5148067" lon="16.3166867"><ele>910.0</ele><time>2026-03-29T09:39:07.593Z</time></trkpt><trkpt lat="38.5147217" lon="16.3165983"><ele>910.0</ele><time>2026-03-29T09:39:08.593Z</time></trkpt><trkpt lat="38.5145733" lon="16.3164517"><ele>910.0</ele><time>2026-03-29T09:39:10.593Z</time></trkpt><trkpt lat="38.5145117" lon="16.3163683"><ele>909.8333333333333</ele><time>2026-03-29T09:39:11.593Z</time></trkpt><trkpt lat="38.5144733" lon="16.316295"><ele>909.6666666666666</ele><time>2026-03-29T09:39:12.593Z</time></trkpt><trkpt lat="38.514445" lon="16.3161483"><ele>909.5</ele><time>2026-03-29T09:39:14.593Z</time></trkpt><trkpt lat="38.5144617" lon="16.3160633"><ele>909.3333333333333</ele><time>2026-03-29T09:39:15.593Z</time></trkpt><trkpt lat="38.51449" lon="16.3159633"><ele>909.1666666666666</ele><time>2026-03-29T09:39:16.593Z</time></trkpt><trkpt lat="38.5145317" lon="16.3158583"><ele>909.0</ele><time>2026-03-29T09:39:17.593Z</time></trkpt><trkpt lat="38.5145833" lon="16.315745"><ele>909.0</ele><time>2026-03-29T09:39:18.593Z</time></trkpt><trkpt lat="38.5146333" lon="16.31561"><ele>909.0</ele><time>2026-03-29T09:39:19.593Z</time></trkpt><trkpt lat="38.5146917" lon="16.315475"><ele>909.0</ele><time>2026-03-29T09:39:20.593Z</time></trkpt><trkpt lat="38.5147617" lon="16.3153283"><ele>909.0</ele><time>2026-03-29T09:39:21.593Z</time></trkpt><trkpt lat="38.51482" lon="16.3151917"><ele>908.3333333333334</ele><time>2026-03-29T09:39:22.593Z</time></trkpt><trkpt lat="38.5148433" lon="16.3150767"><ele>907.6666666666667</ele><time>2026-03-29T09:39:23.593Z</time></trkpt><trkpt lat="38.5148383" lon="16.31497"><ele>907.0</ele><time>2026-03-29T09:39:24.593Z</time></trkpt><trkpt lat="38.5148133" lon="16.3148717"><ele>906.3333333333334</ele><time>2026-03-29T09:39:25.593Z</time></trkpt><trkpt lat="38.5147583" lon="16.3147817"><ele>905.6666666666667</ele><time>2026-03-29T09:39:26.593Z</time></trkpt><trkpt lat="38.5146783" lon="16.3147033"><ele>905.0</ele><time>2026-03-29T09:39:27.593Z</time></trkpt><trkpt lat="38.5145917" lon="16.314645"><ele>907.8</ele><time>2026-03-29T09:39:28.593Z</time></trkpt><trkpt lat="38.5145183" lon="16.3145917"><ele>910.6</ele><time>2026-03-29T09:39:29.593Z</time></trkpt><trkpt lat="38.5144667" lon="16.3145417"><ele>913.4000000000001</ele><time>2026-03-29T09:39:30.593Z</time></trkpt><trkpt lat="38.51443" lon="16.3144533"><ele>916.2</ele><time>2026-03-29T09:39:32.593Z</time></trkpt><trkpt lat="38.5144517" lon="16.3143517"><ele>919.0</ele><time>2026-03-29T09:39:34.593Z</time></trkpt><trkpt lat="38.51449" lon="16.31418"><ele>919.0</ele><time>2026-03-29T09:39:36.593Z</time></trkpt><trkpt lat="38.5145083" lon="16.3140733"><ele>919.0000000000001</ele><time>2026-03-29T09:39:37.593Z</time></trkpt><trkpt lat="38.514515" lon="16.3139733"><ele>919.0000000000001</ele><time>2026-03-29T09:39:38.593Z</time></trkpt><trkpt lat="38.514515" lon="16.3138733"><ele>919.0</ele><time>2026-03-29T09:39:39.593Z</time></trkpt><trkpt lat="38.514505" lon="16.31363"><ele>919.0</ele><time>2026-03-29T09:39:41.593Z</time></trkpt><trkpt lat="38.5145017" lon="16.3135233"><ele>918.8000000000001</ele><time>2026-03-29T09:39:42.593Z</time></trkpt><trkpt lat="38.5145367" lon="16.313385"><ele>918.6000000000001</ele><time>2026-03-29T09:39:44.593Z</time></trkpt><trkpt lat="38.5146183" lon="16.31328"><ele>918.4</ele><time>2026-03-29T09:39:46.593Z</time></trkpt><trkpt lat="38.514685" lon="16.3132467"><ele>918.2</ele><time>2026-03-29T09:39:47.593Z</time></trkpt><trkpt lat="38.5147817" lon="16.3132067"><ele>918.0</ele><time>2026-03-29T09:39:48.593Z</time></trkpt><trkpt lat="38.514875" lon="16.3131483"><ele>918.0</ele><time>2026-03-29T09:39:49.593Z</time></trkpt><trkpt lat="38.5149767" lon="16.3130817"><ele>918.0</ele><time>2026-03-29T09:39:50.593Z</time></trkpt><trkpt lat="38.5150767" lon="16.3130133"><ele>918.0</ele><time>2026-03-29T09:39:51.593Z</time></trkpt><trkpt lat="38.51517" lon="16.312955"><ele>918.0</ele><time>2026-03-29T09:39:52.593Z</time></trkpt><trkpt lat="38.51524" lon="16.312885"><ele>918.0</ele><time>2026-03-29T09:39:53.593Z</time></trkpt><trkpt lat="38.5153167" lon="16.3127867"><ele>918.4</ele><time>2026-03-29T09:39:54.593Z</time></trkpt><trkpt lat="38.5153733" lon="16.31268"><ele>918.8</ele><time>2026-03-29T09:39:55.593Z</time></trkpt><trkpt lat="38.5154167" lon="16.3125567"><ele>919.2</ele><time>2026-03-29T09:39:56.594Z</time></trkpt><trkpt lat="38.5154467" lon="16.3124233"><ele>919.6</ele><time>2026-03-29T09:39:57.593Z</time></trkpt><trkpt lat="38.5154633" lon="16.3123067"><ele>920.0</ele><time>2026-03-29T09:39:58.593Z</time></trkpt><trkpt lat="38.515495" lon="16.3121783"><ele>921.0</ele><time>2026-03-29T09:39:59.593Z</time></trkpt><trkpt lat="38.5155117" lon="16.3120417"><ele>922.0</ele><time>2026-03-29T09:40:00.593Z</time></trkpt><trkpt lat="38.5155067" lon="16.311905"><ele>923.0</ele><time>2026-03-29T09:40:01.593Z</time></trkpt><trkpt lat="38.5154783" lon="16.3117717"><ele>924.0</ele><time>2026-03-29T09:40:02.594Z</time></trkpt><trkpt lat="38.515435" lon="16.3116317"><ele>925.0</ele><time>2026-03-29T09:40:03.594Z</time></trkpt><trkpt lat="38.5153883" lon="16.3114783"><ele>926.75</ele><time>2026-03-29T09:40:04.593Z</time></trkpt><trkpt lat="38.5153267" lon="16.3113183"><ele>928.5</ele><time>2026-03-29T09:40:05.593Z</time></trkpt><trkpt lat="38.515255" lon="16.3111517"><ele>930.25</ele><time>2026-03-29T09:40:06.593Z</time></trkpt><trkpt lat="38.5151733" lon="16.3109817"><ele>932.0</ele><time>2026-03-29T09:40:07.593Z</time></trkpt><trkpt lat="38.5150667" lon="16.3108083"><ele>932.0</ele><time>2026-03-29T09:40:08.593Z</time></trkpt><trkpt lat="38.5149667" lon="16.3106367"><ele>932.0</ele><time>2026-03-29T09:40:09.594Z</time></trkpt><trkpt lat="38.514875" lon="16.3104633"><ele>932.0</ele><time>2026-03-29T09:40:10.593Z</time></trkpt><trkpt lat="38.514785" lon="16.3103017"><ele>932.0</ele><time>2026-03-29T09:40:11.593Z</time></trkpt><trkpt lat="38.514695" lon="16.3101317"><ele>932.0</ele><time>2026-03-29T09:40:12.593Z</time></trkpt><trkpt lat="38.5146333" lon="16.30997"><ele>932.0</ele><time>2026-03-29T09:40:13.593Z</time></trkpt><trkpt lat="38.5146033" lon="16.3097867"><ele>932.0</ele><time>2026-03-29T09:40:14.593Z</time></trkpt><trkpt lat="38.51458" lon="16.3096033"><ele>934.0</ele><time>2026-03-29T09:40:15.593Z</time></trkpt><trkpt lat="38.51455" lon="16.30942"><ele>936.0</ele><time>2026-03-29T09:40:16.593Z</time></trkpt><trkpt lat="38.51452" lon="16.3092067"><ele>938.0</ele><time>2026-03-29T09:40:17.593Z</time></trkpt><trkpt lat="38.5145067" lon="16.3089617"><ele>938.5</ele><time>2026-03-29T09:40:18.593Z</time></trkpt><trkpt lat="38.5145067" lon="16.3088"><ele>939.0</ele><time>2026-03-29T09:40:19.593Z</time></trkpt><trkpt lat="38.5145017" lon="16.3086233"><ele>939.5</ele><time>2026-03-29T09:40:20.593Z</time></trkpt><trkpt lat="38.51451" lon="16.30849"><ele>940.0</ele><time>2026-03-29T09:40:21.593Z</time></trkpt><trkpt lat="38.5145417" lon="16.30834"><ele>940.0</ele><time>2026-03-29T09:40:22.593Z</time></trkpt><trkpt lat="38.5145917" lon="16.3082217"><ele>940.0</ele><time>2026-03-29T09:40:23.593Z</time></trkpt><trkpt lat="38.5146633" lon="16.3081017"><ele>940.0</ele><time>2026-03-29T09:40:24.593Z</time></trkpt><trkpt lat="38.5147567" lon="16.307965"><ele>940.0</ele><time>2026-03-29T09:40:25.593Z</time></trkpt><trkpt lat="38.5148667" lon="16.3078267"><ele>940.0</ele><time>2026-03-29T09:40:26.593Z</time></trkpt><trkpt lat="38.5149667" lon="16.3076817"><ele>940.0</ele><time>2026-03-29T09:40:27.593Z</time></trkpt><trkpt lat="38.515055" lon="16.30754"><ele>940.0</ele><time>2026-03-29T09:40:28.594Z</time></trkpt><trkpt lat="38.5151667" lon="16.3073117"><ele>942.0</ele><time>2026-03-29T09:40:29.593Z</time></trkpt><trkpt lat="38.5153483" lon="16.30693"><ele>944.0</ele><time>2026-03-29T09:40:30.593Z</time></trkpt><trkpt lat="38.515445" lon="16.30669"><ele>945.6666666666667</ele><time>2026-03-29T09:40:31.593Z</time></trkpt><trkpt lat="38.5155367" lon="16.3064433"><ele>947.3333333333333</ele><time>2026-03-29T09:40:32.593Z</time></trkpt><trkpt lat="38.5156417" lon="16.3061783"><ele>949.0</ele><time>2026-03-29T09:40:33.593Z</time></trkpt><trkpt lat="38.5157517" lon="16.3059167"><ele>950.0</ele><time>2026-03-29T09:40:34.593Z</time></trkpt><trkpt lat="38.5158833" lon="16.305595"><ele>951.0</ele><time>2026-03-29T09:40:35.593Z</time></trkpt><trkpt lat="38.51598" lon="16.3053283"><ele>952.5</ele><time>2026-03-29T09:40:36.593Z</time></trkpt><trkpt lat="38.5160983" lon="16.3050583"><ele>954.0</ele><time>2026-03-29T09:40:37.593Z</time></trkpt><trkpt lat="38.51621" lon="16.3048017"><ele>958.5</ele><time>2026-03-29T09:40:38.593Z</time></trkpt><trkpt lat="38.51634" lon="16.304525"><ele>963.0</ele><time>2026-03-29T09:40:39.593Z</time></trkpt><trkpt lat="38.5164667" lon="16.3042283"><ele>963.0</ele><time>2026-03-29T09:40:40.593Z</time></trkpt><trkpt lat="38.516595" lon="16.3039217"><ele>963.0</ele><time>2026-03-29T09:40:41.593Z</time></trkpt><trkpt lat="38.5167" lon="16.3036283"><ele>964.3333333333333</ele><time>2026-03-29T09:40:42.593Z</time></trkpt><trkpt lat="38.51677" lon="16.30337"><ele>965.6666666666666</ele><time>2026-03-29T09:40:43.593Z</time></trkpt><trkpt lat="38.5168283" lon="16.303135"><ele>967.0</ele><time>2026-03-29T09:40:44.593Z</time></trkpt><trkpt lat="38.5168267" lon="16.3029267"><ele>968.0</ele><time>2026-03-29T09:40:45.593Z</time></trkpt><trkpt lat="38.51686" lon="16.302705"><ele>969.0</ele><time>2026-03-29T09:40:46.593Z</time></trkpt><trkpt lat="38.5169167" lon="16.3024833"><ele>970.0</ele><time>2026-03-29T09:40:47.593Z</time></trkpt><trkpt lat="38.5169633" lon="16.3022917"><ele>970.25</ele><time>2026-03-29T09:40:48.593Z</time></trkpt><trkpt lat="38.51701" lon="16.3020933"><ele>970.5</ele><time>2026-03-29T09:40:49.593Z</time></trkpt><trkpt lat="38.5170583" lon="16.3019217"><ele>970.75</ele><time>2026-03-29T09:40:50.593Z</time></trkpt><trkpt lat="38.5170683" lon="16.3017483"><ele>971.0</ele><time>2026-03-29T09:40:51.593Z</time></trkpt><trkpt lat="38.517075" lon="16.3015783"><ele>971.0</ele><time>2026-03-29T09:40:52.593Z</time></trkpt><trkpt lat="38.5170533" lon="16.30142"><ele>971.0</ele><time>2026-03-29T09:40:53.593Z</time></trkpt><trkpt lat="38.5170233" lon="16.30124"><ele>971.0</ele><time>2026-03-29T09:40:54.593Z</time></trkpt><trkpt lat="38.5169917" lon="16.3010567"><ele>971.0</ele><time>2026-03-29T09:40:55.593Z</time></trkpt><trkpt lat="38.5169317" lon="16.300885"><ele>971.3333333333334</ele><time>2026-03-29T09:40:56.593Z</time></trkpt><trkpt lat="38.51685" lon="16.3007"><ele>971.6666666666667</ele><time>2026-03-29T09:40:57.593Z</time></trkpt><trkpt lat="38.516755" lon="16.3004983"><ele>972.0</ele><time>2026-03-29T09:40:58.593Z</time></trkpt><trkpt lat="38.5166533" lon="16.3003017"><ele>973.3333333333333</ele><time>2026-03-29T09:40:59.593Z</time></trkpt><trkpt lat="38.516565" lon="16.30009"><ele>974.6666666666666</ele><time>2026-03-29T09:41:00.593Z</time></trkpt><trkpt lat="38.51649" lon="16.29988"><ele>976.0</ele><time>2026-03-29T09:41:01.593Z</time></trkpt><trkpt lat="38.5164417" lon="16.29967"><ele>978.0</ele><time>2026-03-29T09:41:02.593Z</time></trkpt><trkpt lat="38.5164183" lon="16.2995183"><ele>980.0</ele><time>2026-03-29T09:41:03.593Z</time></trkpt><trkpt lat="38.5164117" lon="16.2993617"><ele>982.0</ele><time>2026-03-29T09:41:04.593Z</time></trkpt><trkpt lat="38.5164217" lon="16.2991983"><ele>984.0</ele><time>2026-03-29T09:41:05.593Z</time></trkpt><trkpt lat="38.516435" lon="16.2990383"><ele>985.25</ele><time>2026-03-29T09:41:06.593Z</time></trkpt><trkpt lat="38.5164533" lon="16.2988733"><ele>986.5</ele><time>2026-03-29T09:41:07.593Z</time></trkpt><trkpt lat="38.5164633" lon="16.2986983"><ele>987.75</ele><time>2026-03-29T09:41:08.593Z</time></trkpt><trkpt lat="38.516475" lon="16.298495"><ele>989.0</ele><time>2026-03-29T09:41:09.593Z</time></trkpt><trkpt lat="38.5164717" lon="16.2983117"><ele>989.0</ele><time>2026-03-29T09:41:10.593Z</time></trkpt><trkpt lat="38.5164533" lon="16.298115"><ele>989.0</ele><time>2026-03-29T09:41:11.593Z</time></trkpt><trkpt lat="38.5164217" lon="16.2979367"><ele>989.0</ele><time>2026-03-29T09:41:12.593Z</time></trkpt><trkpt lat="38.5163683" lon="16.297755"><ele>990.25</ele><time>2026-03-29T09:41:13.594Z</time></trkpt><trkpt lat="38.5163" lon="16.2975783"><ele>991.5</ele><time>2026-03-29T09:41:14.593Z</time></trkpt><trkpt lat="38.51624" lon="16.297405"><ele>992.75</ele><time>2026-03-29T09:41:15.593Z</time></trkpt><trkpt lat="38.51618" lon="16.2972383"><ele>994.0</ele><time>2026-03-29T09:41:16.593Z</time></trkpt><trkpt lat="38.516105" lon="16.29708"><ele>998.6666666666666</ele><time>2026-03-29T09:41:17.593Z</time></trkpt><trkpt lat="38.5160333" lon="16.2969317"><ele>1003.3333333333333</ele><time>2026-03-29T09:41:18.593Z</time></trkpt><trkpt lat="38.515955" lon="16.2967583"><ele>1008.0</ele><time>2026-03-29T09:41:19.593Z</time></trkpt><trkpt lat="38.5158617" lon="16.2965633"><ele>1009.3333333333333</ele><time>2026-03-29T09:41:20.593Z</time></trkpt><trkpt lat="38.515765" lon="16.296355"><ele>1010.6666666666666</ele><time>2026-03-29T09:41:21.593Z</time></trkpt><trkpt lat="38.5156817" lon="16.2961333"><ele>1012.0</ele><time>2026-03-29T09:41:22.593Z</time></trkpt><trkpt lat="38.5155983" lon="16.2959183"><ele>1012.0</ele><time>2026-03-29T09:41:23.593Z</time></trkpt><trkpt lat="38.515495" lon="16.2957083"><ele>1012.0</ele><time>2026-03-29T09:41:24.593Z</time></trkpt><trkpt lat="38.5154083" lon="16.2955067"><ele>1012.0</ele><time>2026-03-29T09:41:25.594Z</time></trkpt><trkpt lat="38.5153283" lon="16.2953317"><ele>1016.0</ele><time>2026-03-29T09:41:26.593Z</time></trkpt><trkpt lat="38.5152767" lon="16.2951967"><ele>1020.0</ele><time>2026-03-29T09:41:27.593Z</time></trkpt><trkpt lat="38.5151717" lon="16.2950533"><ele>1024.0</ele><time>2026-03-29T09:41:28.593Z</time></trkpt><trkpt lat="38.515065" lon="16.2949167"><ele>1028.0</ele><time>2026-03-29T09:41:29.593Z</time></trkpt><trkpt lat="38.514965" lon="16.2947833"><ele>1029.0</ele><time>2026-03-29T09:41:30.593Z</time></trkpt><trkpt lat="38.5148817" lon="16.29467"><ele>1030.0</ele><time>2026-03-29T09:41:31.593Z</time></trkpt><trkpt lat="38.51483" lon="16.29456"><ele>1031.0</ele><time>2026-03-29T09:41:32.593Z</time></trkpt><trkpt lat="38.5147833" lon="16.2944583"><ele>1032.0</ele><time>2026-03-29T09:41:33.593Z</time></trkpt><trkpt lat="38.5147467" lon="16.294355"><ele>1033.0</ele><time>2026-03-29T09:41:34.593Z</time></trkpt><trkpt lat="38.5147183" lon="16.2942467"><ele>1033.0</ele><time>2026-03-29T09:41:35.593Z</time></trkpt><trkpt lat="38.5147" lon="16.294095"><ele>1033.0</ele><time>2026-03-29T09:41:36.593Z</time></trkpt><trkpt lat="38.5146783" lon="16.2939667"><ele>1033.0</ele><time>2026-03-29T09:41:37.593Z</time></trkpt><trkpt lat="38.5146433" lon="16.29385"><ele>1033.0</ele><time>2026-03-29T09:41:38.593Z</time></trkpt><trkpt lat="38.514595" lon="16.2937383"><ele>1033.0</ele><time>2026-03-29T09:41:39.593Z</time></trkpt><trkpt lat="38.5145333" lon="16.2936583"><ele>1037.4</ele><time>2026-03-29T09:41:40.593Z</time></trkpt><trkpt lat="38.5144483" lon="16.2935883"><ele>1041.8</ele><time>2026-03-29T09:41:41.593Z</time></trkpt><trkpt lat="38.5143483" lon="16.29356"><ele>1046.2</ele><time>2026-03-29T09:41:42.593Z</time></trkpt><trkpt lat="38.5142533" lon="16.2935267"><ele>1050.6</ele><time>2026-03-29T09:41:43.593Z</time></trkpt><trkpt lat="38.514125" lon="16.293515"><ele>1055.0</ele><time>2026-03-29T09:41:44.593Z</time></trkpt><trkpt lat="38.513985" lon="16.2935033"><ele>1055.0</ele><time>2026-03-29T09:41:45.593Z</time></trkpt><trkpt lat="38.5138283" lon="16.29349"><ele>1055.0</ele><time>2026-03-29T09:41:46.593Z</time></trkpt><trkpt lat="38.5136683" lon="16.2934867"><ele>1055.0</ele><time>2026-03-29T09:41:47.593Z</time></trkpt><trkpt lat="38.5135083" lon="16.2935067"><ele>1057.2</ele><time>2026-03-29T09:41:48.593Z</time></trkpt><trkpt lat="38.51337" lon="16.2935133"><ele>1059.4</ele><time>2026-03-29T09:41:49.593Z</time></trkpt><trkpt lat="38.5132567" lon="16.2935133"><ele>1061.6</ele><time>2026-03-29T09:41:50.593Z</time></trkpt><trkpt lat="38.51316" lon="16.29353"><ele>1063.8</ele><time>2026-03-29T09:41:51.593Z</time></trkpt><trkpt lat="38.5130717" lon="16.2935317"><ele>1066.0</ele><time>2026-03-29T09:41:52.593Z</time></trkpt><trkpt lat="38.512985" lon="16.2935383"><ele>1063.8</ele><time>2026-03-29T09:41:53.593Z</time></trkpt><trkpt lat="38.5128767" lon="16.2935117"><ele>1061.6</ele><time>2026-03-29T09:41:54.593Z</time></trkpt><trkpt lat="38.5128" lon="16.2934583"><ele>1059.4</ele><time>2026-03-29T09:41:55.593Z</time></trkpt><trkpt lat="38.5127117" lon="16.293375"><ele>1057.2</ele><time>2026-03-29T09:41:56.593Z</time></trkpt><trkpt lat="38.5126367" lon="16.293265"><ele>1055.0</ele><time>2026-03-29T09:41:57.593Z</time></trkpt><trkpt lat="38.5125433" lon="16.2931133"><ele>1057.3333333333335</ele><time>2026-03-29T09:41:58.593Z</time></trkpt><trkpt lat="38.512465" lon="16.2930033"><ele>1059.6666666666667</ele><time>2026-03-29T09:41:59.593Z</time></trkpt><trkpt lat="38.5124017" lon="16.29283"><ele>1062.0</ele><time>2026-03-29T09:42:00.593Z</time></trkpt><trkpt lat="38.5124183" lon="16.29245"><ele>1062.0</ele><time>2026-03-29T09:42:01.593Z</time></trkpt><trkpt lat="38.5124233" lon="16.2921983"><ele>1062.0</ele><time>2026-03-29T09:42:02.593Z</time></trkpt><trkpt lat="38.5123883" lon="16.2918917"><ele>1062.0</ele><time>2026-03-29T09:42:03.593Z</time></trkpt><trkpt lat="38.5123567" lon="16.2914983"><ele>1064.5</ele><time>2026-03-29T09:42:04.593Z</time></trkpt><trkpt lat="38.512315" lon="16.291155"><ele>1067.0</ele><time>2026-03-29T09:42:05.593Z</time></trkpt><trkpt lat="38.51226" lon="16.2908333"><ele>1065.5</ele><time>2026-03-29T09:42:06.593Z</time></trkpt><trkpt lat="38.5121717" lon="16.29056"><ele>1064.0</ele><time>2026-03-29T09:42:07.593Z</time></trkpt><trkpt lat="38.5120683" lon="16.2903017"><ele>1063.0</ele><time>2026-03-29T09:42:08.593Z</time></trkpt><trkpt lat="38.51195" lon="16.290025"><ele>1062.0</ele><time>2026-03-29T09:42:09.593Z</time></trkpt><trkpt lat="38.51181" lon="16.28977"><ele>1065.0</ele><time>2026-03-29T09:42:10.593Z</time></trkpt><trkpt lat="38.5116633" lon="16.2895167"><ele>1068.0</ele><time>2026-03-29T09:42:11.593Z</time></trkpt><trkpt lat="38.5115267" lon="16.289255"><ele>1068.0</ele><time>2026-03-29T09:42:12.594Z</time></trkpt><trkpt lat="38.5114" lon="16.2890217"><ele>1068.0</ele><time>2026-03-29T09:42:13.593Z</time></trkpt><trkpt lat="38.5112867" lon="16.2888017"><ele>1068.0</ele><time>2026-03-29T09:42:14.593Z</time></trkpt><trkpt lat="38.511195" lon="16.2885983"><ele>1070.0</ele><time>2026-03-29T09:42:15.593Z</time></trkpt><trkpt lat="38.5110933" lon="16.288425"><ele>1072.0</ele><time>2026-03-29T09:42:16.593Z</time></trkpt><trkpt lat="38.5109833" lon="16.2882717"><ele>1074.0</ele><time>2026-03-29T09:42:17.593Z</time></trkpt><trkpt lat="38.510885" lon="16.2881367"><ele>1078.25</ele><time>2026-03-29T09:42:18.593Z</time></trkpt><trkpt lat="38.5107917" lon="16.287995"><ele>1082.5</ele><time>2026-03-29T09:42:19.593Z</time></trkpt><trkpt lat="38.510685" lon="16.2878933"><ele>1086.75</ele><time>2026-03-29T09:42:20.593Z</time></trkpt><trkpt lat="38.5105767" lon="16.2878183"><ele>1091.0</ele><time>2026-03-29T09:42:21.593Z</time></trkpt><trkpt lat="38.510495" lon="16.28775"><ele>1091.0</ele><time>2026-03-29T09:42:22.593Z</time></trkpt><trkpt lat="38.5104283" lon="16.2876717"><ele>1091.0</ele><time>2026-03-29T09:42:23.593Z</time></trkpt><trkpt lat="38.5103767" lon="16.2875783"><ele>1091.0</ele><time>2026-03-29T09:42:24.593Z</time></trkpt><trkpt lat="38.5103433" lon="16.2874733"><ele>1091.0</ele><time>2026-03-29T09:42:25.593Z</time></trkpt><trkpt lat="38.5103317" lon="16.2873717"><ele>1091.0</ele><time>2026-03-29T09:42:26.594Z</time></trkpt><trkpt lat="38.5103217" lon="16.2872367"><ele>1084.0</ele><time>2026-03-29T09:42:27.593Z</time></trkpt><trkpt lat="38.5103183" lon="16.287075"><ele>1077.0</ele><time>2026-03-29T09:42:28.593Z</time></trkpt><trkpt lat="38.51034" lon="16.2868767"><ele>1070.0</ele><time>2026-03-29T09:42:29.593Z</time></trkpt><trkpt lat="38.5103733" lon="16.28666"><ele>1070.0</ele><time>2026-03-29T09:42:30.593Z</time></trkpt><trkpt lat="38.5104067" lon="16.2864367"><ele>1070.0</ele><time>2026-03-29T09:42:31.593Z</time></trkpt><trkpt lat="38.51044" lon="16.2861983"><ele>1070.0</ele><time>2026-03-29T09:42:32.593Z</time></trkpt><trkpt lat="38.5104467" lon="16.2859517"><ele>1073.0</ele><time>2026-03-29T09:42:33.593Z</time></trkpt><trkpt lat="38.51045" lon="16.2856267"><ele>1076.0</ele><time>2026-03-29T09:42:34.593Z</time></trkpt><trkpt lat="38.5104367" lon="16.28532"><ele>1076.0</ele><time>2026-03-29T09:42:35.593Z</time></trkpt><trkpt lat="38.5104183" lon="16.284995"><ele>1076.0</ele><time>2026-03-29T09:42:36.593Z</time></trkpt><trkpt lat="38.5103917" lon="16.284705"><ele>1080.0</ele><time>2026-03-29T09:42:37.593Z</time></trkpt><trkpt lat="38.51036" lon="16.284415"><ele>1084.0</ele><time>2026-03-29T09:42:38.594Z</time></trkpt><trkpt lat="38.5103067" lon="16.2841067"><ele>1086.0</ele><time>2026-03-29T09:42:39.593Z</time></trkpt><trkpt lat="38.5102583" lon="16.28379"><ele>1088.0</ele><time>2026-03-29T09:42:40.593Z</time></trkpt><trkpt lat="38.5101983" lon="16.2834917"><ele>1088.0</ele><time>2026-03-29T09:42:41.593Z</time></trkpt><trkpt lat="38.5101317" lon="16.2832333"><ele>1088.0</ele><time>2026-03-29T09:42:42.593Z</time></trkpt><trkpt lat="38.51007" lon="16.282985"><ele>1088.0</ele><time>2026-03-29T09:42:43.593Z</time></trkpt><trkpt lat="38.5100267" lon="16.28276"><ele>1087.5</ele><time>2026-03-29T09:42:44.593Z</time></trkpt><trkpt lat="38.5099783" lon="16.2825583"><ele>1087.0</ele><time>2026-03-29T09:42:45.593Z</time></trkpt><trkpt lat="38.50994" lon="16.2823933"><ele>1086.5</ele><time>2026-03-29T09:42:46.593Z</time></trkpt><trkpt lat="38.5099133" lon="16.2822533"><ele>1086.0</ele><time>2026-03-29T09:42:47.593Z</time></trkpt><trkpt lat="38.5098833" lon="16.2821467"><ele>1086.0</ele><time>2026-03-29T09:42:48.593Z</time></trkpt><trkpt lat="38.5098617" lon="16.282055"><ele>1086.0</ele><time>2026-03-29T09:42:49.593Z</time></trkpt><trkpt lat="38.5098383" lon="16.2819667"><ele>1086.0</ele><time>2026-03-29T09:42:50.593Z</time></trkpt><trkpt lat="38.5098167" lon="16.281875"><ele>1086.0</ele><time>2026-03-29T09:42:51.593Z</time></trkpt><trkpt lat="38.509795" lon="16.281795"><ele>1086.0</ele><time>2026-03-29T09:42:52.593Z</time></trkpt><trkpt lat="38.5097367" lon="16.2817133"><ele>1086.0</ele><time>2026-03-29T09:42:54.593Z</time></trkpt><trkpt lat="38.509645" lon="16.281745"><ele>1086.0</ele><time>2026-03-29T09:43:18.593Z</time></trkpt><trkpt lat="38.5096033" lon="16.28182"><ele>1086.0</ele><time>2026-03-29T09:43:20.593Z</time></trkpt><trkpt lat="38.509525" lon="16.2819317"><ele>1086.0</ele><time>2026-03-29T09:43:22.593Z</time></trkpt><trkpt lat="38.5094717" lon="16.2819983"><ele>1086.0</ele><time>2026-03-29T09:43:23.593Z</time></trkpt><trkpt lat="38.509385" lon="16.2820867"><ele>1086.0</ele><time>2026-03-29T09:43:24.593Z</time></trkpt><trkpt lat="38.509285" lon="16.28218"><ele>1086.0</ele><time>2026-03-29T09:43:25.594Z</time></trkpt><trkpt lat="38.5091867" lon="16.2822567"><ele>1086.0</ele><time>2026-03-29T09:43:26.593Z</time></trkpt><trkpt lat="38.5090567" lon="16.282345"><ele>1086.0</ele><time>2026-03-29T09:43:27.593Z</time></trkpt><trkpt lat="38.5088983" lon="16.28243"><ele>1086.0</ele><time>2026-03-29T09:43:28.593Z</time></trkpt><trkpt lat="38.5087333" lon="16.2825167"><ele>1086.0</ele><time>2026-03-29T09:43:29.593Z</time></trkpt><trkpt lat="38.50855" lon="16.2826067"><ele>1086.0</ele><time>2026-03-29T09:43:30.593Z</time></trkpt><trkpt lat="38.5083333" lon="16.2827167"><ele>1086.0</ele><time>2026-03-29T09:43:31.593Z</time></trkpt><trkpt lat="38.508125" lon="16.2828467"><ele>1086.0</ele><time>2026-03-29T09:43:32.593Z</time></trkpt><trkpt lat="38.5079183" lon="16.282995"><ele>1086.0</ele><time>2026-03-29T09:43:33.593Z</time></trkpt><trkpt lat="38.507725" lon="16.28315"><ele>1080.0</ele><time>2026-03-29T09:43:34.593Z</time></trkpt><trkpt lat="38.5075383" lon="16.283315"><ele>1074.0</ele><time>2026-03-29T09:43:35.593Z</time></trkpt><trkpt lat="38.5073617" lon="16.283505"><ele>1074.0</ele><time>2026-03-29T09:43:36.593Z</time></trkpt><trkpt lat="38.5071883" lon="16.283715"><ele>1074.0</ele><time>2026-03-29T09:43:37.593Z</time></trkpt><trkpt lat="38.5070133" lon="16.28394"><ele>1070.0</ele><time>2026-03-29T09:43:38.593Z</time></trkpt><trkpt lat="38.5068467" lon="16.2841467"><ele>1066.0</ele><time>2026-03-29T09:43:39.593Z</time></trkpt><trkpt lat="38.5066833" lon="16.2843467"><ele>1066.0</ele><time>2026-03-29T09:43:40.593Z</time></trkpt><trkpt lat="38.506515" lon="16.2845367"><ele>1066.0</ele><time>2026-03-29T09:43:41.593Z</time></trkpt><trkpt lat="38.5063467" lon="16.2847233"><ele>1066.0</ele><time>2026-03-29T09:43:42.593Z</time></trkpt><trkpt lat="38.506175" lon="16.2849017"><ele>1063.6666666666665</ele><time>2026-03-29T09:43:43.593Z</time></trkpt><trkpt lat="38.5060133" lon="16.2850617"><ele>1061.3333333333333</ele><time>2026-03-29T09:43:44.593Z</time></trkpt><trkpt lat="38.5058467" lon="16.2852133"><ele>1059.0</ele><time>2026-03-29T09:43:45.593Z</time></trkpt><trkpt lat="38.50568" lon="16.2853633"><ele>1059.0</ele><time>2026-03-29T09:43:46.594Z</time></trkpt><trkpt lat="38.5055067" lon="16.285515"><ele>1059.0</ele><time>2026-03-29T09:43:47.594Z</time></trkpt><trkpt lat="38.5053417" lon="16.2856317"><ele>1059.0</ele><time>2026-03-29T09:43:48.593Z</time></trkpt><trkpt lat="38.505195" lon="16.285745"><ele>1057.75</ele><time>2026-03-29T09:43:49.593Z</time></trkpt><trkpt lat="38.5050917" lon="16.285845"><ele>1056.5</ele><time>2026-03-29T09:43:50.593Z</time></trkpt><trkpt lat="38.5049983" lon="16.285965"><ele>1055.25</ele><time>2026-03-29T09:43:51.593Z</time></trkpt><trkpt lat="38.5049283" lon="16.28608"><ele>1054.0</ele><time>2026-03-29T09:43:52.593Z</time></trkpt><trkpt lat="38.5048583" lon="16.286185"><ele>1054.0</ele><time>2026-03-29T09:43:53.593Z</time></trkpt><trkpt lat="38.5047867" lon="16.28631"><ele>1054.0</ele><time>2026-03-29T09:43:54.593Z</time></trkpt><trkpt lat="38.504725" lon="16.2864183"><ele>1054.0</ele><time>2026-03-29T09:43:55.593Z</time></trkpt><trkpt lat="38.50467" lon="16.286535"><ele>1054.0</ele><time>2026-03-29T09:43:56.594Z</time></trkpt><trkpt lat="38.5046317" lon="16.2866583"><ele>1054.0</ele><time>2026-03-29T09:43:57.593Z</time></trkpt><trkpt lat="38.5046017" lon="16.28681"><ele>1054.25</ele><time>2026-03-29T09:43:58.593Z</time></trkpt><trkpt lat="38.5045983" lon="16.28696"><ele>1054.5</ele><time>2026-03-29T09:43:59.593Z</time></trkpt><trkpt lat="38.5046167" lon="16.2871167"><ele>1054.75</ele><time>2026-03-29T09:44:00.593Z</time></trkpt><trkpt lat="38.5046367" lon="16.2872833"><ele>1055.0</ele><time>2026-03-29T09:44:01.593Z</time></trkpt><trkpt lat="38.50466" lon="16.2874417"><ele>1053.4</ele><time>2026-03-29T09:44:02.593Z</time></trkpt><trkpt lat="38.50468" lon="16.28759"><ele>1051.8</ele><time>2026-03-29T09:44:03.593Z</time></trkpt><trkpt lat="38.5046883" lon="16.287715"><ele>1050.2</ele><time>2026-03-29T09:44:04.593Z</time></trkpt><trkpt lat="38.5046817" lon="16.2878433"><ele>1048.6</ele><time>2026-03-29T09:44:05.593Z</time></trkpt><trkpt lat="38.5046683" lon="16.2879467"><ele>1047.0</ele><time>2026-03-29T09:44:06.593Z</time></trkpt><trkpt lat="38.504625" lon="16.2880633"><ele>1044.5</ele><time>2026-03-29T09:44:07.593Z</time></trkpt><trkpt lat="38.504555" lon="16.28818"><ele>1042.0</ele><time>2026-03-29T09:44:08.593Z</time></trkpt><trkpt lat="38.5044683" lon="16.28831"><ele>1039.5</ele><time>2026-03-29T09:44:09.593Z</time></trkpt><trkpt lat="38.50437" lon="16.28844"><ele>1037.0</ele><time>2026-03-29T09:44:10.593Z</time></trkpt><trkpt lat="38.5042783" lon="16.28858"><ele>1037.0</ele><time>2026-03-29T09:44:11.593Z</time></trkpt><trkpt lat="38.504185" lon="16.288705"><ele>1037.0</ele><time>2026-03-29T09:44:12.594Z</time></trkpt><trkpt lat="38.504095" lon="16.2888067"><ele>1037.0</ele><time>2026-03-29T09:44:13.593Z</time></trkpt><trkpt lat="38.504" lon="16.2889033"><ele>1037.0</ele><time>2026-03-29T09:44:14.593Z</time></trkpt><trkpt lat="38.503895" lon="16.2889767"><ele>1036.25</ele><time>2026-03-29T09:44:15.593Z</time></trkpt><trkpt lat="38.50378" lon="16.2890367"><ele>1035.5</ele><time>2026-03-29T09:44:16.593Z</time></trkpt><trkpt lat="38.50366" lon="16.289075"><ele>1034.75</ele><time>2026-03-29T09:44:17.593Z</time></trkpt><trkpt lat="38.503535" lon="16.289115"><ele>1034.0</ele><time>2026-03-29T09:44:18.593Z</time></trkpt><trkpt lat="38.503405" lon="16.2891667"><ele>1031.0</ele><time>2026-03-29T09:44:19.593Z</time></trkpt><trkpt lat="38.5032833" lon="16.2892417"><ele>1028.0</ele><time>2026-03-29T09:44:20.593Z</time></trkpt><trkpt lat="38.5031817" lon="16.2893467"><ele>1025.0</ele><time>2026-03-29T09:44:21.593Z</time></trkpt><trkpt lat="38.5030867" lon="16.2894917"><ele>1022.0</ele><time>2026-03-29T09:44:22.593Z</time></trkpt><trkpt lat="38.5030017" lon="16.2896883"><ele>1020.0</ele><time>2026-03-29T09:44:23.594Z</time></trkpt><trkpt lat="38.502935" lon="16.289935"><ele>1018.0</ele><time>2026-03-29T09:44:24.593Z</time></trkpt><trkpt lat="38.502865" lon="16.2902267"><ele>1016.0</ele><time>2026-03-29T09:44:25.593Z</time></trkpt><trkpt lat="38.5028033" lon="16.29052"><ele>1017.5</ele><time>2026-03-29T09:44:26.593Z</time></trkpt><trkpt lat="38.502755" lon="16.2908717"><ele>1019.0</ele><time>2026-03-29T09:44:27.593Z</time></trkpt><trkpt lat="38.502715" lon="16.291185"><ele>1018.0</ele><time>2026-03-29T09:44:28.593Z</time></trkpt><trkpt lat="38.5026767" lon="16.2914683"><ele>1017.0</ele><time>2026-03-29T09:44:29.593Z</time></trkpt><trkpt lat="38.5026483" lon="16.29171"><ele>1016.0</ele><time>2026-03-29T09:44:30.593Z</time></trkpt><trkpt lat="38.5026283" lon="16.2919033"><ele>1016.0</ele><time>2026-03-29T09:44:31.593Z</time></trkpt><trkpt lat="38.5025967" lon="16.2920917"><ele>1016.0</ele><time>2026-03-29T09:44:32.593Z</time></trkpt><trkpt lat="38.5025533" lon="16.2922767"><ele>1016.0</ele><time>2026-03-29T09:44:33.593Z</time></trkpt><trkpt lat="38.5024783" lon="16.292455"><ele>1012.6666666666667</ele><time>2026-03-29T09:44:34.593Z</time></trkpt><trkpt lat="38.5023833" lon="16.29262"><ele>1009.3333333333333</ele><time>2026-03-29T09:44:35.593Z</time></trkpt><trkpt lat="38.5022717" lon="16.292755"><ele>1006.0</ele><time>2026-03-29T09:44:36.593Z</time></trkpt><trkpt lat="38.5021467" lon="16.2928383"><ele>1006.6666666666666</ele><time>2026-03-29T09:44:37.593Z</time></trkpt><trkpt lat="38.5019833" lon="16.29293"><ele>1007.3333333333333</ele><time>2026-03-29T09:44:38.593Z</time></trkpt><trkpt lat="38.5018" lon="16.2930133"><ele>1008.0</ele><time>2026-03-29T09:44:39.593Z</time></trkpt><trkpt lat="38.5015783" lon="16.2930817"><ele>1003.3333333333333</ele><time>2026-03-29T09:44:40.593Z</time></trkpt><trkpt lat="38.5013717" lon="16.2931217"><ele>998.6666666666666</ele><time>2026-03-29T09:44:41.593Z</time></trkpt><trkpt lat="38.5011717" lon="16.29315"><ele>994.0</ele><time>2026-03-29T09:44:42.593Z</time></trkpt><trkpt lat="38.5009883" lon="16.29317"><ele>992.0</ele><time>2026-03-29T09:44:43.593Z</time></trkpt><trkpt lat="38.500775" lon="16.2932183"><ele>990.0</ele><time>2026-03-29T09:44:44.593Z</time></trkpt><trkpt lat="38.50058" lon="16.293265"><ele>988.0</ele><time>2026-03-29T09:44:45.593Z</time></trkpt><trkpt lat="38.5003917" lon="16.2933367"><ele>987.3333333333333</ele><time>2026-03-29T09:44:46.593Z</time></trkpt><trkpt lat="38.50018" lon="16.2934267"><ele>986.6666666666667</ele><time>2026-03-29T09:44:47.593Z</time></trkpt><trkpt lat="38.4999783" lon="16.2935483"><ele>986.0</ele><time>2026-03-29T09:44:48.593Z</time></trkpt><trkpt lat="38.49978" lon="16.2936683"><ele>986.0</ele><time>2026-03-29T09:44:49.593Z</time></trkpt><trkpt lat="38.4995917" lon="16.293785"><ele>986.0</ele><time>2026-03-29T09:44:50.593Z</time></trkpt><trkpt lat="38.4994083" lon="16.2939033"><ele>986.0</ele><time>2026-03-29T09:44:51.593Z</time></trkpt><trkpt lat="38.49924" lon="16.2940067"><ele>983.6666666666667</ele><time>2026-03-29T09:44:52.593Z</time></trkpt><trkpt lat="38.4990833" lon="16.2940967"><ele>981.3333333333333</ele><time>2026-03-29T09:44:53.594Z</time></trkpt><trkpt lat="38.4989267" lon="16.294175"><ele>979.0</ele><time>2026-03-29T09:44:54.593Z</time></trkpt><trkpt lat="38.4987633" lon="16.294255"><ele>977.6666666666666</ele><time>2026-03-29T09:44:55.593Z</time></trkpt><trkpt lat="38.49861" lon="16.2943067"><ele>976.3333333333333</ele><time>2026-03-29T09:44:56.593Z</time></trkpt><trkpt lat="38.4984483" lon="16.2943567"><ele>975.0</ele><time>2026-03-29T09:44:57.593Z</time></trkpt><trkpt lat="38.4983117" lon="16.29439"><ele>975.0</ele><time>2026-03-29T09:44:58.593Z</time></trkpt><trkpt lat="38.49819" lon="16.294415"><ele>975.0</ele><time>2026-03-29T09:44:59.593Z</time></trkpt><trkpt lat="38.49805" lon="16.2944383"><ele>975.0</ele><time>2026-03-29T09:45:00.593Z</time></trkpt><trkpt lat="38.4979217" lon="16.2944517"><ele>975.0</ele><time>2026-03-29T09:45:01.594Z</time></trkpt><trkpt lat="38.4977967" lon="16.2944617"><ele>974.2</ele><time>2026-03-29T09:45:02.593Z</time></trkpt><trkpt lat="38.4976767" lon="16.2944733"><ele>973.4</ele><time>2026-03-29T09:45:03.593Z</time></trkpt><trkpt lat="38.49757" lon="16.294475"><ele>972.5999999999999</ele><time>2026-03-29T09:45:04.593Z</time></trkpt><trkpt lat="38.4974733" lon="16.294485"><ele>971.8</ele><time>2026-03-29T09:45:05.593Z</time></trkpt><trkpt lat="38.497385" lon="16.294485"><ele>971.0</ele><time>2026-03-29T09:45:06.593Z</time></trkpt><trkpt lat="38.49731" lon="16.2944833"><ele>971.0000000000001</ele><time>2026-03-29T09:45:07.593Z</time></trkpt><trkpt lat="38.497245" lon="16.29448"><ele>971.0</ele><time>2026-03-29T09:45:08.593Z</time></trkpt><trkpt lat="38.49715" lon="16.2944617"><ele>971.0</ele><time>2026-03-29T09:45:10.593Z</time></trkpt><trkpt lat="38.4972233" lon="16.2945183"><ele>971.0</ele><time>2026-03-29T09:45:17.593Z</time></trkpt><trkpt lat="38.4973017" lon="16.2945033"><ele>971.0000000000001</ele><time>2026-03-29T09:45:18.593Z</time></trkpt><trkpt lat="38.4974" lon="16.2944917"><ele>971.0</ele><time>2026-03-29T09:45:19.593Z</time></trkpt><trkpt lat="38.4974983" lon="16.294475"><ele>971.0</ele><time>2026-03-29T09:45:20.593Z</time></trkpt><trkpt lat="38.497565" lon="16.29446"><ele>970.9999999999999</ele><time>2026-03-29T09:45:21.593Z</time></trkpt><trkpt lat="38.4976367" lon="16.2943817"><ele>970.9999999999999</ele><time>2026-03-29T09:45:23.593Z</time></trkpt><trkpt lat="38.497615" lon="16.2942633"><ele>971.0</ele><time>2026-03-29T09:45:25.593Z</time></trkpt><trkpt lat="38.4975333" lon="16.2941733"><ele>971.0</ele><time>2026-03-29T09:45:27.593Z</time></trkpt><trkpt lat="38.497435" lon="16.2941317"><ele>971.0</ele><time>2026-03-29T09:45:29.593Z</time></trkpt><trkpt lat="38.49733" lon="16.2941067"><ele>970.9999999999999</ele><time>2026-03-29T09:45:31.593Z</time></trkpt><trkpt lat="38.4972183" lon="16.2940533"><ele>970.9999999999999</ele><time>2026-03-29T09:45:33.593Z</time></trkpt><trkpt lat="38.4971517" lon="16.2940117"><ele>971.0</ele><time>2026-03-29T09:45:34.593Z</time></trkpt><trkpt lat="38.497075" lon="16.2939517"><ele>971.0</ele><time>2026-03-29T09:45:35.593Z</time></trkpt><trkpt lat="38.4968817" lon="16.2938167"><ele>970.5</ele><time>2026-03-29T09:45:37.593Z</time></trkpt><trkpt lat="38.496755" lon="16.2937283"><ele>970.0</ele><time>2026-03-29T09:45:38.593Z</time></trkpt><trkpt lat="38.4966317" lon="16.2936533"><ele>969.5</ele><time>2026-03-29T09:45:39.593Z</time></trkpt><trkpt lat="38.496515" lon="16.2935967"><ele>969.0</ele><time>2026-03-29T09:45:40.593Z</time></trkpt><trkpt lat="38.49642" lon="16.29356"><ele>969.0</ele><time>2026-03-29T09:45:41.593Z</time></trkpt><trkpt lat="38.4963367" lon="16.2935467"><ele>969.0</ele><time>2026-03-29T09:45:42.593Z</time></trkpt><trkpt lat="38.4962383" lon="16.293505"><ele>969.0</ele><time>2026-03-29T09:45:44.593Z</time></trkpt><trkpt lat="38.4962133" lon="16.2933783"><ele>969.0</ele><time>2026-03-29T09:45:47.593Z</time></trkpt><trkpt lat="38.49622" lon="16.2932817"><ele>969.0</ele><time>2026-03-29T09:45:48.593Z</time></trkpt><trkpt lat="38.496205" lon="16.29318"><ele>969.0</ele><time>2026-03-29T09:45:49.593Z</time></trkpt><trkpt lat="38.4961683" lon="16.29308"><ele>966.5</ele><time>2026-03-29T09:45:50.593Z</time></trkpt><trkpt lat="38.4961033" lon="16.29299"><ele>964.0</ele><time>2026-03-29T09:45:51.593Z</time></trkpt><trkpt lat="38.4960133" lon="16.2929"><ele>961.5</ele><time>2026-03-29T09:45:52.593Z</time></trkpt><trkpt lat="38.4959067" lon="16.29281"><ele>959.0</ele><time>2026-03-29T09:45:53.593Z</time></trkpt><trkpt lat="38.4957833" lon="16.2927017"><ele>959.0</ele><time>2026-03-29T09:45:54.593Z</time></trkpt><trkpt lat="38.495665" lon="16.2925617"><ele>959.0</ele><time>2026-03-29T09:45:55.593Z</time></trkpt><trkpt lat="38.495545" lon="16.2923867"><ele>959.0</ele><time>2026-03-29T09:45:56.593Z</time></trkpt><trkpt lat="38.4954267" lon="16.2921833"><ele>956.6666666666667</ele><time>2026-03-29T09:45:57.593Z</time></trkpt><trkpt lat="38.4953217" lon="16.2919917"><ele>954.3333333333333</ele><time>2026-03-29T09:45:58.593Z</time></trkpt><trkpt lat="38.4952217" lon="16.2918067"><ele>952.0</ele><time>2026-03-29T09:45:59.594Z</time></trkpt><trkpt lat="38.49514" lon="16.2916033"><ele>955.6666666666666</ele><time>2026-03-29T09:46:00.594Z</time></trkpt><trkpt lat="38.495045" lon="16.2914117"><ele>959.3333333333333</ele><time>2026-03-29T09:46:01.594Z</time></trkpt><trkpt lat="38.49493" lon="16.2912017"><ele>963.0</ele><time>2026-03-29T09:46:02.594Z</time></trkpt><trkpt lat="38.4948367" lon="16.2909983"><ele>963.0</ele><time>2026-03-29T09:46:03.594Z</time></trkpt><trkpt lat="38.494765" lon="16.29081"><ele>963.0</ele><time>2026-03-29T09:46:04.594Z</time></trkpt><trkpt lat="38.4947" lon="16.2906333"><ele>963.0</ele><time>2026-03-29T09:46:05.594Z</time></trkpt><trkpt lat="38.4946383" lon="16.29046"><ele>964.25</ele><time>2026-03-29T09:46:06.594Z</time></trkpt><trkpt lat="38.49459" lon="16.2903233"><ele>965.5</ele><time>2026-03-29T09:46:07.594Z</time></trkpt><trkpt lat="38.4945483" lon="16.290185"><ele>966.75</ele><time>2026-03-29T09:46:08.594Z</time></trkpt><trkpt lat="38.4945033" lon="16.290055"><ele>968.0</ele><time>2026-03-29T09:46:09.594Z</time></trkpt><trkpt lat="38.494445" lon="16.2898983"><ele>970.0</ele><time>2026-03-29T09:46:10.594Z</time></trkpt><trkpt lat="38.49437" lon="16.2897233"><ele>972.0</ele><time>2026-03-29T09:46:11.594Z</time></trkpt><trkpt lat="38.4942983" lon="16.2895433"><ele>974.0</ele><time>2026-03-29T09:46:12.594Z</time></trkpt><trkpt lat="38.49422" lon="16.2893967"><ele>974.0</ele><time>2026-03-29T09:46:13.594Z</time></trkpt><trkpt lat="38.49414" lon="16.289285"><ele>974.0</ele><time>2026-03-29T09:46:14.594Z</time></trkpt><trkpt lat="38.49405" lon="16.2891833"><ele>974.0</ele><time>2026-03-29T09:46:15.594Z</time></trkpt><trkpt lat="38.4939533" lon="16.2890683"><ele>974.0</ele><time>2026-03-29T09:46:16.594Z</time></trkpt><trkpt lat="38.4938533" lon="16.2889333"><ele>977.3333333333334</ele><time>2026-03-29T09:46:17.594Z</time></trkpt><trkpt lat="38.49375" lon="16.2888017"><ele>980.6666666666667</ele><time>2026-03-29T09:46:18.594Z</time></trkpt><trkpt lat="38.4936333" lon="16.28866"><ele>984.0</ele><time>2026-03-29T09:46:19.594Z</time></trkpt><trkpt lat="38.4935133" lon="16.28852"><ele>984.0</ele><time>2026-03-29T09:46:20.594Z</time></trkpt><trkpt lat="38.4934133" lon="16.2883917"><ele>984.0</ele><time>2026-03-29T09:46:21.594Z</time></trkpt><trkpt lat="38.4932817" lon="16.2882833"><ele>984.0</ele><time>2026-03-29T09:46:22.594Z</time></trkpt><trkpt lat="38.4931467" lon="16.2881967"><ele>984.0</ele><time>2026-03-29T09:46:23.594Z</time></trkpt><trkpt lat="38.4930017" lon="16.2881183"><ele>984.3333333333333</ele><time>2026-03-29T09:46:24.594Z</time></trkpt><trkpt lat="38.4928383" lon="16.2880517"><ele>984.6666666666666</ele><time>2026-03-29T09:46:25.594Z</time></trkpt><trkpt lat="38.4926667" lon="16.2879833"><ele>985.0</ele><time>2026-03-29T09:46:26.594Z</time></trkpt><trkpt lat="38.4925017" lon="16.2879017"><ele>985.0</ele><time>2026-03-29T09:46:27.594Z</time></trkpt><trkpt lat="38.4923167" lon="16.2878367"><ele>985.0</ele><time>2026-03-29T09:46:28.594Z</time></trkpt><trkpt lat="38.4921183" lon="16.2878033"><ele>985.0</ele><time>2026-03-29T09:46:29.594Z</time></trkpt><trkpt lat="38.4919183" lon="16.2877817"><ele>984.6666666666666</ele><time>2026-03-29T09:46:30.594Z</time></trkpt><trkpt lat="38.4917" lon="16.28777"><ele>984.3333333333333</ele><time>2026-03-29T09:46:31.594Z</time></trkpt><trkpt lat="38.49149" lon="16.28774"><ele>984.0</ele><time>2026-03-29T09:46:32.594Z</time></trkpt><trkpt lat="38.4912883" lon="16.2876967"><ele>983.3333333333333</ele><time>2026-03-29T09:46:33.594Z</time></trkpt><trkpt lat="38.4910983" lon="16.2876433"><ele>982.6666666666666</ele><time>2026-03-29T09:46:34.594Z</time></trkpt><trkpt lat="38.49091" lon="16.2875867"><ele>982.0</ele><time>2026-03-29T09:46:35.594Z</time></trkpt><trkpt lat="38.4907167" lon="16.2875383"><ele>982.0</ele><time>2026-03-29T09:46:36.594Z</time></trkpt><trkpt lat="38.4905317" lon="16.2875183"><ele>982.0</ele><time>2026-03-29T09:46:37.594Z</time></trkpt><trkpt lat="38.4903633" lon="16.2875183"><ele>982.0</ele><time>2026-03-29T09:46:38.594Z</time></trkpt><trkpt lat="38.4902067" lon="16.2875267"><ele>981.0</ele><time>2026-03-29T09:46:39.594Z</time></trkpt><trkpt lat="38.4900617" lon="16.2875283"><ele>980.0</ele><time>2026-03-29T09:46:40.594Z</time></trkpt><trkpt lat="38.4899333" lon="16.2875033"><ele>979.0</ele><time>2026-03-29T09:46:41.594Z</time></trkpt><trkpt lat="38.4898167" lon="16.2874433"><ele>978.0</ele><time>2026-03-29T09:46:42.594Z</time></trkpt><trkpt lat="38.4896983" lon="16.287345"><ele>975.3333333333333</ele><time>2026-03-29T09:46:43.594Z</time></trkpt><trkpt lat="38.4895717" lon="16.28722"><ele>972.6666666666666</ele><time>2026-03-29T09:46:44.594Z</time></trkpt><trkpt lat="38.4894317" lon="16.2870833"><ele>970.0</ele><time>2026-03-29T09:46:45.594Z</time></trkpt><trkpt lat="38.489275" lon="16.2869617"><ele>970.0</ele><time>2026-03-29T09:46:46.594Z</time></trkpt><trkpt lat="38.48911" lon="16.2868667"><ele>970.0</ele><time>2026-03-29T09:46:47.594Z</time></trkpt><trkpt lat="38.4889517" lon="16.2867933"><ele>970.0</ele><time>2026-03-29T09:46:48.594Z</time></trkpt><trkpt lat="38.4887833" lon="16.2867267"><ele>966.6666666666666</ele><time>2026-03-29T09:46:49.594Z</time></trkpt><trkpt lat="38.488625" lon="16.286675"><ele>963.3333333333333</ele><time>2026-03-29T09:46:50.594Z</time></trkpt><trkpt lat="38.4884867" lon="16.2866217"><ele>960.0</ele><time>2026-03-29T09:46:51.594Z</time></trkpt><trkpt lat="38.4882267" lon="16.286545"><ele>960.0</ele><time>2026-03-29T09:46:53.594Z</time></trkpt><trkpt lat="38.4881133" lon="16.2865167"><ele>960.0</ele><time>2026-03-29T09:46:54.594Z</time></trkpt><trkpt lat="38.4880167" lon="16.2865033"><ele>960.0</ele><time>2026-03-29T09:46:55.594Z</time></trkpt><trkpt lat="38.48793" lon="16.2865117"><ele>960.0</ele><time>2026-03-29T09:46:56.594Z</time></trkpt><trkpt lat="38.487855" lon="16.2865083"><ele>960.0</ele><time>2026-03-29T09:46:57.594Z</time></trkpt><trkpt lat="38.4877917" lon="16.28648"><ele>960.0</ele><time>2026-03-29T09:46:58.594Z</time></trkpt><trkpt lat="38.487725" lon="16.28637"><ele>960.1666666666666</ele><time>2026-03-29T09:47:00.594Z</time></trkpt><trkpt lat="38.4877017" lon="16.28628"><ele>960.3333333333333</ele><time>2026-03-29T09:47:01.594Z</time></trkpt><trkpt lat="38.4876617" lon="16.2861733"><ele>960.5</ele><time>2026-03-29T09:47:02.594Z</time></trkpt><trkpt lat="38.487605" lon="16.28608"><ele>960.6666666666666</ele><time>2026-03-29T09:47:03.594Z</time></trkpt><trkpt lat="38.4875483" lon="16.2860067"><ele>960.8333333333333</ele><time>2026-03-29T09:47:04.594Z</time></trkpt><trkpt lat="38.48749" lon="16.2859367"><ele>961.0</ele><time>2026-03-29T09:47:05.594Z</time></trkpt><trkpt lat="38.4874267" lon="16.2858833"><ele>961.0</ele><time>2026-03-29T09:47:06.594Z</time></trkpt><trkpt lat="38.48735" lon="16.28583"><ele>960.9999999999999</ele><time>2026-03-29T09:47:07.595Z</time></trkpt><trkpt lat="38.4872633" lon="16.2857933"><ele>960.9999999999999</ele><time>2026-03-29T09:47:08.594Z</time></trkpt><trkpt lat="38.48717" lon="16.2857517"><ele>961.0</ele><time>2026-03-29T09:47:09.595Z</time></trkpt><trkpt lat="38.4870883" lon="16.2857167"><ele>961.0</ele><time>2026-03-29T09:47:10.594Z</time></trkpt><trkpt lat="38.4869983" lon="16.28568"><ele>961.8333333333333</ele><time>2026-03-29T09:47:11.594Z</time></trkpt><trkpt lat="38.4869117" lon="16.285645"><ele>962.6666666666666</ele><time>2026-03-29T09:47:12.594Z</time></trkpt><trkpt lat="38.4868317" lon="16.28561"><ele>963.5</ele><time>2026-03-29T09:47:13.594Z</time></trkpt><trkpt lat="38.4867583" lon="16.2855717"><ele>964.3333333333333</ele><time>2026-03-29T09:47:14.594Z</time></trkpt><trkpt lat="38.4866883" lon="16.28554"><ele>965.1666666666666</ele><time>2026-03-29T09:47:15.594Z</time></trkpt><trkpt lat="38.48662" lon="16.2855133"><ele>966.0</ele><time>2026-03-29T09:47:16.594Z</time></trkpt><trkpt lat="38.486555" lon="16.2854783"><ele>966.0</ele><time>2026-03-29T09:47:17.594Z</time></trkpt><trkpt lat="38.4864783" lon="16.2854417"><ele>965.9999999999999</ele><time>2026-03-29T09:47:18.594Z</time></trkpt><trkpt lat="38.486395" lon="16.2854167"><ele>965.9999999999999</ele><time>2026-03-29T09:47:19.594Z</time></trkpt><trkpt lat="38.486305" lon="16.285385"><ele>966.0</ele><time>2026-03-29T09:47:20.594Z</time></trkpt><trkpt lat="38.4862033" lon="16.2853483"><ele>966.0</ele><time>2026-03-29T09:47:21.594Z</time></trkpt><trkpt lat="38.486105" lon="16.285315"><ele>965.5</ele><time>2026-03-29T09:47:22.594Z</time></trkpt><trkpt lat="38.4859983" lon="16.2852917"><ele>965.0</ele><time>2026-03-29T09:47:23.594Z</time></trkpt><trkpt lat="38.4858733" lon="16.2852783"><ele>964.5</ele><time>2026-03-29T09:47:24.594Z</time></trkpt><trkpt lat="38.4857617" lon="16.285285"><ele>964.0</ele><time>2026-03-29T09:47:25.594Z</time></trkpt><trkpt lat="38.4856533" lon="16.28531"><ele>964.0</ele><time>2026-03-29T09:47:26.594Z</time></trkpt><trkpt lat="38.485565" lon="16.2853417"><ele>964.0000000000001</ele><time>2026-03-29T09:47:27.594Z</time></trkpt><trkpt lat="38.4854733" lon="16.2853683"><ele>964.0000000000001</ele><time>2026-03-29T09:47:28.594Z</time></trkpt><trkpt lat="38.48538" lon="16.2853733"><ele>964.0</ele><time>2026-03-29T09:47:29.594Z</time></trkpt><trkpt lat="38.485285" lon="16.28536"><ele>964.0</ele><time>2026-03-29T09:47:30.594Z</time></trkpt><trkpt lat="38.4851783" lon="16.285335"><ele>964.25</ele><time>2026-03-29T09:47:31.594Z</time></trkpt><trkpt lat="38.485065" lon="16.2853033"><ele>964.5</ele><time>2026-03-29T09:47:32.594Z</time></trkpt><trkpt lat="38.4849417" lon="16.2852533"><ele>964.75</ele><time>2026-03-29T09:47:33.594Z</time></trkpt><trkpt lat="38.484805" lon="16.285165"><ele>965.0</ele><time>2026-03-29T09:47:34.594Z</time></trkpt><trkpt lat="38.4846567" lon="16.2850683"><ele>966.0</ele><time>2026-03-29T09:47:35.594Z</time></trkpt><trkpt lat="38.4844983" lon="16.2849583"><ele>967.0</ele><time>2026-03-29T09:47:36.594Z</time></trkpt><trkpt lat="38.48432" lon="16.2848583"><ele>968.0</ele><time>2026-03-29T09:47:37.594Z</time></trkpt><trkpt lat="38.4841333" lon="16.2847667"><ele>966.3333333333334</ele><time>2026-03-29T09:47:38.594Z</time></trkpt><trkpt lat="38.48397" lon="16.2846867"><ele>964.6666666666667</ele><time>2026-03-29T09:47:39.594Z</time></trkpt><trkpt lat="38.4837983" lon="16.2846167"><ele>963.0</ele><time>2026-03-29T09:47:40.594Z</time></trkpt><trkpt lat="38.4836283" lon="16.2845617"><ele>962.0</ele><time>2026-03-29T09:47:41.594Z</time></trkpt><trkpt lat="38.4834783" lon="16.284535"><ele>961.0</ele><time>2026-03-29T09:47:42.594Z</time></trkpt><trkpt lat="38.4833483" lon="16.28451"><ele>960.0</ele><time>2026-03-29T09:47:43.594Z</time></trkpt><trkpt lat="38.483245" lon="16.2845017"><ele>959.0</ele><time>2026-03-29T09:47:44.594Z</time></trkpt><trkpt lat="38.4831783" lon="16.2844617"><ele>959.0</ele><time>2026-03-29T09:47:45.594Z</time></trkpt><trkpt lat="38.4831167" lon="16.284395"><ele>959.0000000000001</ele><time>2026-03-29T09:47:46.594Z</time></trkpt><trkpt lat="38.4830817" lon="16.284305"><ele>959.0000000000001</ele><time>2026-03-29T09:47:47.594Z</time></trkpt><trkpt lat="38.4830317" lon="16.2841867"><ele>959.0</ele><time>2026-03-29T09:47:48.595Z</time></trkpt><trkpt lat="38.48298" lon="16.2840367"><ele>959.0</ele><time>2026-03-29T09:47:49.594Z</time></trkpt><trkpt lat="38.4829" lon="16.283855"><ele>958.0</ele><time>2026-03-29T09:47:50.594Z</time></trkpt><trkpt lat="38.4827933" lon="16.2836383"><ele>957.0</ele><time>2026-03-29T09:47:51.594Z</time></trkpt><trkpt lat="38.4826917" lon="16.2834283"><ele>956.0</ele><time>2026-03-29T09:47:52.594Z</time></trkpt><trkpt lat="38.4825967" lon="16.28321"><ele>958.0</ele><time>2026-03-29T09:47:53.594Z</time></trkpt><trkpt lat="38.482525" lon="16.2830267"><ele>960.0</ele><time>2026-03-29T09:47:54.594Z</time></trkpt><trkpt lat="38.4824517" lon="16.2828617"><ele>962.0</ele><time>2026-03-29T09:47:55.594Z</time></trkpt><trkpt lat="38.4823967" lon="16.2826933"><ele>962.0</ele><time>2026-03-29T09:47:56.594Z</time></trkpt><trkpt lat="38.4823733" lon="16.28253"><ele>962.0</ele><time>2026-03-29T09:47:57.594Z</time></trkpt><trkpt lat="38.48235" lon="16.2824"><ele>962.0</ele><time>2026-03-29T09:47:58.594Z</time></trkpt><trkpt lat="38.4823133" lon="16.2822967"><ele>962.0</ele><time>2026-03-29T09:47:59.594Z</time></trkpt><trkpt lat="38.4822483" lon="16.2821967"><ele>962.0</ele><time>2026-03-29T09:48:00.594Z</time></trkpt><trkpt lat="38.482145" lon="16.2821083"><ele>967.0</ele><time>2026-03-29T09:48:01.594Z</time></trkpt><trkpt lat="38.48201" lon="16.2820367"><ele>972.0</ele><time>2026-03-29T09:48:02.594Z</time></trkpt><trkpt lat="38.4818417" lon="16.28197"><ele>977.0</ele><time>2026-03-29T09:48:03.595Z</time></trkpt><trkpt lat="38.4816483" lon="16.281925"><ele>977.0</ele><time>2026-03-29T09:48:04.594Z</time></trkpt><trkpt lat="38.48142" lon="16.2818983"><ele>977.0</ele><time>2026-03-29T09:48:05.594Z</time></trkpt><trkpt lat="38.4812067" lon="16.28189"><ele>977.0</ele><time>2026-03-29T09:48:06.594Z</time></trkpt><trkpt lat="38.4810183" lon="16.281905"><ele>976.6666666666667</ele><time>2026-03-29T09:48:07.594Z</time></trkpt><trkpt lat="38.4808417" lon="16.2819317"><ele>976.3333333333333</ele><time>2026-03-29T09:48:08.594Z</time></trkpt><trkpt lat="38.4806717" lon="16.2819967"><ele>976.0</ele><time>2026-03-29T09:48:09.594Z</time></trkpt><trkpt lat="38.4805033" lon="16.2820683"><ele>976.0</ele><time>2026-03-29T09:48:10.594Z</time></trkpt><trkpt lat="38.4803433" lon="16.28216"><ele>976.0</ele><time>2026-03-29T09:48:11.594Z</time></trkpt><trkpt lat="38.480195" lon="16.2822683"><ele>976.0</ele><time>2026-03-29T09:48:12.594Z</time></trkpt><trkpt lat="38.48004" lon="16.2823967"><ele>976.0</ele><time>2026-03-29T09:48:13.594Z</time></trkpt><trkpt lat="38.4798867" lon="16.28252"><ele>976.0</ele><time>2026-03-29T09:48:14.594Z</time></trkpt><trkpt lat="38.4797633" lon="16.2826683"><ele>976.0</ele><time>2026-03-29T09:48:15.594Z</time></trkpt><trkpt lat="38.4796567" lon="16.2827733"><ele>977.5</ele><time>2026-03-29T09:48:16.594Z</time></trkpt><trkpt lat="38.4795517" lon="16.282865"><ele>979.0</ele><time>2026-03-29T09:48:17.594Z</time></trkpt><trkpt lat="38.4794183" lon="16.2829383"><ele>980.5</ele><time>2026-03-29T09:48:18.594Z</time></trkpt><trkpt lat="38.4792717" lon="16.2829967"><ele>982.0</ele><time>2026-03-29T09:48:19.594Z</time></trkpt><trkpt lat="38.4791267" lon="16.2830333"><ele>982.0</ele><time>2026-03-29T09:48:20.594Z</time></trkpt><trkpt lat="38.4789883" lon="16.2830567"><ele>982.0</ele><time>2026-03-29T09:48:21.594Z</time></trkpt><trkpt lat="38.4788833" lon="16.28303"><ele>982.0</ele><time>2026-03-29T09:48:22.594Z</time></trkpt><trkpt lat="38.4787917" lon="16.2829933"><ele>982.0</ele><time>2026-03-29T09:48:23.594Z</time></trkpt><trkpt lat="38.47872" lon="16.28291"><ele>982.0</ele><time>2026-03-29T09:48:24.594Z</time></trkpt><trkpt lat="38.4786417" lon="16.282795"><ele>981.6666666666666</ele><time>2026-03-29T09:48:25.594Z</time></trkpt><trkpt lat="38.47858" lon="16.282645"><ele>981.3333333333333</ele><time>2026-03-29T09:48:26.594Z</time></trkpt><trkpt lat="38.4785033" lon="16.2824367"><ele>981.0</ele><time>2026-03-29T09:48:27.594Z</time></trkpt><trkpt lat="38.4784083" lon="16.282195"><ele>981.0</ele><time>2026-03-29T09:48:28.594Z</time></trkpt><trkpt lat="38.4782983" lon="16.2819617"><ele>981.0</ele><time>2026-03-29T09:48:29.594Z</time></trkpt><trkpt lat="38.4781933" lon="16.28174"><ele>981.0</ele><time>2026-03-29T09:48:30.594Z</time></trkpt><trkpt lat="38.4781067" lon="16.2815133"><ele>981.5</ele><time>2026-03-29T09:48:31.594Z</time></trkpt><trkpt lat="38.4780267" lon="16.2813267"><ele>982.0</ele><time>2026-03-29T09:48:32.594Z</time></trkpt><trkpt lat="38.4779733" lon="16.281155"><ele>982.5</ele><time>2026-03-29T09:48:33.594Z</time></trkpt><trkpt lat="38.47794" lon="16.2809867"><ele>983.0</ele><time>2026-03-29T09:48:34.594Z</time></trkpt><trkpt lat="38.4779267" lon="16.2808133"><ele>982.2</ele><time>2026-03-29T09:48:35.594Z</time></trkpt><trkpt lat="38.4779183" lon="16.280665"><ele>981.4</ele><time>2026-03-29T09:48:36.594Z</time></trkpt><trkpt lat="38.4779033" lon="16.28053"><ele>980.6000000000001</ele><time>2026-03-29T09:48:37.594Z</time></trkpt><trkpt lat="38.4778667" lon="16.2804017"><ele>979.8000000000001</ele><time>2026-03-29T09:48:38.594Z</time></trkpt><trkpt lat="38.4778117" lon="16.2802833"><ele>979.0</ele><time>2026-03-29T09:48:39.594Z</time></trkpt><trkpt lat="38.4777317" lon="16.28018"><ele>979.0</ele><time>2026-03-29T09:48:40.594Z</time></trkpt><trkpt lat="38.47762" lon="16.28011"><ele>979.0000000000001</ele><time>2026-03-29T09:48:41.594Z</time></trkpt><trkpt lat="38.4775267" lon="16.2800617"><ele>979.0000000000001</ele><time>2026-03-29T09:48:42.594Z</time></trkpt><trkpt lat="38.4774333" lon="16.28005"><ele>979.0</ele><time>2026-03-29T09:48:43.594Z</time></trkpt><trkpt lat="38.47734" lon="16.280065"><ele>979.0</ele><time>2026-03-29T09:48:44.594Z</time></trkpt><trkpt lat="38.4772267" lon="16.2801217"><ele>979.0</ele><time>2026-03-29T09:48:45.594Z</time></trkpt><trkpt lat="38.47711" lon="16.2802117"><ele>979.0</ele><time>2026-03-29T09:48:46.594Z</time></trkpt><trkpt lat="38.477" lon="16.2803733"><ele>979.0</ele><time>2026-03-29T09:48:47.594Z</time></trkpt><trkpt lat="38.4769067" lon="16.2805867"><ele>984.6666666666666</ele><time>2026-03-29T09:48:48.594Z</time></trkpt><trkpt lat="38.4768067" lon="16.28082"><ele>990.3333333333333</ele><time>2026-03-29T09:48:49.594Z</time></trkpt><trkpt lat="38.4766867" lon="16.2810117"><ele>996.0</ele><time>2026-03-29T09:48:50.594Z</time></trkpt><trkpt lat="38.476555" lon="16.2811883"><ele>996.0</ele><time>2026-03-29T09:48:51.594Z</time></trkpt><trkpt lat="38.4764483" lon="16.2813567"><ele>996.0</ele><time>2026-03-29T09:48:52.594Z</time></trkpt><trkpt lat="38.4763617" lon="16.2815283"><ele>996.0</ele><time>2026-03-29T09:48:53.594Z</time></trkpt><trkpt lat="38.4762983" lon="16.2817117"><ele>1000.6666666666667</ele><time>2026-03-29T09:48:54.594Z</time></trkpt><trkpt lat="38.47626" lon="16.2818967"><ele>1005.3333333333334</ele><time>2026-03-29T09:48:55.594Z</time></trkpt><trkpt lat="38.4762617" lon="16.2821167"><ele>1010.0</ele><time>2026-03-29T09:48:56.594Z</time></trkpt><trkpt lat="38.47628" lon="16.2823567"><ele>1007.3333333333334</ele><time>2026-03-29T09:48:57.594Z</time></trkpt><trkpt lat="38.476295" lon="16.2825917"><ele>1004.6666666666667</ele><time>2026-03-29T09:48:58.594Z</time></trkpt><trkpt lat="38.476305" lon="16.2828067"><ele>1002.0</ele><time>2026-03-29T09:48:59.594Z</time></trkpt><trkpt lat="38.4762683" lon="16.282995"><ele>1000.3333333333333</ele><time>2026-03-29T09:49:00.594Z</time></trkpt><trkpt lat="38.4762" lon="16.283165"><ele>998.6666666666666</ele><time>2026-03-29T09:49:01.594Z</time></trkpt><trkpt lat="38.4760983" lon="16.2833433"><ele>997.0</ele><time>2026-03-29T09:49:02.594Z</time></trkpt><trkpt lat="38.475965" lon="16.2834933"><ele>997.0</ele><time>2026-03-29T09:49:03.594Z</time></trkpt><trkpt lat="38.4758183" lon="16.2836067"><ele>997.0</ele><time>2026-03-29T09:49:04.594Z</time></trkpt><trkpt lat="38.475675" lon="16.2837033"><ele>997.0</ele><time>2026-03-29T09:49:05.594Z</time></trkpt><trkpt lat="38.47553" lon="16.28378"><ele>1000.3333333333333</ele><time>2026-03-29T09:49:06.594Z</time></trkpt><trkpt lat="38.475375" lon="16.2838417"><ele>1003.6666666666667</ele><time>2026-03-29T09:49:07.594Z</time></trkpt><trkpt lat="38.4752183" lon="16.2838783"><ele>1007.0</ele><time>2026-03-29T09:49:08.594Z</time></trkpt><trkpt lat="38.47508" lon="16.283905"><ele>1007.0</ele><time>2026-03-29T09:49:09.594Z</time></trkpt><trkpt lat="38.4749417" lon="16.2839117"><ele>1007.0</ele><time>2026-03-29T09:49:10.594Z</time></trkpt><trkpt lat="38.474825" lon="16.2839"><ele>1007.0</ele><time>2026-03-29T09:49:11.594Z</time></trkpt><trkpt lat="38.4747217" lon="16.2838683"><ele>1007.0</ele><time>2026-03-29T09:49:12.594Z</time></trkpt><trkpt lat="38.4746217" lon="16.283815"><ele>1005.5</ele><time>2026-03-29T09:49:13.594Z</time></trkpt><trkpt lat="38.4745217" lon="16.2836883"><ele>1004.0</ele><time>2026-03-29T09:49:14.594Z</time></trkpt><trkpt lat="38.47442" lon="16.2835583"><ele>1002.5</ele><time>2026-03-29T09:49:15.594Z</time></trkpt><trkpt lat="38.47432" lon="16.2833983"><ele>1001.0</ele><time>2026-03-29T09:49:16.594Z</time></trkpt><trkpt lat="38.474235" lon="16.2832033"><ele>1002.3333333333334</ele><time>2026-03-29T09:49:17.594Z</time></trkpt><trkpt lat="38.4741533" lon="16.282965"><ele>1003.6666666666667</ele><time>2026-03-29T09:49:18.594Z</time></trkpt><trkpt lat="38.4740917" lon="16.2827017"><ele>1005.0</ele><time>2026-03-29T09:49:19.594Z</time></trkpt><trkpt lat="38.4740433" lon="16.2824733"><ele>1005.75</ele><time>2026-03-29T09:49:20.594Z</time></trkpt><trkpt lat="38.4740033" lon="16.28226"><ele>1006.5</ele><time>2026-03-29T09:49:21.594Z</time></trkpt><trkpt lat="38.4739617" lon="16.2820817"><ele>1007.25</ele><time>2026-03-29T09:49:22.594Z</time></trkpt><trkpt lat="38.4739017" lon="16.2819367"><ele>1008.0</ele><time>2026-03-29T09:49:23.594Z</time></trkpt><trkpt lat="38.4738217" lon="16.2818183"><ele>1007.25</ele><time>2026-03-29T09:49:24.594Z</time></trkpt><trkpt lat="38.4737183" lon="16.281695"><ele>1006.5</ele><time>2026-03-29T09:49:25.594Z</time></trkpt><trkpt lat="38.473605" lon="16.2815733"><ele>1005.75</ele><time>2026-03-29T09:49:26.594Z</time></trkpt><trkpt lat="38.4734733" lon="16.2814583"><ele>1005.0</ele><time>2026-03-29T09:49:27.594Z</time></trkpt><trkpt lat="38.4733383" lon="16.28134"><ele>1005.0</ele><time>2026-03-29T09:49:28.594Z</time></trkpt><trkpt lat="38.473215" lon="16.28123"><ele>1005.0</ele><time>2026-03-29T09:49:29.594Z</time></trkpt><trkpt lat="38.4731083" lon="16.2811317"><ele>1005.0</ele><time>2026-03-29T09:49:30.594Z</time></trkpt><trkpt lat="38.4730133" lon="16.28105"><ele>1005.0</ele><time>2026-03-29T09:49:31.595Z</time></trkpt><trkpt lat="38.47292" lon="16.280985"><ele>1006.1666666666666</ele><time>2026-03-29T09:49:32.595Z</time></trkpt><trkpt lat="38.47283" lon="16.2809517"><ele>1007.3333333333333</ele><time>2026-03-29T09:49:33.594Z</time></trkpt><trkpt lat="38.472745" lon="16.2809367"><ele>1008.5</ele><time>2026-03-29T09:49:34.594Z</time></trkpt><trkpt lat="38.4726633" lon="16.2809417"><ele>1009.6666666666666</ele><time>2026-03-29T09:49:35.594Z</time></trkpt><trkpt lat="38.4725967" lon="16.28099"><ele>1010.8333333333333</ele><time>2026-03-29T09:49:36.594Z</time></trkpt><trkpt lat="38.4725433" lon="16.28107"><ele>1012.0</ele><time>2026-03-29T09:49:37.594Z</time></trkpt><trkpt lat="38.4725083" lon="16.2811883"><ele>1012.0</ele><time>2026-03-29T09:49:38.594Z</time></trkpt><trkpt lat="38.4724767" lon="16.2813267"><ele>1012.0</ele><time>2026-03-29T09:49:39.594Z</time></trkpt><trkpt lat="38.472445" lon="16.281485"><ele>1012.0</ele><time>2026-03-29T09:49:40.594Z</time></trkpt><trkpt lat="38.4723983" lon="16.2816"><ele>1012.0</ele><time>2026-03-29T09:49:41.594Z</time></trkpt><trkpt lat="38.47236" lon="16.28174"><ele>1012.3333333333333</ele><time>2026-03-29T09:49:42.594Z</time></trkpt><trkpt lat="38.472325" lon="16.2819517"><ele>1012.6666666666667</ele><time>2026-03-29T09:49:43.594Z</time></trkpt><trkpt lat="38.4723067" lon="16.2822067"><ele>1013.0</ele><time>2026-03-29T09:49:44.594Z</time></trkpt><trkpt lat="38.4722833" lon="16.282495"><ele>1010.5</ele><time>2026-03-29T09:49:45.594Z</time></trkpt><trkpt lat="38.472285" lon="16.2828283"><ele>1008.0</ele><time>2026-03-29T09:49:46.594Z</time></trkpt><trkpt lat="38.472285" lon="16.2831467"><ele>1006.3333333333333</ele><time>2026-03-29T09:49:47.594Z</time></trkpt><trkpt lat="38.47227" lon="16.28339"><ele>1004.6666666666666</ele><time>2026-03-29T09:49:48.594Z</time></trkpt><trkpt lat="38.4722167" lon="16.2835633"><ele>1003.0</ele><time>2026-03-29T09:49:49.594Z</time></trkpt><trkpt lat="38.4721233" lon="16.2836883"><ele>1007.5999999999999</ele><time>2026-03-29T09:49:50.594Z</time></trkpt><trkpt lat="38.4720183" lon="16.2837517"><ele>1012.1999999999999</ele><time>2026-03-29T09:49:51.594Z</time></trkpt><trkpt lat="38.4719167" lon="16.28378"><ele>1016.8</ele><time>2026-03-29T09:49:52.594Z</time></trkpt><trkpt lat="38.471815" lon="16.28378"><ele>1021.4</ele><time>2026-03-29T09:49:53.594Z</time></trkpt><trkpt lat="38.4717233" lon="16.2837533"><ele>1026.0</ele><time>2026-03-29T09:49:54.594Z</time></trkpt><trkpt lat="38.4716167" lon="16.28369"><ele>1026.0</ele><time>2026-03-29T09:49:55.594Z</time></trkpt><trkpt lat="38.4715" lon="16.2836367"><ele>1026.0</ele><time>2026-03-29T09:49:56.594Z</time></trkpt><trkpt lat="38.471395" lon="16.2836167"><ele>1026.0</ele><time>2026-03-29T09:49:57.594Z</time></trkpt><trkpt lat="38.4713" lon="16.2836333"><ele>1026.0</ele><time>2026-03-29T09:49:58.594Z</time></trkpt><trkpt lat="38.4712067" lon="16.2837"><ele>1026.0</ele><time>2026-03-29T09:49:59.594Z</time></trkpt><trkpt lat="38.4711183" lon="16.2838117"><ele>1026.6666666666667</ele><time>2026-03-29T09:50:00.594Z</time></trkpt><trkpt lat="38.471025" lon="16.283955"><ele>1027.3333333333335</ele><time>2026-03-29T09:50:01.594Z</time></trkpt><trkpt lat="38.47094" lon="16.284135"><ele>1028.0</ele><time>2026-03-29T09:50:02.594Z</time></trkpt><trkpt lat="38.4708233" lon="16.28433"><ele>1028.0</ele><time>2026-03-29T09:50:03.594Z</time></trkpt><trkpt lat="38.4706983" lon="16.2844867"><ele>1028.0</ele><time>2026-03-29T09:50:04.594Z</time></trkpt><trkpt lat="38.4705583" lon="16.2846133"><ele>1028.0</ele><time>2026-03-29T09:50:05.594Z</time></trkpt><trkpt lat="38.4704383" lon="16.2847017"><ele>1026.6</ele><time>2026-03-29T09:50:06.594Z</time></trkpt><trkpt lat="38.4703417" lon="16.2847467"><ele>1025.1999999999998</ele><time>2026-03-29T09:50:07.594Z</time></trkpt><trkpt lat="38.47025" lon="16.28474"><ele>1023.8</ele><time>2026-03-29T09:50:08.594Z</time></trkpt><trkpt lat="38.4701617" lon="16.28469"><ele>1022.4</ele><time>2026-03-29T09:50:09.594Z</time></trkpt><trkpt lat="38.4700817" lon="16.2846117"><ele>1021.0</ele><time>2026-03-29T09:50:10.594Z</time></trkpt><trkpt lat="38.470035" lon="16.28451"><ele>1021.0</ele><time>2026-03-29T09:50:11.594Z</time></trkpt><trkpt lat="38.4700167" lon="16.2843867"><ele>1021.0</ele><time>2026-03-29T09:50:12.594Z</time></trkpt><trkpt lat="38.470025" lon="16.28422"><ele>1021.0</ele><time>2026-03-29T09:50:13.594Z</time></trkpt><trkpt lat="38.47006" lon="16.2840433"><ele>1021.0</ele><time>2026-03-29T09:50:14.594Z</time></trkpt><trkpt lat="38.470125" lon="16.2838517"><ele>1024.3999999999999</ele><time>2026-03-29T09:50:15.594Z</time></trkpt><trkpt lat="38.4701517" lon="16.2836817"><ele>1027.8</ele><time>2026-03-29T09:50:16.594Z</time></trkpt><trkpt lat="38.4701233" lon="16.2835483"><ele>1031.1999999999998</ele><time>2026-03-29T09:50:17.594Z</time></trkpt><trkpt lat="38.47008" lon="16.2834533"><ele>1034.6</ele><time>2026-03-29T09:50:18.594Z</time></trkpt><trkpt lat="38.470015" lon="16.2833767"><ele>1038.0</ele><time>2026-03-29T09:50:19.594Z</time></trkpt><trkpt lat="38.46994" lon="16.2833283"><ele>1038.0</ele><time>2026-03-29T09:50:20.594Z</time></trkpt><trkpt lat="38.4698383" lon="16.2833583"><ele>1038.0</ele><time>2026-03-29T09:50:21.594Z</time></trkpt><trkpt lat="38.469715" lon="16.28345"><ele>1038.0</ele><time>2026-03-29T09:50:22.594Z</time></trkpt><trkpt lat="38.4695767" lon="16.28358"><ele>1038.0</ele><time>2026-03-29T09:50:23.594Z</time></trkpt><trkpt lat="38.46944" lon="16.28368"><ele>1037.2</ele><time>2026-03-29T09:50:24.594Z</time></trkpt><trkpt lat="38.4693283" lon="16.2837317"><ele>1036.4</ele><time>2026-03-29T09:50:25.594Z</time></trkpt><trkpt lat="38.4692283" lon="16.2837517"><ele>1035.6000000000001</ele><time>2026-03-29T09:50:26.594Z</time></trkpt><trkpt lat="38.4691467" lon="16.28373"><ele>1034.8</ele><time>2026-03-29T09:50:27.594Z</time></trkpt><trkpt lat="38.4690783" lon="16.2836717"><ele>1034.0</ele><time>2026-03-29T09:50:28.594Z</time></trkpt><trkpt lat="38.469015" lon="16.2835867"><ele>1034.0</ele><time>2026-03-29T09:50:29.594Z</time></trkpt><trkpt lat="38.4689567" lon="16.2834717"><ele>1034.0</ele><time>2026-03-29T09:50:30.595Z</time></trkpt><trkpt lat="38.468905" lon="16.2833167"><ele>1034.0</ele><time>2026-03-29T09:50:31.594Z</time></trkpt><trkpt lat="38.4688767" lon="16.283095"><ele>1034.0</ele><time>2026-03-29T09:50:32.595Z</time></trkpt><trkpt lat="38.4688583" lon="16.28286"><ele>1034.5</ele><time>2026-03-29T09:50:33.594Z</time></trkpt><trkpt lat="38.4688317" lon="16.2825383"><ele>1035.0</ele><time>2026-03-29T09:50:34.594Z</time></trkpt><trkpt lat="38.4688133" lon="16.282215"><ele>1035.0</ele><time>2026-03-29T09:50:35.594Z</time></trkpt><trkpt lat="38.4688" lon="16.2819083"><ele>1035.0</ele><time>2026-03-29T09:50:36.594Z</time></trkpt><trkpt lat="38.4688017" lon="16.28162"><ele>1034.0</ele><time>2026-03-29T09:50:37.594Z</time></trkpt><trkpt lat="38.4688233" lon="16.28139"><ele>1033.0</ele><time>2026-03-29T09:50:38.594Z</time></trkpt><trkpt lat="38.4688467" lon="16.2811833"><ele>1032.0</ele><time>2026-03-29T09:50:39.594Z</time></trkpt><trkpt lat="38.468835" lon="16.280985"><ele>1032.0</ele><time>2026-03-29T09:50:40.594Z</time></trkpt><trkpt lat="38.4688017" lon="16.28081"><ele>1032.0</ele><time>2026-03-29T09:50:41.594Z</time></trkpt><trkpt lat="38.46872" lon="16.2806533"><ele>1032.0</ele><time>2026-03-29T09:50:42.594Z</time></trkpt><trkpt lat="38.4686067" lon="16.2805333"><ele>1032.0</ele><time>2026-03-29T09:50:43.594Z</time></trkpt><trkpt lat="38.468505" lon="16.2804017"><ele>1028.75</ele><time>2026-03-29T09:50:44.594Z</time></trkpt><trkpt lat="38.4684283" lon="16.2802533"><ele>1025.5</ele><time>2026-03-29T09:50:45.594Z</time></trkpt><trkpt lat="38.4683867" lon="16.2801183"><ele>1022.25</ele><time>2026-03-29T09:50:46.594Z</time></trkpt><trkpt lat="38.4683633" lon="16.2799833"><ele>1019.0</ele><time>2026-03-29T09:50:47.594Z</time></trkpt><trkpt lat="38.468335" lon="16.2798283"><ele>1019.75</ele><time>2026-03-29T09:50:48.594Z</time></trkpt><trkpt lat="38.4683067" lon="16.2796567"><ele>1020.5</ele><time>2026-03-29T09:50:49.594Z</time></trkpt><trkpt lat="38.46826" lon="16.279505"><ele>1021.25</ele><time>2026-03-29T09:50:50.594Z</time></trkpt><trkpt lat="38.46819" lon="16.2793717"><ele>1022.0</ele><time>2026-03-29T09:50:51.594Z</time></trkpt><trkpt lat="38.4680983" lon="16.2792567"><ele>1022.0</ele><time>2026-03-29T09:50:52.594Z</time></trkpt><trkpt lat="38.467995" lon="16.2791783"><ele>1022.0</ele><time>2026-03-29T09:50:53.594Z</time></trkpt><trkpt lat="38.4679" lon="16.279105"><ele>1022.0</ele><time>2026-03-29T09:50:54.594Z</time></trkpt><trkpt lat="38.4678067" lon="16.2790433"><ele>1022.0</ele><time>2026-03-29T09:50:55.594Z</time></trkpt><trkpt lat="38.4677117" lon="16.2789817"><ele>1022.0</ele><time>2026-03-29T09:50:56.594Z</time></trkpt><trkpt lat="38.46761" lon="16.2789083"><ele>1022.25</ele><time>2026-03-29T09:50:57.594Z</time></trkpt><trkpt lat="38.4675083" lon="16.2788167"><ele>1022.5</ele><time>2026-03-29T09:50:58.594Z</time></trkpt><trkpt lat="38.4674017" lon="16.2787017"><ele>1022.75</ele><time>2026-03-29T09:50:59.594Z</time></trkpt><trkpt lat="38.4672917" lon="16.278555"><ele>1023.0</ele><time>2026-03-29T09:51:00.594Z</time></trkpt><trkpt lat="38.4671683" lon="16.2783833"><ele>1021.6666666666667</ele><time>2026-03-29T09:51:01.594Z</time></trkpt><trkpt lat="38.4670317" lon="16.2782017"><ele>1020.3333333333334</ele><time>2026-03-29T09:51:02.594Z</time></trkpt><trkpt lat="38.4669017" lon="16.2780033"><ele>1019.0</ele><time>2026-03-29T09:51:03.594Z</time></trkpt><trkpt lat="38.4667833" lon="16.2778367"><ele>1019.0</ele><time>2026-03-29T09:51:04.594Z</time></trkpt><trkpt lat="38.46668" lon="16.2776917"><ele>1019.0</ele><time>2026-03-29T09:51:05.594Z</time></trkpt><trkpt lat="38.4666167" lon="16.277545"><ele>1019.0</ele><time>2026-03-29T09:51:06.594Z</time></trkpt><trkpt lat="38.4665517" lon="16.2774383"><ele>1019.0</ele><time>2026-03-29T09:51:07.594Z</time></trkpt><trkpt lat="38.4665067" lon="16.2773117"><ele>1019.25</ele><time>2026-03-29T09:51:08.594Z</time></trkpt><trkpt lat="38.4664817" lon="16.2771783"><ele>1019.5</ele><time>2026-03-29T09:51:09.594Z</time></trkpt><trkpt lat="38.4664767" lon="16.2769917"><ele>1019.75</ele><time>2026-03-29T09:51:10.594Z</time></trkpt><trkpt lat="38.4664833" lon="16.2767683"><ele>1020.0</ele><time>2026-03-29T09:51:11.594Z</time></trkpt><trkpt lat="38.466485" lon="16.276495"><ele>1019.3333333333333</ele><time>2026-03-29T09:51:12.594Z</time></trkpt><trkpt lat="38.4664817" lon="16.2762417"><ele>1018.6666666666666</ele><time>2026-03-29T09:51:13.594Z</time></trkpt><trkpt lat="38.4664867" lon="16.276015"><ele>1018.0</ele><time>2026-03-29T09:51:14.594Z</time></trkpt><trkpt lat="38.466515" lon="16.27581"><ele>1018.0</ele><time>2026-03-29T09:51:15.594Z</time></trkpt><trkpt lat="38.4665283" lon="16.2756417"><ele>1018.0</ele><time>2026-03-29T09:51:16.594Z</time></trkpt><trkpt lat="38.46655" lon="16.2754917"><ele>1018.0</ele><time>2026-03-29T09:51:17.594Z</time></trkpt><trkpt lat="38.4665783" lon="16.2753183"><ele>1018.0</ele><time>2026-03-29T09:51:18.594Z</time></trkpt><trkpt lat="38.4666267" lon="16.27516"><ele>1016.0</ele><time>2026-03-29T09:51:19.594Z</time></trkpt><trkpt lat="38.4666917" lon="16.2749767"><ele>1014.0</ele><time>2026-03-29T09:51:20.594Z</time></trkpt><trkpt lat="38.46677" lon="16.274815"><ele>1012.0</ele><time>2026-03-29T09:51:21.595Z</time></trkpt><trkpt lat="38.4668717" lon="16.2746217"><ele>1010.8</ele><time>2026-03-29T09:51:22.594Z</time></trkpt><trkpt lat="38.4669433" lon="16.2744583"><ele>1009.6</ele><time>2026-03-29T09:51:23.594Z</time></trkpt><trkpt lat="38.4669767" lon="16.274325"><ele>1008.3999999999999</ele><time>2026-03-29T09:51:24.594Z</time></trkpt><trkpt lat="38.4669683" lon="16.2742317"><ele>1007.1999999999999</ele><time>2026-03-29T09:51:25.594Z</time></trkpt><trkpt lat="38.4669533" lon="16.2741317"><ele>1006.0</ele><time>2026-03-29T09:51:26.595Z</time></trkpt><trkpt lat="38.4669167" lon="16.2740217"><ele>1007.5</ele><time>2026-03-29T09:51:27.594Z</time></trkpt><trkpt lat="38.466845" lon="16.2739233"><ele>1009.0</ele><time>2026-03-29T09:51:28.594Z</time></trkpt><trkpt lat="38.4667417" lon="16.2738267"><ele>1010.5</ele><time>2026-03-29T09:51:29.594Z</time></trkpt><trkpt lat="38.4665967" lon="16.2737533"><ele>1012.0</ele><time>2026-03-29T09:51:30.594Z</time></trkpt><trkpt lat="38.4664517" lon="16.2737"><ele>1012.0</ele><time>2026-03-29T09:51:31.594Z</time></trkpt><trkpt lat="38.4662983" lon="16.27367"><ele>1012.0</ele><time>2026-03-29T09:51:32.594Z</time></trkpt><trkpt lat="38.4661317" lon="16.27363"><ele>1012.0</ele><time>2026-03-29T09:51:33.594Z</time></trkpt><trkpt lat="38.4659517" lon="16.27363"><ele>1012.0</ele><time>2026-03-29T09:51:34.594Z</time></trkpt><trkpt lat="38.46578" lon="16.2736083"><ele>1012.0</ele><time>2026-03-29T09:51:35.594Z</time></trkpt><trkpt lat="38.46563" lon="16.27362"><ele>1012.0</ele><time>2026-03-29T09:51:36.594Z</time></trkpt><trkpt lat="38.4654933" lon="16.27361"><ele>1013.5</ele><time>2026-03-29T09:51:37.594Z</time></trkpt><trkpt lat="38.4653633" lon="16.273585"><ele>1015.0</ele><time>2026-03-29T09:51:38.594Z</time></trkpt><trkpt lat="38.46525" lon="16.2735367"><ele>1016.5</ele><time>2026-03-29T09:51:39.594Z</time></trkpt><trkpt lat="38.46514" lon="16.27347"><ele>1018.0</ele><time>2026-03-29T09:51:40.594Z</time></trkpt><trkpt lat="38.465035" lon="16.2734233"><ele>1017.9999999999999</ele><time>2026-03-29T09:51:41.594Z</time></trkpt><trkpt lat="38.4649483" lon="16.2734067"><ele>1018.0</ele><time>2026-03-29T09:51:42.594Z</time></trkpt><trkpt lat="38.4648683" lon="16.2734"><ele>1018.0</ele><time>2026-03-29T09:51:43.594Z</time></trkpt><trkpt lat="38.4648017" lon="16.2734267"><ele>1018.0</ele><time>2026-03-29T09:51:44.594Z</time></trkpt><trkpt lat="38.4647417" lon="16.2734733"><ele>1017.9999999999999</ele><time>2026-03-29T09:51:45.594Z</time></trkpt><trkpt lat="38.4646933" lon="16.2735433"><ele>1018.0</ele><time>2026-03-29T09:51:46.594Z</time></trkpt><trkpt lat="38.4646617" lon="16.2736317"><ele>1018.0</ele><time>2026-03-29T09:51:47.594Z</time></trkpt><trkpt lat="38.4646767" lon="16.2737683"><ele>1018.0</ele><time>2026-03-29T09:51:48.594Z</time></trkpt><trkpt lat="38.464695" lon="16.2739183"><ele>1018.0</ele><time>2026-03-29T09:51:49.594Z</time></trkpt><trkpt lat="38.4647667" lon="16.27411"><ele>1018.0</ele><time>2026-03-29T09:51:50.594Z</time></trkpt><trkpt lat="38.4648617" lon="16.274335"><ele>1018.3333333333333</ele><time>2026-03-29T09:51:51.594Z</time></trkpt><trkpt lat="38.4649383" lon="16.2745317"><ele>1018.6666666666667</ele><time>2026-03-29T09:51:52.594Z</time></trkpt><trkpt lat="38.4649883" lon="16.2747017"><ele>1019.0</ele><time>2026-03-29T09:51:53.594Z</time></trkpt><trkpt lat="38.465025" lon="16.2748717"><ele>1019.75</ele><time>2026-03-29T09:51:54.594Z</time></trkpt><trkpt lat="38.465035" lon="16.27503"><ele>1020.5</ele><time>2026-03-29T09:51:55.594Z</time></trkpt><trkpt lat="38.4650217" lon="16.2751767"><ele>1021.25</ele><time>2026-03-29T09:51:56.594Z</time></trkpt><trkpt lat="38.4649683" lon="16.2753167"><ele>1022.0</ele><time>2026-03-29T09:51:57.595Z</time></trkpt><trkpt lat="38.4648917" lon="16.2754717"><ele>1022.5</ele><time>2026-03-29T09:51:58.594Z</time></trkpt><trkpt lat="38.464805" lon="16.2756417"><ele>1023.0</ele><time>2026-03-29T09:51:59.594Z</time></trkpt><trkpt lat="38.464715" lon="16.275785"><ele>1023.5</ele><time>2026-03-29T09:52:00.594Z</time></trkpt><trkpt lat="38.4646017" lon="16.2758567"><ele>1024.0</ele><time>2026-03-29T09:52:01.594Z</time></trkpt><trkpt lat="38.464455" lon="16.2759067"><ele>1024.0</ele><time>2026-03-29T09:52:02.595Z</time></trkpt><trkpt lat="38.4643" lon="16.2759333"><ele>1024.0</ele><time>2026-03-29T09:52:03.594Z</time></trkpt><trkpt lat="38.4641233" lon="16.275915"><ele>1024.0</ele><time>2026-03-29T09:52:04.594Z</time></trkpt><trkpt lat="38.46396" lon="16.2758783"><ele>1024.0</ele><time>2026-03-29T09:52:05.595Z</time></trkpt><trkpt lat="38.4638067" lon="16.2758033"><ele>1024.0</ele><time>2026-03-29T09:52:06.594Z</time></trkpt><trkpt lat="38.4636517" lon="16.2757"><ele>1024.0</ele><time>2026-03-29T09:52:07.594Z</time></trkpt><trkpt lat="38.4635067" lon="16.2755817"><ele>1025.6666666666665</ele><time>2026-03-29T09:52:08.594Z</time></trkpt><trkpt lat="38.463355" lon="16.2754717"><ele>1027.3333333333333</ele><time>2026-03-29T09:52:09.595Z</time></trkpt><trkpt lat="38.4632033" lon="16.2753683"><ele>1029.0</ele><time>2026-03-29T09:52:10.595Z</time></trkpt><trkpt lat="38.4630283" lon="16.2752917"><ele>1030.3333333333333</ele><time>2026-03-29T09:52:11.594Z</time></trkpt><trkpt lat="38.4628267" lon="16.2752267"><ele>1031.6666666666665</ele><time>2026-03-29T09:52:12.594Z</time></trkpt><trkpt lat="38.462625" lon="16.2751467"><ele>1033.0</ele><time>2026-03-29T09:52:13.594Z</time></trkpt><trkpt lat="38.462425" lon="16.27505"><ele>1033.0</ele><time>2026-03-29T09:52:14.594Z</time></trkpt><trkpt lat="38.4622167" lon="16.2749417"><ele>1033.0</ele><time>2026-03-29T09:52:15.594Z</time></trkpt><trkpt lat="38.4620333" lon="16.2748267"><ele>1033.0</ele><time>2026-03-29T09:52:16.594Z</time></trkpt><trkpt lat="38.4618733" lon="16.2747167"><ele>1035.0</ele><time>2026-03-29T09:52:17.594Z</time></trkpt><trkpt lat="38.461705" lon="16.27459"><ele>1037.0</ele><time>2026-03-29T09:52:18.594Z</time></trkpt><trkpt lat="38.4615233" lon="16.2744783"><ele>1039.0</ele><time>2026-03-29T09:52:19.594Z</time></trkpt><trkpt lat="38.4613083" lon="16.274405"><ele>1037.3333333333333</ele><time>2026-03-29T09:52:20.594Z</time></trkpt><trkpt lat="38.4610983" lon="16.2743433"><ele>1035.6666666666667</ele><time>2026-03-29T09:52:21.595Z</time></trkpt><trkpt lat="38.4608833" lon="16.2743083"><ele>1034.0</ele><time>2026-03-29T09:52:22.594Z</time></trkpt><trkpt lat="38.4607117" lon="16.274275"><ele>1034.0</ele><time>2026-03-29T09:52:23.594Z</time></trkpt><trkpt lat="38.460595" lon="16.27426"><ele>1034.0</ele><time>2026-03-29T09:52:24.594Z</time></trkpt><trkpt lat="38.4604883" lon="16.2742333"><ele>1034.0</ele><time>2026-03-29T09:52:25.594Z</time></trkpt><trkpt lat="38.4603983" lon="16.27419"><ele>1034.0</ele><time>2026-03-29T09:52:26.594Z</time></trkpt><trkpt lat="38.46032" lon="16.2741217"><ele>1034.0</ele><time>2026-03-29T09:52:27.594Z</time></trkpt><trkpt lat="38.4602583" lon="16.2740283"><ele>1032.1666666666667</ele><time>2026-03-29T09:52:28.594Z</time></trkpt><trkpt lat="38.4602217" lon="16.2739267"><ele>1030.3333333333335</ele><time>2026-03-29T09:52:29.595Z</time></trkpt><trkpt lat="38.46021" lon="16.2738367"><ele>1028.5</ele><time>2026-03-29T09:52:30.595Z</time></trkpt><trkpt lat="38.46021" lon="16.2737317"><ele>1026.6666666666667</ele><time>2026-03-29T09:52:31.594Z</time></trkpt><trkpt lat="38.4602283" lon="16.2736267"><ele>1024.8333333333333</ele><time>2026-03-29T09:52:32.594Z</time></trkpt><trkpt lat="38.460275" lon="16.2734933"><ele>1023.0</ele><time>2026-03-29T09:52:33.594Z</time></trkpt><trkpt lat="38.4603383" lon="16.27336"><ele>1023.0</ele><time>2026-03-29T09:52:34.594Z</time></trkpt><trkpt lat="38.4604383" lon="16.273205"><ele>1023.0</ele><time>2026-03-29T09:52:35.594Z</time></trkpt><trkpt lat="38.460535" lon="16.27304"><ele>1023.0</ele><time>2026-03-29T09:52:36.594Z</time></trkpt><trkpt lat="38.460605" lon="16.2728683"><ele>1024.75</ele><time>2026-03-29T09:52:37.594Z</time></trkpt><trkpt lat="38.4606467" lon="16.2727167"><ele>1026.5</ele><time>2026-03-29T09:52:38.594Z</time></trkpt><trkpt lat="38.4606533" lon="16.2725767"><ele>1028.25</ele><time>2026-03-29T09:52:39.594Z</time></trkpt><trkpt lat="38.4606117" lon="16.2724417"><ele>1030.0</ele><time>2026-03-29T09:52:40.594Z</time></trkpt><trkpt lat="38.46055" lon="16.2723033"><ele>1031.3333333333333</ele><time>2026-03-29T09:52:41.594Z</time></trkpt><trkpt lat="38.4604583" lon="16.2721467"><ele>1032.6666666666667</ele><time>2026-03-29T09:52:42.594Z</time></trkpt><trkpt lat="38.4603333" lon="16.2719733"><ele>1034.0</ele><time>2026-03-29T09:52:43.594Z</time></trkpt><trkpt lat="38.4601833" lon="16.2718217"><ele>1034.0</ele><time>2026-03-29T09:52:44.594Z</time></trkpt><trkpt lat="38.4600217" lon="16.2716767"><ele>1034.0</ele><time>2026-03-29T09:52:45.594Z</time></trkpt><trkpt lat="38.459845" lon="16.271525"><ele>1034.0</ele><time>2026-03-29T09:52:46.594Z</time></trkpt><trkpt lat="38.4596683" lon="16.2713733"><ele>1035.3333333333335</ele><time>2026-03-29T09:52:47.594Z</time></trkpt><trkpt lat="38.4595" lon="16.2712367"><ele>1036.6666666666667</ele><time>2026-03-29T09:52:48.594Z</time></trkpt><trkpt lat="38.45933" lon="16.2711217"><ele>1038.0</ele><time>2026-03-29T09:52:49.594Z</time></trkpt><trkpt lat="38.45916" lon="16.271"><ele>1038.0</ele><time>2026-03-29T09:52:50.594Z</time></trkpt><trkpt lat="38.4589767" lon="16.2708983"><ele>1038.0</ele><time>2026-03-29T09:52:51.594Z</time></trkpt><trkpt lat="38.4587817" lon="16.270795"><ele>1038.0</ele><time>2026-03-29T09:52:52.594Z</time></trkpt><trkpt lat="38.4585783" lon="16.27071"><ele>1035.5</ele><time>2026-03-29T09:52:53.594Z</time></trkpt><trkpt lat="38.458355" lon="16.2706217"><ele>1033.0</ele><time>2026-03-29T09:52:54.594Z</time></trkpt><trkpt lat="38.4581233" lon="16.2705233"><ele>1037.0</ele><time>2026-03-29T09:52:55.594Z</time></trkpt><trkpt lat="38.4579033" lon="16.2704267"><ele>1041.0</ele><time>2026-03-29T09:52:56.594Z</time></trkpt><trkpt lat="38.4577033" lon="16.2703367"><ele>1045.0</ele><time>2026-03-29T09:52:57.594Z</time></trkpt><trkpt lat="38.4575233" lon="16.2702583"><ele>1045.0</ele><time>2026-03-29T09:52:58.594Z</time></trkpt><trkpt lat="38.4573467" lon="16.270165"><ele>1045.0</ele><time>2026-03-29T09:52:59.594Z</time></trkpt><trkpt lat="38.4571867" lon="16.2700633"><ele>1045.0</ele><time>2026-03-29T09:53:00.594Z</time></trkpt><trkpt lat="38.457045" lon="16.26996"><ele>1044.5</ele><time>2026-03-29T09:53:01.594Z</time></trkpt><trkpt lat="38.4569117" lon="16.2698683"><ele>1044.0</ele><time>2026-03-29T09:53:02.594Z</time></trkpt><trkpt lat="38.4567967" lon="16.269785"><ele>1043.5</ele><time>2026-03-29T09:53:03.594Z</time></trkpt><trkpt lat="38.4567117" lon="16.2697067"><ele>1043.0</ele><time>2026-03-29T09:53:04.594Z</time></trkpt><trkpt lat="38.456625" lon="16.2696383"><ele>1043.2</ele><time>2026-03-29T09:53:05.594Z</time></trkpt><trkpt lat="38.4565383" lon="16.2695583"><ele>1043.4</ele><time>2026-03-29T09:53:06.594Z</time></trkpt><trkpt lat="38.4564533" lon="16.2694833"><ele>1043.6000000000001</ele><time>2026-03-29T09:53:07.594Z</time></trkpt><trkpt lat="38.456365" lon="16.2694083"><ele>1043.8</ele><time>2026-03-29T09:53:08.594Z</time></trkpt><trkpt lat="38.4562883" lon="16.269345"><ele>1044.0</ele><time>2026-03-29T09:53:09.594Z</time></trkpt><trkpt lat="38.4562167" lon="16.26929"><ele>1044.0</ele><time>2026-03-29T09:53:10.594Z</time></trkpt><trkpt lat="38.4561567" lon="16.26925"><ele>1044.0</ele><time>2026-03-29T09:53:11.594Z</time></trkpt><trkpt lat="38.4560383" lon="16.2691967"><ele>1044.0</ele><time>2026-03-29T09:53:13.594Z</time></trkpt><trkpt lat="38.4559433" lon="16.26917"><ele>1044.0</ele><time>2026-03-29T09:53:15.594Z</time></trkpt><trkpt lat="38.4558633" lon="16.2691633"><ele>1044.0</ele><time>2026-03-29T09:53:17.594Z</time></trkpt><trkpt lat="38.45576" lon="16.2690433"><ele>1044.0</ele><time>2026-03-29T09:54:58.594Z</time></trkpt><trkpt lat="38.455815" lon="16.268995"><ele>1044.0</ele><time>2026-03-29T09:55:21.595Z</time></trkpt><trkpt lat="38.4558833" lon="16.2689817"><ele>1044.0</ele><time>2026-03-29T09:55:24.595Z</time></trkpt><trkpt lat="38.4559483" lon="16.26898"><ele>1044.0</ele><time>2026-03-29T09:55:26.595Z</time></trkpt><trkpt lat="38.45601" lon="16.2689617"><ele>1044.0</ele><time>2026-03-29T09:55:28.595Z</time></trkpt><trkpt lat="38.4560717" lon="16.26894"><ele>1044.0</ele><time>2026-03-29T09:55:30.595Z</time></trkpt><trkpt lat="38.4561417" lon="16.2689117"><ele>1044.0</ele><time>2026-03-29T09:55:32.595Z</time></trkpt><trkpt lat="38.4562133" lon="16.2688833"><ele>1044.6666666666667</ele><time>2026-03-29T09:55:34.595Z</time></trkpt><trkpt lat="38.456295" lon="16.2688667"><ele>1045.3333333333333</ele><time>2026-03-29T09:55:36.595Z</time></trkpt><trkpt lat="38.4563667" lon="16.2688533"><ele>1046.0</ele><time>2026-03-29T09:55:38.595Z</time></trkpt><trkpt lat="38.4564467" lon="16.2688383"><ele>1046.6666666666665</ele><time>2026-03-29T09:55:40.595Z</time></trkpt><trkpt lat="38.4565267" lon="16.2688233"><ele>1047.3333333333333</ele><time>2026-03-29T09:55:42.595Z</time></trkpt><trkpt lat="38.4566183" lon="16.2688083"><ele>1048.0</ele><time>2026-03-29T09:55:44.595Z</time></trkpt><trkpt lat="38.4567217" lon="16.268775"><ele>1048.0</ele><time>2026-03-29T09:55:46.595Z</time></trkpt><trkpt lat="38.45682" lon="16.2686917"><ele>1048.0</ele><time>2026-03-29T09:55:48.595Z</time></trkpt><trkpt lat="38.456905" lon="16.2686083"><ele>1048.0</ele><time>2026-03-29T09:55:50.595Z</time></trkpt><trkpt lat="38.456955" lon="16.2685583"><ele>1048.0</ele><time>2026-03-29T09:55:51.595Z</time></trkpt><trkpt lat="38.4570417" lon="16.2684633"><ele>1048.0</ele><time>2026-03-29T09:55:53.595Z</time></trkpt><trkpt lat="38.4571133" lon="16.2683933"><ele>1048.4285714285716</ele><time>2026-03-29T09:55:55.596Z</time></trkpt><trkpt lat="38.4571783" lon="16.2683417"><ele>1048.857142857143</ele><time>2026-03-29T09:55:57.595Z</time></trkpt><trkpt lat="38.4572383" lon="16.2683117"><ele>1049.2857142857142</ele><time>2026-03-29T09:55:59.595Z</time></trkpt><trkpt lat="38.45733" lon="16.26829"><ele>1049.7142857142858</ele><time>2026-03-29T09:56:02.595Z</time></trkpt><trkpt lat="38.457395" lon="16.2682767"><ele>1050.142857142857</ele><time>2026-03-29T09:56:04.595Z</time></trkpt><trkpt lat="38.4574617" lon="16.2682683"><ele>1050.5714285714287</ele><time>2026-03-29T09:56:06.595Z</time></trkpt><trkpt lat="38.4575383" lon="16.26827"><ele>1051.0</ele><time>2026-03-29T09:56:08.595Z</time></trkpt><trkpt lat="38.45764" lon="16.2682867"><ele>1051.0</ele><time>2026-03-29T09:56:10.595Z</time></trkpt><trkpt lat="38.4577417" lon="16.2683083"><ele>1051.0</ele><time>2026-03-29T09:56:12.596Z</time></trkpt><trkpt lat="38.4578383" lon="16.2683267"><ele>1051.0</ele><time>2026-03-29T09:56:14.595Z</time></trkpt><trkpt lat="38.45792" lon="16.2683567"><ele>1051.0</ele><time>2026-03-29T09:56:16.595Z</time></trkpt><trkpt lat="38.4580117" lon="16.2684017"><ele>1051.0</ele><time>2026-03-29T09:56:18.595Z</time></trkpt><trkpt lat="38.45808" lon="16.2684"><ele>1050.5</ele><time>2026-03-29T09:56:19.595Z</time></trkpt><trkpt lat="38.4581567" lon="16.2684033"><ele>1050.0</ele><time>2026-03-29T09:56:20.595Z</time></trkpt><trkpt lat="38.4582317" lon="16.2684117"><ele>1049.5</ele><time>2026-03-29T09:56:21.595Z</time></trkpt><trkpt lat="38.4583183" lon="16.2684183"><ele>1049.0</ele><time>2026-03-29T09:56:22.595Z</time></trkpt><trkpt lat="38.4584083" lon="16.26842"><ele>1048.5</ele><time>2026-03-29T09:56:23.595Z</time></trkpt><trkpt lat="38.4584983" lon="16.268425"><ele>1048.0</ele><time>2026-03-29T09:56:24.595Z</time></trkpt><trkpt lat="38.458585" lon="16.2684283"><ele>1048.0</ele><time>2026-03-29T09:56:25.595Z</time></trkpt><trkpt lat="38.4586617" lon="16.2684267"><ele>1048.0</ele><time>2026-03-29T09:56:26.595Z</time></trkpt><trkpt lat="38.4587467" lon="16.2684167"><ele>1048.0</ele><time>2026-03-29T09:56:27.595Z</time></trkpt><trkpt lat="38.4588317" lon="16.268415"><ele>1048.0</ele><time>2026-03-29T09:56:28.595Z</time></trkpt><trkpt lat="38.4589317" lon="16.2684017"><ele>1048.0</ele><time>2026-03-29T09:56:29.595Z</time></trkpt><trkpt lat="38.4590367" lon="16.2683717"><ele>1048.4</ele><time>2026-03-29T09:56:30.595Z</time></trkpt><trkpt lat="38.45915" lon="16.26833"><ele>1048.8</ele><time>2026-03-29T09:56:31.595Z</time></trkpt><trkpt lat="38.4592533" lon="16.268275"><ele>1049.2</ele><time>2026-03-29T09:56:32.595Z</time></trkpt><trkpt lat="38.4593533" lon="16.2682183"><ele>1049.6</ele><time>2026-03-29T09:56:33.595Z</time></trkpt><trkpt lat="38.4594433" lon="16.268155"><ele>1050.0</ele><time>2026-03-29T09:56:34.595Z</time></trkpt><trkpt lat="38.4595267" lon="16.2680967"><ele>1049.3333333333333</ele><time>2026-03-29T09:56:35.595Z</time></trkpt><trkpt lat="38.45961" lon="16.268045"><ele>1048.6666666666667</ele><time>2026-03-29T09:56:36.595Z</time></trkpt><trkpt lat="38.4596883" lon="16.2680067"><ele>1048.0</ele><time>2026-03-29T09:56:37.595Z</time></trkpt><trkpt lat="38.45977" lon="16.2679783"><ele>1047.3333333333335</ele><time>2026-03-29T09:56:38.595Z</time></trkpt><trkpt lat="38.4598467" lon="16.2679583"><ele>1046.6666666666667</ele><time>2026-03-29T09:56:39.595Z</time></trkpt><trkpt lat="38.459925" lon="16.267945"><ele>1046.0</ele><time>2026-03-29T09:56:40.595Z</time></trkpt><trkpt lat="38.460015" lon="16.2679233"><ele>1046.0</ele><time>2026-03-29T09:56:42.595Z</time></trkpt><trkpt lat="38.4601333" lon="16.2679333"><ele>1046.0</ele><time>2026-03-29T09:56:59.595Z</time></trkpt><trkpt lat="38.46024" lon="16.2679267"><ele>1046.0</ele><time>2026-03-29T09:57:02.595Z</time></trkpt><trkpt lat="38.46032" lon="16.2679333"><ele>1046.0</ele><time>2026-03-29T09:57:04.595Z</time></trkpt><trkpt lat="38.4603917" lon="16.2679133"><ele>1046.0</ele><time>2026-03-29T09:57:06.595Z</time></trkpt><trkpt lat="38.4604917" lon="16.2678833"><ele>1047.3999999999999</ele><time>2026-03-29T09:57:08.595Z</time></trkpt><trkpt lat="38.4605683" lon="16.26785"><ele>1048.8</ele><time>2026-03-29T09:57:10.595Z</time></trkpt><trkpt lat="38.4606433" lon="16.2677933"><ele>1050.1999999999998</ele><time>2026-03-29T09:57:12.595Z</time></trkpt><trkpt lat="38.4607217" lon="16.26773"><ele>1051.6</ele><time>2026-03-29T09:57:14.595Z</time></trkpt><trkpt lat="38.4607983" lon="16.2676583"><ele>1053.0</ele><time>2026-03-29T09:57:16.595Z</time></trkpt><trkpt lat="38.4608767" lon="16.267585"><ele>1053.0</ele><time>2026-03-29T09:57:18.596Z</time></trkpt><trkpt lat="38.4609367" lon="16.2675317"><ele>1053.0</ele><time>2026-03-29T09:57:20.595Z</time></trkpt><trkpt lat="38.460985" lon="16.2674667"><ele>1053.0</ele><time>2026-03-29T09:57:22.595Z</time></trkpt><trkpt lat="38.4610533" lon="16.26738"><ele>1053.0</ele><time>2026-03-29T09:57:24.595Z</time></trkpt><trkpt lat="38.46115" lon="16.2672833"><ele>1053.0</ele><time>2026-03-29T09:57:26.595Z</time></trkpt><trkpt lat="38.4611967" lon="16.2672267"><ele>1053.0</ele><time>2026-03-29T09:57:27.595Z</time></trkpt><trkpt lat="38.4612833" lon="16.2671367"><ele>1052.8333333333333</ele><time>2026-03-29T09:57:29.595Z</time></trkpt><trkpt lat="38.461365" lon="16.2670517"><ele>1052.6666666666667</ele><time>2026-03-29T09:57:31.595Z</time></trkpt><trkpt lat="38.4614383" lon="16.266995"><ele>1052.5</ele><time>2026-03-29T09:57:33.595Z</time></trkpt><trkpt lat="38.4614967" lon="16.2669517"><ele>1052.3333333333335</ele><time>2026-03-29T09:57:35.595Z</time></trkpt><trkpt lat="38.4615617" lon="16.2669133"><ele>1052.1666666666667</ele><time>2026-03-29T09:57:37.595Z</time></trkpt><trkpt lat="38.46163" lon="16.2668667"><ele>1052.0</ele><time>2026-03-29T09:57:39.595Z</time></trkpt><trkpt lat="38.4617083" lon="16.2668217"><ele>1052.0</ele><time>2026-03-29T09:57:42.595Z</time></trkpt><trkpt lat="38.4617733" lon="16.2667883"><ele>1052.0</ele><time>2026-03-29T09:57:44.595Z</time></trkpt><trkpt lat="38.461855" lon="16.2667733"><ele>1052.0</ele><time>2026-03-29T09:57:46.596Z</time></trkpt><trkpt lat="38.461935" lon="16.26675"><ele>1052.0</ele><time>2026-03-29T09:57:48.595Z</time></trkpt><trkpt lat="38.4620083" lon="16.2667467"><ele>1052.0</ele><time>2026-03-29T09:57:50.595Z</time></trkpt><trkpt lat="38.4620983" lon="16.2667567"><ele>1052.0</ele><time>2026-03-29T09:57:52.595Z</time></trkpt><trkpt lat="38.4621917" lon="16.26677"><ele>1052.6666666666667</ele><time>2026-03-29T09:57:54.595Z</time></trkpt><trkpt lat="38.4622833" lon="16.2667833"><ele>1053.3333333333335</ele><time>2026-03-29T09:57:56.595Z</time></trkpt><trkpt lat="38.462365" lon="16.2667983"><ele>1054.0</ele><time>2026-03-29T09:57:58.595Z</time></trkpt><trkpt lat="38.4624383" lon="16.2668"><ele>1054.6666666666667</ele><time>2026-03-29T09:58:00.595Z</time></trkpt><trkpt lat="38.4625083" lon="16.2668167"><ele>1055.3333333333333</ele><time>2026-03-29T09:58:02.595Z</time></trkpt><trkpt lat="38.4625783" lon="16.2668117"><ele>1056.0</ele><time>2026-03-29T09:58:04.595Z</time></trkpt><trkpt lat="38.4626517" lon="16.26678"><ele>1056.0</ele><time>2026-03-29T09:58:06.595Z</time></trkpt><trkpt lat="38.4627283" lon="16.2667567"><ele>1056.0</ele><time>2026-03-29T09:58:08.595Z</time></trkpt><trkpt lat="38.4628183" lon="16.2667433"><ele>1056.0</ele><time>2026-03-29T09:58:10.595Z</time></trkpt><trkpt lat="38.4629183" lon="16.2667317"><ele>1056.0</ele><time>2026-03-29T09:58:12.595Z</time></trkpt><trkpt lat="38.4630117" lon="16.2667067"><ele>1056.0</ele><time>2026-03-29T09:58:14.595Z</time></trkpt><trkpt lat="38.4630767" lon="16.26669"><ele>1056.0</ele><time>2026-03-29T09:58:16.595Z</time></trkpt><trkpt lat="38.46316" lon="16.2666633"><ele>1056.1666666666667</ele><time>2026-03-29T09:58:19.595Z</time></trkpt><trkpt lat="38.463225" lon="16.2666333"><ele>1056.3333333333333</ele><time>2026-03-29T09:58:21.596Z</time></trkpt><trkpt lat="38.4632883" lon="16.2666133"><ele>1056.5</ele><time>2026-03-29T09:58:23.595Z</time></trkpt><trkpt lat="38.4633633" lon="16.26661"><ele>1056.6666666666665</ele><time>2026-03-29T09:58:26.595Z</time></trkpt><trkpt lat="38.4634433" lon="16.2665683"><ele>1056.8333333333333</ele><time>2026-03-29T09:59:01.595Z</time></trkpt><trkpt lat="38.46337" lon="16.26664"><ele>1057.0</ele><time>2026-03-29T10:07:56.596Z</time></trkpt><trkpt lat="38.4632617" lon="16.26664"><ele>1057.0</ele><time>2026-03-29T10:07:58.596Z</time></trkpt><trkpt lat="38.4631567" lon="16.26665"><ele>1057.0</ele><time>2026-03-29T10:08:00.596Z</time></trkpt><trkpt lat="38.4630567" lon="16.2666667"><ele>1057.0</ele><time>2026-03-29T10:08:02.596Z</time></trkpt><trkpt lat="38.4629433" lon="16.2667017"><ele>1057.0</ele><time>2026-03-29T10:08:04.596Z</time></trkpt><trkpt lat="38.46288" lon="16.2667217"><ele>1057.0</ele><time>2026-03-29T10:08:05.596Z</time></trkpt><trkpt lat="38.4628117" lon="16.2667433"><ele>1056.8333333333333</ele><time>2026-03-29T10:08:06.596Z</time></trkpt><trkpt lat="38.462745" lon="16.2667633"><ele>1056.6666666666665</ele><time>2026-03-29T10:08:07.596Z</time></trkpt><trkpt lat="38.4626433" lon="16.266805"><ele>1056.5</ele><time>2026-03-29T10:08:09.596Z</time></trkpt><trkpt lat="38.4625583" lon="16.26684"><ele>1056.3333333333333</ele><time>2026-03-29T10:08:11.596Z</time></trkpt><trkpt lat="38.462485" lon="16.266845"><ele>1056.1666666666667</ele><time>2026-03-29T10:08:13.596Z</time></trkpt><trkpt lat="38.4624083" lon="16.2668433"><ele>1056.0</ele><time>2026-03-29T10:08:15.596Z</time></trkpt><trkpt lat="38.46232" lon="16.2668183"><ele>1056.0</ele><time>2026-03-29T10:08:17.596Z</time></trkpt><trkpt lat="38.462215" lon="16.2667933"><ele>1056.0</ele><time>2026-03-29T10:08:19.596Z</time></trkpt><trkpt lat="38.462115" lon="16.2667633"><ele>1056.0</ele><time>2026-03-29T10:08:21.596Z</time></trkpt><trkpt lat="38.4620433" lon="16.2667367"><ele>1056.0</ele><time>2026-03-29T10:08:23.596Z</time></trkpt><trkpt lat="38.46198" lon="16.266745"><ele>1056.0</ele><time>2026-03-29T10:08:25.596Z</time></trkpt><trkpt lat="38.4618983" lon="16.26676"><ele>1056.0</ele><time>2026-03-29T10:08:27.596Z</time></trkpt><trkpt lat="38.461835" lon="16.26678"><ele>1055.3333333333333</ele><time>2026-03-29T10:08:28.596Z</time></trkpt><trkpt lat="38.461715" lon="16.266845"><ele>1054.6666666666667</ele><time>2026-03-29T10:08:30.596Z</time></trkpt><trkpt lat="38.4616533" lon="16.2668767"><ele>1054.0</ele><time>2026-03-29T10:08:31.596Z</time></trkpt><trkpt lat="38.4615933" lon="16.2669133"><ele>1053.3333333333335</ele><time>2026-03-29T10:08:32.596Z</time></trkpt><trkpt lat="38.4615333" lon="16.266945"><ele>1052.6666666666667</ele><time>2026-03-29T10:08:33.596Z</time></trkpt><trkpt lat="38.4614733" lon="16.2669817"><ele>1052.0</ele><time>2026-03-29T10:08:34.596Z</time></trkpt><trkpt lat="38.461405" lon="16.2670333"><ele>1052.0</ele><time>2026-03-29T10:08:35.596Z</time></trkpt><trkpt lat="38.4613367" lon="16.26709"><ele>1052.0</ele><time>2026-03-29T10:08:36.596Z</time></trkpt><trkpt lat="38.4612667" lon="16.2671717"><ele>1052.0</ele><time>2026-03-29T10:08:37.596Z</time></trkpt><trkpt lat="38.46119" lon="16.2672633"><ele>1052.0</ele><time>2026-03-29T10:08:38.596Z</time></trkpt><trkpt lat="38.4611117" lon="16.2673483"><ele>1052.0</ele><time>2026-03-29T10:08:39.596Z</time></trkpt><trkpt lat="38.46104" lon="16.2674317"><ele>1052.1666666666667</ele><time>2026-03-29T10:08:40.596Z</time></trkpt><trkpt lat="38.4609733" lon="16.2675017"><ele>1052.3333333333335</ele><time>2026-03-29T10:08:41.596Z</time></trkpt><trkpt lat="38.46092" lon="16.2675633"><ele>1052.5</ele><time>2026-03-29T10:08:42.596Z</time></trkpt><trkpt lat="38.4608483" lon="16.2676433"><ele>1052.6666666666667</ele><time>2026-03-29T10:08:44.596Z</time></trkpt><trkpt lat="38.460795" lon="16.267695"><ele>1052.8333333333333</ele><time>2026-03-29T10:08:46.596Z</time></trkpt><trkpt lat="38.4607233" lon="16.2677617"><ele>1053.0</ele><time>2026-03-29T10:08:48.596Z</time></trkpt><trkpt lat="38.46067" lon="16.2678117"><ele>1053.0</ele><time>2026-03-29T10:08:49.596Z</time></trkpt><trkpt lat="38.46058" lon="16.2678633"><ele>1053.0</ele><time>2026-03-29T10:08:51.596Z</time></trkpt><trkpt lat="38.4605167" lon="16.2678833"><ele>1053.0</ele><time>2026-03-29T10:08:53.596Z</time></trkpt><trkpt lat="38.460425" lon="16.2678983"><ele>1053.0</ele><time>2026-03-29T10:08:55.596Z</time></trkpt><trkpt lat="38.4603417" lon="16.267885"><ele>1053.0</ele><time>2026-03-29T10:08:57.596Z</time></trkpt><trkpt lat="38.4602633" lon="16.2678533"><ele>1053.0</ele><time>2026-03-29T10:08:59.596Z</time></trkpt><trkpt lat="38.46013" lon="16.2678467"><ele>1051.25</ele><time>2026-03-29T10:09:01.596Z</time></trkpt><trkpt lat="38.4600433" lon="16.26786"><ele>1049.5</ele><time>2026-03-29T10:09:02.597Z</time></trkpt><trkpt lat="38.4599483" lon="16.2678967"><ele>1047.75</ele><time>2026-03-29T10:09:03.596Z</time></trkpt><trkpt lat="38.4598217" lon="16.2679617"><ele>1046.0</ele><time>2026-03-29T10:09:04.596Z</time></trkpt><trkpt lat="38.459695" lon="16.268035"><ele>1047.0</ele><time>2026-03-29T10:09:05.596Z</time></trkpt><trkpt lat="38.459585" lon="16.2681017"><ele>1048.0</ele><time>2026-03-29T10:09:06.596Z</time></trkpt><trkpt lat="38.4594767" lon="16.2681767"><ele>1049.0</ele><time>2026-03-29T10:09:07.596Z</time></trkpt><trkpt lat="38.4593833" lon="16.2682433"><ele>1050.0</ele><time>2026-03-29T10:09:08.596Z</time></trkpt><trkpt lat="38.4592967" lon="16.2683033"><ele>1050.0</ele><time>2026-03-29T10:09:09.596Z</time></trkpt><trkpt lat="38.4592133" lon="16.2683583"><ele>1050.0</ele><time>2026-03-29T10:09:10.596Z</time></trkpt><trkpt lat="38.4591267" lon="16.2683933"><ele>1050.0</ele><time>2026-03-29T10:09:11.596Z</time></trkpt><trkpt lat="38.4590317" lon="16.2684317"><ele>1050.0</ele><time>2026-03-29T10:09:12.596Z</time></trkpt><trkpt lat="38.4589233" lon="16.2684567"><ele>1050.0</ele><time>2026-03-29T10:09:13.597Z</time></trkpt><trkpt lat="38.458815" lon="16.2684767"><ele>1049.6</ele><time>2026-03-29T10:09:14.596Z</time></trkpt><trkpt lat="38.4586983" lon="16.26849"><ele>1049.2</ele><time>2026-03-29T10:09:15.596Z</time></trkpt><trkpt lat="38.4585833" lon="16.268495"><ele>1048.8</ele><time>2026-03-29T10:09:16.596Z</time></trkpt><trkpt lat="38.45847" lon="16.268505"><ele>1048.4</ele><time>2026-03-29T10:09:17.597Z</time></trkpt><trkpt lat="38.4583683" lon="16.2685167"><ele>1048.0</ele><time>2026-03-29T10:09:18.596Z</time></trkpt><trkpt lat="38.4582883" lon="16.26852"><ele>1048.0</ele><time>2026-03-29T10:09:19.596Z</time></trkpt><trkpt lat="38.458225" lon="16.268515"><ele>1048.0</ele><time>2026-03-29T10:09:20.596Z</time></trkpt><trkpt lat="38.4581567" lon="16.268495"><ele>1048.0</ele><time>2026-03-29T10:09:21.596Z</time></trkpt><trkpt lat="38.4580767" lon="16.2684783"><ele>1048.0</ele><time>2026-03-29T10:09:22.596Z</time></trkpt><trkpt lat="38.4579983" lon="16.26845"><ele>1048.0</ele><time>2026-03-29T10:09:23.596Z</time></trkpt><trkpt lat="38.45792" lon="16.2684217"><ele>1048.0</ele><time>2026-03-29T10:09:24.596Z</time></trkpt><trkpt lat="38.4578417" lon="16.26839"><ele>1048.5</ele><time>2026-03-29T10:09:25.596Z</time></trkpt><trkpt lat="38.457755" lon="16.2683667"><ele>1049.0</ele><time>2026-03-29T10:09:26.596Z</time></trkpt><trkpt lat="38.4576767" lon="16.26834"><ele>1049.5</ele><time>2026-03-29T10:09:27.596Z</time></trkpt><trkpt lat="38.4576067" lon="16.2683117"><ele>1050.0</ele><time>2026-03-29T10:09:28.596Z</time></trkpt><trkpt lat="38.4575333" lon="16.2682967"><ele>1050.5</ele><time>2026-03-29T10:09:29.596Z</time></trkpt><trkpt lat="38.4574233" lon="16.2682833"><ele>1051.0</ele><time>2026-03-29T10:09:31.596Z</time></trkpt><trkpt lat="38.45736" lon="16.26829"><ele>1051.0</ele><time>2026-03-29T10:09:34.597Z</time></trkpt><trkpt lat="38.457295" lon="16.268305"><ele>1051.0</ele><time>2026-03-29T10:09:36.596Z</time></trkpt><trkpt lat="38.4572217" lon="16.2683467"><ele>1051.0</ele><time>2026-03-29T10:09:38.596Z</time></trkpt><trkpt lat="38.45716" lon="16.2684033"><ele>1051.0</ele><time>2026-03-29T10:09:40.597Z</time></trkpt><trkpt lat="38.4570883" lon="16.2684583"><ele>1051.0</ele><time>2026-03-29T10:09:42.597Z</time></trkpt><trkpt lat="38.456995" lon="16.2685267"><ele>1051.0</ele><time>2026-03-29T10:09:44.596Z</time></trkpt><trkpt lat="38.4568967" lon="16.268625"><ele>1050.5</ele><time>2026-03-29T10:09:46.596Z</time></trkpt><trkpt lat="38.4568417" lon="16.2686883"><ele>1050.0</ele><time>2026-03-29T10:09:47.596Z</time></trkpt><trkpt lat="38.4567833" lon="16.26873"><ele>1049.5</ele><time>2026-03-29T10:09:48.596Z</time></trkpt><trkpt lat="38.4566867" lon="16.268765"><ele>1049.0</ele><time>2026-03-29T10:09:50.596Z</time></trkpt><trkpt lat="38.456605" lon="16.26879"><ele>1048.5</ele><time>2026-03-29T10:09:52.596Z</time></trkpt><trkpt lat="38.4565083" lon="16.26881"><ele>1048.0</ele><time>2026-03-29T10:09:54.596Z</time></trkpt><trkpt lat="38.45642" lon="16.268825"><ele>1048.0</ele><time>2026-03-29T10:09:56.596Z</time></trkpt><trkpt lat="38.4563317" lon="16.26884"><ele>1048.0</ele><time>2026-03-29T10:09:58.596Z</time></trkpt><trkpt lat="38.4562483" lon="16.2688633"><ele>1048.0</ele><time>2026-03-29T10:10:00.596Z</time></trkpt><trkpt lat="38.456175" lon="16.2688883"><ele>1048.0</ele><time>2026-03-29T10:10:02.596Z</time></trkpt><trkpt lat="38.4561067" lon="16.2688983"><ele>1048.0</ele><time>2026-03-29T10:10:04.596Z</time></trkpt><trkpt lat="38.4560267" lon="16.268915"><ele>1048.0</ele><time>2026-03-29T10:10:06.596Z</time></trkpt><trkpt lat="38.4559333" lon="16.2689417"><ele>1047.3333333333333</ele><time>2026-03-29T10:10:08.596Z</time></trkpt><trkpt lat="38.455835" lon="16.2689883"><ele>1046.6666666666665</ele><time>2026-03-29T10:10:10.596Z</time></trkpt><trkpt lat="38.4557883" lon="16.269045"><ele>1046.0</ele><time>2026-03-29T10:10:12.596Z</time></trkpt><trkpt lat="38.455865" lon="16.2691333"><ele>1045.3333333333333</ele><time>2026-03-29T10:10:16.596Z</time></trkpt><trkpt lat="38.4559317" lon="16.269155"><ele>1044.6666666666667</ele><time>2026-03-29T10:10:17.596Z</time></trkpt><trkpt lat="38.4560083" lon="16.269185"><ele>1044.0</ele><time>2026-03-29T10:10:18.596Z</time></trkpt><trkpt lat="38.4560933" lon="16.2692117"><ele>1044.0</ele><time>2026-03-29T10:10:19.596Z</time></trkpt><trkpt lat="38.4561983" lon="16.26926"><ele>1044.0</ele><time>2026-03-29T10:10:20.596Z</time></trkpt><trkpt lat="38.45628" lon="16.2693233"><ele>1044.0</ele><time>2026-03-29T10:10:21.596Z</time></trkpt><trkpt lat="38.4563517" lon="16.2693967"><ele>1044.0</ele><time>2026-03-29T10:10:22.596Z</time></trkpt><trkpt lat="38.456435" lon="16.26946"><ele>1044.0</ele><time>2026-03-29T10:10:23.596Z</time></trkpt><trkpt lat="38.45652" lon="16.2695217"><ele>1043.8</ele><time>2026-03-29T10:10:24.596Z</time></trkpt><trkpt lat="38.45661" lon="16.2695967"><ele>1043.6000000000001</ele><time>2026-03-29T10:10:25.596Z</time></trkpt><trkpt lat="38.4567017" lon="16.2696633"><ele>1043.4</ele><time>2026-03-29T10:10:26.596Z</time></trkpt><trkpt lat="38.4567817" lon="16.2697283"><ele>1043.2</ele><time>2026-03-29T10:10:27.596Z</time></trkpt><trkpt lat="38.4568717" lon="16.2698"><ele>1043.0</ele><time>2026-03-29T10:10:28.596Z</time></trkpt><trkpt lat="38.456955" lon="16.2698767"><ele>1043.0</ele><time>2026-03-29T10:10:29.596Z</time></trkpt><trkpt lat="38.457035" lon="16.26995"><ele>1043.0</ele><time>2026-03-29T10:10:30.596Z</time></trkpt><trkpt lat="38.4571033" lon="16.270015"><ele>1043.0</ele><time>2026-03-29T10:10:31.596Z</time></trkpt><trkpt lat="38.457175" lon="16.2700783"><ele>1043.0</ele><time>2026-03-29T10:10:32.596Z</time></trkpt><trkpt lat="38.457245" lon="16.2701317"><ele>1043.0</ele><time>2026-03-29T10:10:33.596Z</time></trkpt><trkpt lat="38.457315" lon="16.270175"><ele>1043.0</ele><time>2026-03-29T10:10:34.596Z</time></trkpt><trkpt lat="38.457385" lon="16.270205"><ele>1043.3333333333335</ele><time>2026-03-29T10:10:35.596Z</time></trkpt><trkpt lat="38.457455" lon="16.270255"><ele>1043.6666666666667</ele><time>2026-03-29T10:10:36.596Z</time></trkpt><trkpt lat="38.45752" lon="16.2702967"><ele>1044.0</ele><time>2026-03-29T10:10:37.596Z</time></trkpt><trkpt lat="38.4575983" lon="16.27034"><ele>1044.3333333333333</ele><time>2026-03-29T10:10:38.596Z</time></trkpt><trkpt lat="38.45768" lon="16.2703883"><ele>1044.6666666666665</ele><time>2026-03-29T10:10:39.596Z</time></trkpt><trkpt lat="38.4577717" lon="16.2704333"><ele>1045.0</ele><time>2026-03-29T10:10:40.596Z</time></trkpt><trkpt lat="38.4578683" lon="16.2704767"><ele>1044.8</ele><time>2026-03-29T10:10:41.596Z</time></trkpt><trkpt lat="38.4579583" lon="16.27051"><ele>1044.6</ele><time>2026-03-29T10:10:42.596Z</time></trkpt><trkpt lat="38.4580517" lon="16.2705467"><ele>1044.4</ele><time>2026-03-29T10:10:43.596Z</time></trkpt><trkpt lat="38.4581417" lon="16.2705833"><ele>1044.2</ele><time>2026-03-29T10:10:44.596Z</time></trkpt><trkpt lat="38.4582383" lon="16.27062"><ele>1044.0</ele><time>2026-03-29T10:10:45.596Z</time></trkpt><trkpt lat="38.4583283" lon="16.2706583"><ele>1041.8</ele><time>2026-03-29T10:10:46.596Z</time></trkpt><trkpt lat="38.4584217" lon="16.2706933"><ele>1039.6000000000001</ele><time>2026-03-29T10:10:47.596Z</time></trkpt><trkpt lat="38.4585167" lon="16.2707283"><ele>1037.4</ele><time>2026-03-29T10:10:48.596Z</time></trkpt><trkpt lat="38.458605" lon="16.2707633"><ele>1035.2</ele><time>2026-03-29T10:10:49.596Z</time></trkpt><trkpt lat="38.4586967" lon="16.2707917"><ele>1033.0</ele><time>2026-03-29T10:10:50.596Z</time></trkpt><trkpt lat="38.4587817" lon="16.2708267"><ele>1033.8333333333333</ele><time>2026-03-29T10:10:51.596Z</time></trkpt><trkpt lat="38.4588617" lon="16.2708583"><ele>1034.6666666666665</ele><time>2026-03-29T10:10:52.596Z</time></trkpt><trkpt lat="38.45894" lon="16.27089"><ele>1035.5</ele><time>2026-03-29T10:10:53.596Z</time></trkpt><trkpt lat="38.4590233" lon="16.2709283"><ele>1036.3333333333333</ele><time>2026-03-29T10:10:54.596Z</time></trkpt><trkpt lat="38.4590933" lon="16.2709733"><ele>1037.1666666666667</ele><time>2026-03-29T10:10:55.596Z</time></trkpt><trkpt lat="38.4591583" lon="16.2710183"><ele>1038.0</ele><time>2026-03-29T10:10:56.596Z</time></trkpt><trkpt lat="38.459225" lon="16.2710683"><ele>1038.0</ele><time>2026-03-29T10:10:57.596Z</time></trkpt><trkpt lat="38.459295" lon="16.2711217"><ele>1038.0</ele><time>2026-03-29T10:10:58.596Z</time></trkpt><trkpt lat="38.4593567" lon="16.2711667"><ele>1038.0</ele><time>2026-03-29T10:10:59.596Z</time></trkpt><trkpt lat="38.459415" lon="16.271215"><ele>1038.0</ele><time>2026-03-29T10:11:00.596Z</time></trkpt><trkpt lat="38.459475" lon="16.27127"><ele>1038.0</ele><time>2026-03-29T10:11:01.596Z</time></trkpt><trkpt lat="38.4595333" lon="16.2713217"><ele>1038.0</ele><time>2026-03-29T10:11:02.596Z</time></trkpt><trkpt lat="38.4595967" lon="16.2713783"><ele>1038.0</ele><time>2026-03-29T10:11:03.596Z</time></trkpt><trkpt lat="38.4596567" lon="16.271435"><ele>1037.3333333333333</ele><time>2026-03-29T10:11:04.596Z</time></trkpt><trkpt lat="38.4597167" lon="16.2715017"><ele>1036.6666666666667</ele><time>2026-03-29T10:11:05.596Z</time></trkpt><trkpt lat="38.4597833" lon="16.271565"><ele>1036.0</ele><time>2026-03-29T10:11:06.596Z</time></trkpt><trkpt lat="38.4598517" lon="16.27162"><ele>1035.3333333333335</ele><time>2026-03-29T10:11:07.596Z</time></trkpt><trkpt lat="38.4599133" lon="16.2716717"><ele>1034.6666666666667</ele><time>2026-03-29T10:11:08.596Z</time></trkpt><trkpt lat="38.4599717" lon="16.2717183"><ele>1034.0</ele><time>2026-03-29T10:11:09.596Z</time></trkpt><trkpt lat="38.4600367" lon="16.2717733"><ele>1034.0</ele><time>2026-03-29T10:11:10.596Z</time></trkpt><trkpt lat="38.4601033" lon="16.2718317"><ele>1034.0</ele><time>2026-03-29T10:11:11.596Z</time></trkpt><trkpt lat="38.4601783" lon="16.2719017"><ele>1034.0</ele><time>2026-03-29T10:11:12.596Z</time></trkpt><trkpt lat="38.4602583" lon="16.27198"><ele>1034.0</ele><time>2026-03-29T10:11:13.596Z</time></trkpt><trkpt lat="38.4603417" lon="16.2720767"><ele>1034.0</ele><time>2026-03-29T10:11:14.597Z</time></trkpt><trkpt lat="38.4604283" lon="16.2721833"><ele>1033.2</ele><time>2026-03-29T10:11:15.596Z</time></trkpt><trkpt lat="38.460495" lon="16.2722933"><ele>1032.4</ele><time>2026-03-29T10:11:16.596Z</time></trkpt><trkpt lat="38.4605533" lon="16.2724017"><ele>1031.6</ele><time>2026-03-29T10:11:17.596Z</time></trkpt><trkpt lat="38.4606017" lon="16.27251"><ele>1030.8</ele><time>2026-03-29T10:11:18.597Z</time></trkpt><trkpt lat="38.46063" lon="16.2726133"><ele>1030.0</ele><time>2026-03-29T10:11:19.596Z</time></trkpt><trkpt lat="38.4606467" lon="16.2726967"><ele>1030.0</ele><time>2026-03-29T10:11:20.597Z</time></trkpt><trkpt lat="38.4606433" lon="16.2727983"><ele>1030.0</ele><time>2026-03-29T10:11:21.596Z</time></trkpt><trkpt lat="38.4606133" lon="16.2729217"><ele>1030.0</ele><time>2026-03-29T10:11:22.596Z</time></trkpt><trkpt lat="38.4605567" lon="16.2730633"><ele>1030.0</ele><time>2026-03-29T10:11:23.596Z</time></trkpt><trkpt lat="38.4604817" lon="16.2732133"><ele>1030.0</ele><time>2026-03-29T10:11:24.596Z</time></trkpt><trkpt lat="38.460405" lon="16.2733583"><ele>1029.2</ele><time>2026-03-29T10:11:25.596Z</time></trkpt><trkpt lat="38.460335" lon="16.2734967"><ele>1028.4</ele><time>2026-03-29T10:11:26.596Z</time></trkpt><trkpt lat="38.4602767" lon="16.273635"><ele>1027.6</ele><time>2026-03-29T10:11:27.596Z</time></trkpt><trkpt lat="38.4602367" lon="16.273755"><ele>1026.8</ele><time>2026-03-29T10:11:28.596Z</time></trkpt><trkpt lat="38.46023" lon="16.2738733"><ele>1026.0</ele><time>2026-03-29T10:11:29.596Z</time></trkpt><trkpt lat="38.4602467" lon="16.2739917"><ele>1026.0</ele><time>2026-03-29T10:11:30.596Z</time></trkpt><trkpt lat="38.460285" lon="16.2740917"><ele>1026.0</ele><time>2026-03-29T10:11:31.596Z</time></trkpt><trkpt lat="38.46033" lon="16.2741833"><ele>1026.0</ele><time>2026-03-29T10:11:32.596Z</time></trkpt><trkpt lat="38.4603967" lon="16.274265"><ele>1026.0</ele><time>2026-03-29T10:11:33.596Z</time></trkpt><trkpt lat="38.4604767" lon="16.2743383"><ele>1026.0</ele><time>2026-03-29T10:11:34.596Z</time></trkpt><trkpt lat="38.4605667" lon="16.274385"><ele>1028.0</ele><time>2026-03-29T10:11:35.596Z</time></trkpt><trkpt lat="38.4606717" lon="16.274395"><ele>1030.0</ele><time>2026-03-29T10:11:36.596Z</time></trkpt><trkpt lat="38.4607833" lon="16.2743967"><ele>1032.0</ele><time>2026-03-29T10:11:37.596Z</time></trkpt><trkpt lat="38.460905" lon="16.27441"><ele>1034.0</ele><time>2026-03-29T10:11:38.596Z</time></trkpt><trkpt lat="38.4610583" lon="16.2744167"><ele>1034.0</ele><time>2026-03-29T10:11:39.596Z</time></trkpt><trkpt lat="38.46121" lon="16.2744333"><ele>1034.0</ele><time>2026-03-29T10:11:40.596Z</time></trkpt><trkpt lat="38.461355" lon="16.2744717"><ele>1034.0</ele><time>2026-03-29T10:11:41.596Z</time></trkpt><trkpt lat="38.4614933" lon="16.2745133"><ele>1034.0</ele><time>2026-03-29T10:11:42.596Z</time></trkpt><trkpt lat="38.461635" lon="16.2745717"><ele>1034.0</ele><time>2026-03-29T10:11:43.596Z</time></trkpt><trkpt lat="38.4617667" lon="16.27464"><ele>1034.0</ele><time>2026-03-29T10:11:44.596Z</time></trkpt><trkpt lat="38.4618967" lon="16.2747233"><ele>1034.0</ele><time>2026-03-29T10:11:45.596Z</time></trkpt><trkpt lat="38.4620167" lon="16.2748117"><ele>1034.0</ele><time>2026-03-29T10:11:46.596Z</time></trkpt><trkpt lat="38.46214" lon="16.274885"><ele>1033.75</ele><time>2026-03-29T10:11:47.596Z</time></trkpt><trkpt lat="38.46225" lon="16.274985"><ele>1033.5</ele><time>2026-03-29T10:11:48.596Z</time></trkpt><trkpt lat="38.4623717" lon="16.2750683"><ele>1033.25</ele><time>2026-03-29T10:11:49.596Z</time></trkpt><trkpt lat="38.4625017" lon="16.2751233"><ele>1033.0</ele><time>2026-03-29T10:11:50.596Z</time></trkpt><trkpt lat="38.4626433" lon="16.2751783"><ele>1033.0</ele><time>2026-03-29T10:11:51.596Z</time></trkpt><trkpt lat="38.462785" lon="16.2752317"><ele>1033.0</ele><time>2026-03-29T10:11:52.596Z</time></trkpt><trkpt lat="38.46293" lon="16.2752733"><ele>1033.0</ele><time>2026-03-29T10:11:53.596Z</time></trkpt><trkpt lat="38.4630633" lon="16.2753233"><ele>1033.0</ele><time>2026-03-29T10:11:54.596Z</time></trkpt><trkpt lat="38.4631917" lon="16.275385"><ele>1032.0</ele><time>2026-03-29T10:11:55.596Z</time></trkpt><trkpt lat="38.4633117" lon="16.275445"><ele>1031.0</ele><time>2026-03-29T10:11:56.596Z</time></trkpt><trkpt lat="38.4634267" lon="16.2755083"><ele>1030.0</ele><time>2026-03-29T10:11:57.596Z</time></trkpt><trkpt lat="38.4635417" lon="16.2756"><ele>1029.0</ele><time>2026-03-29T10:11:58.596Z</time></trkpt><trkpt lat="38.46366" lon="16.27569"><ele>1028.4</ele><time>2026-03-29T10:11:59.596Z</time></trkpt><trkpt lat="38.4637683" lon="16.275765"><ele>1027.8000000000002</ele><time>2026-03-29T10:12:00.596Z</time></trkpt><trkpt lat="38.463865" lon="16.2758467"><ele>1027.1999999999998</ele><time>2026-03-29T10:12:01.597Z</time></trkpt><trkpt lat="38.4639583" lon="16.275915"><ele>1026.6</ele><time>2026-03-29T10:12:02.596Z</time></trkpt><trkpt lat="38.4640533" lon="16.27596"><ele>1026.0</ele><time>2026-03-29T10:12:03.596Z</time></trkpt><trkpt lat="38.4641583" lon="16.2759883"><ele>1025.5</ele><time>2026-03-29T10:12:04.596Z</time></trkpt><trkpt lat="38.4642733" lon="16.2760017"><ele>1025.0</ele><time>2026-03-29T10:12:05.596Z</time></trkpt><trkpt lat="38.4643867" lon="16.27599"><ele>1024.5</ele><time>2026-03-29T10:12:06.596Z</time></trkpt><trkpt lat="38.4645017" lon="16.2759683"><ele>1024.0</ele><time>2026-03-29T10:12:07.596Z</time></trkpt><trkpt lat="38.4646133" lon="16.2759267"><ele>1023.5</ele><time>2026-03-29T10:12:08.597Z</time></trkpt><trkpt lat="38.4647117" lon="16.27585"><ele>1023.0</ele><time>2026-03-29T10:12:09.596Z</time></trkpt><trkpt lat="38.4648183" lon="16.27574"><ele>1022.5</ele><time>2026-03-29T10:12:10.596Z</time></trkpt><trkpt lat="38.4649117" lon="16.2756067"><ele>1022.0</ele><time>2026-03-29T10:12:11.596Z</time></trkpt><trkpt lat="38.4649917" lon="16.2754683"><ele>1022.0</ele><time>2026-03-29T10:12:12.596Z</time></trkpt><trkpt lat="38.465045" lon="16.2753283"><ele>1022.0</ele><time>2026-03-29T10:12:13.596Z</time></trkpt><trkpt lat="38.4650867" lon="16.275185"><ele>1022.0</ele><time>2026-03-29T10:12:14.596Z</time></trkpt><trkpt lat="38.465095" lon="16.2750317"><ele>1022.0</ele><time>2026-03-29T10:12:15.596Z</time></trkpt><trkpt lat="38.4651067" lon="16.2748617"><ele>1021.25</ele><time>2026-03-29T10:12:16.597Z</time></trkpt><trkpt lat="38.4650983" lon="16.2746883"><ele>1020.5</ele><time>2026-03-29T10:12:17.596Z</time></trkpt><trkpt lat="38.4650683" lon="16.2745267"><ele>1019.75</ele><time>2026-03-29T10:12:18.597Z</time></trkpt><trkpt lat="38.4650117" lon="16.27437"><ele>1019.0</ele><time>2026-03-29T10:12:19.596Z</time></trkpt><trkpt lat="38.46495" lon="16.2742283"><ele>1019.0</ele><time>2026-03-29T10:12:20.596Z</time></trkpt><trkpt lat="38.4648933" lon="16.2741067"><ele>1019.0000000000001</ele><time>2026-03-29T10:12:21.596Z</time></trkpt><trkpt lat="38.4648483" lon="16.2739917"><ele>1019.0000000000001</ele><time>2026-03-29T10:12:22.596Z</time></trkpt><trkpt lat="38.4648083" lon="16.2738867"><ele>1019.0</ele><time>2026-03-29T10:12:23.596Z</time></trkpt><trkpt lat="38.464785" lon="16.273785"><ele>1019.0</ele><time>2026-03-29T10:12:24.596Z</time></trkpt><trkpt lat="38.4647783" lon="16.2736833"><ele>1018.8333333333334</ele><time>2026-03-29T10:12:25.596Z</time></trkpt><trkpt lat="38.4647717" lon="16.2735883"><ele>1018.6666666666667</ele><time>2026-03-29T10:12:26.596Z</time></trkpt><trkpt lat="38.4647833" lon="16.2735033"><ele>1018.5</ele><time>2026-03-29T10:12:27.596Z</time></trkpt><trkpt lat="38.4648683" lon="16.2734133"><ele>1018.3333333333333</ele><time>2026-03-29T10:12:29.596Z</time></trkpt><trkpt lat="38.46494" lon="16.2734083"><ele>1018.1666666666666</ele><time>2026-03-29T10:12:30.596Z</time></trkpt><trkpt lat="38.465015" lon="16.2734167"><ele>1018.0</ele><time>2026-03-29T10:12:31.596Z</time></trkpt><trkpt lat="38.4650967" lon="16.273445"><ele>1018.0</ele><time>2026-03-29T10:12:32.596Z</time></trkpt><trkpt lat="38.46521" lon="16.2735217"><ele>1018.0</ele><time>2026-03-29T10:12:33.596Z</time></trkpt><trkpt lat="38.4653483" lon="16.2736"><ele>1018.0</ele><time>2026-03-29T10:12:34.596Z</time></trkpt><trkpt lat="38.4655083" lon="16.2736733"><ele>1018.0</ele><time>2026-03-29T10:12:35.596Z</time></trkpt><trkpt lat="38.4656683" lon="16.2737067"><ele>1016.0</ele><time>2026-03-29T10:12:36.596Z</time></trkpt><trkpt lat="38.4658233" lon="16.2737133"><ele>1014.0</ele><time>2026-03-29T10:12:37.596Z</time></trkpt><trkpt lat="38.4659833" lon="16.2736983"><ele>1012.0</ele><time>2026-03-29T10:12:38.596Z</time></trkpt><trkpt lat="38.4661267" lon="16.2736917"><ele>1012.0</ele><time>2026-03-29T10:12:39.596Z</time></trkpt><trkpt lat="38.4662517" lon="16.2736883"><ele>1012.0</ele><time>2026-03-29T10:12:40.597Z</time></trkpt><trkpt lat="38.4663683" lon="16.273695"><ele>1012.0</ele><time>2026-03-29T10:12:41.596Z</time></trkpt><trkpt lat="38.4664683" lon="16.2737267"><ele>1012.0</ele><time>2026-03-29T10:12:42.596Z</time></trkpt><trkpt lat="38.46656" lon="16.27377"><ele>1012.0</ele><time>2026-03-29T10:12:43.596Z</time></trkpt><trkpt lat="38.4666467" lon="16.2738333"><ele>1012.0</ele><time>2026-03-29T10:12:44.596Z</time></trkpt><trkpt lat="38.4667383" lon="16.27391"><ele>1012.0</ele><time>2026-03-29T10:12:45.596Z</time></trkpt><trkpt lat="38.4668117" lon="16.27399"><ele>1012.0</ele><time>2026-03-29T10:12:46.596Z</time></trkpt><trkpt lat="38.4668733" lon="16.2740617"><ele>1012.0</ele><time>2026-03-29T10:12:47.596Z</time></trkpt><trkpt lat="38.4669433" lon="16.2741833"><ele>1012.0</ele><time>2026-03-29T10:12:49.596Z</time></trkpt><trkpt lat="38.466975" lon="16.27431"><ele>1012.0</ele><time>2026-03-29T10:12:51.596Z</time></trkpt><trkpt lat="38.4669467" lon="16.274475"><ele>1012.0</ele><time>2026-03-29T10:12:53.596Z</time></trkpt><trkpt lat="38.4669083" lon="16.27457"><ele>1012.0</ele><time>2026-03-29T10:12:54.596Z</time></trkpt><trkpt lat="38.4668617" lon="16.2746633"><ele>1012.0</ele><time>2026-03-29T10:12:55.597Z</time></trkpt><trkpt lat="38.466805" lon="16.2747583"><ele>1012.0</ele><time>2026-03-29T10:12:56.596Z</time></trkpt><trkpt lat="38.4667433" lon="16.274865"><ele>1012.0</ele><time>2026-03-29T10:12:57.596Z</time></trkpt><trkpt lat="38.46668" lon="16.2749917"><ele>1012.0</ele><time>2026-03-29T10:12:58.596Z</time></trkpt><trkpt lat="38.466635" lon="16.2751183"><ele>1012.0</ele><time>2026-03-29T10:12:59.596Z</time></trkpt><trkpt lat="38.466585" lon="16.2752567"><ele>1012.0</ele><time>2026-03-29T10:13:00.596Z</time></trkpt><trkpt lat="38.4665583" lon="16.27539"><ele>1012.0</ele><time>2026-03-29T10:13:01.596Z</time></trkpt><trkpt lat="38.46654" lon="16.2755267"><ele>1012.0</ele><time>2026-03-29T10:13:02.596Z</time></trkpt><trkpt lat="38.4665383" lon="16.275645"><ele>1012.0</ele><time>2026-03-29T10:13:03.596Z</time></trkpt><trkpt lat="38.46654" lon="16.27579"><ele>1012.0</ele><time>2026-03-29T10:13:04.596Z</time></trkpt><trkpt lat="38.4665383" lon="16.2759417"><ele>1012.0</ele><time>2026-03-29T10:13:05.596Z</time></trkpt><trkpt lat="38.4665417" lon="16.2761083"><ele>1013.5</ele><time>2026-03-29T10:13:06.596Z</time></trkpt><trkpt lat="38.46654" lon="16.27628"><ele>1015.0</ele><time>2026-03-29T10:13:07.596Z</time></trkpt><trkpt lat="38.4665417" lon="16.2764583"><ele>1016.5</ele><time>2026-03-29T10:13:08.596Z</time></trkpt><trkpt lat="38.4665483" lon="16.2766317"><ele>1018.0</ele><time>2026-03-29T10:13:09.596Z</time></trkpt><trkpt lat="38.4665533" lon="16.2768033"><ele>1018.25</ele><time>2026-03-29T10:13:10.596Z</time></trkpt><trkpt lat="38.4665567" lon="16.2769683"><ele>1018.5</ele><time>2026-03-29T10:13:11.596Z</time></trkpt><trkpt lat="38.4665683" lon="16.27712"><ele>1018.75</ele><time>2026-03-29T10:13:12.596Z</time></trkpt><trkpt lat="38.4665933" lon="16.277265"><ele>1019.0</ele><time>2026-03-29T10:13:13.596Z</time></trkpt><trkpt lat="38.4666483" lon="16.2774017"><ele>1019.0</ele><time>2026-03-29T10:13:14.596Z</time></trkpt><trkpt lat="38.4667317" lon="16.2775533"><ele>1019.0</ele><time>2026-03-29T10:13:15.596Z</time></trkpt><trkpt lat="38.466815" lon="16.2777533"><ele>1019.0</ele><time>2026-03-29T10:13:16.596Z</time></trkpt><trkpt lat="38.4669167" lon="16.2779183"><ele>1019.0</ele><time>2026-03-29T10:13:17.596Z</time></trkpt><trkpt lat="38.4670283" lon="16.2780767"><ele>1019.0</ele><time>2026-03-29T10:13:18.596Z</time></trkpt><trkpt lat="38.4671383" lon="16.2782317"><ele>1019.0</ele><time>2026-03-29T10:13:19.596Z</time></trkpt><trkpt lat="38.4672417" lon="16.2783833"><ele>1020.0</ele><time>2026-03-29T10:13:20.596Z</time></trkpt><trkpt lat="38.467345" lon="16.2785417"><ele>1021.0</ele><time>2026-03-29T10:13:21.596Z</time></trkpt><trkpt lat="38.46744" lon="16.278685"><ele>1022.0</ele><time>2026-03-29T10:13:22.596Z</time></trkpt><trkpt lat="38.4675333" lon="16.27878"><ele>1023.0</ele><time>2026-03-29T10:13:23.596Z</time></trkpt><trkpt lat="38.4676233" lon="16.27888"><ele>1022.75</ele><time>2026-03-29T10:13:24.596Z</time></trkpt><trkpt lat="38.467725" lon="16.27894"><ele>1022.5</ele><time>2026-03-29T10:13:25.596Z</time></trkpt><trkpt lat="38.467835" lon="16.2790017"><ele>1022.25</ele><time>2026-03-29T10:13:26.596Z</time></trkpt><trkpt lat="38.4679533" lon="16.27906"><ele>1022.0</ele><time>2026-03-29T10:13:27.596Z</time></trkpt><trkpt lat="38.4680683" lon="16.2791283"><ele>1022.0</ele><time>2026-03-29T10:13:28.596Z</time></trkpt><trkpt lat="38.4681567" lon="16.27919"><ele>1022.0</ele><time>2026-03-29T10:13:29.596Z</time></trkpt><trkpt lat="38.4682333" lon="16.2792667"><ele>1022.0</ele><time>2026-03-29T10:13:30.596Z</time></trkpt><trkpt lat="38.4682967" lon="16.2793517"><ele>1022.0</ele><time>2026-03-29T10:13:31.596Z</time></trkpt><trkpt lat="38.4683533" lon="16.27947"><ele>1022.0</ele><time>2026-03-29T10:13:32.596Z</time></trkpt><trkpt lat="38.4683967" lon="16.279615"><ele>1022.0</ele><time>2026-03-29T10:13:33.596Z</time></trkpt><trkpt lat="38.468415" lon="16.2797517"><ele>1022.0</ele><time>2026-03-29T10:13:34.596Z</time></trkpt><trkpt lat="38.468415" lon="16.2799217"><ele>1022.0</ele><time>2026-03-29T10:13:35.596Z</time></trkpt><trkpt lat="38.4684017" lon="16.2800917"><ele>1022.0</ele><time>2026-03-29T10:13:36.596Z</time></trkpt><trkpt lat="38.468405" lon="16.2802467"><ele>1021.25</ele><time>2026-03-29T10:13:37.596Z</time></trkpt><trkpt lat="38.468445" lon="16.2803733"><ele>1020.5</ele><time>2026-03-29T10:13:38.596Z</time></trkpt><trkpt lat="38.46852" lon="16.280495"><ele>1019.75</ele><time>2026-03-29T10:13:39.597Z</time></trkpt><trkpt lat="38.4686167" lon="16.280595"><ele>1019.0</ele><time>2026-03-29T10:13:40.596Z</time></trkpt><trkpt lat="38.4687117" lon="16.2806933"><ele>1022.25</ele><time>2026-03-29T10:13:41.596Z</time></trkpt><trkpt lat="38.4687967" lon="16.280805"><ele>1025.5</ele><time>2026-03-29T10:13:42.596Z</time></trkpt><trkpt lat="38.4688533" lon="16.28093"><ele>1028.75</ele><time>2026-03-29T10:13:43.596Z</time></trkpt><trkpt lat="38.4688783" lon="16.2810667"><ele>1032.0</ele><time>2026-03-29T10:13:44.596Z</time></trkpt><trkpt lat="38.4688817" lon="16.2812067"><ele>1032.0</ele><time>2026-03-29T10:13:45.596Z</time></trkpt><trkpt lat="38.4688467" lon="16.28135"><ele>1032.0</ele><time>2026-03-29T10:13:46.596Z</time></trkpt><trkpt lat="38.4688083" lon="16.281505"><ele>1032.0</ele><time>2026-03-29T10:13:47.597Z</time></trkpt><trkpt lat="38.468785" lon="16.281665"><ele>1032.0</ele><time>2026-03-29T10:13:48.596Z</time></trkpt><trkpt lat="38.46878" lon="16.2818317"><ele>1033.0</ele><time>2026-03-29T10:13:49.596Z</time></trkpt><trkpt lat="38.4687733" lon="16.282025"><ele>1034.0</ele><time>2026-03-29T10:13:50.596Z</time></trkpt><trkpt lat="38.4687817" lon="16.2822217"><ele>1035.0</ele><time>2026-03-29T10:13:51.596Z</time></trkpt><trkpt lat="38.4687983" lon="16.2824167"><ele>1035.6666666666667</ele><time>2026-03-29T10:13:52.596Z</time></trkpt><trkpt lat="38.46882" lon="16.2826133"><ele>1036.3333333333335</ele><time>2026-03-29T10:13:53.596Z</time></trkpt><trkpt lat="38.46885" lon="16.282795"><ele>1037.0</ele><time>2026-03-29T10:13:54.597Z</time></trkpt><trkpt lat="38.4688767" lon="16.282985"><ele>1036.25</ele><time>2026-03-29T10:13:55.596Z</time></trkpt><trkpt lat="38.4688967" lon="16.28316"><ele>1035.5</ele><time>2026-03-29T10:13:56.596Z</time></trkpt><trkpt lat="38.4689333" lon="16.2833217"><ele>1034.75</ele><time>2026-03-29T10:13:57.596Z</time></trkpt><trkpt lat="38.4689817" lon="16.2834833"><ele>1034.0</ele><time>2026-03-29T10:13:58.596Z</time></trkpt><trkpt lat="38.46903" lon="16.283615"><ele>1034.0</ele><time>2026-03-29T10:13:59.596Z</time></trkpt><trkpt lat="38.4690867" lon="16.2837233"><ele>1034.0</ele><time>2026-03-29T10:14:00.596Z</time></trkpt><trkpt lat="38.4691583" lon="16.2838"><ele>1034.0</ele><time>2026-03-29T10:14:01.596Z</time></trkpt><trkpt lat="38.469225" lon="16.283845"><ele>1034.0</ele><time>2026-03-29T10:14:02.596Z</time></trkpt><trkpt lat="38.4692967" lon="16.28387"><ele>1034.0</ele><time>2026-03-29T10:14:03.596Z</time></trkpt><trkpt lat="38.46938" lon="16.283855"><ele>1034.0</ele><time>2026-03-29T10:14:04.596Z</time></trkpt><trkpt lat="38.4694683" lon="16.2838067"><ele>1034.0</ele><time>2026-03-29T10:14:05.596Z</time></trkpt><trkpt lat="38.4695667" lon="16.28373"><ele>1034.0</ele><time>2026-03-29T10:14:06.596Z</time></trkpt><trkpt lat="38.46967" lon="16.28364"><ele>1034.0</ele><time>2026-03-29T10:14:07.596Z</time></trkpt><trkpt lat="38.4697633" lon="16.2835683"><ele>1034.0</ele><time>2026-03-29T10:14:08.596Z</time></trkpt><trkpt lat="38.4698533" lon="16.2835133"><ele>1034.0</ele><time>2026-03-29T10:14:09.596Z</time></trkpt><trkpt lat="38.4699467" lon="16.2834967"><ele>1034.6666666666667</ele><time>2026-03-29T10:14:10.596Z</time></trkpt><trkpt lat="38.4700317" lon="16.2835017"><ele>1035.3333333333335</ele><time>2026-03-29T10:14:11.596Z</time></trkpt><trkpt lat="38.47011" lon="16.283535"><ele>1036.0</ele><time>2026-03-29T10:14:12.596Z</time></trkpt><trkpt lat="38.47016" lon="16.2836083"><ele>1036.6666666666667</ele><time>2026-03-29T10:14:13.596Z</time></trkpt><trkpt lat="38.47018" lon="16.2837117"><ele>1037.3333333333333</ele><time>2026-03-29T10:14:14.596Z</time></trkpt><trkpt lat="38.470175" lon="16.28385"><ele>1038.0</ele><time>2026-03-29T10:14:15.596Z</time></trkpt><trkpt lat="38.4701417" lon="16.284015"><ele>1033.75</ele><time>2026-03-29T10:14:16.596Z</time></trkpt><trkpt lat="38.4701117" lon="16.2841883"><ele>1029.5</ele><time>2026-03-29T10:14:17.596Z</time></trkpt><trkpt lat="38.4700867" lon="16.28436"><ele>1025.25</ele><time>2026-03-29T10:14:18.596Z</time></trkpt><trkpt lat="38.4700817" lon="16.284505"><ele>1021.0</ele><time>2026-03-29T10:14:19.596Z</time></trkpt><trkpt lat="38.4701183" lon="16.2846183"><ele>1021.0</ele><time>2026-03-29T10:14:20.596Z</time></trkpt><trkpt lat="38.4701983" lon="16.2847117"><ele>1020.9999999999999</ele><time>2026-03-29T10:14:21.596Z</time></trkpt><trkpt lat="38.470295" lon="16.284765"><ele>1020.9999999999999</ele><time>2026-03-29T10:14:22.596Z</time></trkpt><trkpt lat="38.47039" lon="16.2847717"><ele>1021.0</ele><time>2026-03-29T10:14:23.596Z</time></trkpt><trkpt lat="38.4704867" lon="16.2847483"><ele>1021.0</ele><time>2026-03-29T10:14:24.596Z</time></trkpt><trkpt lat="38.4705633" lon="16.284705"><ele>1022.4</ele><time>2026-03-29T10:14:25.596Z</time></trkpt><trkpt lat="38.470645" lon="16.2846417"><ele>1023.8</ele><time>2026-03-29T10:14:26.596Z</time></trkpt><trkpt lat="38.47072" lon="16.28455"><ele>1025.1999999999998</ele><time>2026-03-29T10:14:27.597Z</time></trkpt><trkpt lat="38.4707967" lon="16.2844333"><ele>1026.6</ele><time>2026-03-29T10:14:28.596Z</time></trkpt><trkpt lat="38.4708733" lon="16.2842983"><ele>1028.0</ele><time>2026-03-29T10:14:29.596Z</time></trkpt><trkpt lat="38.4709383" lon="16.28416"><ele>1028.0</ele><time>2026-03-29T10:14:30.597Z</time></trkpt><trkpt lat="38.4709933" lon="16.2840367"><ele>1028.0</ele><time>2026-03-29T10:14:31.596Z</time></trkpt><trkpt lat="38.4710567" lon="16.2839117"><ele>1028.0</ele><time>2026-03-29T10:14:32.597Z</time></trkpt><trkpt lat="38.4711167" lon="16.2838017"><ele>1028.0</ele><time>2026-03-29T10:14:33.596Z</time></trkpt><trkpt lat="38.4711733" lon="16.2837133"><ele>1028.0</ele><time>2026-03-29T10:14:34.596Z</time></trkpt><trkpt lat="38.4712317" lon="16.283645"><ele>1027.6</ele><time>2026-03-29T10:14:35.596Z</time></trkpt><trkpt lat="38.4713017" lon="16.283595"><ele>1027.1999999999998</ele><time>2026-03-29T10:14:36.596Z</time></trkpt><trkpt lat="38.4713867" lon="16.2835617"><ele>1026.8</ele><time>2026-03-29T10:14:37.596Z</time></trkpt><trkpt lat="38.4714817" lon="16.28356"><ele>1026.3999999999999</ele><time>2026-03-29T10:14:38.596Z</time></trkpt><trkpt lat="38.4715867" lon="16.2835983"><ele>1026.0</ele><time>2026-03-29T10:14:39.596Z</time></trkpt><trkpt lat="38.471685" lon="16.28366"><ele>1026.0</ele><time>2026-03-29T10:14:40.596Z</time></trkpt><trkpt lat="38.471795" lon="16.2836967"><ele>1026.0</ele><time>2026-03-29T10:14:41.596Z</time></trkpt><trkpt lat="38.4719133" lon="16.28371"><ele>1026.0</ele><time>2026-03-29T10:14:42.596Z</time></trkpt><trkpt lat="38.4720317" lon="16.2837133"><ele>1026.0</ele><time>2026-03-29T10:14:43.596Z</time></trkpt><trkpt lat="38.472145" lon="16.283675"><ele>1020.25</ele><time>2026-03-29T10:14:44.596Z</time></trkpt><trkpt lat="38.47224" lon="16.28359"><ele>1014.5</ele><time>2026-03-29T10:14:45.596Z</time></trkpt><trkpt lat="38.4723067" lon="16.2834917"><ele>1008.75</ele><time>2026-03-29T10:14:46.596Z</time></trkpt><trkpt lat="38.4723617" lon="16.2833667"><ele>1003.0</ele><time>2026-03-29T10:14:47.596Z</time></trkpt><trkpt lat="38.4724117" lon="16.2832117"><ele>1004.25</ele><time>2026-03-29T10:14:48.596Z</time></trkpt><trkpt lat="38.4724567" lon="16.28304"><ele>1005.5</ele><time>2026-03-29T10:14:49.596Z</time></trkpt><trkpt lat="38.4724917" lon="16.2828517"><ele>1006.75</ele><time>2026-03-29T10:14:50.596Z</time></trkpt><trkpt lat="38.472505" lon="16.28266"><ele>1008.0</ele><time>2026-03-29T10:14:51.596Z</time></trkpt><trkpt lat="38.472505" lon="16.282465"><ele>1008.0</ele><time>2026-03-29T10:14:52.596Z</time></trkpt><trkpt lat="38.472515" lon="16.2822667"><ele>1008.0</ele><time>2026-03-29T10:14:53.596Z</time></trkpt><trkpt lat="38.4725217" lon="16.28207"><ele>1008.0</ele><time>2026-03-29T10:14:54.596Z</time></trkpt><trkpt lat="38.4725283" lon="16.2818717"><ele>1009.0</ele><time>2026-03-29T10:14:55.596Z</time></trkpt><trkpt lat="38.4725417" lon="16.2816933"><ele>1010.0</ele><time>2026-03-29T10:14:56.596Z</time></trkpt><trkpt lat="38.47256" lon="16.281525"><ele>1011.0</ele><time>2026-03-29T10:14:57.596Z</time></trkpt><trkpt lat="38.47259" lon="16.28137"><ele>1012.0</ele><time>2026-03-29T10:14:58.596Z</time></trkpt><trkpt lat="38.47261" lon="16.281245"><ele>1012.0</ele><time>2026-03-29T10:14:59.596Z</time></trkpt><trkpt lat="38.4726467" lon="16.281155"><ele>1012.0</ele><time>2026-03-29T10:15:00.596Z</time></trkpt><trkpt lat="38.4726917" lon="16.2810767"><ele>1012.0</ele><time>2026-03-29T10:15:01.596Z</time></trkpt><trkpt lat="38.47281" lon="16.2810117"><ele>1012.0</ele><time>2026-03-29T10:15:03.596Z</time></trkpt><trkpt lat="38.4729417" lon="16.2810067"><ele>1012.0</ele><time>2026-03-29T10:15:05.596Z</time></trkpt><trkpt lat="38.4730333" lon="16.281055"><ele>1010.25</ele><time>2026-03-29T10:15:06.596Z</time></trkpt><trkpt lat="38.4731383" lon="16.2811217"><ele>1008.5</ele><time>2026-03-29T10:15:07.596Z</time></trkpt><trkpt lat="38.4732483" lon="16.2812217"><ele>1006.75</ele><time>2026-03-29T10:15:08.596Z</time></trkpt><trkpt lat="38.473365" lon="16.28135"><ele>1005.0</ele><time>2026-03-29T10:15:09.596Z</time></trkpt><trkpt lat="38.4734733" lon="16.2814733"><ele>1006.0</ele><time>2026-03-29T10:15:10.596Z</time></trkpt><trkpt lat="38.47361" lon="16.2816033"><ele>1007.0</ele><time>2026-03-29T10:15:11.596Z</time></trkpt><trkpt lat="38.4737417" lon="16.2817333"><ele>1008.0</ele><time>2026-03-29T10:15:12.596Z</time></trkpt><trkpt lat="38.4738467" lon="16.28188"><ele>1008.0</ele><time>2026-03-29T10:15:13.596Z</time></trkpt><trkpt lat="38.4739517" lon="16.2819917"><ele>1008.0</ele><time>2026-03-29T10:15:14.596Z</time></trkpt><trkpt lat="38.4740483" lon="16.2821233"><ele>1008.0</ele><time>2026-03-29T10:15:15.596Z</time></trkpt><trkpt lat="38.4741133" lon="16.2822883"><ele>1008.0</ele><time>2026-03-29T10:15:16.596Z</time></trkpt><trkpt lat="38.4741567" lon="16.2824483"><ele>1007.25</ele><time>2026-03-29T10:15:17.596Z</time></trkpt><trkpt lat="38.474195" lon="16.2826233"><ele>1006.5</ele><time>2026-03-29T10:15:18.596Z</time></trkpt><trkpt lat="38.4742217" lon="16.2828117"><ele>1005.75</ele><time>2026-03-29T10:15:19.596Z</time></trkpt><trkpt lat="38.4742383" lon="16.2829817"><ele>1005.0</ele><time>2026-03-29T10:15:20.596Z</time></trkpt><trkpt lat="38.47426" lon="16.2831283"><ele>1004.0</ele><time>2026-03-29T10:15:21.596Z</time></trkpt><trkpt lat="38.4742883" lon="16.283265"><ele>1003.0</ele><time>2026-03-29T10:15:22.596Z</time></trkpt><trkpt lat="38.47433" lon="16.2833933"><ele>1002.0</ele><time>2026-03-29T10:15:23.596Z</time></trkpt><trkpt lat="38.4743917" lon="16.283525"><ele>1001.0</ele><time>2026-03-29T10:15:24.596Z</time></trkpt><trkpt lat="38.4744667" lon="16.2836433"><ele>1001.0</ele><time>2026-03-29T10:15:25.596Z</time></trkpt><trkpt lat="38.4745583" lon="16.2837567"><ele>1001.0</ele><time>2026-03-29T10:15:26.596Z</time></trkpt><trkpt lat="38.474665" lon="16.2838517"><ele>1001.0</ele><time>2026-03-29T10:15:27.596Z</time></trkpt><trkpt lat="38.4747883" lon="16.28392"><ele>1001.0</ele><time>2026-03-29T10:15:28.596Z</time></trkpt><trkpt lat="38.47492" lon="16.2839633"><ele>1000.25</ele><time>2026-03-29T10:15:29.596Z</time></trkpt><trkpt lat="38.4750667" lon="16.2839783"><ele>999.5</ele><time>2026-03-29T10:15:30.596Z</time></trkpt><trkpt lat="38.475215" lon="16.2839633"><ele>998.75</ele><time>2026-03-29T10:15:31.596Z</time></trkpt><trkpt lat="38.47536" lon="16.283915"><ele>998.0</ele><time>2026-03-29T10:15:32.596Z</time></trkpt><trkpt lat="38.4754883" lon="16.28387"><ele>997.75</ele><time>2026-03-29T10:15:33.596Z</time></trkpt><trkpt lat="38.4756167" lon="16.28381"><ele>997.5</ele><time>2026-03-29T10:15:34.596Z</time></trkpt><trkpt lat="38.4757233" lon="16.2837417"><ele>997.25</ele><time>2026-03-29T10:15:35.596Z</time></trkpt><trkpt lat="38.4758267" lon="16.2836467"><ele>997.0</ele><time>2026-03-29T10:15:36.596Z</time></trkpt><trkpt lat="38.4759417" lon="16.283495"><ele>997.0</ele><time>2026-03-29T10:15:37.596Z</time></trkpt><trkpt lat="38.4760683" lon="16.2833133"><ele>997.0</ele><time>2026-03-29T10:15:38.596Z</time></trkpt><trkpt lat="38.4761617" lon="16.283175"><ele>997.0</ele><time>2026-03-29T10:15:39.596Z</time></trkpt><trkpt lat="38.47625" lon="16.283025"><ele>993.0</ele><time>2026-03-29T10:15:40.596Z</time></trkpt><trkpt lat="38.4763117" lon="16.2828783"><ele>989.0</ele><time>2026-03-29T10:15:41.596Z</time></trkpt><trkpt lat="38.476345" lon="16.282715"><ele>985.0</ele><time>2026-03-29T10:15:42.596Z</time></trkpt><trkpt lat="38.476355" lon="16.2825317"><ele>981.0</ele><time>2026-03-29T10:15:43.596Z</time></trkpt><trkpt lat="38.4763483" lon="16.2823483"><ele>982.25</ele><time>2026-03-29T10:15:44.596Z</time></trkpt><trkpt lat="38.4763333" lon="16.2821533"><ele>983.5</ele><time>2026-03-29T10:15:45.596Z</time></trkpt><trkpt lat="38.4763183" lon="16.2819783"><ele>984.75</ele><time>2026-03-29T10:15:46.596Z</time></trkpt><trkpt lat="38.4763183" lon="16.2818333"><ele>986.0</ele><time>2026-03-29T10:15:47.596Z</time></trkpt><trkpt lat="38.4763433" lon="16.2816817"><ele>986.0</ele><time>2026-03-29T10:15:48.596Z</time></trkpt><trkpt lat="38.476395" lon="16.28155"><ele>986.0</ele><time>2026-03-29T10:15:49.596Z</time></trkpt><trkpt lat="38.4764717" lon="16.281425"><ele>986.0</ele><time>2026-03-29T10:15:50.596Z</time></trkpt><trkpt lat="38.4765633" lon="16.2812967"><ele>986.0</ele><time>2026-03-29T10:15:51.596Z</time></trkpt><trkpt lat="38.47667" lon="16.2811633"><ele>989.3333333333334</ele><time>2026-03-29T10:15:52.596Z</time></trkpt><trkpt lat="38.47679" lon="16.2810167"><ele>992.6666666666667</ele><time>2026-03-29T10:15:53.596Z</time></trkpt><trkpt lat="38.476885" lon="16.2808467"><ele>996.0</ele><time>2026-03-29T10:15:54.596Z</time></trkpt><trkpt lat="38.476945" lon="16.2806733"><ele>996.25</ele><time>2026-03-29T10:15:55.596Z</time></trkpt><trkpt lat="38.4770083" lon="16.280515"><ele>996.5</ele><time>2026-03-29T10:15:56.596Z</time></trkpt><trkpt lat="38.4770817" lon="16.2803683"><ele>996.75</ele><time>2026-03-29T10:15:57.596Z</time></trkpt><trkpt lat="38.4771617" lon="16.280235"><ele>997.0</ele><time>2026-03-29T10:15:58.596Z</time></trkpt><trkpt lat="38.477235" lon="16.2801267"><ele>993.4000000000001</ele><time>2026-03-29T10:15:59.596Z</time></trkpt><trkpt lat="38.4773133" lon="16.2800483"><ele>989.8000000000001</ele><time>2026-03-29T10:16:00.597Z</time></trkpt><trkpt lat="38.477405" lon="16.28"><ele>986.2</ele><time>2026-03-29T10:16:01.596Z</time></trkpt><trkpt lat="38.47749" lon="16.2799867"><ele>982.6</ele><time>2026-03-29T10:16:02.596Z</time></trkpt><trkpt lat="38.477575" lon="16.2799867"><ele>979.0</ele><time>2026-03-29T10:16:03.596Z</time></trkpt><trkpt lat="38.4776583" lon="16.2800067"><ele>979.0</ele><time>2026-03-29T10:16:04.596Z</time></trkpt><trkpt lat="38.4777367" lon="16.28007"><ele>979.0000000000001</ele><time>2026-03-29T10:16:05.596Z</time></trkpt><trkpt lat="38.4778" lon="16.2801583"><ele>979.0000000000001</ele><time>2026-03-29T10:16:06.596Z</time></trkpt><trkpt lat="38.47787" lon="16.2802633"><ele>979.0</ele><time>2026-03-29T10:16:07.596Z</time></trkpt><trkpt lat="38.4779067" lon="16.28041"><ele>979.0</ele><time>2026-03-29T10:16:08.596Z</time></trkpt><trkpt lat="38.477915" lon="16.2805667"><ele>979.0</ele><time>2026-03-29T10:16:09.596Z</time></trkpt><trkpt lat="38.4779233" lon="16.28074"><ele>979.0</ele><time>2026-03-29T10:16:10.596Z</time></trkpt><trkpt lat="38.4779317" lon="16.2809567"><ele>979.0</ele><time>2026-03-29T10:16:11.596Z</time></trkpt><trkpt lat="38.47797" lon="16.2811667"><ele>979.6666666666666</ele><time>2026-03-29T10:16:12.596Z</time></trkpt><trkpt lat="38.4780267" lon="16.2813817"><ele>980.3333333333333</ele><time>2026-03-29T10:16:13.596Z</time></trkpt><trkpt lat="38.4780967" lon="16.28158"><ele>981.0</ele><time>2026-03-29T10:16:14.596Z</time></trkpt><trkpt lat="38.4781933" lon="16.2817733"><ele>981.0</ele><time>2026-03-29T10:16:15.596Z</time></trkpt><trkpt lat="38.4782933" lon="16.2819617"><ele>981.0</ele><time>2026-03-29T10:16:16.596Z</time></trkpt><trkpt lat="38.4783917" lon="16.2821467"><ele>981.0</ele><time>2026-03-29T10:16:17.596Z</time></trkpt><trkpt lat="38.4784983" lon="16.2823217"><ele>979.6666666666667</ele><time>2026-03-29T10:16:18.596Z</time></trkpt><trkpt lat="38.4785983" lon="16.2824933"><ele>978.3333333333334</ele><time>2026-03-29T10:16:19.596Z</time></trkpt><trkpt lat="38.4786883" lon="16.2826367"><ele>977.0</ele><time>2026-03-29T10:16:20.596Z</time></trkpt><trkpt lat="38.4787617" lon="16.28279"><ele>978.0</ele><time>2026-03-29T10:16:21.596Z</time></trkpt><trkpt lat="38.4788317" lon="16.282895"><ele>979.0</ele><time>2026-03-29T10:16:22.596Z</time></trkpt><trkpt lat="38.478915" lon="16.2829667"><ele>980.0</ele><time>2026-03-29T10:16:23.596Z</time></trkpt><trkpt lat="38.4790017" lon="16.2830167"><ele>981.0</ele><time>2026-03-29T10:16:24.596Z</time></trkpt><trkpt lat="38.4790983" lon="16.283055"><ele>982.0</ele><time>2026-03-29T10:16:25.596Z</time></trkpt><trkpt lat="38.4792117" lon="16.283075"><ele>982.0</ele><time>2026-03-29T10:16:26.596Z</time></trkpt><trkpt lat="38.4793417" lon="16.2830667"><ele>982.0</ele><time>2026-03-29T10:16:27.596Z</time></trkpt><trkpt lat="38.4794667" lon="16.283045"><ele>982.0</ele><time>2026-03-29T10:16:28.596Z</time></trkpt><trkpt lat="38.4795783" lon="16.283005"><ele>982.0</ele><time>2026-03-29T10:16:29.596Z</time></trkpt><trkpt lat="38.47968" lon="16.28293"><ele>980.5</ele><time>2026-03-29T10:16:30.596Z</time></trkpt><trkpt lat="38.479775" lon="16.282825"><ele>979.0</ele><time>2026-03-29T10:16:31.596Z</time></trkpt><trkpt lat="38.4798633" lon="16.2826917"><ele>977.5</ele><time>2026-03-29T10:16:32.596Z</time></trkpt><trkpt lat="38.4799517" lon="16.2825667"><ele>976.0</ele><time>2026-03-29T10:16:33.596Z</time></trkpt><trkpt lat="38.4800417" lon="16.2824567"><ele>976.0</ele><time>2026-03-29T10:16:34.596Z</time></trkpt><trkpt lat="38.4801433" lon="16.2823583"><ele>976.0</ele><time>2026-03-29T10:16:35.596Z</time></trkpt><trkpt lat="38.4802683" lon="16.2822767"><ele>976.0</ele><time>2026-03-29T10:16:36.597Z</time></trkpt><trkpt lat="38.4804017" lon="16.282195"><ele>976.0</ele><time>2026-03-29T10:16:37.597Z</time></trkpt><trkpt lat="38.480525" lon="16.2821283"><ele>976.0</ele><time>2026-03-29T10:16:38.597Z</time></trkpt><trkpt lat="38.4806517" lon="16.28205"><ele>976.0</ele><time>2026-03-29T10:16:39.597Z</time></trkpt><trkpt lat="38.48078" lon="16.2819767"><ele>976.0</ele><time>2026-03-29T10:16:40.597Z</time></trkpt><trkpt lat="38.4808967" lon="16.2819483"><ele>976.0</ele><time>2026-03-29T10:16:41.598Z</time></trkpt><trkpt lat="38.4810067" lon="16.281955"><ele>976.0</ele><time>2026-03-29T10:16:42.597Z</time></trkpt><trkpt lat="38.481145" lon="16.28198"><ele>976.0</ele><time>2026-03-29T10:16:43.597Z</time></trkpt><trkpt lat="38.4813217" lon="16.2819817"><ele>976.0</ele><time>2026-03-29T10:16:44.597Z</time></trkpt><trkpt lat="38.4814933" lon="16.2819933"><ele>976.3333333333333</ele><time>2026-03-29T10:16:45.597Z</time></trkpt><trkpt lat="38.481665" lon="16.2820133"><ele>976.6666666666667</ele><time>2026-03-29T10:16:46.597Z</time></trkpt><trkpt lat="38.4818433" lon="16.2820567"><ele>977.0</ele><time>2026-03-29T10:16:47.597Z</time></trkpt><trkpt lat="38.4819917" lon="16.2821033"><ele>977.5</ele><time>2026-03-29T10:16:48.598Z</time></trkpt><trkpt lat="38.4821317" lon="16.2821567"><ele>978.0</ele><time>2026-03-29T10:16:49.597Z</time></trkpt><trkpt lat="38.4822517" lon="16.282215"><ele>978.5</ele><time>2026-03-29T10:16:50.597Z</time></trkpt><trkpt lat="38.48234" lon="16.282295"><ele>979.0</ele><time>2026-03-29T10:16:51.597Z</time></trkpt><trkpt lat="38.4824117" lon="16.2823833"><ele>974.75</ele><time>2026-03-29T10:16:52.597Z</time></trkpt><trkpt lat="38.4824517" lon="16.2825117"><ele>970.5</ele><time>2026-03-29T10:16:53.597Z</time></trkpt><trkpt lat="38.48248" lon="16.28265"><ele>966.25</ele><time>2026-03-29T10:16:54.597Z</time></trkpt><trkpt lat="38.482515" lon="16.2828033"><ele>962.0</ele><time>2026-03-29T10:16:55.597Z</time></trkpt><trkpt lat="38.4825617" lon="16.282965"><ele>960.5</ele><time>2026-03-29T10:16:56.597Z</time></trkpt><trkpt lat="38.4826267" lon="16.2831267"><ele>959.0</ele><time>2026-03-29T10:16:57.597Z</time></trkpt><trkpt lat="38.4827167" lon="16.28329"><ele>957.5</ele><time>2026-03-29T10:16:58.597Z</time></trkpt><trkpt lat="38.4828067" lon="16.2834417"><ele>956.0</ele><time>2026-03-29T10:16:59.597Z</time></trkpt><trkpt lat="38.4828933" lon="16.28359"><ele>956.75</ele><time>2026-03-29T10:17:00.597Z</time></trkpt><trkpt lat="38.4829733" lon="16.2837217"><ele>957.5</ele><time>2026-03-29T10:17:01.597Z</time></trkpt><trkpt lat="38.48304" lon="16.2838567"><ele>958.25</ele><time>2026-03-29T10:17:02.597Z</time></trkpt><trkpt lat="38.483105" lon="16.2839983"><ele>959.0</ele><time>2026-03-29T10:17:03.597Z</time></trkpt><trkpt lat="38.48315" lon="16.2841433"><ele>959.0</ele><time>2026-03-29T10:17:04.597Z</time></trkpt><trkpt lat="38.4831933" lon="16.2842833"><ele>959.0000000000001</ele><time>2026-03-29T10:17:05.598Z</time></trkpt><trkpt lat="38.4832233" lon="16.2844"><ele>959.0000000000001</ele><time>2026-03-29T10:17:06.597Z</time></trkpt><trkpt lat="38.48328" lon="16.2844933"><ele>959.0</ele><time>2026-03-29T10:17:07.597Z</time></trkpt><trkpt lat="38.4833533" lon="16.2845633"><ele>959.0</ele><time>2026-03-29T10:17:08.597Z</time></trkpt><trkpt lat="38.483435" lon="16.2846133"><ele>959.0</ele><time>2026-03-29T10:17:09.597Z</time></trkpt><trkpt lat="38.48354" lon="16.2846417"><ele>959.0</ele><time>2026-03-29T10:17:10.597Z</time></trkpt><trkpt lat="38.48366" lon="16.2846633"><ele>959.0</ele><time>2026-03-29T10:17:11.597Z</time></trkpt><trkpt lat="38.48378" lon="16.2846933"><ele>959.0</ele><time>2026-03-29T10:17:12.597Z</time></trkpt><trkpt lat="38.4839117" lon="16.2847217"><ele>961.25</ele><time>2026-03-29T10:17:13.597Z</time></trkpt><trkpt lat="38.4840383" lon="16.28477"><ele>963.5</ele><time>2026-03-29T10:17:14.597Z</time></trkpt><trkpt lat="38.4841617" lon="16.2848233"><ele>965.75</ele><time>2026-03-29T10:17:15.597Z</time></trkpt><trkpt lat="38.4842683" lon="16.284885"><ele>968.0</ele><time>2026-03-29T10:17:16.597Z</time></trkpt><trkpt lat="38.484375" lon="16.28495"><ele>968.0</ele><time>2026-03-29T10:17:17.597Z</time></trkpt><trkpt lat="38.48449" lon="16.28502"><ele>968.0</ele><time>2026-03-29T10:17:18.597Z</time></trkpt><trkpt lat="38.4846283" lon="16.2851083"><ele>968.0</ele><time>2026-03-29T10:17:19.597Z</time></trkpt><trkpt lat="38.4847667" lon="16.2851933"><ele>968.0</ele><time>2026-03-29T10:17:20.597Z</time></trkpt><trkpt lat="38.4849017" lon="16.2852717"><ele>967.25</ele><time>2026-03-29T10:17:21.597Z</time></trkpt><trkpt lat="38.48501" lon="16.2853367"><ele>966.5</ele><time>2026-03-29T10:17:22.597Z</time></trkpt><trkpt lat="38.4851117" lon="16.2853967"><ele>965.75</ele><time>2026-03-29T10:17:23.597Z</time></trkpt><trkpt lat="38.4852233" lon="16.285435"><ele>965.0</ele><time>2026-03-29T10:17:24.597Z</time></trkpt><trkpt lat="38.4853467" lon="16.2854283"><ele>964.75</ele><time>2026-03-29T10:17:25.597Z</time></trkpt><trkpt lat="38.4854733" lon="16.285405"><ele>964.5</ele><time>2026-03-29T10:17:26.597Z</time></trkpt><trkpt lat="38.4856133" lon="16.2853683"><ele>964.25</ele><time>2026-03-29T10:17:27.597Z</time></trkpt><trkpt lat="38.4857483" lon="16.2853367"><ele>964.0</ele><time>2026-03-29T10:17:28.597Z</time></trkpt><trkpt lat="38.4858617" lon="16.2853167"><ele>964.0</ele><time>2026-03-29T10:17:29.598Z</time></trkpt><trkpt lat="38.48597" lon="16.2853033"><ele>964.0000000000001</ele><time>2026-03-29T10:17:30.597Z</time></trkpt><trkpt lat="38.4860667" lon="16.2853267"><ele>964.0000000000001</ele><time>2026-03-29T10:17:31.597Z</time></trkpt><trkpt lat="38.4861617" lon="16.28535"><ele>964.0</ele><time>2026-03-29T10:17:32.597Z</time></trkpt><trkpt lat="38.4862433" lon="16.2853833"><ele>964.0</ele><time>2026-03-29T10:17:33.597Z</time></trkpt><trkpt lat="38.4863167" lon="16.285405"><ele>964.3333333333333</ele><time>2026-03-29T10:17:34.597Z</time></trkpt><trkpt lat="38.4863817" lon="16.2854117"><ele>964.6666666666666</ele><time>2026-03-29T10:17:35.597Z</time></trkpt><trkpt lat="38.4864733" lon="16.2854133"><ele>965.0</ele><time>2026-03-29T10:17:37.597Z</time></trkpt><trkpt lat="38.4865367" lon="16.2853583"><ele>965.3333333333333</ele><time>2026-03-29T10:17:39.597Z</time></trkpt><trkpt lat="38.4865867" lon="16.2852283"><ele>965.6666666666666</ele><time>2026-03-29T10:24:40.58Z</time></trkpt><trkpt lat="38.486525" lon="16.28518"><ele>966.0</ele><time>2026-03-29T10:24:43.58Z</time></trkpt><trkpt lat="38.486455" lon="16.2852533"><ele>966.0</ele><time>2026-03-29T10:24:45.58Z</time></trkpt><trkpt lat="38.48637" lon="16.2853167"><ele>965.9999999999999</ele><time>2026-03-29T10:24:47.58Z</time></trkpt><trkpt lat="38.48627" lon="16.2853467"><ele>965.9999999999999</ele><time>2026-03-29T10:24:49.58Z</time></trkpt><trkpt lat="38.48615" lon="16.2853383"><ele>966.0</ele><time>2026-03-29T10:24:51.58Z</time></trkpt><trkpt lat="38.4860417" lon="16.2853217"><ele>966.0</ele><time>2026-03-29T10:24:53.58Z</time></trkpt><trkpt lat="38.4859533" lon="16.2853183"><ele>965.8</ele><time>2026-03-29T10:24:55.58Z</time></trkpt><trkpt lat="38.4858517" lon="16.2853067"><ele>965.5999999999999</ele><time>2026-03-29T10:24:57.58Z</time></trkpt><trkpt lat="38.4857267" lon="16.2853083"><ele>965.4</ele><time>2026-03-29T10:24:59.58Z</time></trkpt><trkpt lat="38.4856383" lon="16.2853317"><ele>965.2</ele><time>2026-03-29T10:25:00.58Z</time></trkpt><trkpt lat="38.485525" lon="16.28537"><ele>965.0</ele><time>2026-03-29T10:25:01.58Z</time></trkpt><trkpt lat="38.4854233" lon="16.28539"><ele>965.0</ele><time>2026-03-29T10:25:02.58Z</time></trkpt><trkpt lat="38.4853283" lon="16.285395"><ele>965.0</ele><time>2026-03-29T10:25:03.58Z</time></trkpt><trkpt lat="38.4852367" lon="16.2853967"><ele>965.0</ele><time>2026-03-29T10:25:04.58Z</time></trkpt><trkpt lat="38.4851483" lon="16.2853883"><ele>965.0</ele><time>2026-03-29T10:25:05.58Z</time></trkpt><trkpt lat="38.485065" lon="16.2853517"><ele>965.0</ele><time>2026-03-29T10:25:06.58Z</time></trkpt><trkpt lat="38.4849767" lon="16.2853033"><ele>965.0</ele><time>2026-03-29T10:25:07.58Z</time></trkpt><trkpt lat="38.4848833" lon="16.2852433"><ele>965.0</ele><time>2026-03-29T10:25:08.58Z</time></trkpt><trkpt lat="38.4847917" lon="16.28518"><ele>965.0</ele><time>2026-03-29T10:25:09.58Z</time></trkpt><trkpt lat="38.484705" lon="16.2851067"><ele>965.0</ele><time>2026-03-29T10:25:10.58Z</time></trkpt><trkpt lat="38.4846117" lon="16.28503"><ele>965.0</ele><time>2026-03-29T10:25:11.58Z</time></trkpt><trkpt lat="38.484515" lon="16.2849683"><ele>964.5</ele><time>2026-03-29T10:25:12.58Z</time></trkpt><trkpt lat="38.4844133" lon="16.2849083"><ele>964.0</ele><time>2026-03-29T10:25:13.58Z</time></trkpt><trkpt lat="38.48431" lon="16.28484"><ele>963.5</ele><time>2026-03-29T10:25:14.58Z</time></trkpt><trkpt lat="38.4841867" lon="16.2847583"><ele>963.0</ele><time>2026-03-29T10:25:15.58Z</time></trkpt><trkpt lat="38.4840667" lon="16.2846967"><ele>963.0</ele><time>2026-03-29T10:25:16.58Z</time></trkpt><trkpt lat="38.4839283" lon="16.2846433"><ele>963.0</ele><time>2026-03-29T10:25:17.58Z</time></trkpt><trkpt lat="38.483775" lon="16.2845967"><ele>963.0</ele><time>2026-03-29T10:25:18.58Z</time></trkpt><trkpt lat="38.4836333" lon="16.2845667"><ele>963.0</ele><time>2026-03-29T10:25:19.58Z</time></trkpt><trkpt lat="38.48351" lon="16.28454"><ele>962.3333333333334</ele><time>2026-03-29T10:25:20.58Z</time></trkpt><trkpt lat="38.4834033" lon="16.2845283"><ele>961.6666666666667</ele><time>2026-03-29T10:25:21.58Z</time></trkpt><trkpt lat="38.483325" lon="16.2844867"><ele>961.0</ele><time>2026-03-29T10:25:22.58Z</time></trkpt><trkpt lat="38.4832617" lon="16.2844517"><ele>960.3333333333334</ele><time>2026-03-29T10:25:23.58Z</time></trkpt><trkpt lat="38.4832067" lon="16.2843917"><ele>959.6666666666667</ele><time>2026-03-29T10:25:24.58Z</time></trkpt><trkpt lat="38.4831617" lon="16.284305"><ele>959.0</ele><time>2026-03-29T10:25:25.58Z</time></trkpt><trkpt lat="38.4831217" lon="16.2842017"><ele>959.0</ele><time>2026-03-29T10:25:26.58Z</time></trkpt><trkpt lat="38.4830767" lon="16.2840983"><ele>959.0</ele><time>2026-03-29T10:25:27.581Z</time></trkpt><trkpt lat="38.4830333" lon="16.2839833"><ele>959.0</ele><time>2026-03-29T10:25:28.58Z</time></trkpt><trkpt lat="38.4829667" lon="16.28383"><ele>959.0</ele><time>2026-03-29T10:25:29.58Z</time></trkpt><trkpt lat="38.4828933" lon="16.2836667"><ele>958.0</ele><time>2026-03-29T10:25:30.58Z</time></trkpt><trkpt lat="38.4828083" lon="16.283505"><ele>957.0</ele><time>2026-03-29T10:25:31.58Z</time></trkpt><trkpt lat="38.482725" lon="16.2833483"><ele>956.0</ele><time>2026-03-29T10:25:32.58Z</time></trkpt><trkpt lat="38.4826383" lon="16.2831933"><ele>957.5</ele><time>2026-03-29T10:25:33.58Z</time></trkpt><trkpt lat="38.48256" lon="16.28303"><ele>959.0</ele><time>2026-03-29T10:25:34.58Z</time></trkpt><trkpt lat="38.482505" lon="16.2828817"><ele>960.5</ele><time>2026-03-29T10:25:35.58Z</time></trkpt><trkpt lat="38.4824567" lon="16.2827217"><ele>962.0</ele><time>2026-03-29T10:25:36.58Z</time></trkpt><trkpt lat="38.48244" lon="16.28258"><ele>962.0</ele><time>2026-03-29T10:25:37.58Z</time></trkpt><trkpt lat="38.4824067" lon="16.2824483"><ele>962.0</ele><time>2026-03-29T10:25:38.58Z</time></trkpt><trkpt lat="38.4823633" lon="16.2823417"><ele>962.0</ele><time>2026-03-29T10:25:39.58Z</time></trkpt><trkpt lat="38.4823017" lon="16.2822533"><ele>962.0</ele><time>2026-03-29T10:25:40.58Z</time></trkpt><trkpt lat="38.4822167" lon="16.2821733"><ele>962.0</ele><time>2026-03-29T10:25:41.58Z</time></trkpt><trkpt lat="38.4821117" lon="16.2821233"><ele>967.0</ele><time>2026-03-29T10:25:42.58Z</time></trkpt><trkpt lat="38.4819883" lon="16.28208"><ele>972.0</ele><time>2026-03-29T10:25:43.58Z</time></trkpt><trkpt lat="38.48182" lon="16.2820417"><ele>977.0</ele><time>2026-03-29T10:25:44.58Z</time></trkpt><trkpt lat="38.48164" lon="16.28201"><ele>977.0</ele><time>2026-03-29T10:25:45.581Z</time></trkpt><trkpt lat="38.481445" lon="16.28199"><ele>977.0</ele><time>2026-03-29T10:25:46.58Z</time></trkpt><trkpt lat="38.4812717" lon="16.2819683"><ele>977.0</ele><time>2026-03-29T10:25:47.58Z</time></trkpt><trkpt lat="38.4811017" lon="16.281975"><ele>976.6666666666667</ele><time>2026-03-29T10:25:48.58Z</time></trkpt><trkpt lat="38.4809217" lon="16.282"><ele>976.3333333333333</ele><time>2026-03-29T10:25:49.581Z</time></trkpt><trkpt lat="38.480745" lon="16.282055"><ele>976.0</ele><time>2026-03-29T10:25:50.58Z</time></trkpt><trkpt lat="38.4805617" lon="16.2821367"><ele>976.0</ele><time>2026-03-29T10:25:51.58Z</time></trkpt><trkpt lat="38.4803867" lon="16.2822233"><ele>976.0</ele><time>2026-03-29T10:25:52.58Z</time></trkpt><trkpt lat="38.4802317" lon="16.2823083"><ele>976.0</ele><time>2026-03-29T10:25:53.58Z</time></trkpt><trkpt lat="38.480075" lon="16.2824533"><ele>976.0</ele><time>2026-03-29T10:25:54.58Z</time></trkpt><trkpt lat="38.4799517" lon="16.2825817"><ele>976.0</ele><time>2026-03-29T10:25:55.58Z</time></trkpt><trkpt lat="38.47985" lon="16.2827167"><ele>976.0</ele><time>2026-03-29T10:25:56.581Z</time></trkpt><trkpt lat="38.4797633" lon="16.2828133"><ele>976.0</ele><time>2026-03-29T10:25:57.58Z</time></trkpt><trkpt lat="38.479665" lon="16.2829117"><ele>977.5</ele><time>2026-03-29T10:25:58.58Z</time></trkpt><trkpt lat="38.4795583" lon="16.2829633"><ele>979.0</ele><time>2026-03-29T10:25:59.58Z</time></trkpt><trkpt lat="38.479435" lon="16.2830033"><ele>980.5</ele><time>2026-03-29T10:26:00.58Z</time></trkpt><trkpt lat="38.4792917" lon="16.2830267"><ele>982.0</ele><time>2026-03-29T10:26:01.58Z</time></trkpt><trkpt lat="38.4791533" lon="16.2830383"><ele>982.0</ele><time>2026-03-29T10:26:02.58Z</time></trkpt><trkpt lat="38.4790283" lon="16.28304"><ele>982.0</ele><time>2026-03-29T10:26:03.58Z</time></trkpt><trkpt lat="38.478935" lon="16.28303"><ele>982.0</ele><time>2026-03-29T10:26:04.58Z</time></trkpt><trkpt lat="38.478855" lon="16.28299"><ele>982.0</ele><time>2026-03-29T10:26:05.58Z</time></trkpt><trkpt lat="38.4787833" lon="16.2829217"><ele>982.0</ele><time>2026-03-29T10:26:06.58Z</time></trkpt><trkpt lat="38.478705" lon="16.2828317"><ele>981.75</ele><time>2026-03-29T10:26:07.58Z</time></trkpt><trkpt lat="38.4786317" lon="16.28269"><ele>981.5</ele><time>2026-03-29T10:26:08.58Z</time></trkpt><trkpt lat="38.478555" lon="16.2825517"><ele>981.25</ele><time>2026-03-29T10:26:09.581Z</time></trkpt><trkpt lat="38.4784583" lon="16.2823917"><ele>981.0</ele><time>2026-03-29T10:26:10.58Z</time></trkpt><trkpt lat="38.4783333" lon="16.28219"><ele>981.0</ele><time>2026-03-29T10:26:11.58Z</time></trkpt><trkpt lat="38.478215" lon="16.2819117"><ele>981.0</ele><time>2026-03-29T10:26:12.58Z</time></trkpt><trkpt lat="38.4781333" lon="16.2817233"><ele>981.0</ele><time>2026-03-29T10:26:13.58Z</time></trkpt><trkpt lat="38.4780683" lon="16.2815133"><ele>981.6666666666667</ele><time>2026-03-29T10:26:14.58Z</time></trkpt><trkpt lat="38.4780217" lon="16.2813017"><ele>982.3333333333334</ele><time>2026-03-29T10:26:15.58Z</time></trkpt><trkpt lat="38.47799" lon="16.28108"><ele>983.0</ele><time>2026-03-29T10:26:16.58Z</time></trkpt><trkpt lat="38.4779767" lon="16.28087"><ele>983.0</ele><time>2026-03-29T10:26:17.58Z</time></trkpt><trkpt lat="38.47798" lon="16.2806283"><ele>983.0</ele><time>2026-03-29T10:26:18.58Z</time></trkpt><trkpt lat="38.4779433" lon="16.2804667"><ele>983.0</ele><time>2026-03-29T10:26:19.581Z</time></trkpt><trkpt lat="38.4778983" lon="16.2803017"><ele>982.0</ele><time>2026-03-29T10:26:20.58Z</time></trkpt><trkpt lat="38.4778367" lon="16.2801533"><ele>981.0</ele><time>2026-03-29T10:26:21.58Z</time></trkpt><trkpt lat="38.4777583" lon="16.2800233"><ele>980.0</ele><time>2026-03-29T10:26:22.58Z</time></trkpt><trkpt lat="38.4776317" lon="16.2799583"><ele>979.0</ele><time>2026-03-29T10:26:23.58Z</time></trkpt><trkpt lat="38.4775233" lon="16.2799167"><ele>979.0</ele><time>2026-03-29T10:26:24.58Z</time></trkpt><trkpt lat="38.4774117" lon="16.2799317"><ele>979.0</ele><time>2026-03-29T10:26:25.58Z</time></trkpt><trkpt lat="38.4773117" lon="16.2799833"><ele>979.0</ele><time>2026-03-29T10:26:26.581Z</time></trkpt><trkpt lat="38.4772033" lon="16.2800883"><ele>979.0</ele><time>2026-03-29T10:26:27.58Z</time></trkpt><trkpt lat="38.477105" lon="16.2802417"><ele>984.6666666666666</ele><time>2026-03-29T10:26:28.581Z</time></trkpt><trkpt lat="38.4770017" lon="16.2804617"><ele>990.3333333333333</ele><time>2026-03-29T10:26:29.58Z</time></trkpt><trkpt lat="38.4769" lon="16.280725"><ele>996.0</ele><time>2026-03-29T10:26:30.58Z</time></trkpt><trkpt lat="38.4768067" lon="16.28096"><ele>996.0</ele><time>2026-03-29T10:26:31.58Z</time></trkpt><trkpt lat="38.476695" lon="16.2811667"><ele>996.0</ele><time>2026-03-29T10:26:32.58Z</time></trkpt><trkpt lat="38.4765767" lon="16.2813367"><ele>996.0</ele><time>2026-03-29T10:26:33.58Z</time></trkpt><trkpt lat="38.476455" lon="16.28147"><ele>993.5</ele><time>2026-03-29T10:26:34.58Z</time></trkpt><trkpt lat="38.4763617" lon="16.281595"><ele>991.0</ele><time>2026-03-29T10:26:35.58Z</time></trkpt><trkpt lat="38.4762767" lon="16.2817217"><ele>988.5</ele><time>2026-03-29T10:26:36.58Z</time></trkpt><trkpt lat="38.476235" lon="16.2818717"><ele>986.0</ele><time>2026-03-29T10:26:37.58Z</time></trkpt><trkpt lat="38.4762133" lon="16.2820167"><ele>990.0</ele><time>2026-03-29T10:26:38.58Z</time></trkpt><trkpt lat="38.4762017" lon="16.2821783"><ele>994.0</ele><time>2026-03-29T10:26:39.58Z</time></trkpt><trkpt lat="38.4762017" lon="16.2823717"><ele>998.0</ele><time>2026-03-29T10:26:40.58Z</time></trkpt><trkpt lat="38.47619" lon="16.28257"><ele>1002.0</ele><time>2026-03-29T10:26:41.58Z</time></trkpt><trkpt lat="38.4761883" lon="16.2827567"><ele>1002.0</ele><time>2026-03-29T10:26:42.58Z</time></trkpt><trkpt lat="38.47618" lon="16.28294"><ele>1002.0</ele><time>2026-03-29T10:26:43.58Z</time></trkpt><trkpt lat="38.4761283" lon="16.283125"><ele>1002.0</ele><time>2026-03-29T10:26:44.58Z</time></trkpt><trkpt lat="38.4760417" lon="16.2833"><ele>1000.3333333333333</ele><time>2026-03-29T10:26:45.58Z</time></trkpt><trkpt lat="38.4759367" lon="16.2834717"><ele>998.6666666666666</ele><time>2026-03-29T10:26:46.58Z</time></trkpt><trkpt lat="38.47581" lon="16.2836133"><ele>997.0</ele><time>2026-03-29T10:26:47.58Z</time></trkpt><trkpt lat="38.4756583" lon="16.283735"><ele>997.0</ele><time>2026-03-29T10:26:48.581Z</time></trkpt><trkpt lat="38.4754883" lon="16.2838217"><ele>997.0</ele><time>2026-03-29T10:26:49.58Z</time></trkpt><trkpt lat="38.4753133" lon="16.2838733"><ele>997.0</ele><time>2026-03-29T10:26:50.58Z</time></trkpt><trkpt lat="38.475145" lon="16.283905"><ele>998.0</ele><time>2026-03-29T10:26:51.58Z</time></trkpt><trkpt lat="38.4749917" lon="16.2839183"><ele>999.0</ele><time>2026-03-29T10:26:52.58Z</time></trkpt><trkpt lat="38.4748533" lon="16.28391"><ele>1000.0</ele><time>2026-03-29T10:26:53.58Z</time></trkpt><trkpt lat="38.47472" lon="16.2838767"><ele>1001.0</ele><time>2026-03-29T10:26:54.58Z</time></trkpt><trkpt lat="38.4746033" lon="16.28382"><ele>1001.0</ele><time>2026-03-29T10:26:55.58Z</time></trkpt><trkpt lat="38.4745033" lon="16.2837517"><ele>1001.0</ele><time>2026-03-29T10:26:56.58Z</time></trkpt><trkpt lat="38.4744133" lon="16.2836467"><ele>1001.0</ele><time>2026-03-29T10:26:57.58Z</time></trkpt><trkpt lat="38.4743417" lon="16.28353"><ele>1001.0</ele><time>2026-03-29T10:26:58.58Z</time></trkpt><trkpt lat="38.474275" lon="16.283365"><ele>1001.0</ele><time>2026-03-29T10:26:59.58Z</time></trkpt><trkpt lat="38.4742183" lon="16.2831417"><ele>1001.0</ele><time>2026-03-29T10:27:00.58Z</time></trkpt><trkpt lat="38.47417" lon="16.2828717"><ele>1001.0</ele><time>2026-03-29T10:27:01.58Z</time></trkpt><trkpt lat="38.4741283" lon="16.2826067"><ele>1002.3333333333334</ele><time>2026-03-29T10:27:02.58Z</time></trkpt><trkpt lat="38.4740833" lon="16.2824"><ele>1003.6666666666667</ele><time>2026-03-29T10:27:03.58Z</time></trkpt><trkpt lat="38.4740167" lon="16.28221"><ele>1005.0</ele><time>2026-03-29T10:27:04.58Z</time></trkpt><trkpt lat="38.4739483" lon="16.282035"><ele>1006.0</ele><time>2026-03-29T10:27:05.58Z</time></trkpt><trkpt lat="38.47385" lon="16.2818767"><ele>1007.0</ele><time>2026-03-29T10:27:06.58Z</time></trkpt><trkpt lat="38.4737083" lon="16.2817233"><ele>1008.0</ele><time>2026-03-29T10:27:07.58Z</time></trkpt><trkpt lat="38.4735367" lon="16.2815667"><ele>1007.0</ele><time>2026-03-29T10:27:08.58Z</time></trkpt><trkpt lat="38.47337" lon="16.2814167"><ele>1006.0</ele><time>2026-03-29T10:27:09.58Z</time></trkpt><trkpt lat="38.4732283" lon="16.2812817"><ele>1005.0</ele><time>2026-03-29T10:27:10.58Z</time></trkpt><trkpt lat="38.4731083" lon="16.2811683"><ele>1005.0</ele><time>2026-03-29T10:27:11.581Z</time></trkpt><trkpt lat="38.4730133" lon="16.2810683"><ele>1005.0</ele><time>2026-03-29T10:27:12.58Z</time></trkpt><trkpt lat="38.4729283" lon="16.2809883"><ele>1005.0</ele><time>2026-03-29T10:27:13.58Z</time></trkpt><trkpt lat="38.4728433" lon="16.2809517"><ele>1005.0</ele><time>2026-03-29T10:27:14.58Z</time></trkpt><trkpt lat="38.4727667" lon="16.2809417"><ele>1005.0</ele><time>2026-03-29T10:27:15.58Z</time></trkpt><trkpt lat="38.472695" lon="16.280965"><ele>1006.4</ele><time>2026-03-29T10:27:16.58Z</time></trkpt><trkpt lat="38.4726333" lon="16.2810083"><ele>1007.8</ele><time>2026-03-29T10:27:17.58Z</time></trkpt><trkpt lat="38.4725817" lon="16.28108"><ele>1009.2</ele><time>2026-03-29T10:27:18.58Z</time></trkpt><trkpt lat="38.47254" lon="16.2811783"><ele>1010.6</ele><time>2026-03-29T10:27:19.58Z</time></trkpt><trkpt lat="38.4725117" lon="16.2813083"><ele>1012.0</ele><time>2026-03-29T10:27:20.58Z</time></trkpt><trkpt lat="38.4724917" lon="16.28147"><ele>1012.3333333333333</ele><time>2026-03-29T10:27:21.581Z</time></trkpt><trkpt lat="38.47246" lon="16.2816317"><ele>1012.6666666666667</ele><time>2026-03-29T10:27:22.58Z</time></trkpt><trkpt lat="38.4724567" lon="16.281915"><ele>1013.0</ele><time>2026-03-29T10:27:23.58Z</time></trkpt><trkpt lat="38.4724383" lon="16.282145"><ele>1011.3333333333334</ele><time>2026-03-29T10:27:24.581Z</time></trkpt><trkpt lat="38.47243" lon="16.282395"><ele>1009.6666666666667</ele><time>2026-03-29T10:27:25.581Z</time></trkpt><trkpt lat="38.4724233" lon="16.2826667"><ele>1008.0</ele><time>2026-03-29T10:27:26.581Z</time></trkpt><trkpt lat="38.4723883" lon="16.2829217"><ele>1006.3333333333333</ele><time>2026-03-29T10:27:27.581Z</time></trkpt><trkpt lat="38.4723583" lon="16.283175"><ele>1004.6666666666666</ele><time>2026-03-29T10:27:28.581Z</time></trkpt><trkpt lat="38.4723217" lon="16.2833867"><ele>1003.0</ele><time>2026-03-29T10:27:29.581Z</time></trkpt><trkpt lat="38.47227" lon="16.28354"><ele>1003.0</ele><time>2026-03-29T10:27:30.582Z</time></trkpt><trkpt lat="38.4722" lon="16.28366"><ele>1003.0</ele><time>2026-03-29T10:27:31.581Z</time></trkpt><trkpt lat="38.4720933" lon="16.28375"><ele>1003.0</ele><time>2026-03-29T10:27:32.581Z</time></trkpt><trkpt lat="38.4719783" lon="16.283785"><ele>1003.0</ele><time>2026-03-29T10:27:33.581Z</time></trkpt><trkpt lat="38.4718583" lon="16.2837933"><ele>1008.75</ele><time>2026-03-29T10:27:34.581Z</time></trkpt><trkpt lat="38.4717317" lon="16.2837567"><ele>1014.5</ele><time>2026-03-29T10:27:35.582Z</time></trkpt><trkpt lat="38.4715867" lon="16.28369"><ele>1020.25</ele><time>2026-03-29T10:27:36.581Z</time></trkpt><trkpt lat="38.4714583" lon="16.2836567"><ele>1026.0</ele><time>2026-03-29T10:27:37.581Z</time></trkpt><trkpt lat="38.4713417" lon="16.28365"><ele>1026.5</ele><time>2026-03-29T10:27:38.581Z</time></trkpt><trkpt lat="38.4712233" lon="16.28368"><ele>1027.0</ele><time>2026-03-29T10:27:39.581Z</time></trkpt><trkpt lat="38.471115" lon="16.2837617"><ele>1027.5</ele><time>2026-03-29T10:27:40.581Z</time></trkpt><trkpt lat="38.4710167" lon="16.2838733"><ele>1028.0</ele><time>2026-03-29T10:27:41.581Z</time></trkpt><trkpt lat="38.4709217" lon="16.2840267"><ele>1028.0</ele><time>2026-03-29T10:27:42.581Z</time></trkpt><trkpt lat="38.470845" lon="16.284225"><ele>1028.0</ele><time>2026-03-29T10:27:43.581Z</time></trkpt><trkpt lat="38.4707467" lon="16.2844067"><ele>1028.0</ele><time>2026-03-29T10:27:44.581Z</time></trkpt><trkpt lat="38.470645" lon="16.284585"><ele>1028.0</ele><time>2026-03-29T10:27:45.581Z</time></trkpt><trkpt lat="38.47055" lon="16.28468"><ele>1028.0</ele><time>2026-03-29T10:27:46.581Z</time></trkpt><trkpt lat="38.47045" lon="16.28473"><ele>1028.0</ele><time>2026-03-29T10:27:47.581Z</time></trkpt><trkpt lat="38.47035" lon="16.2847467"><ele>1028.0</ele><time>2026-03-29T10:27:48.581Z</time></trkpt><trkpt lat="38.4702533" lon="16.2847217"><ele>1028.0</ele><time>2026-03-29T10:27:49.581Z</time></trkpt><trkpt lat="38.47017" lon="16.2846567"><ele>1026.6</ele><time>2026-03-29T10:27:50.581Z</time></trkpt><trkpt lat="38.4701167" lon="16.2845583"><ele>1025.1999999999998</ele><time>2026-03-29T10:27:51.581Z</time></trkpt><trkpt lat="38.4700767" lon="16.284445"><ele>1023.8</ele><time>2026-03-29T10:27:52.581Z</time></trkpt><trkpt lat="38.4700667" lon="16.2843083"><ele>1022.4</ele><time>2026-03-29T10:27:53.581Z</time></trkpt><trkpt lat="38.47008" lon="16.2841417"><ele>1021.0</ele><time>2026-03-29T10:27:54.581Z</time></trkpt><trkpt lat="38.4701217" lon="16.2839483"><ele>1024.3999999999999</ele><time>2026-03-29T10:27:55.581Z</time></trkpt><trkpt lat="38.470145" lon="16.2837667"><ele>1027.8</ele><time>2026-03-29T10:27:56.581Z</time></trkpt><trkpt lat="38.47014" lon="16.2836333"><ele>1031.1999999999998</ele><time>2026-03-29T10:27:57.581Z</time></trkpt><trkpt lat="38.4700933" lon="16.2835367"><ele>1034.6</ele><time>2026-03-29T10:27:58.581Z</time></trkpt><trkpt lat="38.4700217" lon="16.2834617"><ele>1038.0</ele><time>2026-03-29T10:27:59.581Z</time></trkpt><trkpt lat="38.4699367" lon="16.28341"><ele>1038.0</ele><time>2026-03-29T10:28:00.581Z</time></trkpt><trkpt lat="38.4698333" lon="16.2833983"><ele>1038.0</ele><time>2026-03-29T10:28:01.581Z</time></trkpt><trkpt lat="38.46973" lon="16.28344"><ele>1038.0</ele><time>2026-03-29T10:28:02.581Z</time></trkpt><trkpt lat="38.4696267" lon="16.2835317"><ele>1038.0</ele><time>2026-03-29T10:28:03.581Z</time></trkpt><trkpt lat="38.4695083" lon="16.283675"><ele>1037.2</ele><time>2026-03-29T10:28:04.581Z</time></trkpt><trkpt lat="38.46939" lon="16.283775"><ele>1036.4</ele><time>2026-03-29T10:28:05.581Z</time></trkpt><trkpt lat="38.469295" lon="16.28382"><ele>1035.6000000000001</ele><time>2026-03-29T10:28:06.581Z</time></trkpt><trkpt lat="38.4692017" lon="16.2838283"><ele>1034.8</ele><time>2026-03-29T10:28:07.581Z</time></trkpt><trkpt lat="38.4691267" lon="16.2838"><ele>1034.0</ele><time>2026-03-29T10:28:08.581Z</time></trkpt><trkpt lat="38.4690517" lon="16.28374"><ele>1034.0</ele><time>2026-03-29T10:28:09.581Z</time></trkpt><trkpt lat="38.4689783" lon="16.2836567"><ele>1034.0</ele><time>2026-03-29T10:28:10.581Z</time></trkpt><trkpt lat="38.4689167" lon="16.28354"><ele>1034.0</ele><time>2026-03-29T10:28:11.581Z</time></trkpt><trkpt lat="38.4688733" lon="16.28337"><ele>1034.0</ele><time>2026-03-29T10:28:12.581Z</time></trkpt><trkpt lat="38.4688417" lon="16.2831683"><ele>1035.5</ele><time>2026-03-29T10:28:13.581Z</time></trkpt><trkpt lat="38.4688417" lon="16.2829"><ele>1037.0</ele><time>2026-03-29T10:28:14.581Z</time></trkpt><trkpt lat="38.4688567" lon="16.2825883"><ele>1036.0</ele><time>2026-03-29T10:28:15.581Z</time></trkpt><trkpt lat="38.46886" lon="16.2822583"><ele>1035.0</ele><time>2026-03-29T10:28:16.581Z</time></trkpt><trkpt lat="38.4688567" lon="16.2819567"><ele>1035.0</ele><time>2026-03-29T10:28:17.581Z</time></trkpt><trkpt lat="38.46886" lon="16.281665"><ele>1035.0</ele><time>2026-03-29T10:28:18.581Z</time></trkpt><trkpt lat="38.4688733" lon="16.28139"><ele>1035.0</ele><time>2026-03-29T10:28:19.581Z</time></trkpt><trkpt lat="38.46888" lon="16.2811567"><ele>1034.25</ele><time>2026-03-29T10:28:20.581Z</time></trkpt><trkpt lat="38.4688683" lon="16.2809633"><ele>1033.5</ele><time>2026-03-29T10:28:21.581Z</time></trkpt><trkpt lat="38.4688433" lon="16.28079"><ele>1032.75</ele><time>2026-03-29T10:28:22.581Z</time></trkpt><trkpt lat="38.4687767" lon="16.280645"><ele>1032.0</ele><time>2026-03-29T10:28:23.581Z</time></trkpt><trkpt lat="38.4686733" lon="16.2805233"><ele>1028.75</ele><time>2026-03-29T10:28:24.581Z</time></trkpt><trkpt lat="38.4685633" lon="16.2804083"><ele>1025.5</ele><time>2026-03-29T10:28:25.582Z</time></trkpt><trkpt lat="38.4684783" lon="16.2802767"><ele>1022.25</ele><time>2026-03-29T10:28:26.581Z</time></trkpt><trkpt lat="38.468405" lon="16.2801283"><ele>1019.0</ele><time>2026-03-29T10:28:27.581Z</time></trkpt><trkpt lat="38.46836" lon="16.279945"><ele>1019.75</ele><time>2026-03-29T10:28:28.581Z</time></trkpt><trkpt lat="38.4683317" lon="16.2797517"><ele>1020.5</ele><time>2026-03-29T10:28:29.581Z</time></trkpt><trkpt lat="38.4682983" lon="16.27957"><ele>1021.25</ele><time>2026-03-29T10:28:30.581Z</time></trkpt><trkpt lat="38.4682433" lon="16.2794117"><ele>1022.0</ele><time>2026-03-29T10:28:31.581Z</time></trkpt><trkpt lat="38.4681617" lon="16.2792833"><ele>1022.0</ele><time>2026-03-29T10:28:32.581Z</time></trkpt><trkpt lat="38.4680483" lon="16.279175"><ele>1022.0</ele><time>2026-03-29T10:28:33.581Z</time></trkpt><trkpt lat="38.4679033" lon="16.2790767"><ele>1022.0</ele><time>2026-03-29T10:28:34.581Z</time></trkpt><trkpt lat="38.467735" lon="16.2789817"><ele>1022.3333333333334</ele><time>2026-03-29T10:28:35.581Z</time></trkpt><trkpt lat="38.467575" lon="16.278865"><ele>1022.6666666666667</ele><time>2026-03-29T10:28:36.581Z</time></trkpt><trkpt lat="38.4674333" lon="16.2787433"><ele>1023.0</ele><time>2026-03-29T10:28:37.581Z</time></trkpt><trkpt lat="38.467305" lon="16.2786017"><ele>1023.0</ele><time>2026-03-29T10:28:38.581Z</time></trkpt><trkpt lat="38.4671767" lon="16.278425"><ele>1023.0</ele><time>2026-03-29T10:28:39.581Z</time></trkpt><trkpt lat="38.467045" lon="16.27823"><ele>1023.0</ele><time>2026-03-29T10:28:40.581Z</time></trkpt><trkpt lat="38.4669167" lon="16.2780367"><ele>1021.6666666666667</ele><time>2026-03-29T10:28:41.581Z</time></trkpt><trkpt lat="38.466805" lon="16.2778533"><ele>1020.3333333333334</ele><time>2026-03-29T10:28:42.581Z</time></trkpt><trkpt lat="38.4667033" lon="16.27771"><ele>1019.0</ele><time>2026-03-29T10:28:43.581Z</time></trkpt><trkpt lat="38.4666283" lon="16.27758"><ele>1019.0</ele><time>2026-03-29T10:28:44.581Z</time></trkpt><trkpt lat="38.466555" lon="16.2774583"><ele>1019.0</ele><time>2026-03-29T10:28:45.581Z</time></trkpt><trkpt lat="38.4664933" lon="16.2773383"><ele>1019.0</ele><time>2026-03-29T10:28:46.581Z</time></trkpt><trkpt lat="38.4664383" lon="16.2772133"><ele>1019.0</ele><time>2026-03-29T10:28:47.581Z</time></trkpt><trkpt lat="38.466395" lon="16.27707"><ele>1019.3333333333334</ele><time>2026-03-29T10:28:48.581Z</time></trkpt><trkpt lat="38.4663783" lon="16.276885"><ele>1019.6666666666667</ele><time>2026-03-29T10:28:49.581Z</time></trkpt><trkpt lat="38.4664167" lon="16.2766017"><ele>1020.0</ele><time>2026-03-29T10:28:50.581Z</time></trkpt><trkpt lat="38.466445" lon="16.2763033"><ele>1019.3333333333333</ele><time>2026-03-29T10:28:51.581Z</time></trkpt><trkpt lat="38.466455" lon="16.276045"><ele>1018.6666666666666</ele><time>2026-03-29T10:28:52.581Z</time></trkpt><trkpt lat="38.4664533" lon="16.275825"><ele>1018.0</ele><time>2026-03-29T10:28:53.581Z</time></trkpt><trkpt lat="38.4664667" lon="16.2756383"><ele>1016.5</ele><time>2026-03-29T10:28:54.581Z</time></trkpt><trkpt lat="38.4664917" lon="16.2754667"><ele>1015.0</ele><time>2026-03-29T10:28:55.581Z</time></trkpt><trkpt lat="38.4665333" lon="16.2753017"><ele>1013.5</ele><time>2026-03-29T10:28:56.581Z</time></trkpt><trkpt lat="38.4665967" lon="16.2751317"><ele>1012.0</ele><time>2026-03-29T10:28:57.581Z</time></trkpt><trkpt lat="38.46668" lon="16.2749433"><ele>1010.5</ele><time>2026-03-29T10:28:58.581Z</time></trkpt><trkpt lat="38.4667633" lon="16.2747583"><ele>1009.0</ele><time>2026-03-29T10:28:59.581Z</time></trkpt><trkpt lat="38.4668333" lon="16.2745967"><ele>1007.5</ele><time>2026-03-29T10:29:00.581Z</time></trkpt><trkpt lat="38.46688" lon="16.2744767"><ele>1006.0</ele><time>2026-03-29T10:29:01.581Z</time></trkpt><trkpt lat="38.466925" lon="16.27436"><ele>1006.0</ele><time>2026-03-29T10:29:02.581Z</time></trkpt><trkpt lat="38.46695" lon="16.2742433"><ele>1005.9999999999999</ele><time>2026-03-29T10:29:03.581Z</time></trkpt><trkpt lat="38.466955" lon="16.2741333"><ele>1005.9999999999999</ele><time>2026-03-29T10:29:04.581Z</time></trkpt><trkpt lat="38.46694" lon="16.2740233"><ele>1006.0</ele><time>2026-03-29T10:29:05.581Z</time></trkpt><trkpt lat="38.4669017" lon="16.2739167"><ele>1006.0</ele><time>2026-03-29T10:29:06.581Z</time></trkpt><trkpt lat="38.4668183" lon="16.2738117"><ele>1008.0</ele><time>2026-03-29T10:29:07.581Z</time></trkpt><trkpt lat="38.4666983" lon="16.273725"><ele>1010.0</ele><time>2026-03-29T10:29:08.581Z</time></trkpt><trkpt lat="38.4665617" lon="16.27366"><ele>1012.0</ele><time>2026-03-29T10:29:09.581Z</time></trkpt><trkpt lat="38.4663933" lon="16.2736367"><ele>1012.0</ele><time>2026-03-29T10:29:10.581Z</time></trkpt><trkpt lat="38.4661833" lon="16.273655"><ele>1012.0</ele><time>2026-03-29T10:29:11.581Z</time></trkpt><trkpt lat="38.4659567" lon="16.2736767"><ele>1012.0</ele><time>2026-03-29T10:29:12.581Z</time></trkpt><trkpt lat="38.4657517" lon="16.273685"><ele>1012.0</ele><time>2026-03-29T10:29:13.581Z</time></trkpt><trkpt lat="38.465605" lon="16.2736967"><ele>1012.0</ele><time>2026-03-29T10:29:14.582Z</time></trkpt><trkpt lat="38.4654717" lon="16.2736683"><ele>1012.0</ele><time>2026-03-29T10:29:15.582Z</time></trkpt><trkpt lat="38.465345" lon="16.27362"><ele>1012.0</ele><time>2026-03-29T10:29:16.581Z</time></trkpt><trkpt lat="38.4652433" lon="16.2735433"><ele>1013.2</ele><time>2026-03-29T10:29:17.582Z</time></trkpt><trkpt lat="38.4651367" lon="16.2734783"><ele>1014.4000000000001</ele><time>2026-03-29T10:29:18.581Z</time></trkpt><trkpt lat="38.4650317" lon="16.27345"><ele>1015.5999999999999</ele><time>2026-03-29T10:29:19.581Z</time></trkpt><trkpt lat="38.4649317" lon="16.273475"><ele>1016.8</ele><time>2026-03-29T10:29:20.581Z</time></trkpt><trkpt lat="38.4648567" lon="16.27351"><ele>1018.0</ele><time>2026-03-29T10:29:21.581Z</time></trkpt><trkpt lat="38.4647917" lon="16.27357"><ele>1018.0</ele><time>2026-03-29T10:29:22.581Z</time></trkpt><trkpt lat="38.4647517" lon="16.2736467"><ele>1018.0</ele><time>2026-03-29T10:29:23.581Z</time></trkpt><trkpt lat="38.46474" lon="16.2737633"><ele>1018.0</ele><time>2026-03-29T10:29:24.581Z</time></trkpt><trkpt lat="38.4647617" lon="16.27391"><ele>1018.0</ele><time>2026-03-29T10:29:25.581Z</time></trkpt><trkpt lat="38.46482" lon="16.2740783"><ele>1018.0</ele><time>2026-03-29T10:29:26.581Z</time></trkpt><trkpt lat="38.4649133" lon="16.27427"><ele>1018.3333333333333</ele><time>2026-03-29T10:29:27.581Z</time></trkpt><trkpt lat="38.4649983" lon="16.2744933"><ele>1018.6666666666667</ele><time>2026-03-29T10:29:28.581Z</time></trkpt><trkpt lat="38.465055" lon="16.2747067"><ele>1019.0</ele><time>2026-03-29T10:29:29.581Z</time></trkpt><trkpt lat="38.46508" lon="16.27492"><ele>1019.75</ele><time>2026-03-29T10:29:30.581Z</time></trkpt><trkpt lat="38.4650717" lon="16.275115"><ele>1020.5</ele><time>2026-03-29T10:29:31.581Z</time></trkpt><trkpt lat="38.4650383" lon="16.2752833"><ele>1021.25</ele><time>2026-03-29T10:29:32.581Z</time></trkpt><trkpt lat="38.46498" lon="16.275435"><ele>1022.0</ele><time>2026-03-29T10:29:33.581Z</time></trkpt><trkpt lat="38.464885" lon="16.2756083"><ele>1022.5</ele><time>2026-03-29T10:29:34.581Z</time></trkpt><trkpt lat="38.4647817" lon="16.2757633"><ele>1023.0</ele><time>2026-03-29T10:29:35.581Z</time></trkpt><trkpt lat="38.464675" lon="16.275875"><ele>1023.5</ele><time>2026-03-29T10:29:36.581Z</time></trkpt><trkpt lat="38.4645633" lon="16.2759267"><ele>1024.0</ele><time>2026-03-29T10:29:37.581Z</time></trkpt><trkpt lat="38.46444" lon="16.2759533"><ele>1024.0</ele><time>2026-03-29T10:29:38.581Z</time></trkpt><trkpt lat="38.4642917" lon="16.2759533"><ele>1024.0</ele><time>2026-03-29T10:29:39.581Z</time></trkpt><trkpt lat="38.46413" lon="16.275925"><ele>1024.0</ele><time>2026-03-29T10:29:40.581Z</time></trkpt><trkpt lat="38.4639783" lon="16.2758767"><ele>1024.0</ele><time>2026-03-29T10:29:41.581Z</time></trkpt><trkpt lat="38.46384" lon="16.2758017"><ele>1024.0</ele><time>2026-03-29T10:29:42.581Z</time></trkpt><trkpt lat="38.463675" lon="16.2756867"><ele>1024.0</ele><time>2026-03-29T10:29:43.581Z</time></trkpt><trkpt lat="38.4634983" lon="16.2755533"><ele>1026.5</ele><time>2026-03-29T10:29:44.581Z</time></trkpt><trkpt lat="38.463295" lon="16.2754317"><ele>1029.0</ele><time>2026-03-29T10:29:45.581Z</time></trkpt><trkpt lat="38.4630533" lon="16.2753033"><ele>1031.0</ele><time>2026-03-29T10:29:46.581Z</time></trkpt><trkpt lat="38.4628033" lon="16.275205"><ele>1033.0</ele><time>2026-03-29T10:29:47.581Z</time></trkpt><trkpt lat="38.4625817" lon="16.275135"><ele>1033.0</ele><time>2026-03-29T10:29:48.581Z</time></trkpt><trkpt lat="38.4624017" lon="16.2750483"><ele>1033.0</ele><time>2026-03-29T10:29:49.581Z</time></trkpt><trkpt lat="38.4622233" lon="16.27494"><ele>1033.0</ele><time>2026-03-29T10:29:50.581Z</time></trkpt><trkpt lat="38.4620517" lon="16.274815"><ele>1035.0</ele><time>2026-03-29T10:29:51.581Z</time></trkpt><trkpt lat="38.4618983" lon="16.2747017"><ele>1037.0</ele><time>2026-03-29T10:29:52.581Z</time></trkpt><trkpt lat="38.4617567" lon="16.27459"><ele>1039.0</ele><time>2026-03-29T10:29:53.581Z</time></trkpt><trkpt lat="38.4616033" lon="16.2745"><ele>1039.0</ele><time>2026-03-29T10:29:54.581Z</time></trkpt><trkpt lat="38.4614617" lon="16.2744067"><ele>1039.0</ele><time>2026-03-29T10:29:55.581Z</time></trkpt><trkpt lat="38.4612883" lon="16.27436"><ele>1039.0</ele><time>2026-03-29T10:29:56.581Z</time></trkpt><trkpt lat="38.46109" lon="16.2743283"><ele>1037.3333333333333</ele><time>2026-03-29T10:29:57.581Z</time></trkpt><trkpt lat="38.460905" lon="16.27429"><ele>1035.6666666666667</ele><time>2026-03-29T10:29:58.581Z</time></trkpt><trkpt lat="38.4607517" lon="16.2742733"><ele>1034.0</ele><time>2026-03-29T10:29:59.581Z</time></trkpt><trkpt lat="38.4606" lon="16.27427"><ele>1034.0</ele><time>2026-03-29T10:30:00.581Z</time></trkpt><trkpt lat="38.4604767" lon="16.27424"><ele>1034.0</ele><time>2026-03-29T10:30:01.581Z</time></trkpt><trkpt lat="38.460385" lon="16.27419"><ele>1034.0</ele><time>2026-03-29T10:30:02.581Z</time></trkpt><trkpt lat="38.4603117" lon="16.2741033"><ele>1034.0</ele><time>2026-03-29T10:30:03.581Z</time></trkpt><trkpt lat="38.4602567" lon="16.27402"><ele>1034.0</ele><time>2026-03-29T10:30:04.581Z</time></trkpt><trkpt lat="38.4602217" lon="16.2739267"><ele>1031.25</ele><time>2026-03-29T10:30:05.581Z</time></trkpt><trkpt lat="38.46022" lon="16.2738067"><ele>1028.5</ele><time>2026-03-29T10:30:06.581Z</time></trkpt><trkpt lat="38.46026" lon="16.2736617"><ele>1025.75</ele><time>2026-03-29T10:30:07.581Z</time></trkpt><trkpt lat="38.46035" lon="16.2734967"><ele>1023.0</ele><time>2026-03-29T10:30:08.581Z</time></trkpt><trkpt lat="38.4604467" lon="16.273315"><ele>1024.75</ele><time>2026-03-29T10:30:09.581Z</time></trkpt><trkpt lat="38.460555" lon="16.2731717"><ele>1026.5</ele><time>2026-03-29T10:30:10.581Z</time></trkpt><trkpt lat="38.4606183" lon="16.27305"><ele>1028.25</ele><time>2026-03-29T10:30:11.581Z</time></trkpt><trkpt lat="38.4606667" lon="16.272935"><ele>1030.0</ele><time>2026-03-29T10:30:12.581Z</time></trkpt><trkpt lat="38.4606917" lon="16.2728317"><ele>1030.0</ele><time>2026-03-29T10:30:13.581Z</time></trkpt><trkpt lat="38.460695" lon="16.2727183"><ele>1030.0</ele><time>2026-03-29T10:30:14.581Z</time></trkpt><trkpt lat="38.4606683" lon="16.2725883"><ele>1030.0</ele><time>2026-03-29T10:30:15.581Z</time></trkpt><trkpt lat="38.4606133" lon="16.2724633"><ele>1030.0</ele><time>2026-03-29T10:30:16.581Z</time></trkpt><trkpt lat="38.4605233" lon="16.2722867"><ele>1031.3333333333333</ele><time>2026-03-29T10:30:17.581Z</time></trkpt><trkpt lat="38.46045" lon="16.2721233"><ele>1032.6666666666667</ele><time>2026-03-29T10:30:18.581Z</time></trkpt><trkpt lat="38.4603617" lon="16.271945"><ele>1034.0</ele><time>2026-03-29T10:30:19.582Z</time></trkpt><trkpt lat="38.4602283" lon="16.27177"><ele>1034.0</ele><time>2026-03-29T10:30:20.581Z</time></trkpt><trkpt lat="38.460055" lon="16.271595"><ele>1034.0</ele><time>2026-03-29T10:30:21.581Z</time></trkpt><trkpt lat="38.459885" lon="16.2714267"><ele>1034.0</ele><time>2026-03-29T10:30:22.581Z</time></trkpt><trkpt lat="38.4596683" lon="16.2712733"><ele>1036.0</ele><time>2026-03-29T10:30:23.581Z</time></trkpt><trkpt lat="38.4594367" lon="16.2711183"><ele>1038.0</ele><time>2026-03-29T10:30:24.581Z</time></trkpt><trkpt lat="38.4592133" lon="16.27098"><ele>1038.0</ele><time>2026-03-29T10:30:25.581Z</time></trkpt><trkpt lat="38.4590017" lon="16.2708617"><ele>1038.0</ele><time>2026-03-29T10:30:26.581Z</time></trkpt><trkpt lat="38.45877" lon="16.270765"><ele>1035.5</ele><time>2026-03-29T10:30:27.581Z</time></trkpt><trkpt lat="38.4585283" lon="16.2706617"><ele>1033.0</ele><time>2026-03-29T10:30:28.581Z</time></trkpt><trkpt lat="38.45827" lon="16.270545"><ele>1038.5</ele><time>2026-03-29T10:30:29.581Z</time></trkpt><trkpt lat="38.4580133" lon="16.270425"><ele>1044.0</ele><time>2026-03-29T10:30:30.581Z</time></trkpt><trkpt lat="38.45778" lon="16.2703217"><ele>1044.3333333333333</ele><time>2026-03-29T10:30:31.581Z</time></trkpt><trkpt lat="38.457575" lon="16.2702283"><ele>1044.6666666666665</ele><time>2026-03-29T10:30:32.581Z</time></trkpt><trkpt lat="38.4573933" lon="16.270145"><ele>1045.0</ele><time>2026-03-29T10:30:33.581Z</time></trkpt><trkpt lat="38.4572183" lon="16.2700367"><ele>1044.3333333333333</ele><time>2026-03-29T10:30:34.581Z</time></trkpt><trkpt lat="38.4570383" lon="16.2699033"><ele>1043.6666666666667</ele><time>2026-03-29T10:30:35.581Z</time></trkpt><trkpt lat="38.4568583" lon="16.2697633"><ele>1043.0</ele><time>2026-03-29T10:30:36.581Z</time></trkpt><trkpt lat="38.4567" lon="16.269635"><ele>1044.3333333333335</ele><time>2026-03-29T10:30:37.581Z</time></trkpt><trkpt lat="38.4565517" lon="16.269515"><ele>1045.6666666666667</ele><time>2026-03-29T10:30:38.581Z</time></trkpt><trkpt lat="38.4564183" lon="16.269405"><ele>1047.0</ele><time>2026-03-29T10:30:39.581Z</time></trkpt><trkpt lat="38.4563083" lon="16.2692933"><ele>1046.4</ele><time>2026-03-29T10:30:40.581Z</time></trkpt><trkpt lat="38.4561967" lon="16.2692217"><ele>1045.8000000000002</ele><time>2026-03-29T10:30:41.581Z</time></trkpt><trkpt lat="38.45609" lon="16.2691583"><ele>1045.2</ele><time>2026-03-29T10:30:42.581Z</time></trkpt><trkpt lat="38.4559917" lon="16.2691317"><ele>1044.6000000000001</ele><time>2026-03-29T10:30:43.581Z</time></trkpt><trkpt lat="38.4559083" lon="16.26913"><ele>1044.0</ele><time>2026-03-29T10:30:44.581Z</time></trkpt><trkpt lat="38.4558333" lon="16.269125"><ele>1044.0</ele><time>2026-03-29T10:30:45.581Z</time></trkpt><trkpt lat="38.455725" lon="16.2691417"><ele>1044.0</ele><time>2026-03-29T10:30:47.581Z</time></trkpt><trkpt lat="38.45564" lon="16.2691733"><ele>1044.0</ele><time>2026-03-29T10:30:49.581Z</time></trkpt><trkpt lat="38.4557117" lon="16.2692067"><ele>1044.0</ele><time>2026-03-29T10:39:03.582Z</time></trkpt><trkpt lat="38.45579" lon="16.2692267"><ele>1044.0</ele><time>2026-03-29T10:53:40.583Z</time></trkpt><trkpt lat="38.4558567" lon="16.2692817"><ele>1044.0</ele><time>2026-03-29T10:53:42.584Z</time></trkpt><trkpt lat="38.45596" lon="16.26936"><ele>1044.0</ele><time>2026-03-29T10:53:44.583Z</time></trkpt><trkpt lat="38.4560383" lon="16.2693867"><ele>1044.0</ele><time>2026-03-29T10:53:45.583Z</time></trkpt><trkpt lat="38.45612" lon="16.2694217"><ele>1044.0</ele><time>2026-03-29T10:53:46.583Z</time></trkpt><trkpt lat="38.45621" lon="16.2694767"><ele>1044.0</ele><time>2026-03-29T10:53:47.583Z</time></trkpt><trkpt lat="38.4563117" lon="16.269555"><ele>1044.0</ele><time>2026-03-29T10:53:48.583Z</time></trkpt><trkpt lat="38.4564317" lon="16.26965"><ele>1043.6666666666667</ele><time>2026-03-29T10:53:49.583Z</time></trkpt><trkpt lat="38.45657" lon="16.2697633"><ele>1043.3333333333335</ele><time>2026-03-29T10:53:50.583Z</time></trkpt><trkpt lat="38.4567" lon="16.2698783"><ele>1043.0</ele><time>2026-03-29T10:53:51.583Z</time></trkpt><trkpt lat="38.4568817" lon="16.2700117"><ele>1043.0</ele><time>2026-03-29T10:53:52.583Z</time></trkpt><trkpt lat="38.4570383" lon="16.2701267"><ele>1043.0</ele><time>2026-03-29T10:53:53.583Z</time></trkpt><trkpt lat="38.4571933" lon="16.2702183"><ele>1043.0</ele><time>2026-03-29T10:53:54.583Z</time></trkpt><trkpt lat="38.4573667" lon="16.2702967"><ele>1043.6666666666667</ele><time>2026-03-29T10:53:55.583Z</time></trkpt><trkpt lat="38.45753" lon="16.2703617"><ele>1044.3333333333333</ele><time>2026-03-29T10:53:56.583Z</time></trkpt><trkpt lat="38.457725" lon="16.27042"><ele>1045.0</ele><time>2026-03-29T10:53:57.583Z</time></trkpt><trkpt lat="38.457925" lon="16.270485"><ele>1044.6666666666665</ele><time>2026-03-29T10:53:58.583Z</time></trkpt><trkpt lat="38.4581117" lon="16.2705433"><ele>1044.3333333333333</ele><time>2026-03-29T10:53:59.583Z</time></trkpt><trkpt lat="38.4582833" lon="16.2706183"><ele>1044.0</ele><time>2026-03-29T10:54:00.583Z</time></trkpt><trkpt lat="38.4584383" lon="16.2707017"><ele>1042.0</ele><time>2026-03-29T10:54:01.583Z</time></trkpt><trkpt lat="38.4585917" lon="16.2707683"><ele>1040.0</ele><time>2026-03-29T10:54:02.583Z</time></trkpt><trkpt lat="38.4587383" lon="16.2708317"><ele>1038.0</ele><time>2026-03-29T10:54:03.583Z</time></trkpt><trkpt lat="38.458885" lon="16.27089"><ele>1038.0</ele><time>2026-03-29T10:54:04.583Z</time></trkpt><trkpt lat="38.4590317" lon="16.2709617"><ele>1038.0</ele><time>2026-03-29T10:54:05.583Z</time></trkpt><trkpt lat="38.4591683" lon="16.2710517"><ele>1038.0</ele><time>2026-03-29T10:54:06.583Z</time></trkpt><trkpt lat="38.4593117" lon="16.2711633"><ele>1038.0</ele><time>2026-03-29T10:54:07.583Z</time></trkpt><trkpt lat="38.4594567" lon="16.27128"><ele>1038.0</ele><time>2026-03-29T10:54:08.583Z</time></trkpt><trkpt lat="38.4596067" lon="16.2714067"><ele>1038.0</ele><time>2026-03-29T10:54:09.583Z</time></trkpt><trkpt lat="38.4597567" lon="16.2715267"><ele>1037.0</ele><time>2026-03-29T10:54:10.583Z</time></trkpt><trkpt lat="38.4598933" lon="16.2716317"><ele>1036.0</ele><time>2026-03-29T10:54:11.583Z</time></trkpt><trkpt lat="38.4600183" lon="16.27173"><ele>1035.0</ele><time>2026-03-29T10:54:12.583Z</time></trkpt><trkpt lat="38.4601317" lon="16.2718383"><ele>1034.0</ele><time>2026-03-29T10:54:13.583Z</time></trkpt><trkpt lat="38.4602367" lon="16.2719367"><ele>1034.0</ele><time>2026-03-29T10:54:14.583Z</time></trkpt><trkpt lat="38.460325" lon="16.272025"><ele>1034.0</ele><time>2026-03-29T10:54:15.583Z</time></trkpt><trkpt lat="38.4603967" lon="16.27212"><ele>1034.0</ele><time>2026-03-29T10:54:16.583Z</time></trkpt><trkpt lat="38.4604667" lon="16.2722233"><ele>1034.0</ele><time>2026-03-29T10:54:17.583Z</time></trkpt><trkpt lat="38.4605217" lon="16.2723333"><ele>1034.0</ele><time>2026-03-29T10:54:18.584Z</time></trkpt><trkpt lat="38.46057" lon="16.27244"><ele>1033.2</ele><time>2026-03-29T10:54:19.583Z</time></trkpt><trkpt lat="38.460615" lon="16.2725467"><ele>1032.4</ele><time>2026-03-29T10:54:20.583Z</time></trkpt><trkpt lat="38.4606533" lon="16.2726383"><ele>1031.6</ele><time>2026-03-29T10:54:21.583Z</time></trkpt><trkpt lat="38.460655" lon="16.2727483"><ele>1030.8</ele><time>2026-03-29T10:54:22.583Z</time></trkpt><trkpt lat="38.46064" lon="16.27288"><ele>1030.0</ele><time>2026-03-29T10:54:23.583Z</time></trkpt><trkpt lat="38.4606017" lon="16.2730183"><ele>1030.75</ele><time>2026-03-29T10:54:24.583Z</time></trkpt><trkpt lat="38.4605233" lon="16.27316"><ele>1031.5</ele><time>2026-03-29T10:54:25.583Z</time></trkpt><trkpt lat="38.4604267" lon="16.2733"><ele>1032.25</ele><time>2026-03-29T10:54:26.583Z</time></trkpt><trkpt lat="38.460335" lon="16.273455"><ele>1033.0</ele><time>2026-03-29T10:54:27.583Z</time></trkpt><trkpt lat="38.460255" lon="16.2736067"><ele>1031.6</ele><time>2026-03-29T10:54:28.583Z</time></trkpt><trkpt lat="38.4602233" lon="16.273735"><ele>1030.1999999999998</ele><time>2026-03-29T10:54:29.583Z</time></trkpt><trkpt lat="38.460215" lon="16.27386"><ele>1028.8</ele><time>2026-03-29T10:54:30.583Z</time></trkpt><trkpt lat="38.46023" lon="16.2739833"><ele>1027.3999999999999</ele><time>2026-03-29T10:54:31.583Z</time></trkpt><trkpt lat="38.4602733" lon="16.2740917"><ele>1026.0</ele><time>2026-03-29T10:54:32.583Z</time></trkpt><trkpt lat="38.4603383" lon="16.2742067"><ele>1026.0</ele><time>2026-03-29T10:54:33.583Z</time></trkpt><trkpt lat="38.4604233" lon="16.2742817"><ele>1026.0</ele><time>2026-03-29T10:54:34.584Z</time></trkpt><trkpt lat="38.4605267" lon="16.2743317"><ele>1026.0</ele><time>2026-03-29T10:54:35.583Z</time></trkpt><trkpt lat="38.4606283" lon="16.2743633"><ele>1026.0</ele><time>2026-03-29T10:54:36.583Z</time></trkpt><trkpt lat="38.46075" lon="16.274385"><ele>1026.0</ele><time>2026-03-29T10:54:37.583Z</time></trkpt><trkpt lat="38.46089" lon="16.2743967"><ele>1028.0</ele><time>2026-03-29T10:54:38.583Z</time></trkpt><trkpt lat="38.4610383" lon="16.2744083"><ele>1030.0</ele><time>2026-03-29T10:54:39.583Z</time></trkpt><trkpt lat="38.4611717" lon="16.2744317"><ele>1032.0</ele><time>2026-03-29T10:54:40.583Z</time></trkpt><trkpt lat="38.4613133" lon="16.274465"><ele>1034.0</ele><time>2026-03-29T10:54:41.584Z</time></trkpt><trkpt lat="38.4614533" lon="16.2745117"><ele>1034.0</ele><time>2026-03-29T10:54:42.583Z</time></trkpt><trkpt lat="38.46159" lon="16.274565"><ele>1034.0</ele><time>2026-03-29T10:54:43.583Z</time></trkpt><trkpt lat="38.461725" lon="16.27463"><ele>1034.0</ele><time>2026-03-29T10:54:44.583Z</time></trkpt><trkpt lat="38.46186" lon="16.2747067"><ele>1034.0</ele><time>2026-03-29T10:54:45.583Z</time></trkpt><trkpt lat="38.4619933" lon="16.2747717"><ele>1033.75</ele><time>2026-03-29T10:54:46.583Z</time></trkpt><trkpt lat="38.4621167" lon="16.2748717"><ele>1033.5</ele><time>2026-03-29T10:54:47.583Z</time></trkpt><trkpt lat="38.462235" lon="16.2749617"><ele>1033.25</ele><time>2026-03-29T10:54:48.583Z</time></trkpt><trkpt lat="38.4623517" lon="16.2750617"><ele>1033.0</ele><time>2026-03-29T10:54:49.583Z</time></trkpt><trkpt lat="38.4624817" lon="16.2751383"><ele>1033.0</ele><time>2026-03-29T10:54:50.583Z</time></trkpt><trkpt lat="38.4626167" lon="16.2751917"><ele>1033.0</ele><time>2026-03-29T10:54:51.583Z</time></trkpt><trkpt lat="38.4627433" lon="16.2752317"><ele>1033.0</ele><time>2026-03-29T10:54:52.583Z</time></trkpt><trkpt lat="38.4628817" lon="16.2752667"><ele>1033.0</ele><time>2026-03-29T10:54:53.583Z</time></trkpt><trkpt lat="38.4629983" lon="16.2753183"><ele>1032.0</ele><time>2026-03-29T10:54:54.583Z</time></trkpt><trkpt lat="38.4631117" lon="16.2753633"><ele>1031.0</ele><time>2026-03-29T10:54:55.583Z</time></trkpt><trkpt lat="38.4632233" lon="16.27542"><ele>1030.0</ele><time>2026-03-29T10:54:56.583Z</time></trkpt><trkpt lat="38.4633383" lon="16.2754767"><ele>1029.0</ele><time>2026-03-29T10:54:57.583Z</time></trkpt><trkpt lat="38.4634467" lon="16.2755583"><ele>1028.25</ele><time>2026-03-29T10:54:58.583Z</time></trkpt><trkpt lat="38.4635633" lon="16.2756383"><ele>1027.5</ele><time>2026-03-29T10:54:59.583Z</time></trkpt><trkpt lat="38.463665" lon="16.275715"><ele>1026.75</ele><time>2026-03-29T10:55:00.583Z</time></trkpt><trkpt lat="38.4637617" lon="16.2757933"><ele>1026.0</ele><time>2026-03-29T10:55:01.583Z</time></trkpt><trkpt lat="38.463855" lon="16.2758567"><ele>1025.5</ele><time>2026-03-29T10:55:02.583Z</time></trkpt><trkpt lat="38.46396" lon="16.2759167"><ele>1025.0</ele><time>2026-03-29T10:55:03.583Z</time></trkpt><trkpt lat="38.46408" lon="16.2759567"><ele>1024.5</ele><time>2026-03-29T10:55:04.583Z</time></trkpt><trkpt lat="38.4642083" lon="16.2759633"><ele>1024.0</ele><time>2026-03-29T10:55:05.583Z</time></trkpt><trkpt lat="38.46433" lon="16.275975"><ele>1024.0</ele><time>2026-03-29T10:55:06.583Z</time></trkpt><trkpt lat="38.464455" lon="16.27597"><ele>1024.0</ele><time>2026-03-29T10:55:07.583Z</time></trkpt><trkpt lat="38.4645633" lon="16.2759383"><ele>1024.0</ele><time>2026-03-29T10:55:08.583Z</time></trkpt><trkpt lat="38.464675" lon="16.2758817"><ele>1024.0</ele><time>2026-03-29T10:55:09.583Z</time></trkpt><trkpt lat="38.464775" lon="16.275795"><ele>1023.5</ele><time>2026-03-29T10:55:10.583Z</time></trkpt><trkpt lat="38.4648667" lon="16.275685"><ele>1023.0</ele><time>2026-03-29T10:55:11.583Z</time></trkpt><trkpt lat="38.464955" lon="16.2755517"><ele>1022.5</ele><time>2026-03-29T10:55:12.583Z</time></trkpt><trkpt lat="38.4650267" lon="16.2754117"><ele>1022.0</ele><time>2026-03-29T10:55:13.583Z</time></trkpt><trkpt lat="38.46508" lon="16.2752717"><ele>1022.0</ele><time>2026-03-29T10:55:14.583Z</time></trkpt><trkpt lat="38.4651117" lon="16.2751167"><ele>1022.0</ele><time>2026-03-29T10:55:15.584Z</time></trkpt><trkpt lat="38.4651183" lon="16.2749533"><ele>1022.0</ele><time>2026-03-29T10:55:16.583Z</time></trkpt><trkpt lat="38.4651133" lon="16.2747967"><ele>1022.0</ele><time>2026-03-29T10:55:17.583Z</time></trkpt><trkpt lat="38.4651" lon="16.2746433"><ele>1021.25</ele><time>2026-03-29T10:55:18.583Z</time></trkpt><trkpt lat="38.465075" lon="16.2744917"><ele>1020.5</ele><time>2026-03-29T10:55:19.583Z</time></trkpt><trkpt lat="38.46503" lon="16.274335"><ele>1019.75</ele><time>2026-03-29T10:55:20.583Z</time></trkpt><trkpt lat="38.4649633" lon="16.27419"><ele>1019.0</ele><time>2026-03-29T10:55:21.583Z</time></trkpt><trkpt lat="38.46491" lon="16.27406"><ele>1019.0000000000001</ele><time>2026-03-29T10:55:22.583Z</time></trkpt><trkpt lat="38.4648717" lon="16.2739467"><ele>1019.0</ele><time>2026-03-29T10:55:23.583Z</time></trkpt><trkpt lat="38.464835" lon="16.2738417"><ele>1019.0</ele><time>2026-03-29T10:55:24.583Z</time></trkpt><trkpt lat="38.4648183" lon="16.27374"><ele>1019.0</ele><time>2026-03-29T10:55:25.583Z</time></trkpt><trkpt lat="38.4648133" lon="16.2736417"><ele>1019.0000000000001</ele><time>2026-03-29T10:55:26.583Z</time></trkpt><trkpt lat="38.464825" lon="16.2735583"><ele>1019.0</ele><time>2026-03-29T10:55:27.583Z</time></trkpt><trkpt lat="38.4648633" lon="16.2734917"><ele>1018.8000000000001</ele><time>2026-03-29T10:55:28.583Z</time></trkpt><trkpt lat="38.4649833" lon="16.2734467"><ele>1018.6000000000001</ele><time>2026-03-29T10:55:30.583Z</time></trkpt><trkpt lat="38.4650633" lon="16.273475"><ele>1018.4</ele><time>2026-03-29T10:55:31.583Z</time></trkpt><trkpt lat="38.465165" lon="16.273535"><ele>1018.2</ele><time>2026-03-29T10:55:32.583Z</time></trkpt><trkpt lat="38.4652583" lon="16.2735917"><ele>1018.0</ele><time>2026-03-29T10:55:33.583Z</time></trkpt><trkpt lat="38.465355" lon="16.2736583"><ele>1016.5</ele><time>2026-03-29T10:55:34.583Z</time></trkpt><trkpt lat="38.4654683" lon="16.273705"><ele>1015.0</ele><time>2026-03-29T10:55:35.583Z</time></trkpt><trkpt lat="38.4655817" lon="16.27374"><ele>1013.5</ele><time>2026-03-29T10:55:36.583Z</time></trkpt><trkpt lat="38.4657117" lon="16.2737567"><ele>1012.0</ele><time>2026-03-29T10:55:37.583Z</time></trkpt><trkpt lat="38.46585" lon="16.273745"><ele>1012.0</ele><time>2026-03-29T10:55:38.583Z</time></trkpt><trkpt lat="38.4660183" lon="16.27374"><ele>1012.0</ele><time>2026-03-29T10:55:39.583Z</time></trkpt><trkpt lat="38.4661767" lon="16.2737333"><ele>1012.0</ele><time>2026-03-29T10:55:40.583Z</time></trkpt><trkpt lat="38.4663283" lon="16.2737367"><ele>1012.0</ele><time>2026-03-29T10:55:41.583Z</time></trkpt><trkpt lat="38.4664733" lon="16.2737383"><ele>1012.0</ele><time>2026-03-29T10:55:42.583Z</time></trkpt><trkpt lat="38.46659" lon="16.2737633"><ele>1012.0</ele><time>2026-03-29T10:55:43.583Z</time></trkpt><trkpt lat="38.466685" lon="16.2738217"><ele>1012.0</ele><time>2026-03-29T10:55:44.583Z</time></trkpt><trkpt lat="38.46678" lon="16.2738967"><ele>1010.9999999999999</ele><time>2026-03-29T10:55:45.583Z</time></trkpt><trkpt lat="38.4668583" lon="16.27399"><ele>1010.0</ele><time>2026-03-29T10:55:46.583Z</time></trkpt><trkpt lat="38.46691" lon="16.2740633"><ele>1009.0</ele><time>2026-03-29T10:55:47.583Z</time></trkpt><trkpt lat="38.466955" lon="16.2741283"><ele>1008.0</ele><time>2026-03-29T10:55:48.583Z</time></trkpt><trkpt lat="38.4670033" lon="16.27427"><ele>1006.9999999999999</ele><time>2026-03-29T10:55:50.583Z</time></trkpt><trkpt lat="38.4669917" lon="16.27436"><ele>1006.0</ele><time>2026-03-29T10:55:51.583Z</time></trkpt><trkpt lat="38.466965" lon="16.2744517"><ele>1006.0</ele><time>2026-03-29T10:55:52.583Z</time></trkpt><trkpt lat="38.4669283" lon="16.2745517"><ele>1005.9999999999999</ele><time>2026-03-29T10:55:53.583Z</time></trkpt><trkpt lat="38.46688" lon="16.2746533"><ele>1005.9999999999999</ele><time>2026-03-29T10:55:54.583Z</time></trkpt><trkpt lat="38.4668317" lon="16.2747567"><ele>1006.0</ele><time>2026-03-29T10:55:55.583Z</time></trkpt><trkpt lat="38.466775" lon="16.274875"><ele>1006.0</ele><time>2026-03-29T10:55:56.583Z</time></trkpt><trkpt lat="38.4665867" lon="16.2751467"><ele>1007.5</ele><time>2026-03-29T10:55:57.583Z</time></trkpt><trkpt lat="38.4665217" lon="16.2753183"><ele>1009.0</ele><time>2026-03-29T10:55:58.583Z</time></trkpt><trkpt lat="38.4664733" lon="16.2754817"><ele>1010.5</ele><time>2026-03-29T10:55:59.583Z</time></trkpt><trkpt lat="38.4664367" lon="16.2756567"><ele>1012.0</ele><time>2026-03-29T10:56:00.583Z</time></trkpt><trkpt lat="38.4664367" lon="16.2758667"><ele>1014.0</ele><time>2026-03-29T10:56:01.583Z</time></trkpt><trkpt lat="38.4664433" lon="16.2760917"><ele>1016.0</ele><time>2026-03-29T10:56:02.583Z</time></trkpt><trkpt lat="38.46648" lon="16.2763917"><ele>1018.0</ele><time>2026-03-29T10:56:03.583Z</time></trkpt><trkpt lat="38.4664983" lon="16.2766167"><ele>1018.3333333333333</ele><time>2026-03-29T10:56:04.583Z</time></trkpt><trkpt lat="38.4665133" lon="16.2768383"><ele>1018.6666666666667</ele><time>2026-03-29T10:56:05.583Z</time></trkpt><trkpt lat="38.4665417" lon="16.2771033"><ele>1019.0</ele><time>2026-03-29T10:56:06.583Z</time></trkpt><trkpt lat="38.4665783" lon="16.2772883"><ele>1019.0</ele><time>2026-03-29T10:56:07.583Z</time></trkpt><trkpt lat="38.46664" lon="16.277475"><ele>1019.0</ele><time>2026-03-29T10:56:08.583Z</time></trkpt><trkpt lat="38.466725" lon="16.2776367"><ele>1019.0</ele><time>2026-03-29T10:56:09.583Z</time></trkpt><trkpt lat="38.4668333" lon="16.2778017"><ele>1019.0</ele><time>2026-03-29T10:56:10.583Z</time></trkpt><trkpt lat="38.4669517" lon="16.2779617"><ele>1019.0</ele><time>2026-03-29T10:56:11.583Z</time></trkpt><trkpt lat="38.4670717" lon="16.2781233"><ele>1019.0</ele><time>2026-03-29T10:56:12.583Z</time></trkpt><trkpt lat="38.467195" lon="16.2782867"><ele>1020.3333333333334</ele><time>2026-03-29T10:56:13.583Z</time></trkpt><trkpt lat="38.4673017" lon="16.2784517"><ele>1021.6666666666667</ele><time>2026-03-29T10:56:14.583Z</time></trkpt><trkpt lat="38.4674067" lon="16.2786183"><ele>1023.0</ele><time>2026-03-29T10:56:15.583Z</time></trkpt><trkpt lat="38.4674983" lon="16.2788017"><ele>1022.75</ele><time>2026-03-29T10:56:16.583Z</time></trkpt><trkpt lat="38.4675917" lon="16.278945"><ele>1022.5</ele><time>2026-03-29T10:56:17.583Z</time></trkpt><trkpt lat="38.4677067" lon="16.27905"><ele>1022.25</ele><time>2026-03-29T10:56:18.583Z</time></trkpt><trkpt lat="38.4678233" lon="16.2791317"><ele>1022.0</ele><time>2026-03-29T10:56:19.583Z</time></trkpt><trkpt lat="38.4679467" lon="16.27921"><ele>1022.0</ele><time>2026-03-29T10:56:20.583Z</time></trkpt><trkpt lat="38.4680533" lon="16.279265"><ele>1022.0</ele><time>2026-03-29T10:56:21.583Z</time></trkpt><trkpt lat="38.46814" lon="16.2793283"><ele>1022.0</ele><time>2026-03-29T10:56:22.583Z</time></trkpt><trkpt lat="38.4682167" lon="16.2793917"><ele>1022.0</ele><time>2026-03-29T10:56:23.583Z</time></trkpt><trkpt lat="38.4682717" lon="16.2794917"><ele>1022.0</ele><time>2026-03-29T10:56:24.583Z</time></trkpt><trkpt lat="38.468335" lon="16.2796033"><ele>1022.0</ele><time>2026-03-29T10:56:25.583Z</time></trkpt><trkpt lat="38.4683717" lon="16.2797283"><ele>1022.0</ele><time>2026-03-29T10:56:26.583Z</time></trkpt><trkpt lat="38.468385" lon="16.2798867"><ele>1022.0</ele><time>2026-03-29T10:56:27.584Z</time></trkpt><trkpt lat="38.4683867" lon="16.2800467"><ele>1022.0</ele><time>2026-03-29T10:56:28.583Z</time></trkpt><trkpt lat="38.468405" lon="16.2802"><ele>1021.25</ele><time>2026-03-29T10:56:29.583Z</time></trkpt><trkpt lat="38.46845" lon="16.2803283"><ele>1020.5</ele><time>2026-03-29T10:56:30.583Z</time></trkpt><trkpt lat="38.4685167" lon="16.280445"><ele>1019.75</ele><time>2026-03-29T10:56:31.583Z</time></trkpt><trkpt lat="38.4686017" lon="16.280545"><ele>1019.0</ele><time>2026-03-29T10:56:32.583Z</time></trkpt><trkpt lat="38.46869" lon="16.280645"><ele>1017.5</ele><time>2026-03-29T10:56:33.583Z</time></trkpt><trkpt lat="38.468765" lon="16.28076"><ele>1016.0</ele><time>2026-03-29T10:56:34.583Z</time></trkpt><trkpt lat="38.4688267" lon="16.280885"><ele>1014.5</ele><time>2026-03-29T10:56:35.583Z</time></trkpt><trkpt lat="38.46886" lon="16.2810133"><ele>1013.0</ele><time>2026-03-29T10:56:36.583Z</time></trkpt><trkpt lat="38.4688683" lon="16.281155"><ele>1012.25</ele><time>2026-03-29T10:56:37.583Z</time></trkpt><trkpt lat="38.4688533" lon="16.2813133"><ele>1011.5</ele><time>2026-03-29T10:56:38.583Z</time></trkpt><trkpt lat="38.4688167" lon="16.2814683"><ele>1010.75</ele><time>2026-03-29T10:56:39.583Z</time></trkpt><trkpt lat="38.46878" lon="16.28163"><ele>1010.0</ele><time>2026-03-29T10:56:40.583Z</time></trkpt><trkpt lat="38.4687517" lon="16.281805"><ele>1010.0</ele><time>2026-03-29T10:56:41.583Z</time></trkpt><trkpt lat="38.46875" lon="16.2819967"><ele>1010.0</ele><time>2026-03-29T10:56:42.583Z</time></trkpt><trkpt lat="38.4687683" lon="16.2821967"><ele>1010.0</ele><time>2026-03-29T10:56:43.583Z</time></trkpt><trkpt lat="38.4687983" lon="16.2823983"><ele>1019.0</ele><time>2026-03-29T10:56:44.583Z</time></trkpt><trkpt lat="38.4688317" lon="16.2826033"><ele>1028.0</ele><time>2026-03-29T10:56:45.583Z</time></trkpt><trkpt lat="38.468865" lon="16.2828083"><ele>1037.0</ele><time>2026-03-29T10:56:46.583Z</time></trkpt><trkpt lat="38.4688883" lon="16.2829967"><ele>1036.25</ele><time>2026-03-29T10:56:47.583Z</time></trkpt><trkpt lat="38.468915" lon="16.28316"><ele>1035.5</ele><time>2026-03-29T10:56:48.583Z</time></trkpt><trkpt lat="38.46895" lon="16.2833017"><ele>1034.75</ele><time>2026-03-29T10:56:49.583Z</time></trkpt><trkpt lat="38.4689933" lon="16.2834483"><ele>1034.0</ele><time>2026-03-29T10:56:50.583Z</time></trkpt><trkpt lat="38.469045" lon="16.283585"><ele>1034.0</ele><time>2026-03-29T10:56:51.583Z</time></trkpt><trkpt lat="38.4691083" lon="16.2837"><ele>1034.0</ele><time>2026-03-29T10:56:52.583Z</time></trkpt><trkpt lat="38.46918" lon="16.283775"><ele>1034.0</ele><time>2026-03-29T10:56:53.583Z</time></trkpt><trkpt lat="38.4692533" lon="16.2838183"><ele>1034.0</ele><time>2026-03-29T10:56:54.583Z</time></trkpt><trkpt lat="38.4693333" lon="16.2838367"><ele>1034.0</ele><time>2026-03-29T10:56:55.583Z</time></trkpt><trkpt lat="38.46942" lon="16.2838367"><ele>1034.0</ele><time>2026-03-29T10:56:56.583Z</time></trkpt><trkpt lat="38.4695117" lon="16.2837967"><ele>1034.0</ele><time>2026-03-29T10:56:57.583Z</time></trkpt><trkpt lat="38.4696017" lon="16.28372"><ele>1034.0</ele><time>2026-03-29T10:56:58.583Z</time></trkpt><trkpt lat="38.4696983" lon="16.28363"><ele>1034.0</ele><time>2026-03-29T10:56:59.583Z</time></trkpt><trkpt lat="38.469785" lon="16.28356"><ele>1034.0</ele><time>2026-03-29T10:57:00.583Z</time></trkpt><trkpt lat="38.4698767" lon="16.2835033"><ele>1034.6666666666667</ele><time>2026-03-29T10:57:01.583Z</time></trkpt><trkpt lat="38.4699567" lon="16.2834717"><ele>1035.3333333333335</ele><time>2026-03-29T10:57:02.583Z</time></trkpt><trkpt lat="38.4700267" lon="16.283485"><ele>1036.0</ele><time>2026-03-29T10:57:03.583Z</time></trkpt><trkpt lat="38.4700833" lon="16.2835233"><ele>1036.6666666666667</ele><time>2026-03-29T10:57:04.583Z</time></trkpt><trkpt lat="38.470145" lon="16.2836533"><ele>1037.3333333333333</ele><time>2026-03-29T10:57:06.583Z</time></trkpt><trkpt lat="38.47014" lon="16.2837683"><ele>1038.0</ele><time>2026-03-29T10:57:07.583Z</time></trkpt><trkpt lat="38.47012" lon="16.283905"><ele>1033.75</ele><time>2026-03-29T10:57:08.583Z</time></trkpt><trkpt lat="38.47009" lon="16.2840767"><ele>1029.5</ele><time>2026-03-29T10:57:09.583Z</time></trkpt><trkpt lat="38.4700767" lon="16.2842617"><ele>1025.25</ele><time>2026-03-29T10:57:10.583Z</time></trkpt><trkpt lat="38.4700833" lon="16.2844367"><ele>1021.0</ele><time>2026-03-29T10:57:11.583Z</time></trkpt><trkpt lat="38.4701233" lon="16.2845883"><ele>1021.0</ele><time>2026-03-29T10:57:12.583Z</time></trkpt><trkpt lat="38.4701883" lon="16.2846883"><ele>1020.9999999999999</ele><time>2026-03-29T10:57:13.583Z</time></trkpt><trkpt lat="38.4702717" lon="16.2847483"><ele>1020.9999999999999</ele><time>2026-03-29T10:57:14.583Z</time></trkpt><trkpt lat="38.4703583" lon="16.28478"><ele>1021.0</ele><time>2026-03-29T10:57:15.583Z</time></trkpt><trkpt lat="38.47045" lon="16.2847733"><ele>1021.0</ele><time>2026-03-29T10:57:16.583Z</time></trkpt><trkpt lat="38.47053" lon="16.2847233"><ele>1022.4</ele><time>2026-03-29T10:57:17.583Z</time></trkpt><trkpt lat="38.4706083" lon="16.2846567"><ele>1023.8</ele><time>2026-03-29T10:57:18.584Z</time></trkpt><trkpt lat="38.470685" lon="16.28459"><ele>1025.1999999999998</ele><time>2026-03-29T10:57:19.583Z</time></trkpt><trkpt lat="38.4707633" lon="16.284495"><ele>1026.6</ele><time>2026-03-29T10:57:20.583Z</time></trkpt><trkpt lat="38.4708417" lon="16.2843767"><ele>1028.0</ele><time>2026-03-29T10:57:21.583Z</time></trkpt><trkpt lat="38.470905" lon="16.2842467"><ele>1028.0</ele><time>2026-03-29T10:57:22.583Z</time></trkpt><trkpt lat="38.47097" lon="16.2841133"><ele>1028.0</ele><time>2026-03-29T10:57:23.583Z</time></trkpt><trkpt lat="38.4710283" lon="16.2839733"><ele>1028.0</ele><time>2026-03-29T10:57:24.584Z</time></trkpt><trkpt lat="38.4710933" lon="16.2838583"><ele>1028.0</ele><time>2026-03-29T10:57:25.583Z</time></trkpt><trkpt lat="38.4711667" lon="16.2837733"><ele>1027.6</ele><time>2026-03-29T10:57:26.583Z</time></trkpt><trkpt lat="38.471245" lon="16.283715"><ele>1027.1999999999998</ele><time>2026-03-29T10:57:27.583Z</time></trkpt><trkpt lat="38.47132" lon="16.28368"><ele>1026.8</ele><time>2026-03-29T10:57:28.583Z</time></trkpt><trkpt lat="38.47141" lon="16.2836667"><ele>1026.3999999999999</ele><time>2026-03-29T10:57:29.583Z</time></trkpt><trkpt lat="38.47151" lon="16.2836767"><ele>1026.0</ele><time>2026-03-29T10:57:30.583Z</time></trkpt><trkpt lat="38.4716133" lon="16.283715"><ele>1026.0</ele><time>2026-03-29T10:57:31.583Z</time></trkpt><trkpt lat="38.4717117" lon="16.28376"><ele>1026.0</ele><time>2026-03-29T10:57:32.583Z</time></trkpt><trkpt lat="38.4718067" lon="16.2837967"><ele>1026.0</ele><time>2026-03-29T10:57:33.583Z</time></trkpt><trkpt lat="38.4719133" lon="16.2838067"><ele>1026.0</ele><time>2026-03-29T10:57:34.583Z</time></trkpt><trkpt lat="38.472015" lon="16.28379"><ele>1026.0</ele><time>2026-03-29T10:57:35.583Z</time></trkpt><trkpt lat="38.4721283" lon="16.2837517"><ele>1020.25</ele><time>2026-03-29T10:57:36.583Z</time></trkpt><trkpt lat="38.4722433" lon="16.2836633"><ele>1014.5</ele><time>2026-03-29T10:57:37.583Z</time></trkpt><trkpt lat="38.47233" lon="16.283565"><ele>1008.75</ele><time>2026-03-29T10:57:38.583Z</time></trkpt><trkpt lat="38.4723967" lon="16.2834367"><ele>1003.0</ele><time>2026-03-29T10:57:39.583Z</time></trkpt><trkpt lat="38.4724417" lon="16.2832667"><ele>1003.0</ele><time>2026-03-29T10:57:40.583Z</time></trkpt><trkpt lat="38.4724867" lon="16.2831"><ele>1003.0</ele><time>2026-03-29T10:57:41.583Z</time></trkpt><trkpt lat="38.4725167" lon="16.2829233"><ele>1003.0</ele><time>2026-03-29T10:57:42.583Z</time></trkpt><trkpt lat="38.472535" lon="16.282735"><ele>1003.0</ele><time>2026-03-29T10:57:43.583Z</time></trkpt><trkpt lat="38.4725367" lon="16.282535"><ele>1004.25</ele><time>2026-03-29T10:57:44.583Z</time></trkpt><trkpt lat="38.4725483" lon="16.28234"><ele>1005.5</ele><time>2026-03-29T10:57:45.584Z</time></trkpt><trkpt lat="38.4725317" lon="16.2821683"><ele>1006.75</ele><time>2026-03-29T10:57:46.583Z</time></trkpt><trkpt lat="38.4725583" lon="16.2819833"><ele>1008.0</ele><time>2026-03-29T10:57:47.583Z</time></trkpt><trkpt lat="38.4725883" lon="16.2818033"><ele>1008.8</ele><time>2026-03-29T10:57:48.583Z</time></trkpt><trkpt lat="38.4726067" lon="16.28164"><ele>1009.5999999999999</ele><time>2026-03-29T10:57:49.583Z</time></trkpt><trkpt lat="38.4726067" lon="16.281505"><ele>1010.4000000000001</ele><time>2026-03-29T10:57:50.584Z</time></trkpt><trkpt lat="38.4726317" lon="16.2813783"><ele>1011.2</ele><time>2026-03-29T10:57:51.583Z</time></trkpt><trkpt lat="38.47266" lon="16.2812767"><ele>1012.0</ele><time>2026-03-29T10:57:52.583Z</time></trkpt><trkpt lat="38.4726933" lon="16.28118"><ele>1012.0</ele><time>2026-03-29T10:57:53.583Z</time></trkpt><trkpt lat="38.4727333" lon="16.2811033"><ele>1012.0</ele><time>2026-03-29T10:57:54.583Z</time></trkpt><trkpt lat="38.4728567" lon="16.28107"><ele>1012.0</ele><time>2026-03-29T10:57:56.583Z</time></trkpt><trkpt lat="38.472925" lon="16.2810633"><ele>1012.0</ele><time>2026-03-29T10:57:57.583Z</time></trkpt><trkpt lat="38.472995" lon="16.281065"><ele>1012.0</ele><time>2026-03-29T10:57:58.583Z</time></trkpt><trkpt lat="38.4731383" lon="16.28114"><ele>1010.25</ele><time>2026-03-29T10:58:00.583Z</time></trkpt><trkpt lat="38.4732233" lon="16.2812317"><ele>1008.5</ele><time>2026-03-29T10:58:01.583Z</time></trkpt><trkpt lat="38.47332" lon="16.281315"><ele>1006.75</ele><time>2026-03-29T10:58:02.583Z</time></trkpt><trkpt lat="38.473415" lon="16.28139"><ele>1005.0</ele><time>2026-03-29T10:58:03.583Z</time></trkpt><trkpt lat="38.4735183" lon="16.2814717"><ele>1005.75</ele><time>2026-03-29T10:58:04.583Z</time></trkpt><trkpt lat="38.4736317" lon="16.2815617"><ele>1006.5</ele><time>2026-03-29T10:58:05.583Z</time></trkpt><trkpt lat="38.473735" lon="16.2816667"><ele>1007.25</ele><time>2026-03-29T10:58:06.583Z</time></trkpt><trkpt lat="38.4738333" lon="16.2817783"><ele>1008.0</ele><time>2026-03-29T10:58:07.583Z</time></trkpt><trkpt lat="38.4739283" lon="16.2819033"><ele>1008.0</ele><time>2026-03-29T10:58:08.583Z</time></trkpt><trkpt lat="38.474005" lon="16.282055"><ele>1008.0</ele><time>2026-03-29T10:58:09.583Z</time></trkpt><trkpt lat="38.4740667" lon="16.2822"><ele>1008.0</ele><time>2026-03-29T10:58:10.583Z</time></trkpt><trkpt lat="38.474115" lon="16.2823467"><ele>1008.0</ele><time>2026-03-29T10:58:11.583Z</time></trkpt><trkpt lat="38.4741583" lon="16.282505"><ele>1007.25</ele><time>2026-03-29T10:58:12.583Z</time></trkpt><trkpt lat="38.4742" lon="16.2826817"><ele>1006.5</ele><time>2026-03-29T10:58:13.583Z</time></trkpt><trkpt lat="38.4742467" lon="16.2828617"><ele>1005.75</ele><time>2026-03-29T10:58:14.583Z</time></trkpt><trkpt lat="38.4742867" lon="16.28303"><ele>1005.0</ele><time>2026-03-29T10:58:15.583Z</time></trkpt><trkpt lat="38.4743333" lon="16.2831683"><ele>1005.5</ele><time>2026-03-29T10:58:16.583Z</time></trkpt><trkpt lat="38.47439" lon="16.28332"><ele>1006.0</ele><time>2026-03-29T10:58:17.583Z</time></trkpt><trkpt lat="38.47445" lon="16.2834633"><ele>1006.5</ele><time>2026-03-29T10:58:18.583Z</time></trkpt><trkpt lat="38.4745217" lon="16.2835867"><ele>1007.0</ele><time>2026-03-29T10:58:19.583Z</time></trkpt><trkpt lat="38.47461" lon="16.2837033"><ele>1007.0</ele><time>2026-03-29T10:58:20.583Z</time></trkpt><trkpt lat="38.474705" lon="16.2838033"><ele>1007.0</ele><time>2026-03-29T10:58:21.583Z</time></trkpt><trkpt lat="38.474805" lon="16.2838517"><ele>1007.0</ele><time>2026-03-29T10:58:22.583Z</time></trkpt><trkpt lat="38.4749117" lon="16.2838783"><ele>1007.0</ele><time>2026-03-29T10:58:23.583Z</time></trkpt><trkpt lat="38.4750267" lon="16.2838867"><ele>1007.0</ele><time>2026-03-29T10:58:24.583Z</time></trkpt><trkpt lat="38.4751467" lon="16.2838783"><ele>1007.0</ele><time>2026-03-29T10:58:25.583Z</time></trkpt><trkpt lat="38.4752767" lon="16.2838517"><ele>1007.0</ele><time>2026-03-29T10:58:26.583Z</time></trkpt><trkpt lat="38.475395" lon="16.2838183"><ele>1007.0</ele><time>2026-03-29T10:58:27.583Z</time></trkpt><trkpt lat="38.4755167" lon="16.2837767"><ele>1004.5</ele><time>2026-03-29T10:58:28.583Z</time></trkpt><trkpt lat="38.47562" lon="16.2837183"><ele>1002.0</ele><time>2026-03-29T10:58:29.583Z</time></trkpt><trkpt lat="38.475725" lon="16.2836467"><ele>999.5</ele><time>2026-03-29T10:58:30.583Z</time></trkpt><trkpt lat="38.4758267" lon="16.28354"><ele>997.0</ele><time>2026-03-29T10:58:31.583Z</time></trkpt><trkpt lat="38.4759167" lon="16.2834067"><ele>997.0</ele><time>2026-03-29T10:58:32.584Z</time></trkpt><trkpt lat="38.4760067" lon="16.2832617"><ele>997.0</ele><time>2026-03-29T10:58:33.584Z</time></trkpt><trkpt lat="38.4760967" lon="16.2831333"><ele>997.0</ele><time>2026-03-29T10:58:34.584Z</time></trkpt><trkpt lat="38.476175" lon="16.2830083"><ele>997.0</ele><time>2026-03-29T10:58:35.583Z</time></trkpt><trkpt lat="38.4762383" lon="16.2828633"><ele>994.25</ele><time>2026-03-29T10:58:36.583Z</time></trkpt><trkpt lat="38.4762767" lon="16.282715"><ele>991.5</ele><time>2026-03-29T10:58:37.583Z</time></trkpt><trkpt lat="38.4762933" lon="16.2825517"><ele>988.75</ele><time>2026-03-29T10:58:38.583Z</time></trkpt><trkpt lat="38.4762917" lon="16.282385"><ele>986.0</ele><time>2026-03-29T10:58:39.583Z</time></trkpt><trkpt lat="38.476285" lon="16.282215"><ele>986.0</ele><time>2026-03-29T10:58:40.583Z</time></trkpt><trkpt lat="38.476285" lon="16.2820567"><ele>986.0</ele><time>2026-03-29T10:58:41.583Z</time></trkpt><trkpt lat="38.4762983" lon="16.28191"><ele>986.0</ele><time>2026-03-29T10:58:42.583Z</time></trkpt><trkpt lat="38.47633" lon="16.2817667"><ele>986.0</ele><time>2026-03-29T10:58:43.583Z</time></trkpt><trkpt lat="38.4763817" lon="16.28163"><ele>986.0</ele><time>2026-03-29T10:58:44.583Z</time></trkpt><trkpt lat="38.47646" lon="16.2815133"><ele>986.0</ele><time>2026-03-29T10:58:45.583Z</time></trkpt><trkpt lat="38.476555" lon="16.2814033"><ele>986.0</ele><time>2026-03-29T10:58:46.583Z</time></trkpt><trkpt lat="38.47666" lon="16.2812833"><ele>986.0</ele><time>2026-03-29T10:58:47.583Z</time></trkpt><trkpt lat="38.47678" lon="16.2811467"><ele>988.5</ele><time>2026-03-29T10:58:48.583Z</time></trkpt><trkpt lat="38.47687" lon="16.2809967"><ele>991.0</ele><time>2026-03-29T10:58:49.583Z</time></trkpt><trkpt lat="38.47694" lon="16.2808467"><ele>993.5</ele><time>2026-03-29T10:58:50.583Z</time></trkpt><trkpt lat="38.4769933" lon="16.2806917"><ele>996.0</ele><time>2026-03-29T10:58:51.583Z</time></trkpt><trkpt lat="38.477015" lon="16.280525"><ele>996.25</ele><time>2026-03-29T10:58:52.583Z</time></trkpt><trkpt lat="38.4770817" lon="16.28038"><ele>996.5</ele><time>2026-03-29T10:58:53.583Z</time></trkpt><trkpt lat="38.477165" lon="16.2802583"><ele>996.75</ele><time>2026-03-29T10:58:54.583Z</time></trkpt><trkpt lat="38.477245" lon="16.2801633"><ele>997.0</ele><time>2026-03-29T10:58:55.583Z</time></trkpt><trkpt lat="38.477345" lon="16.2800983"><ele>993.4000000000001</ele><time>2026-03-29T10:58:56.583Z</time></trkpt><trkpt lat="38.4774333" lon="16.2800717"><ele>989.8000000000001</ele><time>2026-03-29T10:58:57.583Z</time></trkpt><trkpt lat="38.4775283" lon="16.2800733"><ele>986.2</ele><time>2026-03-29T10:58:58.583Z</time></trkpt><trkpt lat="38.4776167" lon="16.2800817"><ele>982.6</ele><time>2026-03-29T10:58:59.583Z</time></trkpt><trkpt lat="38.477705" lon="16.2800933"><ele>979.0</ele><time>2026-03-29T10:59:00.583Z</time></trkpt><trkpt lat="38.4777933" lon="16.280135"><ele>979.0</ele><time>2026-03-29T10:59:01.583Z</time></trkpt><trkpt lat="38.4778733" lon="16.2802"><ele>979.0000000000001</ele><time>2026-03-29T10:59:02.583Z</time></trkpt><trkpt lat="38.4779317" lon="16.28028"><ele>979.0000000000001</ele><time>2026-03-29T10:59:03.583Z</time></trkpt><trkpt lat="38.4779667" lon="16.2803933"><ele>979.0</ele><time>2026-03-29T10:59:04.584Z</time></trkpt><trkpt lat="38.4779833" lon="16.2805183"><ele>979.0</ele><time>2026-03-29T10:59:05.583Z</time></trkpt><trkpt lat="38.477985" lon="16.2806667"><ele>980.0</ele><time>2026-03-29T10:59:06.583Z</time></trkpt><trkpt lat="38.477985" lon="16.2808417"><ele>981.0</ele><time>2026-03-29T10:59:07.583Z</time></trkpt><trkpt lat="38.47802" lon="16.2810067"><ele>982.0</ele><time>2026-03-29T10:59:08.583Z</time></trkpt><trkpt lat="38.4780733" lon="16.2811767"><ele>983.0</ele><time>2026-03-29T10:59:09.583Z</time></trkpt><trkpt lat="38.478145" lon="16.2813567"><ele>982.3333333333334</ele><time>2026-03-29T10:59:10.584Z</time></trkpt><trkpt lat="38.478215" lon="16.281525"><ele>981.6666666666667</ele><time>2026-03-29T10:59:11.583Z</time></trkpt><trkpt lat="38.4783" lon="16.2817017"><ele>981.0</ele><time>2026-03-29T10:59:12.583Z</time></trkpt><trkpt lat="38.47838" lon="16.2819033"><ele>981.0</ele><time>2026-03-29T10:59:13.583Z</time></trkpt><trkpt lat="38.47847" lon="16.28211"><ele>981.0</ele><time>2026-03-29T10:59:14.583Z</time></trkpt><trkpt lat="38.4785517" lon="16.2823233"><ele>981.0</ele><time>2026-03-29T10:59:15.583Z</time></trkpt><trkpt lat="38.4786567" lon="16.2824933"><ele>981.25</ele><time>2026-03-29T10:59:16.583Z</time></trkpt><trkpt lat="38.4787383" lon="16.2826533"><ele>981.5</ele><time>2026-03-29T10:59:17.583Z</time></trkpt><trkpt lat="38.4788033" lon="16.2827883"><ele>981.75</ele><time>2026-03-29T10:59:18.583Z</time></trkpt><trkpt lat="38.4788633" lon="16.282895"><ele>982.0</ele><time>2026-03-29T10:59:19.583Z</time></trkpt><trkpt lat="38.4789383" lon="16.2829767"><ele>982.0</ele><time>2026-03-29T10:59:20.583Z</time></trkpt><trkpt lat="38.4790217" lon="16.2830417"><ele>982.0</ele><time>2026-03-29T10:59:21.583Z</time></trkpt><trkpt lat="38.4791067" lon="16.2830817"><ele>982.0</ele><time>2026-03-29T10:59:22.583Z</time></trkpt><trkpt lat="38.4791983" lon="16.2831017"><ele>982.0</ele><time>2026-03-29T10:59:23.583Z</time></trkpt><trkpt lat="38.4793017" lon="16.2831"><ele>982.0</ele><time>2026-03-29T10:59:24.584Z</time></trkpt><trkpt lat="38.4794267" lon="16.2830617"><ele>982.0</ele><time>2026-03-29T10:59:25.584Z</time></trkpt><trkpt lat="38.4795583" lon="16.2830083"><ele>982.0</ele><time>2026-03-29T10:59:26.584Z</time></trkpt><trkpt lat="38.4796733" lon="16.282935"><ele>982.0</ele><time>2026-03-29T10:59:27.584Z</time></trkpt><trkpt lat="38.4797767" lon="16.2828333"><ele>982.0</ele><time>2026-03-29T10:59:28.584Z</time></trkpt><trkpt lat="38.47987" lon="16.28271"><ele>980.5</ele><time>2026-03-29T10:59:29.584Z</time></trkpt><trkpt lat="38.4799667" lon="16.28259"><ele>979.0</ele><time>2026-03-29T10:59:30.584Z</time></trkpt><trkpt lat="38.480055" lon="16.282485"><ele>977.5</ele><time>2026-03-29T10:59:31.584Z</time></trkpt><trkpt lat="38.4801483" lon="16.2823917"><ele>976.0</ele><time>2026-03-29T10:59:32.584Z</time></trkpt><trkpt lat="38.4802517" lon="16.2823033"><ele>976.0</ele><time>2026-03-29T10:59:33.584Z</time></trkpt><trkpt lat="38.4803583" lon="16.28223"><ele>976.0</ele><time>2026-03-29T10:59:34.584Z</time></trkpt><trkpt lat="38.48048" lon="16.2821483"><ele>976.0</ele><time>2026-03-29T10:59:35.584Z</time></trkpt><trkpt lat="38.4806083" lon="16.282075"><ele>976.0</ele><time>2026-03-29T10:59:36.584Z</time></trkpt><trkpt lat="38.4807367" lon="16.2820233"><ele>976.0</ele><time>2026-03-29T10:59:37.584Z</time></trkpt><trkpt lat="38.4808583" lon="16.2820033"><ele>976.0</ele><time>2026-03-29T10:59:38.584Z</time></trkpt><trkpt lat="38.4809867" lon="16.2819983"><ele>976.0</ele><time>2026-03-29T10:59:39.584Z</time></trkpt><trkpt lat="38.481115" lon="16.282005"><ele>976.0</ele><time>2026-03-29T10:59:40.584Z</time></trkpt><trkpt lat="38.4812483" lon="16.28202"><ele>976.3333333333333</ele><time>2026-03-29T10:59:41.584Z</time></trkpt><trkpt lat="38.481385" lon="16.28204"><ele>976.6666666666667</ele><time>2026-03-29T10:59:42.584Z</time></trkpt><trkpt lat="38.4815383" lon="16.282065"><ele>977.0</ele><time>2026-03-29T10:59:43.584Z</time></trkpt><trkpt lat="38.481695" lon="16.2820917"><ele>977.0</ele><time>2026-03-29T10:59:44.584Z</time></trkpt><trkpt lat="38.4818417" lon="16.2821283"><ele>977.0</ele><time>2026-03-29T10:59:45.584Z</time></trkpt><trkpt lat="38.4819867" lon="16.28217"><ele>977.0</ele><time>2026-03-29T10:59:46.584Z</time></trkpt><trkpt lat="38.482095" lon="16.2822267"><ele>977.0</ele><time>2026-03-29T10:59:47.584Z</time></trkpt><trkpt lat="38.48217" lon="16.2823017"><ele>974.0</ele><time>2026-03-29T10:59:48.584Z</time></trkpt><trkpt lat="38.4822133" lon="16.2823917"><ele>971.0</ele><time>2026-03-29T10:59:49.584Z</time></trkpt><trkpt lat="38.4822817" lon="16.2824783"><ele>968.0</ele><time>2026-03-29T10:59:50.584Z</time></trkpt><trkpt lat="38.4823533" lon="16.282585"><ele>965.0</ele><time>2026-03-29T10:59:51.584Z</time></trkpt><trkpt lat="38.48241" lon="16.2827133"><ele>962.0</ele><time>2026-03-29T10:59:52.584Z</time></trkpt><trkpt lat="38.4824717" lon="16.28285"><ele>962.0</ele><time>2026-03-29T10:59:53.585Z</time></trkpt><trkpt lat="38.4825533" lon="16.283015"><ele>962.0</ele><time>2026-03-29T10:59:54.584Z</time></trkpt><trkpt lat="38.48262" lon="16.2831917"><ele>962.0</ele><time>2026-03-29T10:59:55.584Z</time></trkpt><trkpt lat="38.4827033" lon="16.283335"><ele>962.0</ele><time>2026-03-29T10:59:56.584Z</time></trkpt><trkpt lat="38.482785" lon="16.2834767"><ele>961.25</ele><time>2026-03-29T10:59:57.584Z</time></trkpt><trkpt lat="38.4828683" lon="16.283635"><ele>960.5</ele><time>2026-03-29T10:59:58.584Z</time></trkpt><trkpt lat="38.4829483" lon="16.283785"><ele>959.75</ele><time>2026-03-29T10:59:59.584Z</time></trkpt><trkpt lat="38.483005" lon="16.28392"><ele>959.0</ele><time>2026-03-29T11:00:00.584Z</time></trkpt><trkpt lat="38.4830517" lon="16.2840533"><ele>959.0</ele><time>2026-03-29T11:00:01.584Z</time></trkpt><trkpt lat="38.4831033" lon="16.2841733"><ele>959.0000000000001</ele><time>2026-03-29T11:00:02.584Z</time></trkpt><trkpt lat="38.483145" lon="16.2842733"><ele>959.0000000000001</ele><time>2026-03-29T11:00:03.584Z</time></trkpt><trkpt lat="38.4832" lon="16.28439"><ele>959.0</ele><time>2026-03-29T11:00:04.584Z</time></trkpt><trkpt lat="38.4832717" lon="16.2844717"><ele>959.0</ele><time>2026-03-29T11:00:05.584Z</time></trkpt><trkpt lat="38.48335" lon="16.28453"><ele>959.0</ele><time>2026-03-29T11:00:06.584Z</time></trkpt><trkpt lat="38.4834317" lon="16.2845833"><ele>959.0000000000001</ele><time>2026-03-29T11:00:07.584Z</time></trkpt><trkpt lat="38.4835233" lon="16.284625"><ele>959.0000000000001</ele><time>2026-03-29T11:00:08.584Z</time></trkpt><trkpt lat="38.4836283" lon="16.28467"><ele>959.0</ele><time>2026-03-29T11:00:09.584Z</time></trkpt><trkpt lat="38.4837417" lon="16.2847167"><ele>959.0</ele><time>2026-03-29T11:00:10.584Z</time></trkpt><trkpt lat="38.483865" lon="16.2847633"><ele>961.25</ele><time>2026-03-29T11:00:11.584Z</time></trkpt><trkpt lat="38.48399" lon="16.2848217"><ele>963.5</ele><time>2026-03-29T11:00:12.584Z</time></trkpt><trkpt lat="38.4841133" lon="16.284885"><ele>965.75</ele><time>2026-03-29T11:00:13.584Z</time></trkpt><trkpt lat="38.4842367" lon="16.2849517"><ele>968.0</ele><time>2026-03-29T11:00:14.584Z</time></trkpt><trkpt lat="38.48437" lon="16.2850067"><ele>968.0</ele><time>2026-03-29T11:00:15.584Z</time></trkpt><trkpt lat="38.4844867" lon="16.2850783"><ele>968.0</ele><time>2026-03-29T11:00:16.584Z</time></trkpt><trkpt lat="38.4846433" lon="16.2851583"><ele>968.0</ele><time>2026-03-29T11:00:17.584Z</time></trkpt><trkpt lat="38.4847767" lon="16.2852333"><ele>968.0</ele><time>2026-03-29T11:00:18.584Z</time></trkpt><trkpt lat="38.4849067" lon="16.285305"><ele>967.4</ele><time>2026-03-29T11:00:19.584Z</time></trkpt><trkpt lat="38.4850117" lon="16.2853617"><ele>966.8</ele><time>2026-03-29T11:00:20.584Z</time></trkpt><trkpt lat="38.4851183" lon="16.2854083"><ele>966.2</ele><time>2026-03-29T11:00:21.584Z</time></trkpt><trkpt lat="38.4852133" lon="16.2854333"><ele>965.6</ele><time>2026-03-29T11:00:22.584Z</time></trkpt><trkpt lat="38.4853133" lon="16.2854367"><ele>965.0</ele><time>2026-03-29T11:00:23.584Z</time></trkpt><trkpt lat="38.4854183" lon="16.28543"><ele>964.8</ele><time>2026-03-29T11:00:24.584Z</time></trkpt><trkpt lat="38.4855217" lon="16.2854133"><ele>964.6</ele><time>2026-03-29T11:00:25.584Z</time></trkpt><trkpt lat="38.4856217" lon="16.2853867"><ele>964.4000000000001</ele><time>2026-03-29T11:00:26.584Z</time></trkpt><trkpt lat="38.485715" lon="16.28536"><ele>964.2</ele><time>2026-03-29T11:00:27.584Z</time></trkpt><trkpt lat="38.4858133" lon="16.28535"><ele>964.0</ele><time>2026-03-29T11:00:28.584Z</time></trkpt><trkpt lat="38.48591" lon="16.2853533"><ele>963.9999999999999</ele><time>2026-03-29T11:00:29.584Z</time></trkpt><trkpt lat="38.4860067" lon="16.2853583"><ele>964.0</ele><time>2026-03-29T11:00:30.584Z</time></trkpt><trkpt lat="38.4860967" lon="16.28538"><ele>964.0</ele><time>2026-03-29T11:00:31.584Z</time></trkpt><trkpt lat="38.4861717" lon="16.2854"><ele>964.0</ele><time>2026-03-29T11:00:32.584Z</time></trkpt><trkpt lat="38.48628" lon="16.2854267"><ele>963.9999999999999</ele><time>2026-03-29T11:00:34.584Z</time></trkpt><trkpt lat="38.4863433" lon="16.28546"><ele>964.0</ele><time>2026-03-29T11:00:36.584Z</time></trkpt><trkpt lat="38.4864017" lon="16.2854917"><ele>964.4000000000001</ele><time>2026-03-29T11:01:55.584Z</time></trkpt><trkpt lat="38.4864917" lon="16.28543"><ele>964.8000000000001</ele><time>2026-03-29T11:01:58.584Z</time></trkpt><trkpt lat="38.48655" lon="16.2852933"><ele>965.1999999999999</ele><time>2026-03-29T11:02:00.584Z</time></trkpt><trkpt lat="38.486585" lon="16.2851867"><ele>965.5999999999999</ele><time>2026-03-29T11:02:01.584Z</time></trkpt><trkpt lat="38.4866167" lon="16.285085"><ele>966.0</ele><time>2026-03-29T11:02:02.584Z</time></trkpt><trkpt lat="38.4866517" lon="16.284985"><ele>966.0</ele><time>2026-03-29T11:02:03.584Z</time></trkpt><trkpt lat="38.48672" lon="16.28486"><ele>966.0</ele><time>2026-03-29T11:02:04.584Z</time></trkpt><trkpt lat="38.486825" lon="16.2847267"><ele>966.0</ele><time>2026-03-29T11:02:05.584Z</time></trkpt><trkpt lat="38.48694" lon="16.2845883"><ele>966.0</ele><time>2026-03-29T11:02:06.584Z</time></trkpt><trkpt lat="38.48706" lon="16.284425"><ele>968.3333333333333</ele><time>2026-03-29T11:02:07.584Z</time></trkpt><trkpt lat="38.4871667" lon="16.2842917"><ele>970.6666666666666</ele><time>2026-03-29T11:02:08.584Z</time></trkpt><trkpt lat="38.4872667" lon="16.284195"><ele>973.0</ele><time>2026-03-29T11:02:09.584Z</time></trkpt><trkpt lat="38.48751" lon="16.2840317"><ele>973.0</ele><time>2026-03-29T11:02:11.584Z</time></trkpt><trkpt lat="38.4876583" lon="16.2839567"><ele>973.0</ele><time>2026-03-29T11:02:12.584Z</time></trkpt><trkpt lat="38.48781" lon="16.2838817"><ele>973.0</ele><time>2026-03-29T11:02:13.584Z</time></trkpt><trkpt lat="38.4879467" lon="16.2838083"><ele>973.4</ele><time>2026-03-29T11:02:14.584Z</time></trkpt><trkpt lat="38.4880583" lon="16.2837417"><ele>973.8</ele><time>2026-03-29T11:02:15.584Z</time></trkpt><trkpt lat="38.48815" lon="16.283685"><ele>974.2</ele><time>2026-03-29T11:02:16.584Z</time></trkpt><trkpt lat="38.4882417" lon="16.2836433"><ele>974.6</ele><time>2026-03-29T11:02:17.584Z</time></trkpt><trkpt lat="38.4883317" lon="16.2835917"><ele>975.0</ele><time>2026-03-29T11:02:18.584Z</time></trkpt><trkpt lat="38.488435" lon="16.2835417"><ele>975.0</ele><time>2026-03-29T11:02:19.584Z</time></trkpt><trkpt lat="38.488545" lon="16.2834833"><ele>975.0</ele><time>2026-03-29T11:02:20.584Z</time></trkpt><trkpt lat="38.4886683" lon="16.2834133"><ele>975.0</ele><time>2026-03-29T11:02:21.584Z</time></trkpt><trkpt lat="38.4888067" lon="16.28334"><ele>975.0</ele><time>2026-03-29T11:02:22.584Z</time></trkpt><trkpt lat="38.4889583" lon="16.2832467"><ele>975.0</ele><time>2026-03-29T11:02:23.584Z</time></trkpt><trkpt lat="38.4891283" lon="16.2831567"><ele>975.0</ele><time>2026-03-29T11:02:24.584Z</time></trkpt><trkpt lat="38.4893117" lon="16.2830567"><ele>975.0</ele><time>2026-03-29T11:02:25.584Z</time></trkpt><trkpt lat="38.4894967" lon="16.282955"><ele>975.6666666666667</ele><time>2026-03-29T11:02:26.584Z</time></trkpt><trkpt lat="38.4896633" lon="16.28287"><ele>976.3333333333334</ele><time>2026-03-29T11:02:27.584Z</time></trkpt><trkpt lat="38.4898417" lon="16.282805"><ele>977.0</ele><time>2026-03-29T11:02:28.584Z</time></trkpt><trkpt lat="38.4900467" lon="16.2827517"><ele>977.0</ele><time>2026-03-29T11:02:29.584Z</time></trkpt><trkpt lat="38.49025" lon="16.2826983"><ele>977.0</ele><time>2026-03-29T11:02:30.584Z</time></trkpt><trkpt lat="38.49045" lon="16.2826317"><ele>977.0</ele><time>2026-03-29T11:02:31.584Z</time></trkpt><trkpt lat="38.49065" lon="16.282565"><ele>978.0</ele><time>2026-03-29T11:02:32.584Z</time></trkpt><trkpt lat="38.4908517" lon="16.2825067"><ele>979.0</ele><time>2026-03-29T11:02:33.584Z</time></trkpt><trkpt lat="38.49106" lon="16.2824333"><ele>980.0</ele><time>2026-03-29T11:02:34.584Z</time></trkpt><trkpt lat="38.49125" lon="16.282365"><ele>980.0</ele><time>2026-03-29T11:02:35.585Z</time></trkpt><trkpt lat="38.49143" lon="16.282305"><ele>980.0</ele><time>2026-03-29T11:02:36.584Z</time></trkpt><trkpt lat="38.4915833" lon="16.2822617"><ele>980.0</ele><time>2026-03-29T11:02:37.584Z</time></trkpt><trkpt lat="38.4917117" lon="16.2822167"><ele>980.0</ele><time>2026-03-29T11:02:38.584Z</time></trkpt><trkpt lat="38.491835" lon="16.2821783"><ele>980.0</ele><time>2026-03-29T11:02:39.584Z</time></trkpt><trkpt lat="38.491955" lon="16.2821383"><ele>980.0</ele><time>2026-03-29T11:02:40.584Z</time></trkpt><trkpt lat="38.4920617" lon="16.2821083"><ele>980.0</ele><time>2026-03-29T11:02:41.584Z</time></trkpt><trkpt lat="38.49216" lon="16.2820867"><ele>980.75</ele><time>2026-03-29T11:02:42.584Z</time></trkpt><trkpt lat="38.492275" lon="16.2820817"><ele>981.5</ele><time>2026-03-29T11:02:43.584Z</time></trkpt><trkpt lat="38.4924" lon="16.28209"><ele>982.25</ele><time>2026-03-29T11:02:44.584Z</time></trkpt><trkpt lat="38.4925467" lon="16.282115"><ele>983.0</ele><time>2026-03-29T11:02:45.584Z</time></trkpt><trkpt lat="38.49272" lon="16.282145"><ele>983.0</ele><time>2026-03-29T11:02:46.584Z</time></trkpt><trkpt lat="38.49289" lon="16.28218"><ele>983.0</ele><time>2026-03-29T11:02:47.584Z</time></trkpt><trkpt lat="38.4930283" lon="16.2821983"><ele>983.0</ele><time>2026-03-29T11:02:48.585Z</time></trkpt><trkpt lat="38.4931383" lon="16.2821983"><ele>983.0</ele><time>2026-03-29T11:02:49.584Z</time></trkpt><trkpt lat="38.49323" lon="16.2821667"><ele>983.5999999999999</ele><time>2026-03-29T11:02:50.584Z</time></trkpt><trkpt lat="38.4933117" lon="16.282095"><ele>984.1999999999999</ele><time>2026-03-29T11:02:51.584Z</time></trkpt><trkpt lat="38.4934" lon="16.2820117"><ele>984.8</ele><time>2026-03-29T11:02:52.584Z</time></trkpt><trkpt lat="38.493495" lon="16.28197"><ele>985.4</ele><time>2026-03-29T11:02:53.584Z</time></trkpt><trkpt lat="38.4935967" lon="16.281955"><ele>986.0</ele><time>2026-03-29T11:02:54.584Z</time></trkpt><trkpt lat="38.4937017" lon="16.2819233"><ele>986.25</ele><time>2026-03-29T11:02:55.584Z</time></trkpt><trkpt lat="38.493815" lon="16.2818467"><ele>986.5</ele><time>2026-03-29T11:02:56.584Z</time></trkpt><trkpt lat="38.49392" lon="16.2817517"><ele>986.75</ele><time>2026-03-29T11:02:57.584Z</time></trkpt><trkpt lat="38.49401" lon="16.28166"><ele>987.0</ele><time>2026-03-29T11:02:58.584Z</time></trkpt><trkpt lat="38.4940983" lon="16.2815583"><ele>987.0</ele><time>2026-03-29T11:02:59.584Z</time></trkpt><trkpt lat="38.494175" lon="16.28144"><ele>987.0</ele><time>2026-03-29T11:03:00.584Z</time></trkpt><trkpt lat="38.49425" lon="16.2813033"><ele>987.0</ele><time>2026-03-29T11:03:01.584Z</time></trkpt><trkpt lat="38.4943133" lon="16.2811333"><ele>987.0</ele><time>2026-03-29T11:03:02.584Z</time></trkpt><trkpt lat="38.4943567" lon="16.28097"><ele>988.0</ele><time>2026-03-29T11:03:03.584Z</time></trkpt><trkpt lat="38.4943983" lon="16.2808167"><ele>989.0</ele><time>2026-03-29T11:03:04.584Z</time></trkpt><trkpt lat="38.49446" lon="16.280695"><ele>990.0</ele><time>2026-03-29T11:03:05.584Z</time></trkpt><trkpt lat="38.4945283" lon="16.280575"><ele>991.0</ele><time>2026-03-29T11:03:06.584Z</time></trkpt><trkpt lat="38.4946267" lon="16.2804667"><ele>994.5</ele><time>2026-03-29T11:03:07.584Z</time></trkpt><trkpt lat="38.4947433" lon="16.2803617"><ele>998.0</ele><time>2026-03-29T11:03:08.584Z</time></trkpt><trkpt lat="38.494875" lon="16.28027"><ele>1001.5</ele><time>2026-03-29T11:03:09.584Z</time></trkpt><trkpt lat="38.4949917" lon="16.280195"><ele>1005.0</ele><time>2026-03-29T11:03:10.584Z</time></trkpt><trkpt lat="38.495085" lon="16.2801533"><ele>1005.0</ele><time>2026-03-29T11:03:11.585Z</time></trkpt><trkpt lat="38.4951567" lon="16.2801417"><ele>1005.0</ele><time>2026-03-29T11:03:12.584Z</time></trkpt><trkpt lat="38.4952467" lon="16.2801583"><ele>1005.0</ele><time>2026-03-29T11:03:13.584Z</time></trkpt><trkpt lat="38.4953633" lon="16.2801917"><ele>1005.0</ele><time>2026-03-29T11:03:14.584Z</time></trkpt><trkpt lat="38.4954933" lon="16.2802433"><ele>1005.0</ele><time>2026-03-29T11:03:15.584Z</time></trkpt><trkpt lat="38.4956217" lon="16.2802917"><ele>1007.2</ele><time>2026-03-29T11:03:16.584Z</time></trkpt><trkpt lat="38.49572" lon="16.2803133"><ele>1009.4</ele><time>2026-03-29T11:03:17.584Z</time></trkpt><trkpt lat="38.4958283" lon="16.2803133"><ele>1011.5999999999999</ele><time>2026-03-29T11:03:18.584Z</time></trkpt><trkpt lat="38.4959367" lon="16.280295"><ele>1013.8</ele><time>2026-03-29T11:03:19.584Z</time></trkpt><trkpt lat="38.496025" lon="16.2802633"><ele>1016.0</ele><time>2026-03-29T11:03:20.584Z</time></trkpt><trkpt lat="38.49611" lon="16.280195"><ele>1016.0</ele><time>2026-03-29T11:03:21.584Z</time></trkpt><trkpt lat="38.4961933" lon="16.2800717"><ele>1016.0</ele><time>2026-03-29T11:03:22.584Z</time></trkpt><trkpt lat="38.4962717" lon="16.2799367"><ele>1016.0</ele><time>2026-03-29T11:03:23.584Z</time></trkpt><trkpt lat="38.49632" lon="16.27979"><ele>1016.0</ele><time>2026-03-29T11:03:24.584Z</time></trkpt><trkpt lat="38.4963517" lon="16.2796467"><ele>1016.6666666666667</ele><time>2026-03-29T11:03:25.584Z</time></trkpt><trkpt lat="38.4963467" lon="16.279475"><ele>1017.3333333333333</ele><time>2026-03-29T11:03:26.584Z</time></trkpt><trkpt lat="38.496335" lon="16.279275"><ele>1018.0</ele><time>2026-03-29T11:03:27.584Z</time></trkpt><trkpt lat="38.4963317" lon="16.27906"><ele>1020.0</ele><time>2026-03-29T11:03:28.584Z</time></trkpt><trkpt lat="38.4963383" lon="16.2788717"><ele>1022.0</ele><time>2026-03-29T11:03:29.584Z</time></trkpt><trkpt lat="38.4963417" lon="16.2787133"><ele>1024.0</ele><time>2026-03-29T11:03:30.584Z</time></trkpt><trkpt lat="38.4963617" lon="16.278585"><ele>1026.0</ele><time>2026-03-29T11:03:31.584Z</time></trkpt><trkpt lat="38.4963867" lon="16.2784633"><ele>1026.0</ele><time>2026-03-29T11:03:32.584Z</time></trkpt><trkpt lat="38.4964267" lon="16.2783783"><ele>1026.0</ele><time>2026-03-29T11:03:33.584Z</time></trkpt><trkpt lat="38.4965367" lon="16.2783267"><ele>1026.0</ele><time>2026-03-29T11:03:35.584Z</time></trkpt><trkpt lat="38.4966333" lon="16.2783317"><ele>1026.0</ele><time>2026-03-29T11:03:36.584Z</time></trkpt><trkpt lat="38.4967467" lon="16.27835"><ele>1026.0</ele><time>2026-03-29T11:03:37.584Z</time></trkpt><trkpt lat="38.4968667" lon="16.2783633"><ele>1026.0</ele><time>2026-03-29T11:03:38.584Z</time></trkpt><trkpt lat="38.4969667" lon="16.2783667"><ele>1026.0</ele><time>2026-03-29T11:03:39.584Z</time></trkpt><trkpt lat="38.49706" lon="16.2783267"><ele>1026.0</ele><time>2026-03-29T11:03:40.584Z</time></trkpt><trkpt lat="38.4971667" lon="16.2782483"><ele>1026.0</ele><time>2026-03-29T11:03:41.584Z</time></trkpt><trkpt lat="38.497255" lon="16.2781883"><ele>1026.0</ele><time>2026-03-29T11:03:42.584Z</time></trkpt><trkpt lat="38.4973267" lon="16.27817"><ele>1027.8333333333333</ele><time>2026-03-29T11:03:43.584Z</time></trkpt><trkpt lat="38.4973967" lon="16.2781733"><ele>1029.6666666666667</ele><time>2026-03-29T11:03:44.585Z</time></trkpt><trkpt lat="38.49746" lon="16.27822"><ele>1031.5</ele><time>2026-03-29T11:03:45.584Z</time></trkpt><trkpt lat="38.497515" lon="16.2783133"><ele>1033.3333333333335</ele><time>2026-03-29T11:03:46.584Z</time></trkpt><trkpt lat="38.4975533" lon="16.2784217"><ele>1035.1666666666667</ele><time>2026-03-29T11:03:47.584Z</time></trkpt><trkpt lat="38.4975967" lon="16.278515"><ele>1037.0</ele><time>2026-03-29T11:03:48.584Z</time></trkpt><trkpt lat="38.497645" lon="16.2785767"><ele>1037.0</ele><time>2026-03-29T11:03:49.584Z</time></trkpt><trkpt lat="38.4977667" lon="16.2785783"><ele>1037.0</ele><time>2026-03-29T11:03:51.584Z</time></trkpt><trkpt lat="38.497825" lon="16.27851"><ele>1037.0</ele><time>2026-03-29T11:03:52.585Z</time></trkpt><trkpt lat="38.4978717" lon="16.2784117"><ele>1037.0</ele><time>2026-03-29T11:03:53.584Z</time></trkpt><trkpt lat="38.4978967" lon="16.2782883"><ele>1037.0</ele><time>2026-03-29T11:03:54.584Z</time></trkpt><trkpt lat="38.4979" lon="16.278125"><ele>1039.3333333333335</ele><time>2026-03-29T11:03:55.584Z</time></trkpt><trkpt lat="38.4978833" lon="16.2779317"><ele>1041.6666666666667</ele><time>2026-03-29T11:03:56.584Z</time></trkpt><trkpt lat="38.4978417" lon="16.27772"><ele>1044.0</ele><time>2026-03-29T11:03:57.584Z</time></trkpt><trkpt lat="38.4978017" lon="16.2774817"><ele>1045.6666666666667</ele><time>2026-03-29T11:03:58.584Z</time></trkpt><trkpt lat="38.4977467" lon="16.277255"><ele>1047.3333333333335</ele><time>2026-03-29T11:03:59.584Z</time></trkpt><trkpt lat="38.4976717" lon="16.277065"><ele>1049.0</ele><time>2026-03-29T11:04:00.584Z</time></trkpt><trkpt lat="38.4976217" lon="16.2769067"><ele>1049.0</ele><time>2026-03-29T11:04:01.584Z</time></trkpt><trkpt lat="38.4976067" lon="16.2767967"><ele>1049.0</ele><time>2026-03-29T11:04:02.585Z</time></trkpt><trkpt lat="38.497615" lon="16.27668"><ele>1049.0</ele><time>2026-03-29T11:04:03.584Z</time></trkpt><trkpt lat="38.4976617" lon="16.2765783"><ele>1049.0</ele><time>2026-03-29T11:04:04.584Z</time></trkpt><trkpt lat="38.4977217" lon="16.2764867"><ele>1049.0</ele><time>2026-03-29T11:04:05.584Z</time></trkpt><trkpt lat="38.4978117" lon="16.2764033"><ele>1052.0</ele><time>2026-03-29T11:04:06.584Z</time></trkpt><trkpt lat="38.4979283" lon="16.2763183"><ele>1055.0</ele><time>2026-03-29T11:04:07.584Z</time></trkpt><trkpt lat="38.4980733" lon="16.2762483"><ele>1058.0</ele><time>2026-03-29T11:04:08.585Z</time></trkpt><trkpt lat="38.498235" lon="16.2761783"><ele>1058.0</ele><time>2026-03-29T11:04:09.584Z</time></trkpt><trkpt lat="38.4984017" lon="16.2761167"><ele>1058.0</ele><time>2026-03-29T11:04:10.584Z</time></trkpt><trkpt lat="38.4985533" lon="16.2760733"><ele>1058.0</ele><time>2026-03-29T11:04:11.584Z</time></trkpt><trkpt lat="38.4986783" lon="16.276035"><ele>1058.5</ele><time>2026-03-29T11:04:12.584Z</time></trkpt><trkpt lat="38.4988017" lon="16.275985"><ele>1059.0</ele><time>2026-03-29T11:04:13.584Z</time></trkpt><trkpt lat="38.4989217" lon="16.2759"><ele>1059.5</ele><time>2026-03-29T11:04:14.584Z</time></trkpt><trkpt lat="38.49904" lon="16.2758"><ele>1060.0</ele><time>2026-03-29T11:04:15.584Z</time></trkpt><trkpt lat="38.499155" lon="16.2757033"><ele>1060.0</ele><time>2026-03-29T11:04:16.584Z</time></trkpt><trkpt lat="38.4992783" lon="16.2756233"><ele>1060.0</ele><time>2026-03-29T11:04:17.584Z</time></trkpt><trkpt lat="38.499405" lon="16.2755583"><ele>1060.0</ele><time>2026-03-29T11:04:18.584Z</time></trkpt><trkpt lat="38.4995383" lon="16.27551"><ele>1060.0</ele><time>2026-03-29T11:04:19.584Z</time></trkpt><trkpt lat="38.49969" lon="16.275475"><ele>1064.6666666666665</ele><time>2026-03-29T11:04:20.584Z</time></trkpt><trkpt lat="38.49985" lon="16.2754317"><ele>1069.3333333333333</ele><time>2026-03-29T11:04:21.584Z</time></trkpt><trkpt lat="38.5000183" lon="16.2753933"><ele>1074.0</ele><time>2026-03-29T11:04:22.584Z</time></trkpt><trkpt lat="38.5002083" lon="16.2753667"><ele>1074.0</ele><time>2026-03-29T11:04:23.584Z</time></trkpt><trkpt lat="38.5004033" lon="16.2753317"><ele>1074.0</ele><time>2026-03-29T11:04:24.584Z</time></trkpt><trkpt lat="38.5005883" lon="16.27529"><ele>1074.0</ele><time>2026-03-29T11:04:25.584Z</time></trkpt><trkpt lat="38.500765" lon="16.2752533"><ele>1076.0</ele><time>2026-03-29T11:04:26.584Z</time></trkpt><trkpt lat="38.5009333" lon="16.2752333"><ele>1078.0</ele><time>2026-03-29T11:04:27.584Z</time></trkpt><trkpt lat="38.5011167" lon="16.2752233"><ele>1080.0</ele><time>2026-03-29T11:04:28.584Z</time></trkpt><trkpt lat="38.5013167" lon="16.275215"><ele>1080.0</ele><time>2026-03-29T11:04:29.584Z</time></trkpt><trkpt lat="38.5015117" lon="16.2752183"><ele>1080.0</ele><time>2026-03-29T11:04:30.584Z</time></trkpt><trkpt lat="38.5017283" lon="16.2752167"><ele>1080.0</ele><time>2026-03-29T11:04:31.584Z</time></trkpt><trkpt lat="38.50195" lon="16.275215"><ele>1082.0</ele><time>2026-03-29T11:04:32.584Z</time></trkpt><trkpt lat="38.502185" lon="16.275205"><ele>1084.0</ele><time>2026-03-29T11:04:33.584Z</time></trkpt><trkpt lat="38.5024033" lon="16.2752017"><ele>1084.0</ele><time>2026-03-29T11:04:34.584Z</time></trkpt><trkpt lat="38.502595" lon="16.275215"><ele>1084.0</ele><time>2026-03-29T11:04:35.584Z</time></trkpt><trkpt lat="38.5027933" lon="16.2752217"><ele>1084.0</ele><time>2026-03-29T11:04:36.584Z</time></trkpt><trkpt lat="38.5029683" lon="16.2752117"><ele>1086.0</ele><time>2026-03-29T11:04:37.584Z</time></trkpt><trkpt lat="38.5031233" lon="16.27519"><ele>1088.0</ele><time>2026-03-29T11:04:38.584Z</time></trkpt><trkpt lat="38.503245" lon="16.275175"><ele>1090.0</ele><time>2026-03-29T11:04:39.584Z</time></trkpt><trkpt lat="38.5033517" lon="16.275175"><ele>1092.0</ele><time>2026-03-29T11:04:40.584Z</time></trkpt><trkpt lat="38.50345" lon="16.2751583"><ele>1092.0</ele><time>2026-03-29T11:04:41.584Z</time></trkpt><trkpt lat="38.5035267" lon="16.2751417"><ele>1092.0</ele><time>2026-03-29T11:04:42.585Z</time></trkpt><trkpt lat="38.5036017" lon="16.27512"><ele>1092.0</ele><time>2026-03-29T11:04:43.584Z</time></trkpt><trkpt lat="38.5036717" lon="16.2750717"><ele>1092.0</ele><time>2026-03-29T11:04:44.584Z</time></trkpt><trkpt lat="38.5037117" lon="16.2750033"><ele>1092.0</ele><time>2026-03-29T11:04:45.584Z</time></trkpt><trkpt lat="38.5037483" lon="16.2749233"><ele>1092.0</ele><time>2026-03-29T11:04:46.584Z</time></trkpt><trkpt lat="38.50379" lon="16.2748167"><ele>1095.6</ele><time>2026-03-29T11:04:47.584Z</time></trkpt><trkpt lat="38.5038333" lon="16.2747083"><ele>1099.2</ele><time>2026-03-29T11:04:48.584Z</time></trkpt><trkpt lat="38.5038783" lon="16.27459"><ele>1102.8</ele><time>2026-03-29T11:04:49.584Z</time></trkpt><trkpt lat="38.50392" lon="16.2744767"><ele>1106.4</ele><time>2026-03-29T11:04:50.584Z</time></trkpt><trkpt lat="38.50396" lon="16.2743417"><ele>1110.0</ele><time>2026-03-29T11:04:51.584Z</time></trkpt><trkpt lat="38.50401" lon="16.274205"><ele>1110.0</ele><time>2026-03-29T11:04:52.584Z</time></trkpt><trkpt lat="38.5040733" lon="16.2740783"><ele>1110.0</ele><time>2026-03-29T11:04:53.584Z</time></trkpt><trkpt lat="38.5041333" lon="16.2739717"><ele>1110.0</ele><time>2026-03-29T11:04:54.584Z</time></trkpt><trkpt lat="38.5042033" lon="16.2738867"><ele>1110.0</ele><time>2026-03-29T11:04:55.584Z</time></trkpt><trkpt lat="38.5042833" lon="16.2738167"><ele>1110.0</ele><time>2026-03-29T11:04:56.584Z</time></trkpt><trkpt lat="38.5043767" lon="16.2737517"><ele>1109.4</ele><time>2026-03-29T11:04:57.584Z</time></trkpt><trkpt lat="38.504485" lon="16.273695"><ele>1108.8</ele><time>2026-03-29T11:04:58.584Z</time></trkpt><trkpt lat="38.5045917" lon="16.2736567"><ele>1108.2</ele><time>2026-03-29T11:04:59.584Z</time></trkpt><trkpt lat="38.504695" lon="16.2736317"><ele>1107.6</ele><time>2026-03-29T11:05:00.584Z</time></trkpt><trkpt lat="38.5048067" lon="16.2736067"><ele>1107.0</ele><time>2026-03-29T11:05:01.584Z</time></trkpt><trkpt lat="38.5049333" lon="16.2735817"><ele>1109.4</ele><time>2026-03-29T11:05:02.584Z</time></trkpt><trkpt lat="38.505055" lon="16.2735583"><ele>1111.8000000000002</ele><time>2026-03-29T11:05:03.584Z</time></trkpt><trkpt lat="38.5051667" lon="16.2735367"><ele>1114.2</ele><time>2026-03-29T11:05:04.584Z</time></trkpt><trkpt lat="38.50527" lon="16.2735033"><ele>1116.6000000000001</ele><time>2026-03-29T11:05:05.584Z</time></trkpt><trkpt lat="38.50535" lon="16.2734683"><ele>1119.0</ele><time>2026-03-29T11:05:06.584Z</time></trkpt><trkpt lat="38.5054667" lon="16.273395"><ele>1120.3333333333333</ele><time>2026-03-29T11:05:08.584Z</time></trkpt><trkpt lat="38.5055183" lon="16.2733433"><ele>1121.6666666666667</ele><time>2026-03-29T11:05:09.584Z</time></trkpt><trkpt lat="38.505585" lon="16.2732767"><ele>1123.0</ele><time>2026-03-29T11:05:10.585Z</time></trkpt><trkpt lat="38.5056633" lon="16.273205"><ele>1124.3333333333335</ele><time>2026-03-29T11:05:11.584Z</time></trkpt><trkpt lat="38.5057267" lon="16.2731517"><ele>1125.6666666666667</ele><time>2026-03-29T11:05:12.584Z</time></trkpt><trkpt lat="38.5058033" lon="16.273105"><ele>1127.0</ele><time>2026-03-29T11:05:14.584Z</time></trkpt><trkpt lat="38.5058817" lon="16.2730817"><ele>1127.0</ele><time>2026-03-29T11:05:17.584Z</time></trkpt><trkpt lat="38.505965" lon="16.2731117"><ele>1127.0</ele><time>2026-03-29T11:05:21.584Z</time></trkpt><trkpt lat="38.5060233" lon="16.27319"><ele>1127.0</ele><time>2026-03-29T11:05:24.584Z</time></trkpt><trkpt lat="38.5060967" lon="16.2732483"><ele>1127.0</ele><time>2026-03-29T11:05:27.584Z</time></trkpt><trkpt lat="38.5061717" lon="16.273315"><ele>1127.0</ele><time>2026-03-29T11:05:29.584Z</time></trkpt><trkpt lat="38.5062383" lon="16.27336"><ele>1127.0</ele><time>2026-03-29T11:05:30.584Z</time></trkpt><trkpt lat="38.506325" lon="16.2734183"><ele>1127.75</ele><time>2026-03-29T11:05:31.584Z</time></trkpt><trkpt lat="38.5064267" lon="16.2734667"><ele>1128.5</ele><time>2026-03-29T11:05:32.584Z</time></trkpt><trkpt lat="38.5065533" lon="16.27351"><ele>1129.25</ele><time>2026-03-29T11:05:33.584Z</time></trkpt><trkpt lat="38.5066867" lon="16.2735417"><ele>1130.0</ele><time>2026-03-29T11:05:34.584Z</time></trkpt><trkpt lat="38.5068433" lon="16.2735467"><ele>1130.0</ele><time>2026-03-29T11:05:35.584Z</time></trkpt><trkpt lat="38.5069733" lon="16.2735683"><ele>1130.0</ele><time>2026-03-29T11:05:36.584Z</time></trkpt><trkpt lat="38.5071017" lon="16.2736083"><ele>1130.0</ele><time>2026-03-29T11:05:37.584Z</time></trkpt><trkpt lat="38.50721" lon="16.2736783"><ele>1130.0</ele><time>2026-03-29T11:05:38.584Z</time></trkpt><trkpt lat="38.5073117" lon="16.2737833"><ele>1130.0</ele><time>2026-03-29T11:05:39.584Z</time></trkpt><trkpt lat="38.5074033" lon="16.2739"><ele>1130.0</ele><time>2026-03-29T11:05:40.584Z</time></trkpt><trkpt lat="38.507485" lon="16.27403"><ele>1130.0</ele><time>2026-03-29T11:05:41.584Z</time></trkpt><trkpt lat="38.50756" lon="16.2741567"><ele>1130.0</ele><time>2026-03-29T11:05:42.584Z</time></trkpt><trkpt lat="38.5076417" lon="16.2742767"><ele>1130.0</ele><time>2026-03-29T11:05:43.584Z</time></trkpt><trkpt lat="38.5077183" lon="16.2743733"><ele>1130.0</ele><time>2026-03-29T11:05:44.584Z</time></trkpt><trkpt lat="38.5078117" lon="16.2744617"><ele>1130.0</ele><time>2026-03-29T11:05:45.584Z</time></trkpt><trkpt lat="38.5079133" lon="16.2745467"><ele>1130.0</ele><time>2026-03-29T11:05:46.584Z</time></trkpt><trkpt lat="38.5080233" lon="16.2746333"><ele>1127.6666666666667</ele><time>2026-03-29T11:05:47.584Z</time></trkpt><trkpt lat="38.50815" lon="16.274725"><ele>1125.3333333333333</ele><time>2026-03-29T11:05:48.584Z</time></trkpt><trkpt lat="38.50829" lon="16.2748233"><ele>1123.0</ele><time>2026-03-29T11:05:49.584Z</time></trkpt><trkpt lat="38.5084367" lon="16.2749083"><ele>1123.0</ele><time>2026-03-29T11:05:50.584Z</time></trkpt><trkpt lat="38.508585" lon="16.2749933"><ele>1123.0</ele><time>2026-03-29T11:05:51.584Z</time></trkpt><trkpt lat="38.5087283" lon="16.275065"><ele>1123.0</ele><time>2026-03-29T11:05:52.584Z</time></trkpt><trkpt lat="38.5088533" lon="16.2751317"><ele>1121.3333333333333</ele><time>2026-03-29T11:05:53.585Z</time></trkpt><trkpt lat="38.5089517" lon="16.2751983"><ele>1119.6666666666665</ele><time>2026-03-29T11:05:54.584Z</time></trkpt><trkpt lat="38.509035" lon="16.2752633"><ele>1118.0</ele><time>2026-03-29T11:05:55.584Z</time></trkpt><trkpt lat="38.5090933" lon="16.275335"><ele>1116.3333333333333</ele><time>2026-03-29T11:05:56.584Z</time></trkpt><trkpt lat="38.509145" lon="16.2753983"><ele>1114.6666666666667</ele><time>2026-03-29T11:05:57.584Z</time></trkpt><trkpt lat="38.50919" lon="16.2754717"><ele>1113.0</ele><time>2026-03-29T11:05:58.584Z</time></trkpt><trkpt lat="38.5092117" lon="16.27557"><ele>1112.7142857142858</ele><time>2026-03-29T11:05:59.584Z</time></trkpt><trkpt lat="38.509235" lon="16.2756633"><ele>1112.4285714285716</ele><time>2026-03-29T11:06:00.584Z</time></trkpt><trkpt lat="38.5092433" lon="16.27575"><ele>1112.142857142857</ele><time>2026-03-29T11:06:01.584Z</time></trkpt><trkpt lat="38.5092183" lon="16.2758317"><ele>1111.857142857143</ele><time>2026-03-29T11:06:02.584Z</time></trkpt><trkpt lat="38.5091917" lon="16.2759217"><ele>1111.5714285714287</ele><time>2026-03-29T11:06:03.584Z</time></trkpt><trkpt lat="38.5091717" lon="16.2760083"><ele>1111.2857142857142</ele><time>2026-03-29T11:06:04.585Z</time></trkpt><trkpt lat="38.5091483" lon="16.2760933"><ele>1111.0</ele><time>2026-03-29T11:06:05.584Z</time></trkpt><trkpt lat="38.5091367" lon="16.2761917"><ele>1111.0</ele><time>2026-03-29T11:06:06.584Z</time></trkpt><trkpt lat="38.5091233" lon="16.2762783"><ele>1111.0</ele><time>2026-03-29T11:06:07.584Z</time></trkpt><trkpt lat="38.5091067" lon="16.2763583"><ele>1111.0</ele><time>2026-03-29T11:06:08.584Z</time></trkpt><trkpt lat="38.5090867" lon="16.276445"><ele>1111.0</ele><time>2026-03-29T11:06:09.584Z</time></trkpt><trkpt lat="38.50904" lon="16.2765517"><ele>1111.0</ele><time>2026-03-29T11:06:10.584Z</time></trkpt><trkpt lat="38.5090017" lon="16.2766533"><ele>1111.0</ele><time>2026-03-29T11:06:11.584Z</time></trkpt><trkpt lat="38.508975" lon="16.2767433"><ele>1110.25</ele><time>2026-03-29T11:06:12.584Z</time></trkpt><trkpt lat="38.5089583" lon="16.2768217"><ele>1109.5</ele><time>2026-03-29T11:06:13.584Z</time></trkpt><trkpt lat="38.5089083" lon="16.27696"><ele>1108.75</ele><time>2026-03-29T11:06:15.584Z</time></trkpt><trkpt lat="38.5088733" lon="16.277045"><ele>1108.0</ele><time>2026-03-29T11:06:17.584Z</time></trkpt><trkpt lat="38.50883" lon="16.2775133"><ele>1107.0</ele><time>2026-03-29T11:07:47.577Z</time></trkpt><trkpt lat="38.5088317" lon="16.2776683"><ele>1106.0</ele><time>2026-03-29T11:07:49.578Z</time></trkpt><trkpt lat="38.508845" lon="16.27781"><ele>1105.0</ele><time>2026-03-29T11:07:50.577Z</time></trkpt><trkpt lat="38.50885" lon="16.2779883"><ele>1104.0</ele><time>2026-03-29T11:07:51.577Z</time></trkpt><trkpt lat="38.508845" lon="16.2781717"><ele>1102.5</ele><time>2026-03-29T11:07:52.577Z</time></trkpt><trkpt lat="38.5088483" lon="16.2783583"><ele>1101.0</ele><time>2026-03-29T11:07:53.577Z</time></trkpt><trkpt lat="38.5088583" lon="16.278535"><ele>1099.5</ele><time>2026-03-29T11:07:54.578Z</time></trkpt><trkpt lat="38.50888" lon="16.27873"><ele>1098.0</ele><time>2026-03-29T11:07:55.577Z</time></trkpt><trkpt lat="38.5089117" lon="16.2789867"><ele>1095.6666666666667</ele><time>2026-03-29T11:07:56.577Z</time></trkpt><trkpt lat="38.5089533" lon="16.27926"><ele>1093.3333333333335</ele><time>2026-03-29T11:07:57.577Z</time></trkpt><trkpt lat="38.5090167" lon="16.2794833"><ele>1091.0</ele><time>2026-03-29T11:07:58.577Z</time></trkpt><trkpt lat="38.5090933" lon="16.2796983"><ele>1090.0</ele><time>2026-03-29T11:07:59.577Z</time></trkpt><trkpt lat="38.5091783" lon="16.27991"><ele>1089.0</ele><time>2026-03-29T11:08:00.577Z</time></trkpt><trkpt lat="38.509265" lon="16.2801533"><ele>1088.0</ele><time>2026-03-29T11:08:01.577Z</time></trkpt><trkpt lat="38.5093567" lon="16.2803883"><ele>1088.3333333333335</ele><time>2026-03-29T11:08:02.578Z</time></trkpt><trkpt lat="38.5094517" lon="16.2806267"><ele>1088.6666666666667</ele><time>2026-03-29T11:08:03.577Z</time></trkpt><trkpt lat="38.50953" lon="16.28085"><ele>1089.0</ele><time>2026-03-29T11:08:04.577Z</time></trkpt><trkpt lat="38.5095933" lon="16.2810417"><ele>1089.0</ele><time>2026-03-29T11:08:05.577Z</time></trkpt><trkpt lat="38.5096267" lon="16.28121"><ele>1089.0</ele><time>2026-03-29T11:08:06.578Z</time></trkpt><trkpt lat="38.5096583" lon="16.2813567"><ele>1089.0</ele><time>2026-03-29T11:08:07.577Z</time></trkpt><trkpt lat="38.5096933" lon="16.281495"><ele>1089.0</ele><time>2026-03-29T11:08:08.577Z</time></trkpt><trkpt lat="38.5097367" lon="16.28164"><ele>1088.0</ele><time>2026-03-29T11:08:09.578Z</time></trkpt><trkpt lat="38.509795" lon="16.2817983"><ele>1087.0</ele><time>2026-03-29T11:08:10.577Z</time></trkpt><trkpt lat="38.5098617" lon="16.2819817"><ele>1086.0</ele><time>2026-03-29T11:08:11.577Z</time></trkpt><trkpt lat="38.5099267" lon="16.28219"><ele>1085.6666666666667</ele><time>2026-03-29T11:08:12.577Z</time></trkpt><trkpt lat="38.5099933" lon="16.28242"><ele>1085.3333333333335</ele><time>2026-03-29T11:08:13.577Z</time></trkpt><trkpt lat="38.5100617" lon="16.2826433"><ele>1085.0</ele><time>2026-03-29T11:08:14.577Z</time></trkpt><trkpt lat="38.5101317" lon="16.28289"><ele>1086.0</ele><time>2026-03-29T11:08:15.577Z</time></trkpt><trkpt lat="38.5101983" lon="16.28314"><ele>1087.0</ele><time>2026-03-29T11:08:16.577Z</time></trkpt><trkpt lat="38.510255" lon="16.283385"><ele>1088.0</ele><time>2026-03-29T11:08:17.577Z</time></trkpt><trkpt lat="38.51031" lon="16.2836283"><ele>1088.0</ele><time>2026-03-29T11:08:18.577Z</time></trkpt><trkpt lat="38.5103667" lon="16.283885"><ele>1088.0</ele><time>2026-03-29T11:08:19.577Z</time></trkpt><trkpt lat="38.510415" lon="16.28415"><ele>1088.0</ele><time>2026-03-29T11:08:20.577Z</time></trkpt><trkpt lat="38.5104417" lon="16.2844333"><ele>1084.0</ele><time>2026-03-29T11:08:21.577Z</time></trkpt><trkpt lat="38.510445" lon="16.2847383"><ele>1080.0</ele><time>2026-03-29T11:08:22.577Z</time></trkpt><trkpt lat="38.5104617" lon="16.2850367"><ele>1081.0</ele><time>2026-03-29T11:08:23.577Z</time></trkpt><trkpt lat="38.5104817" lon="16.2853183"><ele>1082.0</ele><time>2026-03-29T11:08:24.577Z</time></trkpt><trkpt lat="38.5105183" lon="16.2855867"><ele>1083.0</ele><time>2026-03-29T11:08:25.577Z</time></trkpt><trkpt lat="38.510535" lon="16.2858367"><ele>1083.0</ele><time>2026-03-29T11:08:26.577Z</time></trkpt><trkpt lat="38.5105467" lon="16.2860767"><ele>1083.0</ele><time>2026-03-29T11:08:27.577Z</time></trkpt><trkpt lat="38.5105433" lon="16.2862967"><ele>1083.0</ele><time>2026-03-29T11:08:28.577Z</time></trkpt><trkpt lat="38.5105233" lon="16.2865267"><ele>1085.6666666666667</ele><time>2026-03-29T11:08:29.577Z</time></trkpt><trkpt lat="38.5104933" lon="16.2867433"><ele>1088.3333333333335</ele><time>2026-03-29T11:08:30.577Z</time></trkpt><trkpt lat="38.5104633" lon="16.286925"><ele>1091.0</ele><time>2026-03-29T11:08:31.577Z</time></trkpt><trkpt lat="38.510435" lon="16.2871083"><ele>1091.0</ele><time>2026-03-29T11:08:32.578Z</time></trkpt><trkpt lat="38.51042" lon="16.2872717"><ele>1091.0</ele><time>2026-03-29T11:08:33.577Z</time></trkpt><trkpt lat="38.5104217" lon="16.2874117"><ele>1091.0</ele><time>2026-03-29T11:08:34.577Z</time></trkpt><trkpt lat="38.5104383" lon="16.2875133"><ele>1091.0</ele><time>2026-03-29T11:08:35.578Z</time></trkpt><trkpt lat="38.5104567" lon="16.28761"><ele>1091.0</ele><time>2026-03-29T11:08:36.577Z</time></trkpt><trkpt lat="38.510495" lon="16.28769"><ele>1091.0</ele><time>2026-03-29T11:08:37.577Z</time></trkpt><trkpt lat="38.510555" lon="16.2877617"><ele>1091.0</ele><time>2026-03-29T11:08:38.577Z</time></trkpt><trkpt lat="38.5106267" lon="16.2878267"><ele>1091.0</ele><time>2026-03-29T11:08:39.578Z</time></trkpt><trkpt lat="38.5107067" lon="16.2878933"><ele>1091.0</ele><time>2026-03-29T11:08:40.577Z</time></trkpt><trkpt lat="38.5108217" lon="16.2879717"><ele>1091.0</ele><time>2026-03-29T11:08:41.577Z</time></trkpt><trkpt lat="38.5109433" lon="16.28809"><ele>1085.3333333333335</ele><time>2026-03-29T11:08:42.577Z</time></trkpt><trkpt lat="38.51106" lon="16.2882333"><ele>1079.6666666666667</ele><time>2026-03-29T11:08:43.577Z</time></trkpt><trkpt lat="38.511175" lon="16.2884133"><ele>1074.0</ele><time>2026-03-29T11:08:44.578Z</time></trkpt><trkpt lat="38.5113183" lon="16.2886217"><ele>1071.0</ele><time>2026-03-29T11:08:45.577Z</time></trkpt><trkpt lat="38.5114567" lon="16.2888567"><ele>1068.0</ele><time>2026-03-29T11:08:46.577Z</time></trkpt><trkpt lat="38.5116067" lon="16.28911"><ele>1068.0</ele><time>2026-03-29T11:08:47.577Z</time></trkpt><trkpt lat="38.5117483" lon="16.2893583"><ele>1068.0</ele><time>2026-03-29T11:08:48.577Z</time></trkpt><trkpt lat="38.5118817" lon="16.289615"><ele>1066.0</ele><time>2026-03-29T11:08:49.577Z</time></trkpt><trkpt lat="38.5120117" lon="16.289885"><ele>1064.0</ele><time>2026-03-29T11:08:50.577Z</time></trkpt><trkpt lat="38.5121333" lon="16.2901367"><ele>1064.0</ele><time>2026-03-29T11:08:51.577Z</time></trkpt><trkpt lat="38.51223" lon="16.290375"><ele>1064.0</ele><time>2026-03-29T11:08:52.578Z</time></trkpt><trkpt lat="38.5123183" lon="16.2906083"><ele>1064.0</ele><time>2026-03-29T11:08:53.578Z</time></trkpt><trkpt lat="38.5123983" lon="16.2908383"><ele>1065.0</ele><time>2026-03-29T11:08:54.578Z</time></trkpt><trkpt lat="38.5124633" lon="16.2910483"><ele>1066.0</ele><time>2026-03-29T11:08:55.578Z</time></trkpt><trkpt lat="38.5125283" lon="16.2912433"><ele>1067.0</ele><time>2026-03-29T11:08:56.578Z</time></trkpt><trkpt lat="38.51258" lon="16.2914217"><ele>1065.75</ele><time>2026-03-29T11:08:57.578Z</time></trkpt><trkpt lat="38.512625" lon="16.2915983"><ele>1064.5</ele><time>2026-03-29T11:08:58.578Z</time></trkpt><trkpt lat="38.5126567" lon="16.2917817"><ele>1063.25</ele><time>2026-03-29T11:08:59.578Z</time></trkpt><trkpt lat="38.5126733" lon="16.29198"><ele>1062.0</ele><time>2026-03-29T11:09:00.578Z</time></trkpt><trkpt lat="38.5126567" lon="16.2921967"><ele>1062.0</ele><time>2026-03-29T11:09:01.578Z</time></trkpt><trkpt lat="38.5126383" lon="16.292415"><ele>1062.0</ele><time>2026-03-29T11:09:02.578Z</time></trkpt><trkpt lat="38.512645" lon="16.292645"><ele>1062.0</ele><time>2026-03-29T11:09:03.578Z</time></trkpt><trkpt lat="38.5126683" lon="16.2929133"><ele>1059.6666666666667</ele><time>2026-03-29T11:09:04.578Z</time></trkpt><trkpt lat="38.5127067" lon="16.2931533"><ele>1057.3333333333335</ele><time>2026-03-29T11:09:05.578Z</time></trkpt><trkpt lat="38.5127467" lon="16.293375"><ele>1055.0</ele><time>2026-03-29T11:09:06.578Z</time></trkpt><trkpt lat="38.5127683" lon="16.29358"><ele>1055.0</ele><time>2026-03-29T11:09:07.578Z</time></trkpt><trkpt lat="38.5127933" lon="16.29374"><ele>1055.0</ele><time>2026-03-29T11:09:08.578Z</time></trkpt><trkpt lat="38.5128333" lon="16.2938683"><ele>1055.0</ele><time>2026-03-29T11:09:09.578Z</time></trkpt><trkpt lat="38.5128833" lon="16.2939467"><ele>1055.0</ele><time>2026-03-29T11:09:10.578Z</time></trkpt><trkpt lat="38.513" lon="16.2940267"><ele>1055.0</ele><time>2026-03-29T11:09:12.578Z</time></trkpt><trkpt lat="38.51308" lon="16.29404"><ele>1054.8</ele><time>2026-03-29T11:09:13.578Z</time></trkpt><trkpt lat="38.51316" lon="16.2940567"><ele>1054.6</ele><time>2026-03-29T11:09:14.578Z</time></trkpt><trkpt lat="38.5132633" lon="16.294055"><ele>1054.4</ele><time>2026-03-29T11:09:15.578Z</time></trkpt><trkpt lat="38.513375" lon="16.2940567"><ele>1054.2</ele><time>2026-03-29T11:09:16.578Z</time></trkpt><trkpt lat="38.513495" lon="16.29405"><ele>1054.0</ele><time>2026-03-29T11:09:17.578Z</time></trkpt><trkpt lat="38.5136217" lon="16.2940433"><ele>1054.0</ele><time>2026-03-29T11:09:18.578Z</time></trkpt><trkpt lat="38.5137367" lon="16.29402"><ele>1054.0</ele><time>2026-03-29T11:09:19.578Z</time></trkpt><trkpt lat="38.5139517" lon="16.293875"><ele>1054.0</ele><time>2026-03-29T11:09:20.578Z</time></trkpt><trkpt lat="38.51409" lon="16.2938133"><ele>1054.25</ele><time>2026-03-29T11:09:21.578Z</time></trkpt><trkpt lat="38.5142217" lon="16.2937733"><ele>1054.5</ele><time>2026-03-29T11:09:22.578Z</time></trkpt><trkpt lat="38.514355" lon="16.29375"><ele>1054.75</ele><time>2026-03-29T11:09:23.578Z</time></trkpt><trkpt lat="38.5144733" lon="16.2937717"><ele>1055.0</ele><time>2026-03-29T11:09:24.578Z</time></trkpt><trkpt lat="38.5145483" lon="16.2938133"><ele>1052.0</ele><time>2026-03-29T11:09:25.578Z</time></trkpt><trkpt lat="38.5146017" lon="16.2938733"><ele>1049.0</ele><time>2026-03-29T11:09:26.578Z</time></trkpt><trkpt lat="38.51463" lon="16.29397"><ele>1046.0</ele><time>2026-03-29T11:09:27.578Z</time></trkpt><trkpt lat="38.5146483" lon="16.29408"><ele>1043.0</ele><time>2026-03-29T11:09:28.578Z</time></trkpt><trkpt lat="38.514695" lon="16.2941967"><ele>1040.0</ele><time>2026-03-29T11:09:29.578Z</time></trkpt><trkpt lat="38.5147267" lon="16.2943283"><ele>1038.25</ele><time>2026-03-29T11:09:30.578Z</time></trkpt><trkpt lat="38.514785" lon="16.2944367"><ele>1036.5</ele><time>2026-03-29T11:09:31.578Z</time></trkpt><trkpt lat="38.514865" lon="16.2945417"><ele>1034.75</ele><time>2026-03-29T11:09:32.578Z</time></trkpt><trkpt lat="38.5149517" lon="16.294655"><ele>1033.0</ele><time>2026-03-29T11:09:33.578Z</time></trkpt><trkpt lat="38.5150383" lon="16.29478"><ele>1031.75</ele><time>2026-03-29T11:09:34.578Z</time></trkpt><trkpt lat="38.5151267" lon="16.2949167"><ele>1030.5</ele><time>2026-03-29T11:09:35.578Z</time></trkpt><trkpt lat="38.5152083" lon="16.2950683"><ele>1029.25</ele><time>2026-03-29T11:09:36.578Z</time></trkpt><trkpt lat="38.5152767" lon="16.2952467"><ele>1028.0</ele><time>2026-03-29T11:09:37.578Z</time></trkpt><trkpt lat="38.5153383" lon="16.2954283"><ele>1022.6666666666667</ele><time>2026-03-29T11:09:38.578Z</time></trkpt><trkpt lat="38.5154067" lon="16.29562"><ele>1017.3333333333333</ele><time>2026-03-29T11:09:39.578Z</time></trkpt><trkpt lat="38.5154783" lon="16.2958167"><ele>1012.0</ele><time>2026-03-29T11:09:40.578Z</time></trkpt><trkpt lat="38.5155733" lon="16.29605"><ele>1012.0</ele><time>2026-03-29T11:09:41.578Z</time></trkpt><trkpt lat="38.5156833" lon="16.2963083"><ele>1012.0</ele><time>2026-03-29T11:09:42.578Z</time></trkpt><trkpt lat="38.5158033" lon="16.2965517"><ele>1010.6666666666666</ele><time>2026-03-29T11:09:43.578Z</time></trkpt><trkpt lat="38.51593" lon="16.2967833"><ele>1009.3333333333333</ele><time>2026-03-29T11:09:44.578Z</time></trkpt><trkpt lat="38.516065" lon="16.297"><ele>1008.0</ele><time>2026-03-29T11:09:45.578Z</time></trkpt><trkpt lat="38.5161817" lon="16.2971767"><ele>1003.3333333333333</ele><time>2026-03-29T11:09:46.578Z</time></trkpt><trkpt lat="38.5162767" lon="16.29734"><ele>998.6666666666666</ele><time>2026-03-29T11:09:47.578Z</time></trkpt><trkpt lat="38.51636" lon="16.29752"><ele>994.0</ele><time>2026-03-29T11:09:48.578Z</time></trkpt><trkpt lat="38.5164283" lon="16.2977117"><ele>994.0</ele><time>2026-03-29T11:09:49.578Z</time></trkpt><trkpt lat="38.5164867" lon="16.297925"><ele>994.0</ele><time>2026-03-29T11:09:50.578Z</time></trkpt><trkpt lat="38.5165217" lon="16.2981233"><ele>994.0</ele><time>2026-03-29T11:09:51.578Z</time></trkpt><trkpt lat="38.5165583" lon="16.2983433"><ele>992.3333333333333</ele><time>2026-03-29T11:09:52.578Z</time></trkpt><trkpt lat="38.5165667" lon="16.2985683"><ele>990.6666666666667</ele><time>2026-03-29T11:09:53.578Z</time></trkpt><trkpt lat="38.5165667" lon="16.2987833"><ele>989.0</ele><time>2026-03-29T11:09:54.578Z</time></trkpt><trkpt lat="38.5165383" lon="16.2989733"><ele>987.75</ele><time>2026-03-29T11:09:55.578Z</time></trkpt><trkpt lat="38.5165033" lon="16.2991533"><ele>986.5</ele><time>2026-03-29T11:09:56.578Z</time></trkpt><trkpt lat="38.5164733" lon="16.2993217"><ele>985.25</ele><time>2026-03-29T11:09:57.578Z</time></trkpt><trkpt lat="38.51647" lon="16.299495"><ele>984.0</ele><time>2026-03-29T11:09:58.578Z</time></trkpt><trkpt lat="38.5164867" lon="16.299665"><ele>981.3333333333333</ele><time>2026-03-29T11:09:59.578Z</time></trkpt><trkpt lat="38.5165267" lon="16.2998467"><ele>978.6666666666666</ele><time>2026-03-29T11:10:00.578Z</time></trkpt><trkpt lat="38.51659" lon="16.3000367"><ele>976.0</ele><time>2026-03-29T11:10:01.578Z</time></trkpt><trkpt lat="38.5166583" lon="16.3002383"><ele>976.0</ele><time>2026-03-29T11:10:02.578Z</time></trkpt><trkpt lat="38.5167383" lon="16.3004483"><ele>976.0</ele><time>2026-03-29T11:10:03.578Z</time></trkpt><trkpt lat="38.5168167" lon="16.3006467"><ele>976.0</ele><time>2026-03-29T11:10:04.578Z</time></trkpt><trkpt lat="38.516885" lon="16.300835"><ele>974.6666666666666</ele><time>2026-03-29T11:10:05.578Z</time></trkpt><trkpt lat="38.516955" lon="16.30104"><ele>973.3333333333333</ele><time>2026-03-29T11:10:06.578Z</time></trkpt><trkpt lat="38.5170167" lon="16.3012183"><ele>972.0</ele><time>2026-03-29T11:10:07.578Z</time></trkpt><trkpt lat="38.5170633" lon="16.3013783"><ele>972.5</ele><time>2026-03-29T11:10:08.578Z</time></trkpt><trkpt lat="38.5171083" lon="16.301545"><ele>973.0</ele><time>2026-03-29T11:10:09.578Z</time></trkpt><trkpt lat="38.5171417" lon="16.30172"><ele>973.5</ele><time>2026-03-29T11:10:10.578Z</time></trkpt><trkpt lat="38.5171433" lon="16.3018917"><ele>974.0</ele><time>2026-03-29T11:10:11.578Z</time></trkpt><trkpt lat="38.5171183" lon="16.3020767"><ele>972.6666666666667</ele><time>2026-03-29T11:10:12.578Z</time></trkpt><trkpt lat="38.5170683" lon="16.30228"><ele>971.3333333333333</ele><time>2026-03-29T11:10:13.578Z</time></trkpt><trkpt lat="38.5170133" lon="16.3025067"><ele>970.0</ele><time>2026-03-29T11:10:14.578Z</time></trkpt><trkpt lat="38.51697" lon="16.3027417"><ele>970.0</ele><time>2026-03-29T11:10:15.578Z</time></trkpt><trkpt lat="38.5169233" lon="16.3029733"><ele>970.0</ele><time>2026-03-29T11:10:16.578Z</time></trkpt><trkpt lat="38.5168883" lon="16.3032083"><ele>970.0</ele><time>2026-03-29T11:10:17.578Z</time></trkpt><trkpt lat="38.51685" lon="16.3034267"><ele>969.0</ele><time>2026-03-29T11:10:18.579Z</time></trkpt><trkpt lat="38.5168033" lon="16.303635"><ele>968.0</ele><time>2026-03-29T11:10:19.578Z</time></trkpt><trkpt lat="38.5167483" lon="16.30387"><ele>967.0</ele><time>2026-03-29T11:10:20.579Z</time></trkpt><trkpt lat="38.5166717" lon="16.304105"><ele>965.0</ele><time>2026-03-29T11:10:21.578Z</time></trkpt><trkpt lat="38.5165733" lon="16.3043617"><ele>963.0</ele><time>2026-03-29T11:10:22.579Z</time></trkpt><trkpt lat="38.5164617" lon="16.3046317"><ele>960.5</ele><time>2026-03-29T11:10:23.578Z</time></trkpt><trkpt lat="38.51632" lon="16.3049183"><ele>958.0</ele><time>2026-03-29T11:10:24.578Z</time></trkpt><trkpt lat="38.51616" lon="16.3052633"><ele>954.5</ele><time>2026-03-29T11:10:25.578Z</time></trkpt><trkpt lat="38.515995" lon="16.3056217"><ele>951.0</ele><time>2026-03-29T11:10:26.578Z</time></trkpt><trkpt lat="38.5158333" lon="16.3059583"><ele>951.0</ele><time>2026-03-29T11:10:27.578Z</time></trkpt><trkpt lat="38.51567" lon="16.30631"><ele>951.0</ele><time>2026-03-29T11:10:28.578Z</time></trkpt><trkpt lat="38.5155217" lon="16.3066333"><ele>947.5</ele><time>2026-03-29T11:10:29.578Z</time></trkpt><trkpt lat="38.51537" lon="16.3069433"><ele>944.0</ele><time>2026-03-29T11:10:30.578Z</time></trkpt><trkpt lat="38.515255" lon="16.3072017"><ele>942.6666666666667</ele><time>2026-03-29T11:10:31.578Z</time></trkpt><trkpt lat="38.5151683" lon="16.3074017"><ele>941.3333333333333</ele><time>2026-03-29T11:10:32.578Z</time></trkpt><trkpt lat="38.51507" lon="16.3076333"><ele>940.0</ele><time>2026-03-29T11:10:33.578Z</time></trkpt><trkpt lat="38.5149733" lon="16.3078467"><ele>940.0</ele><time>2026-03-29T11:10:34.578Z</time></trkpt><trkpt lat="38.51488" lon="16.3080567"><ele>940.0</ele><time>2026-03-29T11:10:35.578Z</time></trkpt><trkpt lat="38.5147817" lon="16.3082133"><ele>940.0</ele><time>2026-03-29T11:10:36.578Z</time></trkpt><trkpt lat="38.51466" lon="16.3083567"><ele>940.0</ele><time>2026-03-29T11:10:37.578Z</time></trkpt><trkpt lat="38.5145517" lon="16.3084183"><ele>940.0</ele><time>2026-03-29T11:10:38.578Z</time></trkpt><trkpt lat="38.5144667" lon="16.308475"><ele>940.0</ele><time>2026-03-29T11:10:39.578Z</time></trkpt><trkpt lat="38.5144083" lon="16.3085633"><ele>940.0</ele><time>2026-03-29T11:10:40.578Z</time></trkpt><trkpt lat="38.5143567" lon="16.3086767"><ele>940.0</ele><time>2026-03-29T11:10:41.578Z</time></trkpt><trkpt lat="38.5143333" lon="16.3088083"><ele>939.5</ele><time>2026-03-29T11:10:42.578Z</time></trkpt><trkpt lat="38.5143267" lon="16.3089517"><ele>939.0</ele><time>2026-03-29T11:10:43.578Z</time></trkpt><trkpt lat="38.5143233" lon="16.3091033"><ele>938.5</ele><time>2026-03-29T11:10:44.578Z</time></trkpt><trkpt lat="38.51432" lon="16.3092583"><ele>938.0</ele><time>2026-03-29T11:10:45.578Z</time></trkpt><trkpt lat="38.5143233" lon="16.3094117"><ele>938.0</ele><time>2026-03-29T11:10:46.578Z</time></trkpt><trkpt lat="38.5143433" lon="16.30956"><ele>938.0</ele><time>2026-03-29T11:10:47.578Z</time></trkpt><trkpt lat="38.51435" lon="16.309695"><ele>938.0</ele><time>2026-03-29T11:10:48.578Z</time></trkpt><trkpt lat="38.5143833" lon="16.3098717"><ele>938.0</ele><time>2026-03-29T11:10:49.578Z</time></trkpt><trkpt lat="38.51446" lon="16.3100833"><ele>937.6666666666667</ele><time>2026-03-29T11:10:50.578Z</time></trkpt><trkpt lat="38.5145583" lon="16.31028"><ele>937.3333333333333</ele><time>2026-03-29T11:10:51.578Z</time></trkpt><trkpt lat="38.5147133" lon="16.3105217"><ele>937.0</ele><time>2026-03-29T11:10:52.578Z</time></trkpt><trkpt lat="38.514865" lon="16.3107483"><ele>935.3333333333333</ele><time>2026-03-29T11:10:53.578Z</time></trkpt><trkpt lat="38.51501" lon="16.31096"><ele>933.6666666666667</ele><time>2026-03-29T11:10:54.578Z</time></trkpt><trkpt lat="38.5151417" lon="16.31119"><ele>932.0</ele><time>2026-03-29T11:10:55.578Z</time></trkpt><trkpt lat="38.5152383" lon="16.3113883"><ele>932.25</ele><time>2026-03-29T11:10:56.578Z</time></trkpt><trkpt lat="38.515325" lon="16.3115583"><ele>932.5</ele><time>2026-03-29T11:10:57.578Z</time></trkpt><trkpt lat="38.5153933" lon="16.3117117"><ele>932.75</ele><time>2026-03-29T11:10:58.579Z</time></trkpt><trkpt lat="38.515445" lon="16.3118583"><ele>933.0</ele><time>2026-03-29T11:10:59.578Z</time></trkpt><trkpt lat="38.51548" lon="16.3120067"><ele>931.4</ele><time>2026-03-29T11:11:00.578Z</time></trkpt><trkpt lat="38.5155" lon="16.3121567"><ele>929.8</ele><time>2026-03-29T11:11:01.578Z</time></trkpt><trkpt lat="38.5155033" lon="16.3123167"><ele>928.2</ele><time>2026-03-29T11:11:02.579Z</time></trkpt><trkpt lat="38.5155133" lon="16.3124383"><ele>926.6</ele><time>2026-03-29T11:11:03.578Z</time></trkpt><trkpt lat="38.51553" lon="16.312545"><ele>925.0</ele><time>2026-03-29T11:11:04.578Z</time></trkpt><trkpt lat="38.5155417" lon="16.3126317"><ele>924.0</ele><time>2026-03-29T11:11:05.578Z</time></trkpt><trkpt lat="38.51555" lon="16.3127233"><ele>923.0</ele><time>2026-03-29T11:11:06.578Z</time></trkpt><trkpt lat="38.51553" lon="16.3128033"><ele>922.0</ele><time>2026-03-29T11:11:07.579Z</time></trkpt><trkpt lat="38.5154683" lon="16.3128767"><ele>921.0</ele><time>2026-03-29T11:11:08.578Z</time></trkpt><trkpt lat="38.515355" lon="16.312955"><ele>920.0</ele><time>2026-03-29T11:11:09.578Z</time></trkpt><trkpt lat="38.5152433" lon="16.313015"><ele>919.6</ele><time>2026-03-29T11:11:10.578Z</time></trkpt><trkpt lat="38.5151383" lon="16.313065"><ele>919.2</ele><time>2026-03-29T11:11:11.578Z</time></trkpt><trkpt lat="38.5150633" lon="16.3131233"><ele>918.8</ele><time>2026-03-29T11:11:12.578Z</time></trkpt><trkpt lat="38.5149733" lon="16.31321"><ele>918.4</ele><time>2026-03-29T11:11:13.578Z</time></trkpt><trkpt lat="38.514915" lon="16.3133067"><ele>918.0</ele><time>2026-03-29T11:11:14.578Z</time></trkpt><trkpt lat="38.5148683" lon="16.3134367"><ele>918.0</ele><time>2026-03-29T11:11:15.578Z</time></trkpt><trkpt lat="38.5148233" lon="16.3135833"><ele>918.0</ele><time>2026-03-29T11:11:16.578Z</time></trkpt><trkpt lat="38.5147767" lon="16.3137167"><ele>918.0</ele><time>2026-03-29T11:11:17.578Z</time></trkpt><trkpt lat="38.514725" lon="16.3138433"><ele>918.0</ele><time>2026-03-29T11:11:18.578Z</time></trkpt><trkpt lat="38.5146733" lon="16.313955"><ele>918.1666666666666</ele><time>2026-03-29T11:11:19.578Z</time></trkpt><trkpt lat="38.51462" lon="16.3140483"><ele>918.3333333333333</ele><time>2026-03-29T11:11:20.578Z</time></trkpt><trkpt lat="38.5145817" lon="16.314135"><ele>918.5</ele><time>2026-03-29T11:11:21.578Z</time></trkpt><trkpt lat="38.5145417" lon="16.3142233"><ele>918.6666666666666</ele><time>2026-03-29T11:11:22.578Z</time></trkpt><trkpt lat="38.5145283" lon="16.3143083"><ele>918.8333333333333</ele><time>2026-03-29T11:11:23.578Z</time></trkpt><trkpt lat="38.5145417" lon="16.314395"><ele>919.0</ele><time>2026-03-29T11:11:24.578Z</time></trkpt><trkpt lat="38.5145783" lon="16.3144667"><ele>916.2</ele><time>2026-03-29T11:11:25.578Z</time></trkpt><trkpt lat="38.5146233" lon="16.314545"><ele>913.4000000000001</ele><time>2026-03-29T11:11:26.578Z</time></trkpt><trkpt lat="38.5146783" lon="16.314625"><ele>910.6</ele><time>2026-03-29T11:11:27.578Z</time></trkpt><trkpt lat="38.51474" lon="16.314735"><ele>907.8</ele><time>2026-03-29T11:11:28.578Z</time></trkpt><trkpt lat="38.5148017" lon="16.3148383"><ele>905.0</ele><time>2026-03-29T11:11:29.578Z</time></trkpt><trkpt lat="38.514845" lon="16.3149467"><ele>904.75</ele><time>2026-03-29T11:11:30.578Z</time></trkpt><trkpt lat="38.5148717" lon="16.3150617"><ele>904.5</ele><time>2026-03-29T11:11:31.578Z</time></trkpt><trkpt lat="38.5148533" lon="16.315185"><ele>904.25</ele><time>2026-03-29T11:11:32.578Z</time></trkpt><trkpt lat="38.5148" lon="16.3153233"><ele>904.0</ele><time>2026-03-29T11:11:33.578Z</time></trkpt><trkpt lat="38.5147133" lon="16.3154783"><ele>905.6666666666666</ele><time>2026-03-29T11:11:34.578Z</time></trkpt><trkpt lat="38.5146167" lon="16.3156667"><ele>907.3333333333333</ele><time>2026-03-29T11:11:35.578Z</time></trkpt><trkpt lat="38.5145267" lon="16.3158483"><ele>909.0</ele><time>2026-03-29T11:11:36.578Z</time></trkpt><trkpt lat="38.5144667" lon="16.3160167"><ele>909.25</ele><time>2026-03-29T11:11:37.578Z</time></trkpt><trkpt lat="38.5144383" lon="16.3161567"><ele>909.5</ele><time>2026-03-29T11:11:38.578Z</time></trkpt><trkpt lat="38.5144467" lon="16.316295"><ele>909.75</ele><time>2026-03-29T11:11:39.578Z</time></trkpt><trkpt lat="38.5144867" lon="16.31642"><ele>910.0</ele><time>2026-03-29T11:11:40.578Z</time></trkpt><trkpt lat="38.51459" lon="16.3165317"><ele>910.0</ele><time>2026-03-29T11:11:41.578Z</time></trkpt><trkpt lat="38.5147133" lon="16.31665"><ele>910.0</ele><time>2026-03-29T11:11:42.578Z</time></trkpt><trkpt lat="38.514845" lon="16.316785"><ele>910.0</ele><time>2026-03-29T11:11:43.579Z</time></trkpt><trkpt lat="38.5149867" lon="16.3169317"><ele>910.0</ele><time>2026-03-29T11:11:44.578Z</time></trkpt><trkpt lat="38.5151367" lon="16.3170867"><ele>910.0</ele><time>2026-03-29T11:11:45.578Z</time></trkpt><trkpt lat="38.5152817" lon="16.31723"><ele>910.0</ele><time>2026-03-29T11:11:46.578Z</time></trkpt><trkpt lat="38.5154" lon="16.317365"><ele>911.0</ele><time>2026-03-29T11:11:47.578Z</time></trkpt><trkpt lat="38.5155083" lon="16.3175017"><ele>912.0</ele><time>2026-03-29T11:11:48.578Z</time></trkpt><trkpt lat="38.5156083" lon="16.3176483"><ele>913.0</ele><time>2026-03-29T11:11:49.578Z</time></trkpt><trkpt lat="38.5156833" lon="16.3178"><ele>914.0</ele><time>2026-03-29T11:11:50.578Z</time></trkpt><trkpt lat="38.515745" lon="16.317945"><ele>914.2</ele><time>2026-03-29T11:11:51.579Z</time></trkpt><trkpt lat="38.5157783" lon="16.31809"><ele>914.4000000000001</ele><time>2026-03-29T11:11:52.578Z</time></trkpt><trkpt lat="38.5157833" lon="16.3182233"><ele>914.6</ele><time>2026-03-29T11:11:53.578Z</time></trkpt><trkpt lat="38.5157667" lon="16.3183317"><ele>914.8</ele><time>2026-03-29T11:11:54.578Z</time></trkpt><trkpt lat="38.5157183" lon="16.3184267"><ele>915.0</ele><time>2026-03-29T11:11:55.578Z</time></trkpt><trkpt lat="38.51565" lon="16.3184767"><ele>915.0</ele><time>2026-03-29T11:11:56.578Z</time></trkpt><trkpt lat="38.5155617" lon="16.3185183"><ele>915.0</ele><time>2026-03-29T11:11:57.578Z</time></trkpt><trkpt lat="38.5154717" lon="16.318525"><ele>915.0</ele><time>2026-03-29T11:11:58.578Z</time></trkpt><trkpt lat="38.5153633" lon="16.3184533"><ele>915.0</ele><time>2026-03-29T11:11:59.578Z</time></trkpt><trkpt lat="38.5152267" lon="16.3183383"><ele>916.3333333333333</ele><time>2026-03-29T11:12:00.579Z</time></trkpt><trkpt lat="38.5150783" lon="16.3182467"><ele>917.6666666666666</ele><time>2026-03-29T11:12:01.578Z</time></trkpt><trkpt lat="38.5149117" lon="16.3181867"><ele>919.0</ele><time>2026-03-29T11:12:02.578Z</time></trkpt><trkpt lat="38.51474" lon="16.3181683"><ele>919.0</ele><time>2026-03-29T11:12:03.578Z</time></trkpt><trkpt lat="38.5145533" lon="16.3182117"><ele>919.0</ele><time>2026-03-29T11:12:04.578Z</time></trkpt><trkpt lat="38.51437" lon="16.3182667"><ele>919.0</ele><time>2026-03-29T11:12:05.578Z</time></trkpt><trkpt lat="38.514195" lon="16.3183267"><ele>919.0</ele><time>2026-03-29T11:12:06.578Z</time></trkpt><trkpt lat="38.5140533" lon="16.3183883"><ele>919.0</ele><time>2026-03-29T11:12:07.578Z</time></trkpt><trkpt lat="38.5139317" lon="16.318475"><ele>919.0</ele><time>2026-03-29T11:12:08.578Z</time></trkpt><trkpt lat="38.51383" lon="16.3185833"><ele>919.0</ele><time>2026-03-29T11:12:09.578Z</time></trkpt><trkpt lat="38.51375" lon="16.31869"><ele>919.0</ele><time>2026-03-29T11:12:10.578Z</time></trkpt><trkpt lat="38.5136783" lon="16.3187983"><ele>919.0000000000001</ele><time>2026-03-29T11:12:11.578Z</time></trkpt><trkpt lat="38.5136217" lon="16.318885"><ele>919.0000000000001</ele><time>2026-03-29T11:12:12.578Z</time></trkpt><trkpt lat="38.5135883" lon="16.3189633"><ele>919.0</ele><time>2026-03-29T11:12:13.578Z</time></trkpt><trkpt lat="38.5135883" lon="16.319095"><ele>919.0</ele><time>2026-03-29T11:12:15.578Z</time></trkpt><trkpt lat="38.51365" lon="16.3191967"><ele>919.0</ele><time>2026-03-29T11:12:17.578Z</time></trkpt><trkpt lat="38.5137233" lon="16.3192483"><ele>919.0000000000001</ele><time>2026-03-29T11:12:19.578Z</time></trkpt><trkpt lat="38.5137933" lon="16.3193017"><ele>919.0000000000001</ele><time>2026-03-29T11:12:21.578Z</time></trkpt><trkpt lat="38.5138783" lon="16.319375"><ele>919.0</ele><time>2026-03-29T11:12:23.578Z</time></trkpt><trkpt lat="38.5139567" lon="16.3194467"><ele>919.0</ele><time>2026-03-29T11:12:25.578Z</time></trkpt><trkpt lat="38.5140333" lon="16.3195283"><ele>919.8000000000001</ele><time>2026-03-29T11:12:27.578Z</time></trkpt><trkpt lat="38.514115" lon="16.3195967"><ele>920.6000000000001</ele><time>2026-03-29T11:12:29.578Z</time></trkpt><trkpt lat="38.5142267" lon="16.3196817"><ele>921.4</ele><time>2026-03-29T11:12:31.578Z</time></trkpt><trkpt lat="38.5142917" lon="16.3197333"><ele>922.2</ele><time>2026-03-29T11:12:32.578Z</time></trkpt><trkpt lat="38.514375" lon="16.3197883"><ele>923.0</ele><time>2026-03-29T11:12:33.578Z</time></trkpt><trkpt lat="38.514475" lon="16.3198567"><ele>926.0</ele><time>2026-03-29T11:12:34.578Z</time></trkpt><trkpt lat="38.5146183" lon="16.319945"><ele>929.0</ele><time>2026-03-29T11:12:35.578Z</time></trkpt><trkpt lat="38.5147883" lon="16.320055"><ele>932.0</ele><time>2026-03-29T11:12:36.578Z</time></trkpt><trkpt lat="38.5149633" lon="16.32016"><ele>932.0</ele><time>2026-03-29T11:12:37.578Z</time></trkpt><trkpt lat="38.515125" lon="16.320265"><ele>932.0</ele><time>2026-03-29T11:12:38.578Z</time></trkpt><trkpt lat="38.5152933" lon="16.32036"><ele>932.0</ele><time>2026-03-29T11:12:39.578Z</time></trkpt><trkpt lat="38.51543" lon="16.320445"><ele>932.6</ele><time>2026-03-29T11:12:40.578Z</time></trkpt><trkpt lat="38.51554" lon="16.3205233"><ele>933.2</ele><time>2026-03-29T11:12:41.578Z</time></trkpt><trkpt lat="38.5156433" lon="16.320595"><ele>933.8</ele><time>2026-03-29T11:12:42.578Z</time></trkpt><trkpt lat="38.5157383" lon="16.3206433"><ele>934.4</ele><time>2026-03-29T11:12:43.578Z</time></trkpt><trkpt lat="38.5158167" lon="16.3206883"><ele>935.0</ele><time>2026-03-29T11:12:44.579Z</time></trkpt><trkpt lat="38.51588" lon="16.3207233"><ele>936.0</ele><time>2026-03-29T11:12:45.578Z</time></trkpt><trkpt lat="38.5159583" lon="16.3207517"><ele>937.0</ele><time>2026-03-29T11:12:46.579Z</time></trkpt><trkpt lat="38.5160517" lon="16.32078"><ele>938.0</ele><time>2026-03-29T11:12:47.578Z</time></trkpt><trkpt lat="38.51616" lon="16.32079"><ele>939.0</ele><time>2026-03-29T11:12:48.578Z</time></trkpt><trkpt lat="38.516285" lon="16.3208067"><ele>940.0</ele><time>2026-03-29T11:12:49.578Z</time></trkpt><trkpt lat="38.5164033" lon="16.320825"><ele>941.75</ele><time>2026-03-29T11:12:50.578Z</time></trkpt><trkpt lat="38.5165167" lon="16.3208467"><ele>943.5</ele><time>2026-03-29T11:12:51.578Z</time></trkpt><trkpt lat="38.516645" lon="16.3208617"><ele>945.25</ele><time>2026-03-29T11:12:52.578Z</time></trkpt><trkpt lat="38.5167817" lon="16.3208617"><ele>947.0</ele><time>2026-03-29T11:12:53.578Z</time></trkpt><trkpt lat="38.5169317" lon="16.32085"><ele>948.6666666666667</ele><time>2026-03-29T11:12:54.578Z</time></trkpt><trkpt lat="38.5171033" lon="16.32084"><ele>950.3333333333333</ele><time>2026-03-29T11:12:55.578Z</time></trkpt><trkpt lat="38.5172733" lon="16.3208333"><ele>952.0</ele><time>2026-03-29T11:12:56.578Z</time></trkpt><trkpt lat="38.5174267" lon="16.3208317"><ele>951.9999999999999</ele><time>2026-03-29T11:12:57.578Z</time></trkpt><trkpt lat="38.5175567" lon="16.32083"><ele>952.0</ele><time>2026-03-29T11:12:58.578Z</time></trkpt><trkpt lat="38.5176433" lon="16.3208367"><ele>952.0</ele><time>2026-03-29T11:12:59.578Z</time></trkpt><trkpt lat="38.51771" lon="16.3208367"><ele>952.0</ele><time>2026-03-29T11:13:00.578Z</time></trkpt><trkpt lat="38.5177817" lon="16.3208367"><ele>951.9999999999999</ele><time>2026-03-29T11:13:02.578Z</time></trkpt><trkpt lat="38.5178183" lon="16.32076"><ele>952.0</ele><time>2026-03-29T11:13:28.578Z</time></trkpt><trkpt lat="38.517745" lon="16.3207467"><ele>952.0</ele><time>2026-03-29T11:13:31.578Z</time></trkpt><trkpt lat="38.5177617" lon="16.32083"><ele>952.0</ele><time>2026-03-29T11:13:33.578Z</time></trkpt><trkpt lat="38.5178617" lon="16.3209333"><ele>952.0</ele><time>2026-03-29T11:13:35.578Z</time></trkpt><trkpt lat="38.517945" lon="16.320985"><ele>952.0</ele><time>2026-03-29T11:13:36.578Z</time></trkpt><trkpt lat="38.51806" lon="16.3210583"><ele>952.0</ele><time>2026-03-29T11:13:37.578Z</time></trkpt><trkpt lat="38.51818" lon="16.32115"><ele>954.5</ele><time>2026-03-29T11:13:38.578Z</time></trkpt><trkpt lat="38.518275" lon="16.3212617"><ele>957.0</ele><time>2026-03-29T11:13:39.578Z</time></trkpt><trkpt lat="38.518375" lon="16.3213717"><ele>959.5</ele><time>2026-03-29T11:13:40.578Z</time></trkpt><trkpt lat="38.518465" lon="16.3214567"><ele>962.0</ele><time>2026-03-29T11:13:41.578Z</time></trkpt><trkpt lat="38.5185417" lon="16.32151"><ele>963.3333333333334</ele><time>2026-03-29T11:13:42.578Z</time></trkpt><trkpt lat="38.518605" lon="16.3215417"><ele>964.6666666666667</ele><time>2026-03-29T11:13:43.578Z</time></trkpt><trkpt lat="38.5186833" lon="16.3215217"><ele>966.0</ele><time>2026-03-29T11:13:44.578Z</time></trkpt><trkpt lat="38.518765" lon="16.3214833"><ele>967.3333333333333</ele><time>2026-03-29T11:13:45.578Z</time></trkpt><trkpt lat="38.51884" lon="16.321415"><ele>968.6666666666666</ele><time>2026-03-29T11:13:46.578Z</time></trkpt><trkpt lat="38.5189" lon="16.3213283"><ele>970.0</ele><time>2026-03-29T11:13:47.578Z</time></trkpt><trkpt lat="38.51894" lon="16.3212267"><ele>972.6</ele><time>2026-03-29T11:13:48.578Z</time></trkpt><trkpt lat="38.5189683" lon="16.32111"><ele>975.2</ele><time>2026-03-29T11:13:49.578Z</time></trkpt><trkpt lat="38.51898" lon="16.3209817"><ele>977.8</ele><time>2026-03-29T11:13:50.578Z</time></trkpt><trkpt lat="38.518975" lon="16.3208367"><ele>980.4</ele><time>2026-03-29T11:13:51.578Z</time></trkpt><trkpt lat="38.51894" lon="16.3206667"><ele>983.0</ele><time>2026-03-29T11:13:52.578Z</time></trkpt><trkpt lat="38.5189017" lon="16.3204717"><ele>985.6666666666667</ele><time>2026-03-29T11:13:53.578Z</time></trkpt><trkpt lat="38.51885" lon="16.3202383"><ele>988.3333333333333</ele><time>2026-03-29T11:13:54.578Z</time></trkpt><trkpt lat="38.5188333" lon="16.3200683"><ele>991.0</ele><time>2026-03-29T11:13:55.578Z</time></trkpt><trkpt lat="38.51883" lon="16.3199"><ele>991.5</ele><time>2026-03-29T11:13:56.578Z</time></trkpt><trkpt lat="38.5188817" lon="16.31968"><ele>992.0</ele><time>2026-03-29T11:13:57.578Z</time></trkpt><trkpt lat="38.51892" lon="16.31954"><ele>992.5</ele><time>2026-03-29T11:13:58.578Z</time></trkpt><trkpt lat="38.5189983" lon="16.3193917"><ele>993.0</ele><time>2026-03-29T11:13:59.578Z</time></trkpt><trkpt lat="38.5190817" lon="16.31924"><ele>993.0</ele><time>2026-03-29T11:14:00.578Z</time></trkpt><trkpt lat="38.5191767" lon="16.3190933"><ele>993.0</ele><time>2026-03-29T11:14:01.578Z</time></trkpt><trkpt lat="38.5192767" lon="16.318955"><ele>993.0</ele><time>2026-03-29T11:14:02.578Z</time></trkpt><trkpt lat="38.5193767" lon="16.3188533"><ele>993.0</ele><time>2026-03-29T11:14:03.578Z</time></trkpt><trkpt lat="38.519495" lon="16.31878"><ele>992.0</ele><time>2026-03-29T11:14:04.578Z</time></trkpt><trkpt lat="38.5196083" lon="16.3187083"><ele>991.0</ele><time>2026-03-29T11:14:05.578Z</time></trkpt><trkpt lat="38.5197183" lon="16.31865"><ele>990.0</ele><time>2026-03-29T11:14:06.578Z</time></trkpt><trkpt lat="38.5198367" lon="16.3186167"><ele>989.0</ele><time>2026-03-29T11:14:07.578Z</time></trkpt><trkpt lat="38.51996" lon="16.3186133"><ele>989.0</ele><time>2026-03-29T11:14:08.578Z</time></trkpt><trkpt lat="38.52008" lon="16.31862"><ele>989.0</ele><time>2026-03-29T11:14:09.578Z</time></trkpt><trkpt lat="38.5202083" lon="16.3186967"><ele>989.0</ele><time>2026-03-29T11:14:10.578Z</time></trkpt><trkpt lat="38.5203233" lon="16.31876"><ele>989.0</ele><time>2026-03-29T11:14:11.578Z</time></trkpt><trkpt lat="38.5204383" lon="16.3188517"><ele>995.3333333333334</ele><time>2026-03-29T11:14:12.578Z</time></trkpt><trkpt lat="38.5205683" lon="16.3189733"><ele>1001.6666666666667</ele><time>2026-03-29T11:14:13.578Z</time></trkpt><trkpt lat="38.520725" lon="16.3190933"><ele>1008.0</ele><time>2026-03-29T11:14:14.578Z</time></trkpt><trkpt lat="38.5208817" lon="16.3191967"><ele>1008.0</ele><time>2026-03-29T11:14:15.578Z</time></trkpt><trkpt lat="38.5210417" lon="16.3192817"><ele>1008.0</ele><time>2026-03-29T11:14:16.579Z</time></trkpt><trkpt lat="38.521195" lon="16.3193617"><ele>1008.0</ele><time>2026-03-29T11:14:17.578Z</time></trkpt><trkpt lat="38.5213783" lon="16.319425"><ele>1007.3333333333333</ele><time>2026-03-29T11:14:18.578Z</time></trkpt><trkpt lat="38.521575" lon="16.3194733"><ele>1006.6666666666666</ele><time>2026-03-29T11:14:19.578Z</time></trkpt><trkpt lat="38.5217567" lon="16.3195367"><ele>1006.0</ele><time>2026-03-29T11:14:20.578Z</time></trkpt><trkpt lat="38.521945" lon="16.3195967"><ele>1006.3333333333333</ele><time>2026-03-29T11:14:21.578Z</time></trkpt><trkpt lat="38.5221083" lon="16.319665"><ele>1006.6666666666667</ele><time>2026-03-29T11:14:22.578Z</time></trkpt><trkpt lat="38.5222817" lon="16.319725"><ele>1007.0</ele><time>2026-03-29T11:14:23.578Z</time></trkpt><trkpt lat="38.5224283" lon="16.319805"><ele>1007.0</ele><time>2026-03-29T11:14:24.578Z</time></trkpt><trkpt lat="38.5225517" lon="16.31989"><ele>1007.0</ele><time>2026-03-29T11:14:25.578Z</time></trkpt><trkpt lat="38.5226533" lon="16.3199883"><ele>1007.0</ele><time>2026-03-29T11:14:26.578Z</time></trkpt><trkpt lat="38.5228117" lon="16.32009"><ele>1007.0</ele><time>2026-03-29T11:14:27.578Z</time></trkpt><trkpt lat="38.5229633" lon="16.3201817"><ele>1004.0</ele><time>2026-03-29T11:14:28.578Z</time></trkpt><trkpt lat="38.5231133" lon="16.3202283"><ele>1001.0</ele><time>2026-03-29T11:14:29.578Z</time></trkpt><trkpt lat="38.5232667" lon="16.3202467"><ele>998.0</ele><time>2026-03-29T11:14:30.578Z</time></trkpt><trkpt lat="38.5235" lon="16.3202267"><ele>998.0</ele><time>2026-03-29T11:14:31.578Z</time></trkpt><trkpt lat="38.5237067" lon="16.3201933"><ele>998.0</ele><time>2026-03-29T11:14:32.578Z</time></trkpt><trkpt lat="38.5239" lon="16.320135"><ele>998.0</ele><time>2026-03-29T11:14:33.578Z</time></trkpt><trkpt lat="38.524085" lon="16.32009"><ele>996.6666666666667</ele><time>2026-03-29T11:14:34.578Z</time></trkpt><trkpt lat="38.5242483" lon="16.3200633"><ele>995.3333333333333</ele><time>2026-03-29T11:14:35.578Z</time></trkpt><trkpt lat="38.52442" lon="16.32006"><ele>994.0</ele><time>2026-03-29T11:14:36.578Z</time></trkpt><trkpt lat="38.5245817" lon="16.320075"><ele>993.6666666666666</ele><time>2026-03-29T11:14:37.578Z</time></trkpt><trkpt lat="38.5247567" lon="16.3201083"><ele>993.3333333333333</ele><time>2026-03-29T11:14:38.578Z</time></trkpt><trkpt lat="38.5249317" lon="16.3201367"><ele>993.0</ele><time>2026-03-29T11:14:39.578Z</time></trkpt><trkpt lat="38.5251167" lon="16.32017"><ele>993.0</ele><time>2026-03-29T11:14:40.578Z</time></trkpt><trkpt lat="38.525305" lon="16.320215"><ele>993.0</ele><time>2026-03-29T11:14:41.578Z</time></trkpt><trkpt lat="38.5255117" lon="16.3202483"><ele>993.0</ele><time>2026-03-29T11:14:42.578Z</time></trkpt><trkpt lat="38.525705" lon="16.320295"><ele>991.6666666666667</ele><time>2026-03-29T11:14:43.578Z</time></trkpt><trkpt lat="38.5259017" lon="16.3203333"><ele>990.3333333333334</ele><time>2026-03-29T11:14:44.578Z</time></trkpt><trkpt lat="38.5261017" lon="16.3203767"><ele>989.0</ele><time>2026-03-29T11:14:45.578Z</time></trkpt><trkpt lat="38.5263183" lon="16.3204133"><ele>989.0</ele><time>2026-03-29T11:14:46.578Z</time></trkpt><trkpt lat="38.526525" lon="16.3204533"><ele>989.0</ele><time>2026-03-29T11:14:47.578Z</time></trkpt><trkpt lat="38.5267367" lon="16.320495"><ele>989.0</ele><time>2026-03-29T11:14:48.578Z</time></trkpt><trkpt lat="38.5269683" lon="16.320525"><ele>989.5</ele><time>2026-03-29T11:14:49.578Z</time></trkpt><trkpt lat="38.527205" lon="16.32056"><ele>990.0</ele><time>2026-03-29T11:14:50.578Z</time></trkpt><trkpt lat="38.5274267" lon="16.320605"><ele>990.0</ele><time>2026-03-29T11:14:51.578Z</time></trkpt><trkpt lat="38.5276633" lon="16.3206583"><ele>990.0</ele><time>2026-03-29T11:14:52.578Z</time></trkpt><trkpt lat="38.527895" lon="16.320705"><ele>991.5</ele><time>2026-03-29T11:14:53.578Z</time></trkpt><trkpt lat="38.5281217" lon="16.3207433"><ele>993.0</ele><time>2026-03-29T11:14:54.578Z</time></trkpt><trkpt lat="38.5283467" lon="16.3207733"><ele>993.0</ele><time>2026-03-29T11:14:55.578Z</time></trkpt><trkpt lat="38.52856" lon="16.3208183"><ele>993.0</ele><time>2026-03-29T11:14:56.578Z</time></trkpt><trkpt lat="38.5287633" lon="16.32086"><ele>993.0</ele><time>2026-03-29T11:14:57.578Z</time></trkpt><trkpt lat="38.52896" lon="16.3208983"><ele>995.0</ele><time>2026-03-29T11:14:58.578Z</time></trkpt><trkpt lat="38.52915" lon="16.3209383"><ele>997.0</ele><time>2026-03-29T11:14:59.578Z</time></trkpt><trkpt lat="38.52933" lon="16.3209867"><ele>999.0</ele><time>2026-03-29T11:15:00.578Z</time></trkpt><trkpt lat="38.5295117" lon="16.321015"><ele>999.0</ele><time>2026-03-29T11:15:01.578Z</time></trkpt><trkpt lat="38.5296883" lon="16.32105"><ele>999.0</ele><time>2026-03-29T11:15:02.578Z</time></trkpt><trkpt lat="38.5298683" lon="16.3210883"><ele>999.0</ele><time>2026-03-29T11:15:03.578Z</time></trkpt><trkpt lat="38.5300483" lon="16.3211233"><ele>999.0</ele><time>2026-03-29T11:15:04.578Z</time></trkpt><trkpt lat="38.53022" lon="16.32115"><ele>999.0</ele><time>2026-03-29T11:15:05.578Z</time></trkpt><trkpt lat="38.5304233" lon="16.3212017"><ele>999.0</ele><time>2026-03-29T11:15:06.578Z</time></trkpt><trkpt lat="38.53059" lon="16.321215"><ele>999.0</ele><time>2026-03-29T11:15:07.578Z</time></trkpt><trkpt lat="38.5307633" lon="16.32124"><ele>999.0</ele><time>2026-03-29T11:15:08.578Z</time></trkpt><trkpt lat="38.5309617" lon="16.321275"><ele>999.0</ele><time>2026-03-29T11:15:09.578Z</time></trkpt><trkpt lat="38.53117" lon="16.3213117"><ele>1001.0</ele><time>2026-03-29T11:15:10.578Z</time></trkpt><trkpt lat="38.5313683" lon="16.3213467"><ele>1003.0</ele><time>2026-03-29T11:15:11.578Z</time></trkpt><trkpt lat="38.5315467" lon="16.3213783"><ele>1005.0</ele><time>2026-03-29T11:15:12.578Z</time></trkpt><trkpt lat="38.5317233" lon="16.3214167"><ele>1005.0</ele><time>2026-03-29T11:15:13.578Z</time></trkpt><trkpt lat="38.5318767" lon="16.3214483"><ele>1005.0</ele><time>2026-03-29T11:15:14.578Z</time></trkpt><trkpt lat="38.5320267" lon="16.32147"><ele>1005.0</ele><time>2026-03-29T11:15:15.578Z</time></trkpt><trkpt lat="38.532165" lon="16.3214917"><ele>1005.0</ele><time>2026-03-29T11:15:16.578Z</time></trkpt><trkpt lat="38.5322983" lon="16.3215183"><ele>1005.0</ele><time>2026-03-29T11:15:17.578Z</time></trkpt><trkpt lat="38.5324167" lon="16.3215283"><ele>1005.0</ele><time>2026-03-29T11:15:18.578Z</time></trkpt><trkpt lat="38.5325217" lon="16.3215217"><ele>1005.0</ele><time>2026-03-29T11:15:19.579Z</time></trkpt><trkpt lat="38.5326267" lon="16.32149"><ele>1005.0</ele><time>2026-03-29T11:15:20.578Z</time></trkpt><trkpt lat="38.5327017" lon="16.3214617"><ele>1005.0</ele><time>2026-03-29T11:15:21.578Z</time></trkpt><trkpt lat="38.53281" lon="16.321405"><ele>1004.25</ele><time>2026-03-29T11:15:23.578Z</time></trkpt><trkpt lat="38.5328917" lon="16.3213417"><ele>1003.5</ele><time>2026-03-29T11:15:25.578Z</time></trkpt><trkpt lat="38.5329983" lon="16.3212267"><ele>1002.75</ele><time>2026-03-29T11:15:27.578Z</time></trkpt><trkpt lat="38.5330683" lon="16.3211433"><ele>1002.0</ele><time>2026-03-29T11:15:28.578Z</time></trkpt><trkpt lat="38.5331583" lon="16.3210417"><ele>1002.0</ele><time>2026-03-29T11:15:29.578Z</time></trkpt><trkpt lat="38.5332667" lon="16.3209133"><ele>1002.0</ele><time>2026-03-29T11:15:30.578Z</time></trkpt><trkpt lat="38.53338" lon="16.3207667"><ele>1002.0</ele><time>2026-03-29T11:15:31.578Z</time></trkpt><trkpt lat="38.533495" lon="16.3206117"><ele>1002.0</ele><time>2026-03-29T11:15:32.578Z</time></trkpt><trkpt lat="38.5336167" lon="16.3204483"><ele>1002.0</ele><time>2026-03-29T11:15:33.578Z</time></trkpt><trkpt lat="38.5337383" lon="16.3202783"><ele>1002.0</ele><time>2026-03-29T11:15:34.578Z</time></trkpt><trkpt lat="38.5338633" lon="16.3201033"><ele>1002.0</ele><time>2026-03-29T11:15:35.578Z</time></trkpt><trkpt lat="38.533985" lon="16.3199367"><ele>1002.0</ele><time>2026-03-29T11:15:36.578Z</time></trkpt><trkpt lat="38.5341083" lon="16.3197617"><ele>1002.0</ele><time>2026-03-29T11:15:37.578Z</time></trkpt><trkpt lat="38.5342367" lon="16.31958"><ele>1002.0</ele><time>2026-03-29T11:15:38.578Z</time></trkpt><trkpt lat="38.53436" lon="16.3194083"><ele>1002.0</ele><time>2026-03-29T11:15:39.578Z</time></trkpt><trkpt lat="38.5344783" lon="16.3192383"><ele>1002.0</ele><time>2026-03-29T11:15:40.578Z</time></trkpt><trkpt lat="38.534615" lon="16.3190867"><ele>1003.3333333333333</ele><time>2026-03-29T11:15:41.578Z</time></trkpt><trkpt lat="38.5347617" lon="16.3189483"><ele>1004.6666666666666</ele><time>2026-03-29T11:15:42.578Z</time></trkpt><trkpt lat="38.5349267" lon="16.31881"><ele>1006.0</ele><time>2026-03-29T11:15:43.578Z</time></trkpt><trkpt lat="38.5350867" lon="16.3186783"><ele>1006.0</ele><time>2026-03-29T11:15:44.578Z</time></trkpt><trkpt lat="38.53524" lon="16.3185533"><ele>1006.0</ele><time>2026-03-29T11:15:45.578Z</time></trkpt><trkpt lat="38.5353767" lon="16.3184433"><ele>1006.0</ele><time>2026-03-29T11:15:46.578Z</time></trkpt><trkpt lat="38.535505" lon="16.3183467"><ele>1007.0</ele><time>2026-03-29T11:15:47.578Z</time></trkpt><trkpt lat="38.5356317" lon="16.3182767"><ele>1008.0</ele><time>2026-03-29T11:15:48.578Z</time></trkpt><trkpt lat="38.53575" lon="16.3182533"><ele>1009.0</ele><time>2026-03-29T11:15:49.578Z</time></trkpt><trkpt lat="38.535875" lon="16.3182617"><ele>1010.0</ele><time>2026-03-29T11:15:50.579Z</time></trkpt><trkpt lat="38.535995" lon="16.318295"><ele>1010.0</ele><time>2026-03-29T11:15:51.578Z</time></trkpt><trkpt lat="38.5361167" lon="16.31833"><ele>1010.0</ele><time>2026-03-29T11:15:52.578Z</time></trkpt><trkpt lat="38.5362367" lon="16.318355"><ele>1010.0</ele><time>2026-03-29T11:15:53.578Z</time></trkpt><trkpt lat="38.5363383" lon="16.3183667"><ele>1010.0</ele><time>2026-03-29T11:15:54.578Z</time></trkpt><trkpt lat="38.53643" lon="16.3183367"><ele>1010.0</ele><time>2026-03-29T11:15:55.579Z</time></trkpt><trkpt lat="38.53651" lon="16.3182633"><ele>1010.5</ele><time>2026-03-29T11:15:56.578Z</time></trkpt><trkpt lat="38.5365717" lon="16.318135"><ele>1011.0</ele><time>2026-03-29T11:15:57.578Z</time></trkpt><trkpt lat="38.536605" lon="16.3179833"><ele>1011.5</ele><time>2026-03-29T11:15:58.578Z</time></trkpt><trkpt lat="38.5366433" lon="16.3178233"><ele>1012.0</ele><time>2026-03-29T11:15:59.578Z</time></trkpt><trkpt lat="38.5366933" lon="16.3176683"><ele>1012.0</ele><time>2026-03-29T11:16:00.578Z</time></trkpt><trkpt lat="38.5367833" lon="16.3175483"><ele>1012.0</ele><time>2026-03-29T11:16:01.578Z</time></trkpt><trkpt lat="38.5369033" lon="16.3174533"><ele>1012.0</ele><time>2026-03-29T11:16:02.578Z</time></trkpt><trkpt lat="38.5370333" lon="16.3173433"><ele>1012.0</ele><time>2026-03-29T11:16:03.578Z</time></trkpt><trkpt lat="38.537165" lon="16.31723"><ele>1013.0</ele><time>2026-03-29T11:16:04.578Z</time></trkpt><trkpt lat="38.53728" lon="16.317105"><ele>1014.0</ele><time>2026-03-29T11:16:05.578Z</time></trkpt><trkpt lat="38.5373717" lon="16.3169717"><ele>1015.0</ele><time>2026-03-29T11:16:06.578Z</time></trkpt><trkpt lat="38.53744" lon="16.3168567"><ele>1016.0</ele><time>2026-03-29T11:16:07.579Z</time></trkpt><trkpt lat="38.5375017" lon="16.3167533"><ele>1016.0</ele><time>2026-03-29T11:16:08.578Z</time></trkpt><trkpt lat="38.5375633" lon="16.3166733"><ele>1015.9999999999999</ele><time>2026-03-29T11:16:09.578Z</time></trkpt><trkpt lat="38.5376317" lon="16.3166117"><ele>1015.9999999999999</ele><time>2026-03-29T11:16:10.578Z</time></trkpt><trkpt lat="38.5377283" lon="16.3165317"><ele>1016.0</ele><time>2026-03-29T11:16:12.578Z</time></trkpt><trkpt lat="38.53779" lon="16.316495"><ele>1016.0</ele><time>2026-03-29T11:16:13.578Z</time></trkpt><trkpt lat="38.537895" lon="16.3164417"><ele>1017.8</ele><time>2026-03-29T11:16:15.578Z</time></trkpt><trkpt lat="38.53798" lon="16.3164167"><ele>1019.5999999999999</ele><time>2026-03-29T11:16:17.578Z</time></trkpt><trkpt lat="38.5381233" lon="16.3163617"><ele>1021.4</ele><time>2026-03-29T11:17:47.579Z</time></trkpt><trkpt lat="38.5382433" lon="16.3163183"><ele>1023.2</ele><time>2026-03-29T11:17:49.579Z</time></trkpt><trkpt lat="38.5383133" lon="16.3162883"><ele>1025.0</ele><time>2026-03-29T11:17:50.579Z</time></trkpt><trkpt lat="38.5384083" lon="16.316245"><ele>1026.0</ele><time>2026-03-29T11:17:51.579Z</time></trkpt><trkpt lat="38.538525" lon="16.31618"><ele>1027.0</ele><time>2026-03-29T11:17:52.579Z</time></trkpt><trkpt lat="38.5386633" lon="16.31612"><ele>1028.0</ele><time>2026-03-29T11:17:53.579Z</time></trkpt><trkpt lat="38.53884" lon="16.316045"><ele>1028.3333333333335</ele><time>2026-03-29T11:17:54.579Z</time></trkpt><trkpt lat="38.539055" lon="16.3159683"><ele>1028.6666666666667</ele><time>2026-03-29T11:17:55.579Z</time></trkpt><trkpt lat="38.5392717" lon="16.3158867"><ele>1029.0</ele><time>2026-03-29T11:17:56.579Z</time></trkpt><trkpt lat="38.5394833" lon="16.3158217"><ele>1029.6666666666667</ele><time>2026-03-29T11:17:57.579Z</time></trkpt><trkpt lat="38.5396667" lon="16.31575"><ele>1030.3333333333335</ele><time>2026-03-29T11:17:58.579Z</time></trkpt><trkpt lat="38.539835" lon="16.3156967"><ele>1031.0</ele><time>2026-03-29T11:17:59.579Z</time></trkpt><trkpt lat="38.5399767" lon="16.3156717"><ele>1031.0</ele><time>2026-03-29T11:18:00.579Z</time></trkpt><trkpt lat="38.5401" lon="16.315685"><ele>1031.0</ele><time>2026-03-29T11:18:01.579Z</time></trkpt><trkpt lat="38.540215" lon="16.31572"><ele>1031.0</ele><time>2026-03-29T11:18:02.579Z</time></trkpt><trkpt lat="38.540305" lon="16.3157867"><ele>1031.0</ele><time>2026-03-29T11:18:03.579Z</time></trkpt><trkpt lat="38.5404083" lon="16.3158517"><ele>1029.75</ele><time>2026-03-29T11:18:04.579Z</time></trkpt><trkpt lat="38.5405183" lon="16.3159083"><ele>1028.5</ele><time>2026-03-29T11:18:05.579Z</time></trkpt><trkpt lat="38.5406367" lon="16.3159417"><ele>1027.25</ele><time>2026-03-29T11:18:06.579Z</time></trkpt><trkpt lat="38.5407583" lon="16.3159467"><ele>1026.0</ele><time>2026-03-29T11:18:07.579Z</time></trkpt><trkpt lat="38.5408867" lon="16.3159317"><ele>1026.0</ele><time>2026-03-29T11:18:08.579Z</time></trkpt><trkpt lat="38.541015" lon="16.3158867"><ele>1026.0</ele><time>2026-03-29T11:18:09.579Z</time></trkpt><trkpt lat="38.5411317" lon="16.3158317"><ele>1026.0</ele><time>2026-03-29T11:18:10.579Z</time></trkpt><trkpt lat="38.5412533" lon="16.3157867"><ele>1026.0</ele><time>2026-03-29T11:18:11.579Z</time></trkpt><trkpt lat="38.5413967" lon="16.315735"><ele>1025.25</ele><time>2026-03-29T11:18:12.579Z</time></trkpt><trkpt lat="38.5415267" lon="16.3157067"><ele>1024.5</ele><time>2026-03-29T11:18:13.579Z</time></trkpt><trkpt lat="38.54167" lon="16.3156717"><ele>1023.75</ele><time>2026-03-29T11:18:14.579Z</time></trkpt><trkpt lat="38.5418017" lon="16.3156417"><ele>1023.0</ele><time>2026-03-29T11:18:15.579Z</time></trkpt><trkpt lat="38.541925" lon="16.3156067"><ele>1023.0</ele><time>2026-03-29T11:18:16.579Z</time></trkpt><trkpt lat="38.5420417" lon="16.315575"><ele>1023.0</ele><time>2026-03-29T11:18:17.579Z</time></trkpt><trkpt lat="38.5421433" lon="16.3155483"><ele>1023.0</ele><time>2026-03-29T11:18:18.579Z</time></trkpt><trkpt lat="38.5422533" lon="16.31552"><ele>1023.0</ele><time>2026-03-29T11:18:19.58Z</time></trkpt><trkpt lat="38.54236" lon="16.3155117"><ele>1023.0</ele><time>2026-03-29T11:18:20.579Z</time></trkpt><trkpt lat="38.5424667" lon="16.3155183"><ele>1022.25</ele><time>2026-03-29T11:18:21.579Z</time></trkpt><trkpt lat="38.542575" lon="16.3155633"><ele>1021.5</ele><time>2026-03-29T11:18:22.579Z</time></trkpt><trkpt lat="38.5426917" lon="16.3156183"><ele>1020.75</ele><time>2026-03-29T11:18:23.579Z</time></trkpt><trkpt lat="38.542795" lon="16.3157"><ele>1020.0</ele><time>2026-03-29T11:18:24.579Z</time></trkpt><trkpt lat="38.5428933" lon="16.3158233"><ele>1018.0</ele><time>2026-03-29T11:18:25.579Z</time></trkpt><trkpt lat="38.54298" lon="16.3159617"><ele>1016.0</ele><time>2026-03-29T11:18:26.579Z</time></trkpt><trkpt lat="38.5430633" lon="16.3161133"><ele>1014.0</ele><time>2026-03-29T11:18:27.579Z</time></trkpt><trkpt lat="38.5431717" lon="16.31626"><ele>1012.0</ele><time>2026-03-29T11:18:28.579Z</time></trkpt><trkpt lat="38.5432633" lon="16.3163883"><ele>1012.75</ele><time>2026-03-29T11:18:29.579Z</time></trkpt><trkpt lat="38.5433533" lon="16.316505"><ele>1013.5</ele><time>2026-03-29T11:18:30.579Z</time></trkpt><trkpt lat="38.54345" lon="16.3166017"><ele>1014.25</ele><time>2026-03-29T11:18:31.579Z</time></trkpt><trkpt lat="38.5435567" lon="16.3166783"><ele>1015.0</ele><time>2026-03-29T11:18:32.579Z</time></trkpt><trkpt lat="38.54368" lon="16.3167367"><ele>1013.0</ele><time>2026-03-29T11:18:33.579Z</time></trkpt><trkpt lat="38.5438083" lon="16.316805"><ele>1011.0</ele><time>2026-03-29T11:18:34.579Z</time></trkpt><trkpt lat="38.5439283" lon="16.31689"><ele>1009.0</ele><time>2026-03-29T11:18:35.579Z</time></trkpt><trkpt lat="38.54405" lon="16.3169917"><ele>1007.0</ele><time>2026-03-29T11:18:36.579Z</time></trkpt><trkpt lat="38.5441517" lon="16.317105"><ele>1007.0</ele><time>2026-03-29T11:18:37.579Z</time></trkpt><trkpt lat="38.5442417" lon="16.3172267"><ele>1007.0</ele><time>2026-03-29T11:18:38.579Z</time></trkpt><trkpt lat="38.5443017" lon="16.3173567"><ele>1007.0</ele><time>2026-03-29T11:18:39.579Z</time></trkpt><trkpt lat="38.5443667" lon="16.3174867"><ele>1007.0</ele><time>2026-03-29T11:18:40.579Z</time></trkpt><trkpt lat="38.544425" lon="16.3176067"><ele>1006.8</ele><time>2026-03-29T11:18:41.579Z</time></trkpt><trkpt lat="38.5444717" lon="16.3177117"><ele>1006.6</ele><time>2026-03-29T11:18:42.579Z</time></trkpt><trkpt lat="38.5445017" lon="16.3178017"><ele>1006.3999999999999</ele><time>2026-03-29T11:18:43.58Z</time></trkpt><trkpt lat="38.544525" lon="16.3178917"><ele>1006.1999999999999</ele><time>2026-03-29T11:18:44.579Z</time></trkpt><trkpt lat="38.5444933" lon="16.3180083"><ele>1006.0</ele><time>2026-03-29T11:18:46.579Z</time></trkpt><trkpt lat="38.5443833" lon="16.3180433"><ele>1006.0</ele><time>2026-03-29T11:18:48.579Z</time></trkpt><trkpt lat="38.5443067" lon="16.31803"><ele>1006.0</ele><time>2026-03-29T11:18:49.579Z</time></trkpt><trkpt lat="38.5441983" lon="16.3179883"><ele>1006.0</ele><time>2026-03-29T11:18:50.579Z</time></trkpt><trkpt lat="38.5440367" lon="16.3179183"><ele>1006.0</ele><time>2026-03-29T11:18:51.579Z</time></trkpt><trkpt lat="38.5438917" lon="16.317885"><ele>1005.9999999999999</ele><time>2026-03-29T11:18:52.579Z</time></trkpt><trkpt lat="38.5437883" lon="16.3178667"><ele>1006.0</ele><time>2026-03-29T11:18:53.579Z</time></trkpt><trkpt lat="38.5437" lon="16.31786"><ele>1006.0</ele><time>2026-03-29T11:18:54.579Z</time></trkpt><trkpt lat="38.543615" lon="16.3178783"><ele>1006.0</ele><time>2026-03-29T11:18:55.579Z</time></trkpt><trkpt lat="38.5435517" lon="16.3179017"><ele>1005.9999999999999</ele><time>2026-03-29T11:18:56.579Z</time></trkpt><trkpt lat="38.5434883" lon="16.3180033"><ele>1006.0</ele><time>2026-03-29T11:18:58.579Z</time></trkpt><trkpt lat="38.5435383" lon="16.318115"><ele>1005.9999999999999</ele><time>2026-03-29T11:19:00.579Z</time></trkpt><trkpt lat="38.5435833" lon="16.3181767"><ele>1006.0</ele><time>2026-03-29T11:19:01.579Z</time></trkpt><trkpt lat="38.543635" lon="16.3182417"><ele>1006.0</ele><time>2026-03-29T11:19:02.579Z</time></trkpt><trkpt lat="38.5436933" lon="16.318305"><ele>1006.0</ele><time>2026-03-29T11:19:03.579Z</time></trkpt><trkpt lat="38.5437483" lon="16.3183817"><ele>1005.9999999999999</ele><time>2026-03-29T11:19:04.579Z</time></trkpt><trkpt lat="38.5438117" lon="16.31845"><ele>1006.0</ele><time>2026-03-29T11:19:05.579Z</time></trkpt><trkpt lat="38.5438967" lon="16.31854"><ele>1004.4</ele><time>2026-03-29T11:19:06.579Z</time></trkpt><trkpt lat="38.54398" lon="16.3186117"><ele>1002.8</ele><time>2026-03-29T11:19:07.579Z</time></trkpt><trkpt lat="38.5440683" lon="16.3186617"><ele>1001.1999999999999</ele><time>2026-03-29T11:19:08.579Z</time></trkpt><trkpt lat="38.5441367" lon="16.3187117"><ele>999.5999999999999</ele><time>2026-03-29T11:19:09.579Z</time></trkpt><trkpt lat="38.544235" lon="16.3187583"><ele>998.0</ele><time>2026-03-29T11:19:10.579Z</time></trkpt><trkpt lat="38.5443483" lon="16.3188"><ele>998.0</ele><time>2026-03-29T11:19:11.579Z</time></trkpt><trkpt lat="38.5444467" lon="16.3188317"><ele>998.0</ele><time>2026-03-29T11:19:12.579Z</time></trkpt><trkpt lat="38.54455" lon="16.318855"><ele>998.0</ele><time>2026-03-29T11:19:13.579Z</time></trkpt><trkpt lat="38.5446467" lon="16.31887"><ele>998.0</ele><time>2026-03-29T11:19:14.579Z</time></trkpt><trkpt lat="38.5447383" lon="16.318885"><ele>998.0</ele><time>2026-03-29T11:19:15.58Z</time></trkpt><trkpt lat="38.5448283" lon="16.3189067"><ele>996.0</ele><time>2026-03-29T11:19:16.579Z</time></trkpt><trkpt lat="38.54492" lon="16.3189283"><ele>994.0</ele><time>2026-03-29T11:19:17.579Z</time></trkpt><trkpt lat="38.5450217" lon="16.3189517"><ele>992.0</ele><time>2026-03-29T11:19:18.579Z</time></trkpt><trkpt lat="38.545115" lon="16.3189867"><ele>990.0</ele><time>2026-03-29T11:19:19.579Z</time></trkpt><trkpt lat="38.5452217" lon="16.31903"><ele>988.0</ele><time>2026-03-29T11:19:20.579Z</time></trkpt><trkpt lat="38.54532" lon="16.3191033"><ele>986.4</ele><time>2026-03-29T11:19:21.579Z</time></trkpt><trkpt lat="38.54541" lon="16.319195"><ele>984.8</ele><time>2026-03-29T11:19:22.579Z</time></trkpt><trkpt lat="38.5454917" lon="16.319295"><ele>983.2</ele><time>2026-03-29T11:19:23.579Z</time></trkpt><trkpt lat="38.5455683" lon="16.3193883"><ele>981.6</ele><time>2026-03-29T11:19:24.579Z</time></trkpt><trkpt lat="38.5456333" lon="16.3194833"><ele>980.0</ele><time>2026-03-29T11:19:25.579Z</time></trkpt><trkpt lat="38.5456933" lon="16.31958"><ele>980.0</ele><time>2026-03-29T11:19:26.579Z</time></trkpt><trkpt lat="38.54575" lon="16.3197033"><ele>980.0</ele><time>2026-03-29T11:19:27.579Z</time></trkpt><trkpt lat="38.54578" lon="16.3198283"><ele>980.0</ele><time>2026-03-29T11:19:28.579Z</time></trkpt><trkpt lat="38.5458067" lon="16.319955"><ele>980.0</ele><time>2026-03-29T11:19:29.58Z</time></trkpt><trkpt lat="38.5458183" lon="16.3200767"><ele>980.0</ele><time>2026-03-29T11:19:30.579Z</time></trkpt><trkpt lat="38.5458533" lon="16.3202183"><ele>979.8</ele><time>2026-03-29T11:19:31.579Z</time></trkpt><trkpt lat="38.5459033" lon="16.3203583"><ele>979.6</ele><time>2026-03-29T11:19:32.579Z</time></trkpt><trkpt lat="38.5459617" lon="16.3204883"><ele>979.4000000000001</ele><time>2026-03-29T11:19:33.579Z</time></trkpt><trkpt lat="38.5460183" lon="16.3206033"><ele>979.2</ele><time>2026-03-29T11:19:34.579Z</time></trkpt><trkpt lat="38.5460817" lon="16.3207083"><ele>979.0</ele><time>2026-03-29T11:19:35.579Z</time></trkpt><trkpt lat="38.5461417" lon="16.3208083"><ele>979.0</ele><time>2026-03-29T11:19:36.579Z</time></trkpt><trkpt lat="38.5462083" lon="16.3208983"><ele>979.0000000000001</ele><time>2026-03-29T11:19:37.579Z</time></trkpt><trkpt lat="38.5462833" lon="16.3209767"><ele>979.0000000000001</ele><time>2026-03-29T11:19:38.58Z</time></trkpt><trkpt lat="38.5463583" lon="16.321045"><ele>979.0</ele><time>2026-03-29T11:19:39.579Z</time></trkpt><trkpt lat="38.546455" lon="16.3211017"><ele>979.0</ele><time>2026-03-29T11:19:40.579Z</time></trkpt><trkpt lat="38.546535" lon="16.3211483"><ele>976.4999999999999</ele><time>2026-03-29T11:19:41.579Z</time></trkpt><trkpt lat="38.5466117" lon="16.3211717"><ele>974.0</ele><time>2026-03-29T11:19:42.579Z</time></trkpt><trkpt lat="38.5467" lon="16.321155"><ele>971.5</ele><time>2026-03-29T11:19:43.579Z</time></trkpt><trkpt lat="38.546765" lon="16.3211333"><ele>969.0</ele><time>2026-03-29T11:19:44.579Z</time></trkpt><trkpt lat="38.5468233" lon="16.3210917"><ele>966.4999999999999</ele><time>2026-03-29T11:19:45.579Z</time></trkpt><trkpt lat="38.54688" lon="16.3210467"><ele>964.0</ele><time>2026-03-29T11:19:46.579Z</time></trkpt><trkpt lat="38.54693" lon="16.3209633"><ele>964.0</ele><time>2026-03-29T11:19:47.579Z</time></trkpt><trkpt lat="38.5469967" lon="16.3207633"><ele>964.0</ele><time>2026-03-29T11:19:48.579Z</time></trkpt><trkpt lat="38.5470383" lon="16.3206233"><ele>964.0</ele><time>2026-03-29T11:19:49.579Z</time></trkpt><trkpt lat="38.5470917" lon="16.3204283"><ele>964.0</ele><time>2026-03-29T11:19:50.579Z</time></trkpt><trkpt lat="38.547125" lon="16.3202617"><ele>962.5</ele><time>2026-03-29T11:19:51.579Z</time></trkpt><trkpt lat="38.5471233" lon="16.3200833"><ele>961.0</ele><time>2026-03-29T11:19:52.58Z</time></trkpt><trkpt lat="38.547125" lon="16.3199067"><ele>959.5</ele><time>2026-03-29T11:19:53.579Z</time></trkpt><trkpt lat="38.5470733" lon="16.31973"><ele>958.0</ele><time>2026-03-29T11:19:54.579Z</time></trkpt><trkpt lat="38.5469933" lon="16.3195867"><ele>960.4</ele><time>2026-03-29T11:19:55.579Z</time></trkpt><trkpt lat="38.5469017" lon="16.3194767"><ele>962.8</ele><time>2026-03-29T11:19:56.579Z</time></trkpt><trkpt lat="38.5468183" lon="16.3194017"><ele>965.2</ele><time>2026-03-29T11:19:57.579Z</time></trkpt><trkpt lat="38.5467467" lon="16.319345"><ele>967.6</ele><time>2026-03-29T11:19:58.579Z</time></trkpt><trkpt lat="38.5466683" lon="16.3192567"><ele>970.0</ele><time>2026-03-29T11:20:00.579Z</time></trkpt><trkpt lat="38.5466533" lon="16.31917"><ele>970.0</ele><time>2026-03-29T11:20:02.579Z</time></trkpt><trkpt lat="38.5467233" lon="16.3191167"><ele>970.0</ele><time>2026-03-29T11:20:04.579Z</time></trkpt><trkpt lat="38.5467883" lon="16.3191"><ele>970.0</ele><time>2026-03-29T11:20:05.579Z</time></trkpt><trkpt lat="38.5468767" lon="16.31908"><ele>970.0</ele><time>2026-03-29T11:20:06.579Z</time></trkpt><trkpt lat="38.5469683" lon="16.3190483"><ele>970.0</ele><time>2026-03-29T11:20:07.579Z</time></trkpt><trkpt lat="38.5470867" lon="16.3190117"><ele>967.25</ele><time>2026-03-29T11:20:08.579Z</time></trkpt><trkpt lat="38.5472067" lon="16.318955"><ele>964.5</ele><time>2026-03-29T11:20:09.579Z</time></trkpt><trkpt lat="38.5473183" lon="16.3189167"><ele>961.75</ele><time>2026-03-29T11:20:10.579Z</time></trkpt><trkpt lat="38.5474667" lon="16.3188767"><ele>959.0</ele><time>2026-03-29T11:20:11.579Z</time></trkpt><trkpt lat="38.5476467" lon="16.3188533"><ele>959.0</ele><time>2026-03-29T11:20:12.579Z</time></trkpt><trkpt lat="38.5478333" lon="16.3188233"><ele>959.0</ele><time>2026-03-29T11:20:13.579Z</time></trkpt><trkpt lat="38.5480067" lon="16.318795"><ele>959.0</ele><time>2026-03-29T11:20:14.579Z</time></trkpt><trkpt lat="38.5482067" lon="16.3187717"><ele>957.3333333333334</ele><time>2026-03-29T11:20:15.579Z</time></trkpt><trkpt lat="38.5484067" lon="16.318755"><ele>955.6666666666667</ele><time>2026-03-29T11:20:16.579Z</time></trkpt><trkpt lat="38.5486017" lon="16.3187383"><ele>954.0</ele><time>2026-03-29T11:20:17.579Z</time></trkpt><trkpt lat="38.5488" lon="16.3187017"><ele>952.0</ele><time>2026-03-29T11:20:18.58Z</time></trkpt><trkpt lat="38.5489867" lon="16.318665"><ele>950.0</ele><time>2026-03-29T11:20:19.579Z</time></trkpt><trkpt lat="38.5491533" lon="16.31864"><ele>948.0</ele><time>2026-03-29T11:20:20.58Z</time></trkpt><trkpt lat="38.5493117" lon="16.3186317"><ele>948.0</ele><time>2026-03-29T11:20:21.579Z</time></trkpt><trkpt lat="38.5494717" lon="16.3186317"><ele>948.0</ele><time>2026-03-29T11:20:22.579Z</time></trkpt><trkpt lat="38.5496333" lon="16.3186517"><ele>948.0</ele><time>2026-03-29T11:20:23.579Z</time></trkpt><trkpt lat="38.5497833" lon="16.318705"><ele>945.6666666666667</ele><time>2026-03-29T11:20:24.579Z</time></trkpt><trkpt lat="38.5499133" lon="16.3188117"><ele>943.3333333333334</ele><time>2026-03-29T11:20:25.579Z</time></trkpt><trkpt lat="38.55005" lon="16.318965"><ele>941.0</ele><time>2026-03-29T11:20:26.579Z</time></trkpt><trkpt lat="38.550155" lon="16.3191183"><ele>941.0</ele><time>2026-03-29T11:20:27.58Z</time></trkpt><trkpt lat="38.5502333" lon="16.319245"><ele>940.9999999999999</ele><time>2026-03-29T11:20:28.579Z</time></trkpt><trkpt lat="38.5502933" lon="16.31934"><ele>940.9999999999999</ele><time>2026-03-29T11:20:29.579Z</time></trkpt><trkpt lat="38.55034" lon="16.319435"><ele>941.0</ele><time>2026-03-29T11:20:30.579Z</time></trkpt><trkpt lat="38.550365" lon="16.3195233"><ele>941.0</ele><time>2026-03-29T11:20:31.579Z</time></trkpt><trkpt lat="38.550355" lon="16.3196183"><ele>941.0</ele><time>2026-03-29T11:20:32.579Z</time></trkpt><trkpt lat="38.55027" lon="16.3197283"><ele>941.0</ele><time>2026-03-29T11:20:34.579Z</time></trkpt><trkpt lat="38.5501317" lon="16.3198083"><ele>941.0</ele><time>2026-03-29T11:20:36.579Z</time></trkpt><trkpt lat="38.5500467" lon="16.3198583"><ele>941.0</ele><time>2026-03-29T11:20:37.579Z</time></trkpt><trkpt lat="38.549895" lon="16.3199367"><ele>939.4</ele><time>2026-03-29T11:20:38.579Z</time></trkpt><trkpt lat="38.54984" lon="16.3200217"><ele>937.8</ele><time>2026-03-29T11:20:39.579Z</time></trkpt><trkpt lat="38.5497833" lon="16.3201333"><ele>936.1999999999999</ele><time>2026-03-29T11:20:40.579Z</time></trkpt><trkpt lat="38.5497567" lon="16.320265"><ele>934.5999999999999</ele><time>2026-03-29T11:20:41.579Z</time></trkpt><trkpt lat="38.5497567" lon="16.3204183"><ele>933.0</ele><time>2026-03-29T11:20:42.579Z</time></trkpt><trkpt lat="38.549775" lon="16.32057"><ele>929.0</ele><time>2026-03-29T11:20:43.579Z</time></trkpt><trkpt lat="38.5498233" lon="16.3207217"><ele>925.0</ele><time>2026-03-29T11:20:44.579Z</time></trkpt><trkpt lat="38.549905" lon="16.3209067"><ele>921.0</ele><time>2026-03-29T11:20:45.579Z</time></trkpt><trkpt lat="38.5500217" lon="16.32106"><ele>921.0</ele><time>2026-03-29T11:20:46.579Z</time></trkpt><trkpt lat="38.5501483" lon="16.321205"><ele>921.0</ele><time>2026-03-29T11:20:47.579Z</time></trkpt><trkpt lat="38.5503033" lon="16.3213417"><ele>921.0</ele><time>2026-03-29T11:20:48.579Z</time></trkpt><trkpt lat="38.55046" lon="16.321475"><ele>917.6666666666667</ele><time>2026-03-29T11:20:49.58Z</time></trkpt><trkpt lat="38.550595" lon="16.3216383"><ele>914.3333333333334</ele><time>2026-03-29T11:20:50.579Z</time></trkpt><trkpt lat="38.5507233" lon="16.3217917"><ele>911.0</ele><time>2026-03-29T11:20:51.579Z</time></trkpt><trkpt lat="38.5508583" lon="16.3219483"><ele>911.0</ele><time>2026-03-29T11:20:52.579Z</time></trkpt><trkpt lat="38.550995" lon="16.3220883"><ele>911.0</ele><time>2026-03-29T11:20:53.579Z</time></trkpt><trkpt lat="38.5511417" lon="16.3221833"><ele>911.0</ele><time>2026-03-29T11:20:54.579Z</time></trkpt><trkpt lat="38.551275" lon="16.32225"><ele>909.5</ele><time>2026-03-29T11:20:55.579Z</time></trkpt><trkpt lat="38.5514083" lon="16.3223067"><ele>908.0</ele><time>2026-03-29T11:20:56.579Z</time></trkpt><trkpt lat="38.551525" lon="16.3223283"><ele>906.5</ele><time>2026-03-29T11:20:57.579Z</time></trkpt><trkpt lat="38.551635" lon="16.3223083"><ele>905.0</ele><time>2026-03-29T11:20:58.579Z</time></trkpt><trkpt lat="38.55176" lon="16.3222667"><ele>905.0</ele><time>2026-03-29T11:20:59.579Z</time></trkpt><trkpt lat="38.5518783" lon="16.32223"><ele>905.0</ele><time>2026-03-29T11:21:00.579Z</time></trkpt><trkpt lat="38.55198" lon="16.3222483"><ele>905.0</ele><time>2026-03-29T11:21:01.579Z</time></trkpt><trkpt lat="38.55208" lon="16.32232"><ele>905.0</ele><time>2026-03-29T11:21:02.579Z</time></trkpt><trkpt lat="38.55217" lon="16.3224267"><ele>903.75</ele><time>2026-03-29T11:21:03.579Z</time></trkpt><trkpt lat="38.5522467" lon="16.3225583"><ele>902.5</ele><time>2026-03-29T11:21:04.579Z</time></trkpt><trkpt lat="38.5523067" lon="16.3227"><ele>901.25</ele><time>2026-03-29T11:21:05.579Z</time></trkpt><trkpt lat="38.5523667" lon="16.3228267"><ele>900.0</ele><time>2026-03-29T11:21:06.579Z</time></trkpt><trkpt lat="38.5524367" lon="16.3229333"><ele>900.0</ele><time>2026-03-29T11:21:07.579Z</time></trkpt><trkpt lat="38.5525167" lon="16.323"><ele>900.0</ele><time>2026-03-29T11:21:08.579Z</time></trkpt><trkpt lat="38.5526067" lon="16.323025"><ele>900.0</ele><time>2026-03-29T11:21:09.579Z</time></trkpt><trkpt lat="38.5527117" lon="16.3230067"><ele>900.0</ele><time>2026-03-29T11:21:10.579Z</time></trkpt><trkpt lat="38.552825" lon="16.32295"><ele>900.0</ele><time>2026-03-29T11:21:11.579Z</time></trkpt><trkpt lat="38.552965" lon="16.322875"><ele>898.25</ele><time>2026-03-29T11:21:12.58Z</time></trkpt><trkpt lat="38.553105" lon="16.3228367"><ele>896.5</ele><time>2026-03-29T11:21:13.579Z</time></trkpt><trkpt lat="38.5532267" lon="16.322835"><ele>894.75</ele><time>2026-03-29T11:21:14.579Z</time></trkpt><trkpt lat="38.5533517" lon="16.3228833"><ele>893.0</ele><time>2026-03-29T11:21:15.579Z</time></trkpt><trkpt lat="38.5534767" lon="16.3229683"><ele>890.6666666666667</ele><time>2026-03-29T11:21:16.579Z</time></trkpt><trkpt lat="38.5536017" lon="16.32308"><ele>888.3333333333333</ele><time>2026-03-29T11:21:17.579Z</time></trkpt><trkpt lat="38.553715" lon="16.3232067"><ele>886.0</ele><time>2026-03-29T11:21:18.579Z</time></trkpt><trkpt lat="38.553815" lon="16.3233533"><ele>886.0</ele><time>2026-03-29T11:21:19.579Z</time></trkpt><trkpt lat="38.5539067" lon="16.3235233"><ele>886.0</ele><time>2026-03-29T11:21:20.579Z</time></trkpt><trkpt lat="38.5539933" lon="16.3237117"><ele>886.0</ele><time>2026-03-29T11:21:21.579Z</time></trkpt><trkpt lat="38.5540783" lon="16.3239367"><ele>883.6666666666666</ele><time>2026-03-29T11:21:22.579Z</time></trkpt><trkpt lat="38.55417" lon="16.3241667"><ele>881.3333333333333</ele><time>2026-03-29T11:21:23.579Z</time></trkpt><trkpt lat="38.5542833" lon="16.3243767"><ele>879.0</ele><time>2026-03-29T11:21:24.579Z</time></trkpt><trkpt lat="38.5543883" lon="16.3245783"><ele>877.6666666666667</ele><time>2026-03-29T11:21:25.579Z</time></trkpt><trkpt lat="38.55448" lon="16.32477"><ele>876.3333333333334</ele><time>2026-03-29T11:21:26.579Z</time></trkpt><trkpt lat="38.55456" lon="16.3249483"><ele>875.0</ele><time>2026-03-29T11:21:27.579Z</time></trkpt><trkpt lat="38.5546333" lon="16.3250983"><ele>875.0</ele><time>2026-03-29T11:21:28.579Z</time></trkpt><trkpt lat="38.5546933" lon="16.325235"><ele>875.0</ele><time>2026-03-29T11:21:29.579Z</time></trkpt><trkpt lat="38.5547483" lon="16.3253633"><ele>875.0</ele><time>2026-03-29T11:21:30.579Z</time></trkpt><trkpt lat="38.55481" lon="16.3254983"><ele>875.0</ele><time>2026-03-29T11:21:31.579Z</time></trkpt><trkpt lat="38.5548717" lon="16.3256267"><ele>874.0</ele><time>2026-03-29T11:21:32.579Z</time></trkpt><trkpt lat="38.55494" lon="16.3257483"><ele>873.0</ele><time>2026-03-29T11:21:33.579Z</time></trkpt><trkpt lat="38.555005" lon="16.3258717"><ele>872.0</ele><time>2026-03-29T11:21:34.579Z</time></trkpt><trkpt lat="38.5550617" lon="16.3260017"><ele>871.0</ele><time>2026-03-29T11:21:35.579Z</time></trkpt><trkpt lat="38.5551083" lon="16.3261233"><ele>871.0</ele><time>2026-03-29T11:21:36.579Z</time></trkpt><trkpt lat="38.5551433" lon="16.326225"><ele>870.9999999999999</ele><time>2026-03-29T11:21:37.579Z</time></trkpt><trkpt lat="38.5551817" lon="16.3262983"><ele>870.9999999999999</ele><time>2026-03-29T11:21:38.579Z</time></trkpt><trkpt lat="38.5552583" lon="16.3264183"><ele>871.0</ele><time>2026-03-29T11:21:40.579Z</time></trkpt><trkpt lat="38.55535" lon="16.326545"><ele>871.0</ele><time>2026-03-29T11:21:42.579Z</time></trkpt><trkpt lat="38.5554233" lon="16.326595"><ele>869.5999999999999</ele><time>2026-03-29T11:21:43.579Z</time></trkpt><trkpt lat="38.5555133" lon="16.3266117"><ele>868.1999999999999</ele><time>2026-03-29T11:21:44.579Z</time></trkpt><trkpt lat="38.5556" lon="16.32661"><ele>866.8000000000001</ele><time>2026-03-29T11:21:45.579Z</time></trkpt><trkpt lat="38.555695" lon="16.3265983"><ele>865.4000000000001</ele><time>2026-03-29T11:21:46.579Z</time></trkpt><trkpt lat="38.5557883" lon="16.3265967"><ele>864.0</ele><time>2026-03-29T11:21:47.579Z</time></trkpt><trkpt lat="38.5558933" lon="16.3265917"><ele>864.0</ele><time>2026-03-29T11:21:48.579Z</time></trkpt><trkpt lat="38.5560183" lon="16.3265817"><ele>864.0</ele><time>2026-03-29T11:21:49.579Z</time></trkpt><trkpt lat="38.5561817" lon="16.3265717"><ele>864.0</ele><time>2026-03-29T11:21:50.579Z</time></trkpt><trkpt lat="38.5563667" lon="16.32656"><ele>861.0</ele><time>2026-03-29T11:21:51.579Z</time></trkpt><trkpt lat="38.5565817" lon="16.3265417"><ele>858.0</ele><time>2026-03-29T11:21:52.579Z</time></trkpt><trkpt lat="38.5568233" lon="16.3265133"><ele>856.5</ele><time>2026-03-29T11:21:53.579Z</time></trkpt><trkpt lat="38.5570683" lon="16.32649"><ele>855.0</ele><time>2026-03-29T11:21:54.579Z</time></trkpt><trkpt lat="38.5573267" lon="16.3264633"><ele>855.0</ele><time>2026-03-29T11:21:55.579Z</time></trkpt><trkpt lat="38.557585" lon="16.326445"><ele>855.0</ele><time>2026-03-29T11:21:56.579Z</time></trkpt><trkpt lat="38.55785" lon="16.3264217"><ele>855.0</ele><time>2026-03-29T11:21:57.579Z</time></trkpt><trkpt lat="38.5581183" lon="16.32641"><ele>855.0</ele><time>2026-03-29T11:21:58.579Z</time></trkpt><trkpt lat="38.5583817" lon="16.3263867"><ele>855.0</ele><time>2026-03-29T11:21:59.579Z</time></trkpt><trkpt lat="38.5586533" lon="16.32637"><ele>855.0</ele><time>2026-03-29T11:22:00.579Z</time></trkpt><trkpt lat="38.558915" lon="16.3263467"><ele>852.5</ele><time>2026-03-29T11:22:01.579Z</time></trkpt><trkpt lat="38.5591783" lon="16.3263183"><ele>850.0</ele><time>2026-03-29T11:22:02.579Z</time></trkpt><trkpt lat="38.5594433" lon="16.3262833"><ele>847.5</ele><time>2026-03-29T11:22:03.579Z</time></trkpt><trkpt lat="38.559695" lon="16.3262617"><ele>845.0</ele><time>2026-03-29T11:22:04.579Z</time></trkpt><trkpt lat="38.5599267" lon="16.3262417"><ele>845.0</ele><time>2026-03-29T11:22:05.579Z</time></trkpt><trkpt lat="38.56016" lon="16.3262217"><ele>845.0</ele><time>2026-03-29T11:22:06.579Z</time></trkpt><trkpt lat="38.5604083" lon="16.3262133"><ele>844.0</ele><time>2026-03-29T11:22:07.579Z</time></trkpt><trkpt lat="38.5606533" lon="16.3262017"><ele>843.0</ele><time>2026-03-29T11:22:08.579Z</time></trkpt><trkpt lat="38.5608983" lon="16.3261767"><ele>843.0</ele><time>2026-03-29T11:22:09.579Z</time></trkpt><trkpt lat="38.5611567" lon="16.3261567"><ele>843.0</ele><time>2026-03-29T11:22:10.579Z</time></trkpt><trkpt lat="38.5614067" lon="16.3261383"><ele>840.5</ele><time>2026-03-29T11:22:11.579Z</time></trkpt><trkpt lat="38.5616633" lon="16.3261183"><ele>838.0</ele><time>2026-03-29T11:22:12.579Z</time></trkpt><trkpt lat="38.56192" lon="16.3260967"><ele>835.0</ele><time>2026-03-29T11:22:13.579Z</time></trkpt><trkpt lat="38.5621717" lon="16.326055"><ele>832.0</ele><time>2026-03-29T11:22:14.579Z</time></trkpt><trkpt lat="38.5624133" lon="16.3260417"><ele>832.0</ele><time>2026-03-29T11:22:15.579Z</time></trkpt><trkpt lat="38.5626417" lon="16.3260283"><ele>832.0</ele><time>2026-03-29T11:22:16.579Z</time></trkpt><trkpt lat="38.562885" lon="16.3260233"><ele>831.0</ele><time>2026-03-29T11:22:17.579Z</time></trkpt><trkpt lat="38.5631033" lon="16.326005"><ele>830.0</ele><time>2026-03-29T11:22:18.579Z</time></trkpt><trkpt lat="38.563325" lon="16.3259883"><ele>829.0</ele><time>2026-03-29T11:22:19.579Z</time></trkpt><trkpt lat="38.5635333" lon="16.3259683"><ele>828.3333333333333</ele><time>2026-03-29T11:22:20.579Z</time></trkpt><trkpt lat="38.56374" lon="16.325945"><ele>827.6666666666667</ele><time>2026-03-29T11:22:21.579Z</time></trkpt><trkpt lat="38.563935" lon="16.325935"><ele>827.0</ele><time>2026-03-29T11:22:22.579Z</time></trkpt><trkpt lat="38.5641333" lon="16.3259233"><ele>827.0</ele><time>2026-03-29T11:22:23.579Z</time></trkpt><trkpt lat="38.56432" lon="16.325905"><ele>827.0</ele><time>2026-03-29T11:22:24.579Z</time></trkpt><trkpt lat="38.5644833" lon="16.3258883"><ele>827.0</ele><time>2026-03-29T11:22:25.579Z</time></trkpt><trkpt lat="38.5646283" lon="16.3258833"><ele>826.25</ele><time>2026-03-29T11:22:26.579Z</time></trkpt><trkpt lat="38.564775" lon="16.32587"><ele>825.5</ele><time>2026-03-29T11:22:27.579Z</time></trkpt><trkpt lat="38.5649183" lon="16.3258567"><ele>824.75</ele><time>2026-03-29T11:22:28.579Z</time></trkpt><trkpt lat="38.5650683" lon="16.325845"><ele>824.0</ele><time>2026-03-29T11:22:29.579Z</time></trkpt><trkpt lat="38.56519" lon="16.3258383"><ele>824.0</ele><time>2026-03-29T11:22:30.579Z</time></trkpt><trkpt lat="38.5653117" lon="16.325835"><ele>824.0</ele><time>2026-03-29T11:22:31.579Z</time></trkpt><trkpt lat="38.5654233" lon="16.3258333"><ele>824.0</ele><time>2026-03-29T11:22:32.579Z</time></trkpt><trkpt lat="38.5655367" lon="16.3258217"><ele>824.0</ele><time>2026-03-29T11:22:33.579Z</time></trkpt><trkpt lat="38.5656517" lon="16.32581"><ele>824.0</ele><time>2026-03-29T11:22:34.579Z</time></trkpt><trkpt lat="38.5657667" lon="16.3257983"><ele>824.0</ele><time>2026-03-29T11:22:35.579Z</time></trkpt><trkpt lat="38.5659017" lon="16.3257983"><ele>824.0</ele><time>2026-03-29T11:22:36.579Z</time></trkpt><trkpt lat="38.56603" lon="16.32578"><ele>824.0</ele><time>2026-03-29T11:22:37.579Z</time></trkpt><trkpt lat="38.5661567" lon="16.32577"><ele>823.3333333333334</ele><time>2026-03-29T11:22:38.579Z</time></trkpt><trkpt lat="38.5663067" lon="16.3257617"><ele>822.6666666666667</ele><time>2026-03-29T11:22:39.579Z</time></trkpt><trkpt lat="38.5664583" lon="16.32575"><ele>822.0</ele><time>2026-03-29T11:22:40.579Z</time></trkpt><trkpt lat="38.5666383" lon="16.32574"><ele>822.0</ele><time>2026-03-29T11:22:41.579Z</time></trkpt><trkpt lat="38.56683" lon="16.3257283"><ele>822.0</ele><time>2026-03-29T11:22:42.579Z</time></trkpt><trkpt lat="38.567035" lon="16.3257167"><ele>822.0</ele><time>2026-03-29T11:22:43.579Z</time></trkpt><trkpt lat="38.5672483" lon="16.3256983"><ele>821.0</ele><time>2026-03-29T11:22:44.579Z</time></trkpt><trkpt lat="38.5674667" lon="16.3256767"><ele>820.0</ele><time>2026-03-29T11:22:45.579Z</time></trkpt><trkpt lat="38.5676817" lon="16.3256567"><ele>819.0</ele><time>2026-03-29T11:22:46.579Z</time></trkpt><trkpt lat="38.5678933" lon="16.32563"><ele>817.5</ele><time>2026-03-29T11:22:47.58Z</time></trkpt><trkpt lat="38.568115" lon="16.325615"><ele>816.0</ele><time>2026-03-29T11:22:48.579Z</time></trkpt><trkpt lat="38.56835" lon="16.3255967"><ele>816.0</ele><time>2026-03-29T11:22:49.579Z</time></trkpt><trkpt lat="38.5685883" lon="16.3255883"><ele>816.0</ele><time>2026-03-29T11:22:50.579Z</time></trkpt><trkpt lat="38.5688233" lon="16.3255717"><ele>812.5</ele><time>2026-03-29T11:22:51.579Z</time></trkpt><trkpt lat="38.56904" lon="16.32555"><ele>809.0</ele><time>2026-03-29T11:22:52.579Z</time></trkpt><trkpt lat="38.5692783" lon="16.3255467"><ele>809.0</ele><time>2026-03-29T11:22:53.579Z</time></trkpt><trkpt lat="38.5695083" lon="16.3255133"><ele>809.0</ele><time>2026-03-29T11:22:54.579Z</time></trkpt><trkpt lat="38.5697033" lon="16.3254967"><ele>809.0</ele><time>2026-03-29T11:22:55.579Z</time></trkpt><trkpt lat="38.5698933" lon="16.3254817"><ele>809.3333333333334</ele><time>2026-03-29T11:22:56.579Z</time></trkpt><trkpt lat="38.57008" lon="16.325465"><ele>809.6666666666667</ele><time>2026-03-29T11:22:57.579Z</time></trkpt><trkpt lat="38.57025" lon="16.3254467"><ele>810.0</ele><time>2026-03-29T11:22:58.579Z</time></trkpt><trkpt lat="38.570405" lon="16.32544"><ele>811.3333333333333</ele><time>2026-03-29T11:22:59.579Z</time></trkpt><trkpt lat="38.5705567" lon="16.325435"><ele>812.6666666666666</ele><time>2026-03-29T11:23:00.579Z</time></trkpt><trkpt lat="38.5707033" lon="16.3254217"><ele>814.0</ele><time>2026-03-29T11:23:01.579Z</time></trkpt><trkpt lat="38.57086" lon="16.3254083"><ele>814.0</ele><time>2026-03-29T11:23:02.579Z</time></trkpt><trkpt lat="38.5710217" lon="16.325395"><ele>814.0</ele><time>2026-03-29T11:23:03.579Z</time></trkpt><trkpt lat="38.5711567" lon="16.3253767"><ele>814.0</ele><time>2026-03-29T11:23:04.579Z</time></trkpt><trkpt lat="38.5712883" lon="16.32536"><ele>814.0</ele><time>2026-03-29T11:23:05.579Z</time></trkpt><trkpt lat="38.5714017" lon="16.3253617"><ele>813.2</ele><time>2026-03-29T11:23:06.579Z</time></trkpt><trkpt lat="38.5714967" lon="16.325365"><ele>812.4000000000001</ele><time>2026-03-29T11:23:07.579Z</time></trkpt><trkpt lat="38.5715833" lon="16.3253833"><ele>811.6</ele><time>2026-03-29T11:23:08.579Z</time></trkpt><trkpt lat="38.5716733" lon="16.3254317"><ele>810.8</ele><time>2026-03-29T11:23:09.579Z</time></trkpt><trkpt lat="38.5717483" lon="16.32548"><ele>810.0</ele><time>2026-03-29T11:23:10.579Z</time></trkpt><trkpt lat="38.57182" lon="16.3255433"><ele>810.0</ele><time>2026-03-29T11:23:11.579Z</time></trkpt><trkpt lat="38.5718833" lon="16.3256183"><ele>810.0</ele><time>2026-03-29T11:23:12.579Z</time></trkpt><trkpt lat="38.57194" lon="16.3256917"><ele>810.0</ele><time>2026-03-29T11:23:13.579Z</time></trkpt><trkpt lat="38.5720117" lon="16.3257633"><ele>810.0</ele><time>2026-03-29T11:23:14.579Z</time></trkpt><trkpt lat="38.57209" lon="16.325835"><ele>810.0</ele><time>2026-03-29T11:23:15.579Z</time></trkpt><trkpt lat="38.5721717" lon="16.3259133"><ele>810.0</ele><time>2026-03-29T11:23:16.579Z</time></trkpt><trkpt lat="38.5722583" lon="16.3259967"><ele>810.0</ele><time>2026-03-29T11:23:17.579Z</time></trkpt><trkpt lat="38.572345" lon="16.3260867"><ele>810.0</ele><time>2026-03-29T11:23:18.579Z</time></trkpt><trkpt lat="38.5724383" lon="16.3261783"><ele>810.0</ele><time>2026-03-29T11:23:19.579Z</time></trkpt><trkpt lat="38.5725283" lon="16.326265"><ele>810.0</ele><time>2026-03-29T11:23:20.579Z</time></trkpt><trkpt lat="38.5726183" lon="16.3263433"><ele>810.0</ele><time>2026-03-29T11:23:21.579Z</time></trkpt><trkpt lat="38.57268" lon="16.3264167"><ele>810.0</ele><time>2026-03-29T11:23:22.579Z</time></trkpt><trkpt lat="38.5727483" lon="16.32648"><ele>810.0</ele><time>2026-03-29T11:23:24.579Z</time></trkpt><trkpt lat="38.572735" lon="16.3265667"><ele>810.0</ele><time>2026-03-29T11:23:28.579Z</time></trkpt><trkpt lat="38.5726417" lon="16.3266917"><ele>810.0</ele><time>2026-03-29T11:23:30.579Z</time></trkpt><trkpt lat="38.5725817" lon="16.32677"><ele>810.0</ele><time>2026-03-29T11:23:31.579Z</time></trkpt><trkpt lat="38.572525" lon="16.32685"><ele>810.0</ele><time>2026-03-29T11:23:32.579Z</time></trkpt><trkpt lat="38.5724667" lon="16.3269383"><ele>810.0</ele><time>2026-03-29T11:23:33.579Z</time></trkpt><trkpt lat="38.5724167" lon="16.3270183"><ele>810.0</ele><time>2026-03-29T11:23:34.579Z</time></trkpt><trkpt lat="38.5723667" lon="16.327085"><ele>810.0</ele><time>2026-03-29T11:23:35.579Z</time></trkpt><trkpt lat="38.572325" lon="16.3271583"><ele>810.0</ele><time>2026-03-29T11:23:36.579Z</time></trkpt><trkpt lat="38.5722767" lon="16.327215"><ele>810.0</ele><time>2026-03-29T11:23:37.579Z</time></trkpt><trkpt lat="38.572215" lon="16.3273183"><ele>810.0</ele><time>2026-03-29T11:23:39.579Z</time></trkpt><trkpt lat="38.572175" lon="16.32742"><ele>810.0</ele><time>2026-03-29T11:23:41.579Z</time></trkpt><trkpt lat="38.572115" lon="16.3275117"><ele>810.0</ele><time>2026-03-29T11:23:43.579Z</time></trkpt><trkpt lat="38.57206" lon="16.3275917"><ele>810.0</ele><time>2026-03-29T11:23:45.579Z</time></trkpt><trkpt lat="38.572015" lon="16.3276617"><ele>810.0</ele><time>2026-03-29T11:23:47.579Z</time></trkpt><trkpt lat="38.57196" lon="16.32775"><ele>810.0</ele><time>2026-03-29T11:23:50.579Z</time></trkpt><trkpt lat="38.5719333" lon="16.3278333"><ele>810.0</ele><time>2026-03-29T11:23:53.579Z</time></trkpt><trkpt lat="38.5718917" lon="16.3279133"><ele>810.0</ele><time>2026-03-29T11:23:57.579Z</time></trkpt><trkpt lat="38.5718867" lon="16.327995"><ele>810.0</ele><time>2026-03-29T11:24:09.579Z</time></trkpt><trkpt lat="38.5719967" lon="16.3280533"><ele>810.0</ele><time>2026-03-29T11:24:11.579Z</time></trkpt><trkpt lat="38.5720683" lon="16.3280883"><ele>809.6</ele><time>2026-03-29T11:24:12.579Z</time></trkpt><trkpt lat="38.5721417" lon="16.32813"><ele>809.2</ele><time>2026-03-29T11:24:13.579Z</time></trkpt><trkpt lat="38.5722367" lon="16.3281917"><ele>808.8</ele><time>2026-03-29T11:24:15.58Z</time></trkpt><trkpt lat="38.572335" lon="16.3282483"><ele>808.4</ele><time>2026-03-29T11:24:17.58Z</time></trkpt><trkpt lat="38.5724033" lon="16.3282917"><ele>808.0</ele><time>2026-03-29T11:24:18.58Z</time></trkpt><trkpt lat="38.5724967" lon="16.3283383"><ele>808.0</ele><time>2026-03-29T11:24:19.58Z</time></trkpt><trkpt lat="38.5725933" lon="16.328395"><ele>808.0</ele><time>2026-03-29T11:24:20.58Z</time></trkpt><trkpt lat="38.5727167" lon="16.3284467"><ele>808.0</ele><time>2026-03-29T11:24:21.58Z</time></trkpt><trkpt lat="38.5728583" lon="16.3285017"><ele>808.0</ele><time>2026-03-29T11:24:22.58Z</time></trkpt><trkpt lat="38.5729967" lon="16.3285617"><ele>808.0</ele><time>2026-03-29T11:24:23.58Z</time></trkpt><trkpt lat="38.5731767" lon="16.3286317"><ele>808.0</ele><time>2026-03-29T11:24:24.58Z</time></trkpt><trkpt lat="38.57333" lon="16.3287083"><ele>808.0</ele><time>2026-03-29T11:24:25.58Z</time></trkpt><trkpt lat="38.5734583" lon="16.3287633"><ele>808.0</ele><time>2026-03-29T11:24:26.58Z</time></trkpt><trkpt lat="38.5735717" lon="16.3288217"><ele>808.0</ele><time>2026-03-29T11:24:27.58Z</time></trkpt><trkpt lat="38.5736733" lon="16.328865"><ele>808.0</ele><time>2026-03-29T11:24:28.58Z</time></trkpt><trkpt lat="38.5737717" lon="16.3289183"><ele>808.0</ele><time>2026-03-29T11:24:29.58Z</time></trkpt><trkpt lat="38.5738783" lon="16.3289767"><ele>807.25</ele><time>2026-03-29T11:24:30.58Z</time></trkpt><trkpt lat="38.5739833" lon="16.3290567"><ele>806.5</ele><time>2026-03-29T11:24:31.58Z</time></trkpt><trkpt lat="38.5741033" lon="16.3291483"><ele>805.75</ele><time>2026-03-29T11:24:32.58Z</time></trkpt><trkpt lat="38.5742083" lon="16.32921"><ele>805.0</ele><time>2026-03-29T11:24:33.58Z</time></trkpt><trkpt lat="38.5743217" lon="16.329275"><ele>805.0</ele><time>2026-03-29T11:24:34.581Z</time></trkpt><trkpt lat="38.574425" lon="16.3293433"><ele>805.0</ele><time>2026-03-29T11:24:35.58Z</time></trkpt><trkpt lat="38.574535" lon="16.3294"><ele>805.0</ele><time>2026-03-29T11:24:36.58Z</time></trkpt><trkpt lat="38.5746483" lon="16.32946"><ele>805.0</ele><time>2026-03-29T11:24:37.58Z</time></trkpt><trkpt lat="38.5747617" lon="16.3295133"><ele>805.0</ele><time>2026-03-29T11:24:38.58Z</time></trkpt><trkpt lat="38.5748867" lon="16.329565"><ele>805.0</ele><time>2026-03-29T11:24:39.58Z</time></trkpt><trkpt lat="38.5750083" lon="16.32961"><ele>805.0</ele><time>2026-03-29T11:24:40.58Z</time></trkpt><trkpt lat="38.5751217" lon="16.3296533"><ele>805.0</ele><time>2026-03-29T11:24:41.58Z</time></trkpt><trkpt lat="38.5752233" lon="16.3296983"><ele>804.6</ele><time>2026-03-29T11:24:42.581Z</time></trkpt><trkpt lat="38.575335" lon="16.3297467"><ele>804.2</ele><time>2026-03-29T11:24:43.58Z</time></trkpt><trkpt lat="38.5754283" lon="16.3297967"><ele>803.8</ele><time>2026-03-29T11:24:44.58Z</time></trkpt><trkpt lat="38.5755133" lon="16.32984"><ele>803.4</ele><time>2026-03-29T11:24:45.58Z</time></trkpt><trkpt lat="38.5755833" lon="16.3298833"><ele>803.0</ele><time>2026-03-29T11:24:46.58Z</time></trkpt><trkpt lat="38.5756467" lon="16.3299183"><ele>802.8</ele><time>2026-03-29T11:24:47.58Z</time></trkpt><trkpt lat="38.5757483" lon="16.3299717"><ele>802.5999999999999</ele><time>2026-03-29T11:24:49.58Z</time></trkpt><trkpt lat="38.575825" lon="16.3300033"><ele>802.4000000000001</ele><time>2026-03-29T11:24:51.58Z</time></trkpt><trkpt lat="38.575905" lon="16.3300267"><ele>802.2</ele><time>2026-03-29T11:24:53.58Z</time></trkpt><trkpt lat="38.5760183" lon="16.3300833"><ele>802.0</ele><time>2026-03-29T11:24:55.58Z</time></trkpt><trkpt lat="38.576085" lon="16.3301217"><ele>801.4999999999999</ele><time>2026-03-29T11:24:56.58Z</time></trkpt><trkpt lat="38.5761883" lon="16.3301883"><ele>801.0</ele><time>2026-03-29T11:24:58.58Z</time></trkpt><trkpt lat="38.5763017" lon="16.3302533"><ele>800.5</ele><time>2026-03-29T11:25:00.58Z</time></trkpt><trkpt lat="38.576365" lon="16.33029"><ele>800.0</ele><time>2026-03-29T11:25:01.58Z</time></trkpt><trkpt lat="38.5764283" lon="16.3303133"><ele>799.4999999999999</ele><time>2026-03-29T11:25:02.58Z</time></trkpt><trkpt lat="38.57649" lon="16.3303333"><ele>799.0</ele><time>2026-03-29T11:25:03.58Z</time></trkpt><trkpt lat="38.576595" lon="16.3303817"><ele>799.0</ele><time>2026-03-29T11:25:05.58Z</time></trkpt><trkpt lat="38.576675" lon="16.3304383"><ele>799.0</ele><time>2026-03-29T11:25:07.58Z</time></trkpt><trkpt lat="38.5767583" lon="16.33046"><ele>799.0</ele><time>2026-03-29T11:25:09.58Z</time></trkpt><trkpt lat="38.576875" lon="16.3303567"><ele>799.0</ele><time>2026-03-29T11:25:11.58Z</time></trkpt><trkpt lat="38.5769917" lon="16.33035"><ele>799.0</ele><time>2026-03-29T11:25:13.58Z</time></trkpt><trkpt lat="38.5770867" lon="16.3304417"><ele>799.4000000000001</ele><time>2026-03-29T11:25:15.58Z</time></trkpt><trkpt lat="38.5771433" lon="16.33051"><ele>799.8</ele><time>2026-03-29T11:25:16.58Z</time></trkpt><trkpt lat="38.57719" lon="16.3305883"><ele>800.2</ele><time>2026-03-29T11:25:17.58Z</time></trkpt><trkpt lat="38.5772333" lon="16.330695"><ele>800.5999999999999</ele><time>2026-03-29T11:25:18.58Z</time></trkpt><trkpt lat="38.57728" lon="16.3308233"><ele>801.0</ele><time>2026-03-29T11:25:19.58Z</time></trkpt><trkpt lat="38.5773383" lon="16.3309683"><ele>801.0</ele><time>2026-03-29T11:25:20.58Z</time></trkpt><trkpt lat="38.5774067" lon="16.3311333"><ele>801.0</ele><time>2026-03-29T11:25:21.58Z</time></trkpt><trkpt lat="38.5774783" lon="16.3312883"><ele>801.0</ele><time>2026-03-29T11:25:22.58Z</time></trkpt><trkpt lat="38.5775583" lon="16.33145"><ele>801.0</ele><time>2026-03-29T11:25:23.58Z</time></trkpt><trkpt lat="38.57764" lon="16.3316167"><ele>800.5</ele><time>2026-03-29T11:25:24.58Z</time></trkpt><trkpt lat="38.5777167" lon="16.33178"><ele>800.0</ele><time>2026-03-29T11:25:25.58Z</time></trkpt><trkpt lat="38.5777883" lon="16.3319333"><ele>799.5</ele><time>2026-03-29T11:25:26.58Z</time></trkpt><trkpt lat="38.5778567" lon="16.332075"><ele>799.0</ele><time>2026-03-29T11:25:27.58Z</time></trkpt><trkpt lat="38.57792" lon="16.332205"><ele>798.6</ele><time>2026-03-29T11:25:28.58Z</time></trkpt><trkpt lat="38.5779783" lon="16.3323233"><ele>798.2</ele><time>2026-03-29T11:25:29.58Z</time></trkpt><trkpt lat="38.578045" lon="16.33242"><ele>797.8000000000001</ele><time>2026-03-29T11:25:30.58Z</time></trkpt><trkpt lat="38.5781133" lon="16.3325017"><ele>797.4000000000001</ele><time>2026-03-29T11:25:31.58Z</time></trkpt><trkpt lat="38.578185" lon="16.3325717"><ele>797.0</ele><time>2026-03-29T11:25:32.581Z</time></trkpt><trkpt lat="38.5782733" lon="16.3326417"><ele>797.0</ele><time>2026-03-29T11:25:33.58Z</time></trkpt><trkpt lat="38.578365" lon="16.3327167"><ele>797.0</ele><time>2026-03-29T11:25:34.58Z</time></trkpt><trkpt lat="38.5784667" lon="16.33279"><ele>797.0</ele><time>2026-03-29T11:25:35.58Z</time></trkpt><trkpt lat="38.5785717" lon="16.33287"><ele>797.0</ele><time>2026-03-29T11:25:36.58Z</time></trkpt><trkpt lat="38.5786867" lon="16.33296"><ele>797.25</ele><time>2026-03-29T11:25:37.58Z</time></trkpt><trkpt lat="38.5788083" lon="16.333055"><ele>797.5</ele><time>2026-03-29T11:25:38.581Z</time></trkpt><trkpt lat="38.5789317" lon="16.3331567"><ele>797.75</ele><time>2026-03-29T11:25:39.58Z</time></trkpt><trkpt lat="38.57905" lon="16.33325"><ele>798.0</ele><time>2026-03-29T11:25:40.58Z</time></trkpt><trkpt lat="38.5791583" lon="16.3333383"><ele>798.0</ele><time>2026-03-29T11:25:41.58Z</time></trkpt><trkpt lat="38.5792533" lon="16.3334117"><ele>798.0</ele><time>2026-03-29T11:25:42.58Z</time></trkpt><trkpt lat="38.5793433" lon="16.3334717"><ele>798.0</ele><time>2026-03-29T11:25:43.58Z</time></trkpt><trkpt lat="38.5794267" lon="16.3335117"><ele>798.0</ele><time>2026-03-29T11:25:44.58Z</time></trkpt><trkpt lat="38.5795283" lon="16.33353"><ele>798.0</ele><time>2026-03-29T11:25:45.58Z</time></trkpt><trkpt lat="38.5796283" lon="16.3335133"><ele>798.0</ele><time>2026-03-29T11:25:46.58Z</time></trkpt><trkpt lat="38.5797283" lon="16.3334717"><ele>798.0</ele><time>2026-03-29T11:25:47.58Z</time></trkpt><trkpt lat="38.57984" lon="16.3334133"><ele>798.0</ele><time>2026-03-29T11:25:48.58Z</time></trkpt><trkpt lat="38.5799583" lon="16.33335"><ele>798.0</ele><time>2026-03-29T11:25:49.58Z</time></trkpt><trkpt lat="38.5800867" lon="16.3332817"><ele>798.0</ele><time>2026-03-29T11:25:50.58Z</time></trkpt><trkpt lat="38.5802167" lon="16.3332"><ele>798.0</ele><time>2026-03-29T11:25:51.58Z</time></trkpt><trkpt lat="38.5803433" lon="16.3331267"><ele>798.0</ele><time>2026-03-29T11:25:52.58Z</time></trkpt><trkpt lat="38.5804617" lon="16.3330667"><ele>798.0</ele><time>2026-03-29T11:25:53.58Z</time></trkpt><trkpt lat="38.58057" lon="16.332995"><ele>797.5999999999999</ele><time>2026-03-29T11:25:54.581Z</time></trkpt><trkpt lat="38.5806717" lon="16.33294"><ele>797.1999999999999</ele><time>2026-03-29T11:25:55.58Z</time></trkpt><trkpt lat="38.58076" lon="16.3329033"><ele>796.8</ele><time>2026-03-29T11:25:56.58Z</time></trkpt><trkpt lat="38.5808417" lon="16.3328767"><ele>796.4</ele><time>2026-03-29T11:25:57.58Z</time></trkpt><trkpt lat="38.5809317" lon="16.3328567"><ele>796.0</ele><time>2026-03-29T11:25:58.58Z</time></trkpt><trkpt lat="38.5810283" lon="16.3328567"><ele>796.0</ele><time>2026-03-29T11:25:59.58Z</time></trkpt><trkpt lat="38.581125" lon="16.3328717"><ele>796.0</ele><time>2026-03-29T11:26:00.58Z</time></trkpt><trkpt lat="38.58122" lon="16.3328933"><ele>796.0</ele><time>2026-03-29T11:26:01.58Z</time></trkpt><trkpt lat="38.5813117" lon="16.33293"><ele>796.0</ele><time>2026-03-29T11:26:02.58Z</time></trkpt><trkpt lat="38.5813967" lon="16.33296"><ele>796.0</ele><time>2026-03-29T11:26:03.58Z</time></trkpt><trkpt lat="38.58147" lon="16.3330083"><ele>795.9999999999999</ele><time>2026-03-29T11:26:04.58Z</time></trkpt><trkpt lat="38.5815317" lon="16.3330433"><ele>796.0</ele><time>2026-03-29T11:26:05.58Z</time></trkpt><trkpt lat="38.5816183" lon="16.3330717"><ele>796.0</ele><time>2026-03-29T11:26:07.58Z</time></trkpt><trkpt lat="38.5817067" lon="16.3331083"><ele>796.0</ele><time>2026-03-29T11:26:45.58Z</time></trkpt><trkpt lat="38.5818017" lon="16.3331483"><ele>795.9999999999999</ele><time>2026-03-29T11:26:47.58Z</time></trkpt><trkpt lat="38.5818883" lon="16.3332067"><ele>796.0</ele><time>2026-03-29T11:26:49.58Z</time></trkpt><trkpt lat="38.581955" lon="16.333265"><ele>796.0</ele><time>2026-03-29T11:26:51.58Z</time></trkpt><trkpt lat="38.58201" lon="16.333305"><ele>796.0</ele><time>2026-03-29T11:26:53.58Z</time></trkpt><trkpt lat="38.5820717" lon="16.33337"><ele>796.0</ele><time>2026-03-29T11:28:31.58Z</time></trkpt><trkpt lat="38.582165" lon="16.3334333"><ele>796.0</ele><time>2026-03-29T11:28:33.58Z</time></trkpt><trkpt lat="38.5822467" lon="16.3335017"><ele>796.0</ele><time>2026-03-29T11:28:34.58Z</time></trkpt><trkpt lat="38.58235" lon="16.333605"><ele>798.3333333333333</ele><time>2026-03-29T11:28:35.58Z</time></trkpt><trkpt lat="38.5824833" lon="16.33373"><ele>800.6666666666667</ele><time>2026-03-29T11:28:36.58Z</time></trkpt><trkpt lat="38.5826417" lon="16.3338867"><ele>803.0</ele><time>2026-03-29T11:28:37.58Z</time></trkpt><trkpt lat="38.5828033" lon="16.33403"><ele>804.3333333333334</ele><time>2026-03-29T11:28:38.58Z</time></trkpt><trkpt lat="38.5829667" lon="16.3341717"><ele>805.6666666666667</ele><time>2026-03-29T11:28:39.58Z</time></trkpt><trkpt lat="38.583125" lon="16.33432"><ele>807.0</ele><time>2026-03-29T11:28:40.58Z</time></trkpt><trkpt lat="38.5832833" lon="16.3344583"><ele>807.0</ele><time>2026-03-29T11:28:41.58Z</time></trkpt><trkpt lat="38.58344" lon="16.3345967"><ele>807.0</ele><time>2026-03-29T11:28:42.58Z</time></trkpt><trkpt lat="38.5835983" lon="16.3347317"><ele>807.0</ele><time>2026-03-29T11:28:43.58Z</time></trkpt><trkpt lat="38.5837517" lon="16.3348733"><ele>807.3333333333333</ele><time>2026-03-29T11:28:44.58Z</time></trkpt><trkpt lat="38.58391" lon="16.33502"><ele>807.6666666666666</ele><time>2026-03-29T11:28:45.58Z</time></trkpt><trkpt lat="38.5840617" lon="16.3351567"><ele>808.0</ele><time>2026-03-29T11:28:46.58Z</time></trkpt><trkpt lat="38.584195" lon="16.3352867"><ele>808.0</ele><time>2026-03-29T11:28:47.58Z</time></trkpt><trkpt lat="38.5843067" lon="16.3354017"><ele>808.0</ele><time>2026-03-29T11:28:48.58Z</time></trkpt><trkpt lat="38.5844017" lon="16.33552"><ele>808.0</ele><time>2026-03-29T11:28:49.58Z</time></trkpt><trkpt lat="38.5844767" lon="16.3356583"><ele>808.0</ele><time>2026-03-29T11:28:50.58Z</time></trkpt><trkpt lat="38.5845467" lon="16.335835"><ele>809.0</ele><time>2026-03-29T11:28:51.58Z</time></trkpt><trkpt lat="38.5846167" lon="16.3360433"><ele>810.0</ele><time>2026-03-29T11:28:52.58Z</time></trkpt><trkpt lat="38.58468" lon="16.3362733"><ele>811.0</ele><time>2026-03-29T11:28:53.58Z</time></trkpt><trkpt lat="38.5847383" lon="16.336455"><ele>809.8</ele><time>2026-03-29T11:28:54.58Z</time></trkpt><trkpt lat="38.58479" lon="16.3366"><ele>808.5999999999999</ele><time>2026-03-29T11:28:55.58Z</time></trkpt><trkpt lat="38.5848517" lon="16.3367017"><ele>807.4</ele><time>2026-03-29T11:28:56.58Z</time></trkpt><trkpt lat="38.584945" lon="16.3367683"><ele>806.2</ele><time>2026-03-29T11:28:57.58Z</time></trkpt><trkpt lat="38.5850533" lon="16.3367983"><ele>805.0</ele><time>2026-03-29T11:28:58.58Z</time></trkpt><trkpt lat="38.5851617" lon="16.3367683"><ele>805.0</ele><time>2026-03-29T11:28:59.58Z</time></trkpt><trkpt lat="38.5852733" lon="16.336685"><ele>805.0</ele><time>2026-03-29T11:29:00.58Z</time></trkpt><trkpt lat="38.58538" lon="16.336535"><ele>805.0</ele><time>2026-03-29T11:29:01.58Z</time></trkpt><trkpt lat="38.5854667" lon="16.3363317"><ele>804.5</ele><time>2026-03-29T11:29:02.58Z</time></trkpt><trkpt lat="38.5855233" lon="16.336105"><ele>804.0</ele><time>2026-03-29T11:29:03.58Z</time></trkpt><trkpt lat="38.5855417" lon="16.3359083"><ele>803.5</ele><time>2026-03-29T11:29:04.58Z</time></trkpt><trkpt lat="38.5855433" lon="16.33577"><ele>803.0</ele><time>2026-03-29T11:29:05.581Z</time></trkpt><trkpt lat="38.5855833" lon="16.335665"><ele>803.0</ele><time>2026-03-29T11:29:06.58Z</time></trkpt><trkpt lat="38.58564" lon="16.335605"><ele>803.0</ele><time>2026-03-29T11:29:07.58Z</time></trkpt><trkpt lat="38.5857183" lon="16.33559"><ele>803.0</ele><time>2026-03-29T11:29:08.58Z</time></trkpt><trkpt lat="38.5858433" lon="16.33562"><ele>803.0</ele><time>2026-03-29T11:29:09.58Z</time></trkpt><trkpt lat="38.5859767" lon="16.3357067"><ele>803.0</ele><time>2026-03-29T11:29:10.58Z</time></trkpt><trkpt lat="38.5861017" lon="16.3358517"><ele>804.3333333333334</ele><time>2026-03-29T11:29:11.58Z</time></trkpt><trkpt lat="38.5861967" lon="16.3360367"><ele>805.6666666666667</ele><time>2026-03-29T11:29:12.58Z</time></trkpt><trkpt lat="38.5862617" lon="16.3362317"><ele>807.0</ele><time>2026-03-29T11:29:13.58Z</time></trkpt><trkpt lat="38.5863383" lon="16.33638"><ele>806.6666666666667</ele><time>2026-03-29T11:29:14.58Z</time></trkpt><trkpt lat="38.5864617" lon="16.336495"><ele>806.3333333333334</ele><time>2026-03-29T11:29:15.58Z</time></trkpt><trkpt lat="38.5866167" lon="16.3365817"><ele>806.0</ele><time>2026-03-29T11:29:16.58Z</time></trkpt><trkpt lat="38.586805" lon="16.3366333"><ele>806.0</ele><time>2026-03-29T11:29:17.58Z</time></trkpt><trkpt lat="38.587005" lon="16.3366283"><ele>806.0</ele><time>2026-03-29T11:29:18.58Z</time></trkpt><trkpt lat="38.58719" lon="16.3365883"><ele>806.0</ele><time>2026-03-29T11:29:19.58Z</time></trkpt><trkpt lat="38.5873417" lon="16.336515"><ele>806.6666666666667</ele><time>2026-03-29T11:29:20.58Z</time></trkpt><trkpt lat="38.58748" lon="16.3363983"><ele>807.3333333333333</ele><time>2026-03-29T11:29:21.58Z</time></trkpt><trkpt lat="38.5875967" lon="16.336255"><ele>808.0</ele><time>2026-03-29T11:29:22.58Z</time></trkpt><trkpt lat="38.587685" lon="16.336115"><ele>810.0</ele><time>2026-03-29T11:29:23.58Z</time></trkpt><trkpt lat="38.5877683" lon="16.3360167"><ele>812.0</ele><time>2026-03-29T11:29:24.58Z</time></trkpt><trkpt lat="38.5878733" lon="16.335975"><ele>814.0</ele><time>2026-03-29T11:29:25.58Z</time></trkpt><trkpt lat="38.5879833" lon="16.336"><ele>816.0</ele><time>2026-03-29T11:29:26.58Z</time></trkpt><trkpt lat="38.5881083" lon="16.336065"><ele>816.0</ele><time>2026-03-29T11:29:27.58Z</time></trkpt><trkpt lat="38.588245" lon="16.336145"><ele>816.0</ele><time>2026-03-29T11:29:28.58Z</time></trkpt><trkpt lat="38.5883917" lon="16.3362333"><ele>816.0</ele><time>2026-03-29T11:29:29.58Z</time></trkpt><trkpt lat="38.5885683" lon="16.3363217"><ele>815.3333333333333</ele><time>2026-03-29T11:29:30.58Z</time></trkpt><trkpt lat="38.5887367" lon="16.3364067"><ele>814.6666666666666</ele><time>2026-03-29T11:29:31.58Z</time></trkpt><trkpt lat="38.5888867" lon="16.3364833"><ele>814.0</ele><time>2026-03-29T11:29:32.58Z</time></trkpt><trkpt lat="38.58902" lon="16.336525"><ele>814.0</ele><time>2026-03-29T11:29:33.58Z</time></trkpt><trkpt lat="38.58913" lon="16.3365617"><ele>814.0</ele><time>2026-03-29T11:29:34.58Z</time></trkpt><trkpt lat="38.5892067" lon="16.3366033"><ele>814.0</ele><time>2026-03-29T11:29:35.58Z</time></trkpt><trkpt lat="38.5892783" lon="16.3366467"><ele>814.0</ele><time>2026-03-29T11:29:36.58Z</time></trkpt><trkpt lat="38.5893533" lon="16.3366917"><ele>814.0</ele><time>2026-03-29T11:29:37.58Z</time></trkpt><trkpt lat="38.5894383" lon="16.33675"><ele>814.0</ele><time>2026-03-29T11:29:38.58Z</time></trkpt><trkpt lat="38.5895317" lon="16.33682"><ele>814.0</ele><time>2026-03-29T11:29:39.58Z</time></trkpt><trkpt lat="38.5896367" lon="16.336905"><ele>814.0</ele><time>2026-03-29T11:29:40.58Z</time></trkpt><trkpt lat="38.5897583" lon="16.3369967"><ele>814.0</ele><time>2026-03-29T11:29:41.58Z</time></trkpt><trkpt lat="38.5899" lon="16.3371017"><ele>814.0</ele><time>2026-03-29T11:29:42.58Z</time></trkpt><trkpt lat="38.5900683" lon="16.3372167"><ele>814.0</ele><time>2026-03-29T11:29:43.58Z</time></trkpt><trkpt lat="38.590255" lon="16.3373333"><ele>814.0</ele><time>2026-03-29T11:29:44.58Z</time></trkpt><trkpt lat="38.5904567" lon="16.3374617"><ele>811.5</ele><time>2026-03-29T11:29:45.58Z</time></trkpt><trkpt lat="38.5906717" lon="16.3375917"><ele>809.0</ele><time>2026-03-29T11:29:46.58Z</time></trkpt><trkpt lat="38.5908783" lon="16.3377233"><ele>809.0</ele><time>2026-03-29T11:29:47.58Z</time></trkpt><trkpt lat="38.5910767" lon="16.337835"><ele>809.0</ele><time>2026-03-29T11:29:48.58Z</time></trkpt><trkpt lat="38.5912583" lon="16.3379417"><ele>809.0</ele><time>2026-03-29T11:29:49.58Z</time></trkpt><trkpt lat="38.59142" lon="16.33804"><ele>808.75</ele><time>2026-03-29T11:29:50.58Z</time></trkpt><trkpt lat="38.59156" lon="16.3381283"><ele>808.5</ele><time>2026-03-29T11:29:51.58Z</time></trkpt><trkpt lat="38.59169" lon="16.3381683"><ele>808.25</ele><time>2026-03-29T11:29:52.58Z</time></trkpt><trkpt lat="38.5918" lon="16.3381667"><ele>808.0</ele><time>2026-03-29T11:29:53.58Z</time></trkpt><trkpt lat="38.5919217" lon="16.3381067"><ele>805.3333333333333</ele><time>2026-03-29T11:29:54.58Z</time></trkpt><trkpt lat="38.592045" lon="16.3379783"><ele>802.6666666666667</ele><time>2026-03-29T11:29:55.58Z</time></trkpt><trkpt lat="38.592165" lon="16.3378033"><ele>800.0</ele><time>2026-03-29T11:29:56.58Z</time></trkpt><trkpt lat="38.5922733" lon="16.337625"><ele>800.0</ele><time>2026-03-29T11:29:57.58Z</time></trkpt><trkpt lat="38.5923933" lon="16.3374683"><ele>800.0</ele><time>2026-03-29T11:29:58.58Z</time></trkpt><trkpt lat="38.5925267" lon="16.3373367"><ele>800.0</ele><time>2026-03-29T11:29:59.58Z</time></trkpt><trkpt lat="38.5926967" lon="16.3372117"><ele>798.6666666666667</ele><time>2026-03-29T11:30:00.58Z</time></trkpt><trkpt lat="38.5928683" lon="16.337105"><ele>797.3333333333333</ele><time>2026-03-29T11:30:01.58Z</time></trkpt><trkpt lat="38.5930517" lon="16.336975"><ele>796.0</ele><time>2026-03-29T11:30:02.58Z</time></trkpt><trkpt lat="38.5932217" lon="16.33685"><ele>796.0</ele><time>2026-03-29T11:30:03.58Z</time></trkpt><trkpt lat="38.5933783" lon="16.3367433"><ele>796.0</ele><time>2026-03-29T11:30:04.581Z</time></trkpt><trkpt lat="38.5935083" lon="16.3366583"><ele>796.0</ele><time>2026-03-29T11:30:05.58Z</time></trkpt><trkpt lat="38.5936233" lon="16.3365883"><ele>794.5999999999999</ele><time>2026-03-29T11:30:06.581Z</time></trkpt><trkpt lat="38.59373" lon="16.3365567"><ele>793.2</ele><time>2026-03-29T11:30:07.58Z</time></trkpt><trkpt lat="38.593825" lon="16.3365683"><ele>791.8</ele><time>2026-03-29T11:30:08.58Z</time></trkpt><trkpt lat="38.5939017" lon="16.336595"><ele>790.4000000000001</ele><time>2026-03-29T11:30:09.58Z</time></trkpt><trkpt lat="38.593975" lon="16.3366817"><ele>789.0</ele><time>2026-03-29T11:30:10.58Z</time></trkpt><trkpt lat="38.594035" lon="16.3367967"><ele>789.0</ele><time>2026-03-29T11:30:11.58Z</time></trkpt><trkpt lat="38.5940983" lon="16.3369567"><ele>789.0</ele><time>2026-03-29T11:30:12.58Z</time></trkpt><trkpt lat="38.59418" lon="16.3371733"><ele>789.0</ele><time>2026-03-29T11:30:13.58Z</time></trkpt><trkpt lat="38.5942783" lon="16.3374583"><ele>790.0</ele><time>2026-03-29T11:30:14.58Z</time></trkpt><trkpt lat="38.594365" lon="16.337705"><ele>791.0</ele><time>2026-03-29T11:30:15.58Z</time></trkpt><trkpt lat="38.5944283" lon="16.3379267"><ele>792.0</ele><time>2026-03-29T11:30:16.58Z</time></trkpt><trkpt lat="38.594475" lon="16.33811"><ele>790.3333333333333</ele><time>2026-03-29T11:30:17.58Z</time></trkpt><trkpt lat="38.5945567" lon="16.338265"><ele>788.6666666666666</ele><time>2026-03-29T11:30:18.58Z</time></trkpt><trkpt lat="38.59467" lon="16.3383883"><ele>787.0</ele><time>2026-03-29T11:30:19.58Z</time></trkpt><trkpt lat="38.5948267" lon="16.3385033"><ele>787.0</ele><time>2026-03-29T11:30:20.58Z</time></trkpt><trkpt lat="38.5949983" lon="16.33862"><ele>787.0</ele><time>2026-03-29T11:30:21.58Z</time></trkpt><trkpt lat="38.5951867" lon="16.3387633"><ele>787.0</ele><time>2026-03-29T11:30:22.581Z</time></trkpt><trkpt lat="38.5953617" lon="16.33891"><ele>784.0</ele><time>2026-03-29T11:30:23.58Z</time></trkpt><trkpt lat="38.5955233" lon="16.3390383"><ele>781.0</ele><time>2026-03-29T11:30:24.58Z</time></trkpt><trkpt lat="38.5956733" lon="16.3391583"><ele>778.0</ele><time>2026-03-29T11:30:25.581Z</time></trkpt><trkpt lat="38.595815" lon="16.3392867"><ele>778.0</ele><time>2026-03-29T11:30:26.58Z</time></trkpt><trkpt lat="38.595945" lon="16.3394433"><ele>778.0</ele><time>2026-03-29T11:30:27.58Z</time></trkpt><trkpt lat="38.5960683" lon="16.3396267"><ele>778.0</ele><time>2026-03-29T11:30:28.58Z</time></trkpt><trkpt lat="38.5961833" lon="16.3398183"><ele>775.3333333333333</ele><time>2026-03-29T11:30:29.58Z</time></trkpt><trkpt lat="38.5962883" lon="16.3400067"><ele>772.6666666666667</ele><time>2026-03-29T11:30:30.58Z</time></trkpt><trkpt lat="38.5963867" lon="16.340195"><ele>770.0</ele><time>2026-03-29T11:30:31.58Z</time></trkpt><trkpt lat="38.5964717" lon="16.3403667"><ele>770.0</ele><time>2026-03-29T11:30:32.58Z</time></trkpt><trkpt lat="38.5965533" lon="16.3404983"><ele>770.0</ele><time>2026-03-29T11:30:33.58Z</time></trkpt><trkpt lat="38.59662" lon="16.34061"><ele>770.0</ele><time>2026-03-29T11:30:34.58Z</time></trkpt><trkpt lat="38.59671" lon="16.3406767"><ele>770.0</ele><time>2026-03-29T11:30:35.58Z</time></trkpt><trkpt lat="38.5968117" lon="16.34069"><ele>770.0</ele><time>2026-03-29T11:30:36.58Z</time></trkpt><trkpt lat="38.596915" lon="16.3406383"><ele>768.0</ele><time>2026-03-29T11:30:37.58Z</time></trkpt><trkpt lat="38.5970317" lon="16.3405417"><ele>766.0</ele><time>2026-03-29T11:30:38.58Z</time></trkpt><trkpt lat="38.5971767" lon="16.340415"><ele>764.0</ele><time>2026-03-29T11:30:39.58Z</time></trkpt><trkpt lat="38.5973133" lon="16.3402983"><ele>764.0</ele><time>2026-03-29T11:30:40.58Z</time></trkpt><trkpt lat="38.5974483" lon="16.3401967"><ele>764.0</ele><time>2026-03-29T11:30:41.58Z</time></trkpt><trkpt lat="38.5976017" lon="16.3401083"><ele>764.0</ele><time>2026-03-29T11:30:42.58Z</time></trkpt><trkpt lat="38.5977683" lon="16.3400383"><ele>762.6666666666666</ele><time>2026-03-29T11:30:43.58Z</time></trkpt><trkpt lat="38.597945" lon="16.3399517"><ele>761.3333333333334</ele><time>2026-03-29T11:30:44.58Z</time></trkpt><trkpt lat="38.5981267" lon="16.3398717"><ele>760.0</ele><time>2026-03-29T11:30:45.58Z</time></trkpt><trkpt lat="38.5982983" lon="16.339795"><ele>760.0</ele><time>2026-03-29T11:30:46.58Z</time></trkpt><trkpt lat="38.5984617" lon="16.3397183"><ele>760.0</ele><time>2026-03-29T11:30:47.58Z</time></trkpt><trkpt lat="38.5986283" lon="16.3396417"><ele>760.0</ele><time>2026-03-29T11:30:48.58Z</time></trkpt><trkpt lat="38.598795" lon="16.3395683"><ele>760.0</ele><time>2026-03-29T11:30:49.58Z</time></trkpt><trkpt lat="38.59894" lon="16.3395117"><ele>760.0</ele><time>2026-03-29T11:30:50.58Z</time></trkpt><trkpt lat="38.5990717" lon="16.3394533"><ele>760.0</ele><time>2026-03-29T11:30:51.58Z</time></trkpt><trkpt lat="38.599185" lon="16.33939"><ele>760.0</ele><time>2026-03-29T11:30:52.58Z</time></trkpt><trkpt lat="38.599295" lon="16.3393083"><ele>760.0</ele><time>2026-03-29T11:30:53.58Z</time></trkpt><trkpt lat="38.5994083" lon="16.3391817"><ele>760.0</ele><time>2026-03-29T11:30:54.58Z</time></trkpt><trkpt lat="38.59951" lon="16.3390283"><ele>760.0</ele><time>2026-03-29T11:30:55.58Z</time></trkpt><trkpt lat="38.599605" lon="16.338835"><ele>759.6666666666667</ele><time>2026-03-29T11:30:56.58Z</time></trkpt><trkpt lat="38.599715" lon="16.33863"><ele>759.3333333333334</ele><time>2026-03-29T11:30:57.58Z</time></trkpt><trkpt lat="38.599825" lon="16.3384067"><ele>759.0</ele><time>2026-03-29T11:30:58.58Z</time></trkpt><trkpt lat="38.5999467" lon="16.33817"><ele>760.0</ele><time>2026-03-29T11:30:59.58Z</time></trkpt><trkpt lat="38.6000483" lon="16.3379517"><ele>761.0</ele><time>2026-03-29T11:31:00.58Z</time></trkpt><trkpt lat="38.600155" lon="16.3377583"><ele>762.0</ele><time>2026-03-29T11:31:01.58Z</time></trkpt><trkpt lat="38.6002433" lon="16.3375883"><ele>761.25</ele><time>2026-03-29T11:31:02.58Z</time></trkpt><trkpt lat="38.6003383" lon="16.3374567"><ele>760.5</ele><time>2026-03-29T11:31:03.58Z</time></trkpt><trkpt lat="38.6004333" lon="16.3373383"><ele>759.75</ele><time>2026-03-29T11:31:04.58Z</time></trkpt><trkpt lat="38.6005467" lon="16.3372583"><ele>759.0</ele><time>2026-03-29T11:31:05.58Z</time></trkpt><trkpt lat="38.6006867" lon="16.3371733"><ele>759.0</ele><time>2026-03-29T11:31:06.58Z</time></trkpt><trkpt lat="38.6008433" lon="16.33712"><ele>759.0</ele><time>2026-03-29T11:31:07.58Z</time></trkpt><trkpt lat="38.60099" lon="16.33707"><ele>759.0</ele><time>2026-03-29T11:31:08.58Z</time></trkpt><trkpt lat="38.6011367" lon="16.337035"><ele>758.75</ele><time>2026-03-29T11:31:09.58Z</time></trkpt><trkpt lat="38.6012767" lon="16.3369967"><ele>758.5</ele><time>2026-03-29T11:31:10.58Z</time></trkpt><trkpt lat="38.6013917" lon="16.3369583"><ele>758.25</ele><time>2026-03-29T11:31:11.58Z</time></trkpt><trkpt lat="38.6014983" lon="16.3369267"><ele>758.0</ele><time>2026-03-29T11:31:12.58Z</time></trkpt><trkpt lat="38.6015933" lon="16.3369"><ele>758.0</ele><time>2026-03-29T11:31:13.58Z</time></trkpt><trkpt lat="38.601675" lon="16.3368917"><ele>758.0</ele><time>2026-03-29T11:31:14.58Z</time></trkpt><trkpt lat="38.6017567" lon="16.3368933"><ele>758.0</ele><time>2026-03-29T11:31:15.58Z</time></trkpt><trkpt lat="38.601835" lon="16.3368833"><ele>758.0</ele><time>2026-03-29T11:31:16.58Z</time></trkpt><trkpt lat="38.6019017" lon="16.3368633"><ele>758.0</ele><time>2026-03-29T11:31:17.58Z</time></trkpt><trkpt lat="38.60197" lon="16.336815"><ele>758.0</ele><time>2026-03-29T11:31:18.581Z</time></trkpt><trkpt lat="38.6020617" lon="16.3367517"><ele>757.75</ele><time>2026-03-29T11:31:19.58Z</time></trkpt><trkpt lat="38.6021633" lon="16.33669"><ele>757.5</ele><time>2026-03-29T11:31:20.58Z</time></trkpt><trkpt lat="38.6022833" lon="16.336615"><ele>757.25</ele><time>2026-03-29T11:31:21.58Z</time></trkpt><trkpt lat="38.6024133" lon="16.3365317"><ele>757.0</ele><time>2026-03-29T11:31:22.581Z</time></trkpt><trkpt lat="38.60256" lon="16.3364667"><ele>757.0</ele><time>2026-03-29T11:31:23.58Z</time></trkpt><trkpt lat="38.6027067" lon="16.3364083"><ele>757.0</ele><time>2026-03-29T11:31:24.58Z</time></trkpt><trkpt lat="38.60286" lon="16.3363683"><ele>757.0</ele><time>2026-03-29T11:31:25.58Z</time></trkpt><trkpt lat="38.6030133" lon="16.3363483"><ele>757.6666666666667</ele><time>2026-03-29T11:31:26.58Z</time></trkpt><trkpt lat="38.60318" lon="16.3363483"><ele>758.3333333333334</ele><time>2026-03-29T11:31:27.58Z</time></trkpt><trkpt lat="38.6033617" lon="16.336355"><ele>759.0</ele><time>2026-03-29T11:31:28.58Z</time></trkpt><trkpt lat="38.6035467" lon="16.336375"><ele>758.0</ele><time>2026-03-29T11:31:29.58Z</time></trkpt><trkpt lat="38.6037267" lon="16.3364017"><ele>757.0</ele><time>2026-03-29T11:31:30.58Z</time></trkpt><trkpt lat="38.6038883" lon="16.33643"><ele>756.0</ele><time>2026-03-29T11:31:31.58Z</time></trkpt><trkpt lat="38.604055" lon="16.336455"><ele>756.0</ele><time>2026-03-29T11:31:32.58Z</time></trkpt><trkpt lat="38.6041967" lon="16.336465"><ele>756.0</ele><time>2026-03-29T11:31:33.58Z</time></trkpt><trkpt lat="38.604345" lon="16.33649"><ele>756.0</ele><time>2026-03-29T11:31:34.58Z</time></trkpt><trkpt lat="38.6044833" lon="16.336505"><ele>756.0</ele><time>2026-03-29T11:31:35.58Z</time></trkpt><trkpt lat="38.6046233" lon="16.33653"><ele>755.3333333333334</ele><time>2026-03-29T11:31:36.58Z</time></trkpt><trkpt lat="38.604775" lon="16.336555"><ele>754.6666666666667</ele><time>2026-03-29T11:31:37.58Z</time></trkpt><trkpt lat="38.6049383" lon="16.3365733"><ele>754.0</ele><time>2026-03-29T11:31:38.58Z</time></trkpt><trkpt lat="38.60511" lon="16.336595"><ele>754.0</ele><time>2026-03-29T11:31:39.58Z</time></trkpt><trkpt lat="38.6052833" lon="16.33661"><ele>754.0</ele><time>2026-03-29T11:31:40.58Z</time></trkpt><trkpt lat="38.6054817" lon="16.33663"><ele>754.0</ele><time>2026-03-29T11:31:41.581Z</time></trkpt><trkpt lat="38.6056633" lon="16.336645"><ele>753.3333333333334</ele><time>2026-03-29T11:31:42.58Z</time></trkpt><trkpt lat="38.60583" lon="16.3366667"><ele>752.6666666666666</ele><time>2026-03-29T11:31:43.58Z</time></trkpt><trkpt lat="38.60599" lon="16.336695"><ele>752.0</ele><time>2026-03-29T11:31:44.58Z</time></trkpt><trkpt lat="38.6061533" lon="16.3367183"><ele>751.6666666666666</ele><time>2026-03-29T11:31:45.58Z</time></trkpt><trkpt lat="38.6062983" lon="16.3367333"><ele>751.3333333333334</ele><time>2026-03-29T11:31:46.58Z</time></trkpt><trkpt lat="38.6064567" lon="16.3367117"><ele>751.0</ele><time>2026-03-29T11:31:47.58Z</time></trkpt><trkpt lat="38.6066267" lon="16.33665"><ele>751.0</ele><time>2026-03-29T11:31:48.58Z</time></trkpt><trkpt lat="38.6068017" lon="16.3365683"><ele>751.0</ele><time>2026-03-29T11:31:49.58Z</time></trkpt><trkpt lat="38.606985" lon="16.3364617"><ele>751.0</ele><time>2026-03-29T11:31:50.58Z</time></trkpt><trkpt lat="38.60718" lon="16.336345"><ele>751.3333333333334</ele><time>2026-03-29T11:31:51.58Z</time></trkpt><trkpt lat="38.6073833" lon="16.3362433"><ele>751.6666666666666</ele><time>2026-03-29T11:31:52.58Z</time></trkpt><trkpt lat="38.6075717" lon="16.3361483"><ele>752.0</ele><time>2026-03-29T11:31:53.58Z</time></trkpt><trkpt lat="38.6077383" lon="16.336065"><ele>751.6666666666666</ele><time>2026-03-29T11:31:54.58Z</time></trkpt><trkpt lat="38.60791" lon="16.3359683"><ele>751.3333333333334</ele><time>2026-03-29T11:31:55.58Z</time></trkpt><trkpt lat="38.6080883" lon="16.3358883"><ele>751.0</ele><time>2026-03-29T11:31:56.58Z</time></trkpt><trkpt lat="38.60826" lon="16.335785"><ele>751.0</ele><time>2026-03-29T11:31:57.58Z</time></trkpt><trkpt lat="38.608435" lon="16.3357033"><ele>751.0</ele><time>2026-03-29T11:31:58.58Z</time></trkpt><trkpt lat="38.608595" lon="16.3356333"><ele>751.0</ele><time>2026-03-29T11:31:59.58Z</time></trkpt><trkpt lat="38.60876" lon="16.335555"><ele>751.5</ele><time>2026-03-29T11:32:00.58Z</time></trkpt><trkpt lat="38.608915" lon="16.3354717"><ele>752.0</ele><time>2026-03-29T11:32:01.58Z</time></trkpt><trkpt lat="38.6090417" lon="16.3354033"><ele>752.5</ele><time>2026-03-29T11:32:02.58Z</time></trkpt><trkpt lat="38.6091617" lon="16.3353417"><ele>753.0</ele><time>2026-03-29T11:32:03.58Z</time></trkpt><trkpt lat="38.6092717" lon="16.3352783"><ele>753.0</ele><time>2026-03-29T11:32:04.581Z</time></trkpt><trkpt lat="38.6093717" lon="16.335215"><ele>753.0</ele><time>2026-03-29T11:32:05.58Z</time></trkpt><trkpt lat="38.6094783" lon="16.3351383"><ele>753.0</ele><time>2026-03-29T11:32:06.58Z</time></trkpt><trkpt lat="38.6095683" lon="16.33502"><ele>753.0</ele><time>2026-03-29T11:32:07.58Z</time></trkpt><trkpt lat="38.6096383" lon="16.3348667"><ele>756.6666666666666</ele><time>2026-03-29T11:32:08.58Z</time></trkpt><trkpt lat="38.6097017" lon="16.3346883"><ele>760.3333333333333</ele><time>2026-03-29T11:32:09.58Z</time></trkpt><trkpt lat="38.6097567" lon="16.3344983"><ele>764.0</ele><time>2026-03-29T11:32:10.58Z</time></trkpt><trkpt lat="38.6098083" lon="16.3343233"><ele>764.0</ele><time>2026-03-29T11:32:11.58Z</time></trkpt><trkpt lat="38.6098533" lon="16.3341783"><ele>764.0</ele><time>2026-03-29T11:32:12.58Z</time></trkpt><trkpt lat="38.6098983" lon="16.3340733"><ele>764.0</ele><time>2026-03-29T11:32:13.58Z</time></trkpt><trkpt lat="38.6099683" lon="16.33399"><ele>764.0</ele><time>2026-03-29T11:32:14.58Z</time></trkpt><trkpt lat="38.6100533" lon="16.3339433"><ele>764.0</ele><time>2026-03-29T11:32:15.58Z</time></trkpt><trkpt lat="38.610155" lon="16.3339333"><ele>764.0</ele><time>2026-03-29T11:32:16.58Z</time></trkpt><trkpt lat="38.6102533" lon="16.3339667"><ele>764.0</ele><time>2026-03-29T11:32:17.58Z</time></trkpt><trkpt lat="38.61034" lon="16.3340367"><ele>764.0</ele><time>2026-03-29T11:32:18.58Z</time></trkpt><trkpt lat="38.61043" lon="16.33413"><ele>764.0</ele><time>2026-03-29T11:32:19.58Z</time></trkpt><trkpt lat="38.6105133" lon="16.33425"><ele>764.0</ele><time>2026-03-29T11:32:20.58Z</time></trkpt><trkpt lat="38.6105717" lon="16.3343533"><ele>765.0</ele><time>2026-03-29T11:32:21.58Z</time></trkpt><trkpt lat="38.610625" lon="16.3344733"><ele>766.0</ele><time>2026-03-29T11:32:22.58Z</time></trkpt><trkpt lat="38.610665" lon="16.3345967"><ele>767.0</ele><time>2026-03-29T11:32:23.58Z</time></trkpt><trkpt lat="38.610705" lon="16.33474"><ele>768.0</ele><time>2026-03-29T11:32:24.58Z</time></trkpt><trkpt lat="38.610725" lon="16.33488"><ele>769.0</ele><time>2026-03-29T11:32:25.58Z</time></trkpt><trkpt lat="38.61074" lon="16.3350067"><ele>769.1666666666666</ele><time>2026-03-29T11:32:26.58Z</time></trkpt><trkpt lat="38.6107367" lon="16.3351217"><ele>769.3333333333333</ele><time>2026-03-29T11:32:27.58Z</time></trkpt><trkpt lat="38.6107483" lon="16.335215"><ele>769.5</ele><time>2026-03-29T11:32:28.58Z</time></trkpt><trkpt lat="38.6107683" lon="16.335295"><ele>769.6666666666667</ele><time>2026-03-29T11:32:29.58Z</time></trkpt><trkpt lat="38.61081" lon="16.3353683"><ele>769.8333333333334</ele><time>2026-03-29T11:32:30.58Z</time></trkpt><trkpt lat="38.6108867" lon="16.3354233"><ele>770.0</ele><time>2026-03-29T11:32:31.58Z</time></trkpt><trkpt lat="38.6109683" lon="16.3354517"><ele>770.0</ele><time>2026-03-29T11:32:32.58Z</time></trkpt><trkpt lat="38.6110383" lon="16.3354917"><ele>770.0</ele><time>2026-03-29T11:32:33.58Z</time></trkpt><trkpt lat="38.61114" lon="16.335505"><ele>770.0</ele><time>2026-03-29T11:32:34.58Z</time></trkpt><trkpt lat="38.6112417" lon="16.3355217"><ele>770.0</ele><time>2026-03-29T11:32:35.58Z</time></trkpt><trkpt lat="38.61135" lon="16.3355233"><ele>770.0</ele><time>2026-03-29T11:32:36.58Z</time></trkpt><trkpt lat="38.6114733" lon="16.335505"><ele>772.3333333333334</ele><time>2026-03-29T11:32:37.58Z</time></trkpt><trkpt lat="38.611615" lon="16.3355067"><ele>774.6666666666667</ele><time>2026-03-29T11:32:38.58Z</time></trkpt><trkpt lat="38.6117633" lon="16.3355117"><ele>777.0</ele><time>2026-03-29T11:32:39.58Z</time></trkpt><trkpt lat="38.611925" lon="16.33557"><ele>777.0</ele><time>2026-03-29T11:32:40.58Z</time></trkpt><trkpt lat="38.6120767" lon="16.3356783"><ele>777.0</ele><time>2026-03-29T11:32:41.58Z</time></trkpt><trkpt lat="38.6122067" lon="16.3358083"><ele>777.0</ele><time>2026-03-29T11:32:42.58Z</time></trkpt><trkpt lat="38.6123067" lon="16.33593"><ele>777.0</ele><time>2026-03-29T11:32:43.58Z</time></trkpt><trkpt lat="38.6124017" lon="16.336045"><ele>777.0</ele><time>2026-03-29T11:32:44.58Z</time></trkpt><trkpt lat="38.6124967" lon="16.3361517"><ele>777.0</ele><time>2026-03-29T11:32:45.58Z</time></trkpt><trkpt lat="38.61259" lon="16.3362683"><ele>777.0</ele><time>2026-03-29T11:32:46.58Z</time></trkpt><trkpt lat="38.6126933" lon="16.336415"><ele>778.3333333333333</ele><time>2026-03-29T11:32:47.58Z</time></trkpt><trkpt lat="38.6128083" lon="16.3365433"><ele>779.6666666666666</ele><time>2026-03-29T11:32:48.58Z</time></trkpt><trkpt lat="38.6129133" lon="16.3366733"><ele>781.0</ele><time>2026-03-29T11:32:49.58Z</time></trkpt><trkpt lat="38.6130267" lon="16.3368167"><ele>781.0</ele><time>2026-03-29T11:32:50.58Z</time></trkpt><trkpt lat="38.6131367" lon="16.3369517"><ele>781.0</ele><time>2026-03-29T11:32:51.58Z</time></trkpt><trkpt lat="38.6132367" lon="16.3370733"><ele>781.0</ele><time>2026-03-29T11:32:52.58Z</time></trkpt><trkpt lat="38.6133267" lon="16.337165"><ele>781.0</ele><time>2026-03-29T11:32:53.58Z</time></trkpt><trkpt lat="38.6133817" lon="16.3372683"><ele>781.75</ele><time>2026-03-29T11:32:55.58Z</time></trkpt><trkpt lat="38.6133317" lon="16.33736"><ele>782.5</ele><time>2026-03-29T11:32:57.58Z</time></trkpt><trkpt lat="38.6132683" lon="16.337435"><ele>783.25</ele><time>2026-03-29T11:32:58.58Z</time></trkpt><trkpt lat="38.6131717" lon="16.3375317"><ele>784.0</ele><time>2026-03-29T11:32:59.58Z</time></trkpt><trkpt lat="38.61305" lon="16.3376533"><ele>784.0</ele><time>2026-03-29T11:33:00.58Z</time></trkpt><trkpt lat="38.612915" lon="16.3378083"><ele>784.0</ele><time>2026-03-29T11:33:01.58Z</time></trkpt><trkpt lat="38.6127883" lon="16.33798"><ele>784.0</ele><time>2026-03-29T11:33:02.58Z</time></trkpt><trkpt lat="38.6126783" lon="16.3381267"><ele>785.0</ele><time>2026-03-29T11:33:03.58Z</time></trkpt><trkpt lat="38.6125867" lon="16.3382633"><ele>786.0</ele><time>2026-03-29T11:33:04.58Z</time></trkpt><trkpt lat="38.6124983" lon="16.3383733"><ele>787.0</ele><time>2026-03-29T11:33:05.58Z</time></trkpt><trkpt lat="38.6124183" lon="16.33847"><ele>788.0</ele><time>2026-03-29T11:33:06.58Z</time></trkpt><trkpt lat="38.6123467" lon="16.338565"><ele>788.0</ele><time>2026-03-29T11:33:07.58Z</time></trkpt><trkpt lat="38.6122967" lon="16.3386733"><ele>788.0</ele><time>2026-03-29T11:33:08.58Z</time></trkpt><trkpt lat="38.6122817" lon="16.3388083"><ele>788.0</ele><time>2026-03-29T11:33:09.58Z</time></trkpt><trkpt lat="38.61229" lon="16.3389667"><ele>788.0</ele><time>2026-03-29T11:33:10.58Z</time></trkpt><trkpt lat="38.6123233" lon="16.33917"><ele>788.3333333333334</ele><time>2026-03-29T11:33:11.58Z</time></trkpt><trkpt lat="38.612385" lon="16.33939"><ele>788.6666666666667</ele><time>2026-03-29T11:33:12.58Z</time></trkpt><trkpt lat="38.6124383" lon="16.339605"><ele>789.0</ele><time>2026-03-29T11:33:13.58Z</time></trkpt><trkpt lat="38.6124967" lon="16.3397833"><ele>789.0</ele><time>2026-03-29T11:33:14.58Z</time></trkpt><trkpt lat="38.6125667" lon="16.3399517"><ele>789.0</ele><time>2026-03-29T11:33:15.58Z</time></trkpt><trkpt lat="38.61267" lon="16.3401383"><ele>789.0</ele><time>2026-03-29T11:33:16.58Z</time></trkpt><trkpt lat="38.612785" lon="16.3403"><ele>788.6666666666667</ele><time>2026-03-29T11:33:17.58Z</time></trkpt><trkpt lat="38.6128817" lon="16.3404567"><ele>788.3333333333334</ele><time>2026-03-29T11:33:18.58Z</time></trkpt><trkpt lat="38.6129717" lon="16.3406233"><ele>788.0</ele><time>2026-03-29T11:33:19.58Z</time></trkpt><trkpt lat="38.6130517" lon="16.3408133"><ele>786.6666666666667</ele><time>2026-03-29T11:33:20.58Z</time></trkpt><trkpt lat="38.6131233" lon="16.3410383"><ele>785.3333333333333</ele><time>2026-03-29T11:33:21.58Z</time></trkpt><trkpt lat="38.6131917" lon="16.3412683"><ele>784.0</ele><time>2026-03-29T11:33:22.58Z</time></trkpt><trkpt lat="38.6132533" lon="16.34148"><ele>782.0</ele><time>2026-03-29T11:33:23.58Z</time></trkpt><trkpt lat="38.6133" lon="16.3416717"><ele>780.0</ele><time>2026-03-29T11:33:24.58Z</time></trkpt><trkpt lat="38.613335" lon="16.3418883"><ele>778.0</ele><time>2026-03-29T11:33:25.58Z</time></trkpt><trkpt lat="38.61335" lon="16.3421183"><ele>775.6666666666666</ele><time>2026-03-29T11:33:26.58Z</time></trkpt><trkpt lat="38.6133583" lon="16.3423633"><ele>773.3333333333333</ele><time>2026-03-29T11:33:27.58Z</time></trkpt><trkpt lat="38.6133617" lon="16.342595"><ele>771.0</ele><time>2026-03-29T11:33:28.58Z</time></trkpt><trkpt lat="38.613355" lon="16.342785"><ele>771.0</ele><time>2026-03-29T11:33:29.58Z</time></trkpt><trkpt lat="38.6133617" lon="16.3429633"><ele>771.0</ele><time>2026-03-29T11:33:30.58Z</time></trkpt><trkpt lat="38.61341" lon="16.3431333"><ele>771.0</ele><time>2026-03-29T11:33:31.58Z</time></trkpt><trkpt lat="38.613485" lon="16.3433"><ele>771.0</ele><time>2026-03-29T11:33:32.58Z</time></trkpt><trkpt lat="38.6135733" lon="16.343475"><ele>770.0</ele><time>2026-03-29T11:33:33.581Z</time></trkpt><trkpt lat="38.6136533" lon="16.3436467"><ele>769.0</ele><time>2026-03-29T11:33:34.58Z</time></trkpt><trkpt lat="38.613715" lon="16.3438183"><ele>768.0</ele><time>2026-03-29T11:33:35.58Z</time></trkpt><trkpt lat="38.6137583" lon="16.3439983"><ele>767.6666666666666</ele><time>2026-03-29T11:33:36.58Z</time></trkpt><trkpt lat="38.613775" lon="16.3442017"><ele>767.3333333333333</ele><time>2026-03-29T11:33:37.58Z</time></trkpt><trkpt lat="38.61377" lon="16.3444433"><ele>767.0</ele><time>2026-03-29T11:33:38.58Z</time></trkpt><trkpt lat="38.6137683" lon="16.3446983"><ele>768.6666666666666</ele><time>2026-03-29T11:33:39.58Z</time></trkpt><trkpt lat="38.613765" lon="16.34494"><ele>770.3333333333333</ele><time>2026-03-29T11:33:40.58Z</time></trkpt><trkpt lat="38.6137583" lon="16.345165"><ele>772.0</ele><time>2026-03-29T11:33:41.58Z</time></trkpt><trkpt lat="38.61379" lon="16.345385"><ele>771.0</ele><time>2026-03-29T11:33:42.58Z</time></trkpt><trkpt lat="38.61385" lon="16.3455967"><ele>770.0</ele><time>2026-03-29T11:33:43.58Z</time></trkpt><trkpt lat="38.6139133" lon="16.3458317"><ele>769.0</ele><time>2026-03-29T11:33:44.58Z</time></trkpt><trkpt lat="38.6139683" lon="16.3460867"><ele>769.0</ele><time>2026-03-29T11:33:45.58Z</time></trkpt><trkpt lat="38.6140183" lon="16.3463567"><ele>769.0</ele><time>2026-03-29T11:33:46.58Z</time></trkpt><trkpt lat="38.6140567" lon="16.3466483"><ele>769.0</ele><time>2026-03-29T11:33:47.58Z</time></trkpt><trkpt lat="38.6140867" lon="16.34694"><ele>770.0</ele><time>2026-03-29T11:33:48.58Z</time></trkpt><trkpt lat="38.6141117" lon="16.3472217"><ele>771.0</ele><time>2026-03-29T11:33:49.58Z</time></trkpt><trkpt lat="38.6141317" lon="16.347485"><ele>772.0</ele><time>2026-03-29T11:33:50.58Z</time></trkpt><trkpt lat="38.6141617" lon="16.3477417"><ele>772.0</ele><time>2026-03-29T11:33:51.58Z</time></trkpt><trkpt lat="38.6141867" lon="16.3479733"><ele>772.0</ele><time>2026-03-29T11:33:52.58Z</time></trkpt><trkpt lat="38.6142083" lon="16.3481917"><ele>772.0</ele><time>2026-03-29T11:33:53.58Z</time></trkpt><trkpt lat="38.614205" lon="16.3484017"><ele>771.6666666666666</ele><time>2026-03-29T11:33:54.58Z</time></trkpt><trkpt lat="38.6141933" lon="16.3486267"><ele>771.3333333333333</ele><time>2026-03-29T11:33:55.58Z</time></trkpt><trkpt lat="38.6141567" lon="16.3488467"><ele>771.0</ele><time>2026-03-29T11:33:56.581Z</time></trkpt><trkpt lat="38.61409" lon="16.3490883"><ele>771.0</ele><time>2026-03-29T11:33:57.58Z</time></trkpt><trkpt lat="38.6139933" lon="16.3493433"><ele>771.0</ele><time>2026-03-29T11:33:58.58Z</time></trkpt><trkpt lat="38.6138933" lon="16.3496017"><ele>771.0</ele><time>2026-03-29T11:33:59.58Z</time></trkpt><trkpt lat="38.6138" lon="16.3498617"><ele>770.6666666666667</ele><time>2026-03-29T11:34:00.58Z</time></trkpt><trkpt lat="38.613735" lon="16.3501317"><ele>770.3333333333334</ele><time>2026-03-29T11:34:01.58Z</time></trkpt><trkpt lat="38.6137117" lon="16.350385"><ele>770.0</ele><time>2026-03-29T11:34:02.58Z</time></trkpt><trkpt lat="38.61371" lon="16.3506483"><ele>770.0</ele><time>2026-03-29T11:34:03.58Z</time></trkpt><trkpt lat="38.6137583" lon="16.3509283"><ele>770.0</ele><time>2026-03-29T11:34:04.58Z</time></trkpt><trkpt lat="38.6137967" lon="16.3512067"><ele>770.0</ele><time>2026-03-29T11:34:05.58Z</time></trkpt><trkpt lat="38.61385" lon="16.3514633"><ele>771.3333333333334</ele><time>2026-03-29T11:34:06.58Z</time></trkpt><trkpt lat="38.6138967" lon="16.3517033"><ele>772.6666666666667</ele><time>2026-03-29T11:34:07.58Z</time></trkpt><trkpt lat="38.6139567" lon="16.3519383"><ele>774.0</ele><time>2026-03-29T11:34:08.58Z</time></trkpt><trkpt lat="38.6140267" lon="16.3521583"><ele>774.6666666666667</ele><time>2026-03-29T11:34:09.58Z</time></trkpt><trkpt lat="38.6141083" lon="16.35237"><ele>775.3333333333334</ele><time>2026-03-29T11:34:10.58Z</time></trkpt><trkpt lat="38.6141833" lon="16.3525583"><ele>776.0</ele><time>2026-03-29T11:34:11.58Z</time></trkpt><trkpt lat="38.6142383" lon="16.35274"><ele>776.0</ele><time>2026-03-29T11:34:12.58Z</time></trkpt><trkpt lat="38.614265" lon="16.3529283"><ele>776.0</ele><time>2026-03-29T11:34:13.58Z</time></trkpt><trkpt lat="38.6142767" lon="16.3531183"><ele>776.0</ele><time>2026-03-29T11:34:14.58Z</time></trkpt><trkpt lat="38.614275" lon="16.3533183"><ele>775.3333333333334</ele><time>2026-03-29T11:34:15.58Z</time></trkpt><trkpt lat="38.6142633" lon="16.35354"><ele>774.6666666666667</ele><time>2026-03-29T11:34:16.58Z</time></trkpt><trkpt lat="38.6142583" lon="16.353755"><ele>774.0</ele><time>2026-03-29T11:34:17.58Z</time></trkpt><trkpt lat="38.614265" lon="16.3539667"><ele>773.6666666666667</ele><time>2026-03-29T11:34:18.58Z</time></trkpt><trkpt lat="38.6142633" lon="16.354195"><ele>773.3333333333334</ele><time>2026-03-29T11:34:19.58Z</time></trkpt><trkpt lat="38.6142417" lon="16.3544233"><ele>773.0</ele><time>2026-03-29T11:34:20.58Z</time></trkpt><trkpt lat="38.6142117" lon="16.3546333"><ele>773.0</ele><time>2026-03-29T11:34:21.58Z</time></trkpt><trkpt lat="38.6141983" lon="16.3548267"><ele>773.0</ele><time>2026-03-29T11:34:22.58Z</time></trkpt><trkpt lat="38.6141867" lon="16.35501"><ele>773.0</ele><time>2026-03-29T11:34:23.58Z</time></trkpt><trkpt lat="38.61418" lon="16.3551767"><ele>773.0</ele><time>2026-03-29T11:34:24.58Z</time></trkpt><trkpt lat="38.6141983" lon="16.3553367"><ele>773.0</ele><time>2026-03-29T11:34:25.58Z</time></trkpt><trkpt lat="38.6142383" lon="16.355515"><ele>773.0</ele><time>2026-03-29T11:34:26.581Z</time></trkpt><trkpt lat="38.614315" lon="16.3556833"><ele>773.0</ele><time>2026-03-29T11:34:27.581Z</time></trkpt><trkpt lat="38.6144" lon="16.3558683"><ele>771.5</ele><time>2026-03-29T11:34:28.581Z</time></trkpt><trkpt lat="38.6144833" lon="16.3560383"><ele>770.0</ele><time>2026-03-29T11:34:29.581Z</time></trkpt><trkpt lat="38.614555" lon="16.3562033"><ele>768.5</ele><time>2026-03-29T11:34:30.581Z</time></trkpt><trkpt lat="38.6146033" lon="16.356375"><ele>767.0</ele><time>2026-03-29T11:34:31.582Z</time></trkpt><trkpt lat="38.6146467" lon="16.35656"><ele>764.0</ele><time>2026-03-29T11:34:32.581Z</time></trkpt><trkpt lat="38.6146867" lon="16.3567533"><ele>761.0</ele><time>2026-03-29T11:34:33.581Z</time></trkpt><trkpt lat="38.6147233" lon="16.356955"><ele>758.0</ele><time>2026-03-29T11:34:34.581Z</time></trkpt><trkpt lat="38.6147567" lon="16.3571633"><ele>757.3333333333333</ele><time>2026-03-29T11:34:35.581Z</time></trkpt><trkpt lat="38.6147833" lon="16.357365"><ele>756.6666666666666</ele><time>2026-03-29T11:34:36.581Z</time></trkpt><trkpt lat="38.6148133" lon="16.3575633"><ele>756.0</ele><time>2026-03-29T11:34:37.581Z</time></trkpt><trkpt lat="38.6148433" lon="16.3577617"><ele>756.0</ele><time>2026-03-29T11:34:38.581Z</time></trkpt><trkpt lat="38.6148767" lon="16.3579517"><ele>756.0</ele><time>2026-03-29T11:34:39.581Z</time></trkpt><trkpt lat="38.6149117" lon="16.3581417"><ele>756.0</ele><time>2026-03-29T11:34:40.581Z</time></trkpt><trkpt lat="38.614955" lon="16.3583333"><ele>755.3333333333334</ele><time>2026-03-29T11:34:41.581Z</time></trkpt><trkpt lat="38.6149917" lon="16.3585317"><ele>754.6666666666667</ele><time>2026-03-29T11:34:42.581Z</time></trkpt><trkpt lat="38.6150283" lon="16.35873"><ele>754.0</ele><time>2026-03-29T11:34:43.582Z</time></trkpt><trkpt lat="38.6150717" lon="16.3589233"><ele>754.0</ele><time>2026-03-29T11:34:44.581Z</time></trkpt><trkpt lat="38.6151167" lon="16.35911"><ele>754.0</ele><time>2026-03-29T11:34:45.581Z</time></trkpt><trkpt lat="38.6151567" lon="16.3593067"><ele>754.0</ele><time>2026-03-29T11:34:46.581Z</time></trkpt><trkpt lat="38.6151933" lon="16.3594967"><ele>754.0</ele><time>2026-03-29T11:34:47.581Z</time></trkpt><trkpt lat="38.61523" lon="16.35968"><ele>754.0</ele><time>2026-03-29T11:34:48.581Z</time></trkpt><trkpt lat="38.6152617" lon="16.359855"><ele>754.0</ele><time>2026-03-29T11:34:49.581Z</time></trkpt><trkpt lat="38.6152917" lon="16.3600267"><ele>754.0</ele><time>2026-03-29T11:34:50.581Z</time></trkpt><trkpt lat="38.61531" lon="16.3602133"><ele>754.0</ele><time>2026-03-29T11:34:51.582Z</time></trkpt><trkpt lat="38.6153" lon="16.3604033"><ele>754.0</ele><time>2026-03-29T11:34:52.581Z</time></trkpt><trkpt lat="38.615285" lon="16.3605917"><ele>754.0</ele><time>2026-03-29T11:34:53.581Z</time></trkpt><trkpt lat="38.6152817" lon="16.360775"><ele>754.0</ele><time>2026-03-29T11:34:54.581Z</time></trkpt><trkpt lat="38.6152717" lon="16.3609633"><ele>755.0</ele><time>2026-03-29T11:34:55.581Z</time></trkpt><trkpt lat="38.61529" lon="16.36116"><ele>756.0</ele><time>2026-03-29T11:34:56.581Z</time></trkpt><trkpt lat="38.6153217" lon="16.3613767"><ele>757.0</ele><time>2026-03-29T11:34:57.581Z</time></trkpt><trkpt lat="38.61537" lon="16.3616067"><ele>757.6666666666667</ele><time>2026-03-29T11:34:58.581Z</time></trkpt><trkpt lat="38.6154017" lon="16.3618417"><ele>758.3333333333334</ele><time>2026-03-29T11:34:59.581Z</time></trkpt><trkpt lat="38.6154333" lon="16.3620783"><ele>759.0</ele><time>2026-03-29T11:35:00.582Z</time></trkpt><trkpt lat="38.6154433" lon="16.3623133"><ele>759.3333333333334</ele><time>2026-03-29T11:35:01.581Z</time></trkpt><trkpt lat="38.615435" lon="16.3625533"><ele>759.6666666666667</ele><time>2026-03-29T11:35:02.581Z</time></trkpt><trkpt lat="38.6154183" lon="16.362785"><ele>760.0</ele><time>2026-03-29T11:35:03.581Z</time></trkpt><trkpt lat="38.6153883" lon="16.3629967"><ele>759.25</ele><time>2026-03-29T11:35:04.581Z</time></trkpt><trkpt lat="38.61537" lon="16.363185"><ele>758.5</ele><time>2026-03-29T11:35:05.581Z</time></trkpt><trkpt lat="38.61535" lon="16.3633717"><ele>757.75</ele><time>2026-03-29T11:35:06.581Z</time></trkpt><trkpt lat="38.615335" lon="16.3635667"><ele>757.0</ele><time>2026-03-29T11:35:07.581Z</time></trkpt><trkpt lat="38.6153267" lon="16.363755"><ele>756.0</ele><time>2026-03-29T11:35:08.581Z</time></trkpt><trkpt lat="38.6153317" lon="16.3639033"><ele>755.0</ele><time>2026-03-29T11:35:09.581Z</time></trkpt><trkpt lat="38.615355" lon="16.3640483"><ele>754.0</ele><time>2026-03-29T11:35:10.581Z</time></trkpt><trkpt lat="38.615415" lon="16.3641883"><ele>753.0</ele><time>2026-03-29T11:35:11.581Z</time></trkpt><trkpt lat="38.6155017" lon="16.3643217"><ele>753.0</ele><time>2026-03-29T11:35:12.581Z</time></trkpt><trkpt lat="38.615595" lon="16.3644383"><ele>753.0</ele><time>2026-03-29T11:35:13.581Z</time></trkpt><trkpt lat="38.6157183" lon="16.3645483"><ele>753.0</ele><time>2026-03-29T11:35:14.581Z</time></trkpt><trkpt lat="38.615875" lon="16.3646567"><ele>753.6666666666666</ele><time>2026-03-29T11:35:15.581Z</time></trkpt><trkpt lat="38.6160283" lon="16.36476"><ele>754.3333333333333</ele><time>2026-03-29T11:35:16.581Z</time></trkpt><trkpt lat="38.6161567" lon="16.3648683"><ele>755.0</ele><time>2026-03-29T11:35:17.581Z</time></trkpt><trkpt lat="38.6162667" lon="16.36499"><ele>755.0</ele><time>2026-03-29T11:35:18.581Z</time></trkpt><trkpt lat="38.6163483" lon="16.3651333"><ele>755.0</ele><time>2026-03-29T11:35:19.581Z</time></trkpt><trkpt lat="38.616405" lon="16.3652833"><ele>755.0</ele><time>2026-03-29T11:35:20.581Z</time></trkpt><trkpt lat="38.616445" lon="16.3654217"><ele>755.0</ele><time>2026-03-29T11:35:21.581Z</time></trkpt><trkpt lat="38.6165017" lon="16.3655667"><ele>756.0</ele><time>2026-03-29T11:35:22.581Z</time></trkpt><trkpt lat="38.6165517" lon="16.3656967"><ele>757.0</ele><time>2026-03-29T11:35:23.581Z</time></trkpt><trkpt lat="38.6165967" lon="16.36583"><ele>758.0</ele><time>2026-03-29T11:35:24.581Z</time></trkpt><trkpt lat="38.6166383" lon="16.3659733"><ele>759.0</ele><time>2026-03-29T11:35:25.581Z</time></trkpt><trkpt lat="38.6166917" lon="16.366125"><ele>759.0</ele><time>2026-03-29T11:35:26.581Z</time></trkpt><trkpt lat="38.61674" lon="16.3662833"><ele>759.0</ele><time>2026-03-29T11:35:27.581Z</time></trkpt><trkpt lat="38.61679" lon="16.3664333"><ele>759.0</ele><time>2026-03-29T11:35:28.581Z</time></trkpt><trkpt lat="38.6168433" lon="16.366575"><ele>759.0</ele><time>2026-03-29T11:35:29.581Z</time></trkpt><trkpt lat="38.6168933" lon="16.3667317"><ele>759.25</ele><time>2026-03-29T11:35:30.581Z</time></trkpt><trkpt lat="38.6169467" lon="16.3668867"><ele>759.5</ele><time>2026-03-29T11:35:31.581Z</time></trkpt><trkpt lat="38.6170033" lon="16.3670183"><ele>759.75</ele><time>2026-03-29T11:35:32.582Z</time></trkpt><trkpt lat="38.61707" lon="16.3671267"><ele>760.0</ele><time>2026-03-29T11:35:33.581Z</time></trkpt><trkpt lat="38.6171317" lon="16.3672317"><ele>758.0</ele><time>2026-03-29T11:35:34.581Z</time></trkpt><trkpt lat="38.6172017" lon="16.3673233"><ele>756.0</ele><time>2026-03-29T11:35:35.581Z</time></trkpt><trkpt lat="38.6172867" lon="16.3674117"><ele>754.0</ele><time>2026-03-29T11:35:36.581Z</time></trkpt><trkpt lat="38.6173767" lon="16.36749"><ele>752.0</ele><time>2026-03-29T11:35:37.581Z</time></trkpt><trkpt lat="38.6175017" lon="16.3675717"><ele>752.0</ele><time>2026-03-29T11:35:38.581Z</time></trkpt><trkpt lat="38.6176367" lon="16.3676483"><ele>752.0</ele><time>2026-03-29T11:35:39.581Z</time></trkpt><trkpt lat="38.6177717" lon="16.3677217"><ele>752.0</ele><time>2026-03-29T11:35:40.581Z</time></trkpt><trkpt lat="38.6179" lon="16.3677983"><ele>752.0</ele><time>2026-03-29T11:35:41.581Z</time></trkpt><trkpt lat="38.618005" lon="16.367885"><ele>750.6666666666666</ele><time>2026-03-29T11:35:42.581Z</time></trkpt><trkpt lat="38.6181217" lon="16.3680033"><ele>749.3333333333334</ele><time>2026-03-29T11:35:43.581Z</time></trkpt><trkpt lat="38.6182317" lon="16.368145"><ele>748.0</ele><time>2026-03-29T11:35:44.581Z</time></trkpt><trkpt lat="38.6183433" lon="16.36831"><ele>748.0</ele><time>2026-03-29T11:35:45.581Z</time></trkpt><trkpt lat="38.61845" lon="16.3684867"><ele>748.0</ele><time>2026-03-29T11:35:46.581Z</time></trkpt><trkpt lat="38.6185567" lon="16.36868"><ele>748.0</ele><time>2026-03-29T11:35:47.581Z</time></trkpt><trkpt lat="38.618665" lon="16.3688933"><ele>746.3333333333334</ele><time>2026-03-29T11:35:48.581Z</time></trkpt><trkpt lat="38.6187783" lon="16.36911"><ele>744.6666666666666</ele><time>2026-03-29T11:35:49.581Z</time></trkpt><trkpt lat="38.618905" lon="16.3693317"><ele>743.0</ele><time>2026-03-29T11:35:50.581Z</time></trkpt><trkpt lat="38.61902" lon="16.369535"><ele>744.6666666666666</ele><time>2026-03-29T11:35:51.581Z</time></trkpt><trkpt lat="38.6191217" lon="16.3697383"><ele>746.3333333333334</ele><time>2026-03-29T11:35:52.581Z</time></trkpt><trkpt lat="38.6192217" lon="16.3699233"><ele>748.0</ele><time>2026-03-29T11:35:53.581Z</time></trkpt><trkpt lat="38.61931" lon="16.370095"><ele>748.0</ele><time>2026-03-29T11:35:54.581Z</time></trkpt><trkpt lat="38.619395" lon="16.3702667"><ele>748.0</ele><time>2026-03-29T11:35:55.581Z</time></trkpt><trkpt lat="38.6194767" lon="16.3704333"><ele>748.0</ele><time>2026-03-29T11:35:56.581Z</time></trkpt><trkpt lat="38.6195567" lon="16.370595"><ele>743.6666666666667</ele><time>2026-03-29T11:35:57.581Z</time></trkpt><trkpt lat="38.61966" lon="16.3707483"><ele>739.3333333333334</ele><time>2026-03-29T11:35:58.581Z</time></trkpt><trkpt lat="38.619775" lon="16.37089"><ele>735.0</ele><time>2026-03-29T11:35:59.581Z</time></trkpt><trkpt lat="38.6199083" lon="16.3710083"><ele>735.0</ele><time>2026-03-29T11:36:00.581Z</time></trkpt><trkpt lat="38.620045" lon="16.3711117"><ele>735.0</ele><time>2026-03-29T11:36:01.581Z</time></trkpt><trkpt lat="38.6201683" lon="16.37123"><ele>735.0</ele><time>2026-03-29T11:36:02.581Z</time></trkpt><trkpt lat="38.6202933" lon="16.3713683"><ele>733.3333333333334</ele><time>2026-03-29T11:36:03.581Z</time></trkpt><trkpt lat="38.6204" lon="16.37153"><ele>731.6666666666667</ele><time>2026-03-29T11:36:04.581Z</time></trkpt><trkpt lat="38.620495" lon="16.3716933"><ele>730.0</ele><time>2026-03-29T11:36:05.581Z</time></trkpt><trkpt lat="38.62057" lon="16.37184"><ele>730.0</ele><time>2026-03-29T11:36:06.581Z</time></trkpt><trkpt lat="38.62064" lon="16.371985"><ele>730.0</ele><time>2026-03-29T11:36:07.581Z</time></trkpt><trkpt lat="38.6206817" lon="16.3721217"><ele>730.0</ele><time>2026-03-29T11:36:08.581Z</time></trkpt><trkpt lat="38.6206933" lon="16.3722467"><ele>730.0</ele><time>2026-03-29T11:36:09.581Z</time></trkpt><trkpt lat="38.6206817" lon="16.3723783"><ele>730.25</ele><time>2026-03-29T11:36:10.581Z</time></trkpt><trkpt lat="38.6206367" lon="16.3725283"><ele>730.5</ele><time>2026-03-29T11:36:11.581Z</time></trkpt><trkpt lat="38.62057" lon="16.3727033"><ele>730.75</ele><time>2026-03-29T11:36:12.581Z</time></trkpt><trkpt lat="38.620495" lon="16.372885"><ele>731.0</ele><time>2026-03-29T11:36:13.581Z</time></trkpt><trkpt lat="38.620435" lon="16.3730583"><ele>730.4</ele><time>2026-03-29T11:36:14.581Z</time></trkpt><trkpt lat="38.620385" lon="16.3732033"><ele>729.8</ele><time>2026-03-29T11:36:15.581Z</time></trkpt><trkpt lat="38.620375" lon="16.3733383"><ele>729.1999999999999</ele><time>2026-03-29T11:36:16.581Z</time></trkpt><trkpt lat="38.620385" lon="16.3734567"><ele>728.5999999999999</ele><time>2026-03-29T11:36:17.581Z</time></trkpt><trkpt lat="38.6204233" lon="16.373575"><ele>728.0</ele><time>2026-03-29T11:36:18.581Z</time></trkpt><trkpt lat="38.6204983" lon="16.37366"><ele>728.0</ele><time>2026-03-29T11:36:19.581Z</time></trkpt><trkpt lat="38.6206067" lon="16.37373"><ele>728.0</ele><time>2026-03-29T11:36:20.581Z</time></trkpt><trkpt lat="38.6207533" lon="16.37377"><ele>728.0</ele><time>2026-03-29T11:36:21.581Z</time></trkpt><trkpt lat="38.6209183" lon="16.37381"><ele>728.0</ele><time>2026-03-29T11:36:22.581Z</time></trkpt><trkpt lat="38.621085" lon="16.3738533"><ele>727.0</ele><time>2026-03-29T11:36:23.581Z</time></trkpt><trkpt lat="38.6212317" lon="16.373875"><ele>726.0</ele><time>2026-03-29T11:36:24.581Z</time></trkpt><trkpt lat="38.6213683" lon="16.3738883"><ele>725.0</ele><time>2026-03-29T11:36:25.581Z</time></trkpt><trkpt lat="38.6215133" lon="16.3738667"><ele>724.0</ele><time>2026-03-29T11:36:26.581Z</time></trkpt><trkpt lat="38.6216683" lon="16.37381"><ele>724.0</ele><time>2026-03-29T11:36:27.581Z</time></trkpt><trkpt lat="38.6218083" lon="16.3737533"><ele>724.0</ele><time>2026-03-29T11:36:28.581Z</time></trkpt><trkpt lat="38.6219267" lon="16.373725"><ele>724.0</ele><time>2026-03-29T11:36:29.581Z</time></trkpt><trkpt lat="38.6220367" lon="16.37376"><ele>724.0</ele><time>2026-03-29T11:36:30.581Z</time></trkpt><trkpt lat="38.6221267" lon="16.3738383"><ele>723.5</ele><time>2026-03-29T11:36:31.581Z</time></trkpt><trkpt lat="38.6221933" lon="16.3739467"><ele>723.0</ele><time>2026-03-29T11:36:32.581Z</time></trkpt><trkpt lat="38.6222317" lon="16.374075"><ele>722.5</ele><time>2026-03-29T11:36:33.581Z</time></trkpt><trkpt lat="38.6222433" lon="16.37424"><ele>722.0</ele><time>2026-03-29T11:36:34.581Z</time></trkpt><trkpt lat="38.622255" lon="16.3744333"><ele>722.0</ele><time>2026-03-29T11:36:35.581Z</time></trkpt><trkpt lat="38.6222717" lon="16.374635"><ele>722.0</ele><time>2026-03-29T11:36:36.581Z</time></trkpt><trkpt lat="38.6222983" lon="16.3748467"><ele>722.0</ele><time>2026-03-29T11:36:37.581Z</time></trkpt><trkpt lat="38.6223467" lon="16.375045"><ele>718.3333333333333</ele><time>2026-03-29T11:36:38.582Z</time></trkpt><trkpt lat="38.622415" lon="16.3752417"><ele>714.6666666666666</ele><time>2026-03-29T11:36:39.581Z</time></trkpt><trkpt lat="38.6224917" lon="16.3754133"><ele>711.0</ele><time>2026-03-29T11:36:40.581Z</time></trkpt><trkpt lat="38.622565" lon="16.37559"><ele>706.6666666666666</ele><time>2026-03-29T11:36:41.581Z</time></trkpt><trkpt lat="38.62262" lon="16.375795"><ele>702.3333333333333</ele><time>2026-03-29T11:36:42.581Z</time></trkpt><trkpt lat="38.6226633" lon="16.3759967"><ele>698.0</ele><time>2026-03-29T11:36:43.581Z</time></trkpt><trkpt lat="38.6227117" lon="16.3761883"><ele>698.0</ele><time>2026-03-29T11:36:44.581Z</time></trkpt><trkpt lat="38.6227633" lon="16.376325"><ele>698.0</ele><time>2026-03-29T11:36:45.581Z</time></trkpt><trkpt lat="38.6228317" lon="16.37643"><ele>698.0</ele><time>2026-03-29T11:36:46.581Z</time></trkpt><trkpt lat="38.622915" lon="16.3765033"><ele>698.0</ele><time>2026-03-29T11:36:47.581Z</time></trkpt><trkpt lat="38.6230117" lon="16.376555"><ele>698.0</ele><time>2026-03-29T11:36:48.581Z</time></trkpt><trkpt lat="38.6231233" lon="16.3765783"><ele>696.25</ele><time>2026-03-29T11:36:49.582Z</time></trkpt><trkpt lat="38.6232417" lon="16.3765467"><ele>694.5</ele><time>2026-03-29T11:36:50.581Z</time></trkpt><trkpt lat="38.6233633" lon="16.3764733"><ele>692.75</ele><time>2026-03-29T11:36:51.581Z</time></trkpt><trkpt lat="38.623475" lon="16.3763767"><ele>691.0</ele><time>2026-03-29T11:36:52.581Z</time></trkpt><trkpt lat="38.6235967" lon="16.3762517"><ele>687.5</ele><time>2026-03-29T11:36:53.581Z</time></trkpt><trkpt lat="38.6237033" lon="16.37613"><ele>684.0</ele><time>2026-03-29T11:36:54.581Z</time></trkpt><trkpt lat="38.6237917" lon="16.3759867"><ele>680.5</ele><time>2026-03-29T11:36:55.581Z</time></trkpt><trkpt lat="38.623845" lon="16.375825"><ele>677.0</ele><time>2026-03-29T11:36:56.581Z</time></trkpt><trkpt lat="38.6238767" lon="16.3756417"><ele>678.6666666666666</ele><time>2026-03-29T11:36:57.581Z</time></trkpt><trkpt lat="38.62389" lon="16.3754467"><ele>680.3333333333334</ele><time>2026-03-29T11:36:58.581Z</time></trkpt><trkpt lat="38.623875" lon="16.375245"><ele>682.0</ele><time>2026-03-29T11:36:59.582Z</time></trkpt><trkpt lat="38.62387" lon="16.3750533"><ele>682.0</ele><time>2026-03-29T11:37:00.581Z</time></trkpt><trkpt lat="38.6238567" lon="16.3748817"><ele>682.0</ele><time>2026-03-29T11:37:01.581Z</time></trkpt><trkpt lat="38.62386" lon="16.3747333"><ele>682.0</ele><time>2026-03-29T11:37:02.581Z</time></trkpt><trkpt lat="38.6238733" lon="16.37461"><ele>682.0</ele><time>2026-03-29T11:37:03.581Z</time></trkpt><trkpt lat="38.6239267" lon="16.3745"><ele>682.0</ele><time>2026-03-29T11:37:04.581Z</time></trkpt><trkpt lat="38.62398" lon="16.3744183"><ele>684.0</ele><time>2026-03-29T11:37:05.581Z</time></trkpt><trkpt lat="38.6240867" lon="16.37436"><ele>686.0</ele><time>2026-03-29T11:37:06.581Z</time></trkpt><trkpt lat="38.6241833" lon="16.3742833"><ele>688.0</ele><time>2026-03-29T11:37:07.581Z</time></trkpt><trkpt lat="38.6242583" lon="16.3741917"><ele>690.0</ele><time>2026-03-29T11:37:08.581Z</time></trkpt><trkpt lat="38.6243" lon="16.3740633"><ele>692.0</ele><time>2026-03-29T11:37:09.581Z</time></trkpt><trkpt lat="38.6243183" lon="16.37391"><ele>690.0</ele><time>2026-03-29T11:37:10.581Z</time></trkpt><trkpt lat="38.62434" lon="16.3737767"><ele>688.0</ele><time>2026-03-29T11:37:11.581Z</time></trkpt><trkpt lat="38.6243667" lon="16.37366"><ele>686.0</ele><time>2026-03-29T11:37:12.581Z</time></trkpt><trkpt lat="38.6244133" lon="16.3735567"><ele>684.0</ele><time>2026-03-29T11:37:13.581Z</time></trkpt><trkpt lat="38.6244717" lon="16.373495"><ele>682.0</ele><time>2026-03-29T11:37:14.581Z</time></trkpt><trkpt lat="38.6245467" lon="16.3734633"><ele>680.0</ele><time>2026-03-29T11:37:15.581Z</time></trkpt><trkpt lat="38.6246417" lon="16.373455"><ele>680.0</ele><time>2026-03-29T11:37:16.582Z</time></trkpt><trkpt lat="38.6247517" lon="16.37346"><ele>680.0</ele><time>2026-03-29T11:37:17.581Z</time></trkpt><trkpt lat="38.62485" lon="16.37343"><ele>680.0</ele><time>2026-03-29T11:37:18.581Z</time></trkpt><trkpt lat="38.62495" lon="16.3733533"><ele>680.0</ele><time>2026-03-29T11:37:19.581Z</time></trkpt><trkpt lat="38.6250467" lon="16.3732283"><ele>680.0</ele><time>2026-03-29T11:37:20.581Z</time></trkpt><trkpt lat="38.625135" lon="16.37309"><ele>680.0</ele><time>2026-03-29T11:37:21.581Z</time></trkpt><trkpt lat="38.62523" lon="16.37295"><ele>680.0</ele><time>2026-03-29T11:37:22.581Z</time></trkpt><trkpt lat="38.6253417" lon="16.372815"><ele>680.0</ele><time>2026-03-29T11:37:23.581Z</time></trkpt><trkpt lat="38.62539" lon="16.37269"><ele>678.6666666666666</ele><time>2026-03-29T11:37:24.581Z</time></trkpt><trkpt lat="38.625535" lon="16.3726067"><ele>677.3333333333334</ele><time>2026-03-29T11:37:25.581Z</time></trkpt><trkpt lat="38.6256883" lon="16.3725517"><ele>676.0</ele><time>2026-03-29T11:37:26.581Z</time></trkpt><trkpt lat="38.6258317" lon="16.372505"><ele>676.0</ele><time>2026-03-29T11:37:27.581Z</time></trkpt><trkpt lat="38.62597" lon="16.37245"><ele>676.0</ele><time>2026-03-29T11:37:28.581Z</time></trkpt><trkpt lat="38.6260967" lon="16.372395"><ele>676.0</ele><time>2026-03-29T11:37:29.581Z</time></trkpt><trkpt lat="38.626215" lon="16.37236"><ele>676.0</ele><time>2026-03-29T11:37:30.581Z</time></trkpt><trkpt lat="38.6263433" lon="16.3723617"><ele>674.0</ele><time>2026-03-29T11:37:31.581Z</time></trkpt><trkpt lat="38.62649" lon="16.37239"><ele>672.0</ele><time>2026-03-29T11:37:32.581Z</time></trkpt><trkpt lat="38.6266133" lon="16.37241"><ele>670.0</ele><time>2026-03-29T11:37:33.581Z</time></trkpt><trkpt lat="38.6267083" lon="16.3723817"><ele>668.0</ele><time>2026-03-29T11:37:34.581Z</time></trkpt><trkpt lat="38.6268117" lon="16.372285"><ele>669.0</ele><time>2026-03-29T11:37:35.581Z</time></trkpt><trkpt lat="38.6268883" lon="16.3721367"><ele>670.0</ele><time>2026-03-29T11:37:36.581Z</time></trkpt><trkpt lat="38.6269383" lon="16.37197"><ele>671.0</ele><time>2026-03-29T11:37:37.581Z</time></trkpt><trkpt lat="38.6269967" lon="16.3718067"><ele>672.0</ele><time>2026-03-29T11:37:38.581Z</time></trkpt><trkpt lat="38.62709" lon="16.3716867"><ele>672.0</ele><time>2026-03-29T11:37:39.581Z</time></trkpt><trkpt lat="38.6272117" lon="16.3715733"><ele>672.0</ele><time>2026-03-29T11:37:40.581Z</time></trkpt><trkpt lat="38.627335" lon="16.3714517"><ele>672.0</ele><time>2026-03-29T11:37:41.582Z</time></trkpt><trkpt lat="38.6274567" lon="16.371305"><ele>671.0</ele><time>2026-03-29T11:37:42.581Z</time></trkpt><trkpt lat="38.627555" lon="16.371155"><ele>670.0</ele><time>2026-03-29T11:37:43.582Z</time></trkpt><trkpt lat="38.6276583" lon="16.3710133"><ele>669.0</ele><time>2026-03-29T11:37:44.582Z</time></trkpt><trkpt lat="38.62779" lon="16.3708833"><ele>667.3333333333334</ele><time>2026-03-29T11:37:45.581Z</time></trkpt><trkpt lat="38.6279383" lon="16.3707817"><ele>665.6666666666667</ele><time>2026-03-29T11:37:46.581Z</time></trkpt><trkpt lat="38.62809" lon="16.3706833"><ele>664.0</ele><time>2026-03-29T11:37:47.581Z</time></trkpt><trkpt lat="38.6282283" lon="16.37056"><ele>662.6666666666667</ele><time>2026-03-29T11:37:48.581Z</time></trkpt><trkpt lat="38.6283583" lon="16.3704017"><ele>661.3333333333334</ele><time>2026-03-29T11:37:49.581Z</time></trkpt><trkpt lat="38.62848" lon="16.3702117"><ele>660.0</ele><time>2026-03-29T11:37:50.581Z</time></trkpt><trkpt lat="38.628595" lon="16.3700033"><ele>657.0</ele><time>2026-03-29T11:37:51.581Z</time></trkpt><trkpt lat="38.6287017" lon="16.3697717"><ele>654.0</ele><time>2026-03-29T11:37:52.581Z</time></trkpt><trkpt lat="38.628825" lon="16.3695517"><ele>651.0</ele><time>2026-03-29T11:37:53.581Z</time></trkpt><trkpt lat="38.628945" lon="16.3693383"><ele>650.3333333333334</ele><time>2026-03-29T11:37:54.581Z</time></trkpt><trkpt lat="38.62907" lon="16.3691333"><ele>649.6666666666667</ele><time>2026-03-29T11:37:55.581Z</time></trkpt><trkpt lat="38.6291883" lon="16.368935"><ele>649.0</ele><time>2026-03-29T11:37:56.581Z</time></trkpt><trkpt lat="38.6292983" lon="16.3687367"><ele>648.6666666666667</ele><time>2026-03-29T11:37:57.581Z</time></trkpt><trkpt lat="38.6293983" lon="16.3685533"><ele>648.3333333333334</ele><time>2026-03-29T11:37:58.581Z</time></trkpt><trkpt lat="38.6295017" lon="16.3683683"><ele>648.0</ele><time>2026-03-29T11:37:59.581Z</time></trkpt><trkpt lat="38.6295917" lon="16.3682133"><ele>647.5</ele><time>2026-03-29T11:38:00.581Z</time></trkpt><trkpt lat="38.6296633" lon="16.3680867"><ele>647.0</ele><time>2026-03-29T11:38:01.581Z</time></trkpt><trkpt lat="38.6297483" lon="16.3679967"><ele>646.5</ele><time>2026-03-29T11:38:02.581Z</time></trkpt><trkpt lat="38.6298617" lon="16.3679383"><ele>646.0</ele><time>2026-03-29T11:38:03.581Z</time></trkpt><trkpt lat="38.63001" lon="16.3679217"><ele>646.0</ele><time>2026-03-29T11:38:04.581Z</time></trkpt><trkpt lat="38.6301833" lon="16.3679333"><ele>646.0</ele><time>2026-03-29T11:38:05.581Z</time></trkpt><trkpt lat="38.6303633" lon="16.367965"><ele>646.0</ele><time>2026-03-29T11:38:06.581Z</time></trkpt><trkpt lat="38.63056" lon="16.3680033"><ele>642.6666666666667</ele><time>2026-03-29T11:38:07.581Z</time></trkpt><trkpt lat="38.6307367" lon="16.3680583"><ele>639.3333333333334</ele><time>2026-03-29T11:38:08.581Z</time></trkpt><trkpt lat="38.6308933" lon="16.3681067"><ele>636.0</ele><time>2026-03-29T11:38:09.581Z</time></trkpt><trkpt lat="38.6310233" lon="16.3681633"><ele>636.0</ele><time>2026-03-29T11:38:10.581Z</time></trkpt><trkpt lat="38.6311317" lon="16.3682217"><ele>636.0</ele><time>2026-03-29T11:38:11.581Z</time></trkpt><trkpt lat="38.6312217" lon="16.368285"><ele>636.0</ele><time>2026-03-29T11:38:12.581Z</time></trkpt><trkpt lat="38.6312717" lon="16.3683567"><ele>636.0</ele><time>2026-03-29T11:38:13.581Z</time></trkpt><trkpt lat="38.6313267" lon="16.3684883"><ele>636.0</ele><time>2026-03-29T11:38:15.581Z</time></trkpt><trkpt lat="38.6313483" lon="16.3686417"><ele>636.8</ele><time>2026-03-29T11:38:17.581Z</time></trkpt><trkpt lat="38.6313567" lon="16.3687317"><ele>637.6</ele><time>2026-03-29T11:38:18.581Z</time></trkpt><trkpt lat="38.6313633" lon="16.3688333"><ele>638.4</ele><time>2026-03-29T11:38:19.581Z</time></trkpt><trkpt lat="38.631375" lon="16.3689483"><ele>639.2</ele><time>2026-03-29T11:38:20.581Z</time></trkpt><trkpt lat="38.6313867" lon="16.3690767"><ele>640.0</ele><time>2026-03-29T11:38:21.581Z</time></trkpt><trkpt lat="38.631405" lon="16.369215"><ele>640.75</ele><time>2026-03-29T11:38:22.582Z</time></trkpt><trkpt lat="38.6314167" lon="16.3693633"><ele>641.5</ele><time>2026-03-29T11:38:23.581Z</time></trkpt><trkpt lat="38.6314133" lon="16.3695217"><ele>642.25</ele><time>2026-03-29T11:38:24.581Z</time></trkpt><trkpt lat="38.63139" lon="16.3696783"><ele>643.0</ele><time>2026-03-29T11:38:25.582Z</time></trkpt><trkpt lat="38.6313383" lon="16.3698517"><ele>643.5</ele><time>2026-03-29T11:38:26.581Z</time></trkpt><trkpt lat="38.6312883" lon="16.3700283"><ele>644.0</ele><time>2026-03-29T11:38:27.581Z</time></trkpt><trkpt lat="38.6312533" lon="16.370195"><ele>644.5</ele><time>2026-03-29T11:38:28.581Z</time></trkpt><trkpt lat="38.6312417" lon="16.3703517"><ele>645.0</ele><time>2026-03-29T11:38:29.581Z</time></trkpt><trkpt lat="38.63127" lon="16.3705233"><ele>644.0</ele><time>2026-03-29T11:38:30.581Z</time></trkpt><trkpt lat="38.631335" lon="16.3706933"><ele>643.0</ele><time>2026-03-29T11:38:31.581Z</time></trkpt><trkpt lat="38.6314133" lon="16.370875"><ele>642.0</ele><time>2026-03-29T11:38:32.581Z</time></trkpt><trkpt lat="38.63148" lon="16.371065"><ele>642.0</ele><time>2026-03-29T11:38:33.581Z</time></trkpt><trkpt lat="38.6315233" lon="16.3712667"><ele>642.0</ele><time>2026-03-29T11:38:34.581Z</time></trkpt><trkpt lat="38.6315383" lon="16.371475"><ele>642.0</ele><time>2026-03-29T11:38:35.581Z</time></trkpt><trkpt lat="38.63155" lon="16.3716683"><ele>641.3333333333334</ele><time>2026-03-29T11:38:36.581Z</time></trkpt><trkpt lat="38.6315367" lon="16.3718667"><ele>640.6666666666667</ele><time>2026-03-29T11:38:37.581Z</time></trkpt><trkpt lat="38.6315467" lon="16.3720617"><ele>640.0</ele><time>2026-03-29T11:38:38.581Z</time></trkpt><trkpt lat="38.6315767" lon="16.3722583"><ele>637.3333333333334</ele><time>2026-03-29T11:38:39.581Z</time></trkpt><trkpt lat="38.6316333" lon="16.3724717"><ele>634.6666666666666</ele><time>2026-03-29T11:38:40.581Z</time></trkpt><trkpt lat="38.6316817" lon="16.3726667"><ele>632.0</ele><time>2026-03-29T11:38:41.581Z</time></trkpt><trkpt lat="38.6317333" lon="16.372855"><ele>632.0</ele><time>2026-03-29T11:38:42.581Z</time></trkpt><trkpt lat="38.6317683" lon="16.3730117"><ele>632.0</ele><time>2026-03-29T11:38:43.581Z</time></trkpt><trkpt lat="38.6318183" lon="16.373135"><ele>632.0</ele><time>2026-03-29T11:38:44.581Z</time></trkpt><trkpt lat="38.6318833" lon="16.3732167"><ele>632.0</ele><time>2026-03-29T11:38:45.581Z</time></trkpt><trkpt lat="38.6319633" lon="16.3732467"><ele>632.0</ele><time>2026-03-29T11:38:46.581Z</time></trkpt><trkpt lat="38.6320467" lon="16.373235"><ele>632.6</ele><time>2026-03-29T11:38:47.581Z</time></trkpt><trkpt lat="38.632125" lon="16.3731817"><ele>633.2</ele><time>2026-03-29T11:38:48.581Z</time></trkpt><trkpt lat="38.6321917" lon="16.3730917"><ele>633.8</ele><time>2026-03-29T11:38:49.581Z</time></trkpt><trkpt lat="38.6322433" lon="16.3729717"><ele>634.4</ele><time>2026-03-29T11:38:50.581Z</time></trkpt><trkpt lat="38.6322833" lon="16.3728267"><ele>635.0</ele><time>2026-03-29T11:38:51.581Z</time></trkpt><trkpt lat="38.6323233" lon="16.37266"><ele>635.0</ele><time>2026-03-29T11:38:52.581Z</time></trkpt><trkpt lat="38.632375" lon="16.3725233"><ele>635.0</ele><time>2026-03-29T11:38:53.581Z</time></trkpt><trkpt lat="38.6324417" lon="16.372435"><ele>635.0</ele><time>2026-03-29T11:38:54.581Z</time></trkpt><trkpt lat="38.6325317" lon="16.372395"><ele>635.0</ele><time>2026-03-29T11:38:55.582Z</time></trkpt><trkpt lat="38.632635" lon="16.372395"><ele>635.0</ele><time>2026-03-29T11:38:56.581Z</time></trkpt><trkpt lat="38.63272" lon="16.3724517"><ele>635.0</ele><time>2026-03-29T11:38:57.581Z</time></trkpt><trkpt lat="38.6327833" lon="16.3725467"><ele>635.0</ele><time>2026-03-29T11:38:58.581Z</time></trkpt><trkpt lat="38.6328167" lon="16.3726617"><ele>635.0</ele><time>2026-03-29T11:38:59.581Z</time></trkpt><trkpt lat="38.6328117" lon="16.3728017"><ele>635.0</ele><time>2026-03-29T11:39:00.581Z</time></trkpt><trkpt lat="38.632805" lon="16.37295"><ele>635.0</ele><time>2026-03-29T11:39:01.581Z</time></trkpt><trkpt lat="38.6328317" lon="16.3731083"><ele>635.25</ele><time>2026-03-29T11:39:02.581Z</time></trkpt><trkpt lat="38.6329" lon="16.373295"><ele>635.5</ele><time>2026-03-29T11:39:03.581Z</time></trkpt><trkpt lat="38.63296" lon="16.3734467"><ele>635.75</ele><time>2026-03-29T11:39:04.581Z</time></trkpt><trkpt lat="38.6330233" lon="16.373565"><ele>636.0</ele><time>2026-03-29T11:39:05.581Z</time></trkpt><trkpt lat="38.6331067" lon="16.37363"><ele>636.0</ele><time>2026-03-29T11:39:06.581Z</time></trkpt><trkpt lat="38.6332" lon="16.373655"><ele>636.0</ele><time>2026-03-29T11:39:07.581Z</time></trkpt><trkpt lat="38.63331" lon="16.3736483"><ele>636.0</ele><time>2026-03-29T11:39:08.581Z</time></trkpt><trkpt lat="38.6334317" lon="16.37364"><ele>636.0</ele><time>2026-03-29T11:39:09.581Z</time></trkpt><trkpt lat="38.63354" lon="16.37368"><ele>636.0</ele><time>2026-03-29T11:39:10.581Z</time></trkpt><trkpt lat="38.633635" lon="16.373775"><ele>631.25</ele><time>2026-03-29T11:39:11.581Z</time></trkpt><trkpt lat="38.6336967" lon="16.3739033"><ele>626.5</ele><time>2026-03-29T11:39:12.581Z</time></trkpt><trkpt lat="38.633745" lon="16.3740617"><ele>621.75</ele><time>2026-03-29T11:39:13.581Z</time></trkpt><trkpt lat="38.6338033" lon="16.3742167"><ele>617.0</ele><time>2026-03-29T11:39:14.581Z</time></trkpt><trkpt lat="38.633895" lon="16.3743383"><ele>617.0</ele><time>2026-03-29T11:39:15.581Z</time></trkpt><trkpt lat="38.6340067" lon="16.3744"><ele>617.0</ele><time>2026-03-29T11:39:16.581Z</time></trkpt><trkpt lat="38.634115" lon="16.3744133"><ele>617.0</ele><time>2026-03-29T11:39:17.581Z</time></trkpt><trkpt lat="38.634215" lon="16.3743667"><ele>617.0</ele><time>2026-03-29T11:39:18.581Z</time></trkpt><trkpt lat="38.6343" lon="16.3742883"><ele>617.0</ele><time>2026-03-29T11:39:19.582Z</time></trkpt><trkpt lat="38.63437" lon="16.374165"><ele>617.0</ele><time>2026-03-29T11:39:20.581Z</time></trkpt><trkpt lat="38.6344117" lon="16.3739933"><ele>617.0</ele><time>2026-03-29T11:39:21.581Z</time></trkpt><trkpt lat="38.634435" lon="16.3738267"><ele>617.0</ele><time>2026-03-29T11:39:22.581Z</time></trkpt><trkpt lat="38.6344717" lon="16.3737017"><ele>617.0</ele><time>2026-03-29T11:39:23.581Z</time></trkpt><trkpt lat="38.634515" lon="16.37362"><ele>616.25</ele><time>2026-03-29T11:39:24.582Z</time></trkpt><trkpt lat="38.6346183" lon="16.373595"><ele>615.5</ele><time>2026-03-29T11:39:26.582Z</time></trkpt><trkpt lat="38.634725" lon="16.3737317"><ele>614.75</ele><time>2026-03-29T11:39:28.581Z</time></trkpt><trkpt lat="38.6347567" lon="16.3738833"><ele>614.0</ele><time>2026-03-29T11:39:29.581Z</time></trkpt><trkpt lat="38.6347967" lon="16.3740483"><ele>614.0</ele><time>2026-03-29T11:39:30.581Z</time></trkpt><trkpt lat="38.6348767" lon="16.3741883"><ele>614.0</ele><time>2026-03-29T11:39:31.581Z</time></trkpt><trkpt lat="38.6349917" lon="16.3742883"><ele>614.0</ele><time>2026-03-29T11:39:32.581Z</time></trkpt><trkpt lat="38.6351367" lon="16.3743867"><ele>614.0</ele><time>2026-03-29T11:39:33.581Z</time></trkpt><trkpt lat="38.6352983" lon="16.3745067"><ele>616.3333333333333</ele><time>2026-03-29T11:39:34.581Z</time></trkpt><trkpt lat="38.6354717" lon="16.3746567"><ele>618.6666666666666</ele><time>2026-03-29T11:39:35.581Z</time></trkpt><trkpt lat="38.6356167" lon="16.3747733"><ele>621.0</ele><time>2026-03-29T11:39:36.581Z</time></trkpt><trkpt lat="38.6357433" lon="16.3748517"><ele>615.75</ele><time>2026-03-29T11:39:37.581Z</time></trkpt><trkpt lat="38.6358783" lon="16.3748783"><ele>610.5</ele><time>2026-03-29T11:39:38.581Z</time></trkpt><trkpt lat="38.636015" lon="16.374855"><ele>605.25</ele><time>2026-03-29T11:39:39.581Z</time></trkpt><trkpt lat="38.6361617" lon="16.374775"><ele>600.0</ele><time>2026-03-29T11:39:40.581Z</time></trkpt><trkpt lat="38.636305" lon="16.3747133"><ele>600.0</ele><time>2026-03-29T11:39:41.581Z</time></trkpt><trkpt lat="38.6364467" lon="16.37469"><ele>600.0</ele><time>2026-03-29T11:39:42.581Z</time></trkpt><trkpt lat="38.6365917" lon="16.3747367"><ele>600.0</ele><time>2026-03-29T11:39:43.581Z</time></trkpt><trkpt lat="38.6367383" lon="16.3748017"><ele>600.0</ele><time>2026-03-29T11:39:44.581Z</time></trkpt><trkpt lat="38.6368783" lon="16.3748383"><ele>599.0</ele><time>2026-03-29T11:39:45.581Z</time></trkpt><trkpt lat="38.63704" lon="16.3748183"><ele>598.0</ele><time>2026-03-29T11:39:46.581Z</time></trkpt><trkpt lat="38.6372283" lon="16.3747383"><ele>597.0</ele><time>2026-03-29T11:39:47.581Z</time></trkpt><trkpt lat="38.6374317" lon="16.3746433"><ele>597.3333333333334</ele><time>2026-03-29T11:39:48.581Z</time></trkpt><trkpt lat="38.63763" lon="16.3745333"><ele>597.6666666666667</ele><time>2026-03-29T11:39:49.581Z</time></trkpt><trkpt lat="38.6378183" lon="16.3744367"><ele>598.0</ele><time>2026-03-29T11:39:50.581Z</time></trkpt><trkpt lat="38.6379867" lon="16.374365"><ele>598.0</ele><time>2026-03-29T11:39:51.581Z</time></trkpt><trkpt lat="38.6381483" lon="16.3743283"><ele>598.0</ele><time>2026-03-29T11:39:52.581Z</time></trkpt><trkpt lat="38.6382933" lon="16.37432"><ele>598.0</ele><time>2026-03-29T11:39:53.581Z</time></trkpt><trkpt lat="38.6384183" lon="16.37435"><ele>598.0</ele><time>2026-03-29T11:39:54.581Z</time></trkpt><trkpt lat="38.638545" lon="16.3744183"><ele>595.6666666666667</ele><time>2026-03-29T11:39:55.581Z</time></trkpt><trkpt lat="38.63866" lon="16.3745217"><ele>593.3333333333334</ele><time>2026-03-29T11:39:56.581Z</time></trkpt><trkpt lat="38.6387633" lon="16.37467"><ele>591.0</ele><time>2026-03-29T11:39:57.581Z</time></trkpt><trkpt lat="38.6388567" lon="16.3748467"><ele>591.0</ele><time>2026-03-29T11:39:58.581Z</time></trkpt><trkpt lat="38.6389417" lon="16.3750317"><ele>591.0</ele><time>2026-03-29T11:39:59.581Z</time></trkpt><trkpt lat="38.6390333" lon="16.375215"><ele>591.0</ele><time>2026-03-29T11:40:00.581Z</time></trkpt><trkpt lat="38.6391117" lon="16.3753983"><ele>590.3333333333334</ele><time>2026-03-29T11:40:01.581Z</time></trkpt><trkpt lat="38.63919" lon="16.3755717"><ele>589.6666666666667</ele><time>2026-03-29T11:40:02.581Z</time></trkpt><trkpt lat="38.6392533" lon="16.3757433"><ele>589.0</ele><time>2026-03-29T11:40:03.581Z</time></trkpt><trkpt lat="38.6393167" lon="16.3759133"><ele>589.0</ele><time>2026-03-29T11:40:04.581Z</time></trkpt><trkpt lat="38.639365" lon="16.376065"><ele>589.0</ele><time>2026-03-29T11:40:05.581Z</time></trkpt><trkpt lat="38.6393917" lon="16.3761917"><ele>589.0</ele><time>2026-03-29T11:40:06.581Z</time></trkpt><trkpt lat="38.639395" lon="16.37632"><ele>589.0</ele><time>2026-03-29T11:40:07.581Z</time></trkpt><trkpt lat="38.6393783" lon="16.3764467"><ele>589.0</ele><time>2026-03-29T11:40:08.581Z</time></trkpt><trkpt lat="38.6393467" lon="16.3765717"><ele>590.0</ele><time>2026-03-29T11:40:09.581Z</time></trkpt><trkpt lat="38.6392983" lon="16.376705"><ele>591.0</ele><time>2026-03-29T11:40:10.581Z</time></trkpt><trkpt lat="38.6392267" lon="16.3768367"><ele>592.0</ele><time>2026-03-29T11:40:11.581Z</time></trkpt><trkpt lat="38.6391433" lon="16.3769617"><ele>593.0</ele><time>2026-03-29T11:40:12.581Z</time></trkpt><trkpt lat="38.639065" lon="16.377095"><ele>593.8</ele><time>2026-03-29T11:40:13.581Z</time></trkpt><trkpt lat="38.6389883" lon="16.3772083"><ele>594.5999999999999</ele><time>2026-03-29T11:40:14.581Z</time></trkpt><trkpt lat="38.638925" lon="16.3773133"><ele>595.4000000000001</ele><time>2026-03-29T11:40:15.581Z</time></trkpt><trkpt lat="38.6388983" lon="16.3774367"><ele>596.2</ele><time>2026-03-29T11:40:16.581Z</time></trkpt><trkpt lat="38.6389083" lon="16.377555"><ele>597.0</ele><time>2026-03-29T11:40:17.581Z</time></trkpt><trkpt lat="38.6389517" lon="16.3776633"><ele>597.0</ele><time>2026-03-29T11:40:18.581Z</time></trkpt><trkpt lat="38.63902" lon="16.3777567"><ele>597.0</ele><time>2026-03-29T11:40:19.581Z</time></trkpt><trkpt lat="38.6391183" lon="16.377815"><ele>597.0</ele><time>2026-03-29T11:40:20.581Z</time></trkpt><trkpt lat="38.6392383" lon="16.3778433"><ele>597.0</ele><time>2026-03-29T11:40:21.581Z</time></trkpt><trkpt lat="38.6393583" lon="16.3778567"><ele>597.5</ele><time>2026-03-29T11:40:22.581Z</time></trkpt><trkpt lat="38.6394833" lon="16.37787"><ele>598.0</ele><time>2026-03-29T11:40:23.581Z</time></trkpt><trkpt lat="38.6396067" lon="16.3779267"><ele>598.5</ele><time>2026-03-29T11:40:24.581Z</time></trkpt><trkpt lat="38.63972" lon="16.37802"><ele>599.0</ele><time>2026-03-29T11:40:25.581Z</time></trkpt><trkpt lat="38.6398117" lon="16.3781467"><ele>599.0</ele><time>2026-03-29T11:40:26.581Z</time></trkpt><trkpt lat="38.6398867" lon="16.3783167"><ele>599.0</ele><time>2026-03-29T11:40:27.581Z</time></trkpt><trkpt lat="38.6399633" lon="16.37849"><ele>599.0</ele><time>2026-03-29T11:40:28.581Z</time></trkpt><trkpt lat="38.6400283" lon="16.3786583"><ele>599.0</ele><time>2026-03-29T11:40:29.581Z</time></trkpt><trkpt lat="38.6400633" lon="16.3788133"><ele>599.0</ele><time>2026-03-29T11:40:30.581Z</time></trkpt><trkpt lat="38.640055" lon="16.37898"><ele>599.0</ele><time>2026-03-29T11:40:31.581Z</time></trkpt><trkpt lat="38.6400067" lon="16.3791367"><ele>599.0</ele><time>2026-03-29T11:40:32.581Z</time></trkpt><trkpt lat="38.63992" lon="16.3792817"><ele>599.25</ele><time>2026-03-29T11:40:33.581Z</time></trkpt><trkpt lat="38.6398167" lon="16.379405"><ele>599.5</ele><time>2026-03-29T11:40:34.581Z</time></trkpt><trkpt lat="38.6396883" lon="16.3794933"><ele>599.75</ele><time>2026-03-29T11:40:35.581Z</time></trkpt><trkpt lat="38.63957" lon="16.3795733"><ele>600.0</ele><time>2026-03-29T11:40:36.581Z</time></trkpt><trkpt lat="38.6394783" lon="16.3797017"><ele>595.0</ele><time>2026-03-29T11:40:37.581Z</time></trkpt><trkpt lat="38.63941" lon="16.3798667"><ele>590.0</ele><time>2026-03-29T11:40:38.581Z</time></trkpt><trkpt lat="38.639345" lon="16.3800717"><ele>585.0</ele><time>2026-03-29T11:40:39.581Z</time></trkpt><trkpt lat="38.6392733" lon="16.3802483"><ele>585.0</ele><time>2026-03-29T11:40:40.581Z</time></trkpt><trkpt lat="38.6392267" lon="16.380425"><ele>585.0</ele><time>2026-03-29T11:40:41.581Z</time></trkpt><trkpt lat="38.639215" lon="16.3805833"><ele>585.0</ele><time>2026-03-29T11:40:42.581Z</time></trkpt><trkpt lat="38.6392533" lon="16.380725"><ele>585.0</ele><time>2026-03-29T11:40:43.581Z</time></trkpt><trkpt lat="38.639335" lon="16.3808167"><ele>583.5</ele><time>2026-03-29T11:40:44.581Z</time></trkpt><trkpt lat="38.6394433" lon="16.3808583"><ele>582.0</ele><time>2026-03-29T11:40:45.581Z</time></trkpt><trkpt lat="38.6395683" lon="16.3808583"><ele>580.5</ele><time>2026-03-29T11:40:46.581Z</time></trkpt><trkpt lat="38.63971" lon="16.380855"><ele>579.0</ele><time>2026-03-29T11:40:47.581Z</time></trkpt><trkpt lat="38.63988" lon="16.3809117"><ele>583.6666666666666</ele><time>2026-03-29T11:40:48.581Z</time></trkpt><trkpt lat="38.640065" lon="16.3809767"><ele>588.3333333333333</ele><time>2026-03-29T11:40:49.581Z</time></trkpt><trkpt lat="38.640245" lon="16.3810483"><ele>593.0</ele><time>2026-03-29T11:40:50.581Z</time></trkpt><trkpt lat="38.6404183" lon="16.3811133"><ele>595.3333333333333</ele><time>2026-03-29T11:40:51.581Z</time></trkpt><trkpt lat="38.640585" lon="16.3811783"><ele>597.6666666666666</ele><time>2026-03-29T11:40:52.581Z</time></trkpt><trkpt lat="38.6407133" lon="16.38125"><ele>600.0</ele><time>2026-03-29T11:40:53.581Z</time></trkpt><trkpt lat="38.640825" lon="16.3813617"><ele>594.0</ele><time>2026-03-29T11:40:54.581Z</time></trkpt><trkpt lat="38.6409033" lon="16.381515"><ele>588.0</ele><time>2026-03-29T11:40:55.581Z</time></trkpt><trkpt lat="38.640955" lon="16.3817117"><ele>582.0</ele><time>2026-03-29T11:40:56.581Z</time></trkpt><trkpt lat="38.6410067" lon="16.3819083"><ele>582.0</ele><time>2026-03-29T11:40:57.581Z</time></trkpt><trkpt lat="38.64107" lon="16.382075"><ele>582.0</ele><time>2026-03-29T11:40:58.581Z</time></trkpt><trkpt lat="38.6411667" lon="16.3822117"><ele>582.0</ele><time>2026-03-29T11:40:59.581Z</time></trkpt><trkpt lat="38.6412933" lon="16.3823167"><ele>582.0</ele><time>2026-03-29T11:41:00.581Z</time></trkpt><trkpt lat="38.641435" lon="16.3823783"><ele>583.5</ele><time>2026-03-29T11:41:01.581Z</time></trkpt><trkpt lat="38.64156" lon="16.3824183"><ele>585.0</ele><time>2026-03-29T11:41:02.581Z</time></trkpt><trkpt lat="38.6416717" lon="16.382465"><ele>586.5</ele><time>2026-03-29T11:41:03.581Z</time></trkpt><trkpt lat="38.6417733" lon="16.3825267"><ele>588.0</ele><time>2026-03-29T11:41:04.581Z</time></trkpt><trkpt lat="38.6418633" lon="16.3826117"><ele>588.0</ele><time>2026-03-29T11:41:05.581Z</time></trkpt><trkpt lat="38.64194" lon="16.382725"><ele>588.0</ele><time>2026-03-29T11:41:06.581Z</time></trkpt><trkpt lat="38.64201" lon="16.3828767"><ele>588.0</ele><time>2026-03-29T11:41:07.581Z</time></trkpt><trkpt lat="38.6420817" lon="16.38307"><ele>588.0</ele><time>2026-03-29T11:41:08.581Z</time></trkpt><trkpt lat="38.6421817" lon="16.3832617"><ele>586.0</ele><time>2026-03-29T11:41:09.581Z</time></trkpt><trkpt lat="38.6422683" lon="16.3834567"><ele>584.0</ele><time>2026-03-29T11:41:10.581Z</time></trkpt><trkpt lat="38.6423567" lon="16.3836533"><ele>582.0</ele><time>2026-03-29T11:41:11.581Z</time></trkpt><trkpt lat="38.6424283" lon="16.3838333"><ele>576.3333333333334</ele><time>2026-03-29T11:41:12.581Z</time></trkpt><trkpt lat="38.642515" lon="16.3839917"><ele>570.6666666666667</ele><time>2026-03-29T11:41:13.581Z</time></trkpt><trkpt lat="38.6426317" lon="16.38413"><ele>565.0</ele><time>2026-03-29T11:41:14.581Z</time></trkpt><trkpt lat="38.642765" lon="16.3842417"><ele>564.5</ele><time>2026-03-29T11:41:15.581Z</time></trkpt><trkpt lat="38.64289" lon="16.38432"><ele>564.0</ele><time>2026-03-29T11:41:16.581Z</time></trkpt><trkpt lat="38.6429983" lon="16.384345"><ele>563.5</ele><time>2026-03-29T11:41:17.581Z</time></trkpt><trkpt lat="38.6430917" lon="16.3843217"><ele>563.0</ele><time>2026-03-29T11:41:18.581Z</time></trkpt><trkpt lat="38.6431767" lon="16.3842417"><ele>563.0</ele><time>2026-03-29T11:41:19.581Z</time></trkpt><trkpt lat="38.6432533" lon="16.38412"><ele>563.0</ele><time>2026-03-29T11:41:20.581Z</time></trkpt><trkpt lat="38.6433183" lon="16.3839517"><ele>563.0</ele><time>2026-03-29T11:41:21.581Z</time></trkpt><trkpt lat="38.6434067" lon="16.3837583"><ele>563.0</ele><time>2026-03-29T11:41:22.581Z</time></trkpt><trkpt lat="38.6434983" lon="16.3835867"><ele>562.6666666666666</ele><time>2026-03-29T11:41:23.581Z</time></trkpt><trkpt lat="38.6436233" lon="16.383415"><ele>562.3333333333334</ele><time>2026-03-29T11:41:24.581Z</time></trkpt><trkpt lat="38.643745" lon="16.38326"><ele>562.0</ele><time>2026-03-29T11:41:25.581Z</time></trkpt><trkpt lat="38.6438433" lon="16.3831383"><ele>562.0</ele><time>2026-03-29T11:41:26.581Z</time></trkpt><trkpt lat="38.6439617" lon="16.3830367"><ele>562.0</ele><time>2026-03-29T11:41:27.581Z</time></trkpt><trkpt lat="38.6440867" lon="16.38295"><ele>562.0</ele><time>2026-03-29T11:41:28.581Z</time></trkpt><trkpt lat="38.6442317" lon="16.3828783"><ele>562.0</ele><time>2026-03-29T11:41:29.582Z</time></trkpt><trkpt lat="38.6443983" lon="16.3828217"><ele>562.6666666666667</ele><time>2026-03-29T11:41:30.581Z</time></trkpt><trkpt lat="38.64455" lon="16.3827533"><ele>563.3333333333334</ele><time>2026-03-29T11:41:31.581Z</time></trkpt><trkpt lat="38.6447067" lon="16.3827017"><ele>564.0</ele><time>2026-03-29T11:41:32.581Z</time></trkpt><trkpt lat="38.6448383" lon="16.3826633"><ele>564.0</ele><time>2026-03-29T11:41:33.581Z</time></trkpt><trkpt lat="38.6449867" lon="16.38264"><ele>564.0</ele><time>2026-03-29T11:41:34.581Z</time></trkpt><trkpt lat="38.64514" lon="16.38265"><ele>564.0</ele><time>2026-03-29T11:41:35.581Z</time></trkpt><trkpt lat="38.645285" lon="16.3826683"><ele>564.0</ele><time>2026-03-29T11:41:36.581Z</time></trkpt><trkpt lat="38.6454133" lon="16.382685"><ele>563.8</ele><time>2026-03-29T11:41:37.581Z</time></trkpt><trkpt lat="38.645515" lon="16.3827133"><ele>563.5999999999999</ele><time>2026-03-29T11:41:38.581Z</time></trkpt><trkpt lat="38.6455983" lon="16.38278"><ele>563.4</ele><time>2026-03-29T11:41:39.581Z</time></trkpt><trkpt lat="38.6456683" lon="16.3828717"><ele>563.1999999999999</ele><time>2026-03-29T11:41:40.581Z</time></trkpt><trkpt lat="38.64572" lon="16.3829617"><ele>563.0</ele><time>2026-03-29T11:41:41.581Z</time></trkpt><trkpt lat="38.645775" lon="16.383025"><ele>563.0</ele><time>2026-03-29T11:41:42.581Z</time></trkpt><trkpt lat="38.6458517" lon="16.3830967"><ele>563.0</ele><time>2026-03-29T11:41:44.582Z</time></trkpt><trkpt lat="38.645965" lon="16.3830817"><ele>563.0</ele><time>2026-03-29T11:42:05.581Z</time></trkpt><trkpt lat="38.6460283" lon="16.3830117"><ele>563.0</ele><time>2026-03-29T11:42:06.581Z</time></trkpt><trkpt lat="38.6460983" lon="16.38291"><ele>563.0</ele><time>2026-03-29T11:42:07.581Z</time></trkpt><trkpt lat="38.64619" lon="16.3827983"><ele>563.6</ele><time>2026-03-29T11:42:08.581Z</time></trkpt><trkpt lat="38.6462767" lon="16.3826817"><ele>564.1999999999999</ele><time>2026-03-29T11:42:09.581Z</time></trkpt><trkpt lat="38.646355" lon="16.3825883"><ele>564.8</ele><time>2026-03-29T11:42:10.581Z</time></trkpt><trkpt lat="38.6464317" lon="16.38253"><ele>565.4</ele><time>2026-03-29T11:42:11.581Z</time></trkpt><trkpt lat="38.6464983" lon="16.38251"><ele>566.0</ele><time>2026-03-29T11:42:12.581Z</time></trkpt><trkpt lat="38.6466067" lon="16.3825533"><ele>566.0</ele><time>2026-03-29T11:42:14.581Z</time></trkpt><trkpt lat="38.64665" lon="16.3826233"><ele>566.0</ele><time>2026-03-29T11:42:15.581Z</time></trkpt><trkpt lat="38.6467" lon="16.3827133"><ele>566.0</ele><time>2026-03-29T11:42:16.581Z</time></trkpt><trkpt lat="38.6467667" lon="16.3828133"><ele>566.0</ele><time>2026-03-29T11:42:17.581Z</time></trkpt><trkpt lat="38.6468283" lon="16.3829417"><ele>566.0</ele><time>2026-03-29T11:42:18.581Z</time></trkpt><trkpt lat="38.6468867" lon="16.3830817"><ele>565.75</ele><time>2026-03-29T11:42:19.581Z</time></trkpt><trkpt lat="38.64694" lon="16.383245"><ele>565.5</ele><time>2026-03-29T11:42:20.581Z</time></trkpt><trkpt lat="38.6469783" lon="16.3834217"><ele>565.25</ele><time>2026-03-29T11:42:21.581Z</time></trkpt><trkpt lat="38.647005" lon="16.3836283"><ele>565.0</ele><time>2026-03-29T11:42:22.581Z</time></trkpt><trkpt lat="38.6470167" lon="16.3838217"><ele>568.75</ele><time>2026-03-29T11:42:23.581Z</time></trkpt><trkpt lat="38.647025" lon="16.384005"><ele>572.5</ele><time>2026-03-29T11:42:24.581Z</time></trkpt><trkpt lat="38.6470383" lon="16.3841817"><ele>576.25</ele><time>2026-03-29T11:42:25.581Z</time></trkpt><trkpt lat="38.647075" lon="16.384355"><ele>580.0</ele><time>2026-03-29T11:42:26.581Z</time></trkpt><trkpt lat="38.64715" lon="16.3845267"><ele>580.0</ele><time>2026-03-29T11:42:27.581Z</time></trkpt><trkpt lat="38.647235" lon="16.3847033"><ele>580.0</ele><time>2026-03-29T11:42:28.581Z</time></trkpt><trkpt lat="38.6473267" lon="16.3848733"><ele>580.0</ele><time>2026-03-29T11:42:29.581Z</time></trkpt><trkpt lat="38.647395" lon="16.3850217"><ele>580.0</ele><time>2026-03-29T11:42:30.581Z</time></trkpt><trkpt lat="38.647455" lon="16.3851683"><ele>580.0</ele><time>2026-03-29T11:42:31.581Z</time></trkpt><trkpt lat="38.64751" lon="16.3853017"><ele>580.0</ele><time>2026-03-29T11:42:32.581Z</time></trkpt><trkpt lat="38.6475467" lon="16.3854433"><ele>580.0</ele><time>2026-03-29T11:42:33.582Z</time></trkpt><trkpt lat="38.6475483" lon="16.38559"><ele>579.2</ele><time>2026-03-29T11:42:34.582Z</time></trkpt><trkpt lat="38.64755" lon="16.38574"><ele>578.4</ele><time>2026-03-29T11:42:35.581Z</time></trkpt><trkpt lat="38.64755" lon="16.3858867"><ele>577.6</ele><time>2026-03-29T11:42:36.581Z</time></trkpt><trkpt lat="38.6475617" lon="16.3860117"><ele>576.8</ele><time>2026-03-29T11:42:37.581Z</time></trkpt><trkpt lat="38.6475933" lon="16.3861267"><ele>576.0</ele><time>2026-03-29T11:42:38.581Z</time></trkpt><trkpt lat="38.6476367" lon="16.386225"><ele>576.0000000000001</ele><time>2026-03-29T11:42:39.581Z</time></trkpt><trkpt lat="38.6476733" lon="16.3863167"><ele>576.0</ele><time>2026-03-29T11:42:40.581Z</time></trkpt><trkpt lat="38.6477117" lon="16.3864017"><ele>576.0</ele><time>2026-03-29T11:42:41.581Z</time></trkpt><trkpt lat="38.6477567" lon="16.3864683"><ele>576.0</ele><time>2026-03-29T11:42:42.581Z</time></trkpt><trkpt lat="38.6478017" lon="16.386535"><ele>576.0</ele><time>2026-03-29T11:42:43.581Z</time></trkpt><trkpt lat="38.6478433" lon="16.3866033"><ele>576.0000000000001</ele><time>2026-03-29T11:42:44.581Z</time></trkpt><trkpt lat="38.64789" lon="16.3866583"><ele>576.0</ele><time>2026-03-29T11:42:45.581Z</time></trkpt><trkpt lat="38.647985" lon="16.3867633"><ele>578.0</ele><time>2026-03-29T11:42:47.581Z</time></trkpt><trkpt lat="38.6480317" lon="16.3868183"><ele>580.0</ele><time>2026-03-29T11:42:48.581Z</time></trkpt><trkpt lat="38.6480833" lon="16.3868767"><ele>582.0</ele><time>2026-03-29T11:42:49.581Z</time></trkpt><trkpt lat="38.6481467" lon="16.386945"><ele>584.0</ele><time>2026-03-29T11:42:50.581Z</time></trkpt><trkpt lat="38.64822" lon="16.3870267"><ele>586.0</ele><time>2026-03-29T11:42:51.581Z</time></trkpt><trkpt lat="38.6483" lon="16.38714"><ele>588.0</ele><time>2026-03-29T11:42:52.582Z</time></trkpt><trkpt lat="38.6483767" lon="16.3872783"><ele>588.0</ele><time>2026-03-29T11:42:53.581Z</time></trkpt><trkpt lat="38.64845" lon="16.3874283"><ele>588.0</ele><time>2026-03-29T11:42:54.581Z</time></trkpt><trkpt lat="38.6485267" lon="16.38759"><ele>588.0</ele><time>2026-03-29T11:42:55.581Z</time></trkpt><trkpt lat="38.64859" lon="16.3877533"><ele>588.0</ele><time>2026-03-29T11:42:56.581Z</time></trkpt><trkpt lat="38.648655" lon="16.387885"><ele>590.6</ele><time>2026-03-29T11:42:57.581Z</time></trkpt><trkpt lat="38.6487167" lon="16.3880167"><ele>593.1999999999999</ele><time>2026-03-29T11:42:58.581Z</time></trkpt><trkpt lat="38.648785" lon="16.388115"><ele>595.8</ele><time>2026-03-29T11:42:59.581Z</time></trkpt><trkpt lat="38.6488433" lon="16.3882017"><ele>598.4</ele><time>2026-03-29T11:43:00.581Z</time></trkpt><trkpt lat="38.6488983" lon="16.3882917"><ele>601.0</ele><time>2026-03-29T11:43:01.581Z</time></trkpt><trkpt lat="38.64895" lon="16.3883467"><ele>601.0</ele><time>2026-03-29T11:43:02.581Z</time></trkpt><trkpt lat="38.6490367" lon="16.38842"><ele>601.0</ele><time>2026-03-29T11:43:04.581Z</time></trkpt><trkpt lat="38.6491" lon="16.388485"><ele>601.0</ele><time>2026-03-29T11:43:38.581Z</time></trkpt><trkpt lat="38.6491783" lon="16.3885383"><ele>601.0</ele><time>2026-03-29T11:43:41.581Z</time></trkpt><trkpt lat="38.649265" lon="16.3885933"><ele>601.0</ele><time>2026-03-29T11:43:43.581Z</time></trkpt><trkpt lat="38.64934" lon="16.3886367"><ele>601.0</ele><time>2026-03-29T11:43:45.581Z</time></trkpt><trkpt lat="38.6494167" lon="16.3886567"><ele>601.0</ele><time>2026-03-29T11:44:33.582Z</time></trkpt><trkpt lat="38.6493683" lon="16.388575"><ele>601.0</ele><time>2026-03-29T11:44:38.582Z</time></trkpt><trkpt lat="38.6493033" lon="16.3885367"><ele>601.0</ele><time>2026-03-29T11:44:39.582Z</time></trkpt><trkpt lat="38.6492267" lon="16.3884983"><ele>601.0</ele><time>2026-03-29T11:44:40.582Z</time></trkpt><trkpt lat="38.64914" lon="16.3884533"><ele>601.0</ele><time>2026-03-29T11:44:41.582Z</time></trkpt><trkpt lat="38.64906" lon="16.38841"><ele>601.0</ele><time>2026-03-29T11:44:42.582Z</time></trkpt><trkpt lat="38.64899" lon="16.3883433"><ele>601.0</ele><time>2026-03-29T11:44:43.582Z</time></trkpt><trkpt lat="38.6489183" lon="16.3882683"><ele>601.0</ele><time>2026-03-29T11:44:44.582Z</time></trkpt><trkpt lat="38.6488483" lon="16.38819"><ele>601.0</ele><time>2026-03-29T11:44:45.582Z</time></trkpt><trkpt lat="38.6487817" lon="16.388115"><ele>601.0</ele><time>2026-03-29T11:44:46.582Z</time></trkpt><trkpt lat="38.648715" lon="16.38802"><ele>602.75</ele><time>2026-03-29T11:44:47.582Z</time></trkpt><trkpt lat="38.6486417" lon="16.3879"><ele>604.5</ele><time>2026-03-29T11:44:48.582Z</time></trkpt><trkpt lat="38.6485833" lon="16.3877783"><ele>606.25</ele><time>2026-03-29T11:44:49.582Z</time></trkpt><trkpt lat="38.648535" lon="16.3876383"><ele>608.0</ele><time>2026-03-29T11:44:50.582Z</time></trkpt><trkpt lat="38.6484867" lon="16.387495"><ele>604.75</ele><time>2026-03-29T11:44:51.582Z</time></trkpt><trkpt lat="38.648435" lon="16.3873483"><ele>601.5</ele><time>2026-03-29T11:44:52.582Z</time></trkpt><trkpt lat="38.6483733" lon="16.387205"><ele>598.25</ele><time>2026-03-29T11:44:53.582Z</time></trkpt><trkpt lat="38.64829" lon="16.3870733"><ele>595.0</ele><time>2026-03-29T11:44:54.582Z</time></trkpt><trkpt lat="38.648195" lon="16.3869467"><ele>595.0</ele><time>2026-03-29T11:44:55.582Z</time></trkpt><trkpt lat="38.6480867" lon="16.3868317"><ele>595.0</ele><time>2026-03-29T11:44:56.582Z</time></trkpt><trkpt lat="38.64798" lon="16.3867233"><ele>595.0</ele><time>2026-03-29T11:44:57.582Z</time></trkpt><trkpt lat="38.6478867" lon="16.38661"><ele>595.0</ele><time>2026-03-29T11:44:58.582Z</time></trkpt><trkpt lat="38.6477967" lon="16.3864983"><ele>591.2</ele><time>2026-03-29T11:44:59.582Z</time></trkpt><trkpt lat="38.6477233" lon="16.3863917"><ele>587.4</ele><time>2026-03-29T11:45:00.582Z</time></trkpt><trkpt lat="38.6476517" lon="16.38628"><ele>583.6</ele><time>2026-03-29T11:45:01.582Z</time></trkpt><trkpt lat="38.6475967" lon="16.3861617"><ele>579.8</ele><time>2026-03-29T11:45:02.582Z</time></trkpt><trkpt lat="38.6475483" lon="16.38604"><ele>576.0</ele><time>2026-03-29T11:45:03.582Z</time></trkpt><trkpt lat="38.647525" lon="16.3858983"><ele>576.0</ele><time>2026-03-29T11:45:04.582Z</time></trkpt><trkpt lat="38.647535" lon="16.3857367"><ele>576.0</ele><time>2026-03-29T11:45:05.582Z</time></trkpt><trkpt lat="38.6475417" lon="16.3855617"><ele>576.0</ele><time>2026-03-29T11:45:06.582Z</time></trkpt><trkpt lat="38.6475283" lon="16.38538"><ele>576.0</ele><time>2026-03-29T11:45:07.582Z</time></trkpt><trkpt lat="38.6474867" lon="16.3851983"><ele>577.3333333333334</ele><time>2026-03-29T11:45:08.582Z</time></trkpt><trkpt lat="38.64743" lon="16.3850233"><ele>578.6666666666667</ele><time>2026-03-29T11:45:09.582Z</time></trkpt><trkpt lat="38.6473483" lon="16.38485"><ele>580.0</ele><time>2026-03-29T11:45:10.582Z</time></trkpt><trkpt lat="38.6472633" lon="16.384695"><ele>580.0</ele><time>2026-03-29T11:45:11.582Z</time></trkpt><trkpt lat="38.6471867" lon="16.3845533"><ele>580.0</ele><time>2026-03-29T11:45:12.582Z</time></trkpt><trkpt lat="38.64714" lon="16.3844067"><ele>580.0</ele><time>2026-03-29T11:45:13.582Z</time></trkpt><trkpt lat="38.6470833" lon="16.38429"><ele>580.0</ele><time>2026-03-29T11:45:14.582Z</time></trkpt><trkpt lat="38.64704" lon="16.38417"><ele>580.0</ele><time>2026-03-29T11:45:15.582Z</time></trkpt><trkpt lat="38.6470233" lon="16.38404"><ele>580.0</ele><time>2026-03-29T11:45:16.582Z</time></trkpt><trkpt lat="38.6470183" lon="16.3839217"><ele>580.0</ele><time>2026-03-29T11:45:17.582Z</time></trkpt><trkpt lat="38.647015" lon="16.3838033"><ele>580.0</ele><time>2026-03-29T11:45:18.582Z</time></trkpt><trkpt lat="38.6470217" lon="16.3836883"><ele>580.0</ele><time>2026-03-29T11:45:19.582Z</time></trkpt><trkpt lat="38.6470233" lon="16.3835683"><ele>579.4</ele><time>2026-03-29T11:45:20.582Z</time></trkpt><trkpt lat="38.6470233" lon="16.3834517"><ele>578.8</ele><time>2026-03-29T11:45:21.582Z</time></trkpt><trkpt lat="38.6469983" lon="16.3832417"><ele>578.2</ele><time>2026-03-29T11:45:23.582Z</time></trkpt><trkpt lat="38.6469733" lon="16.3831567"><ele>577.6</ele><time>2026-03-29T11:45:24.582Z</time></trkpt><trkpt lat="38.646935" lon="16.3830783"><ele>577.0</ele><time>2026-03-29T11:45:25.582Z</time></trkpt><trkpt lat="38.6468917" lon="16.3829933"><ele>575.1666666666667</ele><time>2026-03-29T11:45:26.582Z</time></trkpt><trkpt lat="38.6468383" lon="16.382905"><ele>573.3333333333334</ele><time>2026-03-29T11:45:27.582Z</time></trkpt><trkpt lat="38.64678" lon="16.38281"><ele>571.5</ele><time>2026-03-29T11:45:28.582Z</time></trkpt><trkpt lat="38.6467183" lon="16.3827133"><ele>569.6666666666666</ele><time>2026-03-29T11:45:29.582Z</time></trkpt><trkpt lat="38.646655" lon="16.3826267"><ele>567.8333333333333</ele><time>2026-03-29T11:45:30.582Z</time></trkpt><trkpt lat="38.64661" lon="16.3825617"><ele>566.0</ele><time>2026-03-29T11:45:31.582Z</time></trkpt><trkpt lat="38.646555" lon="16.3824467"><ele>566.0</ele><time>2026-03-29T11:45:33.582Z</time></trkpt><trkpt lat="38.646515" lon="16.38231"><ele>566.0</ele><time>2026-03-29T11:45:35.582Z</time></trkpt><trkpt lat="38.64652" lon="16.3822267"><ele>566.0</ele><time>2026-03-29T11:45:36.582Z</time></trkpt><trkpt lat="38.646535" lon="16.3821267"><ele>566.0</ele><time>2026-03-29T11:45:37.582Z</time></trkpt><trkpt lat="38.6465633" lon="16.3820133"><ele>566.0</ele><time>2026-03-29T11:45:38.582Z</time></trkpt><trkpt lat="38.6465967" lon="16.38189"><ele>565.6</ele><time>2026-03-29T11:45:39.582Z</time></trkpt><trkpt lat="38.64662" lon="16.3817467"><ele>565.2</ele><time>2026-03-29T11:45:40.582Z</time></trkpt><trkpt lat="38.64663" lon="16.3816017"><ele>564.8</ele><time>2026-03-29T11:45:41.582Z</time></trkpt><trkpt lat="38.646655" lon="16.3814717"><ele>564.4</ele><time>2026-03-29T11:45:42.582Z</time></trkpt><trkpt lat="38.64667" lon="16.3813617"><ele>564.0</ele><time>2026-03-29T11:45:43.582Z</time></trkpt><trkpt lat="38.6466767" lon="16.3812617"><ele>563.0</ele><time>2026-03-29T11:45:44.582Z</time></trkpt><trkpt lat="38.6466617" lon="16.3811133"><ele>562.0</ele><time>2026-03-29T11:45:46.582Z</time></trkpt><trkpt lat="38.6466317" lon="16.3810417"><ele>561.0</ele><time>2026-03-29T11:45:47.582Z</time></trkpt><trkpt lat="38.64656" lon="16.3809367"><ele>560.0</ele><time>2026-03-29T11:45:49.582Z</time></trkpt><trkpt lat="38.6465267" lon="16.38084"><ele>559.0</ele><time>2026-03-29T11:45:51.582Z</time></trkpt><trkpt lat="38.64653" lon="16.38074"><ele>559.0</ele><time>2026-03-29T11:45:53.582Z</time></trkpt><trkpt lat="38.64654" lon="16.380635"><ele>559.0</ele><time>2026-03-29T11:45:55.582Z</time></trkpt><trkpt lat="38.64655" lon="16.3804933"><ele>559.0</ele><time>2026-03-29T11:45:57.582Z</time></trkpt><trkpt lat="38.6465667" lon="16.380375"><ele>559.0</ele><time>2026-03-29T11:45:59.582Z</time></trkpt><trkpt lat="38.646585" lon="16.3802917"><ele>559.0</ele><time>2026-03-29T11:46:01.582Z</time></trkpt><trkpt lat="38.64661" lon="16.3801917"><ele>559.0</ele><time>2026-03-29T11:46:04.582Z</time></trkpt><trkpt lat="38.6465417" lon="16.380285"><ele>559.0</ele><time>2026-03-29T11:46:12.582Z</time></trkpt><trkpt lat="38.6465183" lon="16.38038"><ele>559.0</ele><time>2026-03-29T11:46:13.582Z</time></trkpt><trkpt lat="38.6465067" lon="16.3804817"><ele>559.0</ele><time>2026-03-29T11:46:14.582Z</time></trkpt><trkpt lat="38.6464967" lon="16.3806033"><ele>559.0</ele><time>2026-03-29T11:46:15.582Z</time></trkpt><trkpt lat="38.6465" lon="16.3807233"><ele>559.0</ele><time>2026-03-29T11:46:16.582Z</time></trkpt><trkpt lat="38.646505" lon="16.3808383"><ele>559.0</ele><time>2026-03-29T11:46:17.582Z</time></trkpt><trkpt lat="38.6465067" lon="16.3809417"><ele>559.0</ele><time>2026-03-29T11:46:18.582Z</time></trkpt><trkpt lat="38.646555" lon="16.3810617"><ele>559.0</ele><time>2026-03-29T11:46:20.582Z</time></trkpt><trkpt lat="38.6466417" lon="16.381055"><ele>559.0</ele><time>2026-03-29T11:46:22.582Z</time></trkpt><trkpt lat="38.646715" lon="16.38094"><ele>559.0</ele><time>2026-03-29T11:46:24.582Z</time></trkpt><trkpt lat="38.6467383" lon="16.3808517"><ele>559.0</ele><time>2026-03-29T11:46:25.582Z</time></trkpt><trkpt lat="38.6467617" lon="16.3807217"><ele>559.0</ele><time>2026-03-29T11:46:26.582Z</time></trkpt><trkpt lat="38.646775" lon="16.3805683"><ele>559.0</ele><time>2026-03-29T11:46:27.582Z</time></trkpt><trkpt lat="38.6467967" lon="16.3804183"><ele>559.0</ele><time>2026-03-29T11:46:28.582Z</time></trkpt><trkpt lat="38.6468367" lon="16.3802917"><ele>559.0</ele><time>2026-03-29T11:46:29.582Z</time></trkpt><trkpt lat="38.6468867" lon="16.3801833"><ele>559.0</ele><time>2026-03-29T11:46:30.582Z</time></trkpt><trkpt lat="38.6469517" lon="16.3800833"><ele>556.0</ele><time>2026-03-29T11:46:31.582Z</time></trkpt><trkpt lat="38.64704" lon="16.3799917"><ele>553.0</ele><time>2026-03-29T11:46:32.582Z</time></trkpt><trkpt lat="38.6471167" lon="16.3798917"><ele>550.0</ele><time>2026-03-29T11:46:33.582Z</time></trkpt><trkpt lat="38.6471767" lon="16.379755"><ele>547.0</ele><time>2026-03-29T11:46:34.582Z</time></trkpt><trkpt lat="38.64723" lon="16.3795883"><ele>545.0</ele><time>2026-03-29T11:46:35.582Z</time></trkpt><trkpt lat="38.6472867" lon="16.3794133"><ele>543.0</ele><time>2026-03-29T11:46:36.582Z</time></trkpt><trkpt lat="38.64731" lon="16.379245"><ele>541.0</ele><time>2026-03-29T11:46:37.582Z</time></trkpt><trkpt lat="38.64733" lon="16.3790867"><ele>539.0</ele><time>2026-03-29T11:46:38.582Z</time></trkpt><trkpt lat="38.6473267" lon="16.3789467"><ele>539.4</ele><time>2026-03-29T11:46:39.582Z</time></trkpt><trkpt lat="38.6472933" lon="16.3788283"><ele>539.8</ele><time>2026-03-29T11:46:40.582Z</time></trkpt><trkpt lat="38.6472367" lon="16.37873"><ele>540.2</ele><time>2026-03-29T11:46:41.582Z</time></trkpt><trkpt lat="38.6471633" lon="16.37864"><ele>540.6</ele><time>2026-03-29T11:46:42.582Z</time></trkpt><trkpt lat="38.6471033" lon="16.378555"><ele>541.0</ele><time>2026-03-29T11:46:43.582Z</time></trkpt><trkpt lat="38.6470783" lon="16.3784617"><ele>541.0</ele><time>2026-03-29T11:46:44.582Z</time></trkpt><trkpt lat="38.64708" lon="16.3783567"><ele>541.0</ele><time>2026-03-29T11:46:45.582Z</time></trkpt><trkpt lat="38.6471067" lon="16.3782383"><ele>541.0</ele><time>2026-03-29T11:46:46.582Z</time></trkpt><trkpt lat="38.6471533" lon="16.378105"><ele>541.0</ele><time>2026-03-29T11:46:47.582Z</time></trkpt><trkpt lat="38.6472233" lon="16.37793"><ele>541.0</ele><time>2026-03-29T11:46:48.582Z</time></trkpt><trkpt lat="38.6473067" lon="16.37772"><ele>544.3333333333334</ele><time>2026-03-29T11:46:49.582Z</time></trkpt><trkpt lat="38.6473833" lon="16.377495"><ele>547.6666666666666</ele><time>2026-03-29T11:46:50.582Z</time></trkpt><trkpt lat="38.6474517" lon="16.3772667"><ele>551.0</ele><time>2026-03-29T11:46:51.582Z</time></trkpt><trkpt lat="38.6475067" lon="16.377055"><ele>552.25</ele><time>2026-03-29T11:46:52.583Z</time></trkpt><trkpt lat="38.6475267" lon="16.3768617"><ele>553.5</ele><time>2026-03-29T11:46:53.582Z</time></trkpt><trkpt lat="38.6475267" lon="16.376715"><ele>554.75</ele><time>2026-03-29T11:46:54.582Z</time></trkpt><trkpt lat="38.6474783" lon="16.3765967"><ele>556.0</ele><time>2026-03-29T11:46:55.582Z</time></trkpt><trkpt lat="38.6473783" lon="16.3764917"><ele>556.0</ele><time>2026-03-29T11:46:56.582Z</time></trkpt><trkpt lat="38.6472767" lon="16.3763867"><ele>556.0</ele><time>2026-03-29T11:46:57.583Z</time></trkpt><trkpt lat="38.6472" lon="16.3762817"><ele>556.0</ele><time>2026-03-29T11:46:58.582Z</time></trkpt><trkpt lat="38.6471633" lon="16.376165"><ele>556.0</ele><time>2026-03-29T11:46:59.582Z</time></trkpt><trkpt lat="38.6471717" lon="16.376045"><ele>556.0</ele><time>2026-03-29T11:47:00.582Z</time></trkpt><trkpt lat="38.6472283" lon="16.37592"><ele>556.75</ele><time>2026-03-29T11:47:01.582Z</time></trkpt><trkpt lat="38.647315" lon="16.3758067"><ele>557.5</ele><time>2026-03-29T11:47:02.582Z</time></trkpt><trkpt lat="38.64745" lon="16.3757"><ele>558.25</ele><time>2026-03-29T11:47:03.582Z</time></trkpt><trkpt lat="38.647595" lon="16.3756167"><ele>559.0</ele><time>2026-03-29T11:47:04.582Z</time></trkpt><trkpt lat="38.6477633" lon="16.37555"><ele>560.0</ele><time>2026-03-29T11:47:05.582Z</time></trkpt><trkpt lat="38.6479483" lon="16.3754967"><ele>561.0</ele><time>2026-03-29T11:47:06.582Z</time></trkpt><trkpt lat="38.648155" lon="16.3754733"><ele>562.0</ele><time>2026-03-29T11:47:07.582Z</time></trkpt><trkpt lat="38.64838" lon="16.375435"><ele>562.0</ele><time>2026-03-29T11:47:08.582Z</time></trkpt><trkpt lat="38.6485917" lon="16.3753983"><ele>562.0</ele><time>2026-03-29T11:47:09.582Z</time></trkpt><trkpt lat="38.6487433" lon="16.3753417"><ele>562.0</ele><time>2026-03-29T11:47:10.582Z</time></trkpt><trkpt lat="38.6488367" lon="16.3752867"><ele>563.6666666666667</ele><time>2026-03-29T11:47:11.582Z</time></trkpt><trkpt lat="38.648905" lon="16.3752483"><ele>565.3333333333334</ele><time>2026-03-29T11:47:12.582Z</time></trkpt><trkpt lat="38.6489717" lon="16.3752067"><ele>567.0</ele><time>2026-03-29T11:47:14.582Z</time></trkpt><trkpt lat="38.649055" lon="16.37523"><ele>568.6666666666666</ele><time>2026-03-29T11:47:18.582Z</time></trkpt><trkpt lat="38.649095" lon="16.3752983"><ele>570.3333333333333</ele><time>2026-03-29T11:47:20.582Z</time></trkpt><trkpt lat="38.6490867" lon="16.375415"><ele>572.0</ele><time>2026-03-29T11:47:22.582Z</time></trkpt><trkpt lat="38.6489833" lon="16.3755317"><ele>572.0</ele><time>2026-03-29T11:47:24.582Z</time></trkpt><trkpt lat="38.64889" lon="16.37557"><ele>572.0</ele><time>2026-03-29T11:47:25.582Z</time></trkpt><trkpt lat="38.6488" lon="16.375595"><ele>572.0</ele><time>2026-03-29T11:47:26.582Z</time></trkpt><trkpt lat="38.648705" lon="16.3756133"><ele>572.0</ele><time>2026-03-29T11:47:27.582Z</time></trkpt><trkpt lat="38.6486167" lon="16.3756467"><ele>572.0</ele><time>2026-03-29T11:47:28.582Z</time></trkpt><trkpt lat="38.6485317" lon="16.3756817"><ele>572.0</ele><time>2026-03-29T11:47:29.582Z</time></trkpt><trkpt lat="38.6484783" lon="16.3757633"><ele>572.0</ele><time>2026-03-29T11:47:30.582Z</time></trkpt><trkpt lat="38.6484433" lon="16.375865"><ele>572.0</ele><time>2026-03-29T11:47:31.582Z</time></trkpt><trkpt lat="38.6484333" lon="16.375965"><ele>572.0</ele><time>2026-03-29T11:47:32.582Z</time></trkpt><trkpt lat="38.6484183" lon="16.37606"><ele>572.0</ele><time>2026-03-29T11:47:33.582Z</time></trkpt><trkpt lat="38.6484083" lon="16.3761417"><ele>572.0</ele><time>2026-03-29T11:47:34.582Z</time></trkpt><trkpt lat="38.6484067" lon="16.3762283"><ele>572.0</ele><time>2026-03-29T11:47:35.582Z</time></trkpt><trkpt lat="38.6484117" lon="16.3763133"><ele>572.0</ele><time>2026-03-29T11:47:36.582Z</time></trkpt><trkpt lat="38.6484167" lon="16.3763967"><ele>572.0</ele><time>2026-03-29T11:47:37.582Z</time></trkpt><trkpt lat="38.648445" lon="16.37655"><ele>572.0</ele><time>2026-03-29T11:47:39.582Z</time></trkpt><trkpt lat="38.64851" lon="16.376685"><ele>572.0</ele><time>2026-03-29T11:47:41.582Z</time></trkpt><trkpt lat="38.6486117" lon="16.3767767"><ele>574.6666666666666</ele><time>2026-03-29T11:47:43.582Z</time></trkpt><trkpt lat="38.6486767" lon="16.376825"><ele>577.3333333333333</ele><time>2026-03-29T11:47:44.582Z</time></trkpt><trkpt lat="38.6487517" lon="16.3768833"><ele>580.0</ele><time>2026-03-29T11:47:45.582Z</time></trkpt><trkpt lat="38.6488317" lon="16.3769467"><ele>582.6666666666666</ele><time>2026-03-29T11:47:46.582Z</time></trkpt><trkpt lat="38.648905" lon="16.377005"><ele>585.3333333333334</ele><time>2026-03-29T11:47:47.582Z</time></trkpt><trkpt lat="38.64898" lon="16.37707"><ele>588.0</ele><time>2026-03-29T11:47:48.582Z</time></trkpt><trkpt lat="38.6490567" lon="16.3771117"><ele>588.0</ele><time>2026-03-29T11:47:49.582Z</time></trkpt><trkpt lat="38.649135" lon="16.377115"><ele>588.0</ele><time>2026-03-29T11:47:50.582Z</time></trkpt><trkpt lat="38.6492117" lon="16.3770733"><ele>588.0</ele><time>2026-03-29T11:47:51.582Z</time></trkpt><trkpt lat="38.649285" lon="16.3769883"><ele>588.0</ele><time>2026-03-29T11:47:52.582Z</time></trkpt><trkpt lat="38.6493517" lon="16.3768767"><ele>588.0</ele><time>2026-03-29T11:47:53.582Z</time></trkpt><trkpt lat="38.6494083" lon="16.3767783"><ele>588.3333333333334</ele><time>2026-03-29T11:47:54.582Z</time></trkpt><trkpt lat="38.6494667" lon="16.3767"><ele>588.6666666666666</ele><time>2026-03-29T11:47:55.582Z</time></trkpt><trkpt lat="38.649535" lon="16.3766417"><ele>589.0</ele><time>2026-03-29T11:47:56.582Z</time></trkpt><trkpt lat="38.6496117" lon="16.376595"><ele>589.3333333333333</ele><time>2026-03-29T11:47:57.582Z</time></trkpt><trkpt lat="38.6497017" lon="16.3765533"><ele>589.6666666666666</ele><time>2026-03-29T11:47:58.582Z</time></trkpt><trkpt lat="38.6497967" lon="16.3765183"><ele>590.0</ele><time>2026-03-29T11:47:59.582Z</time></trkpt><trkpt lat="38.6498933" lon="16.376485"><ele>590.0</ele><time>2026-03-29T11:48:00.582Z</time></trkpt><trkpt lat="38.6499867" lon="16.3764467"><ele>590.0</ele><time>2026-03-29T11:48:01.582Z</time></trkpt><trkpt lat="38.650075" lon="16.3764017"><ele>590.0</ele><time>2026-03-29T11:48:02.582Z</time></trkpt><trkpt lat="38.65016" lon="16.3763417"><ele>590.0</ele><time>2026-03-29T11:48:03.582Z</time></trkpt><trkpt lat="38.6502483" lon="16.3762883"><ele>590.0</ele><time>2026-03-29T11:48:04.582Z</time></trkpt><trkpt lat="38.650335" lon="16.3762483"><ele>590.0</ele><time>2026-03-29T11:48:05.582Z</time></trkpt><trkpt lat="38.65042" lon="16.3762083"><ele>590.0</ele><time>2026-03-29T11:48:06.582Z</time></trkpt><trkpt lat="38.6505133" lon="16.37618"><ele>590.0</ele><time>2026-03-29T11:48:07.582Z</time></trkpt><trkpt lat="38.6506017" lon="16.3761383"><ele>590.0</ele><time>2026-03-29T11:48:08.582Z</time></trkpt><trkpt lat="38.6507" lon="16.37607"><ele>590.0</ele><time>2026-03-29T11:48:09.582Z</time></trkpt><trkpt lat="38.6508017" lon="16.3759767"><ele>590.0</ele><time>2026-03-29T11:48:10.582Z</time></trkpt><trkpt lat="38.650905" lon="16.3758733"><ele>590.0</ele><time>2026-03-29T11:48:11.582Z</time></trkpt><trkpt lat="38.6510083" lon="16.3757633"><ele>590.0</ele><time>2026-03-29T11:48:12.582Z</time></trkpt><trkpt lat="38.6511133" lon="16.375645"><ele>590.0</ele><time>2026-03-29T11:48:13.582Z</time></trkpt><trkpt lat="38.6512133" lon="16.375535"><ele>590.0</ele><time>2026-03-29T11:48:14.582Z</time></trkpt><trkpt lat="38.6513133" lon="16.3754217"><ele>590.0</ele><time>2026-03-29T11:48:15.582Z</time></trkpt><trkpt lat="38.651405" lon="16.3753"><ele>590.0</ele><time>2026-03-29T11:48:16.582Z</time></trkpt><trkpt lat="38.6514967" lon="16.3751983"><ele>590.0</ele><time>2026-03-29T11:48:17.582Z</time></trkpt><trkpt lat="38.6515767" lon="16.3750883"><ele>590.0</ele><time>2026-03-29T11:48:18.582Z</time></trkpt><trkpt lat="38.651665" lon="16.375"><ele>590.0</ele><time>2026-03-29T11:48:19.582Z</time></trkpt><trkpt lat="38.6517467" lon="16.374915"><ele>590.0</ele><time>2026-03-29T11:48:20.582Z</time></trkpt><trkpt lat="38.6518317" lon="16.374825"><ele>590.0</ele><time>2026-03-29T11:48:21.582Z</time></trkpt><trkpt lat="38.6519233" lon="16.374725"><ele>590.0</ele><time>2026-03-29T11:48:22.582Z</time></trkpt><trkpt lat="38.6520167" lon="16.37462"><ele>591.5</ele><time>2026-03-29T11:48:23.582Z</time></trkpt><trkpt lat="38.6521083" lon="16.37449"><ele>593.0</ele><time>2026-03-29T11:48:24.583Z</time></trkpt><trkpt lat="38.6521983" lon="16.3743633"><ele>594.5</ele><time>2026-03-29T11:48:25.582Z</time></trkpt><trkpt lat="38.652285" lon="16.3742417"><ele>596.0</ele><time>2026-03-29T11:48:26.582Z</time></trkpt><trkpt lat="38.6523617" lon="16.37414"><ele>596.0</ele><time>2026-03-29T11:48:27.582Z</time></trkpt><trkpt lat="38.65244" lon="16.374035"><ele>596.0</ele><time>2026-03-29T11:48:28.582Z</time></trkpt><trkpt lat="38.652515" lon="16.37393"><ele>596.0</ele><time>2026-03-29T11:48:29.582Z</time></trkpt><trkpt lat="38.652595" lon="16.373825"><ele>596.0</ele><time>2026-03-29T11:48:30.582Z</time></trkpt><trkpt lat="38.6526717" lon="16.3737267"><ele>596.0</ele><time>2026-03-29T11:48:31.582Z</time></trkpt><trkpt lat="38.6527483" lon="16.3736167"><ele>596.0</ele><time>2026-03-29T11:48:32.582Z</time></trkpt><trkpt lat="38.6528367" lon="16.3735017"><ele>596.0</ele><time>2026-03-29T11:48:33.582Z</time></trkpt><trkpt lat="38.6529117" lon="16.37339"><ele>596.0</ele><time>2026-03-29T11:48:34.582Z</time></trkpt><trkpt lat="38.6529817" lon="16.3732717"><ele>596.0</ele><time>2026-03-29T11:48:35.582Z</time></trkpt><trkpt lat="38.6530483" lon="16.3731583"><ele>596.0</ele><time>2026-03-29T11:48:36.582Z</time></trkpt><trkpt lat="38.6531017" lon="16.3730533"><ele>596.0</ele><time>2026-03-29T11:48:37.582Z</time></trkpt><trkpt lat="38.6531533" lon="16.37295"><ele>596.0</ele><time>2026-03-29T11:48:38.582Z</time></trkpt><trkpt lat="38.6532117" lon="16.3728617"><ele>596.0</ele><time>2026-03-29T11:48:39.582Z</time></trkpt><trkpt lat="38.6532617" lon="16.37278"><ele>596.0</ele><time>2026-03-29T11:48:40.582Z</time></trkpt><trkpt lat="38.6533167" lon="16.3727083"><ele>596.0</ele><time>2026-03-29T11:48:41.582Z</time></trkpt><trkpt lat="38.6533883" lon="16.37265"><ele>596.4</ele><time>2026-03-29T11:48:42.582Z</time></trkpt><trkpt lat="38.6534617" lon="16.3725933"><ele>596.8</ele><time>2026-03-29T11:48:43.582Z</time></trkpt><trkpt lat="38.6535367" lon="16.372555"><ele>597.1999999999999</ele><time>2026-03-29T11:48:44.582Z</time></trkpt><trkpt lat="38.6536017" lon="16.3725083"><ele>597.6</ele><time>2026-03-29T11:48:45.582Z</time></trkpt><trkpt lat="38.6537033" lon="16.3724267"><ele>598.0</ele><time>2026-03-29T11:48:47.582Z</time></trkpt><trkpt lat="38.6537883" lon="16.3723617"><ele>598.0</ele><time>2026-03-29T11:48:49.582Z</time></trkpt><trkpt lat="38.6538433" lon="16.372315"><ele>598.0</ele><time>2026-03-29T11:48:50.582Z</time></trkpt><trkpt lat="38.6538967" lon="16.3722583"><ele>598.0</ele><time>2026-03-29T11:48:51.582Z</time></trkpt><trkpt lat="38.6539633" lon="16.3721883"><ele>598.0</ele><time>2026-03-29T11:48:52.582Z</time></trkpt><trkpt lat="38.6540383" lon="16.3721233"><ele>598.0</ele><time>2026-03-29T11:48:53.582Z</time></trkpt><trkpt lat="38.6541183" lon="16.3720533"><ele>598.0</ele><time>2026-03-29T11:48:54.582Z</time></trkpt><trkpt lat="38.6542067" lon="16.371985"><ele>598.1999999999999</ele><time>2026-03-29T11:48:55.582Z</time></trkpt><trkpt lat="38.6542833" lon="16.3719117"><ele>598.4</ele><time>2026-03-29T11:48:56.582Z</time></trkpt><trkpt lat="38.65436" lon="16.37185"><ele>598.5999999999999</ele><time>2026-03-29T11:48:57.582Z</time></trkpt><trkpt lat="38.6544367" lon="16.371785"><ele>598.8</ele><time>2026-03-29T11:48:58.582Z</time></trkpt><trkpt lat="38.65451" lon="16.3717117"><ele>599.0</ele><time>2026-03-29T11:48:59.582Z</time></trkpt><trkpt lat="38.654585" lon="16.3716483"><ele>599.1666666666666</ele><time>2026-03-29T11:49:00.583Z</time></trkpt><trkpt lat="38.654655" lon="16.3715767"><ele>599.3333333333333</ele><time>2026-03-29T11:49:01.582Z</time></trkpt><trkpt lat="38.6547183" lon="16.37152"><ele>599.5</ele><time>2026-03-29T11:49:02.582Z</time></trkpt><trkpt lat="38.65478" lon="16.3714217"><ele>599.6666666666666</ele><time>2026-03-29T11:49:04.582Z</time></trkpt><trkpt lat="38.6548433" lon="16.37136"><ele>599.8333333333334</ele><time>2026-03-29T11:49:08.582Z</time></trkpt><trkpt lat="38.6548833" lon="16.371285"><ele>600.0</ele><time>2026-03-29T11:49:53.582Z</time></trkpt><trkpt lat="38.6549367" lon="16.3712017"><ele>600.0</ele><time>2026-03-29T11:49:55.582Z</time></trkpt><trkpt lat="38.6550283" lon="16.3711"><ele>600.0</ele><time>2026-03-29T11:49:57.582Z</time></trkpt><trkpt lat="38.6550883" lon="16.3710583"><ele>600.0</ele><time>2026-03-29T11:49:58.582Z</time></trkpt><trkpt lat="38.6551917" lon="16.370965"><ele>600.0</ele><time>2026-03-29T11:50:00.582Z</time></trkpt><trkpt lat="38.6552833" lon="16.37089"><ele>600.0</ele><time>2026-03-29T11:50:02.582Z</time></trkpt><trkpt lat="38.6554017" lon="16.3708933"><ele>600.1666666666666</ele><time>2026-03-29T11:50:04.582Z</time></trkpt><trkpt lat="38.65551" lon="16.37095"><ele>600.3333333333334</ele><time>2026-03-29T11:50:06.582Z</time></trkpt><trkpt lat="38.6555683" lon="16.3709933"><ele>600.5</ele><time>2026-03-29T11:50:07.582Z</time></trkpt><trkpt lat="38.6556267" lon="16.3710333"><ele>600.6666666666667</ele><time>2026-03-29T11:50:08.582Z</time></trkpt><trkpt lat="38.65569" lon="16.371065"><ele>600.8333333333334</ele><time>2026-03-29T11:50:09.582Z</time></trkpt><trkpt lat="38.655755" lon="16.3710833"><ele>601.0</ele><time>2026-03-29T11:50:10.582Z</time></trkpt><trkpt lat="38.65588" lon="16.371095"><ele>601.0</ele><time>2026-03-29T11:50:12.582Z</time></trkpt><trkpt lat="38.655945" lon="16.3710817"><ele>601.0</ele><time>2026-03-29T11:50:13.582Z</time></trkpt><trkpt lat="38.6560267" lon="16.3710533"><ele>601.0</ele><time>2026-03-29T11:50:14.582Z</time></trkpt><trkpt lat="38.6561133" lon="16.370995"><ele>601.0</ele><time>2026-03-29T11:50:15.582Z</time></trkpt><trkpt lat="38.6561983" lon="16.3709233"><ele>601.0</ele><time>2026-03-29T11:50:16.582Z</time></trkpt><trkpt lat="38.6562783" lon="16.3708283"><ele>600.2</ele><time>2026-03-29T11:50:17.582Z</time></trkpt><trkpt lat="38.65636" lon="16.3707317"><ele>599.4000000000001</ele><time>2026-03-29T11:50:18.583Z</time></trkpt><trkpt lat="38.656435" lon="16.3706633"><ele>598.6</ele><time>2026-03-29T11:50:19.583Z</time></trkpt><trkpt lat="38.656515" lon="16.3706117"><ele>597.8000000000001</ele><time>2026-03-29T11:50:20.583Z</time></trkpt><trkpt lat="38.6565767" lon="16.3705833"><ele>597.0</ele><time>2026-03-29T11:50:21.582Z</time></trkpt><trkpt lat="38.6566683" lon="16.37055"><ele>597.0</ele><time>2026-03-29T11:50:23.582Z</time></trkpt><trkpt lat="38.6567333" lon="16.3705383"><ele>597.0</ele><time>2026-03-29T11:50:26.582Z</time></trkpt><trkpt lat="38.6568117" lon="16.3705567"><ele>597.0</ele><time>2026-03-29T11:50:30.582Z</time></trkpt><trkpt lat="38.6568817" lon="16.3705817"><ele>597.0</ele><time>2026-03-29T11:50:33.582Z</time></trkpt><trkpt lat="38.6569433" lon="16.37062"><ele>597.0</ele><time>2026-03-29T11:50:35.582Z</time></trkpt><trkpt lat="38.6570267" lon="16.3706867"><ele>597.0</ele><time>2026-03-29T11:50:37.582Z</time></trkpt><trkpt lat="38.657115" lon="16.3707517"><ele>597.6</ele><time>2026-03-29T11:50:39.582Z</time></trkpt><trkpt lat="38.6572233" lon="16.37082"><ele>598.2</ele><time>2026-03-29T11:50:41.582Z</time></trkpt><trkpt lat="38.6572967" lon="16.3708567"><ele>598.8</ele><time>2026-03-29T11:50:42.582Z</time></trkpt><trkpt lat="38.657375" lon="16.3708983"><ele>599.4</ele><time>2026-03-29T11:50:43.582Z</time></trkpt><trkpt lat="38.6574617" lon="16.3709333"><ele>600.0</ele><time>2026-03-29T11:50:44.582Z</time></trkpt><trkpt lat="38.6575383" lon="16.370965"><ele>599.9999999999999</ele><time>2026-03-29T11:50:45.582Z</time></trkpt><trkpt lat="38.6576183" lon="16.3709917"><ele>600.0</ele><time>2026-03-29T11:50:46.582Z</time></trkpt><trkpt lat="38.65768" lon="16.3710167"><ele>600.0</ele><time>2026-03-29T11:50:47.582Z</time></trkpt><trkpt lat="38.6577417" lon="16.3710483"><ele>600.0</ele><time>2026-03-29T11:50:48.582Z</time></trkpt><trkpt lat="38.65781" lon="16.37108"><ele>600.0</ele><time>2026-03-29T11:50:49.582Z</time></trkpt><trkpt lat="38.6578733" lon="16.37113"><ele>599.9999999999999</ele><time>2026-03-29T11:50:50.582Z</time></trkpt><trkpt lat="38.6579433" lon="16.3711767"><ele>600.0</ele><time>2026-03-29T11:50:51.582Z</time></trkpt><trkpt lat="38.65803" lon="16.3712333"><ele>600.1666666666666</ele><time>2026-03-29T11:50:52.582Z</time></trkpt><trkpt lat="38.658115" lon="16.3713017"><ele>600.3333333333334</ele><time>2026-03-29T11:50:53.583Z</time></trkpt><trkpt lat="38.6581933" lon="16.371365"><ele>600.5</ele><time>2026-03-29T11:50:54.582Z</time></trkpt><trkpt lat="38.6582533" lon="16.3714083"><ele>600.6666666666667</ele><time>2026-03-29T11:50:55.582Z</time></trkpt><trkpt lat="38.658335" lon="16.3714667"><ele>600.8333333333334</ele><time>2026-03-29T11:50:57.582Z</time></trkpt><trkpt lat="38.6583933" lon="16.3715017"><ele>601.0</ele><time>2026-03-29T11:50:59.582Z</time></trkpt><trkpt lat="38.6584467" lon="16.3715517"><ele>600.6</ele><time>2026-03-29T11:51:01.582Z</time></trkpt><trkpt lat="38.6585667" lon="16.3716283"><ele>600.2</ele><time>2026-03-29T11:51:03.582Z</time></trkpt><trkpt lat="38.658635" lon="16.371685"><ele>599.8</ele><time>2026-03-29T11:51:04.582Z</time></trkpt><trkpt lat="38.6587067" lon="16.3717667"><ele>599.4</ele><time>2026-03-29T11:51:05.582Z</time></trkpt><trkpt lat="38.6587567" lon="16.371875"><ele>599.0</ele><time>2026-03-29T11:51:06.582Z</time></trkpt><trkpt lat="38.6587867" lon="16.3720117"><ele>599.0</ele><time>2026-03-29T11:51:07.582Z</time></trkpt><trkpt lat="38.658785" lon="16.3721617"><ele>599.0</ele><time>2026-03-29T11:51:08.582Z</time></trkpt><trkpt lat="38.6587667" lon="16.37231"><ele>599.0</ele><time>2026-03-29T11:51:09.582Z</time></trkpt><trkpt lat="38.658735" lon="16.372445"><ele>599.0</ele><time>2026-03-29T11:51:10.582Z</time></trkpt><trkpt lat="38.65869" lon="16.3725833"><ele>599.0</ele><time>2026-03-29T11:51:11.582Z</time></trkpt><trkpt lat="38.65863" lon="16.3727183"><ele>599.0</ele><time>2026-03-29T11:51:12.582Z</time></trkpt><trkpt lat="38.6585783" lon="16.3728567"><ele>599.0</ele><time>2026-03-29T11:51:13.582Z</time></trkpt><trkpt lat="38.6585267" lon="16.3729917"><ele>599.0</ele><time>2026-03-29T11:51:14.582Z</time></trkpt><trkpt lat="38.6584817" lon="16.3731333"><ele>596.25</ele><time>2026-03-29T11:51:15.582Z</time></trkpt><trkpt lat="38.6584383" lon="16.3732717"><ele>593.5</ele><time>2026-03-29T11:51:16.582Z</time></trkpt><trkpt lat="38.6584067" lon="16.3734433"><ele>590.75</ele><time>2026-03-29T11:51:17.582Z</time></trkpt><trkpt lat="38.6583717" lon="16.3736183"><ele>588.0</ele><time>2026-03-29T11:51:18.582Z</time></trkpt><trkpt lat="38.6583467" lon="16.373805"><ele>588.6666666666666</ele><time>2026-03-29T11:51:19.582Z</time></trkpt><trkpt lat="38.6583317" lon="16.374005"><ele>589.3333333333333</ele><time>2026-03-29T11:51:20.582Z</time></trkpt><trkpt lat="38.6582967" lon="16.3741983"><ele>590.0</ele><time>2026-03-29T11:51:21.582Z</time></trkpt><trkpt lat="38.6582633" lon="16.3743933"><ele>590.0</ele><time>2026-03-29T11:51:22.582Z</time></trkpt><trkpt lat="38.6582217" lon="16.374565"><ele>590.0</ele><time>2026-03-29T11:51:23.582Z</time></trkpt><trkpt lat="38.6581717" lon="16.3747467"><ele>590.0</ele><time>2026-03-29T11:51:24.582Z</time></trkpt><trkpt lat="38.6581183" lon="16.374915"><ele>590.0</ele><time>2026-03-29T11:51:25.582Z</time></trkpt><trkpt lat="38.6580617" lon="16.3750783"><ele>589.75</ele><time>2026-03-29T11:51:26.582Z</time></trkpt><trkpt lat="38.6580183" lon="16.3752483"><ele>589.5</ele><time>2026-03-29T11:51:27.582Z</time></trkpt><trkpt lat="38.657985" lon="16.3754283"><ele>589.25</ele><time>2026-03-29T11:51:28.582Z</time></trkpt><trkpt lat="38.6579733" lon="16.3756117"><ele>589.0</ele><time>2026-03-29T11:51:29.582Z</time></trkpt><trkpt lat="38.6579667" lon="16.3758017"><ele>587.6666666666667</ele><time>2026-03-29T11:51:30.582Z</time></trkpt><trkpt lat="38.6579583" lon="16.3760033"><ele>586.3333333333334</ele><time>2026-03-29T11:51:31.582Z</time></trkpt><trkpt lat="38.65795" lon="16.3762083"><ele>585.0</ele><time>2026-03-29T11:51:32.582Z</time></trkpt><trkpt lat="38.657935" lon="16.3764017"><ele>584.3333333333334</ele><time>2026-03-29T11:51:33.583Z</time></trkpt><trkpt lat="38.6579233" lon="16.376615"><ele>583.6666666666667</ele><time>2026-03-29T11:51:34.582Z</time></trkpt><trkpt lat="38.6579083" lon="16.3768183"><ele>583.0</ele><time>2026-03-29T11:51:35.582Z</time></trkpt><trkpt lat="38.657885" lon="16.3770233"><ele>582.3333333333334</ele><time>2026-03-29T11:51:36.582Z</time></trkpt><trkpt lat="38.65786" lon="16.377245"><ele>581.6666666666666</ele><time>2026-03-29T11:51:37.583Z</time></trkpt><trkpt lat="38.6578417" lon="16.3774733"><ele>581.0</ele><time>2026-03-29T11:51:38.582Z</time></trkpt><trkpt lat="38.6578083" lon="16.3777133"><ele>577.6666666666666</ele><time>2026-03-29T11:51:39.582Z</time></trkpt><trkpt lat="38.6577717" lon="16.37795"><ele>574.3333333333334</ele><time>2026-03-29T11:51:40.582Z</time></trkpt><trkpt lat="38.657745" lon="16.37818"><ele>571.0</ele><time>2026-03-29T11:51:41.582Z</time></trkpt><trkpt lat="38.6577217" lon="16.378405"><ele>569.6666666666667</ele><time>2026-03-29T11:51:42.582Z</time></trkpt><trkpt lat="38.6577083" lon="16.3786233"><ele>568.3333333333334</ele><time>2026-03-29T11:51:43.583Z</time></trkpt><trkpt lat="38.6577017" lon="16.37884"><ele>567.0</ele><time>2026-03-29T11:51:44.582Z</time></trkpt><trkpt lat="38.6577017" lon="16.3790567"><ele>566.0</ele><time>2026-03-29T11:51:45.582Z</time></trkpt><trkpt lat="38.657715" lon="16.3792683"><ele>565.0</ele><time>2026-03-29T11:51:46.582Z</time></trkpt><trkpt lat="38.6577383" lon="16.3795017"><ele>564.0</ele><time>2026-03-29T11:51:47.582Z</time></trkpt><trkpt lat="38.65777" lon="16.37974"><ele>567.0</ele><time>2026-03-29T11:51:48.582Z</time></trkpt><trkpt lat="38.6578067" lon="16.3799933"><ele>570.0</ele><time>2026-03-29T11:51:49.582Z</time></trkpt><trkpt lat="38.6578233" lon="16.3802467"><ele>573.0</ele><time>2026-03-29T11:51:50.582Z</time></trkpt><trkpt lat="38.6578233" lon="16.3804833"><ele>571.3333333333334</ele><time>2026-03-29T11:51:51.582Z</time></trkpt><trkpt lat="38.6578067" lon="16.38071"><ele>569.6666666666667</ele><time>2026-03-29T11:51:52.582Z</time></trkpt><trkpt lat="38.6578017" lon="16.3809333"><ele>568.0</ele><time>2026-03-29T11:51:53.582Z</time></trkpt><trkpt lat="38.65778" lon="16.3811383"><ele>565.0</ele><time>2026-03-29T11:51:54.582Z</time></trkpt><trkpt lat="38.6577517" lon="16.381325"><ele>562.0</ele><time>2026-03-29T11:51:55.582Z</time></trkpt><trkpt lat="38.6576983" lon="16.3815067"><ele>559.0</ele><time>2026-03-29T11:51:56.582Z</time></trkpt><trkpt lat="38.6576633" lon="16.3816767"><ele>556.0</ele><time>2026-03-29T11:51:57.582Z</time></trkpt><trkpt lat="38.6576533" lon="16.3818567"><ele>556.25</ele><time>2026-03-29T11:51:58.582Z</time></trkpt><trkpt lat="38.6576767" lon="16.3820433"><ele>556.5</ele><time>2026-03-29T11:51:59.582Z</time></trkpt><trkpt lat="38.6577133" lon="16.3822083"><ele>556.75</ele><time>2026-03-29T11:52:00.582Z</time></trkpt><trkpt lat="38.6577533" lon="16.3823367"><ele>557.0</ele><time>2026-03-29T11:52:01.582Z</time></trkpt><trkpt lat="38.6578417" lon="16.3824183"><ele>557.0</ele><time>2026-03-29T11:52:02.582Z</time></trkpt><trkpt lat="38.6579483" lon="16.3824967"><ele>557.0</ele><time>2026-03-29T11:52:03.582Z</time></trkpt><trkpt lat="38.658075" lon="16.382575"><ele>557.0</ele><time>2026-03-29T11:52:04.582Z</time></trkpt><trkpt lat="38.6581867" lon="16.38262"><ele>557.0</ele><time>2026-03-29T11:52:05.582Z</time></trkpt><trkpt lat="38.6582967" lon="16.3826317"><ele>557.0</ele><time>2026-03-29T11:52:06.582Z</time></trkpt><trkpt lat="38.6583883" lon="16.3825933"><ele>557.0</ele><time>2026-03-29T11:52:07.582Z</time></trkpt><trkpt lat="38.6584717" lon="16.3825017"><ele>557.0</ele><time>2026-03-29T11:52:08.582Z</time></trkpt><trkpt lat="38.6585567" lon="16.3823767"><ele>557.0</ele><time>2026-03-29T11:52:09.582Z</time></trkpt><trkpt lat="38.658635" lon="16.3822417"><ele>558.25</ele><time>2026-03-29T11:52:10.582Z</time></trkpt><trkpt lat="38.6587183" lon="16.3821333"><ele>559.5</ele><time>2026-03-29T11:52:11.582Z</time></trkpt><trkpt lat="38.6588183" lon="16.3820617"><ele>560.75</ele><time>2026-03-29T11:52:12.582Z</time></trkpt><trkpt lat="38.6589583" lon="16.3820017"><ele>562.0</ele><time>2026-03-29T11:52:13.582Z</time></trkpt><trkpt lat="38.6591083" lon="16.38196"><ele>562.0</ele><time>2026-03-29T11:52:14.582Z</time></trkpt><trkpt lat="38.6592717" lon="16.3819167"><ele>562.0</ele><time>2026-03-29T11:52:15.582Z</time></trkpt><trkpt lat="38.6594417" lon="16.3818483"><ele>562.0</ele><time>2026-03-29T11:52:16.582Z</time></trkpt><trkpt lat="38.659605" lon="16.3817417"><ele>556.6666666666667</ele><time>2026-03-29T11:52:17.582Z</time></trkpt><trkpt lat="38.6597667" lon="16.3816433"><ele>551.3333333333334</ele><time>2026-03-29T11:52:18.582Z</time></trkpt><trkpt lat="38.6599217" lon="16.3815383"><ele>546.0</ele><time>2026-03-29T11:52:19.582Z</time></trkpt><trkpt lat="38.66008" lon="16.3814567"><ele>546.0</ele><time>2026-03-29T11:52:20.582Z</time></trkpt><trkpt lat="38.6602217" lon="16.3813933"><ele>546.0</ele><time>2026-03-29T11:52:21.582Z</time></trkpt><trkpt lat="38.660345" lon="16.3813117"><ele>546.0</ele><time>2026-03-29T11:52:22.582Z</time></trkpt><trkpt lat="38.6604283" lon="16.3812033"><ele>546.0</ele><time>2026-03-29T11:52:23.582Z</time></trkpt><trkpt lat="38.6605017" lon="16.38105"><ele>545.8333333333334</ele><time>2026-03-29T11:52:24.582Z</time></trkpt><trkpt lat="38.6605533" lon="16.3809217"><ele>545.6666666666666</ele><time>2026-03-29T11:52:25.582Z</time></trkpt><trkpt lat="38.66061" lon="16.380835"><ele>545.5</ele><time>2026-03-29T11:52:26.582Z</time></trkpt><trkpt lat="38.66067" lon="16.3807833"><ele>545.3333333333333</ele><time>2026-03-29T11:52:27.582Z</time></trkpt><trkpt lat="38.66074" lon="16.3807667"><ele>545.1666666666666</ele><time>2026-03-29T11:52:28.583Z</time></trkpt><trkpt lat="38.660825" lon="16.38079"><ele>545.0</ele><time>2026-03-29T11:52:29.582Z</time></trkpt><trkpt lat="38.660925" lon="16.3808683"><ele>545.0</ele><time>2026-03-29T11:52:30.583Z</time></trkpt><trkpt lat="38.66103" lon="16.3809183"><ele>545.0</ele><time>2026-03-29T11:52:31.582Z</time></trkpt><trkpt lat="38.66114" lon="16.3809133"><ele>545.0</ele><time>2026-03-29T11:52:32.582Z</time></trkpt><trkpt lat="38.6612433" lon="16.380855"><ele>545.0</ele><time>2026-03-29T11:52:33.582Z</time></trkpt><trkpt lat="38.6613333" lon="16.380785"><ele>545.0</ele><time>2026-03-29T11:52:34.582Z</time></trkpt><trkpt lat="38.66143" lon="16.3807317"><ele>544.5</ele><time>2026-03-29T11:52:35.582Z</time></trkpt><trkpt lat="38.6615417" lon="16.3807417"><ele>544.0</ele><time>2026-03-29T11:52:37.582Z</time></trkpt><trkpt lat="38.6616217" lon="16.38086"><ele>543.5</ele><time>2026-03-29T11:52:39.582Z</time></trkpt><trkpt lat="38.66162" lon="16.3809833"><ele>543.0</ele><time>2026-03-29T11:52:40.582Z</time></trkpt><trkpt lat="38.6615767" lon="16.3811583"><ele>545.0</ele><time>2026-03-29T11:52:41.583Z</time></trkpt><trkpt lat="38.6614983" lon="16.3813517"><ele>547.0</ele><time>2026-03-29T11:52:42.582Z</time></trkpt><trkpt lat="38.6613683" lon="16.3815733"><ele>549.0</ele><time>2026-03-29T11:52:43.582Z</time></trkpt><trkpt lat="38.6612333" lon="16.381805"><ele>546.0</ele><time>2026-03-29T11:52:44.582Z</time></trkpt><trkpt lat="38.6611017" lon="16.3820183"><ele>543.0</ele><time>2026-03-29T11:52:45.582Z</time></trkpt><trkpt lat="38.6609667" lon="16.3822267"><ele>540.0</ele><time>2026-03-29T11:52:46.582Z</time></trkpt><trkpt lat="38.6608283" lon="16.3824233"><ele>540.0</ele><time>2026-03-29T11:52:47.582Z</time></trkpt><trkpt lat="38.6607" lon="16.3826083"><ele>540.0</ele><time>2026-03-29T11:52:48.582Z</time></trkpt><trkpt lat="38.66058" lon="16.3827817"><ele>540.0</ele><time>2026-03-29T11:52:49.582Z</time></trkpt><trkpt lat="38.66048" lon="16.3829533"><ele>539.0</ele><time>2026-03-29T11:52:50.582Z</time></trkpt><trkpt lat="38.6603783" lon="16.3831183"><ele>538.0</ele><time>2026-03-29T11:52:51.582Z</time></trkpt><trkpt lat="38.6602683" lon="16.383285"><ele>537.0</ele><time>2026-03-29T11:52:52.582Z</time></trkpt><trkpt lat="38.6601533" lon="16.3834467"><ele>537.0</ele><time>2026-03-29T11:52:53.583Z</time></trkpt><trkpt lat="38.66004" lon="16.3836017"><ele>537.0</ele><time>2026-03-29T11:52:54.582Z</time></trkpt><trkpt lat="38.6599367" lon="16.38375"><ele>537.0</ele><time>2026-03-29T11:52:55.582Z</time></trkpt><trkpt lat="38.6598483" lon="16.3838783"><ele>538.0</ele><time>2026-03-29T11:52:56.582Z</time></trkpt><trkpt lat="38.6597883" lon="16.3840283"><ele>539.0</ele><time>2026-03-29T11:52:57.582Z</time></trkpt><trkpt lat="38.6597733" lon="16.3841767"><ele>540.0</ele><time>2026-03-29T11:52:58.582Z</time></trkpt><trkpt lat="38.65978" lon="16.3843483"><ele>541.0</ele><time>2026-03-29T11:52:59.582Z</time></trkpt><trkpt lat="38.6598233" lon="16.384545"><ele>539.0</ele><time>2026-03-29T11:53:00.582Z</time></trkpt><trkpt lat="38.6598833" lon="16.38475"><ele>537.0</ele><time>2026-03-29T11:53:01.582Z</time></trkpt><trkpt lat="38.6599467" lon="16.3849417"><ele>535.0</ele><time>2026-03-29T11:53:02.582Z</time></trkpt><trkpt lat="38.660005" lon="16.3851133"><ele>535.0</ele><time>2026-03-29T11:53:03.582Z</time></trkpt><trkpt lat="38.6600517" lon="16.3852633"><ele>535.0</ele><time>2026-03-29T11:53:04.582Z</time></trkpt><trkpt lat="38.6601233" lon="16.3853633"><ele>535.0</ele><time>2026-03-29T11:53:05.582Z</time></trkpt><trkpt lat="38.6602133" lon="16.385425"><ele>535.0</ele><time>2026-03-29T11:53:06.582Z</time></trkpt><trkpt lat="38.6603233" lon="16.3854933"><ele>536.0</ele><time>2026-03-29T11:53:07.582Z</time></trkpt><trkpt lat="38.660425" lon="16.3855733"><ele>537.0</ele><time>2026-03-29T11:53:08.582Z</time></trkpt><trkpt lat="38.6605033" lon="16.3856783"><ele>538.0</ele><time>2026-03-29T11:53:09.582Z</time></trkpt><trkpt lat="38.66056" lon="16.38582"><ele>539.0</ele><time>2026-03-29T11:53:10.582Z</time></trkpt><trkpt lat="38.6605917" lon="16.3859867"><ele>539.0</ele><time>2026-03-29T11:53:11.582Z</time></trkpt><trkpt lat="38.660625" lon="16.3861433"><ele>539.0</ele><time>2026-03-29T11:53:12.582Z</time></trkpt><trkpt lat="38.6606617" lon="16.3862883"><ele>539.0</ele><time>2026-03-29T11:53:13.583Z</time></trkpt><trkpt lat="38.66072" lon="16.3863833"><ele>539.0</ele><time>2026-03-29T11:53:14.582Z</time></trkpt><trkpt lat="38.6607883" lon="16.386435"><ele>539.0</ele><time>2026-03-29T11:53:15.582Z</time></trkpt><trkpt lat="38.660865" lon="16.386455"><ele>539.75</ele><time>2026-03-29T11:53:16.582Z</time></trkpt><trkpt lat="38.6609617" lon="16.3864367"><ele>540.5</ele><time>2026-03-29T11:53:17.583Z</time></trkpt><trkpt lat="38.6610733" lon="16.386385"><ele>541.25</ele><time>2026-03-29T11:53:18.582Z</time></trkpt><trkpt lat="38.6611967" lon="16.38631"><ele>542.0</ele><time>2026-03-29T11:53:19.582Z</time></trkpt><trkpt lat="38.66134" lon="16.386225"><ele>542.0</ele><time>2026-03-29T11:53:20.582Z</time></trkpt><trkpt lat="38.66147" lon="16.3861467"><ele>542.0</ele><time>2026-03-29T11:53:21.582Z</time></trkpt><trkpt lat="38.6616017" lon="16.3860917"><ele>542.0</ele><time>2026-03-29T11:53:22.582Z</time></trkpt><trkpt lat="38.6617283" lon="16.3860717"><ele>542.0</ele><time>2026-03-29T11:53:23.582Z</time></trkpt><trkpt lat="38.6618383" lon="16.386105"><ele>542.0</ele><time>2026-03-29T11:53:24.582Z</time></trkpt><trkpt lat="38.661945" lon="16.3861783"><ele>542.0</ele><time>2026-03-29T11:53:25.582Z</time></trkpt><trkpt lat="38.6620683" lon="16.386275"><ele>542.0</ele><time>2026-03-29T11:53:26.582Z</time></trkpt><trkpt lat="38.6622133" lon="16.3863917"><ele>542.0</ele><time>2026-03-29T11:53:27.582Z</time></trkpt><trkpt lat="38.66236" lon="16.3865217"><ele>538.5</ele><time>2026-03-29T11:53:28.582Z</time></trkpt><trkpt lat="38.6624917" lon="16.3866417"><ele>535.0</ele><time>2026-03-29T11:53:29.582Z</time></trkpt><trkpt lat="38.662605" lon="16.386745"><ele>531.5</ele><time>2026-03-29T11:53:30.582Z</time></trkpt><trkpt lat="38.6627083" lon="16.38681"><ele>528.0</ele><time>2026-03-29T11:53:31.582Z</time></trkpt><trkpt lat="38.662825" lon="16.3868367"><ele>527.25</ele><time>2026-03-29T11:53:32.582Z</time></trkpt><trkpt lat="38.662945" lon="16.3868"><ele>526.5</ele><time>2026-03-29T11:53:33.582Z</time></trkpt><trkpt lat="38.663075" lon="16.3867233"><ele>525.75</ele><time>2026-03-29T11:53:34.582Z</time></trkpt><trkpt lat="38.6632067" lon="16.3866633"><ele>525.0</ele><time>2026-03-29T11:53:35.582Z</time></trkpt><trkpt lat="38.66333" lon="16.3866333"><ele>525.0</ele><time>2026-03-29T11:53:36.582Z</time></trkpt><trkpt lat="38.6634433" lon="16.386645"><ele>525.0</ele><time>2026-03-29T11:53:37.582Z</time></trkpt><trkpt lat="38.6635717" lon="16.38669"><ele>525.0</ele><time>2026-03-29T11:53:38.582Z</time></trkpt><trkpt lat="38.6636967" lon="16.3867767"><ele>525.0</ele><time>2026-03-29T11:53:39.582Z</time></trkpt><trkpt lat="38.6638167" lon="16.3868983"><ele>525.25</ele><time>2026-03-29T11:53:40.582Z</time></trkpt><trkpt lat="38.66393" lon="16.3870367"><ele>525.5</ele><time>2026-03-29T11:53:41.582Z</time></trkpt><trkpt lat="38.6640267" lon="16.3871883"><ele>525.75</ele><time>2026-03-29T11:53:42.582Z</time></trkpt><trkpt lat="38.66408" lon="16.38734"><ele>526.0</ele><time>2026-03-29T11:53:43.582Z</time></trkpt><trkpt lat="38.6641167" lon="16.3875217"><ele>526.0</ele><time>2026-03-29T11:53:44.582Z</time></trkpt><trkpt lat="38.66415" lon="16.387715"><ele>526.0</ele><time>2026-03-29T11:53:45.582Z</time></trkpt><trkpt lat="38.6641933" lon="16.387895"><ele>526.0</ele><time>2026-03-29T11:53:46.582Z</time></trkpt><trkpt lat="38.664265" lon="16.3880883"><ele>526.0</ele><time>2026-03-29T11:53:47.582Z</time></trkpt><trkpt lat="38.6643617" lon="16.388265"><ele>526.0</ele><time>2026-03-29T11:53:48.582Z</time></trkpt><trkpt lat="38.66446" lon="16.388395"><ele>526.0</ele><time>2026-03-29T11:53:49.582Z</time></trkpt><trkpt lat="38.6645583" lon="16.3884717"><ele>526.0</ele><time>2026-03-29T11:53:50.582Z</time></trkpt><trkpt lat="38.66466" lon="16.3884983"><ele>526.0</ele><time>2026-03-29T11:53:51.582Z</time></trkpt><trkpt lat="38.6647833" lon="16.3884733"><ele>526.0</ele><time>2026-03-29T11:53:52.582Z</time></trkpt><trkpt lat="38.6649267" lon="16.388425"><ele>526.0</ele><time>2026-03-29T11:53:53.582Z</time></trkpt><trkpt lat="38.6650833" lon="16.3883683"><ele>526.0</ele><time>2026-03-29T11:53:54.583Z</time></trkpt><trkpt lat="38.6652433" lon="16.38831"><ele>526.0</ele><time>2026-03-29T11:53:55.582Z</time></trkpt><trkpt lat="38.665395" lon="16.3882567"><ele>526.0</ele><time>2026-03-29T11:53:56.582Z</time></trkpt><trkpt lat="38.66552" lon="16.3882517"><ele>526.0</ele><time>2026-03-29T11:53:57.582Z</time></trkpt><trkpt lat="38.6656317" lon="16.3882883"><ele>526.0</ele><time>2026-03-29T11:53:58.582Z</time></trkpt><trkpt lat="38.6657033" lon="16.3883883"><ele>526.0</ele><time>2026-03-29T11:53:59.582Z</time></trkpt><trkpt lat="38.6657467" lon="16.3885283"><ele>526.0</ele><time>2026-03-29T11:54:00.582Z</time></trkpt><trkpt lat="38.6657833" lon="16.388695"><ele>526.0</ele><time>2026-03-29T11:54:01.582Z</time></trkpt><trkpt lat="38.6658233" lon="16.3888833"><ele>526.0</ele><time>2026-03-29T11:54:02.582Z</time></trkpt><trkpt lat="38.6658733" lon="16.389095"><ele>524.0</ele><time>2026-03-29T11:54:03.582Z</time></trkpt><trkpt lat="38.6659283" lon="16.3893217"><ele>522.0</ele><time>2026-03-29T11:54:04.582Z</time></trkpt><trkpt lat="38.6659833" lon="16.3895717"><ele>520.0</ele><time>2026-03-29T11:54:05.582Z</time></trkpt><trkpt lat="38.66605" lon="16.3898167"><ele>520.0</ele><time>2026-03-29T11:54:06.582Z</time></trkpt><trkpt lat="38.6661033" lon="16.3900533"><ele>520.0</ele><time>2026-03-29T11:54:07.582Z</time></trkpt><trkpt lat="38.6661483" lon="16.39028"><ele>520.0</ele><time>2026-03-29T11:54:08.582Z</time></trkpt><trkpt lat="38.6661567" lon="16.3904833"><ele>520.6666666666667</ele><time>2026-03-29T11:54:09.582Z</time></trkpt><trkpt lat="38.66613" lon="16.3906883"><ele>521.3333333333334</ele><time>2026-03-29T11:54:10.582Z</time></trkpt><trkpt lat="38.6660817" lon="16.390905"><ele>522.0</ele><time>2026-03-29T11:54:11.582Z</time></trkpt><trkpt lat="38.6660317" lon="16.3911183"><ele>522.0</ele><time>2026-03-29T11:54:12.582Z</time></trkpt><trkpt lat="38.6659917" lon="16.3913333"><ele>522.0</ele><time>2026-03-29T11:54:13.582Z</time></trkpt><trkpt lat="38.6659783" lon="16.3915383"><ele>522.0</ele><time>2026-03-29T11:54:14.582Z</time></trkpt><trkpt lat="38.6659683" lon="16.39171"><ele>522.5</ele><time>2026-03-29T11:54:15.582Z</time></trkpt><trkpt lat="38.6659433" lon="16.3918417"><ele>523.0</ele><time>2026-03-29T11:54:16.582Z</time></trkpt><trkpt lat="38.6659033" lon="16.39193"><ele>523.5</ele><time>2026-03-29T11:54:17.582Z</time></trkpt><trkpt lat="38.6658367" lon="16.3919717"><ele>524.0</ele><time>2026-03-29T11:54:18.582Z</time></trkpt><trkpt lat="38.6657483" lon="16.3920117"><ele>524.5</ele><time>2026-03-29T11:54:19.582Z</time></trkpt><trkpt lat="38.6656633" lon="16.39203"><ele>525.0</ele><time>2026-03-29T11:54:20.582Z</time></trkpt><trkpt lat="38.665585" lon="16.39204"><ele>525.0</ele><time>2026-03-29T11:54:21.582Z</time></trkpt><trkpt lat="38.6655133" lon="16.3920583"><ele>525.0</ele><time>2026-03-29T11:54:22.582Z</time></trkpt><trkpt lat="38.6654567" lon="16.3921033"><ele>525.0</ele><time>2026-03-29T11:54:23.582Z</time></trkpt><trkpt lat="38.665415" lon="16.3922167"><ele>525.0</ele><time>2026-03-29T11:54:25.582Z</time></trkpt><trkpt lat="38.6654833" lon="16.39232"><ele>525.0</ele><time>2026-03-29T11:54:27.582Z</time></trkpt><trkpt lat="38.66553" lon="16.3923767"><ele>525.0</ele><time>2026-03-29T11:54:28.582Z</time></trkpt><trkpt lat="38.66558" lon="16.3924533"><ele>525.8</ele><time>2026-03-29T11:54:29.582Z</time></trkpt><trkpt lat="38.6656283" lon="16.3925333"><ele>526.6</ele><time>2026-03-29T11:54:30.582Z</time></trkpt><trkpt lat="38.6656967" lon="16.3926533"><ele>527.4</ele><time>2026-03-29T11:54:32.582Z</time></trkpt><trkpt lat="38.6657467" lon="16.3927667"><ele>528.2</ele><time>2026-03-29T11:54:34.582Z</time></trkpt><trkpt lat="38.6657983" lon="16.3928883"><ele>529.0</ele><time>2026-03-29T11:54:36.582Z</time></trkpt><trkpt lat="38.66588" lon="16.3929817"><ele>530.6</ele><time>2026-03-29T11:54:38.582Z</time></trkpt><trkpt lat="38.6659567" lon="16.3930167"><ele>532.2</ele><time>2026-03-29T11:54:39.582Z</time></trkpt><trkpt lat="38.6660533" lon="16.3930333"><ele>533.8000000000001</ele><time>2026-03-29T11:54:40.582Z</time></trkpt><trkpt lat="38.666165" lon="16.3930483"><ele>535.4</ele><time>2026-03-29T11:54:41.582Z</time></trkpt><trkpt lat="38.6663183" lon="16.3930517"><ele>537.0</ele><time>2026-03-29T11:54:42.583Z</time></trkpt><trkpt lat="38.666455" lon="16.3930767"><ele>538.0</ele><time>2026-03-29T11:54:43.582Z</time></trkpt><trkpt lat="38.6665717" lon="16.393115"><ele>539.0</ele><time>2026-03-29T11:54:44.582Z</time></trkpt><trkpt lat="38.6666617" lon="16.3932067"><ele>540.0</ele><time>2026-03-29T11:54:45.582Z</time></trkpt><trkpt lat="38.6667417" lon="16.3933517"><ele>541.0</ele><time>2026-03-29T11:54:46.582Z</time></trkpt><trkpt lat="38.6668183" lon="16.393525"><ele>541.0</ele><time>2026-03-29T11:54:47.582Z</time></trkpt><trkpt lat="38.6668917" lon="16.3937017"><ele>541.0</ele><time>2026-03-29T11:54:48.582Z</time></trkpt><trkpt lat="38.6669767" lon="16.39388"><ele>541.0</ele><time>2026-03-29T11:54:49.583Z</time></trkpt><trkpt lat="38.6670567" lon="16.394075"><ele>542.0</ele><time>2026-03-29T11:54:50.582Z</time></trkpt><trkpt lat="38.667155" lon="16.3942517"><ele>543.0</ele><time>2026-03-29T11:54:51.582Z</time></trkpt><trkpt lat="38.66725" lon="16.3944233"><ele>544.0</ele><time>2026-03-29T11:54:52.582Z</time></trkpt><trkpt lat="38.6673483" lon="16.3946033"><ele>544.3333333333334</ele><time>2026-03-29T11:54:53.582Z</time></trkpt><trkpt lat="38.6674467" lon="16.394775"><ele>544.6666666666666</ele><time>2026-03-29T11:54:54.582Z</time></trkpt><trkpt lat="38.6675467" lon="16.3949367"><ele>545.0</ele><time>2026-03-29T11:54:55.582Z</time></trkpt><trkpt lat="38.6676683" lon="16.39509"><ele>544.6666666666666</ele><time>2026-03-29T11:54:56.582Z</time></trkpt><trkpt lat="38.6678133" lon="16.3952117"><ele>544.3333333333334</ele><time>2026-03-29T11:54:57.582Z</time></trkpt><trkpt lat="38.6679717" lon="16.39531"><ele>544.0</ele><time>2026-03-29T11:54:58.582Z</time></trkpt><trkpt lat="38.6681067" lon="16.3954317"><ele>543.6666666666667</ele><time>2026-03-29T11:54:59.582Z</time></trkpt><trkpt lat="38.6682267" lon="16.3955833"><ele>543.3333333333334</ele><time>2026-03-29T11:55:00.582Z</time></trkpt><trkpt lat="38.6683367" lon="16.3957683"><ele>543.0</ele><time>2026-03-29T11:55:01.582Z</time></trkpt><trkpt lat="38.6684367" lon="16.3959633"><ele>543.0</ele><time>2026-03-29T11:55:02.582Z</time></trkpt><trkpt lat="38.668515" lon="16.3961667"><ele>543.0</ele><time>2026-03-29T11:55:03.582Z</time></trkpt><trkpt lat="38.668595" lon="16.3963817"><ele>543.0</ele><time>2026-03-29T11:55:04.582Z</time></trkpt><trkpt lat="38.6686583" lon="16.3966117"><ele>544.3333333333334</ele><time>2026-03-29T11:55:05.582Z</time></trkpt><trkpt lat="38.668725" lon="16.3968133"><ele>545.6666666666667</ele><time>2026-03-29T11:55:06.583Z</time></trkpt><trkpt lat="38.6687767" lon="16.3970017"><ele>547.0</ele><time>2026-03-29T11:55:07.582Z</time></trkpt><trkpt lat="38.6688233" lon="16.397175"><ele>547.0</ele><time>2026-03-29T11:55:08.582Z</time></trkpt><trkpt lat="38.6688883" lon="16.397345"><ele>547.0</ele><time>2026-03-29T11:55:09.582Z</time></trkpt><trkpt lat="38.6689767" lon="16.3975217"><ele>547.0</ele><time>2026-03-29T11:55:10.582Z</time></trkpt><trkpt lat="38.6690767" lon="16.3977083"><ele>547.0</ele><time>2026-03-29T11:55:11.582Z</time></trkpt><trkpt lat="38.6691833" lon="16.3979067"><ele>547.0</ele><time>2026-03-29T11:55:12.582Z</time></trkpt><trkpt lat="38.6693083" lon="16.3980817"><ele>547.0</ele><time>2026-03-29T11:55:13.582Z</time></trkpt><trkpt lat="38.6694467" lon="16.3982533"><ele>544.0</ele><time>2026-03-29T11:55:14.582Z</time></trkpt><trkpt lat="38.6695983" lon="16.398425"><ele>541.0</ele><time>2026-03-29T11:55:15.583Z</time></trkpt><trkpt lat="38.6697517" lon="16.3985717"><ele>538.0</ele><time>2026-03-29T11:55:16.582Z</time></trkpt><trkpt lat="38.6699033" lon="16.398735"><ele>538.3333333333334</ele><time>2026-03-29T11:55:17.582Z</time></trkpt><trkpt lat="38.6700517" lon="16.3988783"><ele>538.6666666666666</ele><time>2026-03-29T11:55:18.582Z</time></trkpt><trkpt lat="38.670215" lon="16.3990133"><ele>539.0</ele><time>2026-03-29T11:55:19.582Z</time></trkpt><trkpt lat="38.670385" lon="16.3991517"><ele>537.0</ele><time>2026-03-29T11:55:20.582Z</time></trkpt><trkpt lat="38.6705567" lon="16.399285"><ele>535.0</ele><time>2026-03-29T11:55:21.582Z</time></trkpt><trkpt lat="38.6707333" lon="16.3994167"><ele>533.0</ele><time>2026-03-29T11:55:22.582Z</time></trkpt><trkpt lat="38.6709083" lon="16.3995283"><ele>533.0</ele><time>2026-03-29T11:55:23.582Z</time></trkpt><trkpt lat="38.6710717" lon="16.39964"><ele>533.0</ele><time>2026-03-29T11:55:24.582Z</time></trkpt><trkpt lat="38.6712183" lon="16.39974"><ele>533.0</ele><time>2026-03-29T11:55:25.582Z</time></trkpt><trkpt lat="38.671345" lon="16.39986"><ele>532.3333333333333</ele><time>2026-03-29T11:55:26.582Z</time></trkpt><trkpt lat="38.67147" lon="16.3999967"><ele>531.6666666666666</ele><time>2026-03-29T11:55:27.582Z</time></trkpt><trkpt lat="38.67159" lon="16.40015"><ele>531.0</ele><time>2026-03-29T11:55:28.582Z</time></trkpt><trkpt lat="38.6717233" lon="16.4002983"><ele>531.0</ele><time>2026-03-29T11:55:29.583Z</time></trkpt><trkpt lat="38.6718583" lon="16.4004533"><ele>531.0</ele><time>2026-03-29T11:55:30.582Z</time></trkpt><trkpt lat="38.6720117" lon="16.4006017"><ele>531.0</ele><time>2026-03-29T11:55:31.582Z</time></trkpt><trkpt lat="38.67216" lon="16.4007517"><ele>531.0</ele><time>2026-03-29T11:55:32.582Z</time></trkpt><trkpt lat="38.6723" lon="16.400895"><ele>531.0</ele><time>2026-03-29T11:55:33.582Z</time></trkpt><trkpt lat="38.67244" lon="16.401025"><ele>531.0</ele><time>2026-03-29T11:55:34.582Z</time></trkpt><trkpt lat="38.6725717" lon="16.4011517"><ele>531.0</ele><time>2026-03-29T11:55:35.582Z</time></trkpt><trkpt lat="38.6727" lon="16.4012633"><ele>531.0</ele><time>2026-03-29T11:55:36.582Z</time></trkpt><trkpt lat="38.6728317" lon="16.4013817"><ele>531.0</ele><time>2026-03-29T11:55:37.582Z</time></trkpt><trkpt lat="38.6729717" lon="16.401495"><ele>529.3333333333334</ele><time>2026-03-29T11:55:38.582Z</time></trkpt><trkpt lat="38.6731067" lon="16.40161"><ele>527.6666666666667</ele><time>2026-03-29T11:55:39.582Z</time></trkpt><trkpt lat="38.6732367" lon="16.4017233"><ele>526.0</ele><time>2026-03-29T11:55:40.582Z</time></trkpt><trkpt lat="38.673345" lon="16.4018417"><ele>526.0</ele><time>2026-03-29T11:55:41.582Z</time></trkpt><trkpt lat="38.6734367" lon="16.4019467"><ele>526.0</ele><time>2026-03-29T11:55:42.582Z</time></trkpt><trkpt lat="38.673515" lon="16.4020383"><ele>526.0</ele><time>2026-03-29T11:55:43.582Z</time></trkpt><trkpt lat="38.6735717" lon="16.40213"><ele>526.0</ele><time>2026-03-29T11:55:44.582Z</time></trkpt><trkpt lat="38.673615" lon="16.4022033"><ele>526.0</ele><time>2026-03-29T11:55:45.582Z</time></trkpt><trkpt lat="38.6736683" lon="16.402315"><ele>524.8</ele><time>2026-03-29T11:55:47.582Z</time></trkpt><trkpt lat="38.67373" lon="16.402405"><ele>523.6</ele><time>2026-03-29T11:55:49.582Z</time></trkpt><trkpt lat="38.6737767" lon="16.4024667"><ele>522.4</ele><time>2026-03-29T11:55:50.582Z</time></trkpt><trkpt lat="38.6738433" lon="16.4025417"><ele>521.2</ele><time>2026-03-29T11:55:51.582Z</time></trkpt><trkpt lat="38.6739433" lon="16.4026217"><ele>520.0</ele><time>2026-03-29T11:55:52.582Z</time></trkpt><trkpt lat="38.6740633" lon="16.4027033"><ele>520.0</ele><time>2026-03-29T11:55:53.582Z</time></trkpt><trkpt lat="38.6741983" lon="16.40278"><ele>520.0</ele><time>2026-03-29T11:55:54.582Z</time></trkpt><trkpt lat="38.674345" lon="16.4028583"><ele>520.0</ele><time>2026-03-29T11:55:55.582Z</time></trkpt><trkpt lat="38.6744983" lon="16.4029367"><ele>519.5</ele><time>2026-03-29T11:55:56.582Z</time></trkpt><trkpt lat="38.6746317" lon="16.4030133"><ele>519.0</ele><time>2026-03-29T11:55:57.582Z</time></trkpt><trkpt lat="38.6747533" lon="16.403095"><ele>518.5</ele><time>2026-03-29T11:55:58.582Z</time></trkpt><trkpt lat="38.6748567" lon="16.4031783"><ele>518.0</ele><time>2026-03-29T11:55:59.582Z</time></trkpt><trkpt lat="38.6749367" lon="16.4032633"><ele>518.0</ele><time>2026-03-29T11:56:00.582Z</time></trkpt><trkpt lat="38.6750017" lon="16.4033517"><ele>518.0</ele><time>2026-03-29T11:56:01.582Z</time></trkpt><trkpt lat="38.6750367" lon="16.4034283"><ele>518.0</ele><time>2026-03-29T11:56:02.582Z</time></trkpt><trkpt lat="38.6751167" lon="16.4035433"><ele>518.0</ele><time>2026-03-29T11:56:04.582Z</time></trkpt><trkpt lat="38.6751817" lon="16.4035917"><ele>518.0</ele><time>2026-03-29T11:56:05.582Z</time></trkpt><trkpt lat="38.6752617" lon="16.40365"><ele>516.75</ele><time>2026-03-29T11:56:06.582Z</time></trkpt><trkpt lat="38.675345" lon="16.4037233"><ele>515.5</ele><time>2026-03-29T11:56:07.582Z</time></trkpt><trkpt lat="38.675445" lon="16.4038333"><ele>514.25</ele><time>2026-03-29T11:56:08.582Z</time></trkpt><trkpt lat="38.67556" lon="16.4039617"><ele>513.0</ele><time>2026-03-29T11:56:09.582Z</time></trkpt><trkpt lat="38.67567" lon="16.4041"><ele>513.0</ele><time>2026-03-29T11:56:10.582Z</time></trkpt><trkpt lat="38.67578" lon="16.4042467"><ele>513.0</ele><time>2026-03-29T11:56:11.582Z</time></trkpt><trkpt lat="38.6758933" lon="16.4044017"><ele>513.0</ele><time>2026-03-29T11:56:12.582Z</time></trkpt><trkpt lat="38.6760183" lon="16.4045567"><ele>511.33333333333337</ele><time>2026-03-29T11:56:13.582Z</time></trkpt><trkpt lat="38.67615" lon="16.4047183"><ele>509.6666666666667</ele><time>2026-03-29T11:56:14.582Z</time></trkpt><trkpt lat="38.6762717" lon="16.404895"><ele>508.0</ele><time>2026-03-29T11:56:15.583Z</time></trkpt><trkpt lat="38.6763883" lon="16.40507"><ele>508.0</ele><time>2026-03-29T11:56:16.582Z</time></trkpt><trkpt lat="38.6765033" lon="16.40525"><ele>508.0</ele><time>2026-03-29T11:56:17.582Z</time></trkpt><trkpt lat="38.676625" lon="16.4054333"><ele>508.0</ele><time>2026-03-29T11:56:18.582Z</time></trkpt><trkpt lat="38.6767567" lon="16.4056217"><ele>509.6666666666667</ele><time>2026-03-29T11:56:19.582Z</time></trkpt><trkpt lat="38.676895" lon="16.4058133"><ele>511.33333333333337</ele><time>2026-03-29T11:56:20.582Z</time></trkpt><trkpt lat="38.6770367" lon="16.4059833"><ele>513.0</ele><time>2026-03-29T11:56:21.582Z</time></trkpt><trkpt lat="38.6771833" lon="16.40612"><ele>514.0</ele><time>2026-03-29T11:56:22.582Z</time></trkpt><trkpt lat="38.6773383" lon="16.4062367"><ele>515.0</ele><time>2026-03-29T11:56:23.582Z</time></trkpt><trkpt lat="38.6774983" lon="16.4063317"><ele>516.0</ele><time>2026-03-29T11:56:24.582Z</time></trkpt><trkpt lat="38.677645" lon="16.4063983"><ele>518.2</ele><time>2026-03-29T11:56:25.582Z</time></trkpt><trkpt lat="38.67777" lon="16.4064467"><ele>520.4000000000001</ele><time>2026-03-29T11:56:26.582Z</time></trkpt><trkpt lat="38.67788" lon="16.4064883"><ele>522.6</ele><time>2026-03-29T11:56:27.582Z</time></trkpt><trkpt lat="38.6779767" lon="16.4065083"><ele>524.8000000000001</ele><time>2026-03-29T11:56:28.582Z</time></trkpt><trkpt lat="38.678065" lon="16.40654"><ele>527.0</ele><time>2026-03-29T11:56:29.582Z</time></trkpt><trkpt lat="38.6781733" lon="16.40656"><ele>527.0</ele><time>2026-03-29T11:56:30.582Z</time></trkpt><trkpt lat="38.6783017" lon="16.4065767"><ele>527.0</ele><time>2026-03-29T11:56:31.582Z</time></trkpt><trkpt lat="38.6784467" lon="16.40659"><ele>527.0</ele><time>2026-03-29T11:56:32.582Z</time></trkpt><trkpt lat="38.678605" lon="16.4065983"><ele>527.0</ele><time>2026-03-29T11:56:33.582Z</time></trkpt><trkpt lat="38.6787617" lon="16.4065833"><ele>527.3333333333333</ele><time>2026-03-29T11:56:34.582Z</time></trkpt><trkpt lat="38.6789117" lon="16.406575"><ele>527.6666666666666</ele><time>2026-03-29T11:56:35.582Z</time></trkpt><trkpt lat="38.6790767" lon="16.40659"><ele>528.0</ele><time>2026-03-29T11:56:36.582Z</time></trkpt><trkpt lat="38.6792317" lon="16.4066117"><ele>528.0</ele><time>2026-03-29T11:56:37.582Z</time></trkpt><trkpt lat="38.6793883" lon="16.4066817"><ele>528.0</ele><time>2026-03-29T11:56:38.582Z</time></trkpt><trkpt lat="38.67957" lon="16.4067333"><ele>528.0</ele><time>2026-03-29T11:56:39.582Z</time></trkpt><trkpt lat="38.6797533" lon="16.4067833"><ele>526.0</ele><time>2026-03-29T11:56:40.582Z</time></trkpt><trkpt lat="38.6799233" lon="16.4068267"><ele>524.0</ele><time>2026-03-29T11:56:41.582Z</time></trkpt><trkpt lat="38.6800733" lon="16.4068633"><ele>522.0</ele><time>2026-03-29T11:56:42.582Z</time></trkpt><trkpt lat="38.680225" lon="16.4069217"><ele>522.0</ele><time>2026-03-29T11:56:43.582Z</time></trkpt><trkpt lat="38.6803717" lon="16.407005"><ele>522.0</ele><time>2026-03-29T11:56:44.582Z</time></trkpt><trkpt lat="38.6805167" lon="16.407115"><ele>522.0</ele><time>2026-03-29T11:56:45.582Z</time></trkpt><trkpt lat="38.6806617" lon="16.4072383"><ele>522.0</ele><time>2026-03-29T11:56:46.582Z</time></trkpt><trkpt lat="38.6807967" lon="16.4073833"><ele>522.0</ele><time>2026-03-29T11:56:47.582Z</time></trkpt><trkpt lat="38.680925" lon="16.40753"><ele>522.0</ele><time>2026-03-29T11:56:48.582Z</time></trkpt><trkpt lat="38.6810433" lon="16.4076967"><ele>521.3333333333334</ele><time>2026-03-29T11:56:49.582Z</time></trkpt><trkpt lat="38.6811633" lon="16.4078567"><ele>520.6666666666667</ele><time>2026-03-29T11:56:50.582Z</time></trkpt><trkpt lat="38.6812917" lon="16.4079967"><ele>520.0</ele><time>2026-03-29T11:56:51.582Z</time></trkpt><trkpt lat="38.6814083" lon="16.4081133"><ele>521.0</ele><time>2026-03-29T11:56:52.582Z</time></trkpt><trkpt lat="38.6814917" lon="16.4081883"><ele>522.0</ele><time>2026-03-29T11:56:53.582Z</time></trkpt><trkpt lat="38.6815583" lon="16.408225"><ele>523.0</ele><time>2026-03-29T11:56:54.582Z</time></trkpt><trkpt lat="38.6816367" lon="16.4082483"><ele>524.0</ele><time>2026-03-29T11:56:56.582Z</time></trkpt><trkpt lat="38.68172" lon="16.4081917"><ele>525.0</ele><time>2026-03-29T11:56:58.582Z</time></trkpt><trkpt lat="38.6817717" lon="16.4081317"><ele>526.0</ele><time>2026-03-29T11:56:59.582Z</time></trkpt><trkpt lat="38.681855" lon="16.40803"><ele>524.5</ele><time>2026-03-29T11:57:00.582Z</time></trkpt><trkpt lat="38.6819317" lon="16.407885"><ele>523.0</ele><time>2026-03-29T11:57:01.582Z</time></trkpt><trkpt lat="38.682015" lon="16.4077233"><ele>521.5</ele><time>2026-03-29T11:57:02.582Z</time></trkpt><trkpt lat="38.6820933" lon="16.407575"><ele>520.0</ele><time>2026-03-29T11:57:03.582Z</time></trkpt><trkpt lat="38.6821583" lon="16.4074483"><ele>519.2</ele><time>2026-03-29T11:57:04.582Z</time></trkpt><trkpt lat="38.68223" lon="16.40732"><ele>518.4</ele><time>2026-03-29T11:57:05.582Z</time></trkpt><trkpt lat="38.6822983" lon="16.4072067"><ele>517.6</ele><time>2026-03-29T11:57:06.582Z</time></trkpt><trkpt lat="38.6823667" lon="16.4071067"><ele>516.8</ele><time>2026-03-29T11:57:07.582Z</time></trkpt><trkpt lat="38.682435" lon="16.407015"><ele>516.0</ele><time>2026-03-29T11:57:08.582Z</time></trkpt><trkpt lat="38.682505" lon="16.4069217"><ele>514.8333333333334</ele><time>2026-03-29T11:57:09.583Z</time></trkpt><trkpt lat="38.6825717" lon="16.4068383"><ele>513.6666666666666</ele><time>2026-03-29T11:57:10.582Z</time></trkpt><trkpt lat="38.6826333" lon="16.4067667"><ele>512.5</ele><time>2026-03-29T11:57:11.582Z</time></trkpt><trkpt lat="38.6826867" lon="16.406705"><ele>511.3333333333333</ele><time>2026-03-29T11:57:12.582Z</time></trkpt><trkpt lat="38.68276" lon="16.4066233"><ele>510.16666666666663</ele><time>2026-03-29T11:57:14.582Z</time></trkpt><trkpt lat="38.68286" lon="16.4066267"><ele>509.0</ele><time>2026-03-29T11:57:16.582Z</time></trkpt><trkpt lat="38.6829233" lon="16.4066483"><ele>507.8333333333333</ele><time>2026-03-29T11:57:17.582Z</time></trkpt><trkpt lat="38.6829983" lon="16.40668"><ele>506.66666666666663</ele><time>2026-03-29T11:57:18.582Z</time></trkpt><trkpt lat="38.6830667" lon="16.4067067"><ele>505.5</ele><time>2026-03-29T11:57:19.582Z</time></trkpt><trkpt lat="38.6831667" lon="16.4067233"><ele>504.33333333333337</ele><time>2026-03-29T11:57:21.582Z</time></trkpt><trkpt lat="38.6832417" lon="16.4066583"><ele>503.1666666666667</ele><time>2026-03-29T11:57:24.582Z</time></trkpt><trkpt lat="38.6833017" lon="16.4065667"><ele>502.0</ele><time>2026-03-29T11:57:26.582Z</time></trkpt><trkpt lat="38.6833517" lon="16.4065"><ele>502.0</ele><time>2026-03-29T11:57:27.582Z</time></trkpt><trkpt lat="38.6834133" lon="16.40644"><ele>502.00000000000006</ele><time>2026-03-29T11:57:28.582Z</time></trkpt><trkpt lat="38.6834983" lon="16.40638"><ele>502.00000000000006</ele><time>2026-03-29T11:57:29.582Z</time></trkpt><trkpt lat="38.6835967" lon="16.40634"><ele>502.0</ele><time>2026-03-29T11:57:30.582Z</time></trkpt><trkpt lat="38.6836917" lon="16.4063317"><ele>502.0</ele><time>2026-03-29T11:57:31.582Z</time></trkpt><trkpt lat="38.683785" lon="16.4063583"><ele>500.0</ele><time>2026-03-29T11:57:32.582Z</time></trkpt><trkpt lat="38.6838617" lon="16.4064183"><ele>498.0</ele><time>2026-03-29T11:57:33.582Z</time></trkpt><trkpt lat="38.683935" lon="16.4065133"><ele>496.0</ele><time>2026-03-29T11:57:34.582Z</time></trkpt><trkpt lat="38.6839917" lon="16.4066717"><ele>494.0</ele><time>2026-03-29T11:57:35.582Z</time></trkpt><trkpt lat="38.6840567" lon="16.406835"><ele>494.0</ele><time>2026-03-29T11:57:36.582Z</time></trkpt><trkpt lat="38.6841167" lon="16.4070083"><ele>494.0</ele><time>2026-03-29T11:57:37.582Z</time></trkpt><trkpt lat="38.684185" lon="16.4072"><ele>494.0</ele><time>2026-03-29T11:57:38.582Z</time></trkpt><trkpt lat="38.684265" lon="16.4074083"><ele>494.0</ele><time>2026-03-29T11:57:39.582Z</time></trkpt><trkpt lat="38.684345" lon="16.4076233"><ele>494.0</ele><time>2026-03-29T11:57:40.582Z</time></trkpt><trkpt lat="38.6844233" lon="16.40785"><ele>494.0</ele><time>2026-03-29T11:57:41.582Z</time></trkpt><trkpt lat="38.6845017" lon="16.4080917"><ele>494.0</ele><time>2026-03-29T11:57:42.582Z</time></trkpt><trkpt lat="38.68455" lon="16.408335"><ele>494.0</ele><time>2026-03-29T11:57:43.582Z</time></trkpt><trkpt lat="38.684595" lon="16.40856"><ele>494.0</ele><time>2026-03-29T11:57:44.582Z</time></trkpt><trkpt lat="38.6846267" lon="16.4087533"><ele>490.25</ele><time>2026-03-29T11:57:45.582Z</time></trkpt><trkpt lat="38.6846583" lon="16.408925"><ele>486.5</ele><time>2026-03-29T11:57:46.583Z</time></trkpt><trkpt lat="38.6847" lon="16.40906"><ele>482.75</ele><time>2026-03-29T11:57:47.582Z</time></trkpt><trkpt lat="38.6847683" lon="16.4091583"><ele>479.0</ele><time>2026-03-29T11:57:48.582Z</time></trkpt><trkpt lat="38.6848583" lon="16.40922"><ele>479.0</ele><time>2026-03-29T11:57:49.582Z</time></trkpt><trkpt lat="38.68497" lon="16.4092433"><ele>479.0</ele><time>2026-03-29T11:57:50.582Z</time></trkpt><trkpt lat="38.68509" lon="16.4092283"><ele>479.0</ele><time>2026-03-29T11:57:51.582Z</time></trkpt><trkpt lat="38.6852383" lon="16.4091867"><ele>479.0</ele><time>2026-03-29T11:57:52.582Z</time></trkpt><trkpt lat="38.6853867" lon="16.4091717"><ele>477.25</ele><time>2026-03-29T11:57:53.582Z</time></trkpt><trkpt lat="38.685525" lon="16.40918"><ele>475.5</ele><time>2026-03-29T11:57:54.582Z</time></trkpt><trkpt lat="38.6856417" lon="16.409185"><ele>473.75</ele><time>2026-03-29T11:57:55.582Z</time></trkpt><trkpt lat="38.68576" lon="16.4091483"><ele>472.0</ele><time>2026-03-29T11:57:56.582Z</time></trkpt><trkpt lat="38.68587" lon="16.4090633"><ele>472.0</ele><time>2026-03-29T11:57:57.582Z</time></trkpt><trkpt lat="38.685975" lon="16.40893"><ele>472.0</ele><time>2026-03-29T11:57:58.582Z</time></trkpt><trkpt lat="38.6860717" lon="16.4087833"><ele>472.0</ele><time>2026-03-29T11:57:59.583Z</time></trkpt><trkpt lat="38.686165" lon="16.4086233"><ele>468.6666666666667</ele><time>2026-03-29T11:58:00.582Z</time></trkpt><trkpt lat="38.686245" lon="16.4084483"><ele>465.33333333333337</ele><time>2026-03-29T11:58:01.582Z</time></trkpt><trkpt lat="38.6863017" lon="16.408265"><ele>462.0</ele><time>2026-03-29T11:58:02.582Z</time></trkpt><trkpt lat="38.686365" lon="16.40807"><ele>462.5</ele><time>2026-03-29T11:58:03.582Z</time></trkpt><trkpt lat="38.6864133" lon="16.4078917"><ele>463.0</ele><time>2026-03-29T11:58:04.582Z</time></trkpt><trkpt lat="38.6864583" lon="16.4077133"><ele>463.5</ele><time>2026-03-29T11:58:05.582Z</time></trkpt><trkpt lat="38.68648" lon="16.40754"><ele>464.0</ele><time>2026-03-29T11:58:06.582Z</time></trkpt><trkpt lat="38.6864517" lon="16.4073683"><ele>464.0</ele><time>2026-03-29T11:58:07.582Z</time></trkpt><trkpt lat="38.6864117" lon="16.407185"><ele>464.0</ele><time>2026-03-29T11:58:08.582Z</time></trkpt><trkpt lat="38.6863533" lon="16.4070117"><ele>464.0</ele><time>2026-03-29T11:58:09.582Z</time></trkpt><trkpt lat="38.686315" lon="16.406815"><ele>462.66666666666663</ele><time>2026-03-29T11:58:10.582Z</time></trkpt><trkpt lat="38.6863017" lon="16.4066183"><ele>461.33333333333337</ele><time>2026-03-29T11:58:11.582Z</time></trkpt><trkpt lat="38.6863017" lon="16.4064317"><ele>460.0</ele><time>2026-03-29T11:58:12.582Z</time></trkpt><trkpt lat="38.6863033" lon="16.4062333"><ele>458.6666666666667</ele><time>2026-03-29T11:58:13.582Z</time></trkpt><trkpt lat="38.6863067" lon="16.40603"><ele>457.33333333333337</ele><time>2026-03-29T11:58:14.582Z</time></trkpt><trkpt lat="38.686285" lon="16.4058317"><ele>456.0</ele><time>2026-03-29T11:58:15.582Z</time></trkpt><trkpt lat="38.6862717" lon="16.40565"><ele>455.75</ele><time>2026-03-29T11:58:16.582Z</time></trkpt><trkpt lat="38.6862683" lon="16.40547"><ele>455.5</ele><time>2026-03-29T11:58:17.582Z</time></trkpt><trkpt lat="38.6862917" lon="16.4052817"><ele>455.25</ele><time>2026-03-29T11:58:18.582Z</time></trkpt><trkpt lat="38.686305" lon="16.405095"><ele>455.0</ele><time>2026-03-29T11:58:19.582Z</time></trkpt><trkpt lat="38.6863117" lon="16.404905"><ele>455.0</ele><time>2026-03-29T11:58:20.582Z</time></trkpt><trkpt lat="38.6862833" lon="16.404725"><ele>455.0</ele><time>2026-03-29T11:58:21.582Z</time></trkpt><trkpt lat="38.6862467" lon="16.4045467"><ele>455.0</ele><time>2026-03-29T11:58:22.582Z</time></trkpt><trkpt lat="38.6861967" lon="16.4043783"><ele>455.0</ele><time>2026-03-29T11:58:23.582Z</time></trkpt><trkpt lat="38.686135" lon="16.404215"><ele>456.25</ele><time>2026-03-29T11:58:24.582Z</time></trkpt><trkpt lat="38.6860833" lon="16.4040667"><ele>457.5</ele><time>2026-03-29T11:58:25.582Z</time></trkpt><trkpt lat="38.686045" lon="16.403925"><ele>458.75</ele><time>2026-03-29T11:58:26.582Z</time></trkpt><trkpt lat="38.6859967" lon="16.4037783"><ele>460.0</ele><time>2026-03-29T11:58:27.582Z</time></trkpt><trkpt lat="38.685965" lon="16.4036467"><ele>460.0</ele><time>2026-03-29T11:58:28.582Z</time></trkpt><trkpt lat="38.68594" lon="16.40352"><ele>460.0</ele><time>2026-03-29T11:58:29.582Z</time></trkpt><trkpt lat="38.68593" lon="16.403415"><ele>460.0</ele><time>2026-03-29T11:58:30.582Z</time></trkpt><trkpt lat="38.68595" lon="16.4033217"><ele>460.0</ele><time>2026-03-29T11:58:31.582Z</time></trkpt><trkpt lat="38.6860333" lon="16.4032067"><ele>460.0</ele><time>2026-03-29T11:58:33.582Z</time></trkpt><trkpt lat="38.686125" lon="16.4031767"><ele>457.8</ele><time>2026-03-29T11:58:34.582Z</time></trkpt><trkpt lat="38.6862467" lon="16.40316"><ele>455.6</ele><time>2026-03-29T11:58:35.582Z</time></trkpt><trkpt lat="38.6863667" lon="16.403135"><ele>453.4</ele><time>2026-03-29T11:58:36.582Z</time></trkpt><trkpt lat="38.6864767" lon="16.4031217"><ele>451.2</ele><time>2026-03-29T11:58:37.582Z</time></trkpt><trkpt lat="38.686565" lon="16.4031067"><ele>449.0</ele><time>2026-03-29T11:58:38.582Z</time></trkpt><trkpt lat="38.6866433" lon="16.4030933"><ele>449.0</ele><time>2026-03-29T11:58:39.582Z</time></trkpt><trkpt lat="38.68676" lon="16.403065"><ele>449.0</ele><time>2026-03-29T11:58:41.582Z</time></trkpt><trkpt lat="38.686875" lon="16.40304"><ele>449.0</ele><time>2026-03-29T11:58:43.582Z</time></trkpt><trkpt lat="38.6870017" lon="16.4030317"><ele>449.0</ele><time>2026-03-29T11:58:45.582Z</time></trkpt><trkpt lat="38.687075" lon="16.4030333"><ele>449.0</ele><time>2026-03-29T11:58:46.582Z</time></trkpt><trkpt lat="38.6871617" lon="16.4030517"><ele>449.2</ele><time>2026-03-29T11:58:47.582Z</time></trkpt><trkpt lat="38.6872467" lon="16.403085"><ele>449.4</ele><time>2026-03-29T11:58:48.582Z</time></trkpt><trkpt lat="38.687335" lon="16.40313"><ele>449.6</ele><time>2026-03-29T11:58:49.582Z</time></trkpt><trkpt lat="38.6874283" lon="16.40318"><ele>449.8</ele><time>2026-03-29T11:58:50.582Z</time></trkpt><trkpt lat="38.6875333" lon="16.40322"><ele>450.0</ele><time>2026-03-29T11:58:51.582Z</time></trkpt><trkpt lat="38.6876383" lon="16.40322"><ele>450.0</ele><time>2026-03-29T11:58:52.582Z</time></trkpt><trkpt lat="38.687755" lon="16.403185"><ele>450.0</ele><time>2026-03-29T11:58:53.583Z</time></trkpt><trkpt lat="38.68787" lon="16.40312"><ele>450.0</ele><time>2026-03-29T11:58:54.582Z</time></trkpt><trkpt lat="38.68798" lon="16.40302"><ele>450.0</ele><time>2026-03-29T11:58:55.582Z</time></trkpt><trkpt lat="38.6880783" lon="16.4028933"><ele>451.0</ele><time>2026-03-29T11:58:56.582Z</time></trkpt><trkpt lat="38.6881717" lon="16.4027467"><ele>452.0</ele><time>2026-03-29T11:58:57.582Z</time></trkpt><trkpt lat="38.6882383" lon="16.4025833"><ele>453.0</ele><time>2026-03-29T11:58:58.582Z</time></trkpt><trkpt lat="38.6882983" lon="16.4023983"><ele>454.0</ele><time>2026-03-29T11:58:59.582Z</time></trkpt><trkpt lat="38.68835" lon="16.4022167"><ele>454.5</ele><time>2026-03-29T11:59:00.582Z</time></trkpt><trkpt lat="38.6884233" lon="16.4020683"><ele>455.0</ele><time>2026-03-29T11:59:01.582Z</time></trkpt><trkpt lat="38.68853" lon="16.4019483"><ele>455.5</ele><time>2026-03-29T11:59:02.582Z</time></trkpt><trkpt lat="38.6886617" lon="16.40186"><ele>456.0</ele><time>2026-03-29T11:59:03.582Z</time></trkpt><trkpt lat="38.68883" lon="16.40181"><ele>456.33333333333337</ele><time>2026-03-29T11:59:04.582Z</time></trkpt><trkpt lat="38.6889933" lon="16.4017933"><ele>456.6666666666667</ele><time>2026-03-29T11:59:05.583Z</time></trkpt><trkpt lat="38.6891733" lon="16.401795"><ele>457.0</ele><time>2026-03-29T11:59:06.582Z</time></trkpt><trkpt lat="38.689365" lon="16.4018217"><ele>460.0</ele><time>2026-03-29T11:59:07.582Z</time></trkpt><trkpt lat="38.68956" lon="16.4018683"><ele>463.0</ele><time>2026-03-29T11:59:08.582Z</time></trkpt><trkpt lat="38.6897517" lon="16.4019267"><ele>466.0</ele><time>2026-03-29T11:59:09.582Z</time></trkpt><trkpt lat="38.68993" lon="16.4020033"><ele>466.0</ele><time>2026-03-29T11:59:10.582Z</time></trkpt><trkpt lat="38.6900767" lon="16.402095"><ele>466.0</ele><time>2026-03-29T11:59:11.582Z</time></trkpt><trkpt lat="38.6902283" lon="16.4021817"><ele>466.0</ele><time>2026-03-29T11:59:12.582Z</time></trkpt><trkpt lat="38.6903667" lon="16.4022467"><ele>466.20000000000005</ele><time>2026-03-29T11:59:13.582Z</time></trkpt><trkpt lat="38.690505" lon="16.4022833"><ele>466.40000000000003</ele><time>2026-03-29T11:59:14.582Z</time></trkpt><trkpt lat="38.6906233" lon="16.4022983"><ele>466.6</ele><time>2026-03-29T11:59:15.582Z</time></trkpt><trkpt lat="38.690725" lon="16.4022867"><ele>466.8</ele><time>2026-03-29T11:59:16.582Z</time></trkpt><trkpt lat="38.6908117" lon="16.402275"><ele>467.0</ele><time>2026-03-29T11:59:17.582Z</time></trkpt><trkpt lat="38.6908883" lon="16.4022517"><ele>466.99999999999994</ele><time>2026-03-29T11:59:18.582Z</time></trkpt><trkpt lat="38.690965" lon="16.40223"><ele>467.0</ele><time>2026-03-29T11:59:19.582Z</time></trkpt><trkpt lat="38.6910433" lon="16.4022"><ele>467.0</ele><time>2026-03-29T11:59:20.582Z</time></trkpt><trkpt lat="38.6911283" lon="16.4021667"><ele>467.0</ele><time>2026-03-29T11:59:21.582Z</time></trkpt><trkpt lat="38.691215" lon="16.4021317"><ele>466.99999999999994</ele><time>2026-03-29T11:59:22.582Z</time></trkpt><trkpt lat="38.6913" lon="16.4020933"><ele>467.0</ele><time>2026-03-29T11:59:23.582Z</time></trkpt><trkpt lat="38.691385" lon="16.4020683"><ele>467.49999999999994</ele><time>2026-03-29T11:59:24.582Z</time></trkpt><trkpt lat="38.6914683" lon="16.4020283"><ele>468.0</ele><time>2026-03-29T11:59:25.582Z</time></trkpt><trkpt lat="38.691545" lon="16.4019883"><ele>468.5</ele><time>2026-03-29T11:59:26.582Z</time></trkpt><trkpt lat="38.6916133" lon="16.401945"><ele>469.0</ele><time>2026-03-29T11:59:27.582Z</time></trkpt><trkpt lat="38.6916867" lon="16.4019117"><ele>469.49999999999994</ele><time>2026-03-29T11:59:28.582Z</time></trkpt><trkpt lat="38.6917717" lon="16.4018967"><ele>470.0</ele><time>2026-03-29T11:59:29.582Z</time></trkpt><trkpt lat="38.6918567" lon="16.4018883"><ele>469.8</ele><time>2026-03-29T11:59:30.582Z</time></trkpt><trkpt lat="38.6919417" lon="16.4018933"><ele>469.6</ele><time>2026-03-29T11:59:31.582Z</time></trkpt><trkpt lat="38.6920367" lon="16.401905"><ele>469.4</ele><time>2026-03-29T11:59:32.582Z</time></trkpt><trkpt lat="38.69214" lon="16.40194"><ele>469.2</ele><time>2026-03-29T11:59:33.582Z</time></trkpt><trkpt lat="38.6922567" lon="16.4019783"><ele>469.0</ele><time>2026-03-29T11:59:34.582Z</time></trkpt><trkpt lat="38.6923867" lon="16.402005"><ele>469.0</ele><time>2026-03-29T11:59:35.582Z</time></trkpt><trkpt lat="38.69251" lon="16.40204"><ele>469.0</ele><time>2026-03-29T11:59:36.582Z</time></trkpt><trkpt lat="38.6926383" lon="16.4020767"><ele>469.0</ele><time>2026-03-29T11:59:37.582Z</time></trkpt><trkpt lat="38.6927667" lon="16.40211"><ele>469.0</ele><time>2026-03-29T11:59:38.583Z</time></trkpt><trkpt lat="38.6928983" lon="16.40214"><ele>469.75</ele><time>2026-03-29T11:59:39.582Z</time></trkpt><trkpt lat="38.6930283" lon="16.4021733"><ele>470.5</ele><time>2026-03-29T11:59:40.582Z</time></trkpt><trkpt lat="38.6931467" lon="16.4022017"><ele>471.25</ele><time>2026-03-29T11:59:41.582Z</time></trkpt><trkpt lat="38.693255" lon="16.4022267"><ele>472.0</ele><time>2026-03-29T11:59:42.582Z</time></trkpt><trkpt lat="38.69335" lon="16.40227"><ele>472.0</ele><time>2026-03-29T11:59:43.582Z</time></trkpt><trkpt lat="38.6934433" lon="16.4023433"><ele>472.0</ele><time>2026-03-29T11:59:44.582Z</time></trkpt><trkpt lat="38.6935367" lon="16.4024483"><ele>472.0</ele><time>2026-03-29T11:59:45.582Z</time></trkpt><trkpt lat="38.693615" lon="16.4025767"><ele>472.0</ele><time>2026-03-29T11:59:46.582Z</time></trkpt><trkpt lat="38.6936833" lon="16.4027433"><ele>472.0</ele><time>2026-03-29T11:59:47.582Z</time></trkpt><trkpt lat="38.6937517" lon="16.4028883"><ele>472.0</ele><time>2026-03-29T11:59:48.583Z</time></trkpt><trkpt lat="38.6938283" lon="16.4030233"><ele>472.0</ele><time>2026-03-29T11:59:49.582Z</time></trkpt><trkpt lat="38.6939167" lon="16.4031617"><ele>472.0</ele><time>2026-03-29T11:59:50.582Z</time></trkpt><trkpt lat="38.6940183" lon="16.403285"><ele>472.33333333333337</ele><time>2026-03-29T11:59:51.582Z</time></trkpt><trkpt lat="38.69413" lon="16.403405"><ele>472.66666666666663</ele><time>2026-03-29T11:59:52.582Z</time></trkpt><trkpt lat="38.6942517" lon="16.4035183"><ele>473.0</ele><time>2026-03-29T11:59:53.582Z</time></trkpt><trkpt lat="38.6943833" lon="16.4036233"><ele>473.0</ele><time>2026-03-29T11:59:54.582Z</time></trkpt><trkpt lat="38.69452" lon="16.40373"><ele>473.0</ele><time>2026-03-29T11:59:55.582Z</time></trkpt><trkpt lat="38.6946683" lon="16.403835"><ele>473.0</ele><time>2026-03-29T11:59:56.582Z</time></trkpt><trkpt lat="38.6948183" lon="16.4039517"><ele>472.66666666666663</ele><time>2026-03-29T11:59:57.582Z</time></trkpt><trkpt lat="38.6949717" lon="16.4040533"><ele>472.33333333333337</ele><time>2026-03-29T11:59:58.582Z</time></trkpt><trkpt lat="38.695115" lon="16.404165"><ele>472.0</ele><time>2026-03-29T11:59:59.582Z</time></trkpt><trkpt lat="38.6952433" lon="16.404285"><ele>471.33333333333337</ele><time>2026-03-29T12:00:00.582Z</time></trkpt><trkpt lat="38.6953733" lon="16.4043967"><ele>470.66666666666663</ele><time>2026-03-29T12:00:01.582Z</time></trkpt><trkpt lat="38.6955083" lon="16.4045017"><ele>470.0</ele><time>2026-03-29T12:00:02.582Z</time></trkpt><trkpt lat="38.695645" lon="16.404615"><ele>470.66666666666663</ele><time>2026-03-29T12:00:03.582Z</time></trkpt><trkpt lat="38.6957833" lon="16.4047333"><ele>471.33333333333337</ele><time>2026-03-29T12:00:04.582Z</time></trkpt><trkpt lat="38.6959317" lon="16.404845"><ele>472.0</ele><time>2026-03-29T12:00:05.582Z</time></trkpt><trkpt lat="38.69608" lon="16.4049617"><ele>471.33333333333337</ele><time>2026-03-29T12:00:06.582Z</time></trkpt><trkpt lat="38.6962233" lon="16.40508"><ele>470.66666666666663</ele><time>2026-03-29T12:00:07.582Z</time></trkpt><trkpt lat="38.69637" lon="16.4051983"><ele>470.0</ele><time>2026-03-29T12:00:08.582Z</time></trkpt><trkpt lat="38.69651" lon="16.4053117"><ele>470.0</ele><time>2026-03-29T12:00:09.582Z</time></trkpt><trkpt lat="38.696645" lon="16.4054183"><ele>470.0</ele><time>2026-03-29T12:00:10.582Z</time></trkpt><trkpt lat="38.6967717" lon="16.4055233"><ele>470.0</ele><time>2026-03-29T12:00:11.582Z</time></trkpt><trkpt lat="38.6968867" lon="16.40562"><ele>470.0</ele><time>2026-03-29T12:00:12.582Z</time></trkpt><trkpt lat="38.6969983" lon="16.4057183"><ele>468.5</ele><time>2026-03-29T12:00:13.582Z</time></trkpt><trkpt lat="38.697105" lon="16.40583"><ele>467.0</ele><time>2026-03-29T12:00:14.583Z</time></trkpt><trkpt lat="38.6971917" lon="16.4059583"><ele>465.5</ele><time>2026-03-29T12:00:15.582Z</time></trkpt><trkpt lat="38.6972683" lon="16.4061033"><ele>464.0</ele><time>2026-03-29T12:00:16.582Z</time></trkpt><trkpt lat="38.6973283" lon="16.4062733"><ele>463.66666666666663</ele><time>2026-03-29T12:00:17.582Z</time></trkpt><trkpt lat="38.697375" lon="16.4064567"><ele>463.33333333333337</ele><time>2026-03-29T12:00:18.582Z</time></trkpt><trkpt lat="38.6974183" lon="16.4066583"><ele>463.0</ele><time>2026-03-29T12:00:19.582Z</time></trkpt><trkpt lat="38.697465" lon="16.40686"><ele>463.0</ele><time>2026-03-29T12:00:20.582Z</time></trkpt><trkpt lat="38.6975017" lon="16.407075"><ele>463.0</ele><time>2026-03-29T12:00:21.582Z</time></trkpt><trkpt lat="38.6975483" lon="16.4072867"><ele>463.0</ele><time>2026-03-29T12:00:22.582Z</time></trkpt><trkpt lat="38.69759" lon="16.407505"><ele>462.33333333333337</ele><time>2026-03-29T12:00:23.583Z</time></trkpt><trkpt lat="38.6976317" lon="16.4077167"><ele>461.66666666666663</ele><time>2026-03-29T12:00:24.582Z</time></trkpt><trkpt lat="38.6976633" lon="16.4079317"><ele>461.0</ele><time>2026-03-29T12:00:25.582Z</time></trkpt><trkpt lat="38.6977017" lon="16.4081167"><ele>461.0</ele><time>2026-03-29T12:00:26.583Z</time></trkpt><trkpt lat="38.6977267" lon="16.4082783"><ele>461.0</ele><time>2026-03-29T12:00:27.582Z</time></trkpt><trkpt lat="38.6977483" lon="16.408405"><ele>461.0</ele><time>2026-03-29T12:00:28.582Z</time></trkpt><trkpt lat="38.6977767" lon="16.4084933"><ele>461.0</ele><time>2026-03-29T12:00:29.582Z</time></trkpt><trkpt lat="38.6978183" lon="16.4085567"><ele>461.0</ele><time>2026-03-29T12:00:30.582Z</time></trkpt><trkpt lat="38.697915" lon="16.40854"><ele>457.5</ele><time>2026-03-29T12:00:32.582Z</time></trkpt><trkpt lat="38.697965" lon="16.40843"><ele>454.0</ele><time>2026-03-29T12:00:33.582Z</time></trkpt><trkpt lat="38.6980067" lon="16.408275"><ele>450.5</ele><time>2026-03-29T12:00:34.582Z</time></trkpt><trkpt lat="38.6980367" lon="16.4080983"><ele>447.0</ele><time>2026-03-29T12:00:35.582Z</time></trkpt><trkpt lat="38.698065" lon="16.4079217"><ele>447.0</ele><time>2026-03-29T12:00:36.582Z</time></trkpt><trkpt lat="38.698115" lon="16.4077717"><ele>447.00000000000006</ele><time>2026-03-29T12:00:37.582Z</time></trkpt><trkpt lat="38.698155" lon="16.4076567"><ele>447.00000000000006</ele><time>2026-03-29T12:00:38.582Z</time></trkpt><trkpt lat="38.6982033" lon="16.4075783"><ele>447.0</ele><time>2026-03-29T12:00:39.582Z</time></trkpt><trkpt lat="38.69826" lon="16.4075383"><ele>447.0</ele><time>2026-03-29T12:00:40.582Z</time></trkpt><trkpt lat="38.69836" lon="16.40756"><ele>447.0</ele><time>2026-03-29T12:00:42.582Z</time></trkpt><trkpt lat="38.6984" lon="16.4076983"><ele>447.00000000000006</ele><time>2026-03-29T12:00:44.582Z</time></trkpt><trkpt lat="38.698385" lon="16.4078067"><ele>447.00000000000006</ele><time>2026-03-29T12:00:45.582Z</time></trkpt><trkpt lat="38.6983467" lon="16.4079517"><ele>447.0</ele><time>2026-03-29T12:00:46.582Z</time></trkpt><trkpt lat="38.698315" lon="16.408105"><ele>447.0</ele><time>2026-03-29T12:00:47.582Z</time></trkpt><trkpt lat="38.698285" lon="16.40827"><ele>446.3333333333333</ele><time>2026-03-29T12:00:48.582Z</time></trkpt><trkpt lat="38.6982633" lon="16.4084117"><ele>445.66666666666663</ele><time>2026-03-29T12:00:49.582Z</time></trkpt><trkpt lat="38.6982483" lon="16.40853"><ele>445.0</ele><time>2026-03-29T12:00:50.582Z</time></trkpt><trkpt lat="38.69825" lon="16.4086283"><ele>444.3333333333333</ele><time>2026-03-29T12:00:51.582Z</time></trkpt><trkpt lat="38.6983133" lon="16.408715"><ele>443.66666666666663</ele><time>2026-03-29T12:00:53.582Z</time></trkpt><trkpt lat="38.6983767" lon="16.4086883"><ele>443.0</ele><time>2026-03-29T12:00:54.582Z</time></trkpt><trkpt lat="38.69847" lon="16.4086033"><ele>443.0</ele><time>2026-03-29T12:00:55.582Z</time></trkpt><trkpt lat="38.6985733" lon="16.4084583"><ele>443.0</ele><time>2026-03-29T12:00:56.582Z</time></trkpt><trkpt lat="38.6986667" lon="16.40828"><ele>443.0</ele><time>2026-03-29T12:00:57.582Z</time></trkpt><trkpt lat="38.69872" lon="16.4081"><ele>439.5</ele><time>2026-03-29T12:00:58.582Z</time></trkpt><trkpt lat="38.6987733" lon="16.4079567"><ele>436.0</ele><time>2026-03-29T12:00:59.582Z</time></trkpt><trkpt lat="38.698845" lon="16.4078333"><ele>432.5</ele><time>2026-03-29T12:01:00.582Z</time></trkpt><trkpt lat="38.6989467" lon="16.4077233"><ele>429.0</ele><time>2026-03-29T12:01:01.582Z</time></trkpt><trkpt lat="38.699045" lon="16.4075933"><ele>429.0</ele><time>2026-03-29T12:01:02.582Z</time></trkpt><trkpt lat="38.6991267" lon="16.4074667"><ele>429.0</ele><time>2026-03-29T12:01:03.582Z</time></trkpt><trkpt lat="38.6992183" lon="16.4073417"><ele>429.0</ele><time>2026-03-29T12:01:04.582Z</time></trkpt><trkpt lat="38.6993433" lon="16.407235"><ele>429.0</ele><time>2026-03-29T12:01:05.582Z</time></trkpt><trkpt lat="38.6994933" lon="16.40712"><ele>426.33333333333337</ele><time>2026-03-29T12:01:06.582Z</time></trkpt><trkpt lat="38.6996233" lon="16.407"><ele>423.6666666666667</ele><time>2026-03-29T12:01:07.582Z</time></trkpt><trkpt lat="38.6997367" lon="16.406865"><ele>421.0</ele><time>2026-03-29T12:01:08.583Z</time></trkpt><trkpt lat="38.6998317" lon="16.40674"><ele>421.0</ele><time>2026-03-29T12:01:09.583Z</time></trkpt><trkpt lat="38.6999" lon="16.406635"><ele>421.0</ele><time>2026-03-29T12:01:10.582Z</time></trkpt><trkpt lat="38.69996" lon="16.406565"><ele>421.0</ele><time>2026-03-29T12:01:11.582Z</time></trkpt><trkpt lat="38.7000567" lon="16.406535"><ele>421.0</ele><time>2026-03-29T12:01:13.582Z</time></trkpt><trkpt lat="38.7001" lon="16.40663"><ele>421.0</ele><time>2026-03-29T12:01:15.583Z</time></trkpt><trkpt lat="38.7000667" lon="16.4067383"><ele>421.0</ele><time>2026-03-29T12:01:16.582Z</time></trkpt><trkpt lat="38.6999917" lon="16.4068567"><ele>421.0</ele><time>2026-03-29T12:01:17.582Z</time></trkpt><trkpt lat="38.6999183" lon="16.40698"><ele>421.0</ele><time>2026-03-29T12:01:18.582Z</time></trkpt><trkpt lat="38.6998267" lon="16.40712"><ele>421.0</ele><time>2026-03-29T12:01:19.582Z</time></trkpt><trkpt lat="38.6997483" lon="16.4072583"><ele>417.5</ele><time>2026-03-29T12:01:20.582Z</time></trkpt><trkpt lat="38.69967" lon="16.4073833"><ele>414.0</ele><time>2026-03-29T12:01:21.582Z</time></trkpt><trkpt lat="38.6996067" lon="16.407515"><ele>410.5</ele><time>2026-03-29T12:01:22.582Z</time></trkpt><trkpt lat="38.6995517" lon="16.4076683"><ele>407.0</ele><time>2026-03-29T12:01:23.582Z</time></trkpt><trkpt lat="38.699505" lon="16.4078267"><ele>404.75</ele><time>2026-03-29T12:01:24.582Z</time></trkpt><trkpt lat="38.6994633" lon="16.4080167"><ele>402.5</ele><time>2026-03-29T12:01:25.582Z</time></trkpt><trkpt lat="38.6994467" lon="16.4081883"><ele>400.25</ele><time>2026-03-29T12:01:26.582Z</time></trkpt><trkpt lat="38.6994367" lon="16.4083583"><ele>398.0</ele><time>2026-03-29T12:01:27.582Z</time></trkpt><trkpt lat="38.6994583" lon="16.4085317"><ele>398.0</ele><time>2026-03-29T12:01:28.582Z</time></trkpt><trkpt lat="38.699515" lon="16.4087133"><ele>398.0</ele><time>2026-03-29T12:01:29.582Z</time></trkpt><trkpt lat="38.6995867" lon="16.408885"><ele>398.0</ele><time>2026-03-29T12:01:30.582Z</time></trkpt><trkpt lat="38.699665" lon="16.4090283"><ele>398.0</ele><time>2026-03-29T12:01:31.582Z</time></trkpt><trkpt lat="38.6997533" lon="16.4091467"><ele>399.0</ele><time>2026-03-29T12:01:32.582Z</time></trkpt><trkpt lat="38.6998517" lon="16.4092417"><ele>400.0</ele><time>2026-03-29T12:01:33.582Z</time></trkpt><trkpt lat="38.6999133" lon="16.4093467"><ele>401.0</ele><time>2026-03-29T12:01:34.582Z</time></trkpt><trkpt lat="38.6999633" lon="16.409475"><ele>402.0</ele><time>2026-03-29T12:01:35.582Z</time></trkpt><trkpt lat="38.6999883" lon="16.4096233"><ele>404.75</ele><time>2026-03-29T12:01:36.582Z</time></trkpt><trkpt lat="38.6999983" lon="16.409785"><ele>407.5</ele><time>2026-03-29T12:01:37.582Z</time></trkpt><trkpt lat="38.7000017" lon="16.4099583"><ele>410.25</ele><time>2026-03-29T12:01:38.582Z</time></trkpt><trkpt lat="38.700015" lon="16.4101267"><ele>413.0</ele><time>2026-03-29T12:01:39.582Z</time></trkpt><trkpt lat="38.70005" lon="16.4103067"><ele>413.0</ele><time>2026-03-29T12:01:40.582Z</time></trkpt><trkpt lat="38.700125" lon="16.410465"><ele>413.0</ele><time>2026-03-29T12:01:41.582Z</time></trkpt><trkpt lat="38.70023" lon="16.4106283"><ele>413.0</ele><time>2026-03-29T12:01:42.582Z</time></trkpt><trkpt lat="38.7003517" lon="16.4107917"><ele>407.25</ele><time>2026-03-29T12:01:43.582Z</time></trkpt><trkpt lat="38.7004717" lon="16.4109383"><ele>401.5</ele><time>2026-03-29T12:01:44.582Z</time></trkpt><trkpt lat="38.700575" lon="16.4110683"><ele>395.75</ele><time>2026-03-29T12:01:45.582Z</time></trkpt><trkpt lat="38.7006883" lon="16.4111583"><ele>390.0</ele><time>2026-03-29T12:01:46.582Z</time></trkpt><trkpt lat="38.7008133" lon="16.4112017"><ele>390.0</ele><time>2026-03-29T12:01:47.582Z</time></trkpt><trkpt lat="38.7009367" lon="16.411205"><ele>390.0</ele><time>2026-03-29T12:01:48.582Z</time></trkpt><trkpt lat="38.7010683" lon="16.411155"><ele>390.0</ele><time>2026-03-29T12:01:49.582Z</time></trkpt><trkpt lat="38.7012033" lon="16.41108"><ele>390.0</ele><time>2026-03-29T12:01:50.582Z</time></trkpt><trkpt lat="38.7013433" lon="16.4109917"><ele>389.0</ele><time>2026-03-29T12:01:51.582Z</time></trkpt><trkpt lat="38.70149" lon="16.4109017"><ele>388.0</ele><time>2026-03-29T12:01:52.582Z</time></trkpt><trkpt lat="38.70164" lon="16.4108067"><ele>387.0</ele><time>2026-03-29T12:01:53.582Z</time></trkpt><trkpt lat="38.7017967" lon="16.4107067"><ele>386.33333333333337</ele><time>2026-03-29T12:01:54.582Z</time></trkpt><trkpt lat="38.701965" lon="16.4106067"><ele>385.6666666666667</ele><time>2026-03-29T12:01:55.582Z</time></trkpt><trkpt lat="38.702125" lon="16.410515"><ele>385.0</ele><time>2026-03-29T12:01:56.582Z</time></trkpt><trkpt lat="38.7022767" lon="16.4104133"><ele>385.6666666666667</ele><time>2026-03-29T12:01:57.582Z</time></trkpt><trkpt lat="38.70244" lon="16.41031"><ele>386.33333333333337</ele><time>2026-03-29T12:01:58.582Z</time></trkpt><trkpt lat="38.7026033" lon="16.4102083"><ele>387.0</ele><time>2026-03-29T12:01:59.582Z</time></trkpt><trkpt lat="38.702775" lon="16.41011"><ele>387.0</ele><time>2026-03-29T12:02:00.582Z</time></trkpt><trkpt lat="38.7029517" lon="16.4100033"><ele>387.0</ele><time>2026-03-29T12:02:01.582Z</time></trkpt><trkpt lat="38.7031317" lon="16.40989"><ele>387.0</ele><time>2026-03-29T12:02:02.582Z</time></trkpt><trkpt lat="38.703325" lon="16.4097583"><ele>387.0</ele><time>2026-03-29T12:02:03.582Z</time></trkpt><trkpt lat="38.7034967" lon="16.4096683"><ele>387.0</ele><time>2026-03-29T12:02:04.582Z</time></trkpt><trkpt lat="38.7036633" lon="16.4095733"><ele>387.0</ele><time>2026-03-29T12:02:05.582Z</time></trkpt><trkpt lat="38.703825" lon="16.40948"><ele>386.66666666666663</ele><time>2026-03-29T12:02:06.582Z</time></trkpt><trkpt lat="38.7039917" lon="16.409385"><ele>386.3333333333333</ele><time>2026-03-29T12:02:07.582Z</time></trkpt><trkpt lat="38.7041517" lon="16.40929"><ele>386.0</ele><time>2026-03-29T12:02:08.582Z</time></trkpt><trkpt lat="38.7043083" lon="16.4091883"><ele>386.3333333333333</ele><time>2026-03-29T12:02:09.582Z</time></trkpt><trkpt lat="38.70446" lon="16.409105"><ele>386.66666666666663</ele><time>2026-03-29T12:02:10.582Z</time></trkpt><trkpt lat="38.7046133" lon="16.4090233"><ele>387.0</ele><time>2026-03-29T12:02:11.582Z</time></trkpt><trkpt lat="38.7047617" lon="16.4089317"><ele>387.0</ele><time>2026-03-29T12:02:12.582Z</time></trkpt><trkpt lat="38.704925" lon="16.408845"><ele>387.0</ele><time>2026-03-29T12:02:13.583Z</time></trkpt><trkpt lat="38.7050833" lon="16.4087517"><ele>387.0</ele><time>2026-03-29T12:02:14.582Z</time></trkpt><trkpt lat="38.7052383" lon="16.40867"><ele>387.66666666666663</ele><time>2026-03-29T12:02:15.582Z</time></trkpt><trkpt lat="38.70539" lon="16.40857"><ele>388.3333333333333</ele><time>2026-03-29T12:02:16.582Z</time></trkpt><trkpt lat="38.7055367" lon="16.4084817"><ele>389.0</ele><time>2026-03-29T12:02:17.582Z</time></trkpt><trkpt lat="38.7056883" lon="16.4084"><ele>389.0</ele><time>2026-03-29T12:02:18.582Z</time></trkpt><trkpt lat="38.705835" lon="16.4083233"><ele>389.0</ele><time>2026-03-29T12:02:19.582Z</time></trkpt><trkpt lat="38.7059733" lon="16.4082333"><ele>389.0</ele><time>2026-03-29T12:02:20.582Z</time></trkpt><trkpt lat="38.7061117" lon="16.4081467"><ele>389.5</ele><time>2026-03-29T12:02:21.582Z</time></trkpt><trkpt lat="38.7062417" lon="16.4080667"><ele>390.0</ele><time>2026-03-29T12:02:22.582Z</time></trkpt><trkpt lat="38.70637" lon="16.4080067"><ele>390.5</ele><time>2026-03-29T12:02:23.583Z</time></trkpt><trkpt lat="38.7064933" lon="16.407925"><ele>391.0</ele><time>2026-03-29T12:02:24.582Z</time></trkpt><trkpt lat="38.70661" lon="16.407845"><ele>391.0</ele><time>2026-03-29T12:02:25.582Z</time></trkpt><trkpt lat="38.70673" lon="16.407775"><ele>391.0</ele><time>2026-03-29T12:02:26.582Z</time></trkpt><trkpt lat="38.7068533" lon="16.4077033"><ele>391.0</ele><time>2026-03-29T12:02:27.582Z</time></trkpt><trkpt lat="38.7069783" lon="16.4076317"><ele>391.0</ele><time>2026-03-29T12:02:28.582Z</time></trkpt><trkpt lat="38.7071083" lon="16.4075533"><ele>391.5</ele><time>2026-03-29T12:02:29.582Z</time></trkpt><trkpt lat="38.7072317" lon="16.4074817"><ele>392.0</ele><time>2026-03-29T12:02:30.582Z</time></trkpt><trkpt lat="38.7073583" lon="16.4074067"><ele>392.5</ele><time>2026-03-29T12:02:31.582Z</time></trkpt><trkpt lat="38.7074867" lon="16.4073267"><ele>393.0</ele><time>2026-03-29T12:02:32.582Z</time></trkpt><trkpt lat="38.7076233" lon="16.407245"><ele>393.25</ele><time>2026-03-29T12:02:33.582Z</time></trkpt><trkpt lat="38.7077517" lon="16.4071733"><ele>393.5</ele><time>2026-03-29T12:02:34.582Z</time></trkpt><trkpt lat="38.7078983" lon="16.4071033"><ele>393.75</ele><time>2026-03-29T12:02:35.582Z</time></trkpt><trkpt lat="38.7080317" lon="16.4070283"><ele>394.0</ele><time>2026-03-29T12:02:36.582Z</time></trkpt><trkpt lat="38.708175" lon="16.4069383"><ele>395.0</ele><time>2026-03-29T12:02:37.582Z</time></trkpt><trkpt lat="38.7083117" lon="16.40685"><ele>396.0</ele><time>2026-03-29T12:02:38.582Z</time></trkpt><trkpt lat="38.7084517" lon="16.40677"><ele>397.0</ele><time>2026-03-29T12:02:39.582Z</time></trkpt><trkpt lat="38.708595" lon="16.4066883"><ele>398.0</ele><time>2026-03-29T12:02:40.582Z</time></trkpt><trkpt lat="38.70873" lon="16.40661"><ele>399.0</ele><time>2026-03-29T12:02:41.582Z</time></trkpt><trkpt lat="38.70886" lon="16.4065267"><ele>400.0</ele><time>2026-03-29T12:02:42.583Z</time></trkpt><trkpt lat="38.7090017" lon="16.4064467"><ele>401.0</ele><time>2026-03-29T12:02:43.583Z</time></trkpt><trkpt lat="38.70912" lon="16.4063667"><ele>401.25</ele><time>2026-03-29T12:02:44.583Z</time></trkpt><trkpt lat="38.7092367" lon="16.406295"><ele>401.5</ele><time>2026-03-29T12:02:45.583Z</time></trkpt><trkpt lat="38.70934" lon="16.4062267"><ele>401.75</ele><time>2026-03-29T12:02:46.583Z</time></trkpt><trkpt lat="38.7094383" lon="16.4061683"><ele>402.0</ele><time>2026-03-29T12:02:47.583Z</time></trkpt><trkpt lat="38.7095433" lon="16.4061267"><ele>402.40000000000003</ele><time>2026-03-29T12:02:48.583Z</time></trkpt><trkpt lat="38.7096367" lon="16.406105"><ele>402.8</ele><time>2026-03-29T12:02:49.583Z</time></trkpt><trkpt lat="38.70973" lon="16.4061217"><ele>403.2</ele><time>2026-03-29T12:02:50.583Z</time></trkpt><trkpt lat="38.7098283" lon="16.4061517"><ele>403.6</ele><time>2026-03-29T12:02:51.583Z</time></trkpt><trkpt lat="38.7099317" lon="16.4061833"><ele>404.0</ele><time>2026-03-29T12:02:52.583Z</time></trkpt><trkpt lat="38.71002" lon="16.4062683"><ele>404.0</ele><time>2026-03-29T12:02:53.583Z</time></trkpt><trkpt lat="38.7101" lon="16.4063817"><ele>404.0</ele><time>2026-03-29T12:02:54.583Z</time></trkpt><trkpt lat="38.7101567" lon="16.4065167"><ele>404.0</ele><time>2026-03-29T12:02:55.583Z</time></trkpt><trkpt lat="38.7101917" lon="16.4066517"><ele>404.0</ele><time>2026-03-29T12:02:56.583Z</time></trkpt><trkpt lat="38.71022" lon="16.4067883"><ele>404.3333333333333</ele><time>2026-03-29T12:02:57.583Z</time></trkpt><trkpt lat="38.7102567" lon="16.4069"><ele>404.66666666666663</ele><time>2026-03-29T12:02:58.583Z</time></trkpt><trkpt lat="38.71031" lon="16.4069733"><ele>405.0</ele><time>2026-03-29T12:02:59.583Z</time></trkpt><trkpt lat="38.710385" lon="16.4070267"><ele>405.33333333333337</ele><time>2026-03-29T12:03:00.583Z</time></trkpt><trkpt lat="38.7104733" lon="16.40706"><ele>405.6666666666667</ele><time>2026-03-29T12:03:01.583Z</time></trkpt><trkpt lat="38.71056" lon="16.4070617"><ele>406.0</ele><time>2026-03-29T12:03:02.583Z</time></trkpt><trkpt lat="38.7106517" lon="16.4070317"><ele>406.0</ele><time>2026-03-29T12:03:03.583Z</time></trkpt><trkpt lat="38.7107383" lon="16.4070033"><ele>406.0</ele><time>2026-03-29T12:03:04.583Z</time></trkpt><trkpt lat="38.7108117" lon="16.4069733"><ele>406.0</ele><time>2026-03-29T12:03:05.583Z</time></trkpt><trkpt lat="38.7109183" lon="16.4069267"><ele>406.0</ele><time>2026-03-29T12:03:07.583Z</time></trkpt><trkpt lat="38.7110233" lon="16.4069117"><ele>406.0</ele><time>2026-03-29T12:03:09.583Z</time></trkpt><trkpt lat="38.7111433" lon="16.4069583"><ele>407.20000000000005</ele><time>2026-03-29T12:03:11.583Z</time></trkpt><trkpt lat="38.7112033" lon="16.4070083"><ele>408.40000000000003</ele><time>2026-03-29T12:03:12.583Z</time></trkpt><trkpt lat="38.7112783" lon="16.407075"><ele>409.6</ele><time>2026-03-29T12:03:13.583Z</time></trkpt><trkpt lat="38.7113683" lon="16.4071383"><ele>410.8</ele><time>2026-03-29T12:03:14.584Z</time></trkpt><trkpt lat="38.7114633" lon="16.40721"><ele>412.0</ele><time>2026-03-29T12:03:15.583Z</time></trkpt><trkpt lat="38.71153" lon="16.4073083"><ele>412.75</ele><time>2026-03-29T12:03:16.583Z</time></trkpt><trkpt lat="38.7115683" lon="16.4074283"><ele>413.5</ele><time>2026-03-29T12:03:17.583Z</time></trkpt><trkpt lat="38.7115967" lon="16.407555"><ele>414.25</ele><time>2026-03-29T12:03:18.583Z</time></trkpt><trkpt lat="38.7116283" lon="16.407715"><ele>415.0</ele><time>2026-03-29T12:03:19.583Z</time></trkpt><trkpt lat="38.7116567" lon="16.40787"><ele>414.75</ele><time>2026-03-29T12:03:20.583Z</time></trkpt><trkpt lat="38.7116883" lon="16.40803"><ele>414.5</ele><time>2026-03-29T12:03:21.583Z</time></trkpt><trkpt lat="38.7117217" lon="16.4081867"><ele>414.25</ele><time>2026-03-29T12:03:22.583Z</time></trkpt><trkpt lat="38.7117567" lon="16.4083517"><ele>414.0</ele><time>2026-03-29T12:03:23.583Z</time></trkpt><trkpt lat="38.7118033" lon="16.40851"><ele>414.0</ele><time>2026-03-29T12:03:24.583Z</time></trkpt><trkpt lat="38.7118733" lon="16.4086417"><ele>414.0</ele><time>2026-03-29T12:03:25.583Z</time></trkpt><trkpt lat="38.7119567" lon="16.4087633"><ele>414.0</ele><time>2026-03-29T12:03:26.583Z</time></trkpt><trkpt lat="38.7120717" lon="16.4088917"><ele>414.0</ele><time>2026-03-29T12:03:27.583Z</time></trkpt><trkpt lat="38.7121983" lon="16.4090133"><ele>416.75</ele><time>2026-03-29T12:03:28.583Z</time></trkpt><trkpt lat="38.7123067" lon="16.409135"><ele>419.5</ele><time>2026-03-29T12:03:29.583Z</time></trkpt><trkpt lat="38.7123917" lon="16.4092733"><ele>422.25</ele><time>2026-03-29T12:03:30.583Z</time></trkpt><trkpt lat="38.712465" lon="16.4093933"><ele>425.0</ele><time>2026-03-29T12:03:31.583Z</time></trkpt><trkpt lat="38.7125133" lon="16.4094933"><ele>425.0</ele><time>2026-03-29T12:03:32.583Z</time></trkpt><trkpt lat="38.71252" lon="16.40961"><ele>425.0</ele><time>2026-03-29T12:03:33.583Z</time></trkpt><trkpt lat="38.71252" lon="16.4097483"><ele>425.0</ele><time>2026-03-29T12:03:34.583Z</time></trkpt><trkpt lat="38.7125367" lon="16.4099017"><ele>425.0</ele><time>2026-03-29T12:03:35.583Z</time></trkpt><trkpt lat="38.712575" lon="16.410075"><ele>424.0</ele><time>2026-03-29T12:03:36.583Z</time></trkpt><trkpt lat="38.712615" lon="16.4102483"><ele>423.0</ele><time>2026-03-29T12:03:37.583Z</time></trkpt><trkpt lat="38.7126633" lon="16.410415"><ele>422.0</ele><time>2026-03-29T12:03:38.583Z</time></trkpt><trkpt lat="38.71272" lon="16.410585"><ele>421.0</ele><time>2026-03-29T12:03:39.583Z</time></trkpt><trkpt lat="38.7127817" lon="16.4107683"><ele>425.0</ele><time>2026-03-29T12:03:40.583Z</time></trkpt><trkpt lat="38.71286" lon="16.4109467"><ele>429.0</ele><time>2026-03-29T12:03:41.583Z</time></trkpt><trkpt lat="38.7129467" lon="16.411105"><ele>433.0</ele><time>2026-03-29T12:03:42.583Z</time></trkpt><trkpt lat="38.7130333" lon="16.4112383"><ele>437.0</ele><time>2026-03-29T12:03:43.583Z</time></trkpt><trkpt lat="38.7131133" lon="16.4113783"><ele>437.0</ele><time>2026-03-29T12:03:44.584Z</time></trkpt><trkpt lat="38.7131467" lon="16.4115283"><ele>437.0</ele><time>2026-03-29T12:03:45.583Z</time></trkpt><trkpt lat="38.7131533" lon="16.41168"><ele>437.0</ele><time>2026-03-29T12:03:46.583Z</time></trkpt><trkpt lat="38.7131083" lon="16.4118383"><ele>437.0</ele><time>2026-03-29T12:03:47.583Z</time></trkpt><trkpt lat="38.7130933" lon="16.41201"><ele>436.0</ele><time>2026-03-29T12:03:48.583Z</time></trkpt><trkpt lat="38.7131117" lon="16.4121767"><ele>435.0</ele><time>2026-03-29T12:03:49.583Z</time></trkpt><trkpt lat="38.7131683" lon="16.41235"><ele>434.0</ele><time>2026-03-29T12:03:50.583Z</time></trkpt><trkpt lat="38.71325" lon="16.4125067"><ele>433.0</ele><time>2026-03-29T12:03:51.583Z</time></trkpt><trkpt lat="38.71335" lon="16.41262"><ele>433.0</ele><time>2026-03-29T12:03:52.583Z</time></trkpt><trkpt lat="38.7134717" lon="16.4126917"><ele>433.0</ele><time>2026-03-29T12:03:53.583Z</time></trkpt><trkpt lat="38.7135933" lon="16.41272"><ele>433.0</ele><time>2026-03-29T12:03:54.583Z</time></trkpt><trkpt lat="38.7137317" lon="16.4126967"><ele>433.0</ele><time>2026-03-29T12:03:55.583Z</time></trkpt><trkpt lat="38.713885" lon="16.412645"><ele>438.33333333333337</ele><time>2026-03-29T12:03:56.584Z</time></trkpt><trkpt lat="38.7140517" lon="16.4125917"><ele>443.66666666666663</ele><time>2026-03-29T12:03:57.583Z</time></trkpt><trkpt lat="38.7142083" lon="16.4125783"><ele>449.0</ele><time>2026-03-29T12:03:58.583Z</time></trkpt><trkpt lat="38.714355" lon="16.4125917"><ele>452.5</ele><time>2026-03-29T12:03:59.583Z</time></trkpt><trkpt lat="38.7145" lon="16.4126433"><ele>456.0</ele><time>2026-03-29T12:04:00.583Z</time></trkpt><trkpt lat="38.7146017" lon="16.4127517"><ele>459.5</ele><time>2026-03-29T12:04:01.583Z</time></trkpt><trkpt lat="38.714675" lon="16.412885"><ele>463.0</ele><time>2026-03-29T12:04:02.583Z</time></trkpt><trkpt lat="38.7147083" lon="16.413065"><ele>463.0</ele><time>2026-03-29T12:04:03.583Z</time></trkpt><trkpt lat="38.71472" lon="16.4132683"><ele>463.0</ele><time>2026-03-29T12:04:04.583Z</time></trkpt><trkpt lat="38.7147183" lon="16.41351"><ele>463.0</ele><time>2026-03-29T12:04:05.583Z</time></trkpt><trkpt lat="38.7147383" lon="16.41371"><ele>459.75</ele><time>2026-03-29T12:04:06.583Z</time></trkpt><trkpt lat="38.7147783" lon="16.413875"><ele>456.5</ele><time>2026-03-29T12:04:07.583Z</time></trkpt><trkpt lat="38.7148483" lon="16.4140317"><ele>453.25</ele><time>2026-03-29T12:04:08.583Z</time></trkpt><trkpt lat="38.71492" lon="16.4141333"><ele>450.0</ele><time>2026-03-29T12:04:09.583Z</time></trkpt><trkpt lat="38.7150117" lon="16.41418"><ele>450.0</ele><time>2026-03-29T12:04:10.583Z</time></trkpt><trkpt lat="38.7151217" lon="16.414205"><ele>450.0</ele><time>2026-03-29T12:04:11.584Z</time></trkpt><trkpt lat="38.7152517" lon="16.41419"><ele>450.0</ele><time>2026-03-29T12:04:12.583Z</time></trkpt><trkpt lat="38.7153933" lon="16.41415"><ele>450.0</ele><time>2026-03-29T12:04:13.583Z</time></trkpt><trkpt lat="38.7155383" lon="16.414095"><ele>453.0</ele><time>2026-03-29T12:04:14.583Z</time></trkpt><trkpt lat="38.7156917" lon="16.4140167"><ele>456.0</ele><time>2026-03-29T12:04:15.583Z</time></trkpt><trkpt lat="38.715845" lon="16.4139417"><ele>459.0</ele><time>2026-03-29T12:04:16.583Z</time></trkpt><trkpt lat="38.7160083" lon="16.4139"><ele>464.5</ele><time>2026-03-29T12:04:17.583Z</time></trkpt><trkpt lat="38.71615" lon="16.41389"><ele>470.0</ele><time>2026-03-29T12:04:18.583Z</time></trkpt><trkpt lat="38.7162633" lon="16.41389"><ele>475.5</ele><time>2026-03-29T12:04:19.583Z</time></trkpt><trkpt lat="38.7163717" lon="16.4139033"><ele>481.0</ele><time>2026-03-29T12:04:20.583Z</time></trkpt><trkpt lat="38.716455" lon="16.413955"><ele>481.00000000000006</ele><time>2026-03-29T12:04:21.583Z</time></trkpt><trkpt lat="38.716515" lon="16.4140117"><ele>481.0</ele><time>2026-03-29T12:04:22.583Z</time></trkpt><trkpt lat="38.7165633" lon="16.4140767"><ele>481.0</ele><time>2026-03-29T12:04:23.583Z</time></trkpt><trkpt lat="38.71659" lon="16.4141617"><ele>481.0</ele><time>2026-03-29T12:04:24.583Z</time></trkpt><trkpt lat="38.7165933" lon="16.4142583"><ele>481.00000000000006</ele><time>2026-03-29T12:04:25.583Z</time></trkpt><trkpt lat="38.71656" lon="16.4143817"><ele>481.0</ele><time>2026-03-29T12:04:26.583Z</time></trkpt><trkpt lat="38.7164867" lon="16.4145067"><ele>481.0</ele><time>2026-03-29T12:04:27.583Z</time></trkpt><trkpt lat="38.7163833" lon="16.414605"><ele>481.0</ele><time>2026-03-29T12:04:28.583Z</time></trkpt><trkpt lat="38.7162633" lon="16.4146733"><ele>481.0</ele><time>2026-03-29T12:04:29.583Z</time></trkpt><trkpt lat="38.7161717" lon="16.4147683"><ele>481.0</ele><time>2026-03-29T12:04:30.583Z</time></trkpt><trkpt lat="38.7161117" lon="16.4148967"><ele>481.5</ele><time>2026-03-29T12:04:31.583Z</time></trkpt><trkpt lat="38.7160917" lon="16.4150333"><ele>482.0</ele><time>2026-03-29T12:04:32.583Z</time></trkpt><trkpt lat="38.7161033" lon="16.4151717"><ele>482.5</ele><time>2026-03-29T12:04:33.583Z</time></trkpt><trkpt lat="38.7161617" lon="16.41533"><ele>483.0</ele><time>2026-03-29T12:04:34.583Z</time></trkpt><trkpt lat="38.7162367" lon="16.4154867"><ele>482.0</ele><time>2026-03-29T12:04:35.584Z</time></trkpt><trkpt lat="38.7163167" lon="16.4156467"><ele>481.0</ele><time>2026-03-29T12:04:36.583Z</time></trkpt><trkpt lat="38.7163983" lon="16.4157983"><ele>480.0</ele><time>2026-03-29T12:04:37.583Z</time></trkpt><trkpt lat="38.7164817" lon="16.4159767"><ele>480.0</ele><time>2026-03-29T12:04:38.583Z</time></trkpt><trkpt lat="38.7165733" lon="16.4161583"><ele>480.0</ele><time>2026-03-29T12:04:39.583Z</time></trkpt><trkpt lat="38.7166633" lon="16.4163283"><ele>480.0</ele><time>2026-03-29T12:04:40.583Z</time></trkpt><trkpt lat="38.71675" lon="16.416475"><ele>481.25</ele><time>2026-03-29T12:04:41.583Z</time></trkpt><trkpt lat="38.71684" lon="16.4165917"><ele>482.5</ele><time>2026-03-29T12:04:42.583Z</time></trkpt><trkpt lat="38.71694" lon="16.41668"><ele>483.75</ele><time>2026-03-29T12:04:43.583Z</time></trkpt><trkpt lat="38.7170517" lon="16.41673"><ele>485.0</ele><time>2026-03-29T12:04:44.583Z</time></trkpt><trkpt lat="38.7171683" lon="16.416765"><ele>485.0</ele><time>2026-03-29T12:04:45.583Z</time></trkpt><trkpt lat="38.7172833" lon="16.4167933"><ele>485.0</ele><time>2026-03-29T12:04:46.583Z</time></trkpt><trkpt lat="38.717395" lon="16.416845"><ele>485.0</ele><time>2026-03-29T12:04:47.583Z</time></trkpt><trkpt lat="38.717495" lon="16.4169433"><ele>485.0</ele><time>2026-03-29T12:04:48.583Z</time></trkpt><trkpt lat="38.7176" lon="16.4170583"><ele>482.75</ele><time>2026-03-29T12:04:49.583Z</time></trkpt><trkpt lat="38.717705" lon="16.4171817"><ele>480.5</ele><time>2026-03-29T12:04:50.583Z</time></trkpt><trkpt lat="38.7178133" lon="16.41731"><ele>478.25</ele><time>2026-03-29T12:04:51.583Z</time></trkpt><trkpt lat="38.7179317" lon="16.417435"><ele>476.0</ele><time>2026-03-29T12:04:52.583Z</time></trkpt><trkpt lat="38.7180383" lon="16.4175683"><ele>480.25</ele><time>2026-03-29T12:04:53.583Z</time></trkpt><trkpt lat="38.7181383" lon="16.4177083"><ele>484.5</ele><time>2026-03-29T12:04:54.583Z</time></trkpt><trkpt lat="38.7182133" lon="16.4178517"><ele>488.75</ele><time>2026-03-29T12:04:55.583Z</time></trkpt><trkpt lat="38.71827" lon="16.4180067"><ele>493.0</ele><time>2026-03-29T12:04:56.583Z</time></trkpt><trkpt lat="38.7182917" lon="16.4181683"><ele>493.0</ele><time>2026-03-29T12:04:57.583Z</time></trkpt><trkpt lat="38.7182833" lon="16.4183367"><ele>493.0</ele><time>2026-03-29T12:04:58.583Z</time></trkpt><trkpt lat="38.718245" lon="16.41849"><ele>493.0</ele><time>2026-03-29T12:04:59.583Z</time></trkpt><trkpt lat="38.7182217" lon="16.4186533"><ele>493.0</ele><time>2026-03-29T12:05:00.583Z</time></trkpt><trkpt lat="38.7182267" lon="16.4188067"><ele>492.75</ele><time>2026-03-29T12:05:01.583Z</time></trkpt><trkpt lat="38.7182567" lon="16.4189633"><ele>492.5</ele><time>2026-03-29T12:05:02.583Z</time></trkpt><trkpt lat="38.7182983" lon="16.41911"><ele>492.25</ele><time>2026-03-29T12:05:03.583Z</time></trkpt><trkpt lat="38.7183433" lon="16.41926"><ele>492.0</ele><time>2026-03-29T12:05:04.583Z</time></trkpt><trkpt lat="38.7183783" lon="16.4193933"><ele>492.0</ele><time>2026-03-29T12:05:05.583Z</time></trkpt><trkpt lat="38.7184083" lon="16.4195133"><ele>492.00000000000006</ele><time>2026-03-29T12:05:06.583Z</time></trkpt><trkpt lat="38.7184267" lon="16.419655"><ele>492.00000000000006</ele><time>2026-03-29T12:05:07.583Z</time></trkpt><trkpt lat="38.7184117" lon="16.419795"><ele>492.0</ele><time>2026-03-29T12:05:08.583Z</time></trkpt><trkpt lat="38.7183833" lon="16.4199417"><ele>492.0</ele><time>2026-03-29T12:05:09.583Z</time></trkpt><trkpt lat="38.71835" lon="16.420085"><ele>491.75</ele><time>2026-03-29T12:05:10.584Z</time></trkpt><trkpt lat="38.718345" lon="16.420225"><ele>491.5</ele><time>2026-03-29T12:05:11.583Z</time></trkpt><trkpt lat="38.7183833" lon="16.4203583"><ele>491.25</ele><time>2026-03-29T12:05:12.583Z</time></trkpt><trkpt lat="38.71843" lon="16.4205017"><ele>491.0</ele><time>2026-03-29T12:05:13.583Z</time></trkpt><trkpt lat="38.7184917" lon="16.4206467"><ele>490.25</ele><time>2026-03-29T12:05:14.583Z</time></trkpt><trkpt lat="38.718555" lon="16.4208017"><ele>489.5</ele><time>2026-03-29T12:05:15.583Z</time></trkpt><trkpt lat="38.7186183" lon="16.4209583"><ele>488.75</ele><time>2026-03-29T12:05:16.583Z</time></trkpt><trkpt lat="38.7186833" lon="16.421115"><ele>488.0</ele><time>2026-03-29T12:05:17.583Z</time></trkpt><trkpt lat="38.718745" lon="16.4212683"><ele>490.75</ele><time>2026-03-29T12:05:18.583Z</time></trkpt><trkpt lat="38.7188183" lon="16.4214183"><ele>493.5</ele><time>2026-03-29T12:05:19.583Z</time></trkpt><trkpt lat="38.7189167" lon="16.4215267"><ele>496.25</ele><time>2026-03-29T12:05:20.583Z</time></trkpt><trkpt lat="38.7190233" lon="16.42162"><ele>499.0</ele><time>2026-03-29T12:05:21.583Z</time></trkpt><trkpt lat="38.7191367" lon="16.4216883"><ele>499.0</ele><time>2026-03-29T12:05:22.583Z</time></trkpt><trkpt lat="38.7192467" lon="16.4217317"><ele>499.0</ele><time>2026-03-29T12:05:23.583Z</time></trkpt><trkpt lat="38.7193533" lon="16.42177"><ele>499.0</ele><time>2026-03-29T12:05:24.583Z</time></trkpt><trkpt lat="38.7194533" lon="16.4218067"><ele>499.0</ele><time>2026-03-29T12:05:25.583Z</time></trkpt><trkpt lat="38.7195333" lon="16.4218383"><ele>499.0</ele><time>2026-03-29T12:05:26.583Z</time></trkpt><trkpt lat="38.7195967" lon="16.4218567"><ele>500.1666666666667</ele><time>2026-03-29T12:05:27.583Z</time></trkpt><trkpt lat="38.719685" lon="16.4218833"><ele>501.33333333333337</ele><time>2026-03-29T12:05:29.583Z</time></trkpt><trkpt lat="38.7197583" lon="16.4218983"><ele>502.5</ele><time>2026-03-29T12:06:54.583Z</time></trkpt><trkpt lat="38.719845" lon="16.4218833"><ele>503.66666666666663</ele><time>2026-03-29T12:06:56.583Z</time></trkpt><trkpt lat="38.719915" lon="16.42186"><ele>504.8333333333333</ele><time>2026-03-29T12:06:57.583Z</time></trkpt><trkpt lat="38.719995" lon="16.42187"><ele>506.0</ele><time>2026-03-29T12:06:58.583Z</time></trkpt><trkpt lat="38.72007" lon="16.4219067"><ele>505.99999999999994</ele><time>2026-03-29T12:06:59.583Z</time></trkpt><trkpt lat="38.72014" lon="16.4219483"><ele>506.0</ele><time>2026-03-29T12:07:00.583Z</time></trkpt><trkpt lat="38.7202083" lon="16.421985"><ele>506.0</ele><time>2026-03-29T12:07:01.583Z</time></trkpt><trkpt lat="38.7203383" lon="16.422035"><ele>506.0</ele><time>2026-03-29T12:07:03.583Z</time></trkpt><trkpt lat="38.7204283" lon="16.422055"><ele>505.99999999999994</ele><time>2026-03-29T12:07:05.583Z</time></trkpt><trkpt lat="38.7204917" lon="16.4220267"><ele>506.0</ele><time>2026-03-29T12:16:07.582Z</time></trkpt><trkpt lat="38.72042" lon="16.4220067"><ele>506.0</ele><time>2026-03-29T12:16:10.582Z</time></trkpt><trkpt lat="38.7203117" lon="16.4219783"><ele>506.0</ele><time>2026-03-29T12:16:12.582Z</time></trkpt><trkpt lat="38.7202" lon="16.421935"><ele>506.0</ele><time>2026-03-29T12:16:14.582Z</time></trkpt><trkpt lat="38.7201133" lon="16.4218583"><ele>506.0</ele><time>2026-03-29T12:16:16.582Z</time></trkpt><trkpt lat="38.7200167" lon="16.4218117"><ele>506.0</ele><time>2026-03-29T12:16:18.583Z</time></trkpt><trkpt lat="38.719925" lon="16.4218017"><ele>506.00000000000006</ele><time>2026-03-29T12:16:20.582Z</time></trkpt><trkpt lat="38.7198583" lon="16.4218633"><ele>506.0</ele><time>2026-03-29T12:16:23.582Z</time></trkpt><trkpt lat="38.719875" lon="16.4219433"><ele>506.00000000000006</ele><time>2026-03-29T12:16:26.582Z</time></trkpt><trkpt lat="38.719935" lon="16.4220183"><ele>506.00000000000006</ele><time>2026-03-29T12:16:28.582Z</time></trkpt><trkpt lat="38.7199933" lon="16.42206"><ele>506.0</ele><time>2026-03-29T12:16:30.582Z</time></trkpt><trkpt lat="38.72006" lon="16.4221083"><ele>506.00000000000006</ele><time>2026-03-29T12:16:33.582Z</time></trkpt><trkpt lat="38.720105" lon="16.422165"><ele>506.00000000000006</ele><time>2026-03-29T12:16:36.582Z</time></trkpt><trkpt lat="38.720165" lon="16.4221933"><ele>505.99999999999994</ele><time>2026-03-29T12:16:41.582Z</time></trkpt><trkpt lat="38.720125" lon="16.42213"><ele>506.0</ele><time>2026-03-29T12:16:44.582Z</time></trkpt><trkpt lat="38.72004" lon="16.4220567"><ele>506.0</ele><time>2026-03-29T12:16:46.583Z</time></trkpt><trkpt lat="38.7199833" lon="16.422015"><ele>506.0</ele><time>2026-03-29T12:16:47.582Z</time></trkpt><trkpt lat="38.7199217" lon="16.4219433"><ele>505.99999999999994</ele><time>2026-03-29T12:16:49.582Z</time></trkpt><trkpt lat="38.7199367" lon="16.4218283"><ele>506.0</ele><time>2026-03-29T12:16:59.582Z</time></trkpt><trkpt lat="38.7200017" lon="16.4218667"><ele>506.0</ele><time>2026-03-29T12:17:01.582Z</time></trkpt><trkpt lat="38.7200933" lon="16.4219233"><ele>506.0</ele><time>2026-03-29T12:17:03.582Z</time></trkpt><trkpt lat="38.720205" lon="16.4219833"><ele>506.0</ele><time>2026-03-29T12:17:05.582Z</time></trkpt><trkpt lat="38.7203167" lon="16.4220267"><ele>506.0</ele><time>2026-03-29T12:17:07.582Z</time></trkpt><trkpt lat="38.720405" lon="16.4220533"><ele>506.0</ele><time>2026-03-29T12:17:09.582Z</time></trkpt><trkpt lat="38.720475" lon="16.4220567"><ele>506.00000000000006</ele><time>2026-03-29T12:17:11.582Z</time></trkpt><trkpt lat="38.7205383" lon="16.422045"><ele>506.0</ele><time>2026-03-29T12:18:36.582Z</time></trkpt><trkpt lat="38.7206" lon="16.421975"><ele>506.00000000000006</ele><time>2026-03-29T12:19:23.582Z</time></trkpt><trkpt lat="38.7206517" lon="16.4219067"><ele>506.00000000000006</ele><time>2026-03-29T12:19:26.582Z</time></trkpt><trkpt lat="38.7206867" lon="16.4218217"><ele>506.0</ele><time>2026-03-29T12:19:29.582Z</time></trkpt><trkpt lat="38.7206167" lon="16.42188"><ele>506.00000000000006</ele><time>2026-03-29T12:19:36.582Z</time></trkpt><trkpt lat="38.7205783" lon="16.421945"><ele>506.00000000000006</ele><time>2026-03-29T12:19:37.582Z</time></trkpt><trkpt lat="38.7205267" lon="16.4219933"><ele>505.99999999999994</ele><time>2026-03-29T12:19:38.582Z</time></trkpt><trkpt lat="38.7204483" lon="16.4220117"><ele>506.0</ele><time>2026-03-29T12:19:40.582Z</time></trkpt><trkpt lat="38.72038" lon="16.42201"><ele>506.0</ele><time>2026-03-29T12:19:43.582Z</time></trkpt><trkpt lat="38.7203117" lon="16.4219983"><ele>506.0</ele><time>2026-03-29T12:19:45.582Z</time></trkpt><trkpt lat="38.720205" lon="16.42196"><ele>505.99999999999994</ele><time>2026-03-29T12:19:47.582Z</time></trkpt><trkpt lat="38.7201" lon="16.4218867"><ele>506.0</ele><time>2026-03-29T12:19:49.582Z</time></trkpt><trkpt lat="38.72001" lon="16.4218283"><ele>505.99999999999994</ele><time>2026-03-29T12:19:51.582Z</time></trkpt><trkpt lat="38.7199233" lon="16.4217983"><ele>506.0</ele><time>2026-03-29T12:19:53.582Z</time></trkpt><trkpt lat="38.7198417" lon="16.4218117"><ele>506.0</ele><time>2026-03-29T12:19:55.582Z</time></trkpt><trkpt lat="38.7198033" lon="16.4218833"><ele>506.0</ele><time>2026-03-29T12:19:58.582Z</time></trkpt><trkpt lat="38.7198283" lon="16.4219683"><ele>505.99999999999994</ele><time>2026-03-29T12:20:01.582Z</time></trkpt><trkpt lat="38.7198967" lon="16.422035"><ele>506.0</ele><time>2026-03-29T12:20:25.582Z</time></trkpt><trkpt lat="38.7199767" lon="16.4220983"><ele>503.25</ele><time>2026-03-29T12:20:26.582Z</time></trkpt><trkpt lat="38.7200833" lon="16.422185"><ele>500.5</ele><time>2026-03-29T12:20:27.582Z</time></trkpt><trkpt lat="38.72022" lon="16.4223"><ele>497.75</ele><time>2026-03-29T12:20:28.582Z</time></trkpt><trkpt lat="38.7203417" lon="16.422405"><ele>495.0</ele><time>2026-03-29T12:20:29.583Z</time></trkpt><trkpt lat="38.72044" lon="16.4224733"><ele>494.6</ele><time>2026-03-29T12:20:30.582Z</time></trkpt><trkpt lat="38.7205433" lon="16.422515"><ele>494.2</ele><time>2026-03-29T12:20:31.582Z</time></trkpt><trkpt lat="38.7206383" lon="16.422495"><ele>493.79999999999995</ele><time>2026-03-29T12:20:32.582Z</time></trkpt><trkpt lat="38.72072" lon="16.42245"><ele>493.4</ele><time>2026-03-29T12:20:33.582Z</time></trkpt><trkpt lat="38.7207933" lon="16.422355"><ele>493.0</ele><time>2026-03-29T12:20:34.582Z</time></trkpt><trkpt lat="38.7208683" lon="16.422215"><ele>494.0</ele><time>2026-03-29T12:20:35.582Z</time></trkpt><trkpt lat="38.7209367" lon="16.4220533"><ele>494.99999999999994</ele><time>2026-03-29T12:20:36.582Z</time></trkpt><trkpt lat="38.721" lon="16.4219267"><ele>495.99999999999994</ele><time>2026-03-29T12:20:37.582Z</time></trkpt><trkpt lat="38.721075" lon="16.42185"><ele>497.0</ele><time>2026-03-29T12:20:38.582Z</time></trkpt><trkpt lat="38.721155" lon="16.4218233"><ele>498.0</ele><time>2026-03-29T12:20:39.582Z</time></trkpt><trkpt lat="38.7212433" lon="16.4218567"><ele>498.0</ele><time>2026-03-29T12:20:40.582Z</time></trkpt><trkpt lat="38.721355" lon="16.4219467"><ele>498.0</ele><time>2026-03-29T12:20:41.582Z</time></trkpt><trkpt lat="38.7214717" lon="16.4220633"><ele>498.0</ele><time>2026-03-29T12:20:42.582Z</time></trkpt><trkpt lat="38.7216" lon="16.422135"><ele>498.0</ele><time>2026-03-29T12:20:43.582Z</time></trkpt><trkpt lat="38.7217433" lon="16.4221467"><ele>493.33333333333337</ele><time>2026-03-29T12:20:44.582Z</time></trkpt><trkpt lat="38.7219033" lon="16.422115"><ele>488.6666666666667</ele><time>2026-03-29T12:20:45.582Z</time></trkpt><trkpt lat="38.7220633" lon="16.42204"><ele>484.0</ele><time>2026-03-29T12:20:46.582Z</time></trkpt><trkpt lat="38.7222017" lon="16.4219283"><ele>484.0</ele><time>2026-03-29T12:20:47.582Z</time></trkpt><trkpt lat="38.7223117" lon="16.4218"><ele>484.0</ele><time>2026-03-29T12:20:48.582Z</time></trkpt><trkpt lat="38.72241" lon="16.421655"><ele>484.0</ele><time>2026-03-29T12:20:49.582Z</time></trkpt><trkpt lat="38.7225083" lon="16.4215017"><ele>484.0</ele><time>2026-03-29T12:20:50.582Z</time></trkpt><trkpt lat="38.7226133" lon="16.4213567"><ele>484.0</ele><time>2026-03-29T12:20:51.582Z</time></trkpt><trkpt lat="38.7227283" lon="16.4212"><ele>484.0</ele><time>2026-03-29T12:20:52.582Z</time></trkpt><trkpt lat="38.72286" lon="16.4210567"><ele>483.0</ele><time>2026-03-29T12:20:53.582Z</time></trkpt><trkpt lat="38.723015" lon="16.4209267"><ele>482.0</ele><time>2026-03-29T12:20:54.582Z</time></trkpt><trkpt lat="38.7231767" lon="16.4208217"><ele>481.0</ele><time>2026-03-29T12:20:55.582Z</time></trkpt><trkpt lat="38.723355" lon="16.420735"><ele>481.0</ele><time>2026-03-29T12:20:56.582Z</time></trkpt><trkpt lat="38.72353" lon="16.42068"><ele>481.0</ele><time>2026-03-29T12:20:57.582Z</time></trkpt><trkpt lat="38.7237017" lon="16.42066"><ele>481.0</ele><time>2026-03-29T12:20:58.582Z</time></trkpt><trkpt lat="38.723855" lon="16.4206117"><ele>478.0</ele><time>2026-03-29T12:20:59.582Z</time></trkpt><trkpt lat="38.7239867" lon="16.420515"><ele>475.0</ele><time>2026-03-29T12:21:00.582Z</time></trkpt><trkpt lat="38.7240917" lon="16.420395"><ele>472.0</ele><time>2026-03-29T12:21:01.582Z</time></trkpt><trkpt lat="38.7241833" lon="16.4201983"><ele>472.0</ele><time>2026-03-29T12:21:02.582Z</time></trkpt><trkpt lat="38.7242533" lon="16.419995"><ele>472.0</ele><time>2026-03-29T12:21:03.582Z</time></trkpt><trkpt lat="38.72433" lon="16.419825"><ele>472.0</ele><time>2026-03-29T12:21:04.582Z</time></trkpt><trkpt lat="38.72441" lon="16.4196983"><ele>470.0</ele><time>2026-03-29T12:21:05.582Z</time></trkpt><trkpt lat="38.7245117" lon="16.41963"><ele>468.0</ele><time>2026-03-29T12:21:06.582Z</time></trkpt><trkpt lat="38.7246267" lon="16.4196233"><ele>466.0</ele><time>2026-03-29T12:21:07.582Z</time></trkpt><trkpt lat="38.7247517" lon="16.419675"><ele>464.0</ele><time>2026-03-29T12:21:08.582Z</time></trkpt><trkpt lat="38.72487" lon="16.4197583"><ele>464.0</ele><time>2026-03-29T12:21:09.582Z</time></trkpt><trkpt lat="38.7249533" lon="16.4198533"><ele>464.0</ele><time>2026-03-29T12:21:10.582Z</time></trkpt><trkpt lat="38.7250067" lon="16.41996"><ele>464.0</ele><time>2026-03-29T12:21:11.582Z</time></trkpt><trkpt lat="38.72502" lon="16.4200517"><ele>464.0</ele><time>2026-03-29T12:21:12.582Z</time></trkpt><trkpt lat="38.72498" lon="16.4202017"><ele>464.0</ele><time>2026-03-29T12:21:14.582Z</time></trkpt><trkpt lat="38.7249417" lon="16.420295"><ele>464.0</ele><time>2026-03-29T12:21:15.582Z</time></trkpt><trkpt lat="38.72489" lon="16.420405"><ele>464.0</ele><time>2026-03-29T12:21:16.582Z</time></trkpt><trkpt lat="38.72484" lon="16.4205567"><ele>464.0</ele><time>2026-03-29T12:21:17.582Z</time></trkpt><trkpt lat="38.72481" lon="16.4207433"><ele>464.0</ele><time>2026-03-29T12:21:18.582Z</time></trkpt><trkpt lat="38.7248083" lon="16.420965"><ele>465.3333333333333</ele><time>2026-03-29T12:21:19.582Z</time></trkpt><trkpt lat="38.7248217" lon="16.4212083"><ele>466.66666666666663</ele><time>2026-03-29T12:21:20.582Z</time></trkpt><trkpt lat="38.7248333" lon="16.42146"><ele>468.0</ele><time>2026-03-29T12:21:21.582Z</time></trkpt><trkpt lat="38.7248567" lon="16.42174"><ele>470.0</ele><time>2026-03-29T12:21:22.582Z</time></trkpt><trkpt lat="38.7248667" lon="16.4220017"><ele>472.0</ele><time>2026-03-29T12:21:23.582Z</time></trkpt><trkpt lat="38.7248867" lon="16.4222383"><ele>474.0</ele><time>2026-03-29T12:21:24.582Z</time></trkpt><trkpt lat="38.7249267" lon="16.422475"><ele>475.0</ele><time>2026-03-29T12:21:25.582Z</time></trkpt><trkpt lat="38.7249967" lon="16.4227017"><ele>476.0</ele><time>2026-03-29T12:21:26.582Z</time></trkpt><trkpt lat="38.7250467" lon="16.4229083"><ele>477.0</ele><time>2026-03-29T12:21:27.583Z</time></trkpt><trkpt lat="38.72509" lon="16.4230817"><ele>478.0</ele><time>2026-03-29T12:21:28.582Z</time></trkpt><trkpt lat="38.7250933" lon="16.4232433"><ele>479.0</ele><time>2026-03-29T12:21:29.582Z</time></trkpt><trkpt lat="38.7250417" lon="16.4233967"><ele>480.0</ele><time>2026-03-29T12:21:30.582Z</time></trkpt><trkpt lat="38.7249767" lon="16.4235517"><ele>481.0</ele><time>2026-03-29T12:21:31.582Z</time></trkpt><trkpt lat="38.724885" lon="16.4236783"><ele>481.0</ele><time>2026-03-29T12:21:32.582Z</time></trkpt><trkpt lat="38.7247883" lon="16.4237867"><ele>481.0</ele><time>2026-03-29T12:21:33.582Z</time></trkpt><trkpt lat="38.7247033" lon="16.423855"><ele>481.0</ele><time>2026-03-29T12:21:34.582Z</time></trkpt><trkpt lat="38.7246167" lon="16.423915"><ele>481.0</ele><time>2026-03-29T12:21:35.582Z</time></trkpt><trkpt lat="38.724565" lon="16.4239917"><ele>481.0</ele><time>2026-03-29T12:21:36.582Z</time></trkpt><trkpt lat="38.724545" lon="16.4240717"><ele>481.50000000000006</ele><time>2026-03-29T12:21:37.582Z</time></trkpt><trkpt lat="38.7245667" lon="16.42415"><ele>482.0</ele><time>2026-03-29T12:21:38.582Z</time></trkpt><trkpt lat="38.7246233" lon="16.424225"><ele>482.5</ele><time>2026-03-29T12:21:39.582Z</time></trkpt><trkpt lat="38.72468" lon="16.4242817"><ele>483.0</ele><time>2026-03-29T12:21:40.582Z</time></trkpt><trkpt lat="38.7247817" lon="16.4243633"><ele>483.50000000000006</ele><time>2026-03-29T12:21:42.582Z</time></trkpt><trkpt lat="38.7248483" lon="16.4244167"><ele>484.0</ele><time>2026-03-29T12:21:43.582Z</time></trkpt><trkpt lat="38.72494" lon="16.4244733"><ele>484.0</ele><time>2026-03-29T12:21:44.582Z</time></trkpt><trkpt lat="38.72504" lon="16.4245433"><ele>484.0</ele><time>2026-03-29T12:21:45.582Z</time></trkpt><trkpt lat="38.725145" lon="16.42462"><ele>484.0</ele><time>2026-03-29T12:21:46.582Z</time></trkpt><trkpt lat="38.7252683" lon="16.4247133"><ele>484.0</ele><time>2026-03-29T12:21:47.582Z</time></trkpt><trkpt lat="38.7254067" lon="16.4248383"><ele>482.75</ele><time>2026-03-29T12:21:48.582Z</time></trkpt><trkpt lat="38.7255433" lon="16.4249567"><ele>481.5</ele><time>2026-03-29T12:21:49.582Z</time></trkpt><trkpt lat="38.7256467" lon="16.4250833"><ele>480.25</ele><time>2026-03-29T12:21:50.582Z</time></trkpt><trkpt lat="38.725745" lon="16.4251683"><ele>479.0</ele><time>2026-03-29T12:21:51.582Z</time></trkpt><trkpt lat="38.7258383" lon="16.4252083"><ele>479.0</ele><time>2026-03-29T12:21:52.582Z</time></trkpt><trkpt lat="38.7259267" lon="16.4251917"><ele>479.0</ele><time>2026-03-29T12:21:53.582Z</time></trkpt><trkpt lat="38.7260033" lon="16.4251083"><ele>479.0</ele><time>2026-03-29T12:21:54.582Z</time></trkpt><trkpt lat="38.7260683" lon="16.4249917"><ele>479.0</ele><time>2026-03-29T12:21:55.582Z</time></trkpt><trkpt lat="38.7261233" lon="16.4248167"><ele>479.0</ele><time>2026-03-29T12:21:56.583Z</time></trkpt><trkpt lat="38.72617" lon="16.4246217"><ele>475.3333333333333</ele><time>2026-03-29T12:21:57.582Z</time></trkpt><trkpt lat="38.7262317" lon="16.4244167"><ele>471.66666666666663</ele><time>2026-03-29T12:21:58.582Z</time></trkpt><trkpt lat="38.72631" lon="16.4242017"><ele>468.0</ele><time>2026-03-29T12:21:59.582Z</time></trkpt><trkpt lat="38.7263917" lon="16.4239633"><ele>471.0</ele><time>2026-03-29T12:22:00.582Z</time></trkpt><trkpt lat="38.7264883" lon="16.42371"><ele>474.0</ele><time>2026-03-29T12:22:01.582Z</time></trkpt><trkpt lat="38.7265683" lon="16.4234767"><ele>477.0</ele><time>2026-03-29T12:22:02.582Z</time></trkpt><trkpt lat="38.7266467" lon="16.4232783"><ele>477.0</ele><time>2026-03-29T12:22:03.582Z</time></trkpt><trkpt lat="38.7267" lon="16.4231067"><ele>477.0</ele><time>2026-03-29T12:22:04.582Z</time></trkpt><trkpt lat="38.7267633" lon="16.42297"><ele>477.0</ele><time>2026-03-29T12:22:05.582Z</time></trkpt><trkpt lat="38.726835" lon="16.422875"><ele>477.0</ele><time>2026-03-29T12:22:06.582Z</time></trkpt><trkpt lat="38.726915" lon="16.42283"><ele>477.20000000000005</ele><time>2026-03-29T12:22:07.582Z</time></trkpt><trkpt lat="38.7269983" lon="16.4228067"><ele>477.40000000000003</ele><time>2026-03-29T12:22:08.582Z</time></trkpt><trkpt lat="38.72707" lon="16.4228383"><ele>477.59999999999997</ele><time>2026-03-29T12:22:09.582Z</time></trkpt><trkpt lat="38.727135" lon="16.42292"><ele>477.79999999999995</ele><time>2026-03-29T12:22:10.582Z</time></trkpt><trkpt lat="38.72718" lon="16.4230683"><ele>478.0</ele><time>2026-03-29T12:22:11.582Z</time></trkpt><trkpt lat="38.7272117" lon="16.4232783"><ele>476.25</ele><time>2026-03-29T12:22:12.582Z</time></trkpt><trkpt lat="38.727255" lon="16.4234733"><ele>474.5</ele><time>2026-03-29T12:22:13.582Z</time></trkpt><trkpt lat="38.7273117" lon="16.4236283"><ele>472.75</ele><time>2026-03-29T12:22:14.582Z</time></trkpt><trkpt lat="38.72742" lon="16.4237517"><ele>471.0</ele><time>2026-03-29T12:22:15.582Z</time></trkpt><trkpt lat="38.7275767" lon="16.4238417"><ele>469.33333333333337</ele><time>2026-03-29T12:22:16.582Z</time></trkpt><trkpt lat="38.727745" lon="16.42392"><ele>467.6666666666667</ele><time>2026-03-29T12:22:17.582Z</time></trkpt><trkpt lat="38.7279233" lon="16.423985"><ele>466.0</ele><time>2026-03-29T12:22:18.582Z</time></trkpt><trkpt lat="38.7280817" lon="16.4240567"><ele>466.0</ele><time>2026-03-29T12:22:19.582Z</time></trkpt><trkpt lat="38.7282267" lon="16.4241417"><ele>466.0</ele><time>2026-03-29T12:22:20.582Z</time></trkpt><trkpt lat="38.7283917" lon="16.42426"><ele>466.0</ele><time>2026-03-29T12:22:21.582Z</time></trkpt><trkpt lat="38.7285417" lon="16.424415"><ele>465.6666666666667</ele><time>2026-03-29T12:22:22.582Z</time></trkpt><trkpt lat="38.7286983" lon="16.4245867"><ele>465.33333333333337</ele><time>2026-03-29T12:22:23.582Z</time></trkpt><trkpt lat="38.7288533" lon="16.424775"><ele>465.0</ele><time>2026-03-29T12:22:24.582Z</time></trkpt><trkpt lat="38.7290183" lon="16.4249667"><ele>465.0</ele><time>2026-03-29T12:22:25.582Z</time></trkpt><trkpt lat="38.72917" lon="16.4251333"><ele>465.0</ele><time>2026-03-29T12:22:26.582Z</time></trkpt><trkpt lat="38.729295" lon="16.425285"><ele>465.0</ele><time>2026-03-29T12:22:27.582Z</time></trkpt><trkpt lat="38.72942" lon="16.42543"><ele>464.33333333333337</ele><time>2026-03-29T12:22:28.582Z</time></trkpt><trkpt lat="38.729545" lon="16.4255883"><ele>463.6666666666667</ele><time>2026-03-29T12:22:29.582Z</time></trkpt><trkpt lat="38.7296517" lon="16.4257433"><ele>463.0</ele><time>2026-03-29T12:22:30.582Z</time></trkpt><trkpt lat="38.7297317" lon="16.4258883"><ele>463.0</ele><time>2026-03-29T12:22:31.582Z</time></trkpt><trkpt lat="38.7297917" lon="16.4260067"><ele>462.99999999999994</ele><time>2026-03-29T12:22:32.582Z</time></trkpt><trkpt lat="38.7298317" lon="16.4261233"><ele>462.99999999999994</ele><time>2026-03-29T12:22:33.582Z</time></trkpt><trkpt lat="38.7298467" lon="16.426225"><ele>463.0</ele><time>2026-03-29T12:22:34.582Z</time></trkpt><trkpt lat="38.729835" lon="16.4263217"><ele>463.0</ele><time>2026-03-29T12:22:35.582Z</time></trkpt><trkpt lat="38.729785" lon="16.426415"><ele>463.5</ele><time>2026-03-29T12:22:36.582Z</time></trkpt><trkpt lat="38.7296983" lon="16.42651"><ele>464.0</ele><time>2026-03-29T12:22:37.582Z</time></trkpt><trkpt lat="38.7295617" lon="16.4266217"><ele>464.5</ele><time>2026-03-29T12:22:38.582Z</time></trkpt><trkpt lat="38.7294233" lon="16.426745"><ele>465.0</ele><time>2026-03-29T12:22:39.582Z</time></trkpt><trkpt lat="38.729305" lon="16.4268717"><ele>463.0</ele><time>2026-03-29T12:22:40.582Z</time></trkpt><trkpt lat="38.7292267" lon="16.4269917"><ele>461.0</ele><time>2026-03-29T12:22:41.582Z</time></trkpt><trkpt lat="38.7291817" lon="16.42714"><ele>459.0</ele><time>2026-03-29T12:22:42.582Z</time></trkpt><trkpt lat="38.7291583" lon="16.4272983"><ele>457.0</ele><time>2026-03-29T12:22:43.582Z</time></trkpt><trkpt lat="38.7291583" lon="16.4274583"><ele>457.0</ele><time>2026-03-29T12:22:44.582Z</time></trkpt><trkpt lat="38.7291817" lon="16.4276167"><ele>457.0</ele><time>2026-03-29T12:22:45.582Z</time></trkpt><trkpt lat="38.729245" lon="16.42778"><ele>457.0</ele><time>2026-03-29T12:22:46.582Z</time></trkpt><trkpt lat="38.7293133" lon="16.427945"><ele>457.0</ele><time>2026-03-29T12:22:47.582Z</time></trkpt><trkpt lat="38.72938" lon="16.4281117"><ele>459.5</ele><time>2026-03-29T12:22:48.582Z</time></trkpt><trkpt lat="38.7294167" lon="16.4282767"><ele>462.0</ele><time>2026-03-29T12:22:49.582Z</time></trkpt><trkpt lat="38.7294267" lon="16.4284517"><ele>464.5</ele><time>2026-03-29T12:22:50.582Z</time></trkpt><trkpt lat="38.7294383" lon="16.4286333"><ele>467.0</ele><time>2026-03-29T12:22:51.582Z</time></trkpt><trkpt lat="38.7294617" lon="16.428865"><ele>468.0</ele><time>2026-03-29T12:22:52.582Z</time></trkpt><trkpt lat="38.7294617" lon="16.4291083"><ele>469.0</ele><time>2026-03-29T12:22:53.583Z</time></trkpt><trkpt lat="38.7294633" lon="16.4293617"><ele>470.0</ele><time>2026-03-29T12:22:54.582Z</time></trkpt><trkpt lat="38.7294567" lon="16.429635"><ele>471.0</ele><time>2026-03-29T12:22:55.582Z</time></trkpt><trkpt lat="38.72944" lon="16.42991"><ele>472.0</ele><time>2026-03-29T12:22:56.582Z</time></trkpt><trkpt lat="38.7294267" lon="16.4301567"><ele>473.0</ele><time>2026-03-29T12:22:57.582Z</time></trkpt><trkpt lat="38.729385" lon="16.430365"><ele>471.3333333333333</ele><time>2026-03-29T12:22:58.582Z</time></trkpt><trkpt lat="38.7293233" lon="16.4305517"><ele>469.66666666666663</ele><time>2026-03-29T12:22:59.582Z</time></trkpt><trkpt lat="38.72922" lon="16.430755"><ele>468.0</ele><time>2026-03-29T12:23:00.583Z</time></trkpt><trkpt lat="38.7290783" lon="16.4309783"><ele>468.0</ele><time>2026-03-29T12:23:01.582Z</time></trkpt><trkpt lat="38.7289467" lon="16.4312183"><ele>468.0</ele><time>2026-03-29T12:23:02.583Z</time></trkpt><trkpt lat="38.7288183" lon="16.4314917"><ele>467.5</ele><time>2026-03-29T12:23:03.582Z</time></trkpt><trkpt lat="38.7286883" lon="16.4317733"><ele>467.0</ele><time>2026-03-29T12:23:04.582Z</time></trkpt><trkpt lat="38.7285217" lon="16.4320733"><ele>468.5</ele><time>2026-03-29T12:23:05.582Z</time></trkpt><trkpt lat="38.7283933" lon="16.4323783"><ele>470.0</ele><time>2026-03-29T12:23:06.582Z</time></trkpt><trkpt lat="38.7282817" lon="16.43268"><ele>470.0</ele><time>2026-03-29T12:23:07.582Z</time></trkpt><trkpt lat="38.7281883" lon="16.4329417"><ele>470.0</ele><time>2026-03-29T12:23:08.582Z</time></trkpt><trkpt lat="38.72811" lon="16.4331933"><ele>470.0</ele><time>2026-03-29T12:23:09.582Z</time></trkpt><trkpt lat="38.7280517" lon="16.433465"><ele>473.5</ele><time>2026-03-29T12:23:10.582Z</time></trkpt><trkpt lat="38.7280167" lon="16.4337633"><ele>477.0</ele><time>2026-03-29T12:23:11.582Z</time></trkpt><trkpt lat="38.7279783" lon="16.4340417"><ele>479.33333333333337</ele><time>2026-03-29T12:23:12.582Z</time></trkpt><trkpt lat="38.7279333" lon="16.434285"><ele>481.6666666666667</ele><time>2026-03-29T12:23:13.582Z</time></trkpt><trkpt lat="38.7278817" lon="16.4344783"><ele>484.0</ele><time>2026-03-29T12:23:14.582Z</time></trkpt><trkpt lat="38.72782" lon="16.4346567"><ele>486.33333333333337</ele><time>2026-03-29T12:23:15.582Z</time></trkpt><trkpt lat="38.7278033" lon="16.434845"><ele>488.66666666666663</ele><time>2026-03-29T12:23:16.582Z</time></trkpt><trkpt lat="38.7278333" lon="16.4350617"><ele>491.0</ele><time>2026-03-29T12:23:17.582Z</time></trkpt><trkpt lat="38.7278833" lon="16.4353183"><ele>491.0</ele><time>2026-03-29T12:23:18.582Z</time></trkpt><trkpt lat="38.72794" lon="16.4356017"><ele>491.0</ele><time>2026-03-29T12:23:19.582Z</time></trkpt><trkpt lat="38.7279983" lon="16.4358867"><ele>491.0</ele><time>2026-03-29T12:23:20.582Z</time></trkpt><trkpt lat="38.7280833" lon="16.4361383"><ele>491.0</ele><time>2026-03-29T12:23:21.582Z</time></trkpt><trkpt lat="38.7281433" lon="16.4363633"><ele>491.0</ele><time>2026-03-29T12:23:22.582Z</time></trkpt><trkpt lat="38.7281717" lon="16.4366033"><ele>491.0</ele><time>2026-03-29T12:23:23.582Z</time></trkpt><trkpt lat="38.7281433" lon="16.4368817"><ele>491.0</ele><time>2026-03-29T12:23:24.582Z</time></trkpt><trkpt lat="38.728095" lon="16.4371267"><ele>491.0</ele><time>2026-03-29T12:23:25.583Z</time></trkpt><trkpt lat="38.7280767" lon="16.4373833"><ele>491.0</ele><time>2026-03-29T12:23:26.582Z</time></trkpt><trkpt lat="38.7280967" lon="16.4376517"><ele>491.0</ele><time>2026-03-29T12:23:27.582Z</time></trkpt><trkpt lat="38.728135" lon="16.4379117"><ele>491.0</ele><time>2026-03-29T12:23:28.582Z</time></trkpt><trkpt lat="38.7281867" lon="16.4381667"><ele>490.3333333333333</ele><time>2026-03-29T12:23:29.582Z</time></trkpt><trkpt lat="38.7282317" lon="16.4383983"><ele>489.66666666666663</ele><time>2026-03-29T12:23:30.582Z</time></trkpt><trkpt lat="38.7282483" lon="16.4386083"><ele>489.0</ele><time>2026-03-29T12:23:31.582Z</time></trkpt><trkpt lat="38.72823" lon="16.43882"><ele>488.66666666666663</ele><time>2026-03-29T12:23:32.582Z</time></trkpt><trkpt lat="38.7281833" lon="16.439045"><ele>488.3333333333333</ele><time>2026-03-29T12:23:33.582Z</time></trkpt><trkpt lat="38.72811" lon="16.439265"><ele>488.0</ele><time>2026-03-29T12:23:34.582Z</time></trkpt><trkpt lat="38.7280517" lon="16.439475"><ele>487.25</ele><time>2026-03-29T12:23:35.582Z</time></trkpt><trkpt lat="38.7280317" lon="16.4396683"><ele>486.5</ele><time>2026-03-29T12:23:36.582Z</time></trkpt><trkpt lat="38.7280533" lon="16.4398367"><ele>485.75</ele><time>2026-03-29T12:23:37.582Z</time></trkpt><trkpt lat="38.72811" lon="16.43999"><ele>485.0</ele><time>2026-03-29T12:23:38.582Z</time></trkpt><trkpt lat="38.7282067" lon="16.4401183"><ele>485.0</ele><time>2026-03-29T12:23:39.582Z</time></trkpt><trkpt lat="38.7283333" lon="16.4402267"><ele>485.0</ele><time>2026-03-29T12:23:40.582Z</time></trkpt><trkpt lat="38.7284967" lon="16.4402967"><ele>485.0</ele><time>2026-03-29T12:23:41.583Z</time></trkpt><trkpt lat="38.7286767" lon="16.44034"><ele>484.0</ele><time>2026-03-29T12:23:42.582Z</time></trkpt><trkpt lat="38.72887" lon="16.4403633"><ele>483.0</ele><time>2026-03-29T12:23:43.582Z</time></trkpt><trkpt lat="38.729065" lon="16.4404067"><ele>482.0</ele><time>2026-03-29T12:23:44.582Z</time></trkpt><trkpt lat="38.7292467" lon="16.4404883"><ele>483.3333333333333</ele><time>2026-03-29T12:23:45.582Z</time></trkpt><trkpt lat="38.7293983" lon="16.44058"><ele>484.66666666666663</ele><time>2026-03-29T12:23:46.582Z</time></trkpt><trkpt lat="38.7295467" lon="16.4406533"><ele>486.0</ele><time>2026-03-29T12:23:47.582Z</time></trkpt><trkpt lat="38.7297017" lon="16.4406917"><ele>486.0</ele><time>2026-03-29T12:23:48.582Z</time></trkpt><trkpt lat="38.72987" lon="16.4406583"><ele>486.0</ele><time>2026-03-29T12:23:49.582Z</time></trkpt><trkpt lat="38.73004" lon="16.440565"><ele>486.0</ele><time>2026-03-29T12:23:50.582Z</time></trkpt><trkpt lat="38.730205" lon="16.4404283"><ele>487.66666666666663</ele><time>2026-03-29T12:23:51.582Z</time></trkpt><trkpt lat="38.73035" lon="16.440245"><ele>489.3333333333333</ele><time>2026-03-29T12:23:52.582Z</time></trkpt><trkpt lat="38.7304683" lon="16.440055"><ele>491.0</ele><time>2026-03-29T12:23:53.582Z</time></trkpt><trkpt lat="38.7306" lon="16.439865"><ele>491.0</ele><time>2026-03-29T12:23:54.582Z</time></trkpt><trkpt lat="38.73075" lon="16.4397283"><ele>491.0</ele><time>2026-03-29T12:23:55.582Z</time></trkpt><trkpt lat="38.730925" lon="16.4396317"><ele>491.0</ele><time>2026-03-29T12:23:56.582Z</time></trkpt><trkpt lat="38.7310767" lon="16.4395583"><ele>493.66666666666663</ele><time>2026-03-29T12:23:57.582Z</time></trkpt><trkpt lat="38.7312133" lon="16.4394433"><ele>496.33333333333337</ele><time>2026-03-29T12:23:58.582Z</time></trkpt><trkpt lat="38.73133" lon="16.4392833"><ele>499.0</ele><time>2026-03-29T12:23:59.582Z</time></trkpt><trkpt lat="38.731435" lon="16.4390917"><ele>499.0</ele><time>2026-03-29T12:24:00.582Z</time></trkpt><trkpt lat="38.7315383" lon="16.438855"><ele>499.0</ele><time>2026-03-29T12:24:01.582Z</time></trkpt><trkpt lat="38.731655" lon="16.4386483"><ele>499.0</ele><time>2026-03-29T12:24:02.582Z</time></trkpt><trkpt lat="38.73176" lon="16.4385133"><ele>500.0</ele><time>2026-03-29T12:24:03.582Z</time></trkpt><trkpt lat="38.7318483" lon="16.43842"><ele>501.0</ele><time>2026-03-29T12:24:04.582Z</time></trkpt><trkpt lat="38.7319383" lon="16.4384117"><ele>502.0</ele><time>2026-03-29T12:24:05.582Z</time></trkpt><trkpt lat="38.7320283" lon="16.438465"><ele>503.0</ele><time>2026-03-29T12:24:06.582Z</time></trkpt><trkpt lat="38.7320933" lon="16.4385867"><ele>504.0</ele><time>2026-03-29T12:24:07.582Z</time></trkpt><trkpt lat="38.73213" lon="16.43873"><ele>507.66666666666663</ele><time>2026-03-29T12:24:08.582Z</time></trkpt><trkpt lat="38.7321383" lon="16.438895"><ele>511.3333333333333</ele><time>2026-03-29T12:24:09.582Z</time></trkpt><trkpt lat="38.7320967" lon="16.4391033"><ele>515.0</ele><time>2026-03-29T12:24:10.582Z</time></trkpt><trkpt lat="38.7320117" lon="16.4393417"><ele>515.0</ele><time>2026-03-29T12:24:11.582Z</time></trkpt><trkpt lat="38.7319" lon="16.4396067"><ele>515.0</ele><time>2026-03-29T12:24:12.582Z</time></trkpt><trkpt lat="38.7317833" lon="16.439855"><ele>511.0</ele><time>2026-03-29T12:24:13.582Z</time></trkpt><trkpt lat="38.731685" lon="16.44007"><ele>507.0</ele><time>2026-03-29T12:24:14.583Z</time></trkpt><trkpt lat="38.7316333" lon="16.4402767"><ele>503.0</ele><time>2026-03-29T12:24:15.582Z</time></trkpt><trkpt lat="38.7316367" lon="16.44049"><ele>503.0</ele><time>2026-03-29T12:24:16.582Z</time></trkpt><trkpt lat="38.73168" lon="16.4406867"><ele>503.0</ele><time>2026-03-29T12:24:17.582Z</time></trkpt><trkpt lat="38.7317767" lon="16.4408667"><ele>503.0</ele><time>2026-03-29T12:24:18.582Z</time></trkpt><trkpt lat="38.731915" lon="16.4410017"><ele>509.0</ele><time>2026-03-29T12:24:19.582Z</time></trkpt><trkpt lat="38.732055" lon="16.4411117"><ele>515.0</ele><time>2026-03-29T12:24:20.582Z</time></trkpt><trkpt lat="38.7321567" lon="16.4412067"><ele>521.0</ele><time>2026-03-29T12:24:21.582Z</time></trkpt><trkpt lat="38.7322083" lon="16.441305"><ele>527.0</ele><time>2026-03-29T12:24:22.583Z</time></trkpt><trkpt lat="38.73223" lon="16.4414067"><ele>527.5</ele><time>2026-03-29T12:24:23.582Z</time></trkpt><trkpt lat="38.7322117" lon="16.4414933"><ele>528.0</ele><time>2026-03-29T12:24:24.582Z</time></trkpt><trkpt lat="38.7321483" lon="16.441585"><ele>528.5</ele><time>2026-03-29T12:24:25.582Z</time></trkpt><trkpt lat="38.73202" lon="16.441675"><ele>529.0</ele><time>2026-03-29T12:24:26.582Z</time></trkpt><trkpt lat="38.73183" lon="16.44178"><ele>522.3333333333334</ele><time>2026-03-29T12:24:27.582Z</time></trkpt><trkpt lat="38.7316233" lon="16.44189"><ele>515.6666666666666</ele><time>2026-03-29T12:24:28.582Z</time></trkpt><trkpt lat="38.7314533" lon="16.4419867"><ele>509.0</ele><time>2026-03-29T12:24:29.582Z</time></trkpt><trkpt lat="38.7313483" lon="16.4420817"><ele>511.2</ele><time>2026-03-29T12:24:30.582Z</time></trkpt><trkpt lat="38.7312933" lon="16.4422067"><ele>513.4</ele><time>2026-03-29T12:24:31.582Z</time></trkpt><trkpt lat="38.7312817" lon="16.4423583"><ele>515.6</ele><time>2026-03-29T12:24:32.582Z</time></trkpt><trkpt lat="38.7312967" lon="16.442475"><ele>517.8</ele><time>2026-03-29T12:24:33.582Z</time></trkpt><trkpt lat="38.73136" lon="16.44258"><ele>520.0</ele><time>2026-03-29T12:24:34.582Z</time></trkpt><trkpt lat="38.7314533" lon="16.4426733"><ele>520.0</ele><time>2026-03-29T12:24:35.582Z</time></trkpt><trkpt lat="38.73155" lon="16.442755"><ele>520.0</ele><time>2026-03-29T12:24:36.582Z</time></trkpt><trkpt lat="38.7316583" lon="16.44285"><ele>520.0</ele><time>2026-03-29T12:24:37.583Z</time></trkpt><trkpt lat="38.731775" lon="16.44297"><ele>520.0</ele><time>2026-03-29T12:24:38.583Z</time></trkpt><trkpt lat="38.7319033" lon="16.4430983"><ele>524.75</ele><time>2026-03-29T12:24:39.583Z</time></trkpt><trkpt lat="38.73202" lon="16.443225"><ele>529.5</ele><time>2026-03-29T12:24:40.583Z</time></trkpt><trkpt lat="38.7321067" lon="16.44334"><ele>534.25</ele><time>2026-03-29T12:24:41.583Z</time></trkpt><trkpt lat="38.73215" lon="16.4434733"><ele>539.0</ele><time>2026-03-29T12:24:42.583Z</time></trkpt><trkpt lat="38.732165" lon="16.443615"><ele>539.0</ele><time>2026-03-29T12:24:43.583Z</time></trkpt><trkpt lat="38.7321617" lon="16.443765"><ele>539.0</ele><time>2026-03-29T12:24:44.583Z</time></trkpt><trkpt lat="38.7321283" lon="16.4439283"><ele>539.0</ele><time>2026-03-29T12:24:45.583Z</time></trkpt><trkpt lat="38.7320467" lon="16.4441217"><ele>539.0</ele><time>2026-03-29T12:24:46.583Z</time></trkpt><trkpt lat="38.7319783" lon="16.4443517"><ele>541.3333333333333</ele><time>2026-03-29T12:24:47.583Z</time></trkpt><trkpt lat="38.7319467" lon="16.4445767"><ele>543.6666666666666</ele><time>2026-03-29T12:24:48.583Z</time></trkpt><trkpt lat="38.73194" lon="16.4447833"><ele>546.0</ele><time>2026-03-29T12:24:49.583Z</time></trkpt><trkpt lat="38.731945" lon="16.4449633"><ele>546.0</ele><time>2026-03-29T12:24:50.583Z</time></trkpt><trkpt lat="38.73195" lon="16.44511"><ele>546.0</ele><time>2026-03-29T12:24:51.583Z</time></trkpt><trkpt lat="38.731955" lon="16.4452183"><ele>546.0</ele><time>2026-03-29T12:24:52.583Z</time></trkpt><trkpt lat="38.7319633" lon="16.445305"><ele>546.0</ele><time>2026-03-29T12:24:53.583Z</time></trkpt><trkpt lat="38.7319883" lon="16.44542"><ele>546.0</ele><time>2026-03-29T12:24:55.583Z</time></trkpt><trkpt lat="38.73201" lon="16.4455033"><ele>546.0</ele><time>2026-03-29T12:24:57.583Z</time></trkpt><trkpt lat="38.7320467" lon="16.4455817"><ele>545.4</ele><time>2026-03-29T12:24:59.583Z</time></trkpt><trkpt lat="38.7321067" lon="16.4456817"><ele>544.8</ele><time>2026-03-29T12:25:03.583Z</time></trkpt><trkpt lat="38.7321783" lon="16.445815"><ele>544.1999999999999</ele><time>2026-03-29T12:25:05.583Z</time></trkpt><trkpt lat="38.73222" lon="16.4459133"><ele>543.6</ele><time>2026-03-29T12:25:06.583Z</time></trkpt><trkpt lat="38.7322667" lon="16.44603"><ele>543.0</ele><time>2026-03-29T12:25:07.583Z</time></trkpt><trkpt lat="38.7323317" lon="16.4461383"><ele>543.0</ele><time>2026-03-29T12:25:08.583Z</time></trkpt><trkpt lat="38.7324083" lon="16.446225"><ele>543.0</ele><time>2026-03-29T12:25:09.583Z</time></trkpt><trkpt lat="38.7325" lon="16.44625"><ele>543.0</ele><time>2026-03-29T12:25:10.583Z</time></trkpt><trkpt lat="38.73259" lon="16.4462217"><ele>543.0</ele><time>2026-03-29T12:25:11.583Z</time></trkpt><trkpt lat="38.7326633" lon="16.44615"><ele>543.0</ele><time>2026-03-29T12:25:12.583Z</time></trkpt><trkpt lat="38.732715" lon="16.4460233"><ele>543.0</ele><time>2026-03-29T12:25:13.583Z</time></trkpt><trkpt lat="38.7327267" lon="16.4458517"><ele>543.0</ele><time>2026-03-29T12:25:14.584Z</time></trkpt><trkpt lat="38.7327017" lon="16.4456433"><ele>543.0</ele><time>2026-03-29T12:25:15.583Z</time></trkpt><trkpt lat="38.732695" lon="16.4454633"><ele>543.0</ele><time>2026-03-29T12:25:16.583Z</time></trkpt><trkpt lat="38.73273" lon="16.4453517"><ele>545.75</ele><time>2026-03-29T12:25:17.583Z</time></trkpt><trkpt lat="38.73283" lon="16.4453083"><ele>548.5</ele><time>2026-03-29T12:25:19.583Z</time></trkpt><trkpt lat="38.732885" lon="16.445385"><ele>551.25</ele><time>2026-03-29T12:25:20.583Z</time></trkpt><trkpt lat="38.7329517" lon="16.445555"><ele>554.0</ele><time>2026-03-29T12:25:21.583Z</time></trkpt><trkpt lat="38.7330117" lon="16.44577"><ele>554.0</ele><time>2026-03-29T12:25:22.583Z</time></trkpt><trkpt lat="38.7330733" lon="16.4459133"><ele>554.0</ele><time>2026-03-29T12:25:23.583Z</time></trkpt><trkpt lat="38.7331517" lon="16.4459733"><ele>554.0</ele><time>2026-03-29T12:25:24.583Z</time></trkpt><trkpt lat="38.7332633" lon="16.4458983"><ele>554.0</ele><time>2026-03-29T12:25:26.583Z</time></trkpt><trkpt lat="38.7332817" lon="16.4457617"><ele>554.0</ele><time>2026-03-29T12:25:27.583Z</time></trkpt><trkpt lat="38.733265" lon="16.4455483"><ele>554.0</ele><time>2026-03-29T12:25:28.583Z</time></trkpt><trkpt lat="38.7332283" lon="16.44527"><ele>554.0</ele><time>2026-03-29T12:25:29.583Z</time></trkpt><trkpt lat="38.7332133" lon="16.4449783"><ele>556.0</ele><time>2026-03-29T12:25:30.583Z</time></trkpt><trkpt lat="38.73323" lon="16.4447517"><ele>558.0</ele><time>2026-03-29T12:25:31.583Z</time></trkpt><trkpt lat="38.7332867" lon="16.444575"><ele>560.0</ele><time>2026-03-29T12:25:32.583Z</time></trkpt><trkpt lat="38.733375" lon="16.4444467"><ele>560.0</ele><time>2026-03-29T12:25:33.583Z</time></trkpt><trkpt lat="38.7334917" lon="16.4443517"><ele>560.0</ele><time>2026-03-29T12:25:34.583Z</time></trkpt><trkpt lat="38.7336183" lon="16.4443133"><ele>560.0</ele><time>2026-03-29T12:25:35.583Z</time></trkpt><trkpt lat="38.733765" lon="16.4443317"><ele>560.0</ele><time>2026-03-29T12:25:36.583Z</time></trkpt><trkpt lat="38.73391" lon="16.4444017"><ele>562.6666666666666</ele><time>2026-03-29T12:25:37.583Z</time></trkpt><trkpt lat="38.7340733" lon="16.444525"><ele>565.3333333333334</ele><time>2026-03-29T12:25:38.583Z</time></trkpt><trkpt lat="38.7342467" lon="16.4446967"><ele>568.0</ele><time>2026-03-29T12:25:39.584Z</time></trkpt><trkpt lat="38.7344367" lon="16.444915"><ele>571.5</ele><time>2026-03-29T12:25:40.583Z</time></trkpt><trkpt lat="38.7346633" lon="16.4451533"><ele>575.0</ele><time>2026-03-29T12:25:41.583Z</time></trkpt><trkpt lat="38.7349083" lon="16.4454133"><ele>574.0</ele><time>2026-03-29T12:25:42.583Z</time></trkpt><trkpt lat="38.7351733" lon="16.4456883"><ele>573.0</ele><time>2026-03-29T12:25:43.583Z</time></trkpt><trkpt lat="38.7354517" lon="16.445975"><ele>576.0</ele><time>2026-03-29T12:25:44.583Z</time></trkpt><trkpt lat="38.73571" lon="16.4462383"><ele>579.0</ele><time>2026-03-29T12:25:45.583Z</time></trkpt><trkpt lat="38.7359433" lon="16.446495"><ele>582.5</ele><time>2026-03-29T12:25:46.583Z</time></trkpt><trkpt lat="38.7361583" lon="16.44673"><ele>586.0</ele><time>2026-03-29T12:25:47.583Z</time></trkpt><trkpt lat="38.73635" lon="16.4469317"><ele>586.0</ele><time>2026-03-29T12:25:48.584Z</time></trkpt><trkpt lat="38.736515" lon="16.4471217"><ele>586.0</ele><time>2026-03-29T12:25:49.583Z</time></trkpt><trkpt lat="38.736675" lon="16.4472983"><ele>586.0</ele><time>2026-03-29T12:25:50.583Z</time></trkpt><trkpt lat="38.736835" lon="16.4474533"><ele>585.3333333333334</ele><time>2026-03-29T12:25:51.583Z</time></trkpt><trkpt lat="38.737" lon="16.44762"><ele>584.6666666666666</ele><time>2026-03-29T12:25:52.583Z</time></trkpt><trkpt lat="38.737175" lon="16.4477933"><ele>584.0</ele><time>2026-03-29T12:25:53.583Z</time></trkpt><trkpt lat="38.7373467" lon="16.447965"><ele>583.6666666666666</ele><time>2026-03-29T12:25:54.583Z</time></trkpt><trkpt lat="38.7375067" lon="16.4481133"><ele>583.3333333333334</ele><time>2026-03-29T12:25:55.583Z</time></trkpt><trkpt lat="38.7376617" lon="16.448255"><ele>583.0</ele><time>2026-03-29T12:25:56.583Z</time></trkpt><trkpt lat="38.73782" lon="16.4483917"><ele>583.0</ele><time>2026-03-29T12:25:57.583Z</time></trkpt><trkpt lat="38.7379967" lon="16.4484783"><ele>583.0</ele><time>2026-03-29T12:25:58.583Z</time></trkpt><trkpt lat="38.7381683" lon="16.4485217"><ele>583.0</ele><time>2026-03-29T12:25:59.583Z</time></trkpt><trkpt lat="38.7383417" lon="16.4485633"><ele>583.0</ele><time>2026-03-29T12:26:00.583Z</time></trkpt><trkpt lat="38.7385083" lon="16.4486417"><ele>583.0</ele><time>2026-03-29T12:26:01.583Z</time></trkpt><trkpt lat="38.73865" lon="16.4487567"><ele>583.0</ele><time>2026-03-29T12:26:02.583Z</time></trkpt><trkpt lat="38.7387717" lon="16.4489083"><ele>584.0</ele><time>2026-03-29T12:26:03.583Z</time></trkpt><trkpt lat="38.7388817" lon="16.4490833"><ele>585.0</ele><time>2026-03-29T12:26:04.583Z</time></trkpt><trkpt lat="38.7389933" lon="16.4492817"><ele>586.0</ele><time>2026-03-29T12:26:05.583Z</time></trkpt><trkpt lat="38.739105" lon="16.44951"><ele>586.0</ele><time>2026-03-29T12:26:06.583Z</time></trkpt><trkpt lat="38.7392183" lon="16.4497467"><ele>586.0</ele><time>2026-03-29T12:26:07.583Z</time></trkpt><trkpt lat="38.7393417" lon="16.4499633"><ele>586.0</ele><time>2026-03-29T12:26:08.583Z</time></trkpt><trkpt lat="38.7394917" lon="16.4501667"><ele>588.5</ele><time>2026-03-29T12:26:09.583Z</time></trkpt><trkpt lat="38.73966" lon="16.45036"><ele>591.0</ele><time>2026-03-29T12:26:10.583Z</time></trkpt><trkpt lat="38.7398533" lon="16.450555"><ele>591.0</ele><time>2026-03-29T12:26:11.583Z</time></trkpt><trkpt lat="38.740035" lon="16.4507533"><ele>591.0</ele><time>2026-03-29T12:26:12.583Z</time></trkpt><trkpt lat="38.740195" lon="16.4509233"><ele>591.0</ele><time>2026-03-29T12:26:13.583Z</time></trkpt><trkpt lat="38.7403267" lon="16.4510817"><ele>593.0</ele><time>2026-03-29T12:26:14.583Z</time></trkpt><trkpt lat="38.74044" lon="16.45126"><ele>595.0</ele><time>2026-03-29T12:26:15.584Z</time></trkpt><trkpt lat="38.7405367" lon="16.4514817"><ele>597.0</ele><time>2026-03-29T12:26:16.583Z</time></trkpt><trkpt lat="38.740635" lon="16.4517167"><ele>597.0</ele><time>2026-03-29T12:26:17.583Z</time></trkpt><trkpt lat="38.7407383" lon="16.4519933"><ele>597.0</ele><time>2026-03-29T12:26:18.583Z</time></trkpt><trkpt lat="38.7408567" lon="16.4522967"><ele>597.0</ele><time>2026-03-29T12:26:19.583Z</time></trkpt><trkpt lat="38.74097" lon="16.4525967"><ele>597.0</ele><time>2026-03-29T12:26:20.583Z</time></trkpt><trkpt lat="38.741075" lon="16.4528733"><ele>596.0</ele><time>2026-03-29T12:26:21.583Z</time></trkpt><trkpt lat="38.7411883" lon="16.45318"><ele>595.0</ele><time>2026-03-29T12:26:22.583Z</time></trkpt><trkpt lat="38.7413067" lon="16.4534917"><ele>593.5</ele><time>2026-03-29T12:26:23.583Z</time></trkpt><trkpt lat="38.7414167" lon="16.4537983"><ele>592.0</ele><time>2026-03-29T12:26:24.583Z</time></trkpt><trkpt lat="38.7415133" lon="16.4540733"><ele>592.0</ele><time>2026-03-29T12:26:25.583Z</time></trkpt><trkpt lat="38.7416117" lon="16.4543267"><ele>592.0</ele><time>2026-03-29T12:26:26.583Z</time></trkpt><trkpt lat="38.741705" lon="16.4545983"><ele>591.0</ele><time>2026-03-29T12:26:27.583Z</time></trkpt><trkpt lat="38.7417817" lon="16.4548917"><ele>590.0</ele><time>2026-03-29T12:26:28.583Z</time></trkpt><trkpt lat="38.7418517" lon="16.45521"><ele>585.0</ele><time>2026-03-29T12:26:29.583Z</time></trkpt><trkpt lat="38.7418983" lon="16.4555367"><ele>580.0</ele><time>2026-03-29T12:26:30.583Z</time></trkpt><trkpt lat="38.7419417" lon="16.4558367"><ele>580.0</ele><time>2026-03-29T12:26:31.584Z</time></trkpt><trkpt lat="38.74198" lon="16.4560583"><ele>580.0</ele><time>2026-03-29T12:26:32.583Z</time></trkpt><trkpt lat="38.7420083" lon="16.4562217"><ele>580.0</ele><time>2026-03-29T12:26:33.583Z</time></trkpt><trkpt lat="38.7420533" lon="16.4563483"><ele>580.0</ele><time>2026-03-29T12:26:34.583Z</time></trkpt><trkpt lat="38.7421167" lon="16.4564317"><ele>580.0</ele><time>2026-03-29T12:26:35.583Z</time></trkpt><trkpt lat="38.7422117" lon="16.4564767"><ele>580.0</ele><time>2026-03-29T12:26:36.583Z</time></trkpt><trkpt lat="38.742325" lon="16.45647"><ele>580.0</ele><time>2026-03-29T12:26:37.583Z</time></trkpt><trkpt lat="38.7424517" lon="16.456405"><ele>580.0</ele><time>2026-03-29T12:26:38.583Z</time></trkpt><trkpt lat="38.7425817" lon="16.4562833"><ele>580.0</ele><time>2026-03-29T12:26:39.583Z</time></trkpt><trkpt lat="38.7427067" lon="16.45615"><ele>580.0</ele><time>2026-03-29T12:26:40.583Z</time></trkpt><trkpt lat="38.74282" lon="16.4560383"><ele>580.0</ele><time>2026-03-29T12:26:41.583Z</time></trkpt><trkpt lat="38.742925" lon="16.4559817"><ele>580.0</ele><time>2026-03-29T12:26:42.583Z</time></trkpt><trkpt lat="38.743035" lon="16.45597"><ele>579.5</ele><time>2026-03-29T12:26:43.583Z</time></trkpt><trkpt lat="38.7431533" lon="16.4560117"><ele>579.0</ele><time>2026-03-29T12:26:44.583Z</time></trkpt><trkpt lat="38.7432533" lon="16.4561183"><ele>578.5</ele><time>2026-03-29T12:26:45.583Z</time></trkpt><trkpt lat="38.743355" lon="16.4562767"><ele>578.0</ele><time>2026-03-29T12:26:46.583Z</time></trkpt><trkpt lat="38.74344" lon="16.45648"><ele>578.0</ele><time>2026-03-29T12:26:47.583Z</time></trkpt><trkpt lat="38.7435183" lon="16.4566833"><ele>578.0</ele><time>2026-03-29T12:26:48.583Z</time></trkpt><trkpt lat="38.743605" lon="16.4568867"><ele>578.0</ele><time>2026-03-29T12:26:49.583Z</time></trkpt><trkpt lat="38.74371" lon="16.4570617"><ele>576.75</ele><time>2026-03-29T12:26:50.583Z</time></trkpt><trkpt lat="38.743805" lon="16.457225"><ele>575.5</ele><time>2026-03-29T12:26:51.583Z</time></trkpt><trkpt lat="38.7439033" lon="16.4573483"><ele>574.25</ele><time>2026-03-29T12:26:52.583Z</time></trkpt><trkpt lat="38.7439933" lon="16.4574233"><ele>573.0</ele><time>2026-03-29T12:26:53.583Z</time></trkpt><trkpt lat="38.74407" lon="16.457455"><ele>573.0</ele><time>2026-03-29T12:26:54.583Z</time></trkpt><trkpt lat="38.7441883" lon="16.4574283"><ele>573.0</ele><time>2026-03-29T12:26:56.583Z</time></trkpt><trkpt lat="38.74421" lon="16.4573517"><ele>573.0</ele><time>2026-03-29T12:26:58.583Z</time></trkpt><trkpt lat="38.7441833" lon="16.4572783"><ele>573.0</ele><time>2026-03-29T12:27:00.583Z</time></trkpt><trkpt lat="38.7441283" lon="16.4571483"><ele>573.0</ele><time>2026-03-29T12:27:06.583Z</time></trkpt><trkpt lat="38.7440667" lon="16.4570317"><ele>569.3333333333334</ele><time>2026-03-29T12:27:07.583Z</time></trkpt><trkpt lat="38.7439817" lon="16.456885"><ele>565.6666666666667</ele><time>2026-03-29T12:27:08.583Z</time></trkpt><trkpt lat="38.7438983" lon="16.45667"><ele>562.0</ele><time>2026-03-29T12:27:09.583Z</time></trkpt><trkpt lat="38.743865" lon="16.45644"><ele>559.0</ele><time>2026-03-29T12:27:10.584Z</time></trkpt><trkpt lat="38.7438533" lon="16.4562183"><ele>556.0</ele><time>2026-03-29T12:27:11.583Z</time></trkpt><trkpt lat="38.743855" lon="16.4560033"><ele>553.0</ele><time>2026-03-29T12:27:12.583Z</time></trkpt><trkpt lat="38.7438233" lon="16.4557917"><ele>553.0</ele><time>2026-03-29T12:27:13.583Z</time></trkpt><trkpt lat="38.743765" lon="16.4556017"><ele>553.0</ele><time>2026-03-29T12:27:14.583Z</time></trkpt><trkpt lat="38.74374" lon="16.45541"><ele>553.0</ele><time>2026-03-29T12:27:15.583Z</time></trkpt><trkpt lat="38.74374" lon="16.4552067"><ele>551.0</ele><time>2026-03-29T12:27:16.583Z</time></trkpt><trkpt lat="38.7437467" lon="16.4550333"><ele>549.0</ele><time>2026-03-29T12:27:17.583Z</time></trkpt><trkpt lat="38.7437383" lon="16.4548817"><ele>547.0</ele><time>2026-03-29T12:27:18.583Z</time></trkpt><trkpt lat="38.7437" lon="16.45475"><ele>545.0</ele><time>2026-03-29T12:27:19.583Z</time></trkpt><trkpt lat="38.74365" lon="16.4546383"><ele>543.6666666666666</ele><time>2026-03-29T12:27:20.583Z</time></trkpt><trkpt lat="38.74357" lon="16.4545667"><ele>542.3333333333333</ele><time>2026-03-29T12:27:21.583Z</time></trkpt><trkpt lat="38.7434867" lon="16.4545317"><ele>541.0</ele><time>2026-03-29T12:27:22.583Z</time></trkpt><trkpt lat="38.743405" lon="16.4545183"><ele>539.6666666666666</ele><time>2026-03-29T12:27:23.583Z</time></trkpt><trkpt lat="38.7433283" lon="16.4545117"><ele>538.3333333333334</ele><time>2026-03-29T12:27:24.583Z</time></trkpt><trkpt lat="38.743265" lon="16.4544767"><ele>537.0</ele><time>2026-03-29T12:27:25.583Z</time></trkpt><trkpt lat="38.74321" lon="16.45433"><ele>538.6</ele><time>2026-03-29T12:27:27.583Z</time></trkpt><trkpt lat="38.743195" lon="16.4542333"><ele>540.2</ele><time>2026-03-29T12:27:28.583Z</time></trkpt><trkpt lat="38.743195" lon="16.454125"><ele>541.8</ele><time>2026-03-29T12:27:29.583Z</time></trkpt><trkpt lat="38.743195" lon="16.4540067"><ele>543.4</ele><time>2026-03-29T12:27:30.583Z</time></trkpt><trkpt lat="38.7431867" lon="16.45388"><ele>545.0</ele><time>2026-03-29T12:27:31.584Z</time></trkpt><trkpt lat="38.7431933" lon="16.453745"><ele>545.0</ele><time>2026-03-29T12:27:32.583Z</time></trkpt><trkpt lat="38.7431983" lon="16.453605"><ele>545.0</ele><time>2026-03-29T12:27:33.583Z</time></trkpt><trkpt lat="38.7432067" lon="16.4534583"><ele>545.0</ele><time>2026-03-29T12:27:34.583Z</time></trkpt><trkpt lat="38.743185" lon="16.453285"><ele>545.0</ele><time>2026-03-29T12:27:35.583Z</time></trkpt><trkpt lat="38.7431733" lon="16.4530767"><ele>543.6666666666666</ele><time>2026-03-29T12:27:36.583Z</time></trkpt><trkpt lat="38.74317" lon="16.4528667"><ele>542.3333333333334</ele><time>2026-03-29T12:27:37.583Z</time></trkpt><trkpt lat="38.7431817" lon="16.4526533"><ele>541.0</ele><time>2026-03-29T12:27:38.583Z</time></trkpt><trkpt lat="38.743205" lon="16.4524233"><ele>541.0</ele><time>2026-03-29T12:27:39.583Z</time></trkpt><trkpt lat="38.743225" lon="16.4522083"><ele>541.0</ele><time>2026-03-29T12:27:40.583Z</time></trkpt><trkpt lat="38.7432667" lon="16.4520183"><ele>541.0</ele><time>2026-03-29T12:27:41.583Z</time></trkpt><trkpt lat="38.743315" lon="16.451855"><ele>542.3333333333334</ele><time>2026-03-29T12:27:42.583Z</time></trkpt><trkpt lat="38.743395" lon="16.4517017"><ele>543.6666666666666</ele><time>2026-03-29T12:27:43.583Z</time></trkpt><trkpt lat="38.743525" lon="16.451565"><ele>545.0</ele><time>2026-03-29T12:27:44.583Z</time></trkpt><trkpt lat="38.743685" lon="16.45145"><ele>540.6666666666666</ele><time>2026-03-29T12:27:45.583Z</time></trkpt><trkpt lat="38.743875" lon="16.45133"><ele>536.3333333333334</ele><time>2026-03-29T12:27:46.583Z</time></trkpt><trkpt lat="38.7440233" lon="16.4511933"><ele>532.0</ele><time>2026-03-29T12:27:47.583Z</time></trkpt><trkpt lat="38.744155" lon="16.4509933"><ele>532.0</ele><time>2026-03-29T12:27:48.584Z</time></trkpt><trkpt lat="38.744275" lon="16.4507683"><ele>532.0</ele><time>2026-03-29T12:27:49.583Z</time></trkpt><trkpt lat="38.7443767" lon="16.4505433"><ele>532.0</ele><time>2026-03-29T12:27:50.583Z</time></trkpt><trkpt lat="38.7444683" lon="16.45036"><ele>527.3333333333334</ele><time>2026-03-29T12:27:51.583Z</time></trkpt><trkpt lat="38.74453" lon="16.4501683"><ele>522.6666666666666</ele><time>2026-03-29T12:27:52.583Z</time></trkpt><trkpt lat="38.7445483" lon="16.449945"><ele>518.0</ele><time>2026-03-29T12:27:53.583Z</time></trkpt><trkpt lat="38.74453" lon="16.4496783"><ele>522.5</ele><time>2026-03-29T12:27:54.583Z</time></trkpt><trkpt lat="38.7445067" lon="16.4493883"><ele>527.0</ele><time>2026-03-29T12:27:55.583Z</time></trkpt><trkpt lat="38.7444883" lon="16.4491033"><ele>527.0</ele><time>2026-03-29T12:27:56.583Z</time></trkpt><trkpt lat="38.74447" lon="16.4488767"><ele>527.0</ele><time>2026-03-29T12:27:57.583Z</time></trkpt><trkpt lat="38.74447" lon="16.4487083"><ele>527.0</ele><time>2026-03-29T12:27:58.583Z</time></trkpt><trkpt lat="38.7445033" lon="16.4485783"><ele>527.0</ele><time>2026-03-29T12:27:59.583Z</time></trkpt><trkpt lat="38.7445633" lon="16.4485133"><ele>527.0</ele><time>2026-03-29T12:28:00.583Z</time></trkpt><trkpt lat="38.7446483" lon="16.4485117"><ele>527.0</ele><time>2026-03-29T12:28:01.583Z</time></trkpt><trkpt lat="38.7447383" lon="16.4485667"><ele>527.0</ele><time>2026-03-29T12:28:02.583Z</time></trkpt><trkpt lat="38.744845" lon="16.4486633"><ele>527.0</ele><time>2026-03-29T12:28:03.584Z</time></trkpt><trkpt lat="38.7449583" lon="16.4488383"><ele>527.0</ele><time>2026-03-29T12:28:04.583Z</time></trkpt><trkpt lat="38.74509" lon="16.4490567"><ele>527.0</ele><time>2026-03-29T12:28:05.583Z</time></trkpt><trkpt lat="38.7452467" lon="16.4492967"><ele>530.0</ele><time>2026-03-29T12:28:06.583Z</time></trkpt><trkpt lat="38.7453917" lon="16.44953"><ele>533.0</ele><time>2026-03-29T12:28:07.583Z</time></trkpt><trkpt lat="38.7455217" lon="16.4497783"><ele>533.0</ele><time>2026-03-29T12:28:08.583Z</time></trkpt><trkpt lat="38.7456267" lon="16.4500317"><ele>533.0</ele><time>2026-03-29T12:28:09.583Z</time></trkpt><trkpt lat="38.7456983" lon="16.45027"><ele>533.0</ele><time>2026-03-29T12:28:10.583Z</time></trkpt><trkpt lat="38.74578" lon="16.4504583"><ele>533.3333333333333</ele><time>2026-03-29T12:28:11.583Z</time></trkpt><trkpt lat="38.7458883" lon="16.450615"><ele>533.6666666666666</ele><time>2026-03-29T12:28:12.583Z</time></trkpt><trkpt lat="38.746015" lon="16.4507333"><ele>534.0</ele><time>2026-03-29T12:28:13.583Z</time></trkpt><trkpt lat="38.746155" lon="16.4508167"><ele>534.0</ele><time>2026-03-29T12:28:14.583Z</time></trkpt><trkpt lat="38.7462817" lon="16.45088"><ele>534.0</ele><time>2026-03-29T12:28:15.583Z</time></trkpt><trkpt lat="38.7464117" lon="16.4509567"><ele>534.0</ele><time>2026-03-29T12:28:16.583Z</time></trkpt><trkpt lat="38.7465267" lon="16.4510717"><ele>534.0</ele><time>2026-03-29T12:28:17.583Z</time></trkpt><trkpt lat="38.7466267" lon="16.4512117"><ele>532.25</ele><time>2026-03-29T12:28:18.583Z</time></trkpt><trkpt lat="38.7467117" lon="16.45136"><ele>530.5</ele><time>2026-03-29T12:28:19.583Z</time></trkpt><trkpt lat="38.7467783" lon="16.4515167"><ele>528.75</ele><time>2026-03-29T12:28:20.583Z</time></trkpt><trkpt lat="38.7468317" lon="16.4516867"><ele>527.0</ele><time>2026-03-29T12:28:21.583Z</time></trkpt><trkpt lat="38.7468567" lon="16.4518633"><ele>527.0</ele><time>2026-03-29T12:28:22.584Z</time></trkpt><trkpt lat="38.7468817" lon="16.4520517"><ele>527.0</ele><time>2026-03-29T12:28:23.583Z</time></trkpt><trkpt lat="38.7469167" lon="16.4522267"><ele>527.0</ele><time>2026-03-29T12:28:24.583Z</time></trkpt><trkpt lat="38.74698" lon="16.4523917"><ele>527.0</ele><time>2026-03-29T12:28:25.583Z</time></trkpt><trkpt lat="38.747055" lon="16.4525583"><ele>527.0</ele><time>2026-03-29T12:28:26.583Z</time></trkpt><trkpt lat="38.7471417" lon="16.4527133"><ele>527.0</ele><time>2026-03-29T12:28:27.583Z</time></trkpt><trkpt lat="38.74724" lon="16.4528533"><ele>527.0</ele><time>2026-03-29T12:28:28.583Z</time></trkpt><trkpt lat="38.74733" lon="16.45299"><ele>527.0</ele><time>2026-03-29T12:28:29.583Z</time></trkpt><trkpt lat="38.74741" lon="16.4531217"><ele>526.75</ele><time>2026-03-29T12:28:30.583Z</time></trkpt><trkpt lat="38.7474983" lon="16.4532483"><ele>526.5</ele><time>2026-03-29T12:28:31.583Z</time></trkpt><trkpt lat="38.7475817" lon="16.453385"><ele>526.25</ele><time>2026-03-29T12:28:32.583Z</time></trkpt><trkpt lat="38.7476633" lon="16.4535217"><ele>526.0</ele><time>2026-03-29T12:28:33.583Z</time></trkpt><trkpt lat="38.7477533" lon="16.4536433"><ele>523.3333333333334</ele><time>2026-03-29T12:28:34.583Z</time></trkpt><trkpt lat="38.7478517" lon="16.4537817"><ele>520.6666666666666</ele><time>2026-03-29T12:28:35.583Z</time></trkpt><trkpt lat="38.7479517" lon="16.4539283"><ele>518.0</ele><time>2026-03-29T12:28:36.583Z</time></trkpt><trkpt lat="38.74805" lon="16.45408"><ele>518.0</ele><time>2026-03-29T12:28:37.583Z</time></trkpt><trkpt lat="38.7481667" lon="16.4542517"><ele>518.0</ele><time>2026-03-29T12:28:38.583Z</time></trkpt><trkpt lat="38.7482667" lon="16.454415"><ele>518.0</ele><time>2026-03-29T12:28:39.583Z</time></trkpt><trkpt lat="38.7483567" lon="16.4545733"><ele>518.1999999999999</ele><time>2026-03-29T12:28:40.583Z</time></trkpt><trkpt lat="38.7484267" lon="16.4547033"><ele>518.4</ele><time>2026-03-29T12:28:41.583Z</time></trkpt><trkpt lat="38.7484733" lon="16.4548"><ele>518.5999999999999</ele><time>2026-03-29T12:28:42.583Z</time></trkpt><trkpt lat="38.748545" lon="16.4549"><ele>518.8</ele><time>2026-03-29T12:28:44.583Z</time></trkpt><trkpt lat="38.7486083" lon="16.45495"><ele>519.0</ele><time>2026-03-29T12:28:46.583Z</time></trkpt><trkpt lat="38.7487133" lon="16.45497"><ele>516.6</ele><time>2026-03-29T12:28:48.583Z</time></trkpt><trkpt lat="38.7487733" lon="16.4549417"><ele>514.2</ele><time>2026-03-29T12:28:49.583Z</time></trkpt><trkpt lat="38.748845" lon="16.454795"><ele>511.80000000000007</ele><time>2026-03-29T12:28:51.583Z</time></trkpt><trkpt lat="38.7488617" lon="16.4546733"><ele>509.40000000000003</ele><time>2026-03-29T12:28:52.583Z</time></trkpt><trkpt lat="38.748865" lon="16.454535"><ele>507.0</ele><time>2026-03-29T12:28:53.583Z</time></trkpt><trkpt lat="38.7488683" lon="16.4543817"><ele>506.25</ele><time>2026-03-29T12:28:54.583Z</time></trkpt><trkpt lat="38.7488717" lon="16.4542267"><ele>505.5</ele><time>2026-03-29T12:28:55.583Z</time></trkpt><trkpt lat="38.7488867" lon="16.4540817"><ele>504.75</ele><time>2026-03-29T12:28:56.583Z</time></trkpt><trkpt lat="38.7489333" lon="16.4539467"><ele>504.0</ele><time>2026-03-29T12:28:57.583Z</time></trkpt><trkpt lat="38.7490067" lon="16.4538333"><ele>505.0</ele><time>2026-03-29T12:28:58.583Z</time></trkpt><trkpt lat="38.749115" lon="16.4537267"><ele>506.0</ele><time>2026-03-29T12:28:59.583Z</time></trkpt><trkpt lat="38.7492483" lon="16.453625"><ele>507.0</ele><time>2026-03-29T12:29:00.583Z</time></trkpt><trkpt lat="38.749375" lon="16.4535217"><ele>508.0</ele><time>2026-03-29T12:29:01.583Z</time></trkpt><trkpt lat="38.749495" lon="16.453415"><ele>506.0</ele><time>2026-03-29T12:29:02.583Z</time></trkpt><trkpt lat="38.74961" lon="16.4533217"><ele>504.0</ele><time>2026-03-29T12:29:03.583Z</time></trkpt><trkpt lat="38.7497183" lon="16.4532367"><ele>502.0</ele><time>2026-03-29T12:29:04.583Z</time></trkpt><trkpt lat="38.7498417" lon="16.4531767"><ele>500.0</ele><time>2026-03-29T12:29:05.583Z</time></trkpt><trkpt lat="38.7499733" lon="16.4531067"><ele>500.0</ele><time>2026-03-29T12:29:06.583Z</time></trkpt><trkpt lat="38.7501067" lon="16.4530583"><ele>500.0</ele><time>2026-03-29T12:29:07.583Z</time></trkpt><trkpt lat="38.75025" lon="16.453055"><ele>500.0</ele><time>2026-03-29T12:29:08.583Z</time></trkpt><trkpt lat="38.7503983" lon="16.453075"><ele>500.0</ele><time>2026-03-29T12:29:09.584Z</time></trkpt><trkpt lat="38.7505317" lon="16.4531133"><ele>499.6</ele><time>2026-03-29T12:29:10.583Z</time></trkpt><trkpt lat="38.75064" lon="16.4531617"><ele>499.2</ele><time>2026-03-29T12:29:11.583Z</time></trkpt><trkpt lat="38.7507333" lon="16.453215"><ele>498.79999999999995</ele><time>2026-03-29T12:29:12.583Z</time></trkpt><trkpt lat="38.75082" lon="16.45329"><ele>498.4</ele><time>2026-03-29T12:29:13.583Z</time></trkpt><trkpt lat="38.7509017" lon="16.45339"><ele>498.0</ele><time>2026-03-29T12:29:14.583Z</time></trkpt><trkpt lat="38.7509883" lon="16.4535067"><ele>499.79999999999995</ele><time>2026-03-29T12:29:15.583Z</time></trkpt><trkpt lat="38.7510733" lon="16.453625"><ele>501.59999999999997</ele><time>2026-03-29T12:29:16.583Z</time></trkpt><trkpt lat="38.7511417" lon="16.4537317"><ele>503.40000000000003</ele><time>2026-03-29T12:29:17.583Z</time></trkpt><trkpt lat="38.7511833" lon="16.4538367"><ele>505.20000000000005</ele><time>2026-03-29T12:29:18.583Z</time></trkpt><trkpt lat="38.7511983" lon="16.4539517"><ele>507.0</ele><time>2026-03-29T12:29:19.583Z</time></trkpt><trkpt lat="38.751165" lon="16.454065"><ele>507.33333333333337</ele><time>2026-03-29T12:29:20.583Z</time></trkpt><trkpt lat="38.7511033" lon="16.454195"><ele>507.6666666666667</ele><time>2026-03-29T12:29:21.583Z</time></trkpt><trkpt lat="38.7510117" lon="16.4543733"><ele>508.0</ele><time>2026-03-29T12:29:22.583Z</time></trkpt><trkpt lat="38.7509733" lon="16.4545983"><ele>500.0</ele><time>2026-03-29T12:29:23.583Z</time></trkpt><trkpt lat="38.7509667" lon="16.454855"><ele>492.0</ele><time>2026-03-29T12:29:24.583Z</time></trkpt><trkpt lat="38.7509883" lon="16.4551233"><ele>484.0</ele><time>2026-03-29T12:29:25.583Z</time></trkpt><trkpt lat="38.7510183" lon="16.455365"><ele>485.0</ele><time>2026-03-29T12:29:26.583Z</time></trkpt><trkpt lat="38.75105" lon="16.45554"><ele>486.0</ele><time>2026-03-29T12:29:27.583Z</time></trkpt><trkpt lat="38.7510867" lon="16.4556933"><ele>487.0</ele><time>2026-03-29T12:29:28.583Z</time></trkpt><trkpt lat="38.751165" lon="16.455845"><ele>488.0</ele><time>2026-03-29T12:29:29.583Z</time></trkpt><trkpt lat="38.7512933" lon="16.4559567"><ele>488.0</ele><time>2026-03-29T12:29:30.583Z</time></trkpt><trkpt lat="38.7514317" lon="16.4560433"><ele>488.0</ele><time>2026-03-29T12:29:31.583Z</time></trkpt><trkpt lat="38.7515633" lon="16.4561383"><ele>488.0</ele><time>2026-03-29T12:29:32.583Z</time></trkpt><trkpt lat="38.7516733" lon="16.4562583"><ele>488.0</ele><time>2026-03-29T12:29:33.583Z</time></trkpt><trkpt lat="38.7517783" lon="16.45641"><ele>484.25</ele><time>2026-03-29T12:29:34.583Z</time></trkpt><trkpt lat="38.751875" lon="16.45655"><ele>480.5</ele><time>2026-03-29T12:29:35.583Z</time></trkpt><trkpt lat="38.7519617" lon="16.4566633"><ele>476.75</ele><time>2026-03-29T12:29:36.583Z</time></trkpt><trkpt lat="38.7520467" lon="16.45674"><ele>473.0</ele><time>2026-03-29T12:29:37.583Z</time></trkpt><trkpt lat="38.7521467" lon="16.456795"><ele>473.0</ele><time>2026-03-29T12:29:38.583Z</time></trkpt><trkpt lat="38.7522733" lon="16.4568217"><ele>473.0</ele><time>2026-03-29T12:29:39.583Z</time></trkpt><trkpt lat="38.7524233" lon="16.4568133"><ele>473.0</ele><time>2026-03-29T12:29:40.583Z</time></trkpt><trkpt lat="38.752595" lon="16.456795"><ele>473.25</ele><time>2026-03-29T12:29:41.583Z</time></trkpt><trkpt lat="38.752745" lon="16.456795"><ele>473.5</ele><time>2026-03-29T12:29:42.583Z</time></trkpt><trkpt lat="38.7528783" lon="16.4568267"><ele>473.75</ele><time>2026-03-29T12:29:43.583Z</time></trkpt><trkpt lat="38.7530017" lon="16.45688"><ele>474.0</ele><time>2026-03-29T12:29:44.583Z</time></trkpt><trkpt lat="38.75312" lon="16.4569733"><ele>474.0</ele><time>2026-03-29T12:29:45.583Z</time></trkpt><trkpt lat="38.7532283" lon="16.4571117"><ele>474.0</ele><time>2026-03-29T12:29:46.583Z</time></trkpt><trkpt lat="38.7533617" lon="16.4572717"><ele>474.0</ele><time>2026-03-29T12:29:47.583Z</time></trkpt><trkpt lat="38.7534983" lon="16.457445"><ele>471.33333333333337</ele><time>2026-03-29T12:29:48.583Z</time></trkpt><trkpt lat="38.7536417" lon="16.4576133"><ele>468.6666666666667</ele><time>2026-03-29T12:29:49.583Z</time></trkpt><trkpt lat="38.7537683" lon="16.4577733"><ele>466.0</ele><time>2026-03-29T12:29:50.583Z</time></trkpt><trkpt lat="38.7538667" lon="16.4579417"><ele>463.75</ele><time>2026-03-29T12:29:51.583Z</time></trkpt><trkpt lat="38.753945" lon="16.4581033"><ele>461.5</ele><time>2026-03-29T12:29:52.583Z</time></trkpt><trkpt lat="38.7539983" lon="16.4582533"><ele>459.25</ele><time>2026-03-29T12:29:53.583Z</time></trkpt><trkpt lat="38.7540217" lon="16.4584033"><ele>457.0</ele><time>2026-03-29T12:29:54.583Z</time></trkpt><trkpt lat="38.7540117" lon="16.4585633"><ele>457.0</ele><time>2026-03-29T12:29:55.583Z</time></trkpt><trkpt lat="38.753985" lon="16.4587383"><ele>457.0</ele><time>2026-03-29T12:29:56.584Z</time></trkpt><trkpt lat="38.7539417" lon="16.4589383"><ele>457.0</ele><time>2026-03-29T12:29:57.583Z</time></trkpt><trkpt lat="38.753885" lon="16.4591483"><ele>453.6666666666667</ele><time>2026-03-29T12:29:58.583Z</time></trkpt><trkpt lat="38.753835" lon="16.4593667"><ele>450.33333333333337</ele><time>2026-03-29T12:29:59.583Z</time></trkpt><trkpt lat="38.7537817" lon="16.4595933"><ele>447.0</ele><time>2026-03-29T12:30:00.583Z</time></trkpt><trkpt lat="38.7537317" lon="16.4598217"><ele>446.25</ele><time>2026-03-29T12:30:01.583Z</time></trkpt><trkpt lat="38.7536883" lon="16.46002"><ele>445.5</ele><time>2026-03-29T12:30:02.584Z</time></trkpt><trkpt lat="38.7536583" lon="16.4601967"><ele>444.75</ele><time>2026-03-29T12:30:03.583Z</time></trkpt><trkpt lat="38.7536383" lon="16.460365"><ele>444.0</ele><time>2026-03-29T12:30:04.583Z</time></trkpt><trkpt lat="38.7536467" lon="16.4605617"><ele>444.0</ele><time>2026-03-29T12:30:05.583Z</time></trkpt><trkpt lat="38.753665" lon="16.4607467"><ele>444.0</ele><time>2026-03-29T12:30:06.583Z</time></trkpt><trkpt lat="38.7537033" lon="16.4609633"><ele>444.0</ele><time>2026-03-29T12:30:07.583Z</time></trkpt><trkpt lat="38.753755" lon="16.4611867"><ele>442.5</ele><time>2026-03-29T12:30:08.583Z</time></trkpt><trkpt lat="38.7537983" lon="16.4613983"><ele>441.0</ele><time>2026-03-29T12:30:09.583Z</time></trkpt><trkpt lat="38.7538283" lon="16.4615717"><ele>439.5</ele><time>2026-03-29T12:30:10.583Z</time></trkpt><trkpt lat="38.7538817" lon="16.46172"><ele>438.0</ele><time>2026-03-29T12:30:11.583Z</time></trkpt><trkpt lat="38.7539617" lon="16.46183"><ele>438.0</ele><time>2026-03-29T12:30:12.583Z</time></trkpt><trkpt lat="38.75408" lon="16.4619217"><ele>438.0</ele><time>2026-03-29T12:30:13.583Z</time></trkpt><trkpt lat="38.754235" lon="16.4619933"><ele>438.0</ele><time>2026-03-29T12:30:14.583Z</time></trkpt><trkpt lat="38.7544117" lon="16.462035"><ele>437.66666666666663</ele><time>2026-03-29T12:30:15.583Z</time></trkpt><trkpt lat="38.7545867" lon="16.46209"><ele>437.3333333333333</ele><time>2026-03-29T12:30:16.583Z</time></trkpt><trkpt lat="38.7547483" lon="16.462135"><ele>437.0</ele><time>2026-03-29T12:30:17.583Z</time></trkpt><trkpt lat="38.7548883" lon="16.462205"><ele>434.66666666666663</ele><time>2026-03-29T12:30:18.583Z</time></trkpt><trkpt lat="38.7550283" lon="16.462295"><ele>432.33333333333337</ele><time>2026-03-29T12:30:19.583Z</time></trkpt><trkpt lat="38.7551533" lon="16.462425"><ele>430.0</ele><time>2026-03-29T12:30:20.583Z</time></trkpt><trkpt lat="38.7552817" lon="16.4626233"><ele>429.0</ele><time>2026-03-29T12:30:21.584Z</time></trkpt><trkpt lat="38.7554017" lon="16.4628833"><ele>428.0</ele><time>2026-03-29T12:30:22.583Z</time></trkpt><trkpt lat="38.7555283" lon="16.4631617"><ele>426.5</ele><time>2026-03-29T12:30:23.583Z</time></trkpt><trkpt lat="38.7556533" lon="16.463425"><ele>425.0</ele><time>2026-03-29T12:30:24.583Z</time></trkpt><trkpt lat="38.75577" lon="16.4636683"><ele>423.66666666666663</ele><time>2026-03-29T12:30:25.583Z</time></trkpt><trkpt lat="38.7558633" lon="16.4638917"><ele>422.33333333333337</ele><time>2026-03-29T12:30:26.583Z</time></trkpt><trkpt lat="38.7559483" lon="16.4641067"><ele>421.0</ele><time>2026-03-29T12:30:27.583Z</time></trkpt><trkpt lat="38.7560217" lon="16.4642967"><ele>415.6666666666667</ele><time>2026-03-29T12:30:28.583Z</time></trkpt><trkpt lat="38.7560633" lon="16.4645117"><ele>410.33333333333337</ele><time>2026-03-29T12:30:29.583Z</time></trkpt><trkpt lat="38.756075" lon="16.4647167"><ele>405.0</ele><time>2026-03-29T12:30:30.583Z</time></trkpt><trkpt lat="38.7560883" lon="16.464925"><ele>405.0</ele><time>2026-03-29T12:30:31.583Z</time></trkpt><trkpt lat="38.7561283" lon="16.4651383"><ele>405.0</ele><time>2026-03-29T12:30:32.583Z</time></trkpt><trkpt lat="38.7562033" lon="16.4653767"><ele>405.0</ele><time>2026-03-29T12:30:33.583Z</time></trkpt><trkpt lat="38.75633" lon="16.4656317"><ele>407.5</ele><time>2026-03-29T12:30:34.583Z</time></trkpt><trkpt lat="38.7564783" lon="16.4658983"><ele>410.0</ele><time>2026-03-29T12:30:35.583Z</time></trkpt><trkpt lat="38.7566117" lon="16.4661333"><ele>411.0</ele><time>2026-03-29T12:30:36.583Z</time></trkpt><trkpt lat="38.7567167" lon="16.4663183"><ele>412.0</ele><time>2026-03-29T12:30:37.583Z</time></trkpt><trkpt lat="38.756805" lon="16.4664683"><ele>413.0</ele><time>2026-03-29T12:30:38.583Z</time></trkpt><trkpt lat="38.7568717" lon="16.4666233"><ele>408.25</ele><time>2026-03-29T12:30:39.583Z</time></trkpt><trkpt lat="38.7568967" lon="16.4667967"><ele>403.5</ele><time>2026-03-29T12:30:40.583Z</time></trkpt><trkpt lat="38.756895" lon="16.4669817"><ele>398.75</ele><time>2026-03-29T12:30:41.583Z</time></trkpt><trkpt lat="38.7568833" lon="16.4671733"><ele>394.0</ele><time>2026-03-29T12:30:42.583Z</time></trkpt><trkpt lat="38.7568767" lon="16.4673617"><ele>397.6666666666667</ele><time>2026-03-29T12:30:43.583Z</time></trkpt><trkpt lat="38.7568583" lon="16.4675533"><ele>401.33333333333337</ele><time>2026-03-29T12:30:44.583Z</time></trkpt><trkpt lat="38.75684" lon="16.4677633"><ele>405.0</ele><time>2026-03-29T12:30:45.583Z</time></trkpt><trkpt lat="38.756815" lon="16.4679783"><ele>405.0</ele><time>2026-03-29T12:30:46.583Z</time></trkpt><trkpt lat="38.75679" lon="16.4681717"><ele>405.0</ele><time>2026-03-29T12:30:47.583Z</time></trkpt><trkpt lat="38.75675" lon="16.4683433"><ele>405.0</ele><time>2026-03-29T12:30:48.583Z</time></trkpt><trkpt lat="38.75672" lon="16.4684917"><ele>405.0</ele><time>2026-03-29T12:30:49.583Z</time></trkpt><trkpt lat="38.7567183" lon="16.4686317"><ele>405.0</ele><time>2026-03-29T12:30:50.583Z</time></trkpt><trkpt lat="38.75676" lon="16.4687667"><ele>405.0</ele><time>2026-03-29T12:30:51.583Z</time></trkpt><trkpt lat="38.7568583" lon="16.4688967"><ele>405.0</ele><time>2026-03-29T12:30:52.583Z</time></trkpt><trkpt lat="38.7569917" lon="16.4690283"><ele>405.0</ele><time>2026-03-29T12:30:53.583Z</time></trkpt><trkpt lat="38.7571267" lon="16.469155"><ele>401.66666666666663</ele><time>2026-03-29T12:30:54.583Z</time></trkpt><trkpt lat="38.75726" lon="16.4693"><ele>398.3333333333333</ele><time>2026-03-29T12:30:55.583Z</time></trkpt><trkpt lat="38.757395" lon="16.4694467"><ele>395.0</ele><time>2026-03-29T12:30:56.583Z</time></trkpt><trkpt lat="38.75751" lon="16.469575"><ele>394.0</ele><time>2026-03-29T12:30:57.583Z</time></trkpt><trkpt lat="38.7576067" lon="16.4696933"><ele>393.0</ele><time>2026-03-29T12:30:58.583Z</time></trkpt><trkpt lat="38.7576783" lon="16.4698217"><ele>392.0</ele><time>2026-03-29T12:30:59.583Z</time></trkpt><trkpt lat="38.757715" lon="16.4699917"><ele>391.0</ele><time>2026-03-29T12:31:00.583Z</time></trkpt><trkpt lat="38.757725" lon="16.4701683"><ele>389.75</ele><time>2026-03-29T12:31:01.583Z</time></trkpt><trkpt lat="38.75773" lon="16.470335"><ele>388.5</ele><time>2026-03-29T12:31:02.583Z</time></trkpt><trkpt lat="38.757775" lon="16.470495"><ele>387.25</ele><time>2026-03-29T12:31:03.583Z</time></trkpt><trkpt lat="38.7578667" lon="16.4706683"><ele>386.0</ele><time>2026-03-29T12:31:04.583Z</time></trkpt><trkpt lat="38.7579883" lon="16.47085"><ele>386.0</ele><time>2026-03-29T12:31:05.583Z</time></trkpt><trkpt lat="38.7581017" lon="16.4710267"><ele>386.0</ele><time>2026-03-29T12:31:06.584Z</time></trkpt><trkpt lat="38.758205" lon="16.4711817"><ele>386.0</ele><time>2026-03-29T12:31:07.583Z</time></trkpt><trkpt lat="38.7583017" lon="16.4712867"><ele>387.5</ele><time>2026-03-29T12:31:08.583Z</time></trkpt><trkpt lat="38.75841" lon="16.4713333"><ele>389.0</ele><time>2026-03-29T12:31:09.583Z</time></trkpt><trkpt lat="38.75853" lon="16.47133"><ele>390.5</ele><time>2026-03-29T12:31:10.583Z</time></trkpt><trkpt lat="38.75865" lon="16.4712867"><ele>392.0</ele><time>2026-03-29T12:31:11.583Z</time></trkpt><trkpt lat="38.7587767" lon="16.471285"><ele>392.0</ele><time>2026-03-29T12:31:12.583Z</time></trkpt><trkpt lat="38.7588917" lon="16.471355"><ele>392.0</ele><time>2026-03-29T12:31:13.583Z</time></trkpt><trkpt lat="38.75902" lon="16.4714833"><ele>392.0</ele><time>2026-03-29T12:31:14.583Z</time></trkpt><trkpt lat="38.759135" lon="16.4716567"><ele>392.0</ele><time>2026-03-29T12:31:15.583Z</time></trkpt><trkpt lat="38.7592433" lon="16.4718867"><ele>392.0</ele><time>2026-03-29T12:31:16.583Z</time></trkpt><trkpt lat="38.75936" lon="16.4721183"><ele>392.0</ele><time>2026-03-29T12:31:17.583Z</time></trkpt><trkpt lat="38.7594983" lon="16.4723517"><ele>393.0</ele><time>2026-03-29T12:31:18.583Z</time></trkpt><trkpt lat="38.7596583" lon="16.4725783"><ele>394.0</ele><time>2026-03-29T12:31:19.583Z</time></trkpt><trkpt lat="38.7598417" lon="16.47281"><ele>390.5</ele><time>2026-03-29T12:31:20.583Z</time></trkpt><trkpt lat="38.76003" lon="16.4730417"><ele>387.0</ele><time>2026-03-29T12:31:21.583Z</time></trkpt><trkpt lat="38.7602033" lon="16.4732617"><ele>387.0</ele><time>2026-03-29T12:31:22.583Z</time></trkpt><trkpt lat="38.760345" lon="16.47346"><ele>387.0</ele><time>2026-03-29T12:31:23.583Z</time></trkpt><trkpt lat="38.76045" lon="16.47365"><ele>387.0</ele><time>2026-03-29T12:31:24.583Z</time></trkpt><trkpt lat="38.7605117" lon="16.47384"><ele>385.6666666666667</ele><time>2026-03-29T12:31:25.583Z</time></trkpt><trkpt lat="38.7605433" lon="16.4740317"><ele>384.33333333333337</ele><time>2026-03-29T12:31:26.583Z</time></trkpt><trkpt lat="38.76055" lon="16.47423"><ele>383.0</ele><time>2026-03-29T12:31:27.583Z</time></trkpt><trkpt lat="38.7605433" lon="16.47442"><ele>382.33333333333337</ele><time>2026-03-29T12:31:28.583Z</time></trkpt><trkpt lat="38.7605033" lon="16.4746217"><ele>381.6666666666667</ele><time>2026-03-29T12:31:29.583Z</time></trkpt><trkpt lat="38.7604333" lon="16.4748033"><ele>381.0</ele><time>2026-03-29T12:31:30.583Z</time></trkpt><trkpt lat="38.7603333" lon="16.474985"><ele>381.0</ele><time>2026-03-29T12:31:31.583Z</time></trkpt><trkpt lat="38.7602217" lon="16.47518"><ele>381.0</ele><time>2026-03-29T12:31:32.583Z</time></trkpt><trkpt lat="38.7601117" lon="16.47538"><ele>381.0</ele><time>2026-03-29T12:31:33.583Z</time></trkpt><trkpt lat="38.7600367" lon="16.4755933"><ele>378.0</ele><time>2026-03-29T12:31:34.583Z</time></trkpt><trkpt lat="38.759995" lon="16.475815"><ele>375.0</ele><time>2026-03-29T12:31:35.583Z</time></trkpt><trkpt lat="38.7599817" lon="16.4760433"><ele>372.0</ele><time>2026-03-29T12:31:36.583Z</time></trkpt><trkpt lat="38.7599917" lon="16.47623"><ele>371.75</ele><time>2026-03-29T12:31:37.583Z</time></trkpt><trkpt lat="38.760025" lon="16.4763983"><ele>371.5</ele><time>2026-03-29T12:31:38.583Z</time></trkpt><trkpt lat="38.7600933" lon="16.4765317"><ele>371.25</ele><time>2026-03-29T12:31:39.583Z</time></trkpt><trkpt lat="38.7601883" lon="16.4766433"><ele>371.0</ele><time>2026-03-29T12:31:40.583Z</time></trkpt><trkpt lat="38.7603233" lon="16.4767267"><ele>371.0</ele><time>2026-03-29T12:31:41.583Z</time></trkpt><trkpt lat="38.7604733" lon="16.4767817"><ele>371.0</ele><time>2026-03-29T12:31:42.583Z</time></trkpt><trkpt lat="38.760595" lon="16.4768267"><ele>371.0</ele><time>2026-03-29T12:31:43.583Z</time></trkpt><trkpt lat="38.76069" lon="16.4768367"><ele>371.0</ele><time>2026-03-29T12:31:44.583Z</time></trkpt><trkpt lat="38.760775" lon="16.4768183"><ele>371.0</ele><time>2026-03-29T12:31:45.583Z</time></trkpt><trkpt lat="38.7608567" lon="16.47677"><ele>371.0</ele><time>2026-03-29T12:31:46.583Z</time></trkpt><trkpt lat="38.7609383" lon="16.4766867"><ele>371.0</ele><time>2026-03-29T12:31:47.583Z</time></trkpt><trkpt lat="38.7610133" lon="16.4765817"><ele>371.0</ele><time>2026-03-29T12:31:48.583Z</time></trkpt><trkpt lat="38.7610883" lon="16.47648"><ele>371.0</ele><time>2026-03-29T12:31:49.583Z</time></trkpt><trkpt lat="38.7611717" lon="16.4763867"><ele>369.6</ele><time>2026-03-29T12:31:50.583Z</time></trkpt><trkpt lat="38.7612517" lon="16.476295"><ele>368.20000000000005</ele><time>2026-03-29T12:31:51.583Z</time></trkpt><trkpt lat="38.76132" lon="16.4761817"><ele>366.79999999999995</ele><time>2026-03-29T12:31:52.583Z</time></trkpt><trkpt lat="38.7613817" lon="16.4760617"><ele>365.4</ele><time>2026-03-29T12:31:53.584Z</time></trkpt><trkpt lat="38.761445" lon="16.4759683"><ele>364.0</ele><time>2026-03-29T12:31:54.583Z</time></trkpt><trkpt lat="38.76153" lon="16.4759083"><ele>364.0</ele><time>2026-03-29T12:31:55.583Z</time></trkpt><trkpt lat="38.76163" lon="16.4758867"><ele>364.0</ele><time>2026-03-29T12:31:56.583Z</time></trkpt><trkpt lat="38.7617467" lon="16.4759133"><ele>364.0</ele><time>2026-03-29T12:31:57.583Z</time></trkpt><trkpt lat="38.76186" lon="16.4759217"><ele>364.0</ele><time>2026-03-29T12:31:58.583Z</time></trkpt><trkpt lat="38.7619567" lon="16.475885"><ele>364.0</ele><time>2026-03-29T12:31:59.584Z</time></trkpt><trkpt lat="38.7620367" lon="16.475795"><ele>358.25</ele><time>2026-03-29T12:32:00.583Z</time></trkpt><trkpt lat="38.762105" lon="16.4756533"><ele>352.5</ele><time>2026-03-29T12:32:01.583Z</time></trkpt><trkpt lat="38.7621467" lon="16.47547"><ele>346.75</ele><time>2026-03-29T12:32:02.583Z</time></trkpt><trkpt lat="38.7621517" lon="16.475285"><ele>341.0</ele><time>2026-03-29T12:32:03.583Z</time></trkpt><trkpt lat="38.76213" lon="16.4750983"><ele>340.33333333333337</ele><time>2026-03-29T12:32:04.583Z</time></trkpt><trkpt lat="38.7620817" lon="16.4749067"><ele>339.6666666666667</ele><time>2026-03-29T12:32:05.583Z</time></trkpt><trkpt lat="38.76201" lon="16.4747183"><ele>339.0</ele><time>2026-03-29T12:32:06.583Z</time></trkpt><trkpt lat="38.7619217" lon="16.474535"><ele>343.5</ele><time>2026-03-29T12:32:07.583Z</time></trkpt><trkpt lat="38.76182" lon="16.4743817"><ele>348.0</ele><time>2026-03-29T12:32:08.583Z</time></trkpt><trkpt lat="38.761735" lon="16.474265"><ele>352.5</ele><time>2026-03-29T12:32:09.583Z</time></trkpt><trkpt lat="38.7616817" lon="16.4741383"><ele>357.0</ele><time>2026-03-29T12:32:10.583Z</time></trkpt><trkpt lat="38.7616567" lon="16.47396"><ele>356.3333333333333</ele><time>2026-03-29T12:32:11.583Z</time></trkpt><trkpt lat="38.7616533" lon="16.4737533"><ele>355.66666666666663</ele><time>2026-03-29T12:32:12.583Z</time></trkpt><trkpt lat="38.7616817" lon="16.4735367"><ele>355.0</ele><time>2026-03-29T12:32:13.583Z</time></trkpt><trkpt lat="38.7617217" lon="16.4733383"><ele>355.0</ele><time>2026-03-29T12:32:14.583Z</time></trkpt><trkpt lat="38.7617817" lon="16.4731683"><ele>355.0</ele><time>2026-03-29T12:32:15.583Z</time></trkpt><trkpt lat="38.7618783" lon="16.4730317"><ele>355.0</ele><time>2026-03-29T12:32:16.583Z</time></trkpt><trkpt lat="38.76199" lon="16.472905"><ele>355.0</ele><time>2026-03-29T12:32:17.583Z</time></trkpt><trkpt lat="38.762085" lon="16.4727517"><ele>346.0</ele><time>2026-03-29T12:32:18.583Z</time></trkpt><trkpt lat="38.7621383" lon="16.4725867"><ele>337.0</ele><time>2026-03-29T12:32:19.583Z</time></trkpt><trkpt lat="38.7621667" lon="16.4724217"><ele>328.0</ele><time>2026-03-29T12:32:20.583Z</time></trkpt><trkpt lat="38.7621333" lon="16.4722617"><ele>319.0</ele><time>2026-03-29T12:32:21.583Z</time></trkpt><trkpt lat="38.76205" lon="16.4721233"><ele>316.5</ele><time>2026-03-29T12:32:22.583Z</time></trkpt><trkpt lat="38.7619317" lon="16.472025"><ele>314.0</ele><time>2026-03-29T12:32:23.583Z</time></trkpt><trkpt lat="38.7618067" lon="16.47196"><ele>311.5</ele><time>2026-03-29T12:32:24.583Z</time></trkpt><trkpt lat="38.7616867" lon="16.471895"><ele>309.0</ele><time>2026-03-29T12:32:25.583Z</time></trkpt><trkpt lat="38.761605" lon="16.4718083"><ele>314.5</ele><time>2026-03-29T12:32:26.583Z</time></trkpt><trkpt lat="38.76155" lon="16.4716717"><ele>320.0</ele><time>2026-03-29T12:32:27.583Z</time></trkpt><trkpt lat="38.76151" lon="16.4714833"><ele>325.5</ele><time>2026-03-29T12:32:28.583Z</time></trkpt><trkpt lat="38.761505" lon="16.4712733"><ele>331.0</ele><time>2026-03-29T12:32:29.583Z</time></trkpt><trkpt lat="38.7615183" lon="16.471065"><ele>331.0</ele><time>2026-03-29T12:32:30.583Z</time></trkpt><trkpt lat="38.7615633" lon="16.4708767"><ele>331.0</ele><time>2026-03-29T12:32:31.584Z</time></trkpt><trkpt lat="38.76161" lon="16.4706917"><ele>331.0</ele><time>2026-03-29T12:32:32.583Z</time></trkpt><trkpt lat="38.7616333" lon="16.4705133"><ele>331.0</ele><time>2026-03-29T12:32:33.583Z</time></trkpt><trkpt lat="38.7616033" lon="16.4703283"><ele>328.0</ele><time>2026-03-29T12:32:34.583Z</time></trkpt><trkpt lat="38.7615283" lon="16.4701333"><ele>325.0</ele><time>2026-03-29T12:32:35.583Z</time></trkpt><trkpt lat="38.7614317" lon="16.46998"><ele>322.0</ele><time>2026-03-29T12:32:36.583Z</time></trkpt><trkpt lat="38.7613167" lon="16.46985"><ele>322.0</ele><time>2026-03-29T12:32:37.583Z</time></trkpt><trkpt lat="38.7611583" lon="16.4697667"><ele>322.0</ele><time>2026-03-29T12:32:38.583Z</time></trkpt><trkpt lat="38.76098" lon="16.469675"><ele>322.0</ele><time>2026-03-29T12:32:39.583Z</time></trkpt><trkpt lat="38.7608167" lon="16.4695483"><ele>321.66666666666663</ele><time>2026-03-29T12:32:40.583Z</time></trkpt><trkpt lat="38.7606717" lon="16.46944"><ele>321.3333333333333</ele><time>2026-03-29T12:32:41.583Z</time></trkpt><trkpt lat="38.7605283" lon="16.4693683"><ele>321.0</ele><time>2026-03-29T12:32:42.584Z</time></trkpt><trkpt lat="38.7603917" lon="16.469335"><ele>321.0</ele><time>2026-03-29T12:32:43.584Z</time></trkpt><trkpt lat="38.7602933" lon="16.46926"><ele>321.0</ele><time>2026-03-29T12:32:44.583Z</time></trkpt><trkpt lat="38.7602233" lon="16.4691483"><ele>321.0</ele><time>2026-03-29T12:32:45.583Z</time></trkpt><trkpt lat="38.7601867" lon="16.4689967"><ele>321.0</ele><time>2026-03-29T12:32:46.583Z</time></trkpt><trkpt lat="38.7601783" lon="16.468835"><ele>322.75</ele><time>2026-03-29T12:32:47.583Z</time></trkpt><trkpt lat="38.76021" lon="16.4686817"><ele>324.5</ele><time>2026-03-29T12:32:48.583Z</time></trkpt><trkpt lat="38.7602817" lon="16.4685533"><ele>326.25</ele><time>2026-03-29T12:32:49.583Z</time></trkpt><trkpt lat="38.760395" lon="16.46847"><ele>328.0</ele><time>2026-03-29T12:32:50.583Z</time></trkpt><trkpt lat="38.7605283" lon="16.4684483"><ele>328.0</ele><time>2026-03-29T12:32:51.583Z</time></trkpt><trkpt lat="38.7606817" lon="16.4684783"><ele>328.0</ele><time>2026-03-29T12:32:52.583Z</time></trkpt><trkpt lat="38.7608567" lon="16.46858"><ele>328.0</ele><time>2026-03-29T12:32:53.583Z</time></trkpt><trkpt lat="38.7610517" lon="16.4687017"><ele>324.3333333333333</ele><time>2026-03-29T12:32:54.583Z</time></trkpt><trkpt lat="38.7612533" lon="16.4688"><ele>320.6666666666667</ele><time>2026-03-29T12:32:55.583Z</time></trkpt><trkpt lat="38.76145" lon="16.4688483"><ele>317.0</ele><time>2026-03-29T12:32:56.584Z</time></trkpt><trkpt lat="38.7616217" lon="16.46887"><ele>317.0</ele><time>2026-03-29T12:32:57.583Z</time></trkpt><trkpt lat="38.7617783" lon="16.468925"><ele>317.0</ele><time>2026-03-29T12:32:58.583Z</time></trkpt><trkpt lat="38.7619083" lon="16.4690317"><ele>317.0</ele><time>2026-03-29T12:32:59.583Z</time></trkpt><trkpt lat="38.7620117" lon="16.4691683"><ele>316.5</ele><time>2026-03-29T12:33:00.584Z</time></trkpt><trkpt lat="38.7620833" lon="16.4693317"><ele>316.0</ele><time>2026-03-29T12:33:01.583Z</time></trkpt><trkpt lat="38.762125" lon="16.4695067"><ele>315.5</ele><time>2026-03-29T12:33:02.584Z</time></trkpt><trkpt lat="38.76219" lon="16.4696917"><ele>315.0</ele><time>2026-03-29T12:33:03.584Z</time></trkpt><trkpt lat="38.7622867" lon="16.4698517"><ele>315.0</ele><time>2026-03-29T12:33:04.584Z</time></trkpt><trkpt lat="38.7624083" lon="16.4700233"><ele>315.0</ele><time>2026-03-29T12:33:05.584Z</time></trkpt><trkpt lat="38.762525" lon="16.47018"><ele>315.0</ele><time>2026-03-29T12:33:06.584Z</time></trkpt><trkpt lat="38.76265" lon="16.47033"><ele>315.6666666666667</ele><time>2026-03-29T12:33:07.584Z</time></trkpt><trkpt lat="38.7628" lon="16.4704583"><ele>316.33333333333337</ele><time>2026-03-29T12:33:08.584Z</time></trkpt><trkpt lat="38.7629467" lon="16.4705567"><ele>317.0</ele><time>2026-03-29T12:33:09.584Z</time></trkpt><trkpt lat="38.7630767" lon="16.4706633"><ele>317.0</ele><time>2026-03-29T12:33:10.584Z</time></trkpt><trkpt lat="38.7632" lon="16.4708333"><ele>317.0</ele><time>2026-03-29T12:33:11.585Z</time></trkpt><trkpt lat="38.7633017" lon="16.4709983"><ele>317.0</ele><time>2026-03-29T12:33:12.584Z</time></trkpt><trkpt lat="38.7633667" lon="16.4711933"><ele>312.33333333333337</ele><time>2026-03-29T12:33:13.584Z</time></trkpt><trkpt lat="38.7633983" lon="16.4714033"><ele>307.6666666666667</ele><time>2026-03-29T12:33:14.584Z</time></trkpt><trkpt lat="38.7634317" lon="16.47161"><ele>303.0</ele><time>2026-03-29T12:33:15.584Z</time></trkpt><trkpt lat="38.7634883" lon="16.4718083"><ele>306.3333333333333</ele><time>2026-03-29T12:33:16.584Z</time></trkpt><trkpt lat="38.7635917" lon="16.4719933"><ele>309.66666666666663</ele><time>2026-03-29T12:33:17.584Z</time></trkpt><trkpt lat="38.7637183" lon="16.4721867"><ele>313.0</ele><time>2026-03-29T12:33:18.584Z</time></trkpt><trkpt lat="38.763855" lon="16.472395"><ele>313.0</ele><time>2026-03-29T12:33:19.584Z</time></trkpt><trkpt lat="38.7639733" lon="16.4726283"><ele>313.0</ele><time>2026-03-29T12:33:20.584Z</time></trkpt><trkpt lat="38.7640567" lon="16.4728733"><ele>313.0</ele><time>2026-03-29T12:33:21.584Z</time></trkpt><trkpt lat="38.7641067" lon="16.4731183"><ele>308.66666666666663</ele><time>2026-03-29T12:33:22.584Z</time></trkpt><trkpt lat="38.7641467" lon="16.4733633"><ele>304.3333333333333</ele><time>2026-03-29T12:33:23.584Z</time></trkpt><trkpt lat="38.7641933" lon="16.4736017"><ele>300.0</ele><time>2026-03-29T12:33:24.584Z</time></trkpt><trkpt lat="38.7642717" lon="16.4738383"><ele>302.5</ele><time>2026-03-29T12:33:25.584Z</time></trkpt><trkpt lat="38.76438" lon="16.4740917"><ele>305.0</ele><time>2026-03-29T12:33:26.584Z</time></trkpt><trkpt lat="38.7645317" lon="16.4743717"><ele>296.0</ele><time>2026-03-29T12:33:27.584Z</time></trkpt><trkpt lat="38.764695" lon="16.474675"><ele>287.0</ele><time>2026-03-29T12:33:28.584Z</time></trkpt><trkpt lat="38.7648333" lon="16.474995"><ele>287.0</ele><time>2026-03-29T12:33:29.584Z</time></trkpt><trkpt lat="38.7649783" lon="16.4753117"><ele>287.0</ele><time>2026-03-29T12:33:30.584Z</time></trkpt><trkpt lat="38.7651267" lon="16.4756317"><ele>283.5</ele><time>2026-03-29T12:33:31.584Z</time></trkpt><trkpt lat="38.76527" lon="16.4759533"><ele>280.0</ele><time>2026-03-29T12:33:32.584Z</time></trkpt><trkpt lat="38.7654133" lon="16.4762583"><ele>278.0</ele><time>2026-03-29T12:33:33.584Z</time></trkpt><trkpt lat="38.7655467" lon="16.4765517"><ele>276.0</ele><time>2026-03-29T12:33:34.584Z</time></trkpt><trkpt lat="38.7656783" lon="16.4768517"><ele>274.5</ele><time>2026-03-29T12:33:35.584Z</time></trkpt><trkpt lat="38.7658" lon="16.47714"><ele>273.0</ele><time>2026-03-29T12:33:36.585Z</time></trkpt><trkpt lat="38.7659267" lon="16.4774067"><ele>275.0</ele><time>2026-03-29T12:33:37.584Z</time></trkpt><trkpt lat="38.7660417" lon="16.4776683"><ele>277.0</ele><time>2026-03-29T12:33:38.584Z</time></trkpt><trkpt lat="38.766155" lon="16.4779267"><ele>276.0</ele><time>2026-03-29T12:33:39.584Z</time></trkpt><trkpt lat="38.7662667" lon="16.4781733"><ele>275.0</ele><time>2026-03-29T12:33:40.584Z</time></trkpt><trkpt lat="38.7663633" lon="16.4784067"><ele>274.0</ele><time>2026-03-29T12:33:41.584Z</time></trkpt><trkpt lat="38.7664633" lon="16.4786183"><ele>272.66666666666663</ele><time>2026-03-29T12:33:42.584Z</time></trkpt><trkpt lat="38.7665617" lon="16.47882"><ele>271.3333333333333</ele><time>2026-03-29T12:33:43.584Z</time></trkpt><trkpt lat="38.7666533" lon="16.4790067"><ele>270.0</ele><time>2026-03-29T12:33:44.584Z</time></trkpt><trkpt lat="38.7667283" lon="16.47917"><ele>270.0</ele><time>2026-03-29T12:33:45.584Z</time></trkpt><trkpt lat="38.76679" lon="16.4793367"><ele>270.0</ele><time>2026-03-29T12:33:46.584Z</time></trkpt><trkpt lat="38.7668367" lon="16.4795017"><ele>270.0</ele><time>2026-03-29T12:33:47.584Z</time></trkpt><trkpt lat="38.76687" lon="16.4796833"><ele>270.0</ele><time>2026-03-29T12:33:48.584Z</time></trkpt><trkpt lat="38.7669067" lon="16.47988"><ele>270.3333333333333</ele><time>2026-03-29T12:33:49.584Z</time></trkpt><trkpt lat="38.766965" lon="16.4800883"><ele>270.66666666666663</ele><time>2026-03-29T12:33:50.584Z</time></trkpt><trkpt lat="38.7670267" lon="16.4803"><ele>271.0</ele><time>2026-03-29T12:33:51.584Z</time></trkpt><trkpt lat="38.7670933" lon="16.4805033"><ele>271.0</ele><time>2026-03-29T12:33:52.584Z</time></trkpt><trkpt lat="38.7671617" lon="16.4806933"><ele>271.0</ele><time>2026-03-29T12:33:53.584Z</time></trkpt><trkpt lat="38.7672533" lon="16.4808533"><ele>271.0</ele><time>2026-03-29T12:33:54.584Z</time></trkpt><trkpt lat="38.7673667" lon="16.4809833"><ele>271.0</ele><time>2026-03-29T12:33:55.584Z</time></trkpt><trkpt lat="38.767505" lon="16.481095"><ele>271.0</ele><time>2026-03-29T12:33:56.584Z</time></trkpt><trkpt lat="38.76769" lon="16.4811467"><ele>271.0</ele><time>2026-03-29T12:33:57.584Z</time></trkpt><trkpt lat="38.7679017" lon="16.4811617"><ele>271.0</ele><time>2026-03-29T12:33:58.584Z</time></trkpt><trkpt lat="38.7681533" lon="16.4811467"><ele>271.0</ele><time>2026-03-29T12:33:59.584Z</time></trkpt><trkpt lat="38.768425" lon="16.4811283"><ele>266.0</ele><time>2026-03-29T12:34:00.584Z</time></trkpt><trkpt lat="38.76871" lon="16.481115"><ele>261.0</ele><time>2026-03-29T12:34:01.584Z</time></trkpt><trkpt lat="38.769005" lon="16.4811083"><ele>261.0</ele><time>2026-03-29T12:34:02.584Z</time></trkpt><trkpt lat="38.7693067" lon="16.4811033"><ele>261.0</ele><time>2026-03-29T12:34:03.584Z</time></trkpt><trkpt lat="38.76959" lon="16.4811133"><ele>260.5</ele><time>2026-03-29T12:34:04.584Z</time></trkpt><trkpt lat="38.7698733" lon="16.48111"><ele>260.0</ele><time>2026-03-29T12:34:05.584Z</time></trkpt><trkpt lat="38.7701467" lon="16.4811083"><ele>258.5</ele><time>2026-03-29T12:34:06.584Z</time></trkpt><trkpt lat="38.7703933" lon="16.48111"><ele>257.0</ele><time>2026-03-29T12:34:07.584Z</time></trkpt><trkpt lat="38.770615" lon="16.481115"><ele>257.0</ele><time>2026-03-29T12:34:08.584Z</time></trkpt><trkpt lat="38.77083" lon="16.48112"><ele>257.0</ele><time>2026-03-29T12:34:09.584Z</time></trkpt><trkpt lat="38.7710217" lon="16.4811633"><ele>257.0</ele><time>2026-03-29T12:34:10.584Z</time></trkpt><trkpt lat="38.77118" lon="16.4812517"><ele>257.0</ele><time>2026-03-29T12:34:11.584Z</time></trkpt><trkpt lat="38.7713233" lon="16.481395"><ele>257.0</ele><time>2026-03-29T12:34:12.584Z</time></trkpt><trkpt lat="38.7714483" lon="16.4815883"><ele>257.0</ele><time>2026-03-29T12:34:13.584Z</time></trkpt><trkpt lat="38.771565" lon="16.4818183"><ele>257.0</ele><time>2026-03-29T12:34:14.585Z</time></trkpt><trkpt lat="38.7716717" lon="16.4820633"><ele>257.0</ele><time>2026-03-29T12:34:15.584Z</time></trkpt><trkpt lat="38.7717683" lon="16.4822983"><ele>257.0</ele><time>2026-03-29T12:34:16.584Z</time></trkpt><trkpt lat="38.7718633" lon="16.4825283"><ele>257.0</ele><time>2026-03-29T12:34:17.584Z</time></trkpt><trkpt lat="38.7719617" lon="16.482755"><ele>257.0</ele><time>2026-03-29T12:34:18.584Z</time></trkpt><trkpt lat="38.7720583" lon="16.4829967"><ele>257.0</ele><time>2026-03-29T12:34:19.585Z</time></trkpt><trkpt lat="38.7721683" lon="16.48326"><ele>256.5</ele><time>2026-03-29T12:34:20.584Z</time></trkpt><trkpt lat="38.7722867" lon="16.4835467"><ele>256.0</ele><time>2026-03-29T12:34:21.584Z</time></trkpt><trkpt lat="38.7724117" lon="16.4838783"><ele>256.0</ele><time>2026-03-29T12:34:22.584Z</time></trkpt><trkpt lat="38.7725617" lon="16.4842617"><ele>256.0</ele><time>2026-03-29T12:34:23.584Z</time></trkpt><trkpt lat="38.7727217" lon="16.48465"><ele>258.0</ele><time>2026-03-29T12:34:24.584Z</time></trkpt><trkpt lat="38.7728767" lon="16.4850483"><ele>260.0</ele><time>2026-03-29T12:34:25.584Z</time></trkpt><trkpt lat="38.7730317" lon="16.4854233"><ele>260.0</ele><time>2026-03-29T12:34:26.584Z</time></trkpt><trkpt lat="38.77318" lon="16.4857633"><ele>260.0</ele><time>2026-03-29T12:34:27.584Z</time></trkpt><trkpt lat="38.7733067" lon="16.486055"><ele>260.0</ele><time>2026-03-29T12:34:28.584Z</time></trkpt><trkpt lat="38.7734133" lon="16.4863183"><ele>260.0</ele><time>2026-03-29T12:34:29.584Z</time></trkpt><trkpt lat="38.7735167" lon="16.4865633"><ele>260.0</ele><time>2026-03-29T12:34:30.584Z</time></trkpt><trkpt lat="38.7736167" lon="16.4867933"><ele>261.0</ele><time>2026-03-29T12:34:31.584Z</time></trkpt><trkpt lat="38.773715" lon="16.48702"><ele>262.0</ele><time>2026-03-29T12:34:32.584Z</time></trkpt><trkpt lat="38.7738067" lon="16.4872383"><ele>263.0</ele><time>2026-03-29T12:34:33.584Z</time></trkpt><trkpt lat="38.7738917" lon="16.4874483"><ele>263.0</ele><time>2026-03-29T12:34:34.584Z</time></trkpt><trkpt lat="38.7739633" lon="16.4876117"><ele>263.0</ele><time>2026-03-29T12:34:35.584Z</time></trkpt><trkpt lat="38.7740133" lon="16.4877367"><ele>263.0</ele><time>2026-03-29T12:34:36.584Z</time></trkpt><trkpt lat="38.7740467" lon="16.4878333"><ele>263.0</ele><time>2026-03-29T12:34:37.584Z</time></trkpt><trkpt lat="38.7740783" lon="16.4879033"><ele>263.0</ele><time>2026-03-29T12:34:38.584Z</time></trkpt><trkpt lat="38.774105" lon="16.4879867"><ele>263.0</ele><time>2026-03-29T12:34:40.584Z</time></trkpt><trkpt lat="38.77414" lon="16.4880933"><ele>263.0</ele><time>2026-03-29T12:34:43.584Z</time></trkpt><trkpt lat="38.7741767" lon="16.488215"><ele>263.0</ele><time>2026-03-29T12:35:05.584Z</time></trkpt><trkpt lat="38.7741833" lon="16.4883017"><ele>263.0</ele><time>2026-03-29T12:35:06.584Z</time></trkpt><trkpt lat="38.7741883" lon="16.4884"><ele>263.0</ele><time>2026-03-29T12:35:07.584Z</time></trkpt><trkpt lat="38.774195" lon="16.4885017"><ele>263.0</ele><time>2026-03-29T12:35:08.584Z</time></trkpt><trkpt lat="38.7741967" lon="16.4886333"><ele>262.33333333333337</ele><time>2026-03-29T12:35:09.584Z</time></trkpt><trkpt lat="38.7742017" lon="16.488815"><ele>261.6666666666667</ele><time>2026-03-29T12:35:10.584Z</time></trkpt><trkpt lat="38.7742117" lon="16.48905"><ele>261.0</ele><time>2026-03-29T12:35:11.584Z</time></trkpt><trkpt lat="38.7742117" lon="16.48937"><ele>259.0</ele><time>2026-03-29T12:35:12.584Z</time></trkpt><trkpt lat="38.7742117" lon="16.489695"><ele>257.0</ele><time>2026-03-29T12:35:13.584Z</time></trkpt><trkpt lat="38.7742117" lon="16.4900317"><ele>257.0</ele><time>2026-03-29T12:35:14.584Z</time></trkpt><trkpt lat="38.77421" lon="16.4903583"><ele>257.0</ele><time>2026-03-29T12:35:15.584Z</time></trkpt><trkpt lat="38.7742167" lon="16.49067"><ele>255.5</ele><time>2026-03-29T12:35:16.584Z</time></trkpt><trkpt lat="38.7742233" lon="16.4909717"><ele>254.0</ele><time>2026-03-29T12:35:17.584Z</time></trkpt><trkpt lat="38.7742317" lon="16.4912783"><ele>253.0</ele><time>2026-03-29T12:35:18.584Z</time></trkpt><trkpt lat="38.7742417" lon="16.4915767"><ele>252.0</ele><time>2026-03-29T12:35:19.584Z</time></trkpt><trkpt lat="38.7742533" lon="16.4918617"><ele>251.33333333333331</ele><time>2026-03-29T12:35:20.584Z</time></trkpt><trkpt lat="38.7742667" lon="16.492135"><ele>250.66666666666666</ele><time>2026-03-29T12:35:21.584Z</time></trkpt><trkpt lat="38.7742833" lon="16.4924083"><ele>250.0</ele><time>2026-03-29T12:35:22.584Z</time></trkpt><trkpt lat="38.7743083" lon="16.492665"><ele>250.0</ele><time>2026-03-29T12:35:23.584Z</time></trkpt><trkpt lat="38.7743367" lon="16.4929"><ele>250.0</ele><time>2026-03-29T12:35:24.584Z</time></trkpt><trkpt lat="38.774385" lon="16.4931333"><ele>250.0</ele><time>2026-03-29T12:35:25.584Z</time></trkpt><trkpt lat="38.7744433" lon="16.49339"><ele>249.0</ele><time>2026-03-29T12:35:26.584Z</time></trkpt><trkpt lat="38.7745333" lon="16.4936567"><ele>248.0</ele><time>2026-03-29T12:35:27.584Z</time></trkpt><trkpt lat="38.774635" lon="16.4939317"><ele>248.0</ele><time>2026-03-29T12:35:28.584Z</time></trkpt><trkpt lat="38.774765" lon="16.494215"><ele>248.0</ele><time>2026-03-29T12:35:29.584Z</time></trkpt><trkpt lat="38.774895" lon="16.4945083"><ele>248.0</ele><time>2026-03-29T12:35:30.584Z</time></trkpt><trkpt lat="38.7750417" lon="16.4948033"><ele>248.0</ele><time>2026-03-29T12:35:31.584Z</time></trkpt><trkpt lat="38.775185" lon="16.4950933"><ele>247.5</ele><time>2026-03-29T12:35:32.584Z</time></trkpt><trkpt lat="38.775325" lon="16.4953983"><ele>247.0</ele><time>2026-03-29T12:35:33.584Z</time></trkpt><trkpt lat="38.77546" lon="16.4956933"><ele>248.5</ele><time>2026-03-29T12:35:34.584Z</time></trkpt><trkpt lat="38.7755883" lon="16.49599"><ele>250.0</ele><time>2026-03-29T12:35:35.584Z</time></trkpt><trkpt lat="38.7757183" lon="16.49626"><ele>250.66666666666666</ele><time>2026-03-29T12:35:36.584Z</time></trkpt><trkpt lat="38.7758333" lon="16.496515"><ele>251.33333333333331</ele><time>2026-03-29T12:35:37.584Z</time></trkpt><trkpt lat="38.77593" lon="16.49674"><ele>252.0</ele><time>2026-03-29T12:35:38.584Z</time></trkpt><trkpt lat="38.776" lon="16.49694"><ele>254.25</ele><time>2026-03-29T12:35:39.584Z</time></trkpt><trkpt lat="38.7760317" lon="16.4971117"><ele>256.5</ele><time>2026-03-29T12:35:40.584Z</time></trkpt><trkpt lat="38.7759967" lon="16.4972833"><ele>258.75</ele><time>2026-03-29T12:35:41.584Z</time></trkpt><trkpt lat="38.775925" lon="16.4974417"><ele>261.0</ele><time>2026-03-29T12:35:42.584Z</time></trkpt><trkpt lat="38.7758167" lon="16.4976117"><ele>261.0</ele><time>2026-03-29T12:35:43.584Z</time></trkpt><trkpt lat="38.775725" lon="16.4977783"><ele>261.0</ele><time>2026-03-29T12:35:44.584Z</time></trkpt><trkpt lat="38.7756583" lon="16.49795"><ele>261.0</ele><time>2026-03-29T12:35:45.584Z</time></trkpt><trkpt lat="38.7756117" lon="16.498125"><ele>263.0</ele><time>2026-03-29T12:35:46.584Z</time></trkpt><trkpt lat="38.7755967" lon="16.4983067"><ele>265.0</ele><time>2026-03-29T12:35:47.584Z</time></trkpt><trkpt lat="38.7756183" lon="16.498515"><ele>267.0</ele><time>2026-03-29T12:35:48.584Z</time></trkpt><trkpt lat="38.7756583" lon="16.498745"><ele>266.6666666666667</ele><time>2026-03-29T12:35:49.584Z</time></trkpt><trkpt lat="38.775705" lon="16.4989933"><ele>266.33333333333337</ele><time>2026-03-29T12:35:50.584Z</time></trkpt><trkpt lat="38.7757567" lon="16.4992283"><ele>266.0</ele><time>2026-03-29T12:35:51.584Z</time></trkpt><trkpt lat="38.775815" lon="16.4994267"><ele>264.0</ele><time>2026-03-29T12:35:52.584Z</time></trkpt><trkpt lat="38.7758933" lon="16.49959"><ele>262.0</ele><time>2026-03-29T12:35:53.584Z</time></trkpt><trkpt lat="38.776015" lon="16.4997333"><ele>260.0</ele><time>2026-03-29T12:35:54.584Z</time></trkpt><trkpt lat="38.7761717" lon="16.4998567"><ele>264.0</ele><time>2026-03-29T12:35:55.584Z</time></trkpt><trkpt lat="38.7763267" lon="16.4999767"><ele>268.0</ele><time>2026-03-29T12:35:56.584Z</time></trkpt><trkpt lat="38.7764617" lon="16.500105"><ele>272.0</ele><time>2026-03-29T12:35:57.584Z</time></trkpt><trkpt lat="38.7765683" lon="16.5002917"><ele>270.0</ele><time>2026-03-29T12:35:58.584Z</time></trkpt><trkpt lat="38.7766483" lon="16.5005117"><ele>268.0</ele><time>2026-03-29T12:35:59.584Z</time></trkpt><trkpt lat="38.7767233" lon="16.500755"><ele>266.0</ele><time>2026-03-29T12:36:00.584Z</time></trkpt><trkpt lat="38.7767817" lon="16.5009917"><ele>266.0</ele><time>2026-03-29T12:36:01.584Z</time></trkpt><trkpt lat="38.7768333" lon="16.50119"><ele>266.0</ele><time>2026-03-29T12:36:02.584Z</time></trkpt><trkpt lat="38.7768833" lon="16.5013617"><ele>266.0</ele><time>2026-03-29T12:36:03.584Z</time></trkpt><trkpt lat="38.77696" lon="16.501515"><ele>266.0</ele><time>2026-03-29T12:36:04.584Z</time></trkpt><trkpt lat="38.7770767" lon="16.501635"><ele>267.6666666666667</ele><time>2026-03-29T12:36:05.584Z</time></trkpt><trkpt lat="38.7772367" lon="16.5017267"><ele>269.3333333333333</ele><time>2026-03-29T12:36:06.584Z</time></trkpt><trkpt lat="38.7774217" lon="16.501775"><ele>271.0</ele><time>2026-03-29T12:36:07.584Z</time></trkpt><trkpt lat="38.77763" lon="16.5017817"><ele>271.66666666666663</ele><time>2026-03-29T12:36:08.584Z</time></trkpt><trkpt lat="38.7778433" lon="16.50177"><ele>272.3333333333333</ele><time>2026-03-29T12:36:09.584Z</time></trkpt><trkpt lat="38.778035" lon="16.5017683"><ele>273.0</ele><time>2026-03-29T12:36:10.584Z</time></trkpt><trkpt lat="38.7781833" lon="16.5018"><ele>273.0</ele><time>2026-03-29T12:36:11.584Z</time></trkpt><trkpt lat="38.7783217" lon="16.501865"><ele>273.0</ele><time>2026-03-29T12:36:12.584Z</time></trkpt><trkpt lat="38.7784517" lon="16.5019733"><ele>273.0</ele><time>2026-03-29T12:36:13.584Z</time></trkpt><trkpt lat="38.77858" lon="16.50212"><ele>272.3333333333333</ele><time>2026-03-29T12:36:14.584Z</time></trkpt><trkpt lat="38.7787017" lon="16.5023083"><ele>271.66666666666663</ele><time>2026-03-29T12:36:15.584Z</time></trkpt><trkpt lat="38.7788083" lon="16.502515"><ele>271.0</ele><time>2026-03-29T12:36:16.584Z</time></trkpt><trkpt lat="38.7788917" lon="16.502725"><ele>271.66666666666663</ele><time>2026-03-29T12:36:17.584Z</time></trkpt><trkpt lat="38.7789483" lon="16.5029567"><ele>272.3333333333333</ele><time>2026-03-29T12:36:18.584Z</time></trkpt><trkpt lat="38.7789967" lon="16.5031983"><ele>273.0</ele><time>2026-03-29T12:36:19.584Z</time></trkpt><trkpt lat="38.77903" lon="16.503475"><ele>276.0</ele><time>2026-03-29T12:36:20.584Z</time></trkpt><trkpt lat="38.7790583" lon="16.5037667"><ele>279.0</ele><time>2026-03-29T12:36:21.584Z</time></trkpt><trkpt lat="38.77909" lon="16.5040633"><ele>279.0</ele><time>2026-03-29T12:36:22.585Z</time></trkpt><trkpt lat="38.7791267" lon="16.5043633"><ele>279.0</ele><time>2026-03-29T12:36:23.584Z</time></trkpt><trkpt lat="38.7791633" lon="16.5046767"><ele>279.6666666666667</ele><time>2026-03-29T12:36:24.584Z</time></trkpt><trkpt lat="38.7791933" lon="16.504965"><ele>280.33333333333337</ele><time>2026-03-29T12:36:25.584Z</time></trkpt><trkpt lat="38.7792133" lon="16.5052083"><ele>281.0</ele><time>2026-03-29T12:36:26.584Z</time></trkpt><trkpt lat="38.7792183" lon="16.50543"><ele>282.0</ele><time>2026-03-29T12:36:27.584Z</time></trkpt><trkpt lat="38.7791883" lon="16.5056617"><ele>283.0</ele><time>2026-03-29T12:36:28.584Z</time></trkpt><trkpt lat="38.7791383" lon="16.5059033"><ele>284.0</ele><time>2026-03-29T12:36:29.584Z</time></trkpt><trkpt lat="38.7790783" lon="16.506165"><ele>283.0</ele><time>2026-03-29T12:36:30.584Z</time></trkpt><trkpt lat="38.77901" lon="16.506415"><ele>282.0</ele><time>2026-03-29T12:36:31.584Z</time></trkpt><trkpt lat="38.7789483" lon="16.506635"><ele>281.0</ele><time>2026-03-29T12:36:32.585Z</time></trkpt><trkpt lat="38.77891" lon="16.5068267"><ele>281.0</ele><time>2026-03-29T12:36:33.584Z</time></trkpt><trkpt lat="38.7788967" lon="16.507005"><ele>281.0</ele><time>2026-03-29T12:36:34.584Z</time></trkpt><trkpt lat="38.7789233" lon="16.50717"><ele>281.0</ele><time>2026-03-29T12:36:35.584Z</time></trkpt><trkpt lat="38.778985" lon="16.5073133"><ele>281.0</ele><time>2026-03-29T12:36:36.584Z</time></trkpt><trkpt lat="38.7790967" lon="16.507445"><ele>278.33333333333337</ele><time>2026-03-29T12:36:37.584Z</time></trkpt><trkpt lat="38.77924" lon="16.5075583"><ele>275.6666666666667</ele><time>2026-03-29T12:36:38.584Z</time></trkpt><trkpt lat="38.7794067" lon="16.5076667"><ele>273.0</ele><time>2026-03-29T12:36:39.584Z</time></trkpt><trkpt lat="38.7795633" lon="16.50778"><ele>273.0</ele><time>2026-03-29T12:36:40.584Z</time></trkpt><trkpt lat="38.7796833" lon="16.5079067"><ele>273.0</ele><time>2026-03-29T12:36:41.584Z</time></trkpt><trkpt lat="38.7797817" lon="16.508035"><ele>273.0</ele><time>2026-03-29T12:36:42.584Z</time></trkpt><trkpt lat="38.7798433" lon="16.5081717"><ele>273.0</ele><time>2026-03-29T12:36:43.584Z</time></trkpt><trkpt lat="38.7798983" lon="16.50831"><ele>275.6</ele><time>2026-03-29T12:36:44.584Z</time></trkpt><trkpt lat="38.77993" lon="16.5084433"><ele>278.20000000000005</ele><time>2026-03-29T12:36:45.584Z</time></trkpt><trkpt lat="38.77995" lon="16.5085767"><ele>280.8</ele><time>2026-03-29T12:36:46.584Z</time></trkpt><trkpt lat="38.7799733" lon="16.50872"><ele>283.40000000000003</ele><time>2026-03-29T12:36:47.585Z</time></trkpt><trkpt lat="38.7800017" lon="16.5088567"><ele>286.0</ele><time>2026-03-29T12:36:48.584Z</time></trkpt><trkpt lat="38.7800333" lon="16.5089917"><ele>286.0</ele><time>2026-03-29T12:36:49.585Z</time></trkpt><trkpt lat="38.7800667" lon="16.5091283"><ele>286.0</ele><time>2026-03-29T12:36:50.585Z</time></trkpt><trkpt lat="38.7801033" lon="16.5092833"><ele>286.0</ele><time>2026-03-29T12:36:51.584Z</time></trkpt><trkpt lat="38.7801417" lon="16.5094533"><ele>286.0</ele><time>2026-03-29T12:36:52.584Z</time></trkpt><trkpt lat="38.78018" lon="16.50963"><ele>284.66666666666663</ele><time>2026-03-29T12:36:53.585Z</time></trkpt><trkpt lat="38.7802117" lon="16.509825"><ele>283.3333333333333</ele><time>2026-03-29T12:36:54.584Z</time></trkpt><trkpt lat="38.7802467" lon="16.510025"><ele>282.0</ele><time>2026-03-29T12:36:55.585Z</time></trkpt><trkpt lat="38.7802883" lon="16.5102417"><ele>283.3333333333333</ele><time>2026-03-29T12:36:56.584Z</time></trkpt><trkpt lat="38.7803367" lon="16.5104667"><ele>284.66666666666663</ele><time>2026-03-29T12:36:57.584Z</time></trkpt><trkpt lat="38.7803867" lon="16.5107"><ele>286.0</ele><time>2026-03-29T12:36:58.584Z</time></trkpt><trkpt lat="38.7804367" lon="16.5109133"><ele>286.0</ele><time>2026-03-29T12:36:59.584Z</time></trkpt><trkpt lat="38.7804867" lon="16.5111267"><ele>286.0</ele><time>2026-03-29T12:37:00.584Z</time></trkpt><trkpt lat="38.78053" lon="16.5113283"><ele>286.0</ele><time>2026-03-29T12:37:01.584Z</time></trkpt><trkpt lat="38.780575" lon="16.5115317"><ele>287.3333333333333</ele><time>2026-03-29T12:37:02.584Z</time></trkpt><trkpt lat="38.7806183" lon="16.5117383"><ele>288.6666666666667</ele><time>2026-03-29T12:37:03.584Z</time></trkpt><trkpt lat="38.7806583" lon="16.51195"><ele>290.0</ele><time>2026-03-29T12:37:04.584Z</time></trkpt><trkpt lat="38.7806867" lon="16.5121733"><ele>290.75</ele><time>2026-03-29T12:37:05.584Z</time></trkpt><trkpt lat="38.7807067" lon="16.5123817"><ele>291.5</ele><time>2026-03-29T12:37:06.584Z</time></trkpt><trkpt lat="38.78071" lon="16.51257"><ele>292.25</ele><time>2026-03-29T12:37:07.584Z</time></trkpt><trkpt lat="38.7807067" lon="16.5127417"><ele>293.0</ele><time>2026-03-29T12:37:08.584Z</time></trkpt><trkpt lat="38.7807083" lon="16.5129117"><ele>294.5</ele><time>2026-03-29T12:37:09.584Z</time></trkpt><trkpt lat="38.7807017" lon="16.5130767"><ele>296.0</ele><time>2026-03-29T12:37:10.584Z</time></trkpt><trkpt lat="38.780705" lon="16.51323"><ele>297.5</ele><time>2026-03-29T12:37:11.584Z</time></trkpt><trkpt lat="38.7806967" lon="16.51339"><ele>299.0</ele><time>2026-03-29T12:37:12.584Z</time></trkpt><trkpt lat="38.7806867" lon="16.5135417"><ele>299.0</ele><time>2026-03-29T12:37:13.584Z</time></trkpt><trkpt lat="38.7806783" lon="16.5136817"><ele>299.0</ele><time>2026-03-29T12:37:14.584Z</time></trkpt><trkpt lat="38.7806717" lon="16.513815"><ele>299.0</ele><time>2026-03-29T12:37:15.584Z</time></trkpt><trkpt lat="38.7806617" lon="16.51393"><ele>299.0</ele><time>2026-03-29T12:37:16.584Z</time></trkpt><trkpt lat="38.7806583" lon="16.5140583"><ele>299.0</ele><time>2026-03-29T12:37:17.584Z</time></trkpt><trkpt lat="38.7806583" lon="16.514195"><ele>299.5</ele><time>2026-03-29T12:37:18.584Z</time></trkpt><trkpt lat="38.7806533" lon="16.5143117"><ele>300.0</ele><time>2026-03-29T12:37:19.584Z</time></trkpt><trkpt lat="38.7806517" lon="16.51441"><ele>300.5</ele><time>2026-03-29T12:37:20.584Z</time></trkpt><trkpt lat="38.780665" lon="16.5145567"><ele>301.0</ele><time>2026-03-29T12:37:22.584Z</time></trkpt><trkpt lat="38.7806967" lon="16.5146617"><ele>301.5</ele><time>2026-03-29T12:37:24.584Z</time></trkpt><trkpt lat="38.7807617" lon="16.5147133"><ele>302.0</ele><time>2026-03-29T12:44:51.585Z</time></trkpt><trkpt lat="38.7808383" lon="16.5147233"><ele>302.83333333333337</ele><time>2026-03-29T12:44:59.585Z</time></trkpt><trkpt lat="38.7808967" lon="16.51479"><ele>303.6666666666667</ele><time>2026-03-29T12:45:58.585Z</time></trkpt><trkpt lat="38.780955" lon="16.5148283"><ele>304.5</ele><time>2026-03-29T12:46:00.585Z</time></trkpt><trkpt lat="38.7810317" lon="16.514895"><ele>305.3333333333333</ele><time>2026-03-29T12:46:02.585Z</time></trkpt><trkpt lat="38.7811167" lon="16.514965"><ele>306.16666666666663</ele><time>2026-03-29T12:46:04.585Z</time></trkpt><trkpt lat="38.78116" lon="16.51503"><ele>307.0</ele><time>2026-03-29T12:46:05.585Z</time></trkpt><trkpt lat="38.781195" lon="16.5151133"><ele>304.3333333333333</ele><time>2026-03-29T12:46:06.585Z</time></trkpt><trkpt lat="38.78122" lon="16.5151983"><ele>301.66666666666663</ele><time>2026-03-29T12:46:07.585Z</time></trkpt><trkpt lat="38.781235" lon="16.5152833"><ele>299.0</ele><time>2026-03-29T12:46:08.585Z</time></trkpt><trkpt lat="38.7812267" lon="16.515375"><ele>296.3333333333333</ele><time>2026-03-29T12:46:09.585Z</time></trkpt><trkpt lat="38.781215" lon="16.515455"><ele>293.6666666666667</ele><time>2026-03-29T12:46:10.585Z</time></trkpt><trkpt lat="38.7811617" lon="16.5155983"><ele>291.0</ele><time>2026-03-29T12:46:12.585Z</time></trkpt><trkpt lat="38.7811133" lon="16.5156667"><ele>290.0</ele><time>2026-03-29T12:46:13.585Z</time></trkpt><trkpt lat="38.7810483" lon="16.5157267"><ele>289.0</ele><time>2026-03-29T12:46:14.585Z</time></trkpt><trkpt lat="38.780975" lon="16.5157817"><ele>288.0</ele><time>2026-03-29T12:46:15.585Z</time></trkpt><trkpt lat="38.7809033" lon="16.5158433"><ele>287.0</ele><time>2026-03-29T12:46:16.585Z</time></trkpt><trkpt lat="38.7808333" lon="16.5159333"><ele>286.0</ele><time>2026-03-29T12:46:17.585Z</time></trkpt><trkpt lat="38.7807817" lon="16.5160383"><ele>285.0</ele><time>2026-03-29T12:46:18.585Z</time></trkpt><trkpt lat="38.780755" lon="16.5161583"><ele>292.0</ele><time>2026-03-29T12:46:19.585Z</time></trkpt><trkpt lat="38.7807567" lon="16.516285"><ele>299.0</ele><time>2026-03-29T12:46:20.585Z</time></trkpt><trkpt lat="38.7807783" lon="16.51641"><ele>306.0</ele><time>2026-03-29T12:46:21.585Z</time></trkpt><trkpt lat="38.7808267" lon="16.5165217"><ele>313.0</ele><time>2026-03-29T12:46:22.585Z</time></trkpt><trkpt lat="38.7808783" lon="16.5166267"><ele>320.0</ele><time>2026-03-29T12:46:23.585Z</time></trkpt><trkpt lat="38.7809517" lon="16.51672"><ele>318.8</ele><time>2026-03-29T12:46:24.585Z</time></trkpt><trkpt lat="38.7810433" lon="16.516805"><ele>317.6</ele><time>2026-03-29T12:46:25.585Z</time></trkpt><trkpt lat="38.7811267" lon="16.51689"><ele>316.4</ele><time>2026-03-29T12:46:26.585Z</time></trkpt><trkpt lat="38.7812233" lon="16.5169717"><ele>315.2</ele><time>2026-03-29T12:46:27.585Z</time></trkpt><trkpt lat="38.78131" lon="16.5170567"><ele>314.0</ele><time>2026-03-29T12:46:28.585Z</time></trkpt><trkpt lat="38.7813883" lon="16.5171483"><ele>314.0</ele><time>2026-03-29T12:46:29.585Z</time></trkpt><trkpt lat="38.7814617" lon="16.5172433"><ele>314.0</ele><time>2026-03-29T12:46:30.585Z</time></trkpt><trkpt lat="38.7815467" lon="16.5173267"><ele>314.0</ele><time>2026-03-29T12:46:31.585Z</time></trkpt><trkpt lat="38.78164" lon="16.5174"><ele>314.0</ele><time>2026-03-29T12:46:32.585Z</time></trkpt><trkpt lat="38.7817417" lon="16.51746"><ele>314.0</ele><time>2026-03-29T12:46:33.585Z</time></trkpt><trkpt lat="38.7818417" lon="16.5175167"><ele>308.0</ele><time>2026-03-29T12:46:34.585Z</time></trkpt><trkpt lat="38.7819333" lon="16.51755"><ele>302.0</ele><time>2026-03-29T12:46:35.585Z</time></trkpt><trkpt lat="38.7820167" lon="16.5175833"><ele>296.0</ele><time>2026-03-29T12:46:36.585Z</time></trkpt><trkpt lat="38.7821017" lon="16.5176183"><ele>290.0</ele><time>2026-03-29T12:46:37.585Z</time></trkpt><trkpt lat="38.7821917" lon="16.5176683"><ele>284.0</ele><time>2026-03-29T12:46:38.585Z</time></trkpt><trkpt lat="38.7822867" lon="16.5177317"><ele>284.0</ele><time>2026-03-29T12:46:39.585Z</time></trkpt><trkpt lat="38.7823567" lon="16.51782"><ele>284.0</ele><time>2026-03-29T12:46:40.585Z</time></trkpt><trkpt lat="38.7824383" lon="16.5179083"><ele>284.0</ele><time>2026-03-29T12:46:41.586Z</time></trkpt><trkpt lat="38.7825133" lon="16.5179817"><ele>284.0</ele><time>2026-03-29T12:46:42.585Z</time></trkpt><trkpt lat="38.7825767" lon="16.518055"><ele>284.0</ele><time>2026-03-29T12:46:43.585Z</time></trkpt><trkpt lat="38.78263" lon="16.5181283"><ele>282.83333333333337</ele><time>2026-03-29T12:46:44.586Z</time></trkpt><trkpt lat="38.78268" lon="16.5181917"><ele>281.6666666666667</ele><time>2026-03-29T12:46:45.585Z</time></trkpt><trkpt lat="38.7827117" lon="16.5182633"><ele>280.5</ele><time>2026-03-29T12:46:46.585Z</time></trkpt><trkpt lat="38.7827317" lon="16.518405"><ele>279.3333333333333</ele><time>2026-03-29T12:46:48.586Z</time></trkpt><trkpt lat="38.78274" lon="16.5184867"><ele>278.16666666666663</ele><time>2026-03-29T12:46:49.585Z</time></trkpt><trkpt lat="38.78274" lon="16.5185783"><ele>277.0</ele><time>2026-03-29T12:46:50.585Z</time></trkpt><trkpt lat="38.78275" lon="16.5186767"><ele>279.6</ele><time>2026-03-29T12:46:51.585Z</time></trkpt><trkpt lat="38.7827583" lon="16.5187833"><ele>282.2</ele><time>2026-03-29T12:46:52.585Z</time></trkpt><trkpt lat="38.78278" lon="16.5188917"><ele>284.8</ele><time>2026-03-29T12:46:53.586Z</time></trkpt><trkpt lat="38.7828083" lon="16.5190033"><ele>287.4</ele><time>2026-03-29T12:46:54.585Z</time></trkpt><trkpt lat="38.7828467" lon="16.5191083"><ele>290.0</ele><time>2026-03-29T12:46:55.585Z</time></trkpt><trkpt lat="38.7828967" lon="16.519215"><ele>290.0</ele><time>2026-03-29T12:46:56.585Z</time></trkpt><trkpt lat="38.782945" lon="16.519325"><ele>290.0</ele><time>2026-03-29T12:46:57.586Z</time></trkpt><trkpt lat="38.782985" lon="16.51944"><ele>290.0</ele><time>2026-03-29T12:46:58.585Z</time></trkpt><trkpt lat="38.7830083" lon="16.519545"><ele>290.0</ele><time>2026-03-29T12:46:59.585Z</time></trkpt><trkpt lat="38.7830383" lon="16.519645"><ele>290.0</ele><time>2026-03-29T12:47:00.585Z</time></trkpt><trkpt lat="38.7830633" lon="16.5197483"><ele>290.4</ele><time>2026-03-29T12:47:01.585Z</time></trkpt><trkpt lat="38.78308" lon="16.519865"><ele>290.8</ele><time>2026-03-29T12:47:02.585Z</time></trkpt><trkpt lat="38.78307" lon="16.5199917"><ele>291.2</ele><time>2026-03-29T12:47:03.585Z</time></trkpt><trkpt lat="38.78304" lon="16.5201167"><ele>291.6</ele><time>2026-03-29T12:47:04.585Z</time></trkpt><trkpt lat="38.7829933" lon="16.52023"><ele>292.0</ele><time>2026-03-29T12:47:05.585Z</time></trkpt><trkpt lat="38.7829483" lon="16.520355"><ele>290.2</ele><time>2026-03-29T12:47:06.585Z</time></trkpt><trkpt lat="38.7829033" lon="16.5204867"><ele>288.4</ele><time>2026-03-29T12:47:07.585Z</time></trkpt><trkpt lat="38.782875" lon="16.5206117"><ele>286.6</ele><time>2026-03-29T12:47:08.585Z</time></trkpt><trkpt lat="38.782825" lon="16.5207367"><ele>284.8</ele><time>2026-03-29T12:47:09.585Z</time></trkpt><trkpt lat="38.78277" lon="16.5208483"><ele>283.0</ele><time>2026-03-29T12:47:10.586Z</time></trkpt><trkpt lat="38.7827017" lon="16.5209533"><ele>284.5</ele><time>2026-03-29T12:47:11.585Z</time></trkpt><trkpt lat="38.7826083" lon="16.5210533"><ele>286.0</ele><time>2026-03-29T12:47:12.585Z</time></trkpt><trkpt lat="38.7825217" lon="16.5211933"><ele>287.5</ele><time>2026-03-29T12:47:13.585Z</time></trkpt><trkpt lat="38.7824533" lon="16.5213083"><ele>289.0</ele><time>2026-03-29T12:47:14.585Z</time></trkpt><trkpt lat="38.7823767" lon="16.5214283"><ele>289.0</ele><time>2026-03-29T12:47:15.585Z</time></trkpt><trkpt lat="38.7823183" lon="16.52155"><ele>289.0</ele><time>2026-03-29T12:47:16.585Z</time></trkpt><trkpt lat="38.7822733" lon="16.5216933"><ele>289.0</ele><time>2026-03-29T12:47:17.585Z</time></trkpt><trkpt lat="38.782225" lon="16.5218167"><ele>289.0</ele><time>2026-03-29T12:47:18.585Z</time></trkpt><trkpt lat="38.7821867" lon="16.5219333"><ele>289.0</ele><time>2026-03-29T12:47:19.585Z</time></trkpt><trkpt lat="38.78218" lon="16.5220333"><ele>289.0</ele><time>2026-03-29T12:47:20.585Z</time></trkpt><trkpt lat="38.7822067" lon="16.5221133"><ele>289.0</ele><time>2026-03-29T12:47:21.585Z</time></trkpt><trkpt lat="38.7822967" lon="16.5221883"><ele>289.0</ele><time>2026-03-29T12:47:23.585Z</time></trkpt><trkpt lat="38.7823567" lon="16.5221567"><ele>289.0</ele><time>2026-03-29T12:47:24.585Z</time></trkpt><trkpt lat="38.7824333" lon="16.52207"><ele>289.0</ele><time>2026-03-29T12:47:25.585Z</time></trkpt><trkpt lat="38.7825083" lon="16.52194"><ele>289.0</ele><time>2026-03-29T12:47:26.585Z</time></trkpt><trkpt lat="38.782605" lon="16.5218"><ele>289.0</ele><time>2026-03-29T12:47:27.585Z</time></trkpt><trkpt lat="38.782715" lon="16.5216767"><ele>289.0</ele><time>2026-03-29T12:47:28.585Z</time></trkpt><trkpt lat="38.7828083" lon="16.5215733"><ele>289.0</ele><time>2026-03-29T12:47:29.585Z</time></trkpt><trkpt lat="38.7828867" lon="16.5214933"><ele>285.8333333333333</ele><time>2026-03-29T12:47:30.585Z</time></trkpt><trkpt lat="38.7829567" lon="16.5214383"><ele>282.66666666666663</ele><time>2026-03-29T12:47:31.585Z</time></trkpt><trkpt lat="38.7830433" lon="16.5214467"><ele>279.5</ele><time>2026-03-29T12:47:33.585Z</time></trkpt><trkpt lat="38.7830517" lon="16.521555"><ele>276.3333333333333</ele><time>2026-03-29T12:47:35.585Z</time></trkpt><trkpt lat="38.7830283" lon="16.5216467"><ele>273.1666666666667</ele><time>2026-03-29T12:47:36.585Z</time></trkpt><trkpt lat="38.7829883" lon="16.5217583"><ele>270.0</ele><time>2026-03-29T12:47:37.585Z</time></trkpt><trkpt lat="38.7829367" lon="16.521885"><ele>270.0</ele><time>2026-03-29T12:47:38.585Z</time></trkpt><trkpt lat="38.782855" lon="16.5220183"><ele>270.0</ele><time>2026-03-29T12:47:39.585Z</time></trkpt><trkpt lat="38.7827733" lon="16.5221567"><ele>270.0</ele><time>2026-03-29T12:47:40.585Z</time></trkpt><trkpt lat="38.782675" lon="16.52227"><ele>270.0</ele><time>2026-03-29T12:47:41.585Z</time></trkpt><trkpt lat="38.782565" lon="16.5223783"><ele>271.2</ele><time>2026-03-29T12:47:42.585Z</time></trkpt><trkpt lat="38.782455" lon="16.5224717"><ele>272.4</ele><time>2026-03-29T12:47:43.585Z</time></trkpt><trkpt lat="38.7823667" lon="16.5225383"><ele>273.6</ele><time>2026-03-29T12:47:44.585Z</time></trkpt><trkpt lat="38.7823167" lon="16.5225967"><ele>274.8</ele><time>2026-03-29T12:47:45.585Z</time></trkpt><trkpt lat="38.7822717" lon="16.522655"><ele>276.0</ele><time>2026-03-29T12:47:47.585Z</time></trkpt><trkpt lat="38.7822267" lon="16.522755"><ele>276.0</ele><time>2026-03-29T12:47:50.585Z</time></trkpt><trkpt lat="38.7821633" lon="16.522865"><ele>276.0</ele><time>2026-03-29T12:47:52.585Z</time></trkpt><trkpt lat="38.78208" lon="16.522975"><ele>276.0</ele><time>2026-03-29T12:47:54.585Z</time></trkpt><trkpt lat="38.7820267" lon="16.5230467"><ele>276.0</ele><time>2026-03-29T12:47:55.585Z</time></trkpt><trkpt lat="38.78197" lon="16.523135"><ele>276.0</ele><time>2026-03-29T12:47:56.585Z</time></trkpt><trkpt lat="38.7819133" lon="16.5232383"><ele>277.25</ele><time>2026-03-29T12:47:57.585Z</time></trkpt><trkpt lat="38.7818567" lon="16.52338"><ele>278.5</ele><time>2026-03-29T12:47:58.585Z</time></trkpt><trkpt lat="38.7817883" lon="16.52354"><ele>279.75</ele><time>2026-03-29T12:47:59.585Z</time></trkpt><trkpt lat="38.7817183" lon="16.523705"><ele>281.0</ele><time>2026-03-29T12:48:00.585Z</time></trkpt><trkpt lat="38.7816417" lon="16.52386"><ele>275.75</ele><time>2026-03-29T12:48:01.585Z</time></trkpt><trkpt lat="38.7815733" lon="16.52401"><ele>270.5</ele><time>2026-03-29T12:48:02.585Z</time></trkpt><trkpt lat="38.7815067" lon="16.52413"><ele>265.25</ele><time>2026-03-29T12:48:03.585Z</time></trkpt><trkpt lat="38.7814317" lon="16.5242217"><ele>260.0</ele><time>2026-03-29T12:48:04.585Z</time></trkpt><trkpt lat="38.7813533" lon="16.5243067"><ele>260.0</ele><time>2026-03-29T12:48:05.585Z</time></trkpt><trkpt lat="38.7812583" lon="16.5243667"><ele>260.0</ele><time>2026-03-29T12:48:06.585Z</time></trkpt><trkpt lat="38.7811667" lon="16.5243933"><ele>260.0</ele><time>2026-03-29T12:48:07.585Z</time></trkpt><trkpt lat="38.7810767" lon="16.524395"><ele>260.0</ele><time>2026-03-29T12:48:08.585Z</time></trkpt><trkpt lat="38.780995" lon="16.5243417"><ele>260.0</ele><time>2026-03-29T12:48:09.585Z</time></trkpt><trkpt lat="38.780915" lon="16.5242417"><ele>258.2</ele><time>2026-03-29T12:48:10.585Z</time></trkpt><trkpt lat="38.7808367" lon="16.5241233"><ele>256.4</ele><time>2026-03-29T12:48:11.585Z</time></trkpt><trkpt lat="38.780765" lon="16.5239933"><ele>254.60000000000002</ele><time>2026-03-29T12:48:12.585Z</time></trkpt><trkpt lat="38.7807" lon="16.523875"><ele>252.8</ele><time>2026-03-29T12:48:13.585Z</time></trkpt><trkpt lat="38.7806467" lon="16.5237867"><ele>251.0</ele><time>2026-03-29T12:48:14.585Z</time></trkpt><trkpt lat="38.7805933" lon="16.5237067"><ele>251.0</ele><time>2026-03-29T12:48:15.585Z</time></trkpt><trkpt lat="38.7804967" lon="16.5236383"><ele>251.0</ele><time>2026-03-29T12:48:17.585Z</time></trkpt><trkpt lat="38.7803717" lon="16.5237233"><ele>251.0</ele><time>2026-03-29T12:48:19.585Z</time></trkpt><trkpt lat="38.780295" lon="16.5238367"><ele>251.0</ele><time>2026-03-29T12:48:20.585Z</time></trkpt><trkpt lat="38.7802467" lon="16.5239583"><ele>251.0</ele><time>2026-03-29T12:48:21.585Z</time></trkpt><trkpt lat="38.78024" lon="16.5240567"><ele>251.00000000000003</ele><time>2026-03-29T12:48:22.585Z</time></trkpt><trkpt lat="38.7803067" lon="16.5241667"><ele>251.00000000000003</ele><time>2026-03-29T12:48:24.585Z</time></trkpt><trkpt lat="38.78038" lon="16.5241717"><ele>251.0</ele><time>2026-03-29T12:48:25.585Z</time></trkpt><trkpt lat="38.7804783" lon="16.5241617"><ele>251.0</ele><time>2026-03-29T12:48:26.586Z</time></trkpt><trkpt lat="38.7805667" lon="16.524195"><ele>251.0</ele><time>2026-03-29T12:48:27.585Z</time></trkpt><trkpt lat="38.7806383" lon="16.524285"><ele>251.0</ele><time>2026-03-29T12:48:28.585Z</time></trkpt><trkpt lat="38.7806983" lon="16.5244283"><ele>251.0</ele><time>2026-03-29T12:48:29.585Z</time></trkpt><trkpt lat="38.7807683" lon="16.5246283"><ele>251.0</ele><time>2026-03-29T12:48:30.585Z</time></trkpt><trkpt lat="38.7808567" lon="16.5248233"><ele>248.66666666666669</ele><time>2026-03-29T12:48:31.585Z</time></trkpt><trkpt lat="38.7809483" lon="16.5249967"><ele>246.33333333333331</ele><time>2026-03-29T12:48:32.585Z</time></trkpt><trkpt lat="38.7810317" lon="16.5251633"><ele>244.0</ele><time>2026-03-29T12:48:33.586Z</time></trkpt><trkpt lat="38.781115" lon="16.5253017"><ele>241.2</ele><time>2026-03-29T12:48:34.585Z</time></trkpt><trkpt lat="38.7811917" lon="16.5254167"><ele>238.39999999999998</ele><time>2026-03-29T12:48:35.587Z</time></trkpt><trkpt lat="38.7812483" lon="16.525535"><ele>235.6</ele><time>2026-03-29T12:48:36.586Z</time></trkpt><trkpt lat="38.7812683" lon="16.5256617"><ele>232.8</ele><time>2026-03-29T12:48:37.586Z</time></trkpt><trkpt lat="38.7812583" lon="16.5258067"><ele>230.0</ele><time>2026-03-29T12:48:38.586Z</time></trkpt><trkpt lat="38.7812133" lon="16.5259917"><ele>230.0</ele><time>2026-03-29T12:48:39.586Z</time></trkpt><trkpt lat="38.78116" lon="16.5261583"><ele>230.0</ele><time>2026-03-29T12:48:40.586Z</time></trkpt><trkpt lat="38.781135" lon="16.5262883"><ele>230.0</ele><time>2026-03-29T12:48:41.586Z</time></trkpt><trkpt lat="38.7811333" lon="16.526435"><ele>230.0</ele><time>2026-03-29T12:48:42.586Z</time></trkpt><trkpt lat="38.7811783" lon="16.526595"><ele>225.5</ele><time>2026-03-29T12:48:43.587Z</time></trkpt><trkpt lat="38.7812567" lon="16.5267667"><ele>221.0</ele><time>2026-03-29T12:48:44.586Z</time></trkpt><trkpt lat="38.781335" lon="16.526925"><ele>216.5</ele><time>2026-03-29T12:48:45.586Z</time></trkpt><trkpt lat="38.7813917" lon="16.5270717"><ele>212.0</ele><time>2026-03-29T12:48:46.586Z</time></trkpt><trkpt lat="38.7814467" lon="16.527195"><ele>207.50000000000003</ele><time>2026-03-29T12:48:47.586Z</time></trkpt><trkpt lat="38.7815" lon="16.5272717"><ele>203.0</ele><time>2026-03-29T12:48:48.586Z</time></trkpt><trkpt lat="38.78156" lon="16.527315"><ele>198.5</ele><time>2026-03-29T12:48:49.586Z</time></trkpt><trkpt lat="38.7816333" lon="16.5273217"><ele>194.0</ele><time>2026-03-29T12:48:50.586Z</time></trkpt><trkpt lat="38.7817" lon="16.5272967"><ele>189.5</ele><time>2026-03-29T12:48:51.586Z</time></trkpt><trkpt lat="38.78176" lon="16.527255"><ele>185.0</ele><time>2026-03-29T12:48:52.586Z</time></trkpt><trkpt lat="38.78185" lon="16.52724"><ele>185.0</ele><time>2026-03-29T12:48:54.587Z</time></trkpt><trkpt lat="38.7817983" lon="16.5273667"><ele>185.0</ele><time>2026-03-29T12:48:57.586Z</time></trkpt><trkpt lat="38.7817167" lon="16.5274167"><ele>185.0</ele><time>2026-03-29T12:48:58.586Z</time></trkpt><trkpt lat="38.7815933" lon="16.527475"><ele>185.0</ele><time>2026-03-29T12:48:59.586Z</time></trkpt><trkpt lat="38.78147" lon="16.5275283"><ele>185.0</ele><time>2026-03-29T12:49:00.587Z</time></trkpt><trkpt lat="38.7813667" lon="16.52757"><ele>185.0</ele><time>2026-03-29T12:49:01.586Z</time></trkpt><trkpt lat="38.7812917" lon="16.5276233"><ele>185.0</ele><time>2026-03-29T12:49:02.586Z</time></trkpt><trkpt lat="38.78127" lon="16.5277433"><ele>185.0</ele><time>2026-03-29T12:49:04.586Z</time></trkpt><trkpt lat="38.781415" lon="16.5277767"><ele>185.0</ele><time>2026-03-29T12:49:06.587Z</time></trkpt><trkpt lat="38.781535" lon="16.52774"><ele>185.0</ele><time>2026-03-29T12:49:07.586Z</time></trkpt><trkpt lat="38.7816767" lon="16.5277"><ele>185.0</ele><time>2026-03-29T12:49:08.586Z</time></trkpt><trkpt lat="38.7817817" lon="16.5276617"><ele>185.0</ele><time>2026-03-29T12:49:09.586Z</time></trkpt><trkpt lat="38.7818633" lon="16.5276533"><ele>185.0</ele><time>2026-03-29T12:49:10.586Z</time></trkpt><trkpt lat="38.7819317" lon="16.5276667"><ele>185.0</ele><time>2026-03-29T12:49:11.586Z</time></trkpt><trkpt lat="38.7819533" lon="16.52776"><ele>178.75</ele><time>2026-03-29T12:49:13.586Z</time></trkpt><trkpt lat="38.7818883" lon="16.5278333"><ele>172.5</ele><time>2026-03-29T12:49:14.586Z</time></trkpt><trkpt lat="38.78178" lon="16.5279317"><ele>166.25</ele><time>2026-03-29T12:49:15.586Z</time></trkpt><trkpt lat="38.7816283" lon="16.5280283"><ele>160.0</ele><time>2026-03-29T12:49:16.586Z</time></trkpt><trkpt lat="38.7814867" lon="16.5281133"><ele>160.0</ele><time>2026-03-29T12:49:17.586Z</time></trkpt><trkpt lat="38.78137" lon="16.5282"><ele>160.0</ele><time>2026-03-29T12:49:18.586Z</time></trkpt><trkpt lat="38.7812733" lon="16.5282517"><ele>160.0</ele><time>2026-03-29T12:49:19.586Z</time></trkpt><trkpt lat="38.78121" lon="16.5283167"><ele>160.0</ele><time>2026-03-29T12:49:20.586Z</time></trkpt><trkpt lat="38.78119" lon="16.5284467"><ele>160.0</ele><time>2026-03-29T12:49:22.586Z</time></trkpt><trkpt lat="38.7813117" lon="16.5284767"><ele>160.0</ele><time>2026-03-29T12:49:24.586Z</time></trkpt><trkpt lat="38.7814167" lon="16.5284583"><ele>160.0</ele><time>2026-03-29T12:49:25.586Z</time></trkpt><trkpt lat="38.7815667" lon="16.5284467"><ele>160.0</ele><time>2026-03-29T12:49:26.586Z</time></trkpt><trkpt lat="38.7817533" lon="16.52842"><ele>160.0</ele><time>2026-03-29T12:49:27.586Z</time></trkpt><trkpt lat="38.781925" lon="16.5283917"><ele>156.25</ele><time>2026-03-29T12:49:28.586Z</time></trkpt><trkpt lat="38.7820767" lon="16.528345"><ele>152.5</ele><time>2026-03-29T12:49:29.586Z</time></trkpt><trkpt lat="38.7822117" lon="16.5283017"><ele>148.75</ele><time>2026-03-29T12:49:30.586Z</time></trkpt><trkpt lat="38.7823317" lon="16.5282617"><ele>145.0</ele><time>2026-03-29T12:49:31.586Z</time></trkpt><trkpt lat="38.7824267" lon="16.528225"><ele>145.0</ele><time>2026-03-29T12:49:32.586Z</time></trkpt><trkpt lat="38.7825183" lon="16.5282217"><ele>145.0</ele><time>2026-03-29T12:49:33.587Z</time></trkpt><trkpt lat="38.7825883" lon="16.5282617"><ele>145.0</ele><time>2026-03-29T12:49:34.587Z</time></trkpt><trkpt lat="38.7826417" lon="16.5283133"><ele>145.0</ele><time>2026-03-29T12:49:35.587Z</time></trkpt><trkpt lat="38.7826683" lon="16.5283967"><ele>145.0</ele><time>2026-03-29T12:49:36.586Z</time></trkpt><trkpt lat="38.7826517" lon="16.52853"><ele>145.0</ele><time>2026-03-29T12:49:37.586Z</time></trkpt><trkpt lat="38.7826133" lon="16.5287117"><ele>142.25</ele><time>2026-03-29T12:49:38.586Z</time></trkpt><trkpt lat="38.7825783" lon="16.528885"><ele>139.5</ele><time>2026-03-29T12:49:39.586Z</time></trkpt><trkpt lat="38.7825883" lon="16.5290467"><ele>136.75</ele><time>2026-03-29T12:49:40.586Z</time></trkpt><trkpt lat="38.7826317" lon="16.529195"><ele>134.0</ele><time>2026-03-29T12:49:41.586Z</time></trkpt><trkpt lat="38.7827" lon="16.5292933"><ele>134.0</ele><time>2026-03-29T12:49:42.586Z</time></trkpt><trkpt lat="38.782765" lon="16.5293733"><ele>134.0</ele><time>2026-03-29T12:49:43.586Z</time></trkpt><trkpt lat="38.7828183" lon="16.5294417"><ele>134.0</ele><time>2026-03-29T12:49:44.586Z</time></trkpt><trkpt lat="38.782835" lon="16.5295467"><ele>134.0</ele><time>2026-03-29T12:49:46.587Z</time></trkpt><trkpt lat="38.7827617" lon="16.5295483"><ele>134.0</ele><time>2026-03-29T12:49:48.586Z</time></trkpt><trkpt lat="38.782695" lon="16.5294917"><ele>134.0</ele><time>2026-03-29T12:49:49.587Z</time></trkpt><trkpt lat="38.782605" lon="16.5294017"><ele>134.0</ele><time>2026-03-29T12:49:50.586Z</time></trkpt><trkpt lat="38.7825067" lon="16.52929"><ele>134.0</ele><time>2026-03-29T12:49:51.586Z</time></trkpt><trkpt lat="38.782415" lon="16.5292017"><ele>134.0</ele><time>2026-03-29T12:49:52.586Z</time></trkpt><trkpt lat="38.7822417" lon="16.5291333"><ele>134.0</ele><time>2026-03-29T12:49:54.586Z</time></trkpt><trkpt lat="38.7821767" lon="16.5291533"><ele>134.0</ele><time>2026-03-29T12:49:55.586Z</time></trkpt><trkpt lat="38.7821817" lon="16.5292883"><ele>134.0</ele><time>2026-03-29T12:49:57.587Z</time></trkpt><trkpt lat="38.7822383" lon="16.52939"><ele>134.0</ele><time>2026-03-29T12:49:58.586Z</time></trkpt><trkpt lat="38.7823017" lon="16.5295"><ele>134.0</ele><time>2026-03-29T12:49:59.586Z</time></trkpt><trkpt lat="38.7823717" lon="16.5296233"><ele>134.0</ele><time>2026-03-29T12:50:00.587Z</time></trkpt><trkpt lat="38.7824333" lon="16.529745"><ele>130.0</ele><time>2026-03-29T12:50:01.586Z</time></trkpt><trkpt lat="38.7824967" lon="16.529835"><ele>126.0</ele><time>2026-03-29T12:50:02.586Z</time></trkpt><trkpt lat="38.78257" lon="16.5299"><ele>122.0</ele><time>2026-03-29T12:50:03.586Z</time></trkpt><trkpt lat="38.7826533" lon="16.52994"><ele>118.0</ele><time>2026-03-29T12:50:04.586Z</time></trkpt><trkpt lat="38.7827533" lon="16.529955"><ele>114.0</ele><time>2026-03-29T12:50:05.586Z</time></trkpt><trkpt lat="38.782855" lon="16.529945"><ele>112.2</ele><time>2026-03-29T12:50:06.586Z</time></trkpt><trkpt lat="38.782945" lon="16.5299517"><ele>110.4</ele><time>2026-03-29T12:50:07.586Z</time></trkpt><trkpt lat="38.78301" lon="16.5299717"><ele>108.6</ele><time>2026-03-29T12:50:08.586Z</time></trkpt><trkpt lat="38.7830617" lon="16.5300283"><ele>106.8</ele><time>2026-03-29T12:50:10.586Z</time></trkpt><trkpt lat="38.7829717" lon="16.5301317"><ele>105.0</ele><time>2026-03-29T12:50:12.586Z</time></trkpt><trkpt lat="38.7828767" lon="16.5302"><ele>105.0</ele><time>2026-03-29T12:50:13.586Z</time></trkpt><trkpt lat="38.7827767" lon="16.5303017"><ele>105.0</ele><time>2026-03-29T12:50:14.586Z</time></trkpt><trkpt lat="38.7826817" lon="16.530435"><ele>105.0</ele><time>2026-03-29T12:50:15.586Z</time></trkpt><trkpt lat="38.7825817" lon="16.5305933"><ele>105.0</ele><time>2026-03-29T12:50:16.587Z</time></trkpt><trkpt lat="38.782475" lon="16.53074"><ele>103.75</ele><time>2026-03-29T12:50:17.586Z</time></trkpt><trkpt lat="38.782365" lon="16.53088"><ele>102.5</ele><time>2026-03-29T12:50:18.586Z</time></trkpt><trkpt lat="38.7822617" lon="16.5309933"><ele>101.25</ele><time>2026-03-29T12:50:19.586Z</time></trkpt><trkpt lat="38.7821783" lon="16.531095"><ele>100.0</ele><time>2026-03-29T12:50:20.586Z</time></trkpt><trkpt lat="38.7821067" lon="16.531185"><ele>97.83333333333334</ele><time>2026-03-29T12:50:21.586Z</time></trkpt><trkpt lat="38.782065" lon="16.5312683"><ele>95.66666666666667</ele><time>2026-03-29T12:50:22.586Z</time></trkpt><trkpt lat="38.78206" lon="16.5313583"><ele>93.5</ele><time>2026-03-29T12:50:23.586Z</time></trkpt><trkpt lat="38.7820867" lon="16.5314483"><ele>91.33333333333334</ele><time>2026-03-29T12:50:24.586Z</time></trkpt><trkpt lat="38.7821583" lon="16.5315083"><ele>89.16666666666667</ele><time>2026-03-29T12:50:25.587Z</time></trkpt><trkpt lat="38.7822783" lon="16.531545"><ele>87.0</ele><time>2026-03-29T12:50:26.586Z</time></trkpt><trkpt lat="38.782445" lon="16.5315383"><ele>87.0</ele><time>2026-03-29T12:50:27.587Z</time></trkpt><trkpt lat="38.78262" lon="16.5314967"><ele>87.0</ele><time>2026-03-29T12:50:28.586Z</time></trkpt><trkpt lat="38.782755" lon="16.53144"><ele>87.0</ele><time>2026-03-29T12:50:29.586Z</time></trkpt><trkpt lat="38.7828617" lon="16.5313767"><ele>87.0</ele><time>2026-03-29T12:50:30.586Z</time></trkpt><trkpt lat="38.7829517" lon="16.5313383"><ele>87.0</ele><time>2026-03-29T12:50:31.586Z</time></trkpt><trkpt lat="38.7830233" lon="16.53134"><ele>87.0</ele><time>2026-03-29T12:50:32.586Z</time></trkpt><trkpt lat="38.7830917" lon="16.5313967"><ele>87.0</ele><time>2026-03-29T12:50:33.586Z</time></trkpt><trkpt lat="38.7831433" lon="16.5314833"><ele>87.0</ele><time>2026-03-29T12:50:34.586Z</time></trkpt><trkpt lat="38.78318" lon="16.531605"><ele>87.0</ele><time>2026-03-29T12:50:35.586Z</time></trkpt><trkpt lat="38.7831883" lon="16.53178"><ele>87.0</ele><time>2026-03-29T12:50:36.586Z</time></trkpt><trkpt lat="38.7831667" lon="16.5320067"><ele>87.0</ele><time>2026-03-29T12:50:37.586Z</time></trkpt><trkpt lat="38.78315" lon="16.5322383"><ele>87.0</ele><time>2026-03-29T12:50:38.586Z</time></trkpt><trkpt lat="38.783135" lon="16.5324617"><ele>87.33333333333333</ele><time>2026-03-29T12:50:39.586Z</time></trkpt><trkpt lat="38.78313" lon="16.5326767"><ele>87.66666666666666</ele><time>2026-03-29T12:50:40.586Z</time></trkpt><trkpt lat="38.7831367" lon="16.5328833"><ele>88.0</ele><time>2026-03-29T12:50:41.586Z</time></trkpt><trkpt lat="38.7831483" lon="16.5330867"><ele>88.0</ele><time>2026-03-29T12:50:42.586Z</time></trkpt><trkpt lat="38.7831633" lon="16.5332733"><ele>88.0</ele><time>2026-03-29T12:50:43.586Z</time></trkpt><trkpt lat="38.7831767" lon="16.5334483"><ele>88.0</ele><time>2026-03-29T12:50:44.586Z</time></trkpt><trkpt lat="38.783195" lon="16.5336117"><ele>88.0</ele><time>2026-03-29T12:50:45.586Z</time></trkpt><trkpt lat="38.7832433" lon="16.5337917"><ele>85.66666666666666</ele><time>2026-03-29T12:50:46.586Z</time></trkpt><trkpt lat="38.783305" lon="16.5339933"><ele>83.33333333333333</ele><time>2026-03-29T12:50:47.586Z</time></trkpt><trkpt lat="38.7833883" lon="16.5342017"><ele>81.0</ele><time>2026-03-29T12:50:48.586Z</time></trkpt><trkpt lat="38.78349" lon="16.534425"><ele>84.0</ele><time>2026-03-29T12:50:49.586Z</time></trkpt><trkpt lat="38.7835917" lon="16.5346833"><ele>87.0</ele><time>2026-03-29T12:50:50.586Z</time></trkpt><trkpt lat="38.783675" lon="16.534965"><ele>87.0</ele><time>2026-03-29T12:50:51.586Z</time></trkpt><trkpt lat="38.7837333" lon="16.5352767"><ele>87.0</ele><time>2026-03-29T12:50:52.586Z</time></trkpt><trkpt lat="38.7837367" lon="16.5355617"><ele>87.33333333333333</ele><time>2026-03-29T12:50:53.586Z</time></trkpt><trkpt lat="38.78373" lon="16.5358083"><ele>87.66666666666666</ele><time>2026-03-29T12:50:54.586Z</time></trkpt><trkpt lat="38.78375" lon="16.536035"><ele>88.0</ele><time>2026-03-29T12:50:55.586Z</time></trkpt><trkpt lat="38.7838067" lon="16.5362717"><ele>87.0</ele><time>2026-03-29T12:50:56.586Z</time></trkpt><trkpt lat="38.783885" lon="16.5365233"><ele>86.0</ele><time>2026-03-29T12:50:57.586Z</time></trkpt><trkpt lat="38.78398" lon="16.5367733"><ele>85.0</ele><time>2026-03-29T12:50:58.586Z</time></trkpt><trkpt lat="38.7840733" lon="16.5370133"><ele>84.33333333333333</ele><time>2026-03-29T12:50:59.586Z</time></trkpt><trkpt lat="38.7841583" lon="16.537245"><ele>83.66666666666667</ele><time>2026-03-29T12:51:00.586Z</time></trkpt><trkpt lat="38.78423" lon="16.537475"><ele>83.0</ele><time>2026-03-29T12:51:01.586Z</time></trkpt><trkpt lat="38.7843" lon="16.53773"><ele>81.5</ele><time>2026-03-29T12:51:02.586Z</time></trkpt><trkpt lat="38.7843533" lon="16.5380167"><ele>80.0</ele><time>2026-03-29T12:51:03.586Z</time></trkpt><trkpt lat="38.784405" lon="16.5383233"><ele>80.0</ele><time>2026-03-29T12:51:04.586Z</time></trkpt><trkpt lat="38.7844417" lon="16.5386417"><ele>80.0</ele><time>2026-03-29T12:51:05.586Z</time></trkpt><trkpt lat="38.7844767" lon="16.538975"><ele>78.5</ele><time>2026-03-29T12:51:06.586Z</time></trkpt><trkpt lat="38.7845167" lon="16.5393167"><ele>77.0</ele><time>2026-03-29T12:51:07.586Z</time></trkpt><trkpt lat="38.7845467" lon="16.539665"><ele>75.5</ele><time>2026-03-29T12:51:08.586Z</time></trkpt><trkpt lat="38.7845783" lon="16.540015"><ele>74.0</ele><time>2026-03-29T12:51:09.586Z</time></trkpt><trkpt lat="38.7845917" lon="16.5403417"><ele>72.5</ele><time>2026-03-29T12:51:10.586Z</time></trkpt><trkpt lat="38.7845967" lon="16.5406383"><ele>71.0</ele><time>2026-03-29T12:51:11.586Z</time></trkpt><trkpt lat="38.7846033" lon="16.54092"><ele>71.0</ele><time>2026-03-29T12:51:12.586Z</time></trkpt><trkpt lat="38.7846067" lon="16.5411983"><ele>71.0</ele><time>2026-03-29T12:51:13.587Z</time></trkpt><trkpt lat="38.784605" lon="16.541475"><ele>71.0</ele><time>2026-03-29T12:51:14.586Z</time></trkpt><trkpt lat="38.7845917" lon="16.5417467"><ele>71.66666666666667</ele><time>2026-03-29T12:51:15.586Z</time></trkpt><trkpt lat="38.7845683" lon="16.54201"><ele>72.33333333333333</ele><time>2026-03-29T12:51:16.586Z</time></trkpt><trkpt lat="38.7845417" lon="16.5422817"><ele>73.0</ele><time>2026-03-29T12:51:17.586Z</time></trkpt><trkpt lat="38.7845133" lon="16.54256"><ele>73.0</ele><time>2026-03-29T12:51:18.586Z</time></trkpt><trkpt lat="38.7845067" lon="16.54285"><ele>73.0</ele><time>2026-03-29T12:51:19.586Z</time></trkpt><trkpt lat="38.7845117" lon="16.543135"><ele>73.0</ele><time>2026-03-29T12:51:20.586Z</time></trkpt><trkpt lat="38.7845317" lon="16.5434133"><ele>70.66666666666666</ele><time>2026-03-29T12:51:21.586Z</time></trkpt><trkpt lat="38.7845483" lon="16.5436933"><ele>68.33333333333333</ele><time>2026-03-29T12:51:22.586Z</time></trkpt><trkpt lat="38.78457" lon="16.5439617"><ele>66.0</ele><time>2026-03-29T12:51:23.586Z</time></trkpt><trkpt lat="38.784595" lon="16.5442217"><ele>63.66666666666667</ele><time>2026-03-29T12:51:24.586Z</time></trkpt><trkpt lat="38.7846217" lon="16.544475"><ele>61.333333333333336</ele><time>2026-03-29T12:51:25.586Z</time></trkpt><trkpt lat="38.784645" lon="16.5447133"><ele>59.0</ele><time>2026-03-29T12:51:26.586Z</time></trkpt><trkpt lat="38.78467" lon="16.5449433"><ele>58.0</ele><time>2026-03-29T12:51:27.586Z</time></trkpt><trkpt lat="38.784685" lon="16.5451767"><ele>57.0</ele><time>2026-03-29T12:51:28.586Z</time></trkpt><trkpt lat="38.7846883" lon="16.54542"><ele>56.0</ele><time>2026-03-29T12:51:29.586Z</time></trkpt><trkpt lat="38.7846767" lon="16.5456683"><ele>55.66666666666667</ele><time>2026-03-29T12:51:30.586Z</time></trkpt><trkpt lat="38.78465" lon="16.545905"><ele>55.33333333333333</ele><time>2026-03-29T12:51:31.586Z</time></trkpt><trkpt lat="38.784605" lon="16.546145"><ele>55.0</ele><time>2026-03-29T12:51:32.586Z</time></trkpt><trkpt lat="38.7845133" lon="16.5463783"><ele>52.666666666666664</ele><time>2026-03-29T12:51:33.586Z</time></trkpt><trkpt lat="38.7844067" lon="16.54662"><ele>50.33333333333333</ele><time>2026-03-29T12:51:34.586Z</time></trkpt><trkpt lat="38.7843017" lon="16.5468817"><ele>48.0</ele><time>2026-03-29T12:51:35.586Z</time></trkpt><trkpt lat="38.784185" lon="16.5471483"><ele>42.5</ele><time>2026-03-29T12:51:36.586Z</time></trkpt><trkpt lat="38.78406" lon="16.5474333"><ele>37.0</ele><time>2026-03-29T12:51:37.586Z</time></trkpt><trkpt lat="38.7839417" lon="16.547715"><ele>36.333333333333336</ele><time>2026-03-29T12:51:38.586Z</time></trkpt><trkpt lat="38.7838317" lon="16.5479667"><ele>35.666666666666664</ele><time>2026-03-29T12:51:39.586Z</time></trkpt><trkpt lat="38.78372" lon="16.5482117"><ele>35.0</ele><time>2026-03-29T12:51:40.586Z</time></trkpt><trkpt lat="38.7836133" lon="16.548445"><ele>34.666666666666664</ele><time>2026-03-29T12:51:41.586Z</time></trkpt><trkpt lat="38.7835117" lon="16.54867"><ele>34.333333333333336</ele><time>2026-03-29T12:51:42.586Z</time></trkpt><trkpt lat="38.78341" lon="16.5488967"><ele>34.0</ele><time>2026-03-29T12:51:43.586Z</time></trkpt><trkpt lat="38.783315" lon="16.5491017"><ele>33.66666666666667</ele><time>2026-03-29T12:51:44.586Z</time></trkpt><trkpt lat="38.783225" lon="16.5493"><ele>33.333333333333336</ele><time>2026-03-29T12:51:45.586Z</time></trkpt><trkpt lat="38.7831433" lon="16.5495033"><ele>33.0</ele><time>2026-03-29T12:51:46.586Z</time></trkpt><trkpt lat="38.78307" lon="16.549705"><ele>31.666666666666664</ele><time>2026-03-29T12:51:47.586Z</time></trkpt><trkpt lat="38.7829983" lon="16.5499233"><ele>30.333333333333332</ele><time>2026-03-29T12:51:48.586Z</time></trkpt><trkpt lat="38.7829383" lon="16.5501533"><ele>29.0</ele><time>2026-03-29T12:51:49.586Z</time></trkpt><trkpt lat="38.7828967" lon="16.5504"><ele>28.666666666666664</ele><time>2026-03-29T12:51:50.586Z</time></trkpt><trkpt lat="38.78286" lon="16.5506583"><ele>28.333333333333336</ele><time>2026-03-29T12:51:51.586Z</time></trkpt><trkpt lat="38.7828167" lon="16.5509067"><ele>28.0</ele><time>2026-03-29T12:51:52.586Z</time></trkpt><trkpt lat="38.7827867" lon="16.55115"><ele>27.666666666666668</ele><time>2026-03-29T12:51:53.586Z</time></trkpt><trkpt lat="38.7827583" lon="16.5513867"><ele>27.333333333333336</ele><time>2026-03-29T12:51:54.586Z</time></trkpt><trkpt lat="38.7827417" lon="16.5516117"><ele>27.0</ele><time>2026-03-29T12:51:55.586Z</time></trkpt><trkpt lat="38.7827133" lon="16.5518333"><ele>25.666666666666668</ele><time>2026-03-29T12:51:56.586Z</time></trkpt><trkpt lat="38.7826783" lon="16.552055"><ele>24.333333333333336</ele><time>2026-03-29T12:51:57.586Z</time></trkpt><trkpt lat="38.7826417" lon="16.552255"><ele>23.0</ele><time>2026-03-29T12:51:58.586Z</time></trkpt><trkpt lat="38.7826" lon="16.552465"><ele>23.0</ele><time>2026-03-29T12:51:59.586Z</time></trkpt><trkpt lat="38.78257" lon="16.5526583"><ele>23.0</ele><time>2026-03-29T12:52:00.586Z</time></trkpt><trkpt lat="38.7825467" lon="16.5528317"><ele>23.0</ele><time>2026-03-29T12:52:01.586Z</time></trkpt><trkpt lat="38.782525" lon="16.55302"><ele>23.0</ele><time>2026-03-29T12:52:02.586Z</time></trkpt><trkpt lat="38.7824933" lon="16.5532067"><ele>22.75</ele><time>2026-03-29T12:52:03.586Z</time></trkpt><trkpt lat="38.78246" lon="16.5533883"><ele>22.5</ele><time>2026-03-29T12:52:04.586Z</time></trkpt><trkpt lat="38.782415" lon="16.55357"><ele>22.25</ele><time>2026-03-29T12:52:05.586Z</time></trkpt><trkpt lat="38.7823717" lon="16.553745"><ele>22.0</ele><time>2026-03-29T12:52:06.586Z</time></trkpt><trkpt lat="38.7823333" lon="16.5539067"><ele>21.8</ele><time>2026-03-29T12:52:07.586Z</time></trkpt><trkpt lat="38.7822967" lon="16.5540467"><ele>21.6</ele><time>2026-03-29T12:52:08.586Z</time></trkpt><trkpt lat="38.7822517" lon="16.5541633"><ele>21.400000000000002</ele><time>2026-03-29T12:52:09.586Z</time></trkpt><trkpt lat="38.7821933" lon="16.5542483"><ele>21.200000000000003</ele><time>2026-03-29T12:52:10.586Z</time></trkpt><trkpt lat="38.782125" lon="16.554295"><ele>21.0</ele><time>2026-03-29T12:52:11.586Z</time></trkpt><trkpt lat="38.7820483" lon="16.5542967"><ele>21.0</ele><time>2026-03-29T12:52:12.586Z</time></trkpt><trkpt lat="38.7819683" lon="16.5542633"><ele>21.0</ele><time>2026-03-29T12:52:13.586Z</time></trkpt><trkpt lat="38.7818867" lon="16.5541867"><ele>21.0</ele><time>2026-03-29T12:52:14.586Z</time></trkpt><trkpt lat="38.7818067" lon="16.5540683"><ele>21.0</ele><time>2026-03-29T12:52:15.586Z</time></trkpt><trkpt lat="38.7817367" lon="16.5539433"><ele>21.0</ele><time>2026-03-29T12:52:16.586Z</time></trkpt><trkpt lat="38.7817017" lon="16.5537917"><ele>21.0</ele><time>2026-03-29T12:52:17.586Z</time></trkpt><trkpt lat="38.7816817" lon="16.5536267"><ele>21.0</ele><time>2026-03-29T12:52:18.586Z</time></trkpt><trkpt lat="38.7816817" lon="16.5534533"><ele>21.0</ele><time>2026-03-29T12:52:19.586Z</time></trkpt><trkpt lat="38.781705" lon="16.55331"><ele>21.0</ele><time>2026-03-29T12:52:20.586Z</time></trkpt><trkpt lat="38.781755" lon="16.55316"><ele>21.0</ele><time>2026-03-29T12:52:21.586Z</time></trkpt><trkpt lat="38.781825" lon="16.5530183"><ele>21.0</ele><time>2026-03-29T12:52:22.586Z</time></trkpt><trkpt lat="38.781915" lon="16.5528833"><ele>21.0</ele><time>2026-03-29T12:52:23.586Z</time></trkpt><trkpt lat="38.7820433" lon="16.5527617"><ele>21.0</ele><time>2026-03-29T12:52:24.586Z</time></trkpt><trkpt lat="38.7821867" lon="16.5526567"><ele>21.666666666666668</ele><time>2026-03-29T12:52:25.586Z</time></trkpt><trkpt lat="38.7823433" lon="16.5525617"><ele>22.333333333333336</ele><time>2026-03-29T12:52:26.586Z</time></trkpt><trkpt lat="38.7825117" lon="16.5524517"><ele>23.0</ele><time>2026-03-29T12:52:27.586Z</time></trkpt><trkpt lat="38.78267" lon="16.5523433"><ele>24.0</ele><time>2026-03-29T12:52:28.586Z</time></trkpt><trkpt lat="38.7828267" lon="16.5522367"><ele>25.0</ele><time>2026-03-29T12:52:29.586Z</time></trkpt><trkpt lat="38.7830017" lon="16.55213"><ele>26.0</ele><time>2026-03-29T12:52:30.586Z</time></trkpt><trkpt lat="38.7831883" lon="16.5520167"><ele>26.333333333333332</ele><time>2026-03-29T12:52:31.586Z</time></trkpt><trkpt lat="38.7833883" lon="16.5519017"><ele>26.666666666666664</ele><time>2026-03-29T12:52:32.586Z</time></trkpt><trkpt lat="38.7835867" lon="16.55179"><ele>27.0</ele><time>2026-03-29T12:52:33.586Z</time></trkpt><trkpt lat="38.7837833" lon="16.5516883"><ele>29.666666666666664</ele><time>2026-03-29T12:52:34.586Z</time></trkpt><trkpt lat="38.78398" lon="16.551585"><ele>32.33333333333333</ele><time>2026-03-29T12:52:35.586Z</time></trkpt><trkpt lat="38.78418" lon="16.5514733"><ele>35.0</ele><time>2026-03-29T12:52:36.586Z</time></trkpt><trkpt lat="38.78439" lon="16.5513567"><ele>44.5</ele><time>2026-03-29T12:52:37.586Z</time></trkpt><trkpt lat="38.7846" lon="16.5512367"><ele>54.0</ele><time>2026-03-29T12:52:38.586Z</time></trkpt><trkpt lat="38.7848067" lon="16.5511183"><ele>57.5</ele><time>2026-03-29T12:52:39.586Z</time></trkpt><trkpt lat="38.78502" lon="16.5509967"><ele>61.0</ele><time>2026-03-29T12:52:40.586Z</time></trkpt><trkpt lat="38.785235" lon="16.550875"><ele>70.0</ele><time>2026-03-29T12:52:41.586Z</time></trkpt><trkpt lat="38.7854483" lon="16.5507533"><ele>79.0</ele><time>2026-03-29T12:52:42.586Z</time></trkpt><trkpt lat="38.7856617" lon="16.5506317"><ele>72.0</ele><time>2026-03-29T12:52:43.586Z</time></trkpt><trkpt lat="38.791345" lon="16.54912"><ele>72.0</ele><time>2026-03-29T12:53:05.579Z</time></trkpt><trkpt lat="38.79171" lon="16.54909"><ele>72.0</ele><time>2026-03-29T12:53:06.579Z</time></trkpt><trkpt lat="38.7919967" lon="16.5490933"><ele>79.0</ele><time>2026-03-29T12:53:07.58Z</time></trkpt><trkpt lat="38.792285" lon="16.549115"><ele>86.0</ele><time>2026-03-29T12:53:08.579Z</time></trkpt><trkpt lat="38.7925683" lon="16.5491417"><ele>97.5</ele><time>2026-03-29T12:53:09.579Z</time></trkpt><trkpt lat="38.7928533" lon="16.549175"><ele>109.0</ele><time>2026-03-29T12:53:10.579Z</time></trkpt><trkpt lat="38.7931367" lon="16.5492117"><ele>109.0</ele><time>2026-03-29T12:53:11.579Z</time></trkpt><trkpt lat="38.793425" lon="16.549245"><ele>109.0</ele><time>2026-03-29T12:53:12.579Z</time></trkpt><trkpt lat="38.7937" lon="16.5492817"><ele>85.0</ele><time>2026-03-29T12:53:13.579Z</time></trkpt><trkpt lat="38.79885" lon="16.5520017"><ele>91.5</ele><time>2026-03-29T12:53:34.578Z</time></trkpt><trkpt lat="38.7991083" lon="16.5521767"><ele>98.0</ele><time>2026-03-29T12:53:35.578Z</time></trkpt><trkpt lat="38.7993383" lon="16.552345"><ele>78.0</ele><time>2026-03-29T12:53:36.578Z</time></trkpt><trkpt lat="38.8029367" lon="16.5554717"><ele>78.0</ele><time>2026-03-29T12:53:52.578Z</time></trkpt><trkpt lat="38.80319" lon="16.5555967"><ele>78.0</ele><time>2026-03-29T12:53:53.578Z</time></trkpt><trkpt lat="38.8034217" lon="16.555725"><ele>78.0</ele><time>2026-03-29T12:53:54.578Z</time></trkpt><trkpt lat="38.8036633" lon="16.55585"><ele>78.0</ele><time>2026-03-29T12:53:55.578Z</time></trkpt><trkpt lat="38.803895" lon="16.55598"><ele>78.0</ele><time>2026-03-29T12:53:56.578Z</time></trkpt><trkpt lat="38.804125" lon="16.5561017"><ele>78.0</ele><time>2026-03-29T12:53:57.578Z</time></trkpt><trkpt lat="38.8043517" lon="16.5562183"><ele>90.0</ele><time>2026-03-29T12:53:58.578Z</time></trkpt><trkpt lat="38.80458" lon="16.5563217"><ele>102.0</ele><time>2026-03-29T12:53:59.578Z</time></trkpt><trkpt lat="38.8048017" lon="16.5564217"><ele>102.0</ele><time>2026-03-29T12:54:00.578Z</time></trkpt><trkpt lat="38.8050183" lon="16.5565183"><ele>102.0</ele><time>2026-03-29T12:54:01.578Z</time></trkpt><trkpt lat="38.805255" lon="16.556615"><ele>115.0</ele><time>2026-03-29T12:54:02.578Z</time></trkpt><trkpt lat="38.8054983" lon="16.5566883"><ele>128.0</ele><time>2026-03-29T12:54:03.578Z</time></trkpt><trkpt lat="38.8057367" lon="16.556775"><ele>128.0</ele><time>2026-03-29T12:54:04.578Z</time></trkpt><trkpt lat="38.8059817" lon="16.5568783"><ele>128.0</ele><time>2026-03-29T12:54:05.578Z</time></trkpt><trkpt lat="38.8062383" lon="16.55699"><ele>133.0</ele><time>2026-03-29T12:54:06.578Z</time></trkpt><trkpt lat="38.8065" lon="16.5570933"><ele>138.0</ele><time>2026-03-29T12:54:07.578Z</time></trkpt><trkpt lat="38.80676" lon="16.557185"><ele>136.5</ele><time>2026-03-29T12:54:08.578Z</time></trkpt><trkpt lat="38.8070133" lon="16.5572767"><ele>135.0</ele><time>2026-03-29T12:54:09.578Z</time></trkpt><trkpt lat="38.80727" lon="16.557365"><ele>135.0</ele><time>2026-03-29T12:54:10.578Z</time></trkpt><trkpt lat="38.8075283" lon="16.5574483"><ele>135.0</ele><time>2026-03-29T12:54:11.578Z</time></trkpt><trkpt lat="38.8077883" lon="16.5575283"><ele>137.0</ele><time>2026-03-29T12:54:12.578Z</time></trkpt><trkpt lat="38.8080533" lon="16.5576017"><ele>139.0</ele><time>2026-03-29T12:54:13.578Z</time></trkpt><trkpt lat="38.8104333" lon="16.5582683"><ele>125.0</ele><time>2026-03-29T12:54:27.58Z</time></trkpt><trkpt lat="38.8106283" lon="16.5583233"><ele>111.0</ele><time>2026-03-29T12:54:28.58Z</time></trkpt><trkpt lat="38.8108133" lon="16.558375"><ele>97.0</ele><time>2026-03-29T12:54:29.58Z</time></trkpt><trkpt lat="38.8109883" lon="16.5584333"><ele>102.0</ele><time>2026-03-29T12:54:30.58Z</time></trkpt><trkpt lat="38.811165" lon="16.5584833"><ele>107.0</ele><time>2026-03-29T12:54:31.58Z</time></trkpt><trkpt lat="38.811325" lon="16.55853"><ele>112.0</ele><time>2026-03-29T12:54:32.58Z</time></trkpt><trkpt lat="38.8114783" lon="16.5585717"><ele>112.0</ele><time>2026-03-29T12:54:33.58Z</time></trkpt><trkpt lat="38.8116317" lon="16.5586217"><ele>112.0</ele><time>2026-03-29T12:54:34.58Z</time></trkpt><trkpt lat="38.8117983" lon="16.5586783"><ele>112.0</ele><time>2026-03-29T12:54:35.58Z</time></trkpt><trkpt lat="38.8119767" lon="16.5587433"><ele>113.66666666666667</ele><time>2026-03-29T12:54:36.58Z</time></trkpt><trkpt lat="38.8121517" lon="16.5588033"><ele>115.33333333333334</ele><time>2026-03-29T12:54:37.58Z</time></trkpt><trkpt lat="38.8123233" lon="16.558865"><ele>117.0</ele><time>2026-03-29T12:54:38.58Z</time></trkpt><trkpt lat="38.812495" lon="16.55893"><ele>112.0</ele><time>2026-03-29T12:54:39.58Z</time></trkpt><trkpt lat="38.8126667" lon="16.558995"><ele>107.0</ele><time>2026-03-29T12:54:40.58Z</time></trkpt><trkpt lat="38.8150317" lon="16.559715"><ele>108.5</ele><time>2026-03-29T12:54:54.578Z</time></trkpt><trkpt lat="38.8151617" lon="16.5597667"><ele>110.0</ele><time>2026-03-29T12:54:55.578Z</time></trkpt><trkpt lat="38.8152967" lon="16.5598017"><ele>111.5</ele><time>2026-03-29T12:54:56.578Z</time></trkpt><trkpt lat="38.8154333" lon="16.5598533"><ele>113.0</ele><time>2026-03-29T12:54:57.578Z</time></trkpt><trkpt lat="38.8155717" lon="16.5598967"><ele>113.0</ele><time>2026-03-29T12:54:58.578Z</time></trkpt><trkpt lat="38.8157233" lon="16.5599433"><ele>113.0</ele><time>2026-03-29T12:54:59.578Z</time></trkpt><trkpt lat="38.815875" lon="16.5599983"><ele>113.0</ele><time>2026-03-29T12:55:00.579Z</time></trkpt><trkpt lat="38.81603" lon="16.5600533"><ele>117.66666666666666</ele><time>2026-03-29T12:55:01.578Z</time></trkpt><trkpt lat="38.8161817" lon="16.5601083"><ele>122.33333333333334</ele><time>2026-03-29T12:55:02.578Z</time></trkpt><trkpt lat="38.8163333" lon="16.5601517"><ele>127.0</ele><time>2026-03-29T12:55:03.578Z</time></trkpt><trkpt lat="38.816485" lon="16.5602033"><ele>71.0</ele><time>2026-03-29T12:55:04.578Z</time></trkpt><trkpt lat="38.8211717" lon="16.56209"><ele>71.0</ele><time>2026-03-29T12:55:22.58Z</time></trkpt><trkpt lat="38.8214483" lon="16.5622233"><ele>71.0</ele><time>2026-03-29T12:55:23.58Z</time></trkpt><trkpt lat="38.8217117" lon="16.5623567"><ele>67.0</ele><time>2026-03-29T12:55:24.58Z</time></trkpt><trkpt lat="38.8219683" lon="16.562485"><ele>63.0</ele><time>2026-03-29T12:55:25.58Z</time></trkpt><trkpt lat="38.82223" lon="16.5626117"><ele>63.0</ele><time>2026-03-29T12:55:26.58Z</time></trkpt><trkpt lat="38.8224933" lon="16.562735"><ele>63.0</ele><time>2026-03-29T12:55:27.58Z</time></trkpt><trkpt lat="38.8227517" lon="16.56287"><ele>60.5</ele><time>2026-03-29T12:55:28.58Z</time></trkpt><trkpt lat="38.8230083" lon="16.5630017"><ele>58.0</ele><time>2026-03-29T12:55:29.58Z</time></trkpt><trkpt lat="38.8232717" lon="16.5631367"><ele>60.0</ele><time>2026-03-29T12:55:30.58Z</time></trkpt><trkpt lat="38.8235333" lon="16.563265"><ele>62.0</ele><time>2026-03-29T12:55:31.58Z</time></trkpt><trkpt lat="38.8237883" lon="16.5633883"><ele>62.0</ele><time>2026-03-29T12:55:32.58Z</time></trkpt><trkpt lat="38.8240533" lon="16.5635167"><ele>62.0</ele><time>2026-03-29T12:55:33.58Z</time></trkpt><trkpt lat="38.82431" lon="16.5636483"><ele>68.5</ele><time>2026-03-29T12:55:34.58Z</time></trkpt><trkpt lat="38.8245683" lon="16.5637733"><ele>75.0</ele><time>2026-03-29T12:55:35.58Z</time></trkpt><trkpt lat="38.8248367" lon="16.5638983"><ele>75.0</ele><time>2026-03-29T12:55:36.58Z</time></trkpt><trkpt lat="38.825095" lon="16.5640317"><ele>75.0</ele><time>2026-03-29T12:55:37.58Z</time></trkpt><trkpt lat="38.8253583" lon="16.5641583"><ele>78.0</ele><time>2026-03-29T12:55:38.58Z</time></trkpt><trkpt lat="38.825625" lon="16.5642867"><ele>81.0</ele><time>2026-03-29T12:55:39.58Z</time></trkpt><trkpt lat="38.82589" lon="16.5644167"><ele>91.5</ele><time>2026-03-29T12:55:40.58Z</time></trkpt><trkpt lat="38.826155" lon="16.564555"><ele>102.0</ele><time>2026-03-29T12:55:41.581Z</time></trkpt><trkpt lat="38.8264167" lon="16.5646933"><ele>102.0</ele><time>2026-03-29T12:55:42.58Z</time></trkpt><trkpt lat="38.8266783" lon="16.5648367"><ele>102.0</ele><time>2026-03-29T12:55:43.58Z</time></trkpt><trkpt lat="38.8269483" lon="16.5649883"><ele>103.5</ele><time>2026-03-29T12:55:44.58Z</time></trkpt><trkpt lat="38.8272267" lon="16.56515"><ele>105.0</ele><time>2026-03-29T12:55:45.58Z</time></trkpt><trkpt lat="38.827485" lon="16.5653133"><ele>97.5</ele><time>2026-03-29T12:55:46.58Z</time></trkpt><trkpt lat="38.8277433" lon="16.565475"><ele>90.0</ele><time>2026-03-29T12:55:47.58Z</time></trkpt><trkpt lat="38.8280067" lon="16.5656267"><ele>90.0</ele><time>2026-03-29T12:55:48.58Z</time></trkpt><trkpt lat="38.8282717" lon="16.56578"><ele>90.0</ele><time>2026-03-29T12:55:49.58Z</time></trkpt><trkpt lat="38.8295183" lon="16.5663717"><ele>77.0</ele><time>2026-03-29T12:55:54.578Z</time></trkpt><trkpt lat="38.8297883" lon="16.5663583"><ele>64.0</ele><time>2026-03-29T12:55:55.578Z</time></trkpt><trkpt lat="38.83007" lon="16.566425"><ele>63.0</ele><time>2026-03-29T12:55:56.578Z</time></trkpt><trkpt lat="38.8303483" lon="16.5665183"><ele>62.0</ele><time>2026-03-29T12:55:57.578Z</time></trkpt><trkpt lat="38.8306233" lon="16.5666183"><ele>62.0</ele><time>2026-03-29T12:55:58.578Z</time></trkpt><trkpt lat="38.83089" lon="16.5667333"><ele>62.0</ele><time>2026-03-29T12:55:59.578Z</time></trkpt><trkpt lat="38.83116" lon="16.566845"><ele>57.0</ele><time>2026-03-29T12:56:00.578Z</time></trkpt><trkpt lat="38.83143" lon="16.5669483"><ele>52.0</ele><time>2026-03-29T12:56:01.578Z</time></trkpt><trkpt lat="38.8316883" lon="16.5670517"><ele>47.5</ele><time>2026-03-29T12:56:02.578Z</time></trkpt><trkpt lat="38.8319517" lon="16.5671483"><ele>43.0</ele><time>2026-03-29T12:56:03.578Z</time></trkpt><trkpt lat="38.8322117" lon="16.5672417"><ele>43.0</ele><time>2026-03-29T12:56:04.578Z</time></trkpt><trkpt lat="38.8324717" lon="16.56734"><ele>43.0</ele><time>2026-03-29T12:56:05.578Z</time></trkpt><trkpt lat="38.8327367" lon="16.5674433"><ele>42.5</ele><time>2026-03-29T12:56:06.578Z</time></trkpt><trkpt lat="38.833005" lon="16.56754"><ele>42.0</ele><time>2026-03-29T12:56:07.578Z</time></trkpt><trkpt lat="38.833275" lon="16.5676367"><ele>42.5</ele><time>2026-03-29T12:56:08.578Z</time></trkpt><trkpt lat="38.8335483" lon="16.5677333"><ele>43.0</ele><time>2026-03-29T12:56:09.578Z</time></trkpt><trkpt lat="38.8338283" lon="16.5678317"><ele>42.0</ele><time>2026-03-29T12:56:10.578Z</time></trkpt><trkpt lat="38.8341033" lon="16.567925"><ele>41.0</ele><time>2026-03-29T12:56:11.578Z</time></trkpt><trkpt lat="38.8343767" lon="16.5680217"><ele>41.0</ele><time>2026-03-29T12:56:12.578Z</time></trkpt><trkpt lat="38.8346483" lon="16.5681117"><ele>41.0</ele><time>2026-03-29T12:56:13.578Z</time></trkpt><trkpt lat="38.8349233" lon="16.5682083"><ele>42.5</ele><time>2026-03-29T12:56:14.578Z</time></trkpt><trkpt lat="38.8351967" lon="16.5683"><ele>44.0</ele><time>2026-03-29T12:56:15.578Z</time></trkpt><trkpt lat="38.83546" lon="16.5683833"><ele>44.0</ele><time>2026-03-29T12:56:16.578Z</time></trkpt><trkpt lat="38.83573" lon="16.568465"><ele>44.0</ele><time>2026-03-29T12:56:17.578Z</time></trkpt><trkpt lat="38.8360017" lon="16.5685517"><ele>45.5</ele><time>2026-03-29T12:56:18.578Z</time></trkpt><trkpt lat="38.8362733" lon="16.568635"><ele>47.0</ele><time>2026-03-29T12:56:19.578Z</time></trkpt><trkpt lat="38.8365417" lon="16.5687217"><ele>49.5</ele><time>2026-03-29T12:56:20.578Z</time></trkpt><trkpt lat="38.8368167" lon="16.5688067"><ele>52.0</ele><time>2026-03-29T12:56:21.578Z</time></trkpt><trkpt lat="38.8370867" lon="16.56889"><ele>52.0</ele><time>2026-03-29T12:56:22.578Z</time></trkpt><trkpt lat="38.83736" lon="16.568965"><ele>52.0</ele><time>2026-03-29T12:56:23.578Z</time></trkpt><trkpt lat="38.8376367" lon="16.5690417"><ele>53.0</ele><time>2026-03-29T12:56:24.578Z</time></trkpt><trkpt lat="38.8379167" lon="16.5691217"><ele>54.0</ele><time>2026-03-29T12:56:25.578Z</time></trkpt><trkpt lat="38.8381867" lon="16.5692033"><ele>54.0</ele><time>2026-03-29T12:56:26.578Z</time></trkpt><trkpt lat="38.8384633" lon="16.5692883"><ele>54.0</ele><time>2026-03-29T12:56:27.578Z</time></trkpt><trkpt lat="38.8387333" lon="16.5693733"><ele>57.0</ele><time>2026-03-29T12:56:28.578Z</time></trkpt><trkpt lat="38.8390033" lon="16.5694567"><ele>60.0</ele><time>2026-03-29T12:56:29.578Z</time></trkpt><trkpt lat="38.8392717" lon="16.56954"><ele>64.0</ele><time>2026-03-29T12:56:30.578Z</time></trkpt><trkpt lat="38.8395417" lon="16.5696217"><ele>68.0</ele><time>2026-03-29T12:56:31.578Z</time></trkpt><trkpt lat="38.8462283" lon="16.5721933"><ele>47.0</ele><time>2026-03-29T12:56:57.58Z</time></trkpt><trkpt lat="38.8464667" lon="16.57239"><ele>26.0</ele><time>2026-03-29T12:56:58.58Z</time></trkpt><trkpt lat="38.84669" lon="16.57258"><ele>25.0</ele><time>2026-03-29T12:56:59.58Z</time></trkpt><trkpt lat="38.8469167" lon="16.572765"><ele>24.0</ele><time>2026-03-29T12:57:00.58Z</time></trkpt><trkpt lat="38.847135" lon="16.5729467"><ele>24.0</ele><time>2026-03-29T12:57:01.58Z</time></trkpt><trkpt lat="38.8473517" lon="16.5731433"><ele>24.0</ele><time>2026-03-29T12:57:02.58Z</time></trkpt><trkpt lat="38.847565" lon="16.57333"><ele>23.5</ele><time>2026-03-29T12:57:03.58Z</time></trkpt><trkpt lat="38.847785" lon="16.5735317"><ele>23.0</ele><time>2026-03-29T12:57:04.58Z</time></trkpt><trkpt lat="38.8480017" lon="16.57373"><ele>22.5</ele><time>2026-03-29T12:57:05.58Z</time></trkpt><trkpt lat="38.8482" lon="16.5739167"><ele>22.0</ele><time>2026-03-29T12:57:06.58Z</time></trkpt><trkpt lat="38.8483767" lon="16.5740967"><ele>22.666666666666664</ele><time>2026-03-29T12:57:07.58Z</time></trkpt><trkpt lat="38.848545" lon="16.5742583"><ele>23.333333333333332</ele><time>2026-03-29T12:57:08.58Z</time></trkpt><trkpt lat="38.8487017" lon="16.57441"><ele>24.0</ele><time>2026-03-29T12:57:09.58Z</time></trkpt><trkpt lat="38.84885" lon="16.5745567"><ele>24.0</ele><time>2026-03-29T12:57:10.58Z</time></trkpt><trkpt lat="38.8489783" lon="16.5747"><ele>24.0</ele><time>2026-03-29T12:57:11.58Z</time></trkpt><trkpt lat="38.8490967" lon="16.5748183"><ele>24.0</ele><time>2026-03-29T12:57:12.58Z</time></trkpt><trkpt lat="38.849215" lon="16.574925"><ele>24.0</ele><time>2026-03-29T12:57:13.58Z</time></trkpt><trkpt lat="38.849325" lon="16.5750367"><ele>24.0</ele><time>2026-03-29T12:57:14.58Z</time></trkpt><trkpt lat="38.8494317" lon="16.5751383"><ele>24.0</ele><time>2026-03-29T12:57:15.58Z</time></trkpt><trkpt lat="38.8495433" lon="16.575245"><ele>24.0</ele><time>2026-03-29T12:57:16.58Z</time></trkpt><trkpt lat="38.8496483" lon="16.5753533"><ele>24.0</ele><time>2026-03-29T12:57:17.58Z</time></trkpt><trkpt lat="38.84976" lon="16.575465"><ele>24.0</ele><time>2026-03-29T12:57:18.58Z</time></trkpt><trkpt lat="38.8498667" lon="16.57557"><ele>24.0</ele><time>2026-03-29T12:57:19.58Z</time></trkpt><trkpt lat="38.8499683" lon="16.575665"><ele>24.0</ele><time>2026-03-29T12:57:20.58Z</time></trkpt><trkpt lat="38.8500667" lon="16.57575"><ele>24.2</ele><time>2026-03-29T12:57:21.58Z</time></trkpt><trkpt lat="38.8501567" lon="16.575825"><ele>24.4</ele><time>2026-03-29T12:57:22.58Z</time></trkpt><trkpt lat="38.8502367" lon="16.5759"><ele>24.6</ele><time>2026-03-29T12:57:23.58Z</time></trkpt><trkpt lat="38.85032" lon="16.5759833"><ele>24.8</ele><time>2026-03-29T12:57:24.58Z</time></trkpt><trkpt lat="38.850405" lon="16.5760867"><ele>25.0</ele><time>2026-03-29T12:57:25.58Z</time></trkpt><trkpt lat="38.8504833" lon="16.5762083"><ele>25.0</ele><time>2026-03-29T12:57:26.58Z</time></trkpt><trkpt lat="38.85057" lon="16.5763367"><ele>25.0</ele><time>2026-03-29T12:57:27.58Z</time></trkpt><trkpt lat="38.8506617" lon="16.5764517"><ele>25.0</ele><time>2026-03-29T12:57:28.58Z</time></trkpt><trkpt lat="38.850775" lon="16.57656"><ele>25.0</ele><time>2026-03-29T12:57:29.581Z</time></trkpt><trkpt lat="38.8508867" lon="16.576655"><ele>25.75</ele><time>2026-03-29T12:57:30.581Z</time></trkpt><trkpt lat="38.85099" lon="16.5767533"><ele>26.5</ele><time>2026-03-29T12:57:31.581Z</time></trkpt><trkpt lat="38.8510667" lon="16.5768617"><ele>27.25</ele><time>2026-03-29T12:57:32.581Z</time></trkpt><trkpt lat="38.8511183" lon="16.5769933"><ele>28.0</ele><time>2026-03-29T12:57:33.581Z</time></trkpt><trkpt lat="38.8511367" lon="16.5771367"><ele>28.25</ele><time>2026-03-29T12:57:34.581Z</time></trkpt><trkpt lat="38.8511217" lon="16.5772733"><ele>28.5</ele><time>2026-03-29T12:57:35.581Z</time></trkpt><trkpt lat="38.851075" lon="16.577405"><ele>28.75</ele><time>2026-03-29T12:57:36.581Z</time></trkpt><trkpt lat="38.8510083" lon="16.5775317"><ele>29.0</ele><time>2026-03-29T12:57:37.581Z</time></trkpt><trkpt lat="38.8509183" lon="16.5776333"><ele>28.5</ele><time>2026-03-29T12:57:38.581Z</time></trkpt><trkpt lat="38.85083" lon="16.5776933"><ele>28.0</ele><time>2026-03-29T12:57:39.581Z</time></trkpt><trkpt lat="38.8507183" lon="16.577715"><ele>27.5</ele><time>2026-03-29T12:57:40.581Z</time></trkpt><trkpt lat="38.8505983" lon="16.5777217"><ele>27.0</ele><time>2026-03-29T12:57:41.581Z</time></trkpt><trkpt lat="38.8504733" lon="16.577735"><ele>27.0</ele><time>2026-03-29T12:57:42.581Z</time></trkpt><trkpt lat="38.8503383" lon="16.5777483"><ele>27.0</ele><time>2026-03-29T12:57:43.581Z</time></trkpt><trkpt lat="38.8502117" lon="16.5777617"><ele>27.0</ele><time>2026-03-29T12:57:44.581Z</time></trkpt><trkpt lat="38.8500883" lon="16.5777983"><ele>27.0</ele><time>2026-03-29T12:57:45.581Z</time></trkpt><trkpt lat="38.8499817" lon="16.5778533"><ele>27.400000000000002</ele><time>2026-03-29T12:57:46.581Z</time></trkpt><trkpt lat="38.849885" lon="16.5779467"><ele>27.800000000000004</ele><time>2026-03-29T12:57:47.581Z</time></trkpt><trkpt lat="38.8498067" lon="16.5780517"><ele>28.2</ele><time>2026-03-29T12:57:48.581Z</time></trkpt><trkpt lat="38.8497467" lon="16.5781617"><ele>28.6</ele><time>2026-03-29T12:57:49.581Z</time></trkpt><trkpt lat="38.84969" lon="16.5782783"><ele>29.0</ele><time>2026-03-29T12:57:50.581Z</time></trkpt><trkpt lat="38.8496417" lon="16.5783983"><ele>29.0</ele><time>2026-03-29T12:57:51.581Z</time></trkpt><trkpt lat="38.8495983" lon="16.5785217"><ele>29.0</ele><time>2026-03-29T12:57:52.581Z</time></trkpt><trkpt lat="38.8495567" lon="16.578655"><ele>29.0</ele><time>2026-03-29T12:57:53.581Z</time></trkpt><trkpt lat="38.84954" lon="16.5788017"><ele>29.0</ele><time>2026-03-29T12:57:54.581Z</time></trkpt><trkpt lat="38.849545" lon="16.578955"><ele>29.0</ele><time>2026-03-29T12:57:55.581Z</time></trkpt><trkpt lat="38.8495733" lon="16.5791133"><ele>29.0</ele><time>2026-03-29T12:57:56.581Z</time></trkpt><trkpt lat="38.84962" lon="16.5792783"><ele>29.0</ele><time>2026-03-29T12:57:57.581Z</time></trkpt><trkpt lat="38.8496867" lon="16.5794317"><ele>29.0</ele><time>2026-03-29T12:57:58.581Z</time></trkpt><trkpt lat="38.8497717" lon="16.57956"><ele>29.25</ele><time>2026-03-29T12:57:59.581Z</time></trkpt><trkpt lat="38.8498767" lon="16.5796717"><ele>29.5</ele><time>2026-03-29T12:58:00.581Z</time></trkpt><trkpt lat="38.85001" lon="16.5797517"><ele>29.75</ele><time>2026-03-29T12:58:01.581Z</time></trkpt><trkpt lat="38.8501583" lon="16.5798133"><ele>30.0</ele><time>2026-03-29T12:58:02.581Z</time></trkpt><trkpt lat="38.850305" lon="16.5798233"><ele>30.0</ele><time>2026-03-29T12:58:03.581Z</time></trkpt><trkpt lat="38.8504533" lon="16.5798"><ele>30.0</ele><time>2026-03-29T12:58:04.581Z</time></trkpt><trkpt lat="38.85059" lon="16.5797383"><ele>30.0</ele><time>2026-03-29T12:58:05.581Z</time></trkpt><trkpt lat="38.8507133" lon="16.5796417"><ele>30.0</ele><time>2026-03-29T12:58:06.581Z</time></trkpt><trkpt lat="38.8508283" lon="16.5795017"><ele>30.0</ele><time>2026-03-29T12:58:07.581Z</time></trkpt><trkpt lat="38.8509233" lon="16.57934"><ele>30.0</ele><time>2026-03-29T12:58:08.581Z</time></trkpt><trkpt lat="38.8510183" lon="16.5791533"><ele>30.0</ele><time>2026-03-29T12:58:09.581Z</time></trkpt><trkpt lat="38.85112" lon="16.5789417"><ele>30.333333333333336</ele><time>2026-03-29T12:58:10.581Z</time></trkpt><trkpt lat="38.8512383" lon="16.57874"><ele>30.666666666666668</ele><time>2026-03-29T12:58:11.581Z</time></trkpt><trkpt lat="38.8513767" lon="16.5785433"><ele>31.0</ele><time>2026-03-29T12:58:12.581Z</time></trkpt><trkpt lat="38.85153" lon="16.578365"><ele>30.666666666666668</ele><time>2026-03-29T12:58:13.581Z</time></trkpt><trkpt lat="38.851685" lon="16.5782217"><ele>30.333333333333336</ele><time>2026-03-29T12:58:14.581Z</time></trkpt><trkpt lat="38.851845" lon="16.5781017"><ele>30.0</ele><time>2026-03-29T12:58:15.581Z</time></trkpt><trkpt lat="38.8520017" lon="16.577975"><ele>30.0</ele><time>2026-03-29T12:58:16.581Z</time></trkpt><trkpt lat="38.85216" lon="16.5778483"><ele>30.0</ele><time>2026-03-29T12:58:17.581Z</time></trkpt><trkpt lat="38.8523167" lon="16.57771"><ele>30.0</ele><time>2026-03-29T12:58:18.581Z</time></trkpt><trkpt lat="38.8524783" lon="16.5775717"><ele>30.333333333333336</ele><time>2026-03-29T12:58:19.581Z</time></trkpt><trkpt lat="38.8526483" lon="16.5774333"><ele>30.666666666666668</ele><time>2026-03-29T12:58:20.581Z</time></trkpt><trkpt lat="38.8528217" lon="16.5772767"><ele>31.0</ele><time>2026-03-29T12:58:21.581Z</time></trkpt><trkpt lat="38.852995" lon="16.57713"><ele>30.666666666666668</ele><time>2026-03-29T12:58:22.581Z</time></trkpt><trkpt lat="38.8531733" lon="16.576975"><ele>30.333333333333336</ele><time>2026-03-29T12:58:23.581Z</time></trkpt><trkpt lat="38.85335" lon="16.576825"><ele>30.0</ele><time>2026-03-29T12:58:24.581Z</time></trkpt><trkpt lat="38.8535267" lon="16.5766883"><ele>30.0</ele><time>2026-03-29T12:58:25.581Z</time></trkpt><trkpt lat="38.8537033" lon="16.5765533"><ele>30.0</ele><time>2026-03-29T12:58:26.581Z</time></trkpt><trkpt lat="38.8538867" lon="16.576445"><ele>30.0</ele><time>2026-03-29T12:58:27.581Z</time></trkpt><trkpt lat="38.8540683" lon="16.5763783"><ele>30.0</ele><time>2026-03-29T12:58:28.581Z</time></trkpt><trkpt lat="38.8542433" lon="16.57635"><ele>30.0</ele><time>2026-03-29T12:58:29.582Z</time></trkpt><trkpt lat="38.8544167" lon="16.576365"><ele>30.0</ele><time>2026-03-29T12:58:30.581Z</time></trkpt><trkpt lat="38.854595" lon="16.5763817"><ele>30.333333333333336</ele><time>2026-03-29T12:58:31.581Z</time></trkpt><trkpt lat="38.8547733" lon="16.57637"><ele>30.666666666666668</ele><time>2026-03-29T12:58:32.581Z</time></trkpt><trkpt lat="38.8549383" lon="16.5763367"><ele>31.0</ele><time>2026-03-29T12:58:33.581Z</time></trkpt><trkpt lat="38.8550833" lon="16.5762633"><ele>30.333333333333336</ele><time>2026-03-29T12:58:34.581Z</time></trkpt><trkpt lat="38.8552083" lon="16.57614"><ele>29.666666666666664</ele><time>2026-03-29T12:58:35.581Z</time></trkpt><trkpt lat="38.8553133" lon="16.575995"><ele>29.0</ele><time>2026-03-29T12:58:36.581Z</time></trkpt><trkpt lat="38.8554" lon="16.5758267"><ele>29.0</ele><time>2026-03-29T12:58:37.581Z</time></trkpt><trkpt lat="38.8554533" lon="16.5756417"><ele>29.0</ele><time>2026-03-29T12:58:38.581Z</time></trkpt><trkpt lat="38.8554833" lon="16.57548"><ele>29.0</ele><time>2026-03-29T12:58:39.581Z</time></trkpt><trkpt lat="38.8555133" lon="16.5753283"><ele>29.0</ele><time>2026-03-29T12:58:40.581Z</time></trkpt><trkpt lat="38.8555467" lon="16.5751883"><ele>29.25</ele><time>2026-03-29T12:58:41.581Z</time></trkpt><trkpt lat="38.855595" lon="16.57503"><ele>29.5</ele><time>2026-03-29T12:58:42.581Z</time></trkpt><trkpt lat="38.85565" lon="16.5748683"><ele>29.75</ele><time>2026-03-29T12:58:43.581Z</time></trkpt><trkpt lat="38.8557217" lon="16.5747067"><ele>30.0</ele><time>2026-03-29T12:58:44.581Z</time></trkpt><trkpt lat="38.8558117" lon="16.57456"><ele>30.0</ele><time>2026-03-29T12:58:45.581Z</time></trkpt><trkpt lat="38.8559183" lon="16.5744217"><ele>30.0</ele><time>2026-03-29T12:58:46.581Z</time></trkpt><trkpt lat="38.856055" lon="16.57428"><ele>30.0</ele><time>2026-03-29T12:58:47.581Z</time></trkpt><trkpt lat="38.8561983" lon="16.57416"><ele>30.333333333333336</ele><time>2026-03-29T12:58:48.581Z</time></trkpt><trkpt lat="38.8563567" lon="16.5740333"><ele>30.666666666666668</ele><time>2026-03-29T12:58:49.581Z</time></trkpt><trkpt lat="38.8565167" lon="16.5738883"><ele>31.0</ele><time>2026-03-29T12:58:50.581Z</time></trkpt><trkpt lat="38.8566717" lon="16.5737217"><ele>30.5</ele><time>2026-03-29T12:58:51.581Z</time></trkpt><trkpt lat="38.8568367" lon="16.57353"><ele>30.0</ele><time>2026-03-29T12:58:52.581Z</time></trkpt><trkpt lat="38.8570133" lon="16.5733133"><ele>30.0</ele><time>2026-03-29T12:58:53.581Z</time></trkpt><trkpt lat="38.8572067" lon="16.5730983"><ele>30.0</ele><time>2026-03-29T12:58:54.582Z</time></trkpt><trkpt lat="38.8574" lon="16.572895"><ele>30.0</ele><time>2026-03-29T12:58:55.581Z</time></trkpt><trkpt lat="38.8576133" lon="16.5726917"><ele>30.0</ele><time>2026-03-29T12:58:56.581Z</time></trkpt><trkpt lat="38.8578367" lon="16.5724883"><ele>31.0</ele><time>2026-03-29T12:58:57.581Z</time></trkpt><trkpt lat="38.8580533" lon="16.5722933"><ele>32.0</ele><time>2026-03-29T12:58:58.582Z</time></trkpt><trkpt lat="38.8582583" lon="16.5720933"><ele>32.5</ele><time>2026-03-29T12:58:59.581Z</time></trkpt><trkpt lat="38.8584583" lon="16.5718983"><ele>33.0</ele><time>2026-03-29T12:59:00.581Z</time></trkpt><trkpt lat="38.858665" lon="16.5717117"><ele>33.0</ele><time>2026-03-29T12:59:01.581Z</time></trkpt><trkpt lat="38.8588733" lon="16.5715317"><ele>33.0</ele><time>2026-03-29T12:59:02.581Z</time></trkpt><trkpt lat="38.8590783" lon="16.571345"><ele>32.5</ele><time>2026-03-29T12:59:03.581Z</time></trkpt><trkpt lat="38.85928" lon="16.57117"><ele>32.0</ele><time>2026-03-29T12:59:04.581Z</time></trkpt><trkpt lat="38.8594683" lon="16.5709933"><ele>33.0</ele><time>2026-03-29T12:59:05.581Z</time></trkpt><trkpt lat="38.8596533" lon="16.5708183"><ele>34.0</ele><time>2026-03-29T12:59:06.581Z</time></trkpt><trkpt lat="38.8598383" lon="16.57065"><ele>34.0</ele><time>2026-03-29T12:59:07.581Z</time></trkpt><trkpt lat="38.8600167" lon="16.57048"><ele>34.0</ele><time>2026-03-29T12:59:08.581Z</time></trkpt><trkpt lat="38.860205" lon="16.570305"><ele>34.0</ele><time>2026-03-29T12:59:09.581Z</time></trkpt><trkpt lat="38.8603967" lon="16.57013"><ele>34.0</ele><time>2026-03-29T12:59:10.581Z</time></trkpt><trkpt lat="38.8605917" lon="16.5699583"><ele>34.0</ele><time>2026-03-29T12:59:11.581Z</time></trkpt><trkpt lat="38.86079" lon="16.5697867"><ele>34.0</ele><time>2026-03-29T12:59:12.581Z</time></trkpt><trkpt lat="38.8609917" lon="16.5696183"><ele>35.5</ele><time>2026-03-29T12:59:13.581Z</time></trkpt><trkpt lat="38.8612033" lon="16.569435"><ele>37.0</ele><time>2026-03-29T12:59:14.581Z</time></trkpt><trkpt lat="38.8614167" lon="16.56925"><ele>37.0</ele><time>2026-03-29T12:59:15.581Z</time></trkpt><trkpt lat="38.8616367" lon="16.5690583"><ele>37.0</ele><time>2026-03-29T12:59:16.581Z</time></trkpt><trkpt lat="38.8618517" lon="16.568865"><ele>37.5</ele><time>2026-03-29T12:59:17.582Z</time></trkpt><trkpt lat="38.862075" lon="16.56868"><ele>38.0</ele><time>2026-03-29T12:59:18.581Z</time></trkpt><trkpt lat="38.86229" lon="16.5684917"><ele>38.0</ele><time>2026-03-29T12:59:19.582Z</time></trkpt><trkpt lat="38.8625067" lon="16.568305"><ele>38.0</ele><time>2026-03-29T12:59:20.581Z</time></trkpt><trkpt lat="38.8627383" lon="16.5681133"><ele>38.0</ele><time>2026-03-29T12:59:21.581Z</time></trkpt><trkpt lat="38.862965" lon="16.567925"><ele>38.0</ele><time>2026-03-29T12:59:22.581Z</time></trkpt><trkpt lat="38.8631933" lon="16.5677383"><ele>38.0</ele><time>2026-03-29T12:59:23.581Z</time></trkpt><trkpt lat="38.863425" lon="16.5675517"><ele>38.0</ele><time>2026-03-29T12:59:24.581Z</time></trkpt><trkpt lat="38.8636533" lon="16.5673633"><ele>39.0</ele><time>2026-03-29T12:59:25.581Z</time></trkpt><trkpt lat="38.86387" lon="16.5671817"><ele>40.0</ele><time>2026-03-29T12:59:26.581Z</time></trkpt><trkpt lat="38.8640967" lon="16.5670067"><ele>44.5</ele><time>2026-03-29T12:59:27.581Z</time></trkpt><trkpt lat="38.864325" lon="16.5668217"><ele>49.0</ele><time>2026-03-29T12:59:28.581Z</time></trkpt><trkpt lat="38.864545" lon="16.5666483"><ele>49.0</ele><time>2026-03-29T12:59:29.581Z</time></trkpt><trkpt lat="38.864775" lon="16.5664717"><ele>49.0</ele><time>2026-03-29T12:59:30.581Z</time></trkpt><trkpt lat="38.8650083" lon="16.5662933"><ele>48.0</ele><time>2026-03-29T12:59:31.581Z</time></trkpt><trkpt lat="38.8652367" lon="16.5661117"><ele>47.0</ele><time>2026-03-29T12:59:32.582Z</time></trkpt><trkpt lat="38.8654667" lon="16.5659217"><ele>47.0</ele><time>2026-03-29T12:59:33.581Z</time></trkpt><trkpt lat="38.86569" lon="16.565735"><ele>47.0</ele><time>2026-03-29T12:59:34.581Z</time></trkpt><trkpt lat="38.8659167" lon="16.565545"><ele>46.5</ele><time>2026-03-29T12:59:35.581Z</time></trkpt><trkpt lat="38.8661367" lon="16.565365"><ele>46.0</ele><time>2026-03-29T12:59:36.581Z</time></trkpt><trkpt lat="38.86636" lon="16.5651817"><ele>46.0</ele><time>2026-03-29T12:59:37.581Z</time></trkpt><trkpt lat="38.8665767" lon="16.5649967"><ele>46.0</ele><time>2026-03-29T12:59:38.581Z</time></trkpt><trkpt lat="38.8668033" lon="16.5648183"><ele>45.5</ele><time>2026-03-29T12:59:39.581Z</time></trkpt><trkpt lat="38.8670367" lon="16.5646383"><ele>45.0</ele><time>2026-03-29T12:59:40.581Z</time></trkpt><trkpt lat="38.8672633" lon="16.564455"><ele>45.0</ele><time>2026-03-29T12:59:41.581Z</time></trkpt><trkpt lat="38.8674867" lon="16.5642667"><ele>45.0</ele><time>2026-03-29T12:59:42.581Z</time></trkpt><trkpt lat="38.8677033" lon="16.56408"><ele>47.0</ele><time>2026-03-29T12:59:43.581Z</time></trkpt><trkpt lat="38.8679233" lon="16.563895"><ele>49.0</ele><time>2026-03-29T12:59:44.582Z</time></trkpt><trkpt lat="38.868145" lon="16.56371"><ele>45.5</ele><time>2026-03-29T12:59:45.581Z</time></trkpt><trkpt lat="38.8683733" lon="16.5635233"><ele>42.0</ele><time>2026-03-29T12:59:46.581Z</time></trkpt><trkpt lat="38.8685983" lon="16.5633267"><ele>42.0</ele><time>2026-03-29T12:59:47.581Z</time></trkpt><trkpt lat="38.8688267" lon="16.5631383"><ele>42.0</ele><time>2026-03-29T12:59:48.582Z</time></trkpt><trkpt lat="38.8690617" lon="16.5629517"><ele>41.5</ele><time>2026-03-29T12:59:49.581Z</time></trkpt><trkpt lat="38.8692867" lon="16.562765"><ele>41.0</ele><time>2026-03-29T12:59:50.581Z</time></trkpt><trkpt lat="38.86952" lon="16.56258"><ele>41.0</ele><time>2026-03-29T12:59:51.581Z</time></trkpt><trkpt lat="38.8697517" lon="16.5623917"><ele>41.0</ele><time>2026-03-29T12:59:52.581Z</time></trkpt><trkpt lat="38.8699867" lon="16.5622017"><ele>41.5</ele><time>2026-03-29T12:59:53.581Z</time></trkpt><trkpt lat="38.87022" lon="16.5620183"><ele>42.0</ele><time>2026-03-29T12:59:54.581Z</time></trkpt><trkpt lat="38.87045" lon="16.561835"><ele>42.0</ele><time>2026-03-29T12:59:55.581Z</time></trkpt><trkpt lat="38.8706783" lon="16.5616383"><ele>42.0</ele><time>2026-03-29T12:59:56.582Z</time></trkpt><trkpt lat="38.8709133" lon="16.5614483"><ele>42.5</ele><time>2026-03-29T12:59:57.581Z</time></trkpt><trkpt lat="38.8711433" lon="16.56126"><ele>43.0</ele><time>2026-03-29T12:59:58.581Z</time></trkpt><trkpt lat="38.8713833" lon="16.5610783"><ele>43.0</ele><time>2026-03-29T12:59:59.581Z</time></trkpt><trkpt lat="38.8716233" lon="16.560885"><ele>43.0</ele><time>2026-03-29T13:00:00.582Z</time></trkpt><trkpt lat="38.871855" lon="16.5606983"><ele>43.0</ele><time>2026-03-29T13:00:01.581Z</time></trkpt><trkpt lat="38.8720783" lon="16.5605083"><ele>43.0</ele><time>2026-03-29T13:00:02.581Z</time></trkpt><trkpt lat="38.8723183" lon="16.5603133"><ele>43.0</ele><time>2026-03-29T13:00:03.581Z</time></trkpt><trkpt lat="38.8725417" lon="16.560125"><ele>43.0</ele><time>2026-03-29T13:00:04.581Z</time></trkpt><trkpt lat="38.87277" lon="16.559935"><ele>43.5</ele><time>2026-03-29T13:00:05.581Z</time></trkpt><trkpt lat="38.8730017" lon="16.559745"><ele>44.0</ele><time>2026-03-29T13:00:06.581Z</time></trkpt><trkpt lat="38.8732267" lon="16.559555"><ele>44.0</ele><time>2026-03-29T13:00:07.581Z</time></trkpt><trkpt lat="38.8734583" lon="16.5593667"><ele>44.0</ele><time>2026-03-29T13:00:08.581Z</time></trkpt><trkpt lat="38.873695" lon="16.5591767"><ele>44.0</ele><time>2026-03-29T13:00:09.581Z</time></trkpt><trkpt lat="38.8739267" lon="16.558985"><ele>44.0</ele><time>2026-03-29T13:00:10.582Z</time></trkpt><trkpt lat="38.8741583" lon="16.5587933"><ele>44.5</ele><time>2026-03-29T13:00:11.581Z</time></trkpt><trkpt lat="38.87439" lon="16.5586067"><ele>45.0</ele><time>2026-03-29T13:00:12.581Z</time></trkpt><trkpt lat="38.87462" lon="16.558415"><ele>45.0</ele><time>2026-03-29T13:00:13.581Z</time></trkpt><trkpt lat="38.8748467" lon="16.5582317"><ele>45.0</ele><time>2026-03-29T13:00:14.581Z</time></trkpt><trkpt lat="38.875075" lon="16.5580517"><ele>45.5</ele><time>2026-03-29T13:00:15.581Z</time></trkpt><trkpt lat="38.8753067" lon="16.5578667"><ele>46.0</ele><time>2026-03-29T13:00:16.581Z</time></trkpt><trkpt lat="38.8755383" lon="16.5576733"><ele>46.0</ele><time>2026-03-29T13:00:17.581Z</time></trkpt><trkpt lat="38.875765" lon="16.557485"><ele>46.0</ele><time>2026-03-29T13:00:18.582Z</time></trkpt><trkpt lat="38.8759867" lon="16.5572967"><ele>46.5</ele><time>2026-03-29T13:00:19.581Z</time></trkpt><trkpt lat="38.8762183" lon="16.557105"><ele>47.0</ele><time>2026-03-29T13:00:20.581Z</time></trkpt><trkpt lat="38.8764517" lon="16.5569167"><ele>47.0</ele><time>2026-03-29T13:00:21.581Z</time></trkpt><trkpt lat="38.8766783" lon="16.55673"><ele>47.0</ele><time>2026-03-29T13:00:22.581Z</time></trkpt><trkpt lat="38.8769117" lon="16.5565417"><ele>47.0</ele><time>2026-03-29T13:00:23.581Z</time></trkpt><trkpt lat="38.8771533" lon="16.5563617"><ele>47.0</ele><time>2026-03-29T13:00:24.581Z</time></trkpt><trkpt lat="38.8773933" lon="16.55619"><ele>47.0</ele><time>2026-03-29T13:00:25.581Z</time></trkpt><trkpt lat="38.87764" lon="16.5560217"><ele>47.0</ele><time>2026-03-29T13:00:26.581Z</time></trkpt><trkpt lat="38.8778867" lon="16.5558633"><ele>47.0</ele><time>2026-03-29T13:00:27.581Z</time></trkpt><trkpt lat="38.87814" lon="16.55572"><ele>47.0</ele><time>2026-03-29T13:00:28.581Z</time></trkpt><trkpt lat="38.8783983" lon="16.555585"><ele>47.5</ele><time>2026-03-29T13:00:29.581Z</time></trkpt><trkpt lat="38.8786583" lon="16.5554617"><ele>48.0</ele><time>2026-03-29T13:00:30.581Z</time></trkpt><trkpt lat="38.87892" lon="16.5553433"><ele>48.0</ele><time>2026-03-29T13:00:31.581Z</time></trkpt><trkpt lat="38.8791767" lon="16.5552383"><ele>48.0</ele><time>2026-03-29T13:00:32.581Z</time></trkpt><trkpt lat="38.8794383" lon="16.555145"><ele>49.5</ele><time>2026-03-29T13:00:33.581Z</time></trkpt><trkpt lat="38.8796967" lon="16.555065"><ele>51.0</ele><time>2026-03-29T13:00:34.581Z</time></trkpt><trkpt lat="38.8799583" lon="16.5549967"><ele>50.5</ele><time>2026-03-29T13:00:35.581Z</time></trkpt><trkpt lat="38.88022" lon="16.5549417"><ele>50.0</ele><time>2026-03-29T13:00:36.581Z</time></trkpt><trkpt lat="38.8804883" lon="16.5548983"><ele>50.0</ele><time>2026-03-29T13:00:37.581Z</time></trkpt><trkpt lat="38.8807583" lon="16.554875"><ele>50.0</ele><time>2026-03-29T13:00:38.581Z</time></trkpt><trkpt lat="38.88103" lon="16.5548533"><ele>50.5</ele><time>2026-03-29T13:00:39.581Z</time></trkpt><trkpt lat="38.8813067" lon="16.5548517"><ele>51.0</ele><time>2026-03-29T13:00:40.582Z</time></trkpt><trkpt lat="38.8815817" lon="16.5548617"><ele>51.5</ele><time>2026-03-29T13:00:41.581Z</time></trkpt><trkpt lat="38.8818567" lon="16.5548783"><ele>52.0</ele><time>2026-03-29T13:00:42.581Z</time></trkpt><trkpt lat="38.8821283" lon="16.554915"><ele>52.0</ele><time>2026-03-29T13:00:43.581Z</time></trkpt><trkpt lat="38.8824" lon="16.554965"><ele>52.0</ele><time>2026-03-29T13:00:44.581Z</time></trkpt><trkpt lat="38.8826783" lon="16.5550233"><ele>52.5</ele><time>2026-03-29T13:00:45.581Z</time></trkpt><trkpt lat="38.8829567" lon="16.5550933"><ele>53.0</ele><time>2026-03-29T13:00:46.581Z</time></trkpt><trkpt lat="38.8832267" lon="16.5551717"><ele>54.5</ele><time>2026-03-29T13:00:47.581Z</time></trkpt><trkpt lat="38.8834933" lon="16.555255"><ele>56.0</ele><time>2026-03-29T13:00:48.581Z</time></trkpt><trkpt lat="38.8837583" lon="16.55534"><ele>57.0</ele><time>2026-03-29T13:00:49.581Z</time></trkpt><trkpt lat="38.8840217" lon="16.5554217"><ele>58.0</ele><time>2026-03-29T13:00:50.581Z</time></trkpt><trkpt lat="38.8842883" lon="16.5555117"><ele>58.0</ele><time>2026-03-29T13:00:51.581Z</time></trkpt><trkpt lat="38.8845533" lon="16.555595"><ele>58.0</ele><time>2026-03-29T13:00:52.581Z</time></trkpt><trkpt lat="38.88482" lon="16.5556733"><ele>58.0</ele><time>2026-03-29T13:00:53.581Z</time></trkpt><trkpt lat="38.8850883" lon="16.55575"><ele>58.0</ele><time>2026-03-29T13:00:54.581Z</time></trkpt><trkpt lat="38.885355" lon="16.5558233"><ele>58.5</ele><time>2026-03-29T13:00:55.581Z</time></trkpt><trkpt lat="38.88562" lon="16.5558983"><ele>59.0</ele><time>2026-03-29T13:00:56.581Z</time></trkpt><trkpt lat="38.885885" lon="16.5559817"><ele>59.0</ele><time>2026-03-29T13:00:57.581Z</time></trkpt><trkpt lat="38.8861483" lon="16.5560633"><ele>59.0</ele><time>2026-03-29T13:00:58.581Z</time></trkpt><trkpt lat="38.8864117" lon="16.5561483"><ele>60.5</ele><time>2026-03-29T13:00:59.581Z</time></trkpt><trkpt lat="38.88668" lon="16.5562317"><ele>62.0</ele><time>2026-03-29T13:01:00.581Z</time></trkpt><trkpt lat="38.8869417" lon="16.5563117"><ele>64.0</ele><time>2026-03-29T13:01:01.581Z</time></trkpt><trkpt lat="38.8872067" lon="16.5563817"><ele>66.0</ele><time>2026-03-29T13:01:02.581Z</time></trkpt><trkpt lat="38.8874783" lon="16.55643"><ele>66.0</ele><time>2026-03-29T13:01:03.581Z</time></trkpt><trkpt lat="38.88775" lon="16.556465"><ele>66.0</ele><time>2026-03-29T13:01:04.581Z</time></trkpt><trkpt lat="38.8880167" lon="16.5564833"><ele>66.0</ele><time>2026-03-29T13:01:05.581Z</time></trkpt><trkpt lat="38.8882983" lon="16.5565"><ele>66.0</ele><time>2026-03-29T13:01:06.581Z</time></trkpt><trkpt lat="38.8885733" lon="16.5564867"><ele>65.0</ele><time>2026-03-29T13:01:07.581Z</time></trkpt><trkpt lat="38.888845" lon="16.5564533"><ele>64.0</ele><time>2026-03-29T13:01:08.581Z</time></trkpt><trkpt lat="38.8891183" lon="16.5564083"><ele>65.0</ele><time>2026-03-29T13:01:09.581Z</time></trkpt><trkpt lat="38.8893933" lon="16.5563483"><ele>66.0</ele><time>2026-03-29T13:01:10.581Z</time></trkpt><trkpt lat="38.8896633" lon="16.55628"><ele>65.5</ele><time>2026-03-29T13:01:11.581Z</time></trkpt><trkpt lat="38.8899333" lon="16.5561983"><ele>65.0</ele><time>2026-03-29T13:01:12.581Z</time></trkpt><trkpt lat="38.8902" lon="16.5561017"><ele>65.0</ele><time>2026-03-29T13:01:13.581Z</time></trkpt><trkpt lat="38.890465" lon="16.5560017"><ele>65.0</ele><time>2026-03-29T13:01:14.581Z</time></trkpt><trkpt lat="38.8907283" lon="16.5559167"><ele>65.5</ele><time>2026-03-29T13:01:15.581Z</time></trkpt><trkpt lat="38.8909933" lon="16.55583"><ele>66.0</ele><time>2026-03-29T13:01:16.581Z</time></trkpt><trkpt lat="38.8912517" lon="16.5557483"><ele>66.0</ele><time>2026-03-29T13:01:17.581Z</time></trkpt><trkpt lat="38.8915033" lon="16.5556633"><ele>66.0</ele><time>2026-03-29T13:01:18.581Z</time></trkpt><trkpt lat="38.8917383" lon="16.555595"><ele>67.33333333333333</ele><time>2026-03-29T13:01:19.581Z</time></trkpt><trkpt lat="38.8919567" lon="16.5555233"><ele>68.66666666666666</ele><time>2026-03-29T13:01:20.581Z</time></trkpt><trkpt lat="38.892155" lon="16.5554683"><ele>70.0</ele><time>2026-03-29T13:01:21.581Z</time></trkpt><trkpt lat="38.8923517" lon="16.5554183"><ele>69.33333333333333</ele><time>2026-03-29T13:01:22.581Z</time></trkpt><trkpt lat="38.8925333" lon="16.55537"><ele>68.66666666666667</ele><time>2026-03-29T13:01:23.581Z</time></trkpt><trkpt lat="38.8927083" lon="16.5553283"><ele>68.0</ele><time>2026-03-29T13:01:24.581Z</time></trkpt><trkpt lat="38.8928717" lon="16.5552833"><ele>68.0</ele><time>2026-03-29T13:01:25.581Z</time></trkpt><trkpt lat="38.8930217" lon="16.5552517"><ele>68.0</ele><time>2026-03-29T13:01:26.581Z</time></trkpt><trkpt lat="38.893145" lon="16.5552217"><ele>68.0</ele><time>2026-03-29T13:01:27.581Z</time></trkpt><trkpt lat="38.89326" lon="16.555215"><ele>68.0</ele><time>2026-03-29T13:01:28.581Z</time></trkpt><trkpt lat="38.8933683" lon="16.5551967"><ele>67.8</ele><time>2026-03-29T13:01:29.581Z</time></trkpt><trkpt lat="38.8934767" lon="16.5551767"><ele>67.6</ele><time>2026-03-29T13:01:30.581Z</time></trkpt><trkpt lat="38.8935883" lon="16.5551517"><ele>67.4</ele><time>2026-03-29T13:01:31.581Z</time></trkpt><trkpt lat="38.89369" lon="16.5551333"><ele>67.2</ele><time>2026-03-29T13:01:32.581Z</time></trkpt><trkpt lat="38.8937967" lon="16.5551367"><ele>67.0</ele><time>2026-03-29T13:01:33.581Z</time></trkpt><trkpt lat="38.893915" lon="16.55515"><ele>67.0</ele><time>2026-03-29T13:01:34.581Z</time></trkpt><trkpt lat="38.8940317" lon="16.55517"><ele>67.0</ele><time>2026-03-29T13:01:35.581Z</time></trkpt><trkpt lat="38.8941517" lon="16.5552067"><ele>67.0</ele><time>2026-03-29T13:01:36.581Z</time></trkpt><trkpt lat="38.8942683" lon="16.5552583"><ele>67.0</ele><time>2026-03-29T13:01:37.581Z</time></trkpt><trkpt lat="38.89439" lon="16.5553233"><ele>68.0</ele><time>2026-03-29T13:01:38.581Z</time></trkpt><trkpt lat="38.894505" lon="16.5554067"><ele>69.0</ele><time>2026-03-29T13:01:39.581Z</time></trkpt><trkpt lat="38.89462" lon="16.55551"><ele>70.0</ele><time>2026-03-29T13:01:40.581Z</time></trkpt><trkpt lat="38.89474" lon="16.555625"><ele>71.0</ele><time>2026-03-29T13:01:41.581Z</time></trkpt><trkpt lat="38.894845" lon="16.55577"><ele>71.0</ele><time>2026-03-29T13:01:42.582Z</time></trkpt><trkpt lat="38.8949433" lon="16.5559317"><ele>71.0</ele><time>2026-03-29T13:01:43.581Z</time></trkpt><trkpt lat="38.8950283" lon="16.5561133"><ele>71.0</ele><time>2026-03-29T13:01:44.581Z</time></trkpt><trkpt lat="38.8951067" lon="16.5563117"><ele>71.0</ele><time>2026-03-29T13:01:45.581Z</time></trkpt><trkpt lat="38.895175" lon="16.5565183"><ele>71.0</ele><time>2026-03-29T13:01:46.581Z</time></trkpt><trkpt lat="38.8952433" lon="16.5567267"><ele>71.0</ele><time>2026-03-29T13:01:47.581Z</time></trkpt><trkpt lat="38.8953067" lon="16.556945"><ele>71.66666666666667</ele><time>2026-03-29T13:01:48.581Z</time></trkpt><trkpt lat="38.8953683" lon="16.5571667"><ele>72.33333333333333</ele><time>2026-03-29T13:01:49.581Z</time></trkpt><trkpt lat="38.8954233" lon="16.5573933"><ele>73.0</ele><time>2026-03-29T13:01:50.581Z</time></trkpt><trkpt lat="38.8954733" lon="16.5576183"><ele>73.0</ele><time>2026-03-29T13:01:51.582Z</time></trkpt><trkpt lat="38.8955167" lon="16.5578583"><ele>73.0</ele><time>2026-03-29T13:01:52.581Z</time></trkpt><trkpt lat="38.8955567" lon="16.5580983"><ele>73.0</ele><time>2026-03-29T13:01:53.581Z</time></trkpt><trkpt lat="38.8956" lon="16.55835"><ele>73.0</ele><time>2026-03-29T13:01:54.582Z</time></trkpt><trkpt lat="38.8956483" lon="16.558605"><ele>73.0</ele><time>2026-03-29T13:01:55.581Z</time></trkpt><trkpt lat="38.8956917" lon="16.558865"><ele>73.0</ele><time>2026-03-29T13:01:56.581Z</time></trkpt><trkpt lat="38.89573" lon="16.5591317"><ele>72.66666666666666</ele><time>2026-03-29T13:01:57.581Z</time></trkpt><trkpt lat="38.8957717" lon="16.5594017"><ele>72.33333333333333</ele><time>2026-03-29T13:01:58.581Z</time></trkpt><trkpt lat="38.8958117" lon="16.559675"><ele>72.0</ele><time>2026-03-29T13:01:59.581Z</time></trkpt><trkpt lat="38.8958583" lon="16.5599467"><ele>73.33333333333333</ele><time>2026-03-29T13:02:00.581Z</time></trkpt><trkpt lat="38.8959033" lon="16.56021"><ele>74.66666666666666</ele><time>2026-03-29T13:02:01.581Z</time></trkpt><trkpt lat="38.8959417" lon="16.5604783"><ele>76.0</ele><time>2026-03-29T13:02:02.581Z</time></trkpt><trkpt lat="38.8959867" lon="16.5607367"><ele>87.0</ele><time>2026-03-29T13:02:03.581Z</time></trkpt><trkpt lat="38.8960283" lon="16.5609967"><ele>98.0</ele><time>2026-03-29T13:02:04.581Z</time></trkpt><trkpt lat="38.8960683" lon="16.56126"><ele>109.0</ele><time>2026-03-29T13:02:05.582Z</time></trkpt><trkpt lat="38.8961117" lon="16.5615233"><ele>108.0</ele><time>2026-03-29T13:02:06.581Z</time></trkpt><trkpt lat="38.8961533" lon="16.5617917"><ele>107.0</ele><time>2026-03-29T13:02:07.581Z</time></trkpt><trkpt lat="38.8962" lon="16.56205"><ele>106.0</ele><time>2026-03-29T13:02:08.581Z</time></trkpt><trkpt lat="38.8962583" lon="16.5623133"><ele>106.0</ele><time>2026-03-29T13:02:09.581Z</time></trkpt><trkpt lat="38.896325" lon="16.5625717"><ele>106.0</ele><time>2026-03-29T13:02:10.581Z</time></trkpt><trkpt lat="38.8963933" lon="16.5628283"><ele>106.0</ele><time>2026-03-29T13:02:11.581Z</time></trkpt><trkpt lat="38.89645" lon="16.56307"><ele>104.33333333333334</ele><time>2026-03-29T13:02:12.581Z</time></trkpt><trkpt lat="38.896515" lon="16.5633117"><ele>102.66666666666666</ele><time>2026-03-29T13:02:13.581Z</time></trkpt><trkpt lat="38.89659" lon="16.5635583"><ele>101.0</ele><time>2026-03-29T13:02:14.581Z</time></trkpt><trkpt lat="38.8966733" lon="16.56381"><ele>107.0</ele><time>2026-03-29T13:02:15.581Z</time></trkpt><trkpt lat="38.89676" lon="16.564065"><ele>113.0</ele><time>2026-03-29T13:02:16.581Z</time></trkpt><trkpt lat="38.8968533" lon="16.56431"><ele>119.0</ele><time>2026-03-29T13:02:17.581Z</time></trkpt><trkpt lat="38.8969483" lon="16.5645517"><ele>119.0</ele><time>2026-03-29T13:02:18.581Z</time></trkpt><trkpt lat="38.8970517" lon="16.5647767"><ele>119.0</ele><time>2026-03-29T13:02:19.581Z</time></trkpt><trkpt lat="38.8971633" lon="16.565015"><ele>119.0</ele><time>2026-03-29T13:02:20.581Z</time></trkpt><trkpt lat="38.897275" lon="16.5652417"><ele>114.66666666666666</ele><time>2026-03-29T13:02:21.581Z</time></trkpt><trkpt lat="38.8973983" lon="16.5654667"><ele>110.33333333333334</ele><time>2026-03-29T13:02:22.581Z</time></trkpt><trkpt lat="38.8975283" lon="16.5656917"><ele>106.0</ele><time>2026-03-29T13:02:23.581Z</time></trkpt><trkpt lat="38.8976617" lon="16.5659083"><ele>111.0</ele><time>2026-03-29T13:02:24.581Z</time></trkpt><trkpt lat="38.8977983" lon="16.566125"><ele>116.0</ele><time>2026-03-29T13:02:25.582Z</time></trkpt><trkpt lat="38.89795" lon="16.5663517"><ele>116.0</ele><time>2026-03-29T13:02:26.581Z</time></trkpt><trkpt lat="38.8981" lon="16.5665967"><ele>116.0</ele><time>2026-03-29T13:02:27.581Z</time></trkpt><trkpt lat="38.8982483" lon="16.566845"><ele>116.0</ele><time>2026-03-29T13:02:28.581Z</time></trkpt><trkpt lat="38.8983767" lon="16.56709"><ele>116.0</ele><time>2026-03-29T13:02:29.581Z</time></trkpt><trkpt lat="38.8984933" lon="16.5673417"><ele>130.0</ele><time>2026-03-29T13:02:30.581Z</time></trkpt><trkpt lat="38.8985967" lon="16.5676133"><ele>144.0</ele><time>2026-03-29T13:02:31.581Z</time></trkpt><trkpt lat="38.89867" lon="16.56791"><ele>144.0</ele><time>2026-03-29T13:02:32.581Z</time></trkpt><trkpt lat="38.8987383" lon="16.568215"><ele>144.0</ele><time>2026-03-29T13:02:33.581Z</time></trkpt><trkpt lat="38.8987783" lon="16.5685417"><ele>135.0</ele><time>2026-03-29T13:02:34.581Z</time></trkpt><trkpt lat="38.8988067" lon="16.5688683"><ele>126.0</ele><time>2026-03-29T13:02:35.581Z</time></trkpt><trkpt lat="38.8988333" lon="16.5691783"><ele>126.0</ele><time>2026-03-29T13:02:36.581Z</time></trkpt><trkpt lat="38.8988717" lon="16.5694783"><ele>126.0</ele><time>2026-03-29T13:02:37.581Z</time></trkpt><trkpt lat="38.8988933" lon="16.5697833"><ele>127.66666666666666</ele><time>2026-03-29T13:02:38.581Z</time></trkpt><trkpt lat="38.8989233" lon="16.5700733"><ele>129.33333333333331</ele><time>2026-03-29T13:02:39.581Z</time></trkpt><trkpt lat="38.898945" lon="16.5703533"><ele>131.0</ele><time>2026-03-29T13:02:40.581Z</time></trkpt><trkpt lat="38.8989617" lon="16.570625"><ele>131.0</ele><time>2026-03-29T13:02:41.581Z</time></trkpt><trkpt lat="38.89898" lon="16.57089"><ele>131.0</ele><time>2026-03-29T13:02:42.581Z</time></trkpt><trkpt lat="38.8990083" lon="16.5711433"><ele>131.0</ele><time>2026-03-29T13:02:43.581Z</time></trkpt><trkpt lat="38.8990317" lon="16.5714017"><ele>130.66666666666666</ele><time>2026-03-29T13:02:44.581Z</time></trkpt><trkpt lat="38.8990733" lon="16.571645"><ele>130.33333333333334</ele><time>2026-03-29T13:02:45.581Z</time></trkpt><trkpt lat="38.8991117" lon="16.571885"><ele>130.0</ele><time>2026-03-29T13:02:46.581Z</time></trkpt><trkpt lat="38.8991417" lon="16.5721133"><ele>130.0</ele><time>2026-03-29T13:02:47.582Z</time></trkpt><trkpt lat="38.899165" lon="16.57234"><ele>130.0</ele><time>2026-03-29T13:02:48.581Z</time></trkpt><trkpt lat="38.8991867" lon="16.5725717"><ele>130.0</ele><time>2026-03-29T13:02:49.581Z</time></trkpt><trkpt lat="38.89921" lon="16.5728083"><ele>133.0</ele><time>2026-03-29T13:02:50.581Z</time></trkpt><trkpt lat="38.899235" lon="16.5730483"><ele>136.0</ele><time>2026-03-29T13:02:51.581Z</time></trkpt><trkpt lat="38.899265" lon="16.5732817"><ele>139.0</ele><time>2026-03-29T13:02:52.581Z</time></trkpt><trkpt lat="38.8992933" lon="16.5735033"><ele>146.0</ele><time>2026-03-29T13:02:53.581Z</time></trkpt><trkpt lat="38.8993233" lon="16.57373"><ele>153.0</ele><time>2026-03-29T13:02:54.581Z</time></trkpt><trkpt lat="38.89936" lon="16.5739567"><ele>160.0</ele><time>2026-03-29T13:02:55.581Z</time></trkpt><trkpt lat="38.899405" lon="16.574185"><ele>160.0</ele><time>2026-03-29T13:02:56.581Z</time></trkpt><trkpt lat="38.8994533" lon="16.574415"><ele>160.0</ele><time>2026-03-29T13:02:57.581Z</time></trkpt><trkpt lat="38.8995083" lon="16.57465"><ele>160.0</ele><time>2026-03-29T13:02:58.581Z</time></trkpt><trkpt lat="38.89955" lon="16.57489"><ele>166.33333333333334</ele><time>2026-03-29T13:02:59.581Z</time></trkpt><trkpt lat="38.8995833" lon="16.5751233"><ele>172.66666666666666</ele><time>2026-03-29T13:03:00.581Z</time></trkpt><trkpt lat="38.89963" lon="16.5753633"><ele>179.0</ele><time>2026-03-29T13:03:01.581Z</time></trkpt><trkpt lat="38.8996717" lon="16.5756"><ele>185.33333333333331</ele><time>2026-03-29T13:03:02.581Z</time></trkpt><trkpt lat="38.8997133" lon="16.5758383"><ele>191.66666666666666</ele><time>2026-03-29T13:03:03.581Z</time></trkpt><trkpt lat="38.8997667" lon="16.576065"><ele>198.0</ele><time>2026-03-29T13:03:04.581Z</time></trkpt><trkpt lat="38.8998117" lon="16.5763"><ele>202.66666666666669</ele><time>2026-03-29T13:03:05.581Z</time></trkpt><trkpt lat="38.8998633" lon="16.57653"><ele>207.33333333333334</ele><time>2026-03-29T13:03:06.581Z</time></trkpt><trkpt lat="38.8999117" lon="16.5767567"><ele>212.0</ele><time>2026-03-29T13:03:07.581Z</time></trkpt><trkpt lat="38.8999583" lon="16.5769567"><ele>217.0</ele><time>2026-03-29T13:03:08.581Z</time></trkpt><trkpt lat="38.9" lon="16.577135"><ele>222.0</ele><time>2026-03-29T13:03:09.581Z</time></trkpt><trkpt lat="38.9000467" lon="16.5773483"><ele>227.0</ele><time>2026-03-29T13:03:10.581Z</time></trkpt><trkpt lat="38.9031606" lon="16.5849183"><ele>191.0</ele><time>2026-03-29T13:03:29.367Z</time></trkpt><trkpt lat="38.9035317" lon="16.5852517"><ele>191.0</ele><time>2026-03-29T13:03:43.579Z</time></trkpt><trkpt lat="38.9035317" lon="16.5853367"><ele>191.0</ele><time>2026-03-29T13:03:44.579Z</time></trkpt><trkpt lat="38.9034983" lon="16.5854233"><ele>191.0</ele><time>2026-03-29T13:03:46.579Z</time></trkpt><trkpt lat="38.9034233" lon="16.5854317"><ele>191.0</ele><time>2026-03-29T13:03:50.579Z</time></trkpt><trkpt lat="38.9033183" lon="16.5854267"><ele>191.0</ele><time>2026-03-29T13:03:58.579Z</time></trkpt><trkpt lat="38.903225" lon="16.5854283"><ele>191.0</ele><time>2026-03-29T13:04:00.579Z</time></trkpt><trkpt lat="38.9031367" lon="16.5854533"><ele>189.16666666666666</ele><time>2026-03-29T13:04:02.579Z</time></trkpt><trkpt lat="38.9030617" lon="16.5854733"><ele>187.33333333333331</ele><time>2026-03-29T13:04:04.579Z</time></trkpt><trkpt lat="38.9030033" lon="16.585505"><ele>185.5</ele><time>2026-03-29T13:04:06.579Z</time></trkpt><trkpt lat="38.9029383" lon="16.5855783"><ele>183.66666666666666</ele><time>2026-03-29T13:04:09.579Z</time></trkpt><trkpt lat="38.9028767" lon="16.585655"><ele>181.83333333333334</ele><time>2026-03-29T13:04:12.579Z</time></trkpt><trkpt lat="38.9028283" lon="16.5857133"><ele>180.0</ele><time>2026-03-29T13:04:14.579Z</time></trkpt><trkpt lat="38.90276" lon="16.5858167"><ele>180.0</ele><time>2026-03-29T13:04:16.579Z</time></trkpt><trkpt lat="38.9027117" lon="16.585875"><ele>180.0</ele><time>2026-03-29T13:04:17.579Z</time></trkpt><trkpt lat="38.9026467" lon="16.5859383"><ele>180.0</ele><time>2026-03-29T13:04:18.579Z</time></trkpt><trkpt lat="38.9025683" lon="16.586"><ele>180.0</ele><time>2026-03-29T13:04:19.579Z</time></trkpt><trkpt lat="38.9024767" lon="16.5860567"><ele>180.0</ele><time>2026-03-29T13:04:20.579Z</time></trkpt><trkpt lat="38.902385" lon="16.5861083"><ele>180.0</ele><time>2026-03-29T13:04:21.579Z</time></trkpt><trkpt lat="38.9023017" lon="16.586155"><ele>179.8</ele><time>2026-03-29T13:04:22.579Z</time></trkpt><trkpt lat="38.9022267" lon="16.586195"><ele>179.6</ele><time>2026-03-29T13:04:23.579Z</time></trkpt><trkpt lat="38.9021483" lon="16.5862317"><ele>179.39999999999998</ele><time>2026-03-29T13:04:24.579Z</time></trkpt><trkpt lat="38.9020633" lon="16.5862767"><ele>179.2</ele><time>2026-03-29T13:04:25.579Z</time></trkpt><trkpt lat="38.9019683" lon="16.5863317"><ele>179.0</ele><time>2026-03-29T13:04:26.579Z</time></trkpt><trkpt lat="38.901865" lon="16.5863867"><ele>179.0</ele><time>2026-03-29T13:04:27.579Z</time></trkpt><trkpt lat="38.9017667" lon="16.5864367"><ele>179.0</ele><time>2026-03-29T13:04:28.579Z</time></trkpt><trkpt lat="38.901655" lon="16.5864867"><ele>179.0</ele><time>2026-03-29T13:04:29.579Z</time></trkpt><trkpt lat="38.9015483" lon="16.5865333"><ele>179.0</ele><time>2026-03-29T13:04:30.579Z</time></trkpt><trkpt lat="38.90145" lon="16.5865833"><ele>179.0</ele><time>2026-03-29T13:04:31.579Z</time></trkpt><trkpt lat="38.901355" lon="16.5866317"><ele>178.79999999999998</ele><time>2026-03-29T13:04:32.579Z</time></trkpt><trkpt lat="38.9012683" lon="16.586675"><ele>178.6</ele><time>2026-03-29T13:04:33.58Z</time></trkpt><trkpt lat="38.901185" lon="16.5867267"><ele>178.4</ele><time>2026-03-29T13:04:34.579Z</time></trkpt><trkpt lat="38.9010883" lon="16.586775"><ele>178.2</ele><time>2026-03-29T13:04:35.579Z</time></trkpt><trkpt lat="38.9009767" lon="16.5868367"><ele>178.0</ele><time>2026-03-29T13:04:36.579Z</time></trkpt><trkpt lat="38.9008633" lon="16.5869083"><ele>177.0</ele><time>2026-03-29T13:04:37.579Z</time></trkpt><trkpt lat="38.9007483" lon="16.5869933"><ele>176.0</ele><time>2026-03-29T13:04:38.579Z</time></trkpt><trkpt lat="38.90064" lon="16.5870933"><ele>175.0</ele><time>2026-03-29T13:04:39.579Z</time></trkpt><trkpt lat="38.90054" lon="16.5872"><ele>174.0</ele><time>2026-03-29T13:04:40.579Z</time></trkpt><trkpt lat="38.9004383" lon="16.5873217"><ele>174.0</ele><time>2026-03-29T13:04:41.579Z</time></trkpt><trkpt lat="38.9003467" lon="16.5874533"><ele>174.0</ele><time>2026-03-29T13:04:42.579Z</time></trkpt><trkpt lat="38.9002617" lon="16.5875767"><ele>174.0</ele><time>2026-03-29T13:04:43.579Z</time></trkpt><trkpt lat="38.90018" lon="16.5876967"><ele>174.0</ele><time>2026-03-29T13:04:44.579Z</time></trkpt><trkpt lat="38.90011" lon="16.58782"><ele>174.0</ele><time>2026-03-29T13:04:45.579Z</time></trkpt><trkpt lat="38.9000333" lon="16.5879317"><ele>174.0</ele><time>2026-03-29T13:04:46.579Z</time></trkpt><trkpt lat="38.8999633" lon="16.5880383"><ele>174.0</ele><time>2026-03-29T13:04:47.579Z</time></trkpt><trkpt lat="38.899895" lon="16.5881383"><ele>174.0</ele><time>2026-03-29T13:04:48.579Z</time></trkpt><trkpt lat="38.89983" lon="16.5882283"><ele>174.0</ele><time>2026-03-29T13:04:49.579Z</time></trkpt><trkpt lat="38.89977" lon="16.58832"><ele>174.0</ele><time>2026-03-29T13:04:50.579Z</time></trkpt><trkpt lat="38.8996967" lon="16.5884267"><ele>174.0</ele><time>2026-03-29T13:04:51.579Z</time></trkpt><trkpt lat="38.8996283" lon="16.5885433"><ele>174.0</ele><time>2026-03-29T13:04:52.579Z</time></trkpt><trkpt lat="38.8995583" lon="16.588655"><ele>174.0</ele><time>2026-03-29T13:04:53.579Z</time></trkpt><trkpt lat="38.8994933" lon="16.5887733"><ele>174.0</ele><time>2026-03-29T13:04:54.579Z</time></trkpt><trkpt lat="38.8994283" lon="16.5888867"><ele>174.75</ele><time>2026-03-29T13:04:55.579Z</time></trkpt><trkpt lat="38.8993533" lon="16.5890083"><ele>175.5</ele><time>2026-03-29T13:04:56.58Z</time></trkpt><trkpt lat="38.8992783" lon="16.589125"><ele>176.25</ele><time>2026-03-29T13:04:57.579Z</time></trkpt><trkpt lat="38.89921" lon="16.5892417"><ele>177.0</ele><time>2026-03-29T13:04:58.579Z</time></trkpt><trkpt lat="38.8991417" lon="16.589345"><ele>177.0</ele><time>2026-03-29T13:04:59.579Z</time></trkpt><trkpt lat="38.899075" lon="16.5894533"><ele>177.0</ele><time>2026-03-29T13:05:00.579Z</time></trkpt><trkpt lat="38.89901" lon="16.5895517"><ele>177.0</ele><time>2026-03-29T13:05:01.579Z</time></trkpt><trkpt lat="38.8989533" lon="16.589645"><ele>177.0</ele><time>2026-03-29T13:05:02.579Z</time></trkpt><trkpt lat="38.8988917" lon="16.589745"><ele>177.0</ele><time>2026-03-29T13:05:03.579Z</time></trkpt><trkpt lat="38.8988317" lon="16.589825"><ele>174.25</ele><time>2026-03-29T13:05:04.579Z</time></trkpt><trkpt lat="38.8986917" lon="16.5900083"><ele>171.5</ele><time>2026-03-29T13:05:06.579Z</time></trkpt><trkpt lat="38.8986267" lon="16.5901283"><ele>168.75</ele><time>2026-03-29T13:05:07.579Z</time></trkpt><trkpt lat="38.8985433" lon="16.5902433"><ele>166.0</ele><time>2026-03-29T13:05:08.579Z</time></trkpt><trkpt lat="38.8984583" lon="16.5903433"><ele>165.25</ele><time>2026-03-29T13:05:09.579Z</time></trkpt><trkpt lat="38.8983717" lon="16.5904467"><ele>164.5</ele><time>2026-03-29T13:05:10.579Z</time></trkpt><trkpt lat="38.89829" lon="16.5905467"><ele>163.75</ele><time>2026-03-29T13:05:11.579Z</time></trkpt><trkpt lat="38.8981967" lon="16.59065"><ele>163.0</ele><time>2026-03-29T13:05:12.579Z</time></trkpt><trkpt lat="38.8981217" lon="16.5907283"><ele>163.0</ele><time>2026-03-29T13:05:13.579Z</time></trkpt><trkpt lat="38.8980683" lon="16.5907733"><ele>163.0</ele><time>2026-03-29T13:05:14.579Z</time></trkpt><trkpt lat="38.8980033" lon="16.5908067"><ele>163.0</ele><time>2026-03-29T13:05:16.579Z</time></trkpt><trkpt lat="38.8980633" lon="16.5908683"><ele>163.0</ele><time>2026-03-29T13:05:31.579Z</time></trkpt><trkpt lat="38.898115" lon="16.5908167"><ele>163.0</ele><time>2026-03-29T13:05:32.579Z</time></trkpt><trkpt lat="38.8981867" lon="16.5907417"><ele>163.0</ele><time>2026-03-29T13:05:33.579Z</time></trkpt><trkpt lat="38.8982867" lon="16.5906417"><ele>163.0</ele><time>2026-03-29T13:05:34.579Z</time></trkpt><trkpt lat="38.89839" lon="16.5905283"><ele>163.0</ele><time>2026-03-29T13:05:35.58Z</time></trkpt><trkpt lat="38.8984933" lon="16.590415"><ele>163.0</ele><time>2026-03-29T13:05:36.58Z</time></trkpt><trkpt lat="38.898595" lon="16.590295"><ele>163.0</ele><time>2026-03-29T13:05:37.58Z</time></trkpt><trkpt lat="38.8987" lon="16.5901633"><ele>164.0</ele><time>2026-03-29T13:05:38.58Z</time></trkpt><trkpt lat="38.8988017" lon="16.5900267"><ele>165.0</ele><time>2026-03-29T13:05:39.58Z</time></trkpt><trkpt lat="38.8989083" lon="16.5898783"><ele>166.0</ele><time>2026-03-29T13:05:40.58Z</time></trkpt><trkpt lat="38.8990167" lon="16.5897183"><ele>166.0</ele><time>2026-03-29T13:05:41.58Z</time></trkpt><trkpt lat="38.8991217" lon="16.5895467"><ele>166.0</ele><time>2026-03-29T13:05:42.58Z</time></trkpt><trkpt lat="38.8992383" lon="16.5893667"><ele>166.0</ele><time>2026-03-29T13:05:43.58Z</time></trkpt><trkpt lat="38.8993533" lon="16.5891733"><ele>166.66666666666669</ele><time>2026-03-29T13:05:44.58Z</time></trkpt><trkpt lat="38.8994733" lon="16.5889867"><ele>167.33333333333334</ele><time>2026-03-29T13:05:45.581Z</time></trkpt><trkpt lat="38.899585" lon="16.5888"><ele>168.0</ele><time>2026-03-29T13:05:46.58Z</time></trkpt><trkpt lat="38.899695" lon="16.5886183"><ele>170.0</ele><time>2026-03-29T13:05:47.58Z</time></trkpt><trkpt lat="38.89981" lon="16.5884333"><ele>172.0</ele><time>2026-03-29T13:05:48.58Z</time></trkpt><trkpt lat="38.8999217" lon="16.5882483"><ele>174.0</ele><time>2026-03-29T13:05:49.58Z</time></trkpt><trkpt lat="38.9000317" lon="16.5880733"><ele>174.0</ele><time>2026-03-29T13:05:50.58Z</time></trkpt><trkpt lat="38.9001383" lon="16.587915"><ele>174.0</ele><time>2026-03-29T13:05:51.58Z</time></trkpt><trkpt lat="38.9002217" lon="16.5877683"><ele>174.0</ele><time>2026-03-29T13:05:52.58Z</time></trkpt><trkpt lat="38.9003083" lon="16.5876317"><ele>174.0</ele><time>2026-03-29T13:05:53.581Z</time></trkpt><trkpt lat="38.900385" lon="16.5875183"><ele>174.0</ele><time>2026-03-29T13:05:54.58Z</time></trkpt><trkpt lat="38.900465" lon="16.587415"><ele>174.0</ele><time>2026-03-29T13:05:55.581Z</time></trkpt><trkpt lat="38.9005367" lon="16.5873233"><ele>174.0</ele><time>2026-03-29T13:05:56.581Z</time></trkpt><trkpt lat="38.9005983" lon="16.58725"><ele>174.0</ele><time>2026-03-29T13:05:57.581Z</time></trkpt><trkpt lat="38.9006517" lon="16.587195"><ele>174.0</ele><time>2026-03-29T13:05:58.58Z</time></trkpt><trkpt lat="38.9007033" lon="16.5871417"><ele>174.0</ele><time>2026-03-29T13:05:59.58Z</time></trkpt><trkpt lat="38.9007683" lon="16.587085"><ele>174.0</ele><time>2026-03-29T13:06:01.58Z</time></trkpt><trkpt lat="38.9008483" lon="16.5870567"><ele>174.0</ele><time>2026-03-29T13:06:12.58Z</time></trkpt><trkpt lat="38.9009233" lon="16.5870383"><ele>174.0</ele><time>2026-03-29T13:06:14.58Z</time></trkpt><trkpt lat="38.900985" lon="16.58702"><ele>174.0</ele><time>2026-03-29T13:06:15.58Z</time></trkpt><trkpt lat="38.90106" lon="16.5869883"><ele>174.0</ele><time>2026-03-29T13:06:16.58Z</time></trkpt><trkpt lat="38.9011433" lon="16.58696"><ele>174.0</ele><time>2026-03-29T13:06:17.58Z</time></trkpt><trkpt lat="38.9012417" lon="16.5869333"><ele>175.0</ele><time>2026-03-29T13:06:18.58Z</time></trkpt><trkpt lat="38.9013533" lon="16.586915"><ele>176.0</ele><time>2026-03-29T13:06:19.58Z</time></trkpt><trkpt lat="38.90147" lon="16.5868833"><ele>177.0</ele><time>2026-03-29T13:06:20.58Z</time></trkpt><trkpt lat="38.9015933" lon="16.5868717"><ele>178.0</ele><time>2026-03-29T13:06:21.58Z</time></trkpt><trkpt lat="38.901725" lon="16.586855"><ele>178.25</ele><time>2026-03-29T13:06:22.58Z</time></trkpt><trkpt lat="38.9018633" lon="16.5868383"><ele>178.5</ele><time>2026-03-29T13:06:23.58Z</time></trkpt><trkpt lat="38.9020083" lon="16.5868267"><ele>178.75</ele><time>2026-03-29T13:06:24.58Z</time></trkpt><trkpt lat="38.9021567" lon="16.5868133"><ele>179.0</ele><time>2026-03-29T13:06:25.58Z</time></trkpt><trkpt lat="38.902305" lon="16.58679"><ele>179.0</ele><time>2026-03-29T13:06:26.58Z</time></trkpt><trkpt lat="38.9024517" lon="16.5867633"><ele>179.0</ele><time>2026-03-29T13:06:27.58Z</time></trkpt><trkpt lat="38.9025883" lon="16.5867383"><ele>179.0</ele><time>2026-03-29T13:06:28.58Z</time></trkpt><trkpt lat="38.902715" lon="16.5867"><ele>179.0</ele><time>2026-03-29T13:06:29.58Z</time></trkpt><trkpt lat="38.9028367" lon="16.5866533"><ele>179.25</ele><time>2026-03-29T13:06:30.58Z</time></trkpt><trkpt lat="38.902945" lon="16.5865883"><ele>179.5</ele><time>2026-03-29T13:06:31.58Z</time></trkpt><trkpt lat="38.903045" lon="16.5865067"><ele>179.75</ele><time>2026-03-29T13:06:32.58Z</time></trkpt><trkpt lat="38.9031367" lon="16.5864117"><ele>180.0</ele><time>2026-03-29T13:06:33.581Z</time></trkpt><trkpt lat="38.90322" lon="16.5863083"><ele>180.0</ele><time>2026-03-29T13:06:34.58Z</time></trkpt><trkpt lat="38.9033017" lon="16.5862017"><ele>180.0</ele><time>2026-03-29T13:06:35.58Z</time></trkpt><trkpt lat="38.903375" lon="16.586085"><ele>180.0</ele><time>2026-03-29T13:06:36.58Z</time></trkpt><trkpt lat="38.90345" lon="16.58597"><ele>180.0</ele><time>2026-03-29T13:06:37.58Z</time></trkpt><trkpt lat="38.9035083" lon="16.5858533"><ele>180.5</ele><time>2026-03-29T13:06:38.58Z</time></trkpt><trkpt lat="38.9035517" lon="16.5857417"><ele>181.0</ele><time>2026-03-29T13:06:39.58Z</time></trkpt><trkpt lat="38.9035883" lon="16.5856333"><ele>181.5</ele><time>2026-03-29T13:06:40.58Z</time></trkpt><trkpt lat="38.90361" lon="16.5855317"><ele>182.0</ele><time>2026-03-29T13:06:41.58Z</time></trkpt><trkpt lat="38.90362" lon="16.585435"><ele>182.5</ele><time>2026-03-29T13:06:42.58Z</time></trkpt><trkpt lat="38.9036233" lon="16.58534"><ele>183.0</ele><time>2026-03-29T13:06:43.58Z</time></trkpt><trkpt lat="38.903625" lon="16.5852467"><ele>184.33333333333334</ele><time>2026-03-29T13:06:44.58Z</time></trkpt><trkpt lat="38.9036217" lon="16.5851633"><ele>185.66666666666666</ele><time>2026-03-29T13:06:45.58Z</time></trkpt><trkpt lat="38.9036233" lon="16.58504"><ele>187.0</ele><time>2026-03-29T13:06:47.581Z</time></trkpt><trkpt lat="38.9035967" lon="16.584965"><ele>188.33333333333331</ele><time>2026-03-29T13:06:49.58Z</time></trkpt><trkpt lat="38.9035417" lon="16.5850417"><ele>189.66666666666666</ele><time>2026-03-29T13:06:53.58Z</time></trkpt><trkpt lat="38.9035433" lon="16.5851783"><ele>191.0</ele><time>2026-03-29T13:06:55.581Z</time></trkpt><trkpt lat="38.9035233" lon="16.5852983"><ele>189.66666666666666</ele><time>2026-03-29T13:06:57.58Z</time></trkpt><trkpt lat="38.9034783" lon="16.58537"><ele>188.33333333333331</ele><time>2026-03-29T13:07:00.58Z</time></trkpt><trkpt lat="38.9034867" lon="16.5854883"><ele>187.0</ele><time>2026-03-29T13:07:11.58Z</time></trkpt><trkpt lat="38.9034617" lon="16.58557"><ele>185.66666666666666</ele><time>2026-03-29T13:07:12.58Z</time></trkpt><trkpt lat="38.90342" lon="16.5856717"><ele>184.33333333333334</ele><time>2026-03-29T13:07:13.58Z</time></trkpt><trkpt lat="38.903365" lon="16.5857883"><ele>183.0</ele><time>2026-03-29T13:07:14.581Z</time></trkpt><trkpt lat="38.9033217" lon="16.5859017"><ele>182.4</ele><time>2026-03-29T13:07:15.58Z</time></trkpt><trkpt lat="38.9032717" lon="16.5860083"><ele>181.8</ele><time>2026-03-29T13:07:16.58Z</time></trkpt><trkpt lat="38.90321" lon="16.586105"><ele>181.2</ele><time>2026-03-29T13:07:17.58Z</time></trkpt><trkpt lat="38.9031483" lon="16.586195"><ele>180.6</ele><time>2026-03-29T13:07:18.58Z</time></trkpt><trkpt lat="38.9030617" lon="16.5862733"><ele>180.0</ele><time>2026-03-29T13:07:19.58Z</time></trkpt><trkpt lat="38.902965" lon="16.586335"><ele>180.0</ele><time>2026-03-29T13:07:20.58Z</time></trkpt><trkpt lat="38.9028483" lon="16.5863767"><ele>180.0</ele><time>2026-03-29T13:07:21.58Z</time></trkpt><trkpt lat="38.9027117" lon="16.5864117"><ele>180.0</ele><time>2026-03-29T13:07:22.58Z</time></trkpt><trkpt lat="38.90258" lon="16.58643"><ele>180.0</ele><time>2026-03-29T13:07:23.58Z</time></trkpt><trkpt lat="38.902455" lon="16.5864333"><ele>179.75</ele><time>2026-03-29T13:07:24.58Z</time></trkpt><trkpt lat="38.9023233" lon="16.5864067"><ele>179.5</ele><time>2026-03-29T13:07:25.58Z</time></trkpt><trkpt lat="38.902175" lon="16.5863783"><ele>179.25</ele><time>2026-03-29T13:07:26.58Z</time></trkpt><trkpt lat="38.9020167" lon="16.5863267"><ele>179.0</ele><time>2026-03-29T13:07:27.58Z</time></trkpt><trkpt lat="38.9018567" lon="16.5862467"><ele>178.66666666666666</ele><time>2026-03-29T13:07:28.58Z</time></trkpt><trkpt lat="38.9016933" lon="16.5861783"><ele>178.33333333333334</ele><time>2026-03-29T13:07:29.58Z</time></trkpt><trkpt lat="38.901545" lon="16.586115"><ele>178.0</ele><time>2026-03-29T13:07:30.58Z</time></trkpt><trkpt lat="38.90141" lon="16.5860533"><ele>181.75</ele><time>2026-03-29T13:07:31.58Z</time></trkpt><trkpt lat="38.901265" lon="16.586015"><ele>185.5</ele><time>2026-03-29T13:07:32.58Z</time></trkpt><trkpt lat="38.9011283" lon="16.586015"><ele>189.25</ele><time>2026-03-29T13:07:33.58Z</time></trkpt><trkpt lat="38.900985" lon="16.5860633"><ele>193.0</ele><time>2026-03-29T13:07:34.58Z</time></trkpt><trkpt lat="38.9008267" lon="16.5861383"><ele>191.0</ele><time>2026-03-29T13:07:35.58Z</time></trkpt><trkpt lat="38.900685" lon="16.5862617"><ele>189.0</ele><time>2026-03-29T13:07:36.58Z</time></trkpt><trkpt lat="38.900555" lon="16.5864317"><ele>187.0</ele><time>2026-03-29T13:07:37.58Z</time></trkpt><trkpt lat="38.9004317" lon="16.5866317"><ele>187.0</ele><time>2026-03-29T13:07:38.58Z</time></trkpt><trkpt lat="38.90032" lon="16.586835"><ele>187.0</ele><time>2026-03-29T13:07:39.58Z</time></trkpt><trkpt lat="38.9002233" lon="16.5870333"><ele>187.0</ele><time>2026-03-29T13:07:40.58Z</time></trkpt><trkpt lat="38.9001117" lon="16.5872133"><ele>189.66666666666669</ele><time>2026-03-29T13:07:41.58Z</time></trkpt><trkpt lat="38.8999733" lon="16.58737"><ele>192.33333333333334</ele><time>2026-03-29T13:07:42.58Z</time></trkpt><trkpt lat="38.89981" lon="16.5875283"><ele>195.0</ele><time>2026-03-29T13:07:43.58Z</time></trkpt><trkpt lat="38.8996283" lon="16.5876617"><ele>195.0</ele><time>2026-03-29T13:07:44.58Z</time></trkpt><trkpt lat="38.89943" lon="16.587775"><ele>195.0</ele><time>2026-03-29T13:07:45.58Z</time></trkpt><trkpt lat="38.8992333" lon="16.5878867"><ele>195.0</ele><time>2026-03-29T13:07:46.58Z</time></trkpt><trkpt lat="38.8990233" lon="16.588005"><ele>195.5</ele><time>2026-03-29T13:07:47.58Z</time></trkpt><trkpt lat="38.89881" lon="16.588115"><ele>196.0</ele><time>2026-03-29T13:07:48.58Z</time></trkpt><trkpt lat="38.898605" lon="16.588225"><ele>196.0</ele><time>2026-03-29T13:07:49.58Z</time></trkpt><trkpt lat="38.8984217" lon="16.5883117"><ele>196.0</ele><time>2026-03-29T13:07:50.58Z</time></trkpt><trkpt lat="38.89823" lon="16.5883833"><ele>196.0</ele><time>2026-03-29T13:07:51.58Z</time></trkpt><trkpt lat="38.8980467" lon="16.5884083"><ele>201.33333333333331</ele><time>2026-03-29T13:07:52.58Z</time></trkpt><trkpt lat="38.8978833" lon="16.5884283"><ele>206.66666666666669</ele><time>2026-03-29T13:07:53.58Z</time></trkpt><trkpt lat="38.897715" lon="16.5884183"><ele>212.0</ele><time>2026-03-29T13:07:54.58Z</time></trkpt><trkpt lat="38.8975367" lon="16.5883967"><ele>212.0</ele><time>2026-03-29T13:07:55.58Z</time></trkpt><trkpt lat="38.8973433" lon="16.5883267"><ele>212.0</ele><time>2026-03-29T13:07:56.58Z</time></trkpt><trkpt lat="38.8971633" lon="16.5882817"><ele>212.0</ele><time>2026-03-29T13:07:57.58Z</time></trkpt><trkpt lat="38.8969767" lon="16.5882533"><ele>212.0</ele><time>2026-03-29T13:07:58.58Z</time></trkpt><trkpt lat="38.8968" lon="16.588245"><ele>212.0</ele><time>2026-03-29T13:07:59.581Z</time></trkpt><trkpt lat="38.8966417" lon="16.5882767"><ele>212.0</ele><time>2026-03-29T13:08:00.58Z</time></trkpt><trkpt lat="38.896485" lon="16.58834"><ele>213.0</ele><time>2026-03-29T13:08:01.581Z</time></trkpt><trkpt lat="38.896335" lon="16.588415"><ele>214.0</ele><time>2026-03-29T13:08:02.58Z</time></trkpt><trkpt lat="38.8961783" lon="16.588495"><ele>215.0</ele><time>2026-03-29T13:08:03.58Z</time></trkpt><trkpt lat="38.8960267" lon="16.58857"><ele>215.0</ele><time>2026-03-29T13:08:04.58Z</time></trkpt><trkpt lat="38.8958833" lon="16.5886167"><ele>215.0</ele><time>2026-03-29T13:08:05.58Z</time></trkpt><trkpt lat="38.8957333" lon="16.5886167"><ele>215.0</ele><time>2026-03-29T13:08:06.58Z</time></trkpt><trkpt lat="38.8955833" lon="16.5885833"><ele>215.0</ele><time>2026-03-29T13:08:07.58Z</time></trkpt><trkpt lat="38.8954367" lon="16.5885167"><ele>215.0</ele><time>2026-03-29T13:08:08.58Z</time></trkpt><trkpt lat="38.8953" lon="16.5884133"><ele>215.0</ele><time>2026-03-29T13:08:09.58Z</time></trkpt><trkpt lat="38.8952" lon="16.5882767"><ele>215.0</ele><time>2026-03-29T13:08:10.58Z</time></trkpt><trkpt lat="38.8951283" lon="16.588095"><ele>215.0</ele><time>2026-03-29T13:08:11.58Z</time></trkpt><trkpt lat="38.8950767" lon="16.587905"><ele>215.0</ele><time>2026-03-29T13:08:12.58Z</time></trkpt><trkpt lat="38.895055" lon="16.5877"><ele>217.0</ele><time>2026-03-29T13:08:13.58Z</time></trkpt><trkpt lat="38.8950633" lon="16.587495"><ele>219.0</ele><time>2026-03-29T13:08:14.58Z</time></trkpt><trkpt lat="38.89511" lon="16.58731"><ele>221.0</ele><time>2026-03-29T13:08:15.58Z</time></trkpt><trkpt lat="38.89518" lon="16.5871333"><ele>225.0</ele><time>2026-03-29T13:08:16.581Z</time></trkpt><trkpt lat="38.8952717" lon="16.58698"><ele>229.0</ele><time>2026-03-29T13:08:17.58Z</time></trkpt><trkpt lat="38.8953883" lon="16.58685"><ele>233.0</ele><time>2026-03-29T13:08:18.58Z</time></trkpt><trkpt lat="38.8955217" lon="16.5867483"><ele>233.0</ele><time>2026-03-29T13:08:19.58Z</time></trkpt><trkpt lat="38.8956717" lon="16.5866533"><ele>233.0</ele><time>2026-03-29T13:08:20.58Z</time></trkpt><trkpt lat="38.89583" lon="16.586545"><ele>233.0</ele><time>2026-03-29T13:08:21.58Z</time></trkpt><trkpt lat="38.895995" lon="16.5864517"><ele>232.66666666666669</ele><time>2026-03-29T13:08:22.58Z</time></trkpt><trkpt lat="38.8961717" lon="16.586365"><ele>232.33333333333331</ele><time>2026-03-29T13:08:23.58Z</time></trkpt><trkpt lat="38.8963367" lon="16.5862633"><ele>232.0</ele><time>2026-03-29T13:08:24.58Z</time></trkpt><trkpt lat="38.89651" lon="16.5861617"><ele>234.0</ele><time>2026-03-29T13:08:25.58Z</time></trkpt><trkpt lat="38.8966717" lon="16.58606"><ele>236.0</ele><time>2026-03-29T13:08:26.58Z</time></trkpt><trkpt lat="38.8968467" lon="16.5859683"><ele>238.0</ele><time>2026-03-29T13:08:27.58Z</time></trkpt><trkpt lat="38.8970017" lon="16.5858483"><ele>238.0</ele><time>2026-03-29T13:08:28.581Z</time></trkpt><trkpt lat="38.8971483" lon="16.5856983"><ele>238.0</ele><time>2026-03-29T13:08:29.58Z</time></trkpt><trkpt lat="38.8972767" lon="16.58554"><ele>238.0</ele><time>2026-03-29T13:08:30.58Z</time></trkpt><trkpt lat="38.8973783" lon="16.5853567"><ele>238.0</ele><time>2026-03-29T13:08:31.58Z</time></trkpt><trkpt lat="38.89749" lon="16.58516"><ele>238.0</ele><time>2026-03-29T13:08:32.58Z</time></trkpt><trkpt lat="38.897585" lon="16.58496"><ele>238.0</ele><time>2026-03-29T13:08:33.58Z</time></trkpt><trkpt lat="38.8976867" lon="16.584785"><ele>238.0</ele><time>2026-03-29T13:08:34.58Z</time></trkpt><trkpt lat="38.897785" lon="16.584655"><ele>238.0</ele><time>2026-03-29T13:08:35.58Z</time></trkpt><trkpt lat="38.8979033" lon="16.584565"><ele>238.0</ele><time>2026-03-29T13:08:36.58Z</time></trkpt><trkpt lat="38.89804" lon="16.5845033"><ele>238.0</ele><time>2026-03-29T13:08:37.58Z</time></trkpt><trkpt lat="38.8981883" lon="16.584465"><ele>241.75</ele><time>2026-03-29T13:08:38.58Z</time></trkpt><trkpt lat="38.8983333" lon="16.58443"><ele>245.5</ele><time>2026-03-29T13:08:39.58Z</time></trkpt><trkpt lat="38.8984617" lon="16.584375"><ele>249.25</ele><time>2026-03-29T13:08:40.58Z</time></trkpt><trkpt lat="38.8985733" lon="16.58429"><ele>253.0</ele><time>2026-03-29T13:08:41.58Z</time></trkpt><trkpt lat="38.8986533" lon="16.584185"><ele>254.60000000000002</ele><time>2026-03-29T13:08:42.581Z</time></trkpt><trkpt lat="38.8987367" lon="16.58409"><ele>256.20000000000005</ele><time>2026-03-29T13:08:43.58Z</time></trkpt><trkpt lat="38.8988083" lon="16.58401"><ele>257.8</ele><time>2026-03-29T13:08:44.58Z</time></trkpt><trkpt lat="38.898885" lon="16.58396"><ele>259.40000000000003</ele><time>2026-03-29T13:08:45.581Z</time></trkpt><trkpt lat="38.8989667" lon="16.5839383"><ele>261.0</ele><time>2026-03-29T13:08:46.58Z</time></trkpt><trkpt lat="38.8990583" lon="16.5839483"><ele>261.0</ele><time>2026-03-29T13:08:47.58Z</time></trkpt><trkpt lat="38.899145" lon="16.5839933"><ele>261.0</ele><time>2026-03-29T13:08:48.58Z</time></trkpt><trkpt lat="38.8992417" lon="16.5840583"><ele>261.0</ele><time>2026-03-29T13:08:49.58Z</time></trkpt><trkpt lat="38.89933" lon="16.58412"><ele>261.0</ele><time>2026-03-29T13:08:50.58Z</time></trkpt><trkpt lat="38.8994117" lon="16.58421"><ele>261.0</ele><time>2026-03-29T13:08:51.58Z</time></trkpt><trkpt lat="38.8995067" lon="16.5842983"><ele>261.3333333333333</ele><time>2026-03-29T13:08:52.58Z</time></trkpt><trkpt lat="38.89963" lon="16.5844167"><ele>261.66666666666663</ele><time>2026-03-29T13:08:53.58Z</time></trkpt><trkpt lat="38.8997983" lon="16.584555"><ele>262.0</ele><time>2026-03-29T13:08:54.58Z</time></trkpt><trkpt lat="38.8999617" lon="16.5846517"><ele>259.3333333333333</ele><time>2026-03-29T13:08:55.58Z</time></trkpt><trkpt lat="38.9001083" lon="16.5847"><ele>256.6666666666667</ele><time>2026-03-29T13:08:56.58Z</time></trkpt><trkpt lat="38.9002617" lon="16.5847183"><ele>254.0</ele><time>2026-03-29T13:08:57.58Z</time></trkpt><trkpt lat="38.90042" lon="16.5847117"><ele>254.0</ele><time>2026-03-29T13:08:58.58Z</time></trkpt><trkpt lat="38.9005733" lon="16.5846583"><ele>254.0</ele><time>2026-03-29T13:08:59.58Z</time></trkpt><trkpt lat="38.9007233" lon="16.5845617"><ele>254.0</ele><time>2026-03-29T13:09:00.58Z</time></trkpt><trkpt lat="38.900865" lon="16.5844333"><ele>261.0</ele><time>2026-03-29T13:09:01.58Z</time></trkpt><trkpt lat="38.90101" lon="16.5842983"><ele>268.0</ele><time>2026-03-29T13:09:02.58Z</time></trkpt><trkpt lat="38.9011483" lon="16.5841567"><ele>275.0</ele><time>2026-03-29T13:09:03.58Z</time></trkpt><trkpt lat="38.9013" lon="16.5840217"><ele>275.0</ele><time>2026-03-29T13:09:04.58Z</time></trkpt><trkpt lat="38.9014517" lon="16.583885"><ele>275.0</ele><time>2026-03-29T13:09:05.58Z</time></trkpt><trkpt lat="38.901605" lon="16.5837467"><ele>275.0</ele><time>2026-03-29T13:09:06.58Z</time></trkpt><trkpt lat="38.9017667" lon="16.5836133"><ele>273.6666666666667</ele><time>2026-03-29T13:09:07.58Z</time></trkpt><trkpt lat="38.901925" lon="16.5834867"><ele>272.3333333333333</ele><time>2026-03-29T13:09:08.58Z</time></trkpt><trkpt lat="38.9021067" lon="16.5833617"><ele>271.0</ele><time>2026-03-29T13:09:09.58Z</time></trkpt><trkpt lat="38.9022617" lon="16.5832217"><ele>271.0</ele><time>2026-03-29T13:09:10.58Z</time></trkpt><trkpt lat="38.902415" lon="16.5830933"><ele>271.0</ele><time>2026-03-29T13:09:11.58Z</time></trkpt><trkpt lat="38.90256" lon="16.58296"><ele>271.0</ele><time>2026-03-29T13:09:12.58Z</time></trkpt><trkpt lat="38.902705" lon="16.5828333"><ele>276.66666666666663</ele><time>2026-03-29T13:09:13.58Z</time></trkpt><trkpt lat="38.9028467" lon="16.582705"><ele>282.3333333333333</ele><time>2026-03-29T13:09:14.58Z</time></trkpt><trkpt lat="38.903" lon="16.5825767"><ele>288.0</ele><time>2026-03-29T13:09:15.581Z</time></trkpt><trkpt lat="38.903155" lon="16.5824617"><ele>288.0</ele><time>2026-03-29T13:09:16.58Z</time></trkpt><trkpt lat="38.90331" lon="16.582345"><ele>288.0</ele><time>2026-03-29T13:09:17.58Z</time></trkpt><trkpt lat="38.90347" lon="16.582225"><ele>288.0</ele><time>2026-03-29T13:09:18.58Z</time></trkpt><trkpt lat="38.9036033" lon="16.5820833"><ele>291.6666666666667</ele><time>2026-03-29T13:09:19.58Z</time></trkpt><trkpt lat="38.90374" lon="16.58194"><ele>295.33333333333337</ele><time>2026-03-29T13:09:20.58Z</time></trkpt><trkpt lat="38.90389" lon="16.5818167"><ele>299.0</ele><time>2026-03-29T13:09:21.58Z</time></trkpt><trkpt lat="38.904035" lon="16.581685"><ele>299.0</ele><time>2026-03-29T13:09:22.58Z</time></trkpt><trkpt lat="38.90418" lon="16.58157"><ele>299.0</ele><time>2026-03-29T13:09:23.58Z</time></trkpt><trkpt lat="38.90431" lon="16.5814633"><ele>299.0</ele><time>2026-03-29T13:09:24.581Z</time></trkpt><trkpt lat="38.904425" lon="16.5813717"><ele>299.0</ele><time>2026-03-29T13:09:25.58Z</time></trkpt><trkpt lat="38.9045317" lon="16.5812967"><ele>299.0</ele><time>2026-03-29T13:09:26.58Z</time></trkpt><trkpt lat="38.9046283" lon="16.581245"><ele>299.0</ele><time>2026-03-29T13:09:27.58Z</time></trkpt><trkpt lat="38.9047167" lon="16.5812167"><ele>299.0</ele><time>2026-03-29T13:09:28.58Z</time></trkpt><trkpt lat="38.9047983" lon="16.5812017"><ele>299.0</ele><time>2026-03-29T13:09:29.58Z</time></trkpt><trkpt lat="38.9048717" lon="16.5812017"><ele>299.0</ele><time>2026-03-29T13:09:30.58Z</time></trkpt><trkpt lat="38.9049883" lon="16.5812283"><ele>299.0</ele><time>2026-03-29T13:09:32.58Z</time></trkpt><trkpt lat="38.90505" lon="16.581245"><ele>299.0</ele><time>2026-03-29T13:09:33.58Z</time></trkpt><trkpt lat="38.9051133" lon="16.58126"><ele>299.0</ele><time>2026-03-29T13:09:34.58Z</time></trkpt><trkpt lat="38.9052217" lon="16.5812367"><ele>299.0</ele><time>2026-03-29T13:09:36.58Z</time></trkpt><trkpt lat="38.9052683" lon="16.5811333"><ele>299.0</ele><time>2026-03-29T13:09:38.58Z</time></trkpt><trkpt lat="38.9052533" lon="16.581005"><ele>299.4</ele><time>2026-03-29T13:09:40.58Z</time></trkpt><trkpt lat="38.9052067" lon="16.5808667"><ele>299.79999999999995</ele><time>2026-03-29T13:09:42.58Z</time></trkpt><trkpt lat="38.90516" lon="16.5807117"><ele>300.20000000000005</ele><time>2026-03-29T13:09:44.581Z</time></trkpt><trkpt lat="38.905135" lon="16.5806133"><ele>300.6</ele><time>2026-03-29T13:09:45.58Z</time></trkpt><trkpt lat="38.90511" lon="16.580505"><ele>301.0</ele><time>2026-03-29T13:09:46.58Z</time></trkpt><trkpt lat="38.9051033" lon="16.5803833"><ele>301.8</ele><time>2026-03-29T13:09:47.58Z</time></trkpt><trkpt lat="38.905115" lon="16.5802467"><ele>302.6</ele><time>2026-03-29T13:09:48.58Z</time></trkpt><trkpt lat="38.9051333" lon="16.5801133"><ele>303.4</ele><time>2026-03-29T13:09:49.58Z</time></trkpt><trkpt lat="38.9051717" lon="16.579985"><ele>304.2</ele><time>2026-03-29T13:09:50.58Z</time></trkpt><trkpt lat="38.9052183" lon="16.5798483"><ele>305.0</ele><time>2026-03-29T13:09:51.58Z</time></trkpt><trkpt lat="38.905265" lon="16.5797117"><ele>305.0</ele><time>2026-03-29T13:09:52.58Z</time></trkpt><trkpt lat="38.9053167" lon="16.57957"><ele>305.0</ele><time>2026-03-29T13:09:53.58Z</time></trkpt><trkpt lat="38.9053467" lon="16.579435"><ele>305.0</ele><time>2026-03-29T13:09:54.58Z</time></trkpt><trkpt lat="38.905365" lon="16.579295"><ele>305.0</ele><time>2026-03-29T13:09:55.58Z</time></trkpt><trkpt lat="38.9053867" lon="16.5791533"><ele>305.33333333333337</ele><time>2026-03-29T13:09:56.58Z</time></trkpt><trkpt lat="38.9054117" lon="16.5790267"><ele>305.6666666666667</ele><time>2026-03-29T13:09:57.58Z</time></trkpt><trkpt lat="38.905435" lon="16.57892"><ele>306.0</ele><time>2026-03-29T13:09:58.58Z</time></trkpt><trkpt lat="38.9054767" lon="16.578815"><ele>306.3333333333333</ele><time>2026-03-29T13:09:59.581Z</time></trkpt><trkpt lat="38.9055233" lon="16.5787317"><ele>306.66666666666663</ele><time>2026-03-29T13:10:00.58Z</time></trkpt><trkpt lat="38.90559" lon="16.5786567"><ele>307.0</ele><time>2026-03-29T13:10:01.58Z</time></trkpt><trkpt lat="38.9056583" lon="16.5785983"><ele>307.5</ele><time>2026-03-29T13:10:02.58Z</time></trkpt><trkpt lat="38.905725" lon="16.5785517"><ele>308.0</ele><time>2026-03-29T13:10:03.58Z</time></trkpt><trkpt lat="38.9057833" lon="16.5785183"><ele>308.5</ele><time>2026-03-29T13:10:04.58Z</time></trkpt><trkpt lat="38.9058367" lon="16.5784267"><ele>309.0</ele><time>2026-03-29T13:10:06.58Z</time></trkpt><trkpt lat="38.90585" lon="16.5782867"><ele>309.5</ele><time>2026-03-29T13:10:08.58Z</time></trkpt><trkpt lat="38.905825" lon="16.5782117"><ele>310.0</ele><time>2026-03-29T13:10:09.58Z</time></trkpt><trkpt lat="38.9057883" lon="16.5781333"><ele>310.0</ele><time>2026-03-29T13:10:10.58Z</time></trkpt><trkpt lat="38.9057317" lon="16.578075"><ele>310.0</ele><time>2026-03-29T13:10:11.58Z</time></trkpt><trkpt lat="38.9056717" lon="16.57803"><ele>310.0</ele><time>2026-03-29T13:10:12.58Z</time></trkpt><trkpt lat="38.9055817" lon="16.57797"><ele>310.0</ele><time>2026-03-29T13:10:14.58Z</time></trkpt><trkpt lat="38.9055067" lon="16.5779317"><ele>310.0</ele><time>2026-03-29T13:10:17.58Z</time></trkpt><trkpt lat="38.9054333" lon="16.5778967"><ele>310.0</ele><time>2026-03-29T13:10:19.58Z</time></trkpt><trkpt lat="38.9052833" lon="16.5778017"><ele>310.5</ele><time>2026-03-29T13:10:22.58Z</time></trkpt><trkpt lat="38.9052367" lon="16.5777383"><ele>311.0</ele><time>2026-03-29T13:10:23.58Z</time></trkpt><trkpt lat="38.9052" lon="16.5776667"><ele>311.5</ele><time>2026-03-29T13:10:24.58Z</time></trkpt><trkpt lat="38.9051733" lon="16.5775883"><ele>312.0</ele><time>2026-03-29T13:10:25.58Z</time></trkpt><trkpt lat="38.9051567" lon="16.5774933"><ele>312.5</ele><time>2026-03-29T13:10:26.58Z</time></trkpt><trkpt lat="38.9051383" lon="16.5773733"><ele>313.0</ele><time>2026-03-29T13:10:27.58Z</time></trkpt><trkpt lat="38.9051267" lon="16.57723"><ele>313.0</ele><time>2026-03-29T13:10:28.58Z</time></trkpt><trkpt lat="38.9051283" lon="16.57708"><ele>313.0</ele><time>2026-03-29T13:10:29.581Z</time></trkpt><trkpt lat="38.9051467" lon="16.5769067"><ele>313.0</ele><time>2026-03-29T13:10:30.58Z</time></trkpt><trkpt lat="38.9051817" lon="16.5767367"><ele>313.0</ele><time>2026-03-29T13:10:31.58Z</time></trkpt><trkpt lat="38.90523" lon="16.5765683"><ele>311.75</ele><time>2026-03-29T13:10:32.581Z</time></trkpt><trkpt lat="38.9052933" lon="16.5764183"><ele>310.5</ele><time>2026-03-29T13:10:33.58Z</time></trkpt><trkpt lat="38.9053717" lon="16.5762683"><ele>309.25</ele><time>2026-03-29T13:10:34.58Z</time></trkpt><trkpt lat="38.9054733" lon="16.57613"><ele>308.0</ele><time>2026-03-29T13:10:35.58Z</time></trkpt><trkpt lat="38.9055983" lon="16.576015"><ele>308.0</ele><time>2026-03-29T13:10:36.58Z</time></trkpt><trkpt lat="38.9057383" lon="16.5759117"><ele>308.0</ele><time>2026-03-29T13:10:37.58Z</time></trkpt><trkpt lat="38.9058883" lon="16.57582"><ele>308.0</ele><time>2026-03-29T13:10:38.58Z</time></trkpt><trkpt lat="38.9060467" lon="16.5757433"><ele>308.0</ele><time>2026-03-29T13:10:39.581Z</time></trkpt><trkpt lat="38.9062133" lon="16.5756633"><ele>308.0</ele><time>2026-03-29T13:10:40.58Z</time></trkpt><trkpt lat="38.90638" lon="16.575575"><ele>308.0</ele><time>2026-03-29T13:10:41.581Z</time></trkpt><trkpt lat="38.9065567" lon="16.5754717"><ele>308.0</ele><time>2026-03-29T13:10:42.581Z</time></trkpt><trkpt lat="38.9067267" lon="16.5753733"><ele>308.0</ele><time>2026-03-29T13:10:43.58Z</time></trkpt><trkpt lat="38.9069" lon="16.5752683"><ele>308.0</ele><time>2026-03-29T13:10:44.58Z</time></trkpt><trkpt lat="38.9070733" lon="16.57513"><ele>305.33333333333337</ele><time>2026-03-29T13:10:45.58Z</time></trkpt><trkpt lat="38.907245" lon="16.5749767"><ele>302.6666666666667</ele><time>2026-03-29T13:10:46.58Z</time></trkpt><trkpt lat="38.9074033" lon="16.574815"><ele>300.0</ele><time>2026-03-29T13:10:47.58Z</time></trkpt><trkpt lat="38.907555" lon="16.5746383"><ele>301.0</ele><time>2026-03-29T13:10:48.58Z</time></trkpt><trkpt lat="38.90771" lon="16.5744517"><ele>302.0</ele><time>2026-03-29T13:10:49.58Z</time></trkpt><trkpt lat="38.9078533" lon="16.5742767"><ele>303.0</ele><time>2026-03-29T13:10:50.58Z</time></trkpt><trkpt lat="38.9080117" lon="16.574095"><ele>303.0</ele><time>2026-03-29T13:10:51.58Z</time></trkpt><trkpt lat="38.908165" lon="16.5739317"><ele>303.0</ele><time>2026-03-29T13:10:52.58Z</time></trkpt><trkpt lat="38.908315" lon="16.5737817"><ele>303.0</ele><time>2026-03-29T13:10:53.58Z</time></trkpt><trkpt lat="38.9084783" lon="16.5736483"><ele>306.0</ele><time>2026-03-29T13:10:54.58Z</time></trkpt><trkpt lat="38.9086467" lon="16.5735417"><ele>309.0</ele><time>2026-03-29T13:10:55.58Z</time></trkpt><trkpt lat="38.9088167" lon="16.5734533"><ele>312.0</ele><time>2026-03-29T13:10:56.58Z</time></trkpt><trkpt lat="38.9090033" lon="16.5733867"><ele>312.0</ele><time>2026-03-29T13:10:57.58Z</time></trkpt><trkpt lat="38.9091917" lon="16.5733367"><ele>312.0</ele><time>2026-03-29T13:10:58.58Z</time></trkpt><trkpt lat="38.9093967" lon="16.5733183"><ele>312.0</ele><time>2026-03-29T13:10:59.58Z</time></trkpt><trkpt lat="38.909595" lon="16.5733183"><ele>312.6666666666667</ele><time>2026-03-29T13:11:00.58Z</time></trkpt><trkpt lat="38.909805" lon="16.5733333"><ele>313.33333333333337</ele><time>2026-03-29T13:11:01.58Z</time></trkpt><trkpt lat="38.9100083" lon="16.5733683"><ele>314.0</ele><time>2026-03-29T13:11:02.58Z</time></trkpt><trkpt lat="38.9102267" lon="16.5734267"><ele>314.0</ele><time>2026-03-29T13:11:03.58Z</time></trkpt><trkpt lat="38.9104417" lon="16.5734783"><ele>314.0</ele><time>2026-03-29T13:11:04.58Z</time></trkpt><trkpt lat="38.9106517" lon="16.5735417"><ele>314.0</ele><time>2026-03-29T13:11:05.58Z</time></trkpt><trkpt lat="38.9108633" lon="16.5736017"><ele>312.0</ele><time>2026-03-29T13:11:06.58Z</time></trkpt><trkpt lat="38.911085" lon="16.5736533"><ele>310.0</ele><time>2026-03-29T13:11:07.58Z</time></trkpt><trkpt lat="38.9113167" lon="16.5737017"><ele>310.0</ele><time>2026-03-29T13:11:08.58Z</time></trkpt><trkpt lat="38.911545" lon="16.57375"><ele>310.0</ele><time>2026-03-29T13:11:09.58Z</time></trkpt><trkpt lat="38.9117733" lon="16.5738067"><ele>315.66666666666663</ele><time>2026-03-29T13:11:10.58Z</time></trkpt><trkpt lat="38.9119967" lon="16.5738633"><ele>321.3333333333333</ele><time>2026-03-29T13:11:11.58Z</time></trkpt><trkpt lat="38.9122117" lon="16.5739167"><ele>327.0</ele><time>2026-03-29T13:11:12.58Z</time></trkpt><trkpt lat="38.9124167" lon="16.5740017"><ele>326.3333333333333</ele><time>2026-03-29T13:11:13.58Z</time></trkpt><trkpt lat="38.9125933" lon="16.574115"><ele>325.66666666666663</ele><time>2026-03-29T13:11:14.581Z</time></trkpt><trkpt lat="38.9127533" lon="16.57425"><ele>325.0</ele><time>2026-03-29T13:11:15.58Z</time></trkpt><trkpt lat="38.9129017" lon="16.5744083"><ele>319.0</ele><time>2026-03-29T13:11:16.58Z</time></trkpt><trkpt lat="38.9130533" lon="16.5745783"><ele>313.0</ele><time>2026-03-29T13:11:17.58Z</time></trkpt><trkpt lat="38.9132017" lon="16.5747517"><ele>307.0</ele><time>2026-03-29T13:11:18.58Z</time></trkpt><trkpt lat="38.913355" lon="16.57492"><ele>298.66666666666663</ele><time>2026-03-29T13:11:19.58Z</time></trkpt><trkpt lat="38.9134917" lon="16.5750733"><ele>290.3333333333333</ele><time>2026-03-29T13:11:20.58Z</time></trkpt><trkpt lat="38.9136267" lon="16.57523"><ele>282.0</ele><time>2026-03-29T13:11:21.58Z</time></trkpt><trkpt lat="38.913765" lon="16.5753883"><ele>273.3333333333333</ele><time>2026-03-29T13:11:22.58Z</time></trkpt><trkpt lat="38.9139" lon="16.575535"><ele>264.66666666666663</ele><time>2026-03-29T13:11:23.58Z</time></trkpt><trkpt lat="38.9140333" lon="16.5756817"><ele>256.0</ele><time>2026-03-29T13:11:24.58Z</time></trkpt><trkpt lat="38.914165" lon="16.575835"><ele>251.0</ele><time>2026-03-29T13:11:25.58Z</time></trkpt><trkpt lat="38.914295" lon="16.5759817"><ele>246.0</ele><time>2026-03-29T13:11:26.58Z</time></trkpt><trkpt lat="38.9144283" lon="16.576125"><ele>241.0</ele><time>2026-03-29T13:11:27.58Z</time></trkpt><trkpt lat="38.9145617" lon="16.5762783"><ele>240.33333333333331</ele><time>2026-03-29T13:11:28.58Z</time></trkpt><trkpt lat="38.9147017" lon="16.5764267"><ele>239.66666666666669</ele><time>2026-03-29T13:11:29.58Z</time></trkpt><trkpt lat="38.9148317" lon="16.57657"><ele>239.0</ele><time>2026-03-29T13:11:30.58Z</time></trkpt><trkpt lat="38.9149667" lon="16.5767083"><ele>246.0</ele><time>2026-03-29T13:11:31.581Z</time></trkpt><trkpt lat="38.9150967" lon="16.5768383"><ele>253.0</ele><time>2026-03-29T13:11:32.581Z</time></trkpt><trkpt lat="38.9152117" lon="16.57697"><ele>260.0</ele><time>2026-03-29T13:11:33.58Z</time></trkpt><trkpt lat="38.9153083" lon="16.5770917"><ele>269.5</ele><time>2026-03-29T13:11:34.58Z</time></trkpt><trkpt lat="38.9154083" lon="16.5772083"><ele>279.0</ele><time>2026-03-29T13:11:35.58Z</time></trkpt><trkpt lat="38.9155117" lon="16.5773217"><ele>288.5</ele><time>2026-03-29T13:11:36.58Z</time></trkpt><trkpt lat="38.91561" lon="16.5774367"><ele>298.0</ele><time>2026-03-29T13:11:37.58Z</time></trkpt><trkpt lat="38.9157133" lon="16.57755"><ele>298.0</ele><time>2026-03-29T13:11:38.58Z</time></trkpt><trkpt lat="38.9158183" lon="16.577665"><ele>298.0</ele><time>2026-03-29T13:11:39.58Z</time></trkpt><trkpt lat="38.9159283" lon="16.5777933"><ele>298.0</ele><time>2026-03-29T13:11:40.58Z</time></trkpt><trkpt lat="38.9160417" lon="16.577915"><ele>298.0</ele><time>2026-03-29T13:11:41.58Z</time></trkpt><trkpt lat="38.916155" lon="16.57804"><ele>310.75</ele><time>2026-03-29T13:11:42.58Z</time></trkpt><trkpt lat="38.9162683" lon="16.5781633"><ele>323.5</ele><time>2026-03-29T13:11:43.58Z</time></trkpt><trkpt lat="38.9163783" lon="16.5782883"><ele>336.25</ele><time>2026-03-29T13:11:44.58Z</time></trkpt><trkpt lat="38.916495" lon="16.5784133"><ele>349.0</ele><time>2026-03-29T13:11:45.581Z</time></trkpt><trkpt lat="38.9166083" lon="16.5785333"><ele>349.0</ele><time>2026-03-29T13:11:46.58Z</time></trkpt><trkpt lat="38.9167267" lon="16.5786333"><ele>349.0</ele><time>2026-03-29T13:11:47.58Z</time></trkpt><trkpt lat="38.9168467" lon="16.5787167"><ele>349.0</ele><time>2026-03-29T13:11:48.58Z</time></trkpt><trkpt lat="38.9169767" lon="16.57878"><ele>349.0</ele><time>2026-03-29T13:11:49.58Z</time></trkpt><trkpt lat="38.9171167" lon="16.5788183"><ele>353.5</ele><time>2026-03-29T13:11:50.58Z</time></trkpt><trkpt lat="38.917255" lon="16.578845"><ele>358.0</ele><time>2026-03-29T13:11:51.58Z</time></trkpt><trkpt lat="38.9174067" lon="16.578855"><ele>362.5</ele><time>2026-03-29T13:11:52.58Z</time></trkpt><trkpt lat="38.9175617" lon="16.578865"><ele>367.0</ele><time>2026-03-29T13:11:53.58Z</time></trkpt><trkpt lat="38.9177217" lon="16.5788467"><ele>371.0</ele><time>2026-03-29T13:11:54.58Z</time></trkpt><trkpt lat="38.917895" lon="16.5788033"><ele>375.0</ele><time>2026-03-29T13:11:55.58Z</time></trkpt><trkpt lat="38.9180683" lon="16.5787733"><ele>379.0</ele><time>2026-03-29T13:11:56.58Z</time></trkpt><trkpt lat="38.918235" lon="16.57873"><ele>379.0</ele><time>2026-03-29T13:11:57.58Z</time></trkpt><trkpt lat="38.9183917" lon="16.5787017"><ele>379.0</ele><time>2026-03-29T13:11:58.58Z</time></trkpt><trkpt lat="38.9185683" lon="16.57866"><ele>379.0</ele><time>2026-03-29T13:11:59.58Z</time></trkpt><trkpt lat="38.9187517" lon="16.57861"><ele>375.3333333333333</ele><time>2026-03-29T13:12:00.58Z</time></trkpt><trkpt lat="38.9189383" lon="16.5785683"><ele>371.6666666666667</ele><time>2026-03-29T13:12:01.58Z</time></trkpt><trkpt lat="38.9191217" lon="16.5785333"><ele>368.0</ele><time>2026-03-29T13:12:02.58Z</time></trkpt><trkpt lat="38.919315" lon="16.5785133"><ele>364.6666666666667</ele><time>2026-03-29T13:12:03.58Z</time></trkpt><trkpt lat="38.9194833" lon="16.5785"><ele>361.3333333333333</ele><time>2026-03-29T13:12:04.58Z</time></trkpt><trkpt lat="38.9196483" lon="16.5785033"><ele>358.0</ele><time>2026-03-29T13:12:05.58Z</time></trkpt><trkpt lat="38.9198117" lon="16.578555"><ele>358.0</ele><time>2026-03-29T13:12:06.58Z</time></trkpt><trkpt lat="38.9199683" lon="16.5786433"><ele>358.0</ele><time>2026-03-29T13:12:07.581Z</time></trkpt><trkpt lat="38.920105" lon="16.5787567"><ele>358.0</ele><time>2026-03-29T13:12:08.58Z</time></trkpt><trkpt lat="38.920235" lon="16.5789083"><ele>361.66666666666663</ele><time>2026-03-29T13:12:09.58Z</time></trkpt><trkpt lat="38.9203517" lon="16.5791017"><ele>365.3333333333333</ele><time>2026-03-29T13:12:10.58Z</time></trkpt><trkpt lat="38.920455" lon="16.5793083"><ele>369.0</ele><time>2026-03-29T13:12:11.58Z</time></trkpt><trkpt lat="38.9205383" lon="16.579535"><ele>376.33333333333337</ele><time>2026-03-29T13:12:12.58Z</time></trkpt><trkpt lat="38.9206067" lon="16.5797617"><ele>383.6666666666667</ele><time>2026-03-29T13:12:13.58Z</time></trkpt><trkpt lat="38.920665" lon="16.58"><ele>391.0</ele><time>2026-03-29T13:12:14.58Z</time></trkpt><trkpt lat="38.9207367" lon="16.580215"><ele>393.6666666666667</ele><time>2026-03-29T13:12:15.58Z</time></trkpt><trkpt lat="38.9208433" lon="16.5804083"><ele>396.33333333333337</ele><time>2026-03-29T13:12:16.58Z</time></trkpt><trkpt lat="38.9209933" lon="16.58056"><ele>399.0</ele><time>2026-03-29T13:12:17.58Z</time></trkpt><trkpt lat="38.9211433" lon="16.58068"><ele>399.0</ele><time>2026-03-29T13:12:18.58Z</time></trkpt><trkpt lat="38.92129" lon="16.580765"><ele>399.0</ele><time>2026-03-29T13:12:19.58Z</time></trkpt><trkpt lat="38.9214433" lon="16.5808233"><ele>399.0</ele><time>2026-03-29T13:12:20.58Z</time></trkpt><trkpt lat="38.9216067" lon="16.5808367"><ele>402.0</ele><time>2026-03-29T13:12:21.58Z</time></trkpt><trkpt lat="38.9217683" lon="16.580845"><ele>405.0</ele><time>2026-03-29T13:12:22.58Z</time></trkpt><trkpt lat="38.9219317" lon="16.5808433"><ele>408.0</ele><time>2026-03-29T13:12:23.58Z</time></trkpt><trkpt lat="38.9220883" lon="16.5808433"><ele>408.0</ele><time>2026-03-29T13:12:24.58Z</time></trkpt><trkpt lat="38.9222467" lon="16.5808517"><ele>408.0</ele><time>2026-03-29T13:12:25.58Z</time></trkpt><trkpt lat="38.9224117" lon="16.5808633"><ele>408.0</ele><time>2026-03-29T13:12:26.58Z</time></trkpt><trkpt lat="38.92258" lon="16.5808683"><ele>409.66666666666663</ele><time>2026-03-29T13:12:27.58Z</time></trkpt><trkpt lat="38.9227367" lon="16.58087"><ele>411.3333333333333</ele><time>2026-03-29T13:12:28.58Z</time></trkpt><trkpt lat="38.9228917" lon="16.5808633"><ele>413.0</ele><time>2026-03-29T13:12:29.58Z</time></trkpt><trkpt lat="38.9230517" lon="16.5808633"><ele>413.0</ele><time>2026-03-29T13:12:30.58Z</time></trkpt><trkpt lat="38.9232267" lon="16.5808433"><ele>413.0</ele><time>2026-03-29T13:12:31.58Z</time></trkpt><trkpt lat="38.9233933" lon="16.5807833"><ele>413.0</ele><time>2026-03-29T13:12:32.581Z</time></trkpt><trkpt lat="38.9235417" lon="16.5806867"><ele>413.66666666666663</ele><time>2026-03-29T13:12:33.58Z</time></trkpt><trkpt lat="38.92368" lon="16.580565"><ele>414.33333333333337</ele><time>2026-03-29T13:12:34.58Z</time></trkpt><trkpt lat="38.9238133" lon="16.580445"><ele>415.0</ele><time>2026-03-29T13:12:35.58Z</time></trkpt><trkpt lat="38.9239467" lon="16.58032"><ele>417.0</ele><time>2026-03-29T13:12:36.58Z</time></trkpt><trkpt lat="38.924095" lon="16.5802017"><ele>419.0</ele><time>2026-03-29T13:12:37.58Z</time></trkpt><trkpt lat="38.9242467" lon="16.5800867"><ele>421.0</ele><time>2026-03-29T13:12:38.58Z</time></trkpt><trkpt lat="38.9244017" lon="16.5799683"><ele>435.0</ele><time>2026-03-29T13:12:39.58Z</time></trkpt><trkpt lat="38.92604" lon="16.5775083"><ele>435.0</ele><time>2026-03-29T13:12:53.578Z</time></trkpt><trkpt lat="38.9261767" lon="16.5773133"><ele>435.0</ele><time>2026-03-29T13:12:54.578Z</time></trkpt><trkpt lat="38.9263267" lon="16.5771133"><ele>435.0</ele><time>2026-03-29T13:12:55.578Z</time></trkpt><trkpt lat="38.9264717" lon="16.5769133"><ele>430.33333333333337</ele><time>2026-03-29T13:12:56.578Z</time></trkpt><trkpt lat="38.9266133" lon="16.5767467"><ele>425.6666666666667</ele><time>2026-03-29T13:12:57.578Z</time></trkpt><trkpt lat="38.9267667" lon="16.5766067"><ele>421.0</ele><time>2026-03-29T13:12:58.578Z</time></trkpt><trkpt lat="38.92694" lon="16.5765217"><ele>421.0</ele><time>2026-03-29T13:12:59.578Z</time></trkpt><trkpt lat="38.9271267" lon="16.5764633"><ele>421.0</ele><time>2026-03-29T13:13:00.578Z</time></trkpt><trkpt lat="38.9273017" lon="16.576375"><ele>421.0</ele><time>2026-03-29T13:13:01.578Z</time></trkpt><trkpt lat="38.92747" lon="16.5762767"><ele>409.6666666666667</ele><time>2026-03-29T13:13:02.578Z</time></trkpt><trkpt lat="38.92763" lon="16.57617"><ele>398.33333333333337</ele><time>2026-03-29T13:13:03.578Z</time></trkpt><trkpt lat="38.92778" lon="16.5760517"><ele>387.0</ele><time>2026-03-29T13:13:04.579Z</time></trkpt><trkpt lat="38.92797" lon="16.5759733"><ele>387.0</ele><time>2026-03-29T13:13:05.579Z</time></trkpt><trkpt lat="38.92807" lon="16.5759917"><ele>387.0</ele><time>2026-03-29T13:13:06.579Z</time></trkpt><trkpt lat="38.9281667" lon="16.5760533"><ele>387.0</ele><time>2026-03-29T13:13:07.579Z</time></trkpt><trkpt lat="38.9283667" lon="16.5764"><ele>395.5</ele><time>2026-03-29T13:13:08.579Z</time></trkpt><trkpt lat="38.928505" lon="16.5768883"><ele>404.0</ele><time>2026-03-29T13:13:09.579Z</time></trkpt><trkpt lat="38.9286717" lon="16.5773433"><ele>410.0</ele><time>2026-03-29T13:13:10.579Z</time></trkpt><trkpt lat="38.92883" lon="16.577575"><ele>416.0</ele><time>2026-03-29T13:13:11.579Z</time></trkpt><trkpt lat="38.9289867" lon="16.5777567"><ele>417.3333333333333</ele><time>2026-03-29T13:13:12.579Z</time></trkpt><trkpt lat="38.9291467" lon="16.5779283"><ele>418.66666666666663</ele><time>2026-03-29T13:13:13.579Z</time></trkpt><trkpt lat="38.9293033" lon="16.5780833"><ele>420.0</ele><time>2026-03-29T13:13:14.579Z</time></trkpt><trkpt lat="38.92946" lon="16.5782267"><ele>420.0</ele><time>2026-03-29T13:13:15.58Z</time></trkpt><trkpt lat="38.9296133" lon="16.57835"><ele>420.0</ele><time>2026-03-29T13:13:16.579Z</time></trkpt><trkpt lat="38.9297867" lon="16.5784367"><ele>420.0</ele><time>2026-03-29T13:13:17.579Z</time></trkpt><trkpt lat="38.9299717" lon="16.5784983"><ele>416.33333333333337</ele><time>2026-03-29T13:13:18.579Z</time></trkpt><trkpt lat="38.9301667" lon="16.57854"><ele>412.6666666666667</ele><time>2026-03-29T13:13:19.579Z</time></trkpt><trkpt lat="38.9303683" lon="16.57856"><ele>409.0</ele><time>2026-03-29T13:13:20.579Z</time></trkpt><trkpt lat="38.930575" lon="16.5785467"><ele>409.0</ele><time>2026-03-29T13:13:21.579Z</time></trkpt><trkpt lat="38.9307867" lon="16.5784983"><ele>409.0</ele><time>2026-03-29T13:13:22.579Z</time></trkpt><trkpt lat="38.9310183" lon="16.5784117"><ele>412.5</ele><time>2026-03-29T13:13:23.579Z</time></trkpt><trkpt lat="38.931265" lon="16.57832"><ele>416.0</ele><time>2026-03-29T13:13:24.579Z</time></trkpt><trkpt lat="38.93153" lon="16.578215"><ele>430.0</ele><time>2026-03-29T13:13:25.579Z</time></trkpt><trkpt lat="38.9317883" lon="16.578145"><ele>444.0</ele><time>2026-03-29T13:13:26.579Z</time></trkpt><trkpt lat="38.9320367" lon="16.5780867"><ele>444.0</ele><time>2026-03-29T13:13:27.579Z</time></trkpt><trkpt lat="38.9322617" lon="16.5780567"><ele>444.0</ele><time>2026-03-29T13:13:28.579Z</time></trkpt><trkpt lat="38.932495" lon="16.578055"><ele>444.0</ele><time>2026-03-29T13:13:29.579Z</time></trkpt><trkpt lat="38.9327433" lon="16.5780767"><ele>444.0</ele><time>2026-03-29T13:13:30.579Z</time></trkpt><trkpt lat="38.9330033" lon="16.5781167"><ele>444.0</ele><time>2026-03-29T13:13:31.579Z</time></trkpt><trkpt lat="38.9332583" lon="16.578175"><ele>444.0</ele><time>2026-03-29T13:13:32.579Z</time></trkpt><trkpt lat="38.93351" lon="16.5782483"><ele>444.5</ele><time>2026-03-29T13:13:33.579Z</time></trkpt><trkpt lat="38.9337617" lon="16.57834"><ele>445.0</ele><time>2026-03-29T13:13:34.579Z</time></trkpt><trkpt lat="38.9340217" lon="16.5784383"><ele>451.5</ele><time>2026-03-29T13:13:35.579Z</time></trkpt><trkpt lat="38.934275" lon="16.5785417"><ele>458.0</ele><time>2026-03-29T13:13:36.579Z</time></trkpt><trkpt lat="38.9345083" lon="16.578635"><ele>459.0</ele><time>2026-03-29T13:13:37.579Z</time></trkpt><trkpt lat="38.9347167" lon="16.5787333"><ele>460.0</ele><time>2026-03-29T13:13:38.579Z</time></trkpt><trkpt lat="38.9349233" lon="16.578835"><ele>461.0</ele><time>2026-03-29T13:13:39.579Z</time></trkpt><trkpt lat="38.9351133" lon="16.57896"><ele>461.0</ele><time>2026-03-29T13:13:40.579Z</time></trkpt><trkpt lat="38.9352917" lon="16.57909"><ele>461.0</ele><time>2026-03-29T13:13:41.579Z</time></trkpt><trkpt lat="38.9354667" lon="16.57923"><ele>461.0</ele><time>2026-03-29T13:13:42.579Z</time></trkpt><trkpt lat="38.93564" lon="16.5793567"><ele>461.0</ele><time>2026-03-29T13:13:43.58Z</time></trkpt><trkpt lat="38.9358" lon="16.5795117"><ele>461.0</ele><time>2026-03-29T13:13:44.579Z</time></trkpt><trkpt lat="38.9359283" lon="16.5797267"><ele>461.0</ele><time>2026-03-29T13:13:45.579Z</time></trkpt><trkpt lat="38.9360217" lon="16.5799367"><ele>460.0</ele><time>2026-03-29T13:13:46.579Z</time></trkpt><trkpt lat="38.936095" lon="16.580115"><ele>459.0</ele><time>2026-03-29T13:13:47.579Z</time></trkpt><trkpt lat="38.93617" lon="16.5802483"><ele>458.0</ele><time>2026-03-29T13:13:48.579Z</time></trkpt><trkpt lat="38.9362333" lon="16.580345"><ele>457.0</ele><time>2026-03-29T13:13:49.579Z</time></trkpt><trkpt lat="38.9362683" lon="16.5804267"><ele>457.00000000000006</ele><time>2026-03-29T13:13:50.579Z</time></trkpt><trkpt lat="38.93628" lon="16.58056"><ele>457.0</ele><time>2026-03-29T13:13:52.579Z</time></trkpt><trkpt lat="38.9362533" lon="16.58072"><ele>457.0</ele><time>2026-03-29T13:13:54.579Z</time></trkpt><trkpt lat="38.93626" lon="16.580815"><ele>457.0</ele><time>2026-03-29T13:13:55.579Z</time></trkpt><trkpt lat="38.9362917" lon="16.5808917"><ele>457.00000000000006</ele><time>2026-03-29T13:13:56.579Z</time></trkpt><trkpt lat="38.9363483" lon="16.5809517"><ele>457.0</ele><time>2026-03-29T13:13:57.579Z</time></trkpt><trkpt lat="38.936425" lon="16.5809683"><ele>457.00000000000006</ele><time>2026-03-29T13:13:58.579Z</time></trkpt><trkpt lat="38.9365017" lon="16.5809483"><ele>457.0</ele><time>2026-03-29T13:13:59.579Z</time></trkpt><trkpt lat="38.936575" lon="16.5808933"><ele>457.0</ele><time>2026-03-29T13:14:00.579Z</time></trkpt><trkpt lat="38.9366383" lon="16.5808217"><ele>457.0</ele><time>2026-03-29T13:14:01.579Z</time></trkpt><trkpt lat="38.9366983" lon="16.5807517"><ele>457.00000000000006</ele><time>2026-03-29T13:14:02.579Z</time></trkpt><trkpt lat="38.9367583" lon="16.5806983"><ele>457.0</ele><time>2026-03-29T13:14:03.579Z</time></trkpt><trkpt lat="38.9368333" lon="16.580655"><ele>458.6</ele><time>2026-03-29T13:14:04.579Z</time></trkpt><trkpt lat="38.9369167" lon="16.5806367"><ele>460.20000000000005</ele><time>2026-03-29T13:14:05.579Z</time></trkpt><trkpt lat="38.93702" lon="16.580635"><ele>461.8</ele><time>2026-03-29T13:14:06.579Z</time></trkpt><trkpt lat="38.937125" lon="16.5806517"><ele>463.4</ele><time>2026-03-29T13:14:07.579Z</time></trkpt><trkpt lat="38.9372217" lon="16.58067"><ele>465.0</ele><time>2026-03-29T13:14:08.579Z</time></trkpt><trkpt lat="38.9373067" lon="16.5806833"><ele>465.0</ele><time>2026-03-29T13:14:09.579Z</time></trkpt><trkpt lat="38.9373983" lon="16.5807067"><ele>465.0</ele><time>2026-03-29T13:14:10.579Z</time></trkpt><trkpt lat="38.9375017" lon="16.580725"><ele>465.0</ele><time>2026-03-29T13:14:11.579Z</time></trkpt><trkpt lat="38.93762" lon="16.5807433"><ele>465.0</ele><time>2026-03-29T13:14:12.579Z</time></trkpt><trkpt lat="38.9377317" lon="16.58076"><ele>465.0</ele><time>2026-03-29T13:14:13.579Z</time></trkpt><trkpt lat="38.937855" lon="16.5807733"><ele>469.25</ele><time>2026-03-29T13:14:14.579Z</time></trkpt><trkpt lat="38.93799" lon="16.5807667"><ele>473.5</ele><time>2026-03-29T13:14:15.579Z</time></trkpt><trkpt lat="38.93812" lon="16.5807433"><ele>477.75</ele><time>2026-03-29T13:14:16.579Z</time></trkpt><trkpt lat="38.9382383" lon="16.5806783"><ele>482.0</ele><time>2026-03-29T13:14:17.579Z</time></trkpt><trkpt lat="38.93832" lon="16.5806017"><ele>482.0</ele><time>2026-03-29T13:14:18.579Z</time></trkpt><trkpt lat="38.9383633" lon="16.5804917"><ele>482.0</ele><time>2026-03-29T13:14:19.579Z</time></trkpt><trkpt lat="38.9383767" lon="16.5803467"><ele>482.0</ele><time>2026-03-29T13:14:20.58Z</time></trkpt><trkpt lat="38.93835" lon="16.580175"><ele>482.0</ele><time>2026-03-29T13:14:21.579Z</time></trkpt><trkpt lat="38.93834" lon="16.5799767"><ele>480.0</ele><time>2026-03-29T13:14:22.579Z</time></trkpt><trkpt lat="38.9383883" lon="16.5798017"><ele>478.0</ele><time>2026-03-29T13:14:23.579Z</time></trkpt><trkpt lat="38.9384617" lon="16.5796233"><ele>476.0</ele><time>2026-03-29T13:14:24.579Z</time></trkpt><trkpt lat="38.9385433" lon="16.5794567"><ele>476.0</ele><time>2026-03-29T13:14:25.579Z</time></trkpt><trkpt lat="38.9386317" lon="16.5793233"><ele>476.0</ele><time>2026-03-29T13:14:26.579Z</time></trkpt><trkpt lat="38.938725" lon="16.57921"><ele>476.0</ele><time>2026-03-29T13:14:27.579Z</time></trkpt><trkpt lat="38.93884" lon="16.5791283"><ele>476.0</ele><time>2026-03-29T13:14:28.58Z</time></trkpt><trkpt lat="38.93898" lon="16.5790833"><ele>476.0</ele><time>2026-03-29T13:14:29.579Z</time></trkpt><trkpt lat="38.9391317" lon="16.57903"><ele>476.0</ele><time>2026-03-29T13:14:30.579Z</time></trkpt><trkpt lat="38.9392883" lon="16.57897"><ele>476.0</ele><time>2026-03-29T13:14:31.579Z</time></trkpt><trkpt lat="38.939445" lon="16.5789167"><ele>476.66666666666663</ele><time>2026-03-29T13:14:32.579Z</time></trkpt><trkpt lat="38.9396067" lon="16.5788683"><ele>477.33333333333337</ele><time>2026-03-29T13:14:33.579Z</time></trkpt><trkpt lat="38.9397583" lon="16.5788117"><ele>478.0</ele><time>2026-03-29T13:14:34.579Z</time></trkpt><trkpt lat="38.9398833" lon="16.5787533"><ele>478.0</ele><time>2026-03-29T13:14:35.579Z</time></trkpt><trkpt lat="38.9399883" lon="16.5787167"><ele>477.99999999999994</ele><time>2026-03-29T13:14:36.579Z</time></trkpt><trkpt lat="38.9400833" lon="16.57872"><ele>477.99999999999994</ele><time>2026-03-29T13:14:37.579Z</time></trkpt><trkpt lat="38.9401733" lon="16.578775"><ele>478.0</ele><time>2026-03-29T13:14:38.579Z</time></trkpt><trkpt lat="38.94025" lon="16.578865"><ele>478.0</ele><time>2026-03-29T13:14:39.58Z</time></trkpt><trkpt lat="38.94032" lon="16.5789733"><ele>477.25</ele><time>2026-03-29T13:14:40.579Z</time></trkpt><trkpt lat="38.9403867" lon="16.5790983"><ele>476.5</ele><time>2026-03-29T13:14:41.579Z</time></trkpt><trkpt lat="38.94048" lon="16.5792183"><ele>475.75</ele><time>2026-03-29T13:14:42.579Z</time></trkpt><trkpt lat="38.9405667" lon="16.57931"><ele>475.0</ele><time>2026-03-29T13:14:43.579Z</time></trkpt><trkpt lat="38.940655" lon="16.579375"><ele>475.00000000000006</ele><time>2026-03-29T13:14:44.579Z</time></trkpt><trkpt lat="38.9407333" lon="16.579425"><ele>475.0</ele><time>2026-03-29T13:14:45.579Z</time></trkpt><trkpt lat="38.940805" lon="16.5794783"><ele>475.0</ele><time>2026-03-29T13:14:46.579Z</time></trkpt><trkpt lat="38.9408817" lon="16.5795167"><ele>475.0</ele><time>2026-03-29T13:14:47.579Z</time></trkpt><trkpt lat="38.9409567" lon="16.5795233"><ele>475.00000000000006</ele><time>2026-03-29T13:14:48.579Z</time></trkpt><trkpt lat="38.9410267" lon="16.5795017"><ele>475.0</ele><time>2026-03-29T13:14:49.579Z</time></trkpt><trkpt lat="38.941095" lon="16.5794333"><ele>477.2</ele><time>2026-03-29T13:14:50.579Z</time></trkpt><trkpt lat="38.9411417" lon="16.579325"><ele>479.4</ele><time>2026-03-29T13:14:51.579Z</time></trkpt><trkpt lat="38.9411667" lon="16.5791883"><ele>481.6</ele><time>2026-03-29T13:14:52.579Z</time></trkpt><trkpt lat="38.941175" lon="16.5790383"><ele>483.8</ele><time>2026-03-29T13:14:53.579Z</time></trkpt><trkpt lat="38.94119" lon="16.578915"><ele>486.0</ele><time>2026-03-29T13:14:54.579Z</time></trkpt><trkpt lat="38.9412267" lon="16.5788117"><ele>486.0</ele><time>2026-03-29T13:14:55.579Z</time></trkpt><trkpt lat="38.941285" lon="16.5787267"><ele>486.0</ele><time>2026-03-29T13:14:56.579Z</time></trkpt><trkpt lat="38.94136" lon="16.5786517"><ele>486.0</ele><time>2026-03-29T13:14:57.58Z</time></trkpt><trkpt lat="38.9414333" lon="16.5785883"><ele>486.0</ele><time>2026-03-29T13:14:58.579Z</time></trkpt><trkpt lat="38.9415217" lon="16.5785583"><ele>486.0</ele><time>2026-03-29T13:14:59.579Z</time></trkpt><trkpt lat="38.9416067" lon="16.578545"><ele>486.0</ele><time>2026-03-29T13:15:00.579Z</time></trkpt><trkpt lat="38.941685" lon="16.5785217"><ele>484.20000000000005</ele><time>2026-03-29T13:15:01.579Z</time></trkpt><trkpt lat="38.9417683" lon="16.5785083"><ele>482.40000000000003</ele><time>2026-03-29T13:15:02.58Z</time></trkpt><trkpt lat="38.9418467" lon="16.578485"><ele>480.6</ele><time>2026-03-29T13:15:03.579Z</time></trkpt><trkpt lat="38.9419417" lon="16.57844"><ele>478.8</ele><time>2026-03-29T13:15:04.579Z</time></trkpt><trkpt lat="38.942035" lon="16.5783783"><ele>477.0</ele><time>2026-03-29T13:15:05.579Z</time></trkpt><trkpt lat="38.94212" lon="16.5783117"><ele>477.0</ele><time>2026-03-29T13:15:06.579Z</time></trkpt><trkpt lat="38.9421917" lon="16.5782517"><ele>477.0</ele><time>2026-03-29T13:15:07.579Z</time></trkpt><trkpt lat="38.942245" lon="16.578195"><ele>477.0</ele><time>2026-03-29T13:15:08.579Z</time></trkpt><trkpt lat="38.9423283" lon="16.5781467"><ele>477.0</ele><time>2026-03-29T13:15:10.579Z</time></trkpt><trkpt lat="38.9424217" lon="16.578165"><ele>477.0</ele><time>2026-03-29T13:15:12.579Z</time></trkpt><trkpt lat="38.9424833" lon="16.57822"><ele>477.0</ele><time>2026-03-29T13:15:13.579Z</time></trkpt><trkpt lat="38.9426217" lon="16.5784833"><ele>474.75</ele><time>2026-03-29T13:15:15.579Z</time></trkpt><trkpt lat="38.94272" lon="16.57864"><ele>472.5</ele><time>2026-03-29T13:15:16.579Z</time></trkpt><trkpt lat="38.9428383" lon="16.57876"><ele>470.25</ele><time>2026-03-29T13:15:17.579Z</time></trkpt><trkpt lat="38.94297" lon="16.5787967"><ele>468.0</ele><time>2026-03-29T13:15:18.579Z</time></trkpt><trkpt lat="38.9431167" lon="16.5787783"><ele>474.0</ele><time>2026-03-29T13:15:19.579Z</time></trkpt><trkpt lat="38.9432717" lon="16.5787733"><ele>480.0</ele><time>2026-03-29T13:15:20.579Z</time></trkpt><trkpt lat="38.943435" lon="16.5788133"><ele>486.0</ele><time>2026-03-29T13:15:21.579Z</time></trkpt><trkpt lat="38.9435733" lon="16.5788617"><ele>486.0</ele><time>2026-03-29T13:15:22.579Z</time></trkpt><trkpt lat="38.9436967" lon="16.5788567"><ele>486.0</ele><time>2026-03-29T13:15:23.579Z</time></trkpt><trkpt lat="38.9438233" lon="16.5787933"><ele>486.0</ele><time>2026-03-29T13:15:24.579Z</time></trkpt><trkpt lat="38.9439283" lon="16.578715"><ele>486.0</ele><time>2026-03-29T13:15:25.579Z</time></trkpt><trkpt lat="38.944035" lon="16.57867"><ele>481.0</ele><time>2026-03-29T13:15:26.579Z</time></trkpt><trkpt lat="38.9441617" lon="16.5786833"><ele>476.0</ele><time>2026-03-29T13:15:27.579Z</time></trkpt><trkpt lat="38.9442933" lon="16.5787783"><ele>471.0</ele><time>2026-03-29T13:15:28.579Z</time></trkpt><trkpt lat="38.944405" lon="16.5788933"><ele>466.0</ele><time>2026-03-29T13:15:29.578Z</time></trkpt><trkpt lat="38.94451" lon="16.5790317"><ele>466.0</ele><time>2026-03-29T13:15:30.579Z</time></trkpt><trkpt lat="38.9445767" lon="16.5792017"><ele>466.0</ele><time>2026-03-29T13:15:31.579Z</time></trkpt><trkpt lat="38.944615" lon="16.5793967"><ele>466.0</ele><time>2026-03-29T13:15:32.579Z</time></trkpt><trkpt lat="38.9446167" lon="16.5796067"><ele>469.75</ele><time>2026-03-29T13:15:33.58Z</time></trkpt><trkpt lat="38.9445883" lon="16.5798183"><ele>473.5</ele><time>2026-03-29T13:15:34.579Z</time></trkpt><trkpt lat="38.944595" lon="16.5800183"><ele>477.25</ele><time>2026-03-29T13:15:35.579Z</time></trkpt><trkpt lat="38.9446433" lon="16.5801667"><ele>481.0</ele><time>2026-03-29T13:15:36.579Z</time></trkpt><trkpt lat="38.944735" lon="16.5802517"><ele>481.0</ele><time>2026-03-29T13:15:37.579Z</time></trkpt><trkpt lat="38.9448383" lon="16.5802917"><ele>481.0</ele><time>2026-03-29T13:15:38.579Z</time></trkpt><trkpt lat="38.9449567" lon="16.5802617"><ele>481.0</ele><time>2026-03-29T13:15:39.579Z</time></trkpt><trkpt lat="38.9451083" lon="16.5801633"><ele>481.0</ele><time>2026-03-29T13:15:40.579Z</time></trkpt><trkpt lat="38.945255" lon="16.58002"><ele>481.6666666666667</ele><time>2026-03-29T13:15:41.579Z</time></trkpt><trkpt lat="38.9453883" lon="16.5798983"><ele>482.33333333333337</ele><time>2026-03-29T13:15:42.579Z</time></trkpt><trkpt lat="38.9455267" lon="16.5797967"><ele>483.0</ele><time>2026-03-29T13:15:43.579Z</time></trkpt><trkpt lat="38.94567" lon="16.579765"><ele>483.0</ele><time>2026-03-29T13:15:44.579Z</time></trkpt><trkpt lat="38.9458217" lon="16.57978"><ele>483.0</ele><time>2026-03-29T13:15:45.579Z</time></trkpt><trkpt lat="38.9459917" lon="16.5798583"><ele>483.0</ele><time>2026-03-29T13:15:46.579Z</time></trkpt><trkpt lat="38.946145" lon="16.5799867"><ele>481.33333333333337</ele><time>2026-03-29T13:15:47.579Z</time></trkpt><trkpt lat="38.9462833" lon="16.5801067"><ele>479.6666666666667</ele><time>2026-03-29T13:15:48.579Z</time></trkpt><trkpt lat="38.9463817" lon="16.5802417"><ele>478.0</ele><time>2026-03-29T13:15:49.579Z</time></trkpt><trkpt lat="38.9464517" lon="16.5804117"><ele>478.0</ele><time>2026-03-29T13:15:50.579Z</time></trkpt><trkpt lat="38.9465017" lon="16.580625"><ele>478.0</ele><time>2026-03-29T13:15:51.579Z</time></trkpt><trkpt lat="38.9465533" lon="16.580845"><ele>478.0</ele><time>2026-03-29T13:15:52.579Z</time></trkpt><trkpt lat="38.9466" lon="16.5810617"><ele>477.0</ele><time>2026-03-29T13:15:53.579Z</time></trkpt><trkpt lat="38.9466683" lon="16.5812733"><ele>476.0</ele><time>2026-03-29T13:15:54.58Z</time></trkpt><trkpt lat="38.9467533" lon="16.581485"><ele>475.0</ele><time>2026-03-29T13:15:55.579Z</time></trkpt><trkpt lat="38.9468617" lon="16.5816867"><ele>475.0</ele><time>2026-03-29T13:15:56.579Z</time></trkpt><trkpt lat="38.9469567" lon="16.581895"><ele>475.0</ele><time>2026-03-29T13:15:57.58Z</time></trkpt><trkpt lat="38.9470383" lon="16.582085"><ele>475.0</ele><time>2026-03-29T13:15:58.58Z</time></trkpt><trkpt lat="38.947115" lon="16.58225"><ele>476.33333333333337</ele><time>2026-03-29T13:15:59.579Z</time></trkpt><trkpt lat="38.9472217" lon="16.5823733"><ele>477.66666666666663</ele><time>2026-03-29T13:16:00.579Z</time></trkpt><trkpt lat="38.9473667" lon="16.5824483"><ele>479.0</ele><time>2026-03-29T13:16:01.579Z</time></trkpt><trkpt lat="38.9475567" lon="16.5824783"><ele>482.3333333333333</ele><time>2026-03-29T13:16:02.579Z</time></trkpt><trkpt lat="38.947765" lon="16.5824833"><ele>485.66666666666663</ele><time>2026-03-29T13:16:03.579Z</time></trkpt><trkpt lat="38.9480017" lon="16.5824583"><ele>489.0</ele><time>2026-03-29T13:16:04.579Z</time></trkpt><trkpt lat="38.9482317" lon="16.58242"><ele>488.66666666666663</ele><time>2026-03-29T13:16:05.579Z</time></trkpt><trkpt lat="38.9484433" lon="16.58234"><ele>488.3333333333333</ele><time>2026-03-29T13:16:06.579Z</time></trkpt><trkpt lat="38.948655" lon="16.5822567"><ele>488.0</ele><time>2026-03-29T13:16:07.579Z</time></trkpt><trkpt lat="38.9488667" lon="16.582235"><ele>488.0</ele><time>2026-03-29T13:16:08.579Z</time></trkpt><trkpt lat="38.9490117" lon="16.58219"><ele>488.0</ele><time>2026-03-29T13:16:09.58Z</time></trkpt><trkpt lat="38.94916" lon="16.582115"><ele>488.0</ele><time>2026-03-29T13:16:10.579Z</time></trkpt><trkpt lat="38.9492883" lon="16.5819867"><ele>490.66666666666663</ele><time>2026-03-29T13:16:11.579Z</time></trkpt><trkpt lat="38.9494" lon="16.5818367"><ele>493.33333333333337</ele><time>2026-03-29T13:16:12.579Z</time></trkpt><trkpt lat="38.9495133" lon="16.5817"><ele>496.0</ele><time>2026-03-29T13:16:13.579Z</time></trkpt><trkpt lat="38.9496367" lon="16.5816217"><ele>496.0</ele><time>2026-03-29T13:16:14.579Z</time></trkpt><trkpt lat="38.94977" lon="16.5815983"><ele>496.0</ele><time>2026-03-29T13:16:15.579Z</time></trkpt><trkpt lat="38.9499233" lon="16.5816267"><ele>496.0</ele><time>2026-03-29T13:16:16.579Z</time></trkpt><trkpt lat="38.95008" lon="16.5817267"><ele>498.6666666666667</ele><time>2026-03-29T13:16:17.579Z</time></trkpt><trkpt lat="38.9502417" lon="16.58188"><ele>501.33333333333337</ele><time>2026-03-29T13:16:18.579Z</time></trkpt><trkpt lat="38.9504" lon="16.5820717"><ele>504.0</ele><time>2026-03-29T13:16:19.579Z</time></trkpt><trkpt lat="38.9505667" lon="16.582235"><ele>504.5</ele><time>2026-03-29T13:16:20.579Z</time></trkpt><trkpt lat="38.9507067" lon="16.582335"><ele>505.0</ele><time>2026-03-29T13:16:21.579Z</time></trkpt><trkpt lat="38.950825" lon="16.582395"><ele>505.5</ele><time>2026-03-29T13:16:22.579Z</time></trkpt><trkpt lat="38.9509167" lon="16.58246"><ele>506.0</ele><time>2026-03-29T13:16:23.579Z</time></trkpt><trkpt lat="38.950985" lon="16.5825533"><ele>509.5</ele><time>2026-03-29T13:16:24.579Z</time></trkpt><trkpt lat="38.9510483" lon="16.582665"><ele>513.0</ele><time>2026-03-29T13:16:25.579Z</time></trkpt><trkpt lat="38.9511133" lon="16.5827867"><ele>516.5</ele><time>2026-03-29T13:16:26.579Z</time></trkpt><trkpt lat="38.9511817" lon="16.5829267"><ele>520.0</ele><time>2026-03-29T13:16:27.579Z</time></trkpt><trkpt lat="38.9512633" lon="16.5830983"><ele>520.0</ele><time>2026-03-29T13:16:28.579Z</time></trkpt><trkpt lat="38.951375" lon="16.5832733"><ele>520.0</ele><time>2026-03-29T13:16:29.579Z</time></trkpt><trkpt lat="38.951505" lon="16.5834"><ele>520.0</ele><time>2026-03-29T13:16:30.579Z</time></trkpt><trkpt lat="38.9516633" lon="16.583505"><ele>518.6666666666667</ele><time>2026-03-29T13:16:31.579Z</time></trkpt><trkpt lat="38.951855" lon="16.5835967"><ele>517.3333333333334</ele><time>2026-03-29T13:16:32.579Z</time></trkpt><trkpt lat="38.95206" lon="16.5837167"><ele>516.0</ele><time>2026-03-29T13:16:33.579Z</time></trkpt><trkpt lat="38.9522783" lon="16.5838467"><ele>516.0</ele><time>2026-03-29T13:16:34.579Z</time></trkpt><trkpt lat="38.9525233" lon="16.583975"><ele>516.0</ele><time>2026-03-29T13:16:35.579Z</time></trkpt><trkpt lat="38.9527633" lon="16.5840817"><ele>521.3333333333334</ele><time>2026-03-29T13:16:36.579Z</time></trkpt><trkpt lat="38.9529817" lon="16.5841417"><ele>526.6666666666667</ele><time>2026-03-29T13:16:37.579Z</time></trkpt><trkpt lat="38.95315" lon="16.5842167"><ele>532.0</ele><time>2026-03-29T13:16:38.579Z</time></trkpt><trkpt lat="38.9532817" lon="16.5843183"><ele>537.0</ele><time>2026-03-29T13:16:39.579Z</time></trkpt><trkpt lat="38.9534117" lon="16.5844917"><ele>542.0</ele><time>2026-03-29T13:16:40.579Z</time></trkpt><trkpt lat="38.9535383" lon="16.5847283"><ele>547.0</ele><time>2026-03-29T13:16:41.579Z</time></trkpt><trkpt lat="38.9536517" lon="16.5850067"><ele>547.0</ele><time>2026-03-29T13:16:42.579Z</time></trkpt><trkpt lat="38.9537683" lon="16.58532"><ele>547.0</ele><time>2026-03-29T13:16:43.579Z</time></trkpt><trkpt lat="38.95389" lon="16.5856367"><ele>544.0</ele><time>2026-03-29T13:16:44.579Z</time></trkpt><trkpt lat="38.9540117" lon="16.5859767"><ele>541.0</ele><time>2026-03-29T13:16:45.579Z</time></trkpt><trkpt lat="38.9541317" lon="16.5863"><ele>555.0</ele><time>2026-03-29T13:16:46.58Z</time></trkpt><trkpt lat="38.9542417" lon="16.5866067"><ele>569.0</ele><time>2026-03-29T13:16:47.579Z</time></trkpt><trkpt lat="38.9543267" lon="16.586865"><ele>569.3333333333333</ele><time>2026-03-29T13:16:48.579Z</time></trkpt><trkpt lat="38.9543967" lon="16.5870633"><ele>569.6666666666666</ele><time>2026-03-29T13:16:49.58Z</time></trkpt><trkpt lat="38.9544267" lon="16.5872417"><ele>570.0</ele><time>2026-03-29T13:16:50.579Z</time></trkpt><trkpt lat="38.954425" lon="16.5874633"><ele>570.0</ele><time>2026-03-29T13:16:51.579Z</time></trkpt><trkpt lat="38.9543933" lon="16.5877117"><ele>570.0</ele><time>2026-03-29T13:16:52.579Z</time></trkpt><trkpt lat="38.9543717" lon="16.587955"><ele>570.0</ele><time>2026-03-29T13:16:53.58Z</time></trkpt><trkpt lat="38.9543633" lon="16.58821"><ele>573.3333333333334</ele><time>2026-03-29T13:16:54.579Z</time></trkpt><trkpt lat="38.9543383" lon="16.5884633"><ele>576.6666666666667</ele><time>2026-03-29T13:16:55.579Z</time></trkpt><trkpt lat="38.9543133" lon="16.5887083"><ele>580.0</ele><time>2026-03-29T13:16:56.579Z</time></trkpt><trkpt lat="38.9542983" lon="16.5889383"><ele>579.6666666666667</ele><time>2026-03-29T13:16:57.579Z</time></trkpt><trkpt lat="38.9543167" lon="16.589175"><ele>579.3333333333334</ele><time>2026-03-29T13:16:58.579Z</time></trkpt><trkpt lat="38.95437" lon="16.58943"><ele>579.0</ele><time>2026-03-29T13:16:59.579Z</time></trkpt><trkpt lat="38.954455" lon="16.58969"><ele>579.0</ele><time>2026-03-29T13:17:00.579Z</time></trkpt><trkpt lat="38.9545667" lon="16.5899467"><ele>579.0</ele><time>2026-03-29T13:17:01.579Z</time></trkpt><trkpt lat="38.9546533" lon="16.590205"><ele>579.0</ele><time>2026-03-29T13:17:02.579Z</time></trkpt><trkpt lat="38.954695" lon="16.59044"><ele>577.0</ele><time>2026-03-29T13:17:03.579Z</time></trkpt><trkpt lat="38.95471" lon="16.5906567"><ele>575.0</ele><time>2026-03-29T13:17:04.579Z</time></trkpt><trkpt lat="38.95476" lon="16.5908633"><ele>573.0</ele><time>2026-03-29T13:17:05.579Z</time></trkpt><trkpt lat="38.95485" lon="16.5910517"><ele>575.6666666666666</ele><time>2026-03-29T13:17:06.579Z</time></trkpt><trkpt lat="38.954945" lon="16.591265"><ele>578.3333333333333</ele><time>2026-03-29T13:17:07.579Z</time></trkpt><trkpt lat="38.955015" lon="16.5915033"><ele>581.0</ele><time>2026-03-29T13:17:08.58Z</time></trkpt><trkpt lat="38.95505" lon="16.59173"><ele>581.0</ele><time>2026-03-29T13:17:09.579Z</time></trkpt><trkpt lat="38.9550767" lon="16.5919033"><ele>581.0</ele><time>2026-03-29T13:17:10.579Z</time></trkpt><trkpt lat="38.955125" lon="16.592025"><ele>581.0</ele><time>2026-03-29T13:17:11.579Z</time></trkpt><trkpt lat="38.9552033" lon="16.5920967"><ele>581.0</ele><time>2026-03-29T13:17:12.579Z</time></trkpt><trkpt lat="38.95532" lon="16.5921267"><ele>572.3333333333333</ele><time>2026-03-29T13:17:13.579Z</time></trkpt><trkpt lat="38.95547" lon="16.5921117"><ele>563.6666666666666</ele><time>2026-03-29T13:17:14.579Z</time></trkpt><trkpt lat="38.9556383" lon="16.5920717"><ele>555.0</ele><time>2026-03-29T13:17:15.579Z</time></trkpt><trkpt lat="38.95581" lon="16.592025"><ele>560.75</ele><time>2026-03-29T13:17:16.579Z</time></trkpt><trkpt lat="38.9559583" lon="16.5919633"><ele>566.5</ele><time>2026-03-29T13:17:17.579Z</time></trkpt><trkpt lat="38.9560917" lon="16.5919367"><ele>572.25</ele><time>2026-03-29T13:17:18.579Z</time></trkpt><trkpt lat="38.9562283" lon="16.59194"><ele>578.0</ele><time>2026-03-29T13:17:19.579Z</time></trkpt><trkpt lat="38.9563967" lon="16.5919433"><ele>578.0</ele><time>2026-03-29T13:17:20.579Z</time></trkpt><trkpt lat="38.9565817" lon="16.5919117"><ele>578.0</ele><time>2026-03-29T13:17:21.579Z</time></trkpt><trkpt lat="38.9568" lon="16.5918433"><ele>578.0</ele><time>2026-03-29T13:17:22.579Z</time></trkpt><trkpt lat="38.9569933" lon="16.5917833"><ele>576.0</ele><time>2026-03-29T13:17:23.579Z</time></trkpt><trkpt lat="38.9571567" lon="16.59172"><ele>574.0</ele><time>2026-03-29T13:17:24.579Z</time></trkpt><trkpt lat="38.9572817" lon="16.5916383"><ele>572.0</ele><time>2026-03-29T13:17:25.579Z</time></trkpt><trkpt lat="38.9573983" lon="16.5914867"><ele>572.0</ele><time>2026-03-29T13:17:26.579Z</time></trkpt><trkpt lat="38.957495" lon="16.59128"><ele>572.0</ele><time>2026-03-29T13:17:27.579Z</time></trkpt><trkpt lat="38.95758" lon="16.5910633"><ele>572.0</ele><time>2026-03-29T13:17:28.579Z</time></trkpt><trkpt lat="38.9576533" lon="16.59088"><ele>574.75</ele><time>2026-03-29T13:17:29.579Z</time></trkpt><trkpt lat="38.9577283" lon="16.59075"><ele>577.5</ele><time>2026-03-29T13:17:30.579Z</time></trkpt><trkpt lat="38.9578217" lon="16.5906917"><ele>580.25</ele><time>2026-03-29T13:17:31.579Z</time></trkpt><trkpt lat="38.9579283" lon="16.5906783"><ele>583.0</ele><time>2026-03-29T13:17:32.579Z</time></trkpt><trkpt lat="38.9580367" lon="16.59072"><ele>583.0</ele><time>2026-03-29T13:17:33.579Z</time></trkpt><trkpt lat="38.958155" lon="16.59081"><ele>583.0</ele><time>2026-03-29T13:17:34.579Z</time></trkpt><trkpt lat="38.95828" lon="16.5908517"><ele>583.0</ele><time>2026-03-29T13:17:35.579Z</time></trkpt><trkpt lat="38.958395" lon="16.5908417"><ele>583.0</ele><time>2026-03-29T13:17:36.579Z</time></trkpt><trkpt lat="38.958505" lon="16.5907717"><ele>580.0</ele><time>2026-03-29T13:17:37.579Z</time></trkpt><trkpt lat="38.95861" lon="16.5906467"><ele>577.0</ele><time>2026-03-29T13:17:38.579Z</time></trkpt><trkpt lat="38.9587233" lon="16.5904717"><ele>574.0</ele><time>2026-03-29T13:17:39.579Z</time></trkpt><trkpt lat="38.958865" lon="16.5902067"><ele>583.5</ele><time>2026-03-29T13:17:40.579Z</time></trkpt><trkpt lat="38.9590183" lon="16.589915"><ele>593.0</ele><time>2026-03-29T13:17:41.579Z</time></trkpt><trkpt lat="38.9591617" lon="16.5896717"><ele>588.0</ele><time>2026-03-29T13:17:42.579Z</time></trkpt><trkpt lat="38.959275" lon="16.5894633"><ele>583.0</ele><time>2026-03-29T13:17:43.579Z</time></trkpt><trkpt lat="38.959375" lon="16.5892633"><ele>578.0</ele><time>2026-03-29T13:17:44.579Z</time></trkpt><trkpt lat="38.9594617" lon="16.5890417"><ele>578.0</ele><time>2026-03-29T13:17:45.579Z</time></trkpt><trkpt lat="38.9595167" lon="16.588815"><ele>578.0</ele><time>2026-03-29T13:17:46.579Z</time></trkpt><trkpt lat="38.95954" lon="16.5886067"><ele>578.0</ele><time>2026-03-29T13:17:47.579Z</time></trkpt><trkpt lat="38.9595233" lon="16.5884067"><ele>582.0</ele><time>2026-03-29T13:17:48.579Z</time></trkpt><trkpt lat="38.9594617" lon="16.5882033"><ele>586.0</ele><time>2026-03-29T13:17:49.579Z</time></trkpt><trkpt lat="38.9593967" lon="16.5880333"><ele>590.0</ele><time>2026-03-29T13:17:50.58Z</time></trkpt><trkpt lat="38.9593467" lon="16.5878633"><ele>593.25</ele><time>2026-03-29T13:17:51.579Z</time></trkpt><trkpt lat="38.95933" lon="16.5877083"><ele>596.5</ele><time>2026-03-29T13:17:52.579Z</time></trkpt><trkpt lat="38.95936" lon="16.58757"><ele>599.75</ele><time>2026-03-29T13:17:53.579Z</time></trkpt><trkpt lat="38.959445" lon="16.5874617"><ele>603.0</ele><time>2026-03-29T13:17:54.579Z</time></trkpt><trkpt lat="38.95957" lon="16.5873667"><ele>603.0</ele><time>2026-03-29T13:17:55.579Z</time></trkpt><trkpt lat="38.9597017" lon="16.5872633"><ele>603.0</ele><time>2026-03-29T13:17:56.579Z</time></trkpt><trkpt lat="38.9598067" lon="16.5871217"><ele>603.0</ele><time>2026-03-29T13:17:57.579Z</time></trkpt><trkpt lat="38.959875" lon="16.5869683"><ele>603.0</ele><time>2026-03-29T13:17:58.579Z</time></trkpt><trkpt lat="38.959915" lon="16.5868017"><ele>605.4</ele><time>2026-03-29T13:17:59.579Z</time></trkpt><trkpt lat="38.959975" lon="16.586685"><ele>607.8</ele><time>2026-03-29T13:18:00.579Z</time></trkpt><trkpt lat="38.96006" lon="16.586625"><ele>610.2</ele><time>2026-03-29T13:18:01.579Z</time></trkpt><trkpt lat="38.9601533" lon="16.5866033"><ele>612.6</ele><time>2026-03-29T13:18:02.579Z</time></trkpt><trkpt lat="38.96029" lon="16.5866217"><ele>615.0</ele><time>2026-03-29T13:18:03.579Z</time></trkpt><trkpt lat="38.9604267" lon="16.58659"><ele>615.0</ele><time>2026-03-29T13:18:04.579Z</time></trkpt><trkpt lat="38.9605617" lon="16.5865033"><ele>615.0</ele><time>2026-03-29T13:18:05.579Z</time></trkpt><trkpt lat="38.960675" lon="16.5863583"><ele>615.0</ele><time>2026-03-29T13:18:06.579Z</time></trkpt><trkpt lat="38.9607917" lon="16.5862033"><ele>618.0</ele><time>2026-03-29T13:18:07.579Z</time></trkpt><trkpt lat="38.96092" lon="16.5860667"><ele>621.0</ele><time>2026-03-29T13:18:08.579Z</time></trkpt><trkpt lat="38.9610617" lon="16.5859833"><ele>624.0</ele><time>2026-03-29T13:18:09.579Z</time></trkpt><trkpt lat="38.96123" lon="16.5859467"><ele>624.0</ele><time>2026-03-29T13:18:10.579Z</time></trkpt><trkpt lat="38.9614117" lon="16.5859367"><ele>624.0</ele><time>2026-03-29T13:18:11.579Z</time></trkpt><trkpt lat="38.961605" lon="16.585915"><ele>624.0</ele><time>2026-03-29T13:18:12.579Z</time></trkpt><trkpt lat="38.9618" lon="16.5859167"><ele>625.0</ele><time>2026-03-29T13:18:13.579Z</time></trkpt><trkpt lat="38.9619733" lon="16.58594"><ele>626.0</ele><time>2026-03-29T13:18:14.579Z</time></trkpt><trkpt lat="38.9621133" lon="16.5859383"><ele>627.0</ele><time>2026-03-29T13:18:15.579Z</time></trkpt><trkpt lat="38.9622467" lon="16.58588"><ele>627.0</ele><time>2026-03-29T13:18:16.579Z</time></trkpt><trkpt lat="38.9623667" lon="16.585775"><ele>627.0</ele><time>2026-03-29T13:18:17.579Z</time></trkpt><trkpt lat="38.96247" lon="16.5856367"><ele>627.0</ele><time>2026-03-29T13:18:18.579Z</time></trkpt><trkpt lat="38.9625717" lon="16.5855"><ele>627.0</ele><time>2026-03-29T13:18:19.579Z</time></trkpt><trkpt lat="38.96268" lon="16.5853983"><ele>630.0</ele><time>2026-03-29T13:18:20.579Z</time></trkpt><trkpt lat="38.9628067" lon="16.5853383"><ele>633.0</ele><time>2026-03-29T13:18:21.58Z</time></trkpt><trkpt lat="38.9629317" lon="16.585305"><ele>636.0</ele><time>2026-03-29T13:18:22.579Z</time></trkpt><trkpt lat="38.9630717" lon="16.5853033"><ele>639.0</ele><time>2026-03-29T13:18:23.579Z</time></trkpt><trkpt lat="38.9632083" lon="16.5852917"><ele>639.0</ele><time>2026-03-29T13:18:24.579Z</time></trkpt><trkpt lat="38.96333" lon="16.585325"><ele>639.0</ele><time>2026-03-29T13:18:25.579Z</time></trkpt><trkpt lat="38.9634467" lon="16.585385"><ele>639.0</ele><time>2026-03-29T13:18:26.579Z</time></trkpt><trkpt lat="38.9635467" lon="16.5854867"><ele>639.0</ele><time>2026-03-29T13:18:27.579Z</time></trkpt><trkpt lat="38.9636383" lon="16.58563"><ele>643.0</ele><time>2026-03-29T13:18:28.579Z</time></trkpt><trkpt lat="38.963725" lon="16.585835"><ele>647.0</ele><time>2026-03-29T13:18:29.579Z</time></trkpt><trkpt lat="38.9638267" lon="16.5860467"><ele>651.0</ele><time>2026-03-29T13:18:30.579Z</time></trkpt><trkpt lat="38.96391" lon="16.5862417"><ele>651.0</ele><time>2026-03-29T13:18:31.579Z</time></trkpt><trkpt lat="38.9639483" lon="16.58641"><ele>651.0</ele><time>2026-03-29T13:18:32.579Z</time></trkpt><trkpt lat="38.96395" lon="16.5865717"><ele>651.0</ele><time>2026-03-29T13:18:33.579Z</time></trkpt><trkpt lat="38.9639217" lon="16.5867617"><ele>651.0</ele><time>2026-03-29T13:18:34.579Z</time></trkpt><trkpt lat="38.9639017" lon="16.586975"><ele>652.0</ele><time>2026-03-29T13:18:35.579Z</time></trkpt><trkpt lat="38.9639333" lon="16.5872217"><ele>653.0</ele><time>2026-03-29T13:18:36.579Z</time></trkpt><trkpt lat="38.9639967" lon="16.5874767"><ele>654.0</ele><time>2026-03-29T13:18:37.579Z</time></trkpt><trkpt lat="38.9640517" lon="16.5877"><ele>654.3333333333334</ele><time>2026-03-29T13:18:38.58Z</time></trkpt><trkpt lat="38.9640533" lon="16.58791"><ele>654.6666666666667</ele><time>2026-03-29T13:18:39.579Z</time></trkpt><trkpt lat="38.9640183" lon="16.588125"><ele>655.0</ele><time>2026-03-29T13:18:40.579Z</time></trkpt><trkpt lat="38.9639933" lon="16.5882983"><ele>655.0</ele><time>2026-03-29T13:18:41.579Z</time></trkpt><trkpt lat="38.96401" lon="16.5884283"><ele>655.0</ele><time>2026-03-29T13:18:42.579Z</time></trkpt><trkpt lat="38.9640917" lon="16.5885533"><ele>655.0</ele><time>2026-03-29T13:18:43.579Z</time></trkpt><trkpt lat="38.964185" lon="16.58867"><ele>655.0</ele><time>2026-03-29T13:18:44.579Z</time></trkpt><trkpt lat="38.9642533" lon="16.5888167"><ele>657.25</ele><time>2026-03-29T13:18:45.579Z</time></trkpt><trkpt lat="38.9642833" lon="16.589"><ele>659.5</ele><time>2026-03-29T13:18:46.579Z</time></trkpt><trkpt lat="38.9643" lon="16.5891967"><ele>661.75</ele><time>2026-03-29T13:18:47.579Z</time></trkpt><trkpt lat="38.964335" lon="16.5893617"><ele>664.0</ele><time>2026-03-29T13:18:48.579Z</time></trkpt><trkpt lat="38.9643917" lon="16.58951"><ele>664.0</ele><time>2026-03-29T13:18:49.579Z</time></trkpt><trkpt lat="38.9644683" lon="16.5896067"><ele>664.0</ele><time>2026-03-29T13:18:50.579Z</time></trkpt><trkpt lat="38.96456" lon="16.5896483"><ele>664.0</ele><time>2026-03-29T13:18:51.579Z</time></trkpt><trkpt lat="38.9646517" lon="16.5896283"><ele>664.0</ele><time>2026-03-29T13:18:52.579Z</time></trkpt><trkpt lat="38.9647433" lon="16.5895583"><ele>664.0</ele><time>2026-03-29T13:18:53.579Z</time></trkpt><trkpt lat="38.9648317" lon="16.5894233"><ele>664.0</ele><time>2026-03-29T13:18:54.579Z</time></trkpt><trkpt lat="38.96493" lon="16.5892233"><ele>664.0</ele><time>2026-03-29T13:18:55.579Z</time></trkpt><trkpt lat="38.96502" lon="16.5890433"><ele>664.0</ele><time>2026-03-29T13:18:56.579Z</time></trkpt><trkpt lat="38.9651033" lon="16.5889183"><ele>664.6</ele><time>2026-03-29T13:18:57.579Z</time></trkpt><trkpt lat="38.9651767" lon="16.588855"><ele>665.2</ele><time>2026-03-29T13:18:58.579Z</time></trkpt><trkpt lat="38.9652467" lon="16.5888367"><ele>665.8000000000001</ele><time>2026-03-29T13:18:59.579Z</time></trkpt><trkpt lat="38.96533" lon="16.5888467"><ele>666.4000000000001</ele><time>2026-03-29T13:19:00.58Z</time></trkpt><trkpt lat="38.9654233" lon="16.5888783"><ele>667.0</ele><time>2026-03-29T13:19:01.579Z</time></trkpt><trkpt lat="38.96552" lon="16.5889583"><ele>667.0</ele><time>2026-03-29T13:19:02.579Z</time></trkpt><trkpt lat="38.9656183" lon="16.58904"><ele>667.0</ele><time>2026-03-29T13:19:03.579Z</time></trkpt><trkpt lat="38.9657133" lon="16.5890933"><ele>667.0</ele><time>2026-03-29T13:19:04.579Z</time></trkpt><trkpt lat="38.9658017" lon="16.5891317"><ele>667.0</ele><time>2026-03-29T13:19:05.579Z</time></trkpt><trkpt lat="38.9658833" lon="16.5891617"><ele>667.0</ele><time>2026-03-29T13:19:06.579Z</time></trkpt><trkpt lat="38.9659583" lon="16.5891733"><ele>663.3333333333334</ele><time>2026-03-29T13:19:07.579Z</time></trkpt><trkpt lat="38.9660333" lon="16.5891583"><ele>659.6666666666667</ele><time>2026-03-29T13:19:08.579Z</time></trkpt><trkpt lat="38.9660933" lon="16.5891033"><ele>656.0</ele><time>2026-03-29T13:19:09.579Z</time></trkpt><trkpt lat="38.9661467" lon="16.58902"><ele>652.3333333333334</ele><time>2026-03-29T13:19:10.579Z</time></trkpt><trkpt lat="38.9661917" lon="16.5889167"><ele>648.6666666666666</ele><time>2026-03-29T13:19:11.579Z</time></trkpt><trkpt lat="38.9662267" lon="16.5888167"><ele>645.0</ele><time>2026-03-29T13:19:12.579Z</time></trkpt><trkpt lat="38.9662417" lon="16.5887317"><ele>648.0</ele><time>2026-03-29T13:19:13.579Z</time></trkpt><trkpt lat="38.9662583" lon="16.58862"><ele>651.0</ele><time>2026-03-29T13:19:15.579Z</time></trkpt><trkpt lat="38.96625" lon="16.5885333"><ele>654.0</ele><time>2026-03-29T13:19:57.58Z</time></trkpt><trkpt lat="38.9662833" lon="16.5884267"><ele>657.0</ele><time>2026-03-29T13:20:00.58Z</time></trkpt><trkpt lat="38.96633" lon="16.5882883"><ele>660.0</ele><time>2026-03-29T13:20:02.58Z</time></trkpt><trkpt lat="38.9663617" lon="16.5882067"><ele>663.0</ele><time>2026-03-29T13:20:03.58Z</time></trkpt><trkpt lat="38.9663967" lon="16.5881167"><ele>663.0</ele><time>2026-03-29T13:20:04.58Z</time></trkpt><trkpt lat="38.9664333" lon="16.58803"><ele>663.0</ele><time>2026-03-29T13:20:05.58Z</time></trkpt><trkpt lat="38.9664867" lon="16.5879433"><ele>663.0</ele><time>2026-03-29T13:20:06.58Z</time></trkpt><trkpt lat="38.9665483" lon="16.587855"><ele>663.0</ele><time>2026-03-29T13:20:07.58Z</time></trkpt><trkpt lat="38.9666217" lon="16.5877667"><ele>663.0</ele><time>2026-03-29T13:20:08.58Z</time></trkpt><trkpt lat="38.9666917" lon="16.587665"><ele>663.5</ele><time>2026-03-29T13:20:09.58Z</time></trkpt><trkpt lat="38.9667783" lon="16.58756"><ele>664.0</ele><time>2026-03-29T13:20:10.58Z</time></trkpt><trkpt lat="38.9668917" lon="16.5874417"><ele>664.5</ele><time>2026-03-29T13:20:11.58Z</time></trkpt><trkpt lat="38.9670183" lon="16.5873167"><ele>665.0</ele><time>2026-03-29T13:20:12.58Z</time></trkpt><trkpt lat="38.9671533" lon="16.5871917"><ele>665.0</ele><time>2026-03-29T13:20:13.58Z</time></trkpt><trkpt lat="38.967285" lon="16.5870567"><ele>665.0</ele><time>2026-03-29T13:20:14.58Z</time></trkpt><trkpt lat="38.9674083" lon="16.586935"><ele>665.0</ele><time>2026-03-29T13:20:15.58Z</time></trkpt><trkpt lat="38.9675183" lon="16.5868483"><ele>676.75</ele><time>2026-03-29T13:20:16.58Z</time></trkpt><trkpt lat="38.967645" lon="16.5867983"><ele>688.5</ele><time>2026-03-29T13:20:17.581Z</time></trkpt><trkpt lat="38.9678017" lon="16.586775"><ele>700.25</ele><time>2026-03-29T13:20:18.58Z</time></trkpt><trkpt lat="38.96796" lon="16.5867567"><ele>712.0</ele><time>2026-03-29T13:20:19.58Z</time></trkpt><trkpt lat="38.96811" lon="16.5867667"><ele>712.0</ele><time>2026-03-29T13:20:20.58Z</time></trkpt><trkpt lat="38.9682733" lon="16.5867917"><ele>712.0</ele><time>2026-03-29T13:20:21.58Z</time></trkpt><trkpt lat="38.9684483" lon="16.5868583"><ele>712.0</ele><time>2026-03-29T13:20:22.58Z</time></trkpt><trkpt lat="38.9686183" lon="16.5869533"><ele>698.3333333333334</ele><time>2026-03-29T13:20:23.58Z</time></trkpt><trkpt lat="38.9687867" lon="16.5870267"><ele>684.6666666666666</ele><time>2026-03-29T13:20:24.58Z</time></trkpt><trkpt lat="38.9689383" lon="16.5870417"><ele>671.0</ele><time>2026-03-29T13:20:25.58Z</time></trkpt><trkpt lat="38.96909" lon="16.587015"><ele>679.75</ele><time>2026-03-29T13:20:26.58Z</time></trkpt><trkpt lat="38.9692417" lon="16.58694"><ele>688.5</ele><time>2026-03-29T13:20:27.58Z</time></trkpt><trkpt lat="38.9693733" lon="16.58687"><ele>697.25</ele><time>2026-03-29T13:20:28.58Z</time></trkpt><trkpt lat="38.969495" lon="16.5868233"><ele>706.0</ele><time>2026-03-29T13:20:29.58Z</time></trkpt><trkpt lat="38.9696133" lon="16.58677"><ele>706.0</ele><time>2026-03-29T13:20:30.58Z</time></trkpt><trkpt lat="38.9697217" lon="16.58674"><ele>706.0</ele><time>2026-03-29T13:20:31.58Z</time></trkpt><trkpt lat="38.96983" lon="16.5867467"><ele>706.0</ele><time>2026-03-29T13:20:32.581Z</time></trkpt><trkpt lat="38.96993" lon="16.5867967"><ele>706.0</ele><time>2026-03-29T13:20:33.58Z</time></trkpt><trkpt lat="38.9700333" lon="16.586825"><ele>706.0</ele><time>2026-03-29T13:20:34.58Z</time></trkpt><trkpt lat="38.97014" lon="16.5868117"><ele>698.75</ele><time>2026-03-29T13:20:35.58Z</time></trkpt><trkpt lat="38.97024" lon="16.5867567"><ele>691.5</ele><time>2026-03-29T13:20:36.58Z</time></trkpt><trkpt lat="38.9703317" lon="16.5866683"><ele>684.25</ele><time>2026-03-29T13:20:37.58Z</time></trkpt><trkpt lat="38.9704067" lon="16.5865567"><ele>677.0</ele><time>2026-03-29T13:20:38.58Z</time></trkpt><trkpt lat="38.9704533" lon="16.586415"><ele>677.0</ele><time>2026-03-29T13:20:39.58Z</time></trkpt><trkpt lat="38.9704783" lon="16.586245"><ele>677.0</ele><time>2026-03-29T13:20:40.58Z</time></trkpt><trkpt lat="38.9704967" lon="16.5860217"><ele>677.0</ele><time>2026-03-29T13:20:41.58Z</time></trkpt><trkpt lat="38.9705283" lon="16.5857683"><ele>682.25</ele><time>2026-03-29T13:20:42.58Z</time></trkpt><trkpt lat="38.970575" lon="16.5855517"><ele>687.5</ele><time>2026-03-29T13:20:43.58Z</time></trkpt><trkpt lat="38.97063" lon="16.5854033"><ele>692.75</ele><time>2026-03-29T13:20:44.58Z</time></trkpt><trkpt lat="38.9707" lon="16.5853033"><ele>698.0</ele><time>2026-03-29T13:20:45.581Z</time></trkpt><trkpt lat="38.9708017" lon="16.5852517"><ele>696.3333333333333</ele><time>2026-03-29T13:20:46.58Z</time></trkpt><trkpt lat="38.9709317" lon="16.585245"><ele>694.6666666666666</ele><time>2026-03-29T13:20:47.58Z</time></trkpt><trkpt lat="38.9710933" lon="16.5853083"><ele>693.0</ele><time>2026-03-29T13:20:48.58Z</time></trkpt><trkpt lat="38.9712733" lon="16.585435"><ele>693.0</ele><time>2026-03-29T13:20:49.58Z</time></trkpt><trkpt lat="38.971475" lon="16.58562"><ele>693.0</ele><time>2026-03-29T13:20:50.58Z</time></trkpt><trkpt lat="38.9716317" lon="16.5857483"><ele>693.0</ele><time>2026-03-29T13:20:51.58Z</time></trkpt><trkpt lat="38.9717633" lon="16.5857567"><ele>694.5</ele><time>2026-03-29T13:20:52.58Z</time></trkpt><trkpt lat="38.9718717" lon="16.585685"><ele>696.0</ele><time>2026-03-29T13:20:53.581Z</time></trkpt><trkpt lat="38.9719417" lon="16.58553"><ele>697.5</ele><time>2026-03-29T13:20:54.58Z</time></trkpt><trkpt lat="38.9719733" lon="16.5853217"><ele>699.0</ele><time>2026-03-29T13:20:55.58Z</time></trkpt><trkpt lat="38.9719983" lon="16.5851283"><ele>699.0</ele><time>2026-03-29T13:20:56.58Z</time></trkpt><trkpt lat="38.9720383" lon="16.584985"><ele>699.0</ele><time>2026-03-29T13:20:57.58Z</time></trkpt><trkpt lat="38.972115" lon="16.5848817"><ele>699.0</ele><time>2026-03-29T13:20:58.58Z</time></trkpt><trkpt lat="38.972225" lon="16.5848233"><ele>699.0</ele><time>2026-03-29T13:20:59.58Z</time></trkpt><trkpt lat="38.9723767" lon="16.5847933"><ele>703.0</ele><time>2026-03-29T13:21:00.58Z</time></trkpt><trkpt lat="38.9725883" lon="16.5848083"><ele>707.0</ele><time>2026-03-29T13:21:01.58Z</time></trkpt><trkpt lat="38.972825" lon="16.5848533"><ele>707.0</ele><time>2026-03-29T13:21:02.58Z</time></trkpt><trkpt lat="38.9730333" lon="16.5848917"><ele>707.0</ele><time>2026-03-29T13:21:03.58Z</time></trkpt><trkpt lat="38.9732183" lon="16.5849083"><ele>707.0</ele><time>2026-03-29T13:21:04.58Z</time></trkpt><trkpt lat="38.9733817" lon="16.58486"><ele>711.0</ele><time>2026-03-29T13:21:05.58Z</time></trkpt><trkpt lat="38.9735317" lon="16.5848367"><ele>715.0</ele><time>2026-03-29T13:21:06.58Z</time></trkpt><trkpt lat="38.9736683" lon="16.5848517"><ele>719.0</ele><time>2026-03-29T13:21:07.58Z</time></trkpt><trkpt lat="38.97381" lon="16.5849367"><ele>723.0</ele><time>2026-03-29T13:21:08.58Z</time></trkpt><trkpt lat="38.973955" lon="16.585075"><ele>723.0</ele><time>2026-03-29T13:21:09.58Z</time></trkpt><trkpt lat="38.9741" lon="16.58526"><ele>723.0</ele><time>2026-03-29T13:21:10.58Z</time></trkpt><trkpt lat="38.9742283" lon="16.5854383"><ele>723.0</ele><time>2026-03-29T13:21:11.58Z</time></trkpt><trkpt lat="38.974335" lon="16.5855967"><ele>720.2</ele><time>2026-03-29T13:21:12.58Z</time></trkpt><trkpt lat="38.974435" lon="16.5857117"><ele>717.4</ele><time>2026-03-29T13:21:13.58Z</time></trkpt><trkpt lat="38.9745367" lon="16.58579"><ele>714.6</ele><time>2026-03-29T13:21:14.58Z</time></trkpt><trkpt lat="38.9746117" lon="16.585825"><ele>711.8000000000001</ele><time>2026-03-29T13:21:15.58Z</time></trkpt><trkpt lat="38.97469" lon="16.5858017"><ele>709.0</ele><time>2026-03-29T13:21:16.58Z</time></trkpt><trkpt lat="38.974755" lon="16.5857483"><ele>709.0</ele><time>2026-03-29T13:21:17.58Z</time></trkpt><trkpt lat="38.974815" lon="16.58566"><ele>709.0</ele><time>2026-03-29T13:21:18.58Z</time></trkpt><trkpt lat="38.9748567" lon="16.5855483"><ele>709.0</ele><time>2026-03-29T13:21:19.58Z</time></trkpt><trkpt lat="38.974885" lon="16.5854117"><ele>709.0</ele><time>2026-03-29T13:21:20.58Z</time></trkpt><trkpt lat="38.9748917" lon="16.5852633"><ele>709.0</ele><time>2026-03-29T13:21:21.58Z</time></trkpt><trkpt lat="38.974895" lon="16.5851333"><ele>709.1666666666667</ele><time>2026-03-29T13:21:22.58Z</time></trkpt><trkpt lat="38.974895" lon="16.5850117"><ele>709.3333333333334</ele><time>2026-03-29T13:21:23.58Z</time></trkpt><trkpt lat="38.974895" lon="16.5849017"><ele>709.5</ele><time>2026-03-29T13:21:24.58Z</time></trkpt><trkpt lat="38.9749017" lon="16.5848083"><ele>709.6666666666666</ele><time>2026-03-29T13:21:25.58Z</time></trkpt><trkpt lat="38.9749183" lon="16.5847067"><ele>709.8333333333333</ele><time>2026-03-29T13:21:26.58Z</time></trkpt><trkpt lat="38.9749367" lon="16.5845867"><ele>710.0</ele><time>2026-03-29T13:21:27.58Z</time></trkpt><trkpt lat="38.9749483" lon="16.5844333"><ele>712.75</ele><time>2026-03-29T13:21:28.58Z</time></trkpt><trkpt lat="38.97496" lon="16.5842733"><ele>715.5</ele><time>2026-03-29T13:21:29.58Z</time></trkpt><trkpt lat="38.9749983" lon="16.584095"><ele>718.25</ele><time>2026-03-29T13:21:30.58Z</time></trkpt><trkpt lat="38.975085" lon="16.5839333"><ele>721.0</ele><time>2026-03-29T13:21:31.58Z</time></trkpt><trkpt lat="38.9751917" lon="16.5837983"><ele>712.0</ele><time>2026-03-29T13:21:32.58Z</time></trkpt><trkpt lat="38.9752933" lon="16.583675"><ele>703.0</ele><time>2026-03-29T13:21:33.58Z</time></trkpt><trkpt lat="38.9753467" lon="16.5835433"><ele>694.0</ele><time>2026-03-29T13:21:34.58Z</time></trkpt><trkpt lat="38.975335" lon="16.5833883"><ele>685.0</ele><time>2026-03-29T13:21:35.58Z</time></trkpt><trkpt lat="38.97527" lon="16.5832333"><ele>685.0</ele><time>2026-03-29T13:21:36.58Z</time></trkpt><trkpt lat="38.975165" lon="16.5830917"><ele>685.0</ele><time>2026-03-29T13:21:37.58Z</time></trkpt><trkpt lat="38.9750333" lon="16.5829983"><ele>685.0</ele><time>2026-03-29T13:21:38.58Z</time></trkpt><trkpt lat="38.9748983" lon="16.5829567"><ele>685.0</ele><time>2026-03-29T13:21:39.58Z</time></trkpt><trkpt lat="38.9747833" lon="16.582895"><ele>693.0</ele><time>2026-03-29T13:21:40.58Z</time></trkpt><trkpt lat="38.9747083" lon="16.58279"><ele>701.0</ele><time>2026-03-29T13:21:41.581Z</time></trkpt><trkpt lat="38.9746667" lon="16.5826117"><ele>709.0</ele><time>2026-03-29T13:21:42.58Z</time></trkpt><trkpt lat="38.9746367" lon="16.5823917"><ele>717.0</ele><time>2026-03-29T13:21:43.58Z</time></trkpt><trkpt lat="38.97463" lon="16.5821683"><ele>720.25</ele><time>2026-03-29T13:21:44.58Z</time></trkpt><trkpt lat="38.97463" lon="16.5819767"><ele>723.5</ele><time>2026-03-29T13:21:45.58Z</time></trkpt><trkpt lat="38.974675" lon="16.58183"><ele>726.75</ele><time>2026-03-29T13:21:46.58Z</time></trkpt><trkpt lat="38.9747583" lon="16.5817133"><ele>730.0</ele><time>2026-03-29T13:21:47.581Z</time></trkpt><trkpt lat="38.9748783" lon="16.5816383"><ele>730.0</ele><time>2026-03-29T13:21:48.58Z</time></trkpt><trkpt lat="38.9749883" lon="16.5815717"><ele>730.0</ele><time>2026-03-29T13:21:49.58Z</time></trkpt><trkpt lat="38.9750683" lon="16.58146"><ele>730.0</ele><time>2026-03-29T13:21:50.58Z</time></trkpt><trkpt lat="38.9751033" lon="16.5813167"><ele>730.0</ele><time>2026-03-29T13:21:51.58Z</time></trkpt><trkpt lat="38.975105" lon="16.5811383"><ele>733.0</ele><time>2026-03-29T13:21:52.58Z</time></trkpt><trkpt lat="38.9750733" lon="16.58093"><ele>736.0</ele><time>2026-03-29T13:21:53.58Z</time></trkpt><trkpt lat="38.9750283" lon="16.58071"><ele>739.0</ele><time>2026-03-29T13:21:54.58Z</time></trkpt><trkpt lat="38.974995" lon="16.5804767"><ele>737.6666666666667</ele><time>2026-03-29T13:21:55.58Z</time></trkpt><trkpt lat="38.97493" lon="16.580245"><ele>736.3333333333334</ele><time>2026-03-29T13:21:56.58Z</time></trkpt><trkpt lat="38.97485" lon="16.580015"><ele>735.0</ele><time>2026-03-29T13:21:57.58Z</time></trkpt><trkpt lat="38.9747733" lon="16.5798167"><ele>735.0</ele><time>2026-03-29T13:21:58.58Z</time></trkpt><trkpt lat="38.9747267" lon="16.579655"><ele>735.0</ele><time>2026-03-29T13:21:59.58Z</time></trkpt><trkpt lat="38.9747417" lon="16.5794867"><ele>735.0</ele><time>2026-03-29T13:22:00.58Z</time></trkpt><trkpt lat="38.9747867" lon="16.5793033"><ele>735.0</ele><time>2026-03-29T13:22:01.58Z</time></trkpt><trkpt lat="38.9748667" lon="16.57911"><ele>735.3333333333334</ele><time>2026-03-29T13:22:02.58Z</time></trkpt><trkpt lat="38.9749617" lon="16.5789083"><ele>735.6666666666667</ele><time>2026-03-29T13:22:03.58Z</time></trkpt><trkpt lat="38.9750517" lon="16.5787483"><ele>736.0</ele><time>2026-03-29T13:22:04.58Z</time></trkpt><trkpt lat="38.9751633" lon="16.57862"><ele>749.0</ele><time>2026-03-29T13:22:05.58Z</time></trkpt><trkpt lat="38.9752783" lon="16.5785317"><ele>762.0</ele><time>2026-03-29T13:22:06.58Z</time></trkpt><trkpt lat="38.975415" lon="16.578505"><ele>775.0</ele><time>2026-03-29T13:22:07.58Z</time></trkpt><trkpt lat="38.975585" lon="16.5785817"><ele>765.0</ele><time>2026-03-29T13:22:08.58Z</time></trkpt><trkpt lat="38.9757483" lon="16.5787533"><ele>755.0</ele><time>2026-03-29T13:22:09.58Z</time></trkpt><trkpt lat="38.9759" lon="16.5788783"><ele>745.0</ele><time>2026-03-29T13:22:10.58Z</time></trkpt><trkpt lat="38.9760783" lon="16.57903"><ele>745.0</ele><time>2026-03-29T13:22:11.58Z</time></trkpt><trkpt lat="38.976265" lon="16.579125"><ele>745.0</ele><time>2026-03-29T13:22:12.58Z</time></trkpt><trkpt lat="38.9764283" lon="16.57919"><ele>745.0</ele><time>2026-03-29T13:22:13.58Z</time></trkpt><trkpt lat="38.9765667" lon="16.57924"><ele>741.75</ele><time>2026-03-29T13:22:14.58Z</time></trkpt><trkpt lat="38.9767" lon="16.5792283"><ele>738.5</ele><time>2026-03-29T13:22:15.58Z</time></trkpt><trkpt lat="38.97683" lon="16.579175"><ele>735.25</ele><time>2026-03-29T13:22:16.58Z</time></trkpt><trkpt lat="38.9769567" lon="16.579075"><ele>732.0</ele><time>2026-03-29T13:22:17.581Z</time></trkpt><trkpt lat="38.9770917" lon="16.5789367"><ele>732.0</ele><time>2026-03-29T13:22:18.58Z</time></trkpt><trkpt lat="38.9772317" lon="16.5788017"><ele>732.0</ele><time>2026-03-29T13:22:19.58Z</time></trkpt><trkpt lat="38.9773467" lon="16.57866"><ele>732.0</ele><time>2026-03-29T13:22:20.58Z</time></trkpt><trkpt lat="38.9774083" lon="16.5785133"><ele>736.75</ele><time>2026-03-29T13:22:21.58Z</time></trkpt><trkpt lat="38.977415" lon="16.578355"><ele>741.5</ele><time>2026-03-29T13:22:22.58Z</time></trkpt><trkpt lat="38.9773767" lon="16.5782217"><ele>746.25</ele><time>2026-03-29T13:22:23.58Z</time></trkpt><trkpt lat="38.9773067" lon="16.57809"><ele>751.0</ele><time>2026-03-29T13:22:24.58Z</time></trkpt><trkpt lat="38.9772367" lon="16.57797"><ele>753.0</ele><time>2026-03-29T13:22:25.58Z</time></trkpt><trkpt lat="38.9771883" lon="16.5778517"><ele>755.0</ele><time>2026-03-29T13:22:26.58Z</time></trkpt><trkpt lat="38.9771567" lon="16.57774"><ele>757.0</ele><time>2026-03-29T13:22:27.58Z</time></trkpt><trkpt lat="38.97714" lon="16.5776383"><ele>759.0</ele><time>2026-03-29T13:22:28.58Z</time></trkpt><trkpt lat="38.977135" lon="16.5775433"><ele>761.0</ele><time>2026-03-29T13:22:29.58Z</time></trkpt><trkpt lat="38.9771517" lon="16.5774517"><ele>763.0</ele><time>2026-03-29T13:22:30.58Z</time></trkpt><trkpt lat="38.9772033" lon="16.57731"><ele>763.0</ele><time>2026-03-29T13:22:32.58Z</time></trkpt><trkpt lat="38.9773133" lon="16.57727"><ele>763.0</ele><time>2026-03-29T13:22:34.58Z</time></trkpt><trkpt lat="38.9773767" lon="16.57729"><ele>763.0</ele><time>2026-03-29T13:22:35.58Z</time></trkpt><trkpt lat="38.977445" lon="16.577325"><ele>763.0</ele><time>2026-03-29T13:22:36.58Z</time></trkpt><trkpt lat="38.9775283" lon="16.5773567"><ele>763.0</ele><time>2026-03-29T13:22:37.581Z</time></trkpt><trkpt lat="38.977635" lon="16.57739"><ele>759.25</ele><time>2026-03-29T13:22:38.58Z</time></trkpt><trkpt lat="38.9777317" lon="16.5773967"><ele>755.5</ele><time>2026-03-29T13:22:39.58Z</time></trkpt><trkpt lat="38.9778433" lon="16.5773833"><ele>751.75</ele><time>2026-03-29T13:22:40.58Z</time></trkpt><trkpt lat="38.9779583" lon="16.5773333"><ele>748.0</ele><time>2026-03-29T13:22:41.58Z</time></trkpt><trkpt lat="38.9780717" lon="16.5772683"><ele>748.0</ele><time>2026-03-29T13:22:42.58Z</time></trkpt><trkpt lat="38.978175" lon="16.5771967"><ele>748.0</ele><time>2026-03-29T13:22:43.58Z</time></trkpt><trkpt lat="38.978265" lon="16.577105"><ele>748.0</ele><time>2026-03-29T13:22:44.58Z</time></trkpt><trkpt lat="38.9783167" lon="16.5770033"><ele>748.0</ele><time>2026-03-29T13:22:45.58Z</time></trkpt><trkpt lat="38.9783483" lon="16.5768983"><ele>748.0</ele><time>2026-03-29T13:22:46.58Z</time></trkpt><trkpt lat="38.9783517" lon="16.576765"><ele>745.5999999999999</ele><time>2026-03-29T13:22:47.58Z</time></trkpt><trkpt lat="38.9783483" lon="16.5766317"><ele>743.1999999999999</ele><time>2026-03-29T13:22:48.58Z</time></trkpt><trkpt lat="38.9783433" lon="16.5764833"><ele>740.8</ele><time>2026-03-29T13:22:49.58Z</time></trkpt><trkpt lat="38.9783333" lon="16.57634"><ele>738.4</ele><time>2026-03-29T13:22:50.58Z</time></trkpt><trkpt lat="38.9783367" lon="16.5762167"><ele>736.0</ele><time>2026-03-29T13:22:51.58Z</time></trkpt><trkpt lat="38.978355" lon="16.576105"><ele>736.0</ele><time>2026-03-29T13:22:52.58Z</time></trkpt><trkpt lat="38.97838" lon="16.5759833"><ele>736.0</ele><time>2026-03-29T13:22:53.58Z</time></trkpt><trkpt lat="38.978425" lon="16.5758783"><ele>736.0</ele><time>2026-03-29T13:22:54.58Z</time></trkpt><trkpt lat="38.9784983" lon="16.575775"><ele>736.0</ele><time>2026-03-29T13:22:55.58Z</time></trkpt><trkpt lat="38.9785833" lon="16.57567"><ele>736.0</ele><time>2026-03-29T13:22:56.58Z</time></trkpt><trkpt lat="38.9786683" lon="16.5755517"><ele>736.0</ele><time>2026-03-29T13:22:57.58Z</time></trkpt><trkpt lat="38.9787367" lon="16.5754267"><ele>736.0</ele><time>2026-03-29T13:22:58.58Z</time></trkpt><trkpt lat="38.978795" lon="16.57532"><ele>736.0</ele><time>2026-03-29T13:22:59.58Z</time></trkpt><trkpt lat="38.9788433" lon="16.5752183"><ele>736.0</ele><time>2026-03-29T13:23:00.58Z</time></trkpt><trkpt lat="38.97886" lon="16.575115"><ele>736.0</ele><time>2026-03-29T13:23:01.58Z</time></trkpt><trkpt lat="38.97885" lon="16.57501"><ele>736.75</ele><time>2026-03-29T13:23:02.58Z</time></trkpt><trkpt lat="38.9788117" lon="16.5749"><ele>737.5</ele><time>2026-03-29T13:23:03.58Z</time></trkpt><trkpt lat="38.9787317" lon="16.574765"><ele>738.25</ele><time>2026-03-29T13:23:04.58Z</time></trkpt><trkpt lat="38.9786167" lon="16.5746267"><ele>739.0</ele><time>2026-03-29T13:23:05.58Z</time></trkpt><trkpt lat="38.978525" lon="16.5745067"><ele>739.0</ele><time>2026-03-29T13:23:06.58Z</time></trkpt><trkpt lat="38.97847" lon="16.5744017"><ele>739.0</ele><time>2026-03-29T13:23:07.58Z</time></trkpt><trkpt lat="38.9784567" lon="16.574305"><ele>739.0</ele><time>2026-03-29T13:23:08.58Z</time></trkpt><trkpt lat="38.9784717" lon="16.574215"><ele>739.0</ele><time>2026-03-29T13:23:09.58Z</time></trkpt><trkpt lat="38.9784967" lon="16.5741117"><ele>739.0</ele><time>2026-03-29T13:23:10.58Z</time></trkpt><trkpt lat="38.978515" lon="16.5740117"><ele>739.0</ele><time>2026-03-29T13:23:11.58Z</time></trkpt><trkpt lat="38.9785133" lon="16.573905"><ele>739.0</ele><time>2026-03-29T13:23:12.58Z</time></trkpt><trkpt lat="38.9784783" lon="16.5737967"><ele>739.0</ele><time>2026-03-29T13:23:13.58Z</time></trkpt><trkpt lat="38.978405" lon="16.5736933"><ele>739.0</ele><time>2026-03-29T13:23:14.58Z</time></trkpt><trkpt lat="38.978285" lon="16.5735633"><ele>739.0</ele><time>2026-03-29T13:23:15.58Z</time></trkpt><trkpt lat="38.97816" lon="16.5734267"><ele>747.6</ele><time>2026-03-29T13:23:16.58Z</time></trkpt><trkpt lat="38.9780933" lon="16.5732933"><ele>756.2</ele><time>2026-03-29T13:23:17.58Z</time></trkpt><trkpt lat="38.97809" lon="16.5731633"><ele>764.8000000000001</ele><time>2026-03-29T13:23:18.58Z</time></trkpt><trkpt lat="38.978125" lon="16.5730383"><ele>773.4000000000001</ele><time>2026-03-29T13:23:19.58Z</time></trkpt><trkpt lat="38.9781983" lon="16.5729317"><ele>782.0</ele><time>2026-03-29T13:23:20.58Z</time></trkpt><trkpt lat="38.9783133" lon="16.572835"><ele>774.6666666666667</ele><time>2026-03-29T13:23:21.58Z</time></trkpt><trkpt lat="38.9784933" lon="16.5727567"><ele>767.3333333333334</ele><time>2026-03-29T13:23:22.58Z</time></trkpt><trkpt lat="38.978685" lon="16.5726783"><ele>760.0</ele><time>2026-03-29T13:23:23.58Z</time></trkpt><trkpt lat="38.97883" lon="16.5725833"><ele>760.0</ele><time>2026-03-29T13:23:24.58Z</time></trkpt><trkpt lat="38.9789167" lon="16.5724533"><ele>760.0</ele><time>2026-03-29T13:23:25.58Z</time></trkpt><trkpt lat="38.9789733" lon="16.5722867"><ele>760.0</ele><time>2026-03-29T13:23:26.58Z</time></trkpt><trkpt lat="38.9789767" lon="16.5720967"><ele>760.0</ele><time>2026-03-29T13:23:27.58Z</time></trkpt><trkpt lat="38.9789333" lon="16.5718917"><ele>760.5</ele><time>2026-03-29T13:23:28.58Z</time></trkpt><trkpt lat="38.9788433" lon="16.5716883"><ele>761.0</ele><time>2026-03-29T13:23:29.58Z</time></trkpt><trkpt lat="38.9787633" lon="16.5715267"><ele>761.5</ele><time>2026-03-29T13:23:30.58Z</time></trkpt><trkpt lat="38.9787067" lon="16.5714017"><ele>762.0</ele><time>2026-03-29T13:23:31.58Z</time></trkpt><trkpt lat="38.9786883" lon="16.571285"><ele>767.4000000000001</ele><time>2026-03-29T13:23:32.58Z</time></trkpt><trkpt lat="38.97869" lon="16.5711183"><ele>772.8000000000001</ele><time>2026-03-29T13:23:34.58Z</time></trkpt><trkpt lat="38.9787367" lon="16.5710583"><ele>778.2</ele><time>2026-03-29T13:23:35.58Z</time></trkpt><trkpt lat="38.9787967" lon="16.5710083"><ele>783.6</ele><time>2026-03-29T13:23:36.58Z</time></trkpt><trkpt lat="38.9789217" lon="16.5709167"><ele>789.0</ele><time>2026-03-29T13:23:38.58Z</time></trkpt><trkpt lat="38.9790267" lon="16.570875"><ele>789.0</ele><time>2026-03-29T13:23:39.58Z</time></trkpt><trkpt lat="38.97916" lon="16.5708217"><ele>789.0</ele><time>2026-03-29T13:23:40.58Z</time></trkpt><trkpt lat="38.97933" lon="16.57072"><ele>789.0</ele><time>2026-03-29T13:23:41.58Z</time></trkpt><trkpt lat="38.9795" lon="16.5705917"><ele>784.25</ele><time>2026-03-29T13:23:42.581Z</time></trkpt><trkpt lat="38.9796367" lon="16.5704833"><ele>779.5</ele><time>2026-03-29T13:23:43.58Z</time></trkpt><trkpt lat="38.9797633" lon="16.57043"><ele>774.75</ele><time>2026-03-29T13:23:44.58Z</time></trkpt><trkpt lat="38.979905" lon="16.57042"><ele>770.0</ele><time>2026-03-29T13:23:45.58Z</time></trkpt><trkpt lat="38.980035" lon="16.570415"><ele>768.5</ele><time>2026-03-29T13:23:46.58Z</time></trkpt><trkpt lat="38.9801517" lon="16.5703683"><ele>767.0</ele><time>2026-03-29T13:23:47.58Z</time></trkpt><trkpt lat="38.980245" lon="16.5702983"><ele>765.5</ele><time>2026-03-29T13:23:48.58Z</time></trkpt><trkpt lat="38.9803233" lon="16.570175"><ele>764.0</ele><time>2026-03-29T13:23:49.58Z</time></trkpt><trkpt lat="38.98037" lon="16.5699967"><ele>764.0</ele><time>2026-03-29T13:23:50.581Z</time></trkpt><trkpt lat="38.9804033" lon="16.569775"><ele>764.0</ele><time>2026-03-29T13:23:51.58Z</time></trkpt><trkpt lat="38.9804033" lon="16.5695267"><ele>764.0</ele><time>2026-03-29T13:23:52.58Z</time></trkpt><trkpt lat="38.9804067" lon="16.56933"><ele>766.75</ele><time>2026-03-29T13:23:53.58Z</time></trkpt><trkpt lat="38.9804533" lon="16.5691917"><ele>769.5</ele><time>2026-03-29T13:23:54.58Z</time></trkpt><trkpt lat="38.980545" lon="16.5690767"><ele>772.25</ele><time>2026-03-29T13:23:55.58Z</time></trkpt><trkpt lat="38.980675" lon="16.5689617"><ele>775.0</ele><time>2026-03-29T13:23:56.58Z</time></trkpt><trkpt lat="38.9808283" lon="16.568845"><ele>775.5</ele><time>2026-03-29T13:23:57.581Z</time></trkpt><trkpt lat="38.98096" lon="16.5687433"><ele>776.0</ele><time>2026-03-29T13:23:58.58Z</time></trkpt><trkpt lat="38.9810683" lon="16.5686317"><ele>776.5</ele><time>2026-03-29T13:23:59.58Z</time></trkpt><trkpt lat="38.9811567" lon="16.5684817"><ele>777.0</ele><time>2026-03-29T13:24:00.58Z</time></trkpt><trkpt lat="38.9812217" lon="16.5683"><ele>777.0</ele><time>2026-03-29T13:24:01.58Z</time></trkpt><trkpt lat="38.9812833" lon="16.5681483"><ele>777.0</ele><time>2026-03-29T13:24:02.58Z</time></trkpt><trkpt lat="38.9813567" lon="16.5680333"><ele>777.0</ele><time>2026-03-29T13:24:03.58Z</time></trkpt><trkpt lat="38.981485" lon="16.5679417"><ele>777.0</ele><time>2026-03-29T13:24:04.58Z</time></trkpt><trkpt lat="38.98162" lon="16.5678933"><ele>777.75</ele><time>2026-03-29T13:24:05.58Z</time></trkpt><trkpt lat="38.9817533" lon="16.56793"><ele>778.5</ele><time>2026-03-29T13:24:06.58Z</time></trkpt><trkpt lat="38.9818767" lon="16.5680167"><ele>779.25</ele><time>2026-03-29T13:24:07.58Z</time></trkpt><trkpt lat="38.98199" lon="16.568155"><ele>780.0</ele><time>2026-03-29T13:24:08.58Z</time></trkpt><trkpt lat="38.9820933" lon="16.5682783"><ele>780.0</ele><time>2026-03-29T13:24:09.58Z</time></trkpt><trkpt lat="38.9821883" lon="16.5683133"><ele>780.0</ele><time>2026-03-29T13:24:10.58Z</time></trkpt><trkpt lat="38.9823083" lon="16.568295"><ele>780.0</ele><time>2026-03-29T13:24:11.58Z</time></trkpt><trkpt lat="38.982425" lon="16.568235"><ele>780.0</ele><time>2026-03-29T13:24:12.58Z</time></trkpt><trkpt lat="38.98254" lon="16.56813"><ele>781.0</ele><time>2026-03-29T13:24:13.58Z</time></trkpt><trkpt lat="38.982665" lon="16.5679967"><ele>782.0</ele><time>2026-03-29T13:24:14.58Z</time></trkpt><trkpt lat="38.98278" lon="16.567875"><ele>783.0</ele><time>2026-03-29T13:24:15.58Z</time></trkpt><trkpt lat="38.9828917" lon="16.5678067"><ele>784.0</ele><time>2026-03-29T13:24:16.58Z</time></trkpt><trkpt lat="38.982995" lon="16.5677683"><ele>784.0</ele><time>2026-03-29T13:24:17.58Z</time></trkpt><trkpt lat="38.9831333" lon="16.5677867"><ele>784.0</ele><time>2026-03-29T13:24:18.58Z</time></trkpt><trkpt lat="38.9832733" lon="16.5678417"><ele>784.0</ele><time>2026-03-29T13:24:19.58Z</time></trkpt><trkpt lat="38.9834117" lon="16.5679317"><ele>784.0</ele><time>2026-03-29T13:24:20.58Z</time></trkpt><trkpt lat="38.98355" lon="16.5680467"><ele>787.5</ele><time>2026-03-29T13:24:21.58Z</time></trkpt><trkpt lat="38.983675" lon="16.56816"><ele>791.0</ele><time>2026-03-29T13:24:22.58Z</time></trkpt><trkpt lat="38.9837917" lon="16.568245"><ele>794.5</ele><time>2026-03-29T13:24:23.58Z</time></trkpt><trkpt lat="38.9838883" lon="16.568325"><ele>798.0</ele><time>2026-03-29T13:24:24.58Z</time></trkpt><trkpt lat="38.98398" lon="16.5684333"><ele>798.0</ele><time>2026-03-29T13:24:25.58Z</time></trkpt><trkpt lat="38.9840617" lon="16.5685733"><ele>798.0</ele><time>2026-03-29T13:24:26.58Z</time></trkpt><trkpt lat="38.98412" lon="16.5687467"><ele>798.0</ele><time>2026-03-29T13:24:27.58Z</time></trkpt><trkpt lat="38.98414" lon="16.56894"><ele>798.0</ele><time>2026-03-29T13:24:28.58Z</time></trkpt><trkpt lat="38.98413" lon="16.5691383"><ele>799.0</ele><time>2026-03-29T13:24:29.58Z</time></trkpt><trkpt lat="38.9840967" lon="16.569315"><ele>800.0</ele><time>2026-03-29T13:24:30.58Z</time></trkpt><trkpt lat="38.9840767" lon="16.5694683"><ele>801.0</ele><time>2026-03-29T13:24:31.581Z</time></trkpt><trkpt lat="38.9840967" lon="16.5696233"><ele>802.0</ele><time>2026-03-29T13:24:32.58Z</time></trkpt><trkpt lat="38.984165" lon="16.5697617"><ele>807.0</ele><time>2026-03-29T13:24:33.58Z</time></trkpt><trkpt lat="38.98427" lon="16.5698667"><ele>812.0</ele><time>2026-03-29T13:24:34.58Z</time></trkpt><trkpt lat="38.9844033" lon="16.5699283"><ele>817.0</ele><time>2026-03-29T13:24:35.58Z</time></trkpt><trkpt lat="38.98455" lon="16.5699567"><ele>822.0</ele><time>2026-03-29T13:24:36.58Z</time></trkpt><trkpt lat="38.9846817" lon="16.5699933"><ele>822.0</ele><time>2026-03-29T13:24:37.58Z</time></trkpt><trkpt lat="38.9848" lon="16.5700667"><ele>822.0</ele><time>2026-03-29T13:24:38.58Z</time></trkpt><trkpt lat="38.9849" lon="16.570165"><ele>822.0</ele><time>2026-03-29T13:24:39.58Z</time></trkpt><trkpt lat="38.9849867" lon="16.570295"><ele>822.0</ele><time>2026-03-29T13:24:40.58Z</time></trkpt><trkpt lat="38.98506" lon="16.5704583"><ele>825.0</ele><time>2026-03-29T13:24:41.58Z</time></trkpt><trkpt lat="38.9851467" lon="16.5706267"><ele>828.0</ele><time>2026-03-29T13:24:42.58Z</time></trkpt><trkpt lat="38.98525" lon="16.5707817"><ele>831.0</ele><time>2026-03-29T13:24:43.58Z</time></trkpt><trkpt lat="38.985355" lon="16.5709317"><ele>831.0</ele><time>2026-03-29T13:24:44.58Z</time></trkpt><trkpt lat="38.9854433" lon="16.5710617"><ele>831.0</ele><time>2026-03-29T13:24:45.58Z</time></trkpt><trkpt lat="38.98551" lon="16.571185"><ele>831.0</ele><time>2026-03-29T13:24:46.58Z</time></trkpt><trkpt lat="38.98556" lon="16.57131"><ele>831.0</ele><time>2026-03-29T13:24:47.58Z</time></trkpt><trkpt lat="38.9856083" lon="16.5714133"><ele>827.8333333333334</ele><time>2026-03-29T13:24:48.58Z</time></trkpt><trkpt lat="38.98567" lon="16.5714917"><ele>824.6666666666667</ele><time>2026-03-29T13:24:49.58Z</time></trkpt><trkpt lat="38.9857433" lon="16.5715417"><ele>821.5</ele><time>2026-03-29T13:24:50.58Z</time></trkpt><trkpt lat="38.9858117" lon="16.5715683"><ele>818.3333333333334</ele><time>2026-03-29T13:24:51.58Z</time></trkpt><trkpt lat="38.985885" lon="16.5715567"><ele>815.1666666666667</ele><time>2026-03-29T13:24:52.58Z</time></trkpt><trkpt lat="38.9859467" lon="16.5715267"><ele>812.0</ele><time>2026-03-29T13:24:53.58Z</time></trkpt><trkpt lat="38.9860217" lon="16.5714367"><ele>813.6</ele><time>2026-03-29T13:24:55.58Z</time></trkpt><trkpt lat="38.986085" lon="16.5713367"><ele>815.2</ele><time>2026-03-29T13:24:57.58Z</time></trkpt><trkpt lat="38.9861533" lon="16.571235"><ele>816.8</ele><time>2026-03-29T13:24:59.581Z</time></trkpt><trkpt lat="38.9862317" lon="16.5711217"><ele>818.4</ele><time>2026-03-29T13:25:01.581Z</time></trkpt><trkpt lat="38.986275" lon="16.571055"><ele>820.0</ele><time>2026-03-29T13:25:02.581Z</time></trkpt><trkpt lat="38.9863117" lon="16.5709817"><ele>820.0</ele><time>2026-03-29T13:25:03.581Z</time></trkpt><trkpt lat="38.9863717" lon="16.5708617"><ele>820.0</ele><time>2026-03-29T13:25:05.581Z</time></trkpt><trkpt lat="38.986435" lon="16.5707683"><ele>820.0</ele><time>2026-03-29T13:25:07.581Z</time></trkpt><trkpt lat="38.9864867" lon="16.5706683"><ele>820.0</ele><time>2026-03-29T13:25:09.581Z</time></trkpt><trkpt lat="38.9865533" lon="16.5705533"><ele>820.0</ele><time>2026-03-29T13:25:11.581Z</time></trkpt><trkpt lat="38.986615" lon="16.5704417"><ele>819.9999999999999</ele><time>2026-03-29T13:25:13.581Z</time></trkpt><trkpt lat="38.9866533" lon="16.570375"><ele>820.0</ele><time>2026-03-29T13:25:14.581Z</time></trkpt><trkpt lat="38.9867217" lon="16.5702517"><ele>820.0</ele><time>2026-03-29T13:25:16.581Z</time></trkpt><trkpt lat="38.9867833" lon="16.5701167"><ele>820.0</ele><time>2026-03-29T13:25:18.581Z</time></trkpt><trkpt lat="38.986825" lon="16.5700483"><ele>819.9999999999999</ele><time>2026-03-29T13:25:19.581Z</time></trkpt><trkpt lat="38.98687" lon="16.569985"><ele>820.0</ele><time>2026-03-29T13:25:20.581Z</time></trkpt><trkpt lat="38.986925" lon="16.5699067"><ele>819.0</ele><time>2026-03-29T13:25:21.581Z</time></trkpt><trkpt lat="38.9869733" lon="16.569835"><ele>818.0</ele><time>2026-03-29T13:25:22.581Z</time></trkpt><trkpt lat="38.987025" lon="16.5697633"><ele>817.0</ele><time>2026-03-29T13:25:23.581Z</time></trkpt><trkpt lat="38.9870767" lon="16.5696967"><ele>816.0</ele><time>2026-03-29T13:25:24.581Z</time></trkpt><trkpt lat="38.9871317" lon="16.5696283"><ele>815.0</ele><time>2026-03-29T13:25:25.581Z</time></trkpt><trkpt lat="38.9871833" lon="16.5695633"><ele>814.0</ele><time>2026-03-29T13:25:26.581Z</time></trkpt><trkpt lat="38.9872383" lon="16.5695017"><ele>813.0</ele><time>2026-03-29T13:25:27.581Z</time></trkpt><trkpt lat="38.9872883" lon="16.5694417"><ele>818.0</ele><time>2026-03-29T13:25:28.581Z</time></trkpt><trkpt lat="38.987345" lon="16.5693917"><ele>823.0</ele><time>2026-03-29T13:25:29.581Z</time></trkpt><trkpt lat="38.9874083" lon="16.5693467"><ele>828.0</ele><time>2026-03-29T13:25:30.581Z</time></trkpt><trkpt lat="38.9874767" lon="16.5693167"><ele>833.0</ele><time>2026-03-29T13:25:31.581Z</time></trkpt><trkpt lat="38.9875633" lon="16.56931"><ele>838.0</ele><time>2026-03-29T13:25:32.581Z</time></trkpt><trkpt lat="38.987665" lon="16.56933"><ele>843.0</ele><time>2026-03-29T13:25:33.581Z</time></trkpt><trkpt lat="38.9877667" lon="16.5693283"><ele>843.0</ele><time>2026-03-29T13:25:34.581Z</time></trkpt><trkpt lat="38.987875" lon="16.5693033"><ele>843.0</ele><time>2026-03-29T13:25:35.581Z</time></trkpt><trkpt lat="38.9879883" lon="16.5692833"><ele>843.0</ele><time>2026-03-29T13:25:36.581Z</time></trkpt><trkpt lat="38.9880867" lon="16.5692517"><ele>843.0</ele><time>2026-03-29T13:25:37.581Z</time></trkpt><trkpt lat="38.98818" lon="16.5692233"><ele>843.0</ele><time>2026-03-29T13:25:38.581Z</time></trkpt><trkpt lat="38.988275" lon="16.569215"><ele>840.4</ele><time>2026-03-29T13:25:39.581Z</time></trkpt><trkpt lat="38.98838" lon="16.569245"><ele>837.8</ele><time>2026-03-29T13:25:40.581Z</time></trkpt><trkpt lat="38.9884867" lon="16.5692867"><ele>835.2</ele><time>2026-03-29T13:25:41.581Z</time></trkpt><trkpt lat="38.988595" lon="16.5693033"><ele>832.6</ele><time>2026-03-29T13:25:42.581Z</time></trkpt><trkpt lat="38.9886983" lon="16.5692667"><ele>830.0</ele><time>2026-03-29T13:25:43.581Z</time></trkpt><trkpt lat="38.9887917" lon="16.5691717"><ele>830.0</ele><time>2026-03-29T13:25:44.581Z</time></trkpt><trkpt lat="38.988885" lon="16.569055"><ele>830.0</ele><time>2026-03-29T13:25:45.582Z</time></trkpt><trkpt lat="38.98901" lon="16.5689233"><ele>830.0</ele><time>2026-03-29T13:25:46.581Z</time></trkpt><trkpt lat="38.989165" lon="16.5688233"><ele>828.3333333333334</ele><time>2026-03-29T13:25:47.581Z</time></trkpt><trkpt lat="38.98934" lon="16.568755"><ele>826.6666666666667</ele><time>2026-03-29T13:25:48.581Z</time></trkpt><trkpt lat="38.989495" lon="16.568705"><ele>825.0</ele><time>2026-03-29T13:25:49.581Z</time></trkpt><trkpt lat="38.9896333" lon="16.5687067"><ele>825.0</ele><time>2026-03-29T13:25:50.581Z</time></trkpt><trkpt lat="38.9897733" lon="16.56877"><ele>825.0</ele><time>2026-03-29T13:25:51.581Z</time></trkpt><trkpt lat="38.98993" lon="16.5688217"><ele>825.0</ele><time>2026-03-29T13:25:52.581Z</time></trkpt><trkpt lat="38.9901167" lon="16.5688333"><ele>824.3333333333333</ele><time>2026-03-29T13:25:53.581Z</time></trkpt><trkpt lat="38.9903183" lon="16.5688"><ele>823.6666666666666</ele><time>2026-03-29T13:25:54.581Z</time></trkpt><trkpt lat="38.99051" lon="16.5687617"><ele>823.0</ele><time>2026-03-29T13:25:55.581Z</time></trkpt><trkpt lat="38.9906717" lon="16.5687633"><ele>823.0</ele><time>2026-03-29T13:25:56.581Z</time></trkpt><trkpt lat="38.9908033" lon="16.5687617"><ele>823.0</ele><time>2026-03-29T13:25:57.581Z</time></trkpt><trkpt lat="38.99091" lon="16.56874"><ele>823.0</ele><time>2026-03-29T13:25:58.581Z</time></trkpt><trkpt lat="38.990985" lon="16.5686717"><ele>823.0</ele><time>2026-03-29T13:25:59.581Z</time></trkpt><trkpt lat="38.9910433" lon="16.5685383"><ele>824.25</ele><time>2026-03-29T13:26:00.581Z</time></trkpt><trkpt lat="38.9910667" lon="16.5683633"><ele>825.5</ele><time>2026-03-29T13:26:01.581Z</time></trkpt><trkpt lat="38.9910333" lon="16.568175"><ele>826.75</ele><time>2026-03-29T13:26:02.581Z</time></trkpt><trkpt lat="38.9909583" lon="16.5680033"><ele>828.0</ele><time>2026-03-29T13:26:03.582Z</time></trkpt><trkpt lat="38.99088" lon="16.56786"><ele>828.0</ele><time>2026-03-29T13:26:04.581Z</time></trkpt><trkpt lat="38.990825" lon="16.567745"><ele>828.0</ele><time>2026-03-29T13:26:05.581Z</time></trkpt><trkpt lat="38.9908167" lon="16.5676383"><ele>828.0</ele><time>2026-03-29T13:26:06.581Z</time></trkpt><trkpt lat="38.9908233" lon="16.5675483"><ele>828.0</ele><time>2026-03-29T13:26:07.581Z</time></trkpt><trkpt lat="38.9908583" lon="16.5674733"><ele>828.0</ele><time>2026-03-29T13:26:08.581Z</time></trkpt><trkpt lat="38.9909483" lon="16.56744"><ele>828.0</ele><time>2026-03-29T13:26:09.581Z</time></trkpt><trkpt lat="38.9911033" lon="16.5674067"><ele>828.0</ele><time>2026-03-29T13:26:10.581Z</time></trkpt><trkpt lat="38.9913067" lon="16.56734"><ele>828.0</ele><time>2026-03-29T13:26:11.581Z</time></trkpt><trkpt lat="38.9915583" lon="16.5672333"><ele>828.6666666666667</ele><time>2026-03-29T13:26:12.581Z</time></trkpt><trkpt lat="38.99178" lon="16.56712"><ele>829.3333333333334</ele><time>2026-03-29T13:26:13.581Z</time></trkpt><trkpt lat="38.99197" lon="16.5670333"><ele>830.0</ele><time>2026-03-29T13:26:14.581Z</time></trkpt><trkpt lat="38.992165" lon="16.5670117"><ele>830.0</ele><time>2026-03-29T13:26:15.581Z</time></trkpt><trkpt lat="38.9923433" lon="16.5670517"><ele>830.0</ele><time>2026-03-29T13:26:16.581Z</time></trkpt><trkpt lat="38.9925167" lon="16.567145"><ele>830.0</ele><time>2026-03-29T13:26:17.581Z</time></trkpt><trkpt lat="38.992665" lon="16.5672367"><ele>830.0</ele><time>2026-03-29T13:26:18.581Z</time></trkpt><trkpt lat="38.9928" lon="16.5673083"><ele>830.0</ele><time>2026-03-29T13:26:19.581Z</time></trkpt><trkpt lat="38.99293" lon="16.5673417"><ele>830.0</ele><time>2026-03-29T13:26:20.581Z</time></trkpt><trkpt lat="38.9930767" lon="16.5673633"><ele>830.0</ele><time>2026-03-29T13:26:21.581Z</time></trkpt><trkpt lat="38.9932467" lon="16.5673617"><ele>827.0</ele><time>2026-03-29T13:26:22.581Z</time></trkpt><trkpt lat="38.99342" lon="16.5673583"><ele>824.0</ele><time>2026-03-29T13:26:23.581Z</time></trkpt><trkpt lat="38.993575" lon="16.5673517"><ele>821.0</ele><time>2026-03-29T13:26:24.581Z</time></trkpt><trkpt lat="38.9937117" lon="16.5673533"><ele>821.0000000000001</ele><time>2026-03-29T13:26:25.581Z</time></trkpt><trkpt lat="38.993815" lon="16.5673433"><ele>821.0</ele><time>2026-03-29T13:26:26.581Z</time></trkpt><trkpt lat="38.9939033" lon="16.5673383"><ele>821.0</ele><time>2026-03-29T13:26:27.581Z</time></trkpt><trkpt lat="38.99398" lon="16.5673333"><ele>821.0</ele><time>2026-03-29T13:26:28.581Z</time></trkpt><trkpt lat="38.994045" lon="16.5673167"><ele>821.0000000000001</ele><time>2026-03-29T13:26:29.581Z</time></trkpt><trkpt lat="38.9941067" lon="16.5672833"><ele>821.0</ele><time>2026-03-29T13:26:30.581Z</time></trkpt><trkpt lat="38.99417" lon="16.567245"><ele>820.1666666666667</ele><time>2026-03-29T13:26:31.581Z</time></trkpt><trkpt lat="38.994235" lon="16.567195"><ele>819.3333333333334</ele><time>2026-03-29T13:26:32.581Z</time></trkpt><trkpt lat="38.994305" lon="16.56715"><ele>818.5</ele><time>2026-03-29T13:26:33.581Z</time></trkpt><trkpt lat="38.9943833" lon="16.56711"><ele>817.6666666666667</ele><time>2026-03-29T13:26:34.581Z</time></trkpt><trkpt lat="38.9944667" lon="16.5671"><ele>816.8333333333334</ele><time>2026-03-29T13:26:35.581Z</time></trkpt><trkpt lat="38.99457" lon="16.56712"><ele>816.0</ele><time>2026-03-29T13:26:36.582Z</time></trkpt><trkpt lat="38.9946783" lon="16.567155"><ele>816.0</ele><time>2026-03-29T13:26:37.581Z</time></trkpt><trkpt lat="38.9947883" lon="16.5671617"><ele>816.0</ele><time>2026-03-29T13:26:38.581Z</time></trkpt><trkpt lat="38.9949017" lon="16.5671333"><ele>816.0</ele><time>2026-03-29T13:26:39.581Z</time></trkpt><trkpt lat="38.99502" lon="16.5670583"><ele>816.0</ele><time>2026-03-29T13:26:40.581Z</time></trkpt><trkpt lat="38.9951383" lon="16.5669517"><ele>818.0</ele><time>2026-03-29T13:26:41.581Z</time></trkpt><trkpt lat="38.995235" lon="16.5668083"><ele>820.0</ele><time>2026-03-29T13:26:42.581Z</time></trkpt><trkpt lat="38.9953517" lon="16.5666267"><ele>822.0</ele><time>2026-03-29T13:26:43.581Z</time></trkpt><trkpt lat="38.9954583" lon="16.5664217"><ele>827.3333333333333</ele><time>2026-03-29T13:26:44.581Z</time></trkpt><trkpt lat="38.9955567" lon="16.56619"><ele>832.6666666666666</ele><time>2026-03-29T13:26:45.581Z</time></trkpt><trkpt lat="38.99565" lon="16.5659833"><ele>838.0</ele><time>2026-03-29T13:26:46.581Z</time></trkpt><trkpt lat="38.995745" lon="16.5657967"><ele>836.6666666666666</ele><time>2026-03-29T13:26:47.581Z</time></trkpt><trkpt lat="38.9958483" lon="16.5656517"><ele>835.3333333333333</ele><time>2026-03-29T13:26:48.581Z</time></trkpt><trkpt lat="38.99598" lon="16.5655383"><ele>834.0</ele><time>2026-03-29T13:26:49.581Z</time></trkpt><trkpt lat="38.9961367" lon="16.5654483"><ele>834.0</ele><time>2026-03-29T13:26:50.581Z</time></trkpt><trkpt lat="38.9963017" lon="16.5654"><ele>834.0</ele><time>2026-03-29T13:26:51.581Z</time></trkpt><trkpt lat="38.9964917" lon="16.565405"><ele>834.0</ele><time>2026-03-29T13:26:52.581Z</time></trkpt><trkpt lat="38.9967067" lon="16.5654517"><ele>835.5</ele><time>2026-03-29T13:26:53.581Z</time></trkpt><trkpt lat="38.9969517" lon="16.5655367"><ele>837.0</ele><time>2026-03-29T13:26:54.581Z</time></trkpt><trkpt lat="38.9971933" lon="16.5656083"><ele>837.0</ele><time>2026-03-29T13:26:55.581Z</time></trkpt><trkpt lat="38.9974067" lon="16.5656333"><ele>837.0</ele><time>2026-03-29T13:26:56.581Z</time></trkpt><trkpt lat="38.9975983" lon="16.5656"><ele>837.0</ele><time>2026-03-29T13:26:57.581Z</time></trkpt><trkpt lat="38.9977967" lon="16.5655117"><ele>840.0</ele><time>2026-03-29T13:26:58.581Z</time></trkpt><trkpt lat="38.9979833" lon="16.5653667"><ele>843.0</ele><time>2026-03-29T13:26:59.582Z</time></trkpt><trkpt lat="38.99817" lon="16.5651767"><ele>850.0</ele><time>2026-03-29T13:27:00.581Z</time></trkpt><trkpt lat="38.9983517" lon="16.5649833"><ele>857.0</ele><time>2026-03-29T13:27:01.581Z</time></trkpt><trkpt lat="38.9985267" lon="16.5648033"><ele>857.0</ele><time>2026-03-29T13:27:02.581Z</time></trkpt><trkpt lat="38.9986933" lon="16.56466"><ele>857.0</ele><time>2026-03-29T13:27:03.581Z</time></trkpt><trkpt lat="38.998845" lon="16.5645717"><ele>857.0</ele><time>2026-03-29T13:27:04.581Z</time></trkpt><trkpt lat="38.9989883" lon="16.5645333"><ele>857.0</ele><time>2026-03-29T13:27:05.581Z</time></trkpt><trkpt lat="38.9991283" lon="16.56455"><ele>857.0</ele><time>2026-03-29T13:27:06.581Z</time></trkpt><trkpt lat="38.9992467" lon="16.5646367"><ele>857.0</ele><time>2026-03-29T13:27:07.581Z</time></trkpt><trkpt lat="38.9993467" lon="16.5647333"><ele>857.0</ele><time>2026-03-29T13:27:08.582Z</time></trkpt><trkpt lat="38.99943" lon="16.56482"><ele>859.4000000000001</ele><time>2026-03-29T13:27:09.581Z</time></trkpt><trkpt lat="38.9995217" lon="16.5648983"><ele>861.8000000000001</ele><time>2026-03-29T13:27:10.581Z</time></trkpt><trkpt lat="38.9996033" lon="16.5649567"><ele>864.2</ele><time>2026-03-29T13:27:11.581Z</time></trkpt><trkpt lat="38.9996883" lon="16.565"><ele>866.6</ele><time>2026-03-29T13:27:12.581Z</time></trkpt><trkpt lat="38.9997583" lon="16.5650283"><ele>869.0</ele><time>2026-03-29T13:27:13.581Z</time></trkpt><trkpt lat="38.9998417" lon="16.5650333"><ele>869.0</ele><time>2026-03-29T13:27:14.581Z</time></trkpt><trkpt lat="38.9999333" lon="16.56503"><ele>869.0</ele><time>2026-03-29T13:27:15.581Z</time></trkpt><trkpt lat="39.0000383" lon="16.5650083"><ele>869.0</ele><time>2026-03-29T13:27:16.581Z</time></trkpt><trkpt lat="39.0001733" lon="16.5649617"><ele>869.0</ele><time>2026-03-29T13:27:17.581Z</time></trkpt><trkpt lat="39.0003133" lon="16.5649233"><ele>869.0</ele><time>2026-03-29T13:27:18.581Z</time></trkpt><trkpt lat="39.000455" lon="16.56489"><ele>869.0</ele><time>2026-03-29T13:27:19.581Z</time></trkpt><trkpt lat="39.0005883" lon="16.56487"><ele>869.0</ele><time>2026-03-29T13:27:20.581Z</time></trkpt><trkpt lat="39.0007333" lon="16.564875"><ele>869.0</ele><time>2026-03-29T13:27:21.581Z</time></trkpt><trkpt lat="39.00088" lon="16.5649017"><ele>872.3333333333334</ele><time>2026-03-29T13:27:22.581Z</time></trkpt><trkpt lat="39.0010383" lon="16.5649867"><ele>875.6666666666667</ele><time>2026-03-29T13:27:23.581Z</time></trkpt><trkpt lat="39.0012033" lon="16.56509"><ele>879.0</ele><time>2026-03-29T13:27:24.581Z</time></trkpt><trkpt lat="39.0013867" lon="16.565195"><ele>879.0</ele><time>2026-03-29T13:27:25.581Z</time></trkpt><trkpt lat="39.0015933" lon="16.5652867"><ele>879.0</ele><time>2026-03-29T13:27:26.581Z</time></trkpt><trkpt lat="39.0018217" lon="16.5653367"><ele>893.0</ele><time>2026-03-29T13:27:27.581Z</time></trkpt><trkpt lat="39.0020683" lon="16.565365"><ele>907.0</ele><time>2026-03-29T13:27:28.581Z</time></trkpt><trkpt lat="39.0023183" lon="16.5653917"><ele>910.5</ele><time>2026-03-29T13:27:29.581Z</time></trkpt><trkpt lat="39.0025517" lon="16.5654083"><ele>914.0</ele><time>2026-03-29T13:27:30.581Z</time></trkpt><trkpt lat="39.002775" lon="16.5654117"><ele>914.0</ele><time>2026-03-29T13:27:31.581Z</time></trkpt><trkpt lat="39.0029733" lon="16.5654533"><ele>914.0</ele><time>2026-03-29T13:27:32.581Z</time></trkpt><trkpt lat="39.0031633" lon="16.5655217"><ele>914.0</ele><time>2026-03-29T13:27:33.581Z</time></trkpt><trkpt lat="39.00335" lon="16.565625"><ele>910.6666666666667</ele><time>2026-03-29T13:27:34.581Z</time></trkpt><trkpt lat="39.00352" lon="16.5657367"><ele>907.3333333333333</ele><time>2026-03-29T13:27:35.581Z</time></trkpt><trkpt lat="39.0036967" lon="16.5658367"><ele>904.0</ele><time>2026-03-29T13:27:36.581Z</time></trkpt><trkpt lat="39.00385" lon="16.5659183"><ele>904.0</ele><time>2026-03-29T13:27:37.581Z</time></trkpt><trkpt lat="39.0039617" lon="16.5659667"><ele>904.0</ele><time>2026-03-29T13:27:38.581Z</time></trkpt><trkpt lat="39.0040717" lon="16.5659633"><ele>904.0</ele><time>2026-03-29T13:27:39.581Z</time></trkpt><trkpt lat="39.0041833" lon="16.5659033"><ele>904.0</ele><time>2026-03-29T13:27:40.581Z</time></trkpt><trkpt lat="39.0043" lon="16.56579"><ele>902.0</ele><time>2026-03-29T13:27:41.581Z</time></trkpt><trkpt lat="39.0044017" lon="16.5656717"><ele>900.0</ele><time>2026-03-29T13:27:42.581Z</time></trkpt><trkpt lat="39.004485" lon="16.5655617"><ele>898.0</ele><time>2026-03-29T13:27:43.581Z</time></trkpt><trkpt lat="39.0045933" lon="16.5655083"><ele>896.0</ele><time>2026-03-29T13:27:44.581Z</time></trkpt><trkpt lat="39.004715" lon="16.5655083"><ele>896.0</ele><time>2026-03-29T13:27:45.581Z</time></trkpt><trkpt lat="39.0048383" lon="16.56557"><ele>896.0</ele><time>2026-03-29T13:27:46.581Z</time></trkpt><trkpt lat="39.0049783" lon="16.56568"><ele>896.0</ele><time>2026-03-29T13:27:47.581Z</time></trkpt><trkpt lat="39.0051183" lon="16.56583"><ele>898.6666666666667</ele><time>2026-03-29T13:27:48.581Z</time></trkpt><trkpt lat="39.0052667" lon="16.5659533"><ele>901.3333333333333</ele><time>2026-03-29T13:27:49.581Z</time></trkpt><trkpt lat="39.0054017" lon="16.5660433"><ele>904.0</ele><time>2026-03-29T13:27:50.581Z</time></trkpt><trkpt lat="39.005525" lon="16.5660717"><ele>904.0</ele><time>2026-03-29T13:27:51.581Z</time></trkpt><trkpt lat="39.0056517" lon="16.5660283"><ele>904.0</ele><time>2026-03-29T13:27:52.581Z</time></trkpt><trkpt lat="39.0057683" lon="16.56592"><ele>904.0</ele><time>2026-03-29T13:27:53.581Z</time></trkpt><trkpt lat="39.00589" lon="16.5657517"><ele>905.0</ele><time>2026-03-29T13:27:54.581Z</time></trkpt><trkpt lat="39.006" lon="16.56559"><ele>906.0</ele><time>2026-03-29T13:27:55.581Z</time></trkpt><trkpt lat="39.0061033" lon="16.5654883"><ele>907.0</ele><time>2026-03-29T13:27:56.581Z</time></trkpt><trkpt lat="39.006215" lon="16.5654283"><ele>908.0</ele><time>2026-03-29T13:27:57.581Z</time></trkpt><trkpt lat="39.0063433" lon="16.56544"><ele>908.0</ele><time>2026-03-29T13:27:58.581Z</time></trkpt><trkpt lat="39.0064583" lon="16.5655117"><ele>908.0</ele><time>2026-03-29T13:27:59.581Z</time></trkpt><trkpt lat="39.006575" lon="16.5656033"><ele>908.0</ele><time>2026-03-29T13:28:00.581Z</time></trkpt><trkpt lat="39.0066917" lon="16.5656717"><ele>908.0</ele><time>2026-03-29T13:28:01.581Z</time></trkpt><trkpt lat="39.0068233" lon="16.5657"><ele>910.0</ele><time>2026-03-29T13:28:02.581Z</time></trkpt><trkpt lat="39.0069583" lon="16.5656583"><ele>912.0</ele><time>2026-03-29T13:28:03.581Z</time></trkpt><trkpt lat="39.007105" lon="16.5655667"><ele>914.0</ele><time>2026-03-29T13:28:04.582Z</time></trkpt><trkpt lat="39.0072683" lon="16.5654617"><ele>908.6666666666667</ele><time>2026-03-29T13:28:05.582Z</time></trkpt><trkpt lat="39.0074567" lon="16.5653617"><ele>903.3333333333333</ele><time>2026-03-29T13:28:06.581Z</time></trkpt><trkpt lat="39.007635" lon="16.565285"><ele>898.0</ele><time>2026-03-29T13:28:07.581Z</time></trkpt><trkpt lat="39.0078033" lon="16.56524"><ele>898.0</ele><time>2026-03-29T13:28:08.581Z</time></trkpt><trkpt lat="39.0079883" lon="16.565235"><ele>898.0</ele><time>2026-03-29T13:28:09.581Z</time></trkpt><trkpt lat="39.0081917" lon="16.5653"><ele>898.0</ele><time>2026-03-29T13:28:10.582Z</time></trkpt><trkpt lat="39.0084233" lon="16.56539"><ele>908.0</ele><time>2026-03-29T13:28:11.581Z</time></trkpt><trkpt lat="39.0086483" lon="16.5654783"><ele>918.0</ele><time>2026-03-29T13:28:12.581Z</time></trkpt><trkpt lat="39.0088517" lon="16.5655433"><ele>928.0</ele><time>2026-03-29T13:28:13.582Z</time></trkpt><trkpt lat="39.0090033" lon="16.5655767"><ele>928.0</ele><time>2026-03-29T13:28:14.581Z</time></trkpt><trkpt lat="39.0091483" lon="16.565575"><ele>928.0</ele><time>2026-03-29T13:28:15.581Z</time></trkpt><trkpt lat="39.0093" lon="16.5655283"><ele>928.0</ele><time>2026-03-29T13:28:16.581Z</time></trkpt><trkpt lat="39.0094533" lon="16.5654183"><ele>916.0</ele><time>2026-03-29T13:28:17.581Z</time></trkpt><trkpt lat="39.0096017" lon="16.5652733"><ele>904.0</ele><time>2026-03-29T13:28:18.581Z</time></trkpt><trkpt lat="39.0097583" lon="16.5651117"><ele>892.0</ele><time>2026-03-29T13:28:19.581Z</time></trkpt><trkpt lat="39.0099217" lon="16.5649617"><ele>898.6666666666666</ele><time>2026-03-29T13:28:20.581Z</time></trkpt><trkpt lat="39.0100983" lon="16.5648217"><ele>905.3333333333333</ele><time>2026-03-29T13:28:21.581Z</time></trkpt><trkpt lat="39.0102633" lon="16.5646767"><ele>912.0</ele><time>2026-03-29T13:28:22.581Z</time></trkpt><trkpt lat="39.0104283" lon="16.56453"><ele>911.6666666666667</ele><time>2026-03-29T13:28:23.581Z</time></trkpt><trkpt lat="39.0106133" lon="16.564375"><ele>911.3333333333334</ele><time>2026-03-29T13:28:24.581Z</time></trkpt><trkpt lat="39.0107367" lon="16.5642017"><ele>911.0</ele><time>2026-03-29T13:28:25.581Z</time></trkpt><trkpt lat="39.0107917" lon="16.5640283"><ele>911.0</ele><time>2026-03-29T13:28:26.581Z</time></trkpt><trkpt lat="39.0107533" lon="16.5638483"><ele>911.0</ele><time>2026-03-29T13:28:27.581Z</time></trkpt><trkpt lat="39.01072" lon="16.5636517"><ele>911.0</ele><time>2026-03-29T13:28:28.581Z</time></trkpt><trkpt lat="39.0106917" lon="16.5634683"><ele>911.0</ele><time>2026-03-29T13:28:29.581Z</time></trkpt><trkpt lat="39.010635" lon="16.56327"><ele>910.6666666666667</ele><time>2026-03-29T13:28:30.581Z</time></trkpt><trkpt lat="39.0105633" lon="16.5630717"><ele>910.3333333333333</ele><time>2026-03-29T13:28:31.581Z</time></trkpt><trkpt lat="39.0104867" lon="16.5628617"><ele>910.0</ele><time>2026-03-29T13:28:32.581Z</time></trkpt><trkpt lat="39.0104133" lon="16.5626533"><ele>909.5</ele><time>2026-03-29T13:28:33.581Z</time></trkpt><trkpt lat="39.010355" lon="16.5624567"><ele>909.0</ele><time>2026-03-29T13:28:34.581Z</time></trkpt><trkpt lat="39.0103067" lon="16.5622883"><ele>908.5</ele><time>2026-03-29T13:28:35.581Z</time></trkpt><trkpt lat="39.0102917" lon="16.5621367"><ele>908.0</ele><time>2026-03-29T13:28:36.581Z</time></trkpt><trkpt lat="39.010315" lon="16.5620183"><ele>911.5</ele><time>2026-03-29T13:28:37.581Z</time></trkpt><trkpt lat="39.0103917" lon="16.561915"><ele>915.0</ele><time>2026-03-29T13:28:38.581Z</time></trkpt><trkpt lat="39.0104867" lon="16.561825"><ele>918.5</ele><time>2026-03-29T13:28:39.581Z</time></trkpt><trkpt lat="39.0105683" lon="16.5617217"><ele>922.0</ele><time>2026-03-29T13:28:40.581Z</time></trkpt><trkpt lat="39.0106633" lon="16.561615"><ele>922.0</ele><time>2026-03-29T13:28:41.581Z</time></trkpt><trkpt lat="39.0107367" lon="16.5614933"><ele>922.0</ele><time>2026-03-29T13:28:42.581Z</time></trkpt><trkpt lat="39.0107633" lon="16.5613467"><ele>922.0</ele><time>2026-03-29T13:28:43.581Z</time></trkpt><trkpt lat="39.0107567" lon="16.5611883"><ele>922.0</ele><time>2026-03-29T13:28:44.581Z</time></trkpt><trkpt lat="39.010705" lon="16.5610367"><ele>922.5</ele><time>2026-03-29T13:28:45.581Z</time></trkpt><trkpt lat="39.010655" lon="16.5608867"><ele>923.0</ele><time>2026-03-29T13:28:46.581Z</time></trkpt><trkpt lat="39.0106233" lon="16.56073"><ele>923.5</ele><time>2026-03-29T13:28:47.582Z</time></trkpt><trkpt lat="39.0106267" lon="16.56059"><ele>924.0</ele><time>2026-03-29T13:28:48.581Z</time></trkpt><trkpt lat="39.0106683" lon="16.5604567"><ele>923.5</ele><time>2026-03-29T13:28:49.581Z</time></trkpt><trkpt lat="39.010755" lon="16.5603317"><ele>923.0</ele><time>2026-03-29T13:28:50.581Z</time></trkpt><trkpt lat="39.0108783" lon="16.5602367"><ele>922.5</ele><time>2026-03-29T13:28:51.581Z</time></trkpt><trkpt lat="39.011015" lon="16.5601467"><ele>922.0</ele><time>2026-03-29T13:28:52.581Z</time></trkpt><trkpt lat="39.011175" lon="16.5600533"><ele>914.6666666666666</ele><time>2026-03-29T13:28:53.581Z</time></trkpt><trkpt lat="39.0113517" lon="16.5599533"><ele>907.3333333333333</ele><time>2026-03-29T13:28:54.581Z</time></trkpt><trkpt lat="39.011525" lon="16.5598417"><ele>900.0</ele><time>2026-03-29T13:28:55.581Z</time></trkpt><trkpt lat="39.0117" lon="16.5597217"><ele>895.0</ele><time>2026-03-29T13:28:56.581Z</time></trkpt><trkpt lat="39.0118617" lon="16.5596"><ele>890.0</ele><time>2026-03-29T13:28:57.581Z</time></trkpt><trkpt lat="39.0120083" lon="16.5594667"><ele>885.0</ele><time>2026-03-29T13:28:58.581Z</time></trkpt><trkpt lat="39.01212" lon="16.5593367"><ele>885.0</ele><time>2026-03-29T13:28:59.581Z</time></trkpt><trkpt lat="39.012215" lon="16.5592033"><ele>885.0</ele><time>2026-03-29T13:29:00.581Z</time></trkpt><trkpt lat="39.0122967" lon="16.5590617"><ele>885.0</ele><time>2026-03-29T13:29:01.581Z</time></trkpt><trkpt lat="39.0124033" lon="16.558945"><ele>885.0</ele><time>2026-03-29T13:29:02.581Z</time></trkpt><trkpt lat="39.0125217" lon="16.558835"><ele>880.6666666666667</ele><time>2026-03-29T13:29:03.581Z</time></trkpt><trkpt lat="39.012665" lon="16.5587433"><ele>876.3333333333334</ele><time>2026-03-29T13:29:04.581Z</time></trkpt><trkpt lat="39.0128283" lon="16.5586617"><ele>872.0</ele><time>2026-03-29T13:29:05.581Z</time></trkpt><trkpt lat="39.01303" lon="16.5585867"><ele>872.0</ele><time>2026-03-29T13:29:06.581Z</time></trkpt><trkpt lat="39.0132433" lon="16.55852"><ele>872.0</ele><time>2026-03-29T13:29:07.581Z</time></trkpt><trkpt lat="39.0134667" lon="16.55844"><ele>868.3333333333334</ele><time>2026-03-29T13:29:08.581Z</time></trkpt><trkpt lat="39.0136933" lon="16.5583717"><ele>864.6666666666667</ele><time>2026-03-29T13:29:09.581Z</time></trkpt><trkpt lat="39.0138917" lon="16.558295"><ele>861.0</ele><time>2026-03-29T13:29:10.581Z</time></trkpt><trkpt lat="39.01409" lon="16.55821"><ele>858.0</ele><time>2026-03-29T13:29:11.581Z</time></trkpt><trkpt lat="39.0142633" lon="16.5581033"><ele>855.0</ele><time>2026-03-29T13:29:12.581Z</time></trkpt><trkpt lat="39.0144233" lon="16.5579533"><ele>852.0</ele><time>2026-03-29T13:29:13.581Z</time></trkpt><trkpt lat="39.0145717" lon="16.5577717"><ele>852.0</ele><time>2026-03-29T13:29:14.581Z</time></trkpt><trkpt lat="39.0147383" lon="16.5576"><ele>852.0</ele><time>2026-03-29T13:29:15.581Z</time></trkpt><trkpt lat="39.01491" lon="16.5574417"><ele>852.0</ele><time>2026-03-29T13:29:16.581Z</time></trkpt><trkpt lat="39.015095" lon="16.5572983"><ele>850.0</ele><time>2026-03-29T13:29:17.581Z</time></trkpt><trkpt lat="39.015285" lon="16.557175"><ele>848.0</ele><time>2026-03-29T13:29:18.581Z</time></trkpt><trkpt lat="39.0154783" lon="16.5570833"><ele>846.0</ele><time>2026-03-29T13:29:19.581Z</time></trkpt><trkpt lat="39.0156767" lon="16.557025"><ele>841.0</ele><time>2026-03-29T13:29:20.582Z</time></trkpt><trkpt lat="39.0158983" lon="16.5569883"><ele>836.0</ele><time>2026-03-29T13:29:21.581Z</time></trkpt><trkpt lat="39.0161283" lon="16.5569567"><ele>836.0</ele><time>2026-03-29T13:29:22.581Z</time></trkpt><trkpt lat="39.0163633" lon="16.5569267"><ele>836.0</ele><time>2026-03-29T13:29:23.581Z</time></trkpt><trkpt lat="39.0166" lon="16.556895"><ele>827.0</ele><time>2026-03-29T13:29:24.581Z</time></trkpt><trkpt lat="39.0168483" lon="16.5568567"><ele>818.0</ele><time>2026-03-29T13:29:25.582Z</time></trkpt><trkpt lat="39.0171083" lon="16.5568167"><ele>818.0</ele><time>2026-03-29T13:29:26.581Z</time></trkpt><trkpt lat="39.0173667" lon="16.55678"><ele>818.0</ele><time>2026-03-29T13:29:27.581Z</time></trkpt><trkpt lat="39.0176017" lon="16.55675"><ele>816.6666666666667</ele><time>2026-03-29T13:29:28.581Z</time></trkpt><trkpt lat="39.0178217" lon="16.55672"><ele>815.3333333333333</ele><time>2026-03-29T13:29:29.581Z</time></trkpt><trkpt lat="39.0180233" lon="16.556715"><ele>814.0</ele><time>2026-03-29T13:29:30.581Z</time></trkpt><trkpt lat="39.0182167" lon="16.5567567"><ele>813.3333333333333</ele><time>2026-03-29T13:29:31.581Z</time></trkpt><trkpt lat="39.0184117" lon="16.55684"><ele>812.6666666666667</ele><time>2026-03-29T13:29:32.581Z</time></trkpt><trkpt lat="39.0185833" lon="16.5569583"><ele>812.0</ele><time>2026-03-29T13:29:33.581Z</time></trkpt><trkpt lat="39.0187483" lon="16.557125"><ele>812.0</ele><time>2026-03-29T13:29:34.581Z</time></trkpt><trkpt lat="39.018895" lon="16.5573367"><ele>812.0</ele><time>2026-03-29T13:29:35.581Z</time></trkpt><trkpt lat="39.01902" lon="16.5575767"><ele>812.0</ele><time>2026-03-29T13:29:36.581Z</time></trkpt><trkpt lat="39.01914" lon="16.5578267"><ele>811.0</ele><time>2026-03-29T13:29:37.581Z</time></trkpt><trkpt lat="39.0192517" lon="16.55805"><ele>810.0</ele><time>2026-03-29T13:29:38.581Z</time></trkpt><trkpt lat="39.0193633" lon="16.5582433"><ele>809.0</ele><time>2026-03-29T13:29:39.581Z</time></trkpt><trkpt lat="39.01946" lon="16.5584067"><ele>809.0</ele><time>2026-03-29T13:29:40.581Z</time></trkpt><trkpt lat="39.019565" lon="16.5585467"><ele>809.0</ele><time>2026-03-29T13:29:41.581Z</time></trkpt><trkpt lat="39.0196917" lon="16.5586667"><ele>809.0</ele><time>2026-03-29T13:29:42.581Z</time></trkpt><trkpt lat="39.019825" lon="16.55876"><ele>803.6666666666667</ele><time>2026-03-29T13:29:43.581Z</time></trkpt><trkpt lat="39.01998" lon="16.5588133"><ele>798.3333333333333</ele><time>2026-03-29T13:29:44.581Z</time></trkpt><trkpt lat="39.0201333" lon="16.5588283"><ele>793.0</ele><time>2026-03-29T13:29:45.581Z</time></trkpt><trkpt lat="39.02029" lon="16.55883"><ele>793.0</ele><time>2026-03-29T13:29:46.581Z</time></trkpt><trkpt lat="39.02044" lon="16.5587983"><ele>793.0</ele><time>2026-03-29T13:29:47.581Z</time></trkpt><trkpt lat="39.02057" lon="16.5587433"><ele>793.0</ele><time>2026-03-29T13:29:48.582Z</time></trkpt><trkpt lat="39.0207133" lon="16.5586283"><ele>800.3333333333333</ele><time>2026-03-29T13:29:49.581Z</time></trkpt><trkpt lat="39.02084" lon="16.5584833"><ele>807.6666666666667</ele><time>2026-03-29T13:29:50.581Z</time></trkpt><trkpt lat="39.0209583" lon="16.5582933"><ele>815.0</ele><time>2026-03-29T13:29:51.582Z</time></trkpt><trkpt lat="39.021085" lon="16.5580833"><ele>821.3333333333334</ele><time>2026-03-29T13:29:52.581Z</time></trkpt><trkpt lat="39.0212133" lon="16.5578583"><ele>827.6666666666667</ele><time>2026-03-29T13:29:53.581Z</time></trkpt><trkpt lat="39.02135" lon="16.5576267"><ele>834.0</ele><time>2026-03-29T13:29:54.581Z</time></trkpt><trkpt lat="39.021495" lon="16.5573917"><ele>834.0</ele><time>2026-03-29T13:29:55.581Z</time></trkpt><trkpt lat="39.0216367" lon="16.5571567"><ele>834.0</ele><time>2026-03-29T13:29:56.581Z</time></trkpt><trkpt lat="39.0217567" lon="16.5569467"><ele>834.0</ele><time>2026-03-29T13:29:57.581Z</time></trkpt><trkpt lat="39.0218617" lon="16.556755"><ele>829.0</ele><time>2026-03-29T13:29:58.581Z</time></trkpt><trkpt lat="39.0219667" lon="16.55659"><ele>824.0</ele><time>2026-03-29T13:29:59.581Z</time></trkpt><trkpt lat="39.02207" lon="16.5564517"><ele>819.0</ele><time>2026-03-29T13:30:00.581Z</time></trkpt><trkpt lat="39.0221817" lon="16.5563417"><ele>819.0</ele><time>2026-03-29T13:30:01.581Z</time></trkpt><trkpt lat="39.02232" lon="16.556285"><ele>819.0</ele><time>2026-03-29T13:30:02.581Z</time></trkpt><trkpt lat="39.0224733" lon="16.5562917"><ele>819.0</ele><time>2026-03-29T13:30:03.582Z</time></trkpt><trkpt lat="39.022645" lon="16.556345"><ele>812.3333333333333</ele><time>2026-03-29T13:30:04.582Z</time></trkpt><trkpt lat="39.0228133" lon="16.5564567"><ele>805.6666666666666</ele><time>2026-03-29T13:30:05.582Z</time></trkpt><trkpt lat="39.0229467" lon="16.5566083"><ele>799.0</ele><time>2026-03-29T13:30:06.582Z</time></trkpt><trkpt lat="39.0230583" lon="16.5567617"><ele>799.0</ele><time>2026-03-29T13:30:07.582Z</time></trkpt><trkpt lat="39.0231633" lon="16.556905"><ele>799.0</ele><time>2026-03-29T13:30:08.582Z</time></trkpt><trkpt lat="39.023265" lon="16.5570183"><ele>799.0</ele><time>2026-03-29T13:30:09.582Z</time></trkpt><trkpt lat="39.0233817" lon="16.5570817"><ele>799.0</ele><time>2026-03-29T13:30:10.582Z</time></trkpt><trkpt lat="39.0235083" lon="16.5571383"><ele>794.25</ele><time>2026-03-29T13:30:11.582Z</time></trkpt><trkpt lat="39.0236483" lon="16.557145"><ele>789.5</ele><time>2026-03-29T13:30:12.582Z</time></trkpt><trkpt lat="39.0237967" lon="16.5571333"><ele>784.75</ele><time>2026-03-29T13:30:13.582Z</time></trkpt><trkpt lat="39.0239467" lon="16.5571067"><ele>780.0</ele><time>2026-03-29T13:30:14.582Z</time></trkpt><trkpt lat="39.0241083" lon="16.5570883"><ele>780.3333333333333</ele><time>2026-03-29T13:30:15.583Z</time></trkpt><trkpt lat="39.0242833" lon="16.55707"><ele>780.6666666666666</ele><time>2026-03-29T13:30:16.582Z</time></trkpt><trkpt lat="39.02445" lon="16.557045"><ele>781.0</ele><time>2026-03-29T13:30:17.582Z</time></trkpt><trkpt lat="39.02461" lon="16.5570167"><ele>784.3333333333333</ele><time>2026-03-29T13:30:18.582Z</time></trkpt><trkpt lat="39.0247733" lon="16.5569883"><ele>787.6666666666667</ele><time>2026-03-29T13:30:19.582Z</time></trkpt><trkpt lat="39.02494" lon="16.55696"><ele>791.0</ele><time>2026-03-29T13:30:20.582Z</time></trkpt><trkpt lat="39.0251017" lon="16.5569333"><ele>791.0</ele><time>2026-03-29T13:30:21.583Z</time></trkpt><trkpt lat="39.025255" lon="16.5568983"><ele>791.0</ele><time>2026-03-29T13:30:22.582Z</time></trkpt><trkpt lat="39.0253933" lon="16.556875"><ele>791.0</ele><time>2026-03-29T13:30:23.582Z</time></trkpt><trkpt lat="39.0255133" lon="16.5568583"><ele>791.0</ele><time>2026-03-29T13:30:24.582Z</time></trkpt><trkpt lat="39.02562" lon="16.556845"><ele>791.0</ele><time>2026-03-29T13:30:25.582Z</time></trkpt><trkpt lat="39.0257117" lon="16.556815"><ele>791.0</ele><time>2026-03-29T13:30:26.582Z</time></trkpt><trkpt lat="39.0258017" lon="16.5567783"><ele>791.0</ele><time>2026-03-29T13:30:27.582Z</time></trkpt><trkpt lat="39.025885" lon="16.556735"><ele>791.0</ele><time>2026-03-29T13:30:28.582Z</time></trkpt><trkpt lat="39.0259633" lon="16.5566867"><ele>791.0</ele><time>2026-03-29T13:30:29.582Z</time></trkpt><trkpt lat="39.0260567" lon="16.5566217"><ele>789.0</ele><time>2026-03-29T13:30:30.582Z</time></trkpt><trkpt lat="39.0261517" lon="16.5565367"><ele>787.0</ele><time>2026-03-29T13:30:31.582Z</time></trkpt><trkpt lat="39.026245" lon="16.55643"><ele>785.0</ele><time>2026-03-29T13:30:32.582Z</time></trkpt><trkpt lat="39.0263367" lon="16.5563083"><ele>783.0</ele><time>2026-03-29T13:30:33.582Z</time></trkpt><trkpt lat="39.02642" lon="16.5561967"><ele>782.0</ele><time>2026-03-29T13:30:34.582Z</time></trkpt><trkpt lat="39.0264883" lon="16.5560867"><ele>781.0</ele><time>2026-03-29T13:30:35.582Z</time></trkpt><trkpt lat="39.0265517" lon="16.5559883"><ele>780.0</ele><time>2026-03-29T13:30:36.582Z</time></trkpt><trkpt lat="39.0266083" lon="16.55588"><ele>779.0</ele><time>2026-03-29T13:30:37.582Z</time></trkpt><trkpt lat="39.026665" lon="16.5557833"><ele>778.0</ele><time>2026-03-29T13:30:38.582Z</time></trkpt><trkpt lat="39.0267233" lon="16.5556733"><ele>777.75</ele><time>2026-03-29T13:30:39.582Z</time></trkpt><trkpt lat="39.0267883" lon="16.5555517"><ele>777.5</ele><time>2026-03-29T13:30:40.582Z</time></trkpt><trkpt lat="39.02686" lon="16.555425"><ele>777.25</ele><time>2026-03-29T13:30:41.582Z</time></trkpt><trkpt lat="39.02693" lon="16.555285"><ele>777.0</ele><time>2026-03-29T13:30:42.582Z</time></trkpt><trkpt lat="39.0270033" lon="16.55513"><ele>778.0</ele><time>2026-03-29T13:30:43.582Z</time></trkpt><trkpt lat="39.027085" lon="16.5549683"><ele>779.0</ele><time>2026-03-29T13:30:44.582Z</time></trkpt><trkpt lat="39.0271667" lon="16.5548033"><ele>780.0</ele><time>2026-03-29T13:30:45.582Z</time></trkpt><trkpt lat="39.0272583" lon="16.5546267"><ele>780.6666666666667</ele><time>2026-03-29T13:30:46.582Z</time></trkpt><trkpt lat="39.02735" lon="16.5544467"><ele>781.3333333333334</ele><time>2026-03-29T13:30:47.582Z</time></trkpt><trkpt lat="39.027445" lon="16.5542617"><ele>782.0</ele><time>2026-03-29T13:30:48.582Z</time></trkpt><trkpt lat="39.02754" lon="16.5540667"><ele>785.0</ele><time>2026-03-29T13:30:49.582Z</time></trkpt><trkpt lat="39.0276317" lon="16.5538783"><ele>788.0</ele><time>2026-03-29T13:30:50.582Z</time></trkpt><trkpt lat="39.0277283" lon="16.5537"><ele>791.0</ele><time>2026-03-29T13:30:51.582Z</time></trkpt><trkpt lat="39.0278383" lon="16.553535"><ele>793.0</ele><time>2026-03-29T13:30:52.582Z</time></trkpt><trkpt lat="39.0279583" lon="16.55338"><ele>795.0</ele><time>2026-03-29T13:30:53.582Z</time></trkpt><trkpt lat="39.0280817" lon="16.5532417"><ele>797.0</ele><time>2026-03-29T13:30:54.582Z</time></trkpt><trkpt lat="39.028205" lon="16.55312"><ele>796.75</ele><time>2026-03-29T13:30:55.582Z</time></trkpt><trkpt lat="39.0283267" lon="16.5530133"><ele>796.5</ele><time>2026-03-29T13:30:56.582Z</time></trkpt><trkpt lat="39.02843" lon="16.5529083"><ele>796.25</ele><time>2026-03-29T13:30:57.583Z</time></trkpt><trkpt lat="39.0285283" lon="16.552805"><ele>796.0</ele><time>2026-03-29T13:30:58.582Z</time></trkpt><trkpt lat="39.02863" lon="16.5527"><ele>799.0</ele><time>2026-03-29T13:30:59.582Z</time></trkpt><trkpt lat="39.0287367" lon="16.5526017"><ele>802.0</ele><time>2026-03-29T13:31:00.582Z</time></trkpt><trkpt lat="39.0288517" lon="16.5524933"><ele>805.0</ele><time>2026-03-29T13:31:01.582Z</time></trkpt><trkpt lat="39.0289633" lon="16.5523883"><ele>808.0</ele><time>2026-03-29T13:31:02.582Z</time></trkpt><trkpt lat="39.0290767" lon="16.5522717"><ele>807.0</ele><time>2026-03-29T13:31:03.582Z</time></trkpt><trkpt lat="39.0291883" lon="16.5521583"><ele>806.0</ele><time>2026-03-29T13:31:04.582Z</time></trkpt><trkpt lat="39.029295" lon="16.55204"><ele>805.0</ele><time>2026-03-29T13:31:05.582Z</time></trkpt><trkpt lat="39.0293933" lon="16.5519083"><ele>804.0</ele><time>2026-03-29T13:31:06.582Z</time></trkpt><trkpt lat="39.0294783" lon="16.551765"><ele>804.0</ele><time>2026-03-29T13:31:07.582Z</time></trkpt><trkpt lat="39.0295583" lon="16.551605"><ele>804.0</ele><time>2026-03-29T13:31:08.582Z</time></trkpt><trkpt lat="39.02963" lon="16.5514383"><ele>804.0</ele><time>2026-03-29T13:31:09.582Z</time></trkpt><trkpt lat="39.0296867" lon="16.5512533"><ele>799.6666666666667</ele><time>2026-03-29T13:31:10.582Z</time></trkpt><trkpt lat="39.0297133" lon="16.5510533"><ele>795.3333333333334</ele><time>2026-03-29T13:31:11.582Z</time></trkpt><trkpt lat="39.0297383" lon="16.5508433"><ele>791.0</ele><time>2026-03-29T13:31:12.582Z</time></trkpt><trkpt lat="39.0297417" lon="16.5506233"><ele>791.0</ele><time>2026-03-29T13:31:13.582Z</time></trkpt><trkpt lat="39.0297333" lon="16.5504183"><ele>791.0</ele><time>2026-03-29T13:31:14.582Z</time></trkpt><trkpt lat="39.029735" lon="16.55021"><ele>791.0</ele><time>2026-03-29T13:31:15.582Z</time></trkpt><trkpt lat="39.02976" lon="16.5500067"><ele>790.6666666666667</ele><time>2026-03-29T13:31:16.582Z</time></trkpt><trkpt lat="39.0298217" lon="16.5497967"><ele>790.3333333333333</ele><time>2026-03-29T13:31:17.582Z</time></trkpt><trkpt lat="39.0299183" lon="16.54961"><ele>790.0</ele><time>2026-03-29T13:31:18.582Z</time></trkpt><trkpt lat="39.0300367" lon="16.5494067"><ele>797.6666666666666</ele><time>2026-03-29T13:31:19.582Z</time></trkpt><trkpt lat="39.0301583" lon="16.5492117"><ele>805.3333333333333</ele><time>2026-03-29T13:31:20.582Z</time></trkpt><trkpt lat="39.0302733" lon="16.549"><ele>813.0</ele><time>2026-03-29T13:31:21.582Z</time></trkpt><trkpt lat="39.0303967" lon="16.548825"><ele>816.0</ele><time>2026-03-29T13:31:22.582Z</time></trkpt><trkpt lat="39.03054" lon="16.54869"><ele>819.0</ele><time>2026-03-29T13:31:23.582Z</time></trkpt><trkpt lat="39.030715" lon="16.5485717"><ele>822.0</ele><time>2026-03-29T13:31:24.582Z</time></trkpt><trkpt lat="39.0309033" lon="16.5484733"><ele>822.0</ele><time>2026-03-29T13:31:25.582Z</time></trkpt><trkpt lat="39.0311033" lon="16.548375"><ele>822.0</ele><time>2026-03-29T13:31:26.582Z</time></trkpt><trkpt lat="39.0313167" lon="16.5482633"><ele>822.0</ele><time>2026-03-29T13:31:27.582Z</time></trkpt><trkpt lat="39.0315033" lon="16.5481533"><ele>826.0</ele><time>2026-03-29T13:31:28.582Z</time></trkpt><trkpt lat="39.0316633" lon="16.548065"><ele>830.0</ele><time>2026-03-29T13:31:29.582Z</time></trkpt><trkpt lat="39.0318067" lon="16.5479767"><ele>834.0</ele><time>2026-03-29T13:31:30.582Z</time></trkpt><trkpt lat="39.031915" lon="16.5478483"><ele>834.0</ele><time>2026-03-29T13:31:31.582Z</time></trkpt><trkpt lat="39.031995" lon="16.5477"><ele>834.0</ele><time>2026-03-29T13:31:32.582Z</time></trkpt><trkpt lat="39.0320267" lon="16.54753"><ele>834.0</ele><time>2026-03-29T13:31:33.582Z</time></trkpt><trkpt lat="39.0320183" lon="16.54736"><ele>834.0</ele><time>2026-03-29T13:31:34.582Z</time></trkpt><trkpt lat="39.0319783" lon="16.5472017"><ele>834.0</ele><time>2026-03-29T13:31:35.583Z</time></trkpt><trkpt lat="39.0319017" lon="16.5470667"><ele>834.0</ele><time>2026-03-29T13:31:36.582Z</time></trkpt><trkpt lat="39.0317917" lon="16.5469533"><ele>834.0</ele><time>2026-03-29T13:31:37.582Z</time></trkpt><trkpt lat="39.0316667" lon="16.5468833"><ele>834.0</ele><time>2026-03-29T13:31:38.582Z</time></trkpt><trkpt lat="39.0315283" lon="16.5468483"><ele>835.75</ele><time>2026-03-29T13:31:39.582Z</time></trkpt><trkpt lat="39.0313833" lon="16.5468517"><ele>837.5</ele><time>2026-03-29T13:31:40.582Z</time></trkpt><trkpt lat="39.0312367" lon="16.5468883"><ele>839.25</ele><time>2026-03-29T13:31:41.583Z</time></trkpt><trkpt lat="39.0310883" lon="16.546915"><ele>841.0</ele><time>2026-03-29T13:31:42.582Z</time></trkpt><trkpt lat="39.03094" lon="16.5469133"><ele>835.75</ele><time>2026-03-29T13:31:43.582Z</time></trkpt><trkpt lat="39.0308" lon="16.5468717"><ele>830.5</ele><time>2026-03-29T13:31:44.582Z</time></trkpt><trkpt lat="39.03067" lon="16.5467917"><ele>825.25</ele><time>2026-03-29T13:31:45.582Z</time></trkpt><trkpt lat="39.0305583" lon="16.5466567"><ele>820.0</ele><time>2026-03-29T13:31:46.582Z</time></trkpt><trkpt lat="39.0304817" lon="16.5464817"><ele>820.0</ele><time>2026-03-29T13:31:47.582Z</time></trkpt><trkpt lat="39.0304483" lon="16.5462933"><ele>820.0</ele><time>2026-03-29T13:31:48.582Z</time></trkpt><trkpt lat="39.03046" lon="16.5461033"><ele>820.0</ele><time>2026-03-29T13:31:49.582Z</time></trkpt><trkpt lat="39.0305" lon="16.5459033"><ele>823.3333333333333</ele><time>2026-03-29T13:31:50.582Z</time></trkpt><trkpt lat="39.03054" lon="16.5456967"><ele>826.6666666666667</ele><time>2026-03-29T13:31:51.582Z</time></trkpt><trkpt lat="39.0305667" lon="16.5454833"><ele>830.0</ele><time>2026-03-29T13:31:52.582Z</time></trkpt><trkpt lat="39.03057" lon="16.5452733"><ele>832.6666666666667</ele><time>2026-03-29T13:31:53.582Z</time></trkpt><trkpt lat="39.0305383" lon="16.5450733"><ele>835.3333333333333</ele><time>2026-03-29T13:31:54.582Z</time></trkpt><trkpt lat="39.0304783" lon="16.5448983"><ele>838.0</ele><time>2026-03-29T13:31:55.582Z</time></trkpt><trkpt lat="39.0303917" lon="16.54473"><ele>838.0</ele><time>2026-03-29T13:31:56.582Z</time></trkpt><trkpt lat="39.0303033" lon="16.5445783"><ele>838.0</ele><time>2026-03-29T13:31:57.582Z</time></trkpt><trkpt lat="39.030245" lon="16.5444117"><ele>838.0</ele><time>2026-03-29T13:31:58.582Z</time></trkpt><trkpt lat="39.0302117" lon="16.544245"><ele>838.0</ele><time>2026-03-29T13:31:59.582Z</time></trkpt><trkpt lat="39.0302133" lon="16.5440767"><ele>838.5</ele><time>2026-03-29T13:32:00.582Z</time></trkpt><trkpt lat="39.0302383" lon="16.5439"><ele>839.0</ele><time>2026-03-29T13:32:01.582Z</time></trkpt><trkpt lat="39.0302783" lon="16.5437083"><ele>839.5</ele><time>2026-03-29T13:32:02.583Z</time></trkpt><trkpt lat="39.0303217" lon="16.54353"><ele>840.0</ele><time>2026-03-29T13:32:03.582Z</time></trkpt><trkpt lat="39.0303717" lon="16.5433433"><ele>840.0</ele><time>2026-03-29T13:32:04.582Z</time></trkpt><trkpt lat="39.0304183" lon="16.5431533"><ele>840.0</ele><time>2026-03-29T13:32:05.582Z</time></trkpt><trkpt lat="39.0304633" lon="16.54297"><ele>840.0</ele><time>2026-03-29T13:32:06.582Z</time></trkpt><trkpt lat="39.0305083" lon="16.54278"><ele>836.3333333333333</ele><time>2026-03-29T13:32:07.582Z</time></trkpt><trkpt lat="39.030565" lon="16.5425917"><ele>832.6666666666666</ele><time>2026-03-29T13:32:08.582Z</time></trkpt><trkpt lat="39.03065" lon="16.5424233"><ele>829.0</ele><time>2026-03-29T13:32:09.582Z</time></trkpt><trkpt lat="39.03074" lon="16.542265"><ele>833.6666666666666</ele><time>2026-03-29T13:32:10.582Z</time></trkpt><trkpt lat="39.030845" lon="16.5421267"><ele>838.3333333333333</ele><time>2026-03-29T13:32:11.582Z</time></trkpt><trkpt lat="39.03096" lon="16.541995"><ele>843.0</ele><time>2026-03-29T13:32:12.582Z</time></trkpt><trkpt lat="39.0310817" lon="16.54186"><ele>843.0</ele><time>2026-03-29T13:32:13.582Z</time></trkpt><trkpt lat="39.0311917" lon="16.5417217"><ele>843.0</ele><time>2026-03-29T13:32:14.582Z</time></trkpt><trkpt lat="39.0312867" lon="16.5415783"><ele>843.0</ele><time>2026-03-29T13:32:15.582Z</time></trkpt><trkpt lat="39.031355" lon="16.5414333"><ele>843.0</ele><time>2026-03-29T13:32:16.582Z</time></trkpt><trkpt lat="39.0313917" lon="16.5412733"><ele>841.0</ele><time>2026-03-29T13:32:17.582Z</time></trkpt><trkpt lat="39.0313933" lon="16.5410933"><ele>839.0</ele><time>2026-03-29T13:32:18.582Z</time></trkpt><trkpt lat="39.0313667" lon="16.5409283"><ele>837.0</ele><time>2026-03-29T13:32:19.582Z</time></trkpt><trkpt lat="39.0313317" lon="16.5407517"><ele>835.0</ele><time>2026-03-29T13:32:20.582Z</time></trkpt><trkpt lat="39.031315" lon="16.540565"><ele>833.75</ele><time>2026-03-29T13:32:21.582Z</time></trkpt><trkpt lat="39.0313367" lon="16.5403817"><ele>832.5</ele><time>2026-03-29T13:32:22.582Z</time></trkpt><trkpt lat="39.0313967" lon="16.5402"><ele>831.25</ele><time>2026-03-29T13:32:23.582Z</time></trkpt><trkpt lat="39.0314833" lon="16.5400433"><ele>830.0</ele><time>2026-03-29T13:32:24.582Z</time></trkpt><trkpt lat="39.0316017" lon="16.539925"><ele>841.0</ele><time>2026-03-29T13:32:25.582Z</time></trkpt><trkpt lat="39.0317383" lon="16.5398317"><ele>852.0</ele><time>2026-03-29T13:32:26.582Z</time></trkpt><trkpt lat="39.0318983" lon="16.5397733"><ele>863.0</ele><time>2026-03-29T13:32:27.582Z</time></trkpt><trkpt lat="39.0320767" lon="16.5397383"><ele>863.0</ele><time>2026-03-29T13:32:28.582Z</time></trkpt><trkpt lat="39.0322767" lon="16.5397133"><ele>863.0</ele><time>2026-03-29T13:32:29.582Z</time></trkpt><trkpt lat="39.032485" lon="16.5396883"><ele>863.0</ele><time>2026-03-29T13:32:30.582Z</time></trkpt><trkpt lat="39.03269" lon="16.5396517"><ele>869.0</ele><time>2026-03-29T13:32:31.582Z</time></trkpt><trkpt lat="39.0329" lon="16.53962"><ele>875.0</ele><time>2026-03-29T13:32:32.582Z</time></trkpt><trkpt lat="39.0331017" lon="16.5395833"><ele>881.0</ele><time>2026-03-29T13:32:33.582Z</time></trkpt><trkpt lat="39.0332783" lon="16.53955"><ele>875.0</ele><time>2026-03-29T13:32:34.582Z</time></trkpt><trkpt lat="39.03344" lon="16.5395283"><ele>869.0</ele><time>2026-03-29T13:32:35.582Z</time></trkpt><trkpt lat="39.03358" lon="16.539495"><ele>863.0</ele><time>2026-03-29T13:32:36.582Z</time></trkpt><trkpt lat="39.0337033" lon="16.5394217"><ele>857.0</ele><time>2026-03-29T13:32:37.582Z</time></trkpt><trkpt lat="39.0338083" lon="16.5393083"><ele>857.0</ele><time>2026-03-29T13:32:38.582Z</time></trkpt><trkpt lat="39.0338967" lon="16.5391667"><ele>857.0</ele><time>2026-03-29T13:32:39.582Z</time></trkpt><trkpt lat="39.03396" lon="16.539005"><ele>857.0</ele><time>2026-03-29T13:32:40.582Z</time></trkpt><trkpt lat="39.033985" lon="16.53881"><ele>857.0</ele><time>2026-03-29T13:32:41.582Z</time></trkpt><trkpt lat="39.0339583" lon="16.5385967"><ele>853.6666666666667</ele><time>2026-03-29T13:32:42.582Z</time></trkpt><trkpt lat="39.0339" lon="16.5383817"><ele>850.3333333333333</ele><time>2026-03-29T13:32:43.582Z</time></trkpt><trkpt lat="39.0338217" lon="16.5381567"><ele>847.0</ele><time>2026-03-29T13:32:44.582Z</time></trkpt><trkpt lat="39.033725" lon="16.537925"><ele>852.3333333333333</ele><time>2026-03-29T13:32:45.582Z</time></trkpt><trkpt lat="39.033625" lon="16.5377"><ele>857.6666666666667</ele><time>2026-03-29T13:32:46.582Z</time></trkpt><trkpt lat="39.03354" lon="16.5374883"><ele>863.0</ele><time>2026-03-29T13:32:47.582Z</time></trkpt><trkpt lat="39.0334833" lon="16.5372933"><ele>863.0</ele><time>2026-03-29T13:32:48.582Z</time></trkpt><trkpt lat="39.03346" lon="16.537075"><ele>863.0</ele><time>2026-03-29T13:32:49.582Z</time></trkpt><trkpt lat="39.0334717" lon="16.5368633"><ele>863.0</ele><time>2026-03-29T13:32:50.582Z</time></trkpt><trkpt lat="39.03352" lon="16.536655"><ele>863.0</ele><time>2026-03-29T13:32:51.582Z</time></trkpt><trkpt lat="39.0336" lon="16.5364683"><ele>863.0</ele><time>2026-03-29T13:32:52.582Z</time></trkpt><trkpt lat="39.0337083" lon="16.53632"><ele>863.0</ele><time>2026-03-29T13:32:53.582Z</time></trkpt><trkpt lat="39.033855" lon="16.53621"><ele>860.3333333333334</ele><time>2026-03-29T13:32:54.582Z</time></trkpt><trkpt lat="39.0340183" lon="16.5361267"><ele>857.6666666666667</ele><time>2026-03-29T13:32:55.583Z</time></trkpt><trkpt lat="39.0341683" lon="16.5360617"><ele>855.0</ele><time>2026-03-29T13:32:56.582Z</time></trkpt><trkpt lat="39.0343" lon="16.5359833"><ele>861.3333333333333</ele><time>2026-03-29T13:32:57.582Z</time></trkpt><trkpt lat="39.0344183" lon="16.5358633"><ele>867.6666666666666</ele><time>2026-03-29T13:32:58.582Z</time></trkpt><trkpt lat="39.0345067" lon="16.5356967"><ele>874.0</ele><time>2026-03-29T13:32:59.582Z</time></trkpt><trkpt lat="39.0345783" lon="16.5354983"><ele>868.6666666666666</ele><time>2026-03-29T13:33:00.582Z</time></trkpt><trkpt lat="39.0346567" lon="16.5352867"><ele>863.3333333333333</ele><time>2026-03-29T13:33:01.582Z</time></trkpt><trkpt lat="39.0347417" lon="16.5350833"><ele>858.0</ele><time>2026-03-29T13:33:02.582Z</time></trkpt><trkpt lat="39.03482" lon="16.534895"><ele>858.0</ele><time>2026-03-29T13:33:03.582Z</time></trkpt><trkpt lat="39.034895" lon="16.5347133"><ele>858.0</ele><time>2026-03-29T13:33:04.582Z</time></trkpt><trkpt lat="39.0349867" lon="16.5345633"><ele>858.0</ele><time>2026-03-29T13:33:05.582Z</time></trkpt><trkpt lat="39.0351033" lon="16.5344433"><ele>863.3333333333333</ele><time>2026-03-29T13:33:06.582Z</time></trkpt><trkpt lat="39.0352417" lon="16.5343617"><ele>868.6666666666666</ele><time>2026-03-29T13:33:07.582Z</time></trkpt><trkpt lat="39.0353933" lon="16.53433"><ele>874.0</ele><time>2026-03-29T13:33:08.582Z</time></trkpt><trkpt lat="39.0355583" lon="16.5343467"><ele>874.0</ele><time>2026-03-29T13:33:09.582Z</time></trkpt><trkpt lat="39.03574" lon="16.5343933"><ele>874.0</ele><time>2026-03-29T13:33:10.582Z</time></trkpt><trkpt lat="39.0359383" lon="16.5344467"><ele>874.0</ele><time>2026-03-29T13:33:11.582Z</time></trkpt><trkpt lat="39.03617" lon="16.5345117"><ele>894.0</ele><time>2026-03-29T13:33:12.582Z</time></trkpt><trkpt lat="39.0364017" lon="16.5345583"><ele>914.0</ele><time>2026-03-29T13:33:13.582Z</time></trkpt><trkpt lat="39.03666" lon="16.5346317"><ele>914.0</ele><time>2026-03-29T13:33:14.582Z</time></trkpt><trkpt lat="39.0369" lon="16.5346833"><ele>914.0</ele><time>2026-03-29T13:33:15.582Z</time></trkpt><trkpt lat="39.037115" lon="16.5347183"><ele>914.0</ele><time>2026-03-29T13:33:16.582Z</time></trkpt><trkpt lat="39.037315" lon="16.5347417"><ele>914.0</ele><time>2026-03-29T13:33:17.582Z</time></trkpt><trkpt lat="39.0374717" lon="16.53475"><ele>914.0</ele><time>2026-03-29T13:33:18.582Z</time></trkpt><trkpt lat="39.0376383" lon="16.5347717"><ele>911.6666666666667</ele><time>2026-03-29T13:33:19.582Z</time></trkpt><trkpt lat="39.0377867" lon="16.534835"><ele>909.3333333333333</ele><time>2026-03-29T13:33:20.582Z</time></trkpt><trkpt lat="39.0379467" lon="16.5349483"><ele>907.0</ele><time>2026-03-29T13:33:21.582Z</time></trkpt><trkpt lat="39.038105" lon="16.5350783"><ele>907.0</ele><time>2026-03-29T13:33:22.583Z</time></trkpt><trkpt lat="39.038255" lon="16.5351867"><ele>907.0</ele><time>2026-03-29T13:33:23.582Z</time></trkpt><trkpt lat="39.0383867" lon="16.5352767"><ele>907.0</ele><time>2026-03-29T13:33:24.582Z</time></trkpt><trkpt lat="39.0385183" lon="16.5353317"><ele>903.25</ele><time>2026-03-29T13:33:25.582Z</time></trkpt><trkpt lat="39.0386533" lon="16.5353467"><ele>899.5</ele><time>2026-03-29T13:33:26.582Z</time></trkpt><trkpt lat="39.0387917" lon="16.5353267"><ele>895.75</ele><time>2026-03-29T13:33:27.582Z</time></trkpt><trkpt lat="39.038915" lon="16.535305"><ele>892.0</ele><time>2026-03-29T13:33:28.582Z</time></trkpt><trkpt lat="39.0390383" lon="16.5352933"><ele>891.75</ele><time>2026-03-29T13:33:29.582Z</time></trkpt><trkpt lat="39.0391567" lon="16.53525"><ele>891.5</ele><time>2026-03-29T13:33:30.582Z</time></trkpt><trkpt lat="39.0392633" lon="16.53515"><ele>891.25</ele><time>2026-03-29T13:33:31.583Z</time></trkpt><trkpt lat="39.0393483" lon="16.5350317"><ele>891.0</ele><time>2026-03-29T13:33:32.582Z</time></trkpt><trkpt lat="39.03941" lon="16.534885"><ele>891.0</ele><time>2026-03-29T13:33:33.583Z</time></trkpt><trkpt lat="39.039445" lon="16.5347233"><ele>891.0</ele><time>2026-03-29T13:33:34.582Z</time></trkpt><trkpt lat="39.0394483" lon="16.5345467"><ele>891.0</ele><time>2026-03-29T13:33:35.582Z</time></trkpt><trkpt lat="39.0394433" lon="16.5343633"><ele>891.0</ele><time>2026-03-29T13:33:36.582Z</time></trkpt><trkpt lat="39.0394517" lon="16.5341867"><ele>888.25</ele><time>2026-03-29T13:33:37.582Z</time></trkpt><trkpt lat="39.03948" lon="16.5340217"><ele>885.5</ele><time>2026-03-29T13:33:38.582Z</time></trkpt><trkpt lat="39.039545" lon="16.5338883"><ele>882.75</ele><time>2026-03-29T13:33:39.582Z</time></trkpt><trkpt lat="39.039625" lon="16.5337583"><ele>880.0</ele><time>2026-03-29T13:33:40.582Z</time></trkpt><trkpt lat="39.039755" lon="16.5336767"><ele>880.6666666666666</ele><time>2026-03-29T13:33:41.582Z</time></trkpt><trkpt lat="39.03992" lon="16.533625"><ele>881.3333333333333</ele><time>2026-03-29T13:33:42.582Z</time></trkpt><trkpt lat="39.04011" lon="16.5335917"><ele>882.0</ele><time>2026-03-29T13:33:43.582Z</time></trkpt><trkpt lat="39.0402933" lon="16.533535"><ele>882.0</ele><time>2026-03-29T13:33:44.582Z</time></trkpt><trkpt lat="39.0404783" lon="16.5334917"><ele>882.0</ele><time>2026-03-29T13:33:45.582Z</time></trkpt><trkpt lat="39.040675" lon="16.5334367"><ele>882.0</ele><time>2026-03-29T13:33:46.582Z</time></trkpt><trkpt lat="39.0408833" lon="16.53336"><ele>887.0</ele><time>2026-03-29T13:33:47.582Z</time></trkpt><trkpt lat="39.0410833" lon="16.5332417"><ele>892.0</ele><time>2026-03-29T13:33:48.582Z</time></trkpt><trkpt lat="39.0412667" lon="16.5331333"><ele>897.0</ele><time>2026-03-29T13:33:49.582Z</time></trkpt><trkpt lat="39.0414183" lon="16.5330383"><ele>897.0</ele><time>2026-03-29T13:33:50.582Z</time></trkpt><trkpt lat="39.0415533" lon="16.532955"><ele>897.0</ele><time>2026-03-29T13:33:51.582Z</time></trkpt><trkpt lat="39.0416617" lon="16.5328517"><ele>897.0</ele><time>2026-03-29T13:33:52.582Z</time></trkpt><trkpt lat="39.0417433" lon="16.5327367"><ele>897.0</ele><time>2026-03-29T13:33:53.582Z</time></trkpt><trkpt lat="39.04181" lon="16.5326"><ele>898.75</ele><time>2026-03-29T13:33:54.582Z</time></trkpt><trkpt lat="39.0418433" lon="16.5324383"><ele>900.5</ele><time>2026-03-29T13:33:55.582Z</time></trkpt><trkpt lat="39.04183" lon="16.532265"><ele>902.25</ele><time>2026-03-29T13:33:56.582Z</time></trkpt><trkpt lat="39.0417683" lon="16.5321017"><ele>904.0</ele><time>2026-03-29T13:33:57.582Z</time></trkpt><trkpt lat="39.041655" lon="16.5319617"><ele>896.3333333333333</ele><time>2026-03-29T13:33:58.582Z</time></trkpt><trkpt lat="39.04152" lon="16.5318583"><ele>888.6666666666667</ele><time>2026-03-29T13:33:59.582Z</time></trkpt><trkpt lat="39.0413733" lon="16.5317917"><ele>881.0</ele><time>2026-03-29T13:34:00.582Z</time></trkpt><trkpt lat="39.0412283" lon="16.53173"><ele>881.0</ele><time>2026-03-29T13:34:01.582Z</time></trkpt><trkpt lat="39.0410967" lon="16.5316333"><ele>881.0</ele><time>2026-03-29T13:34:02.582Z</time></trkpt><trkpt lat="39.041005" lon="16.5314967"><ele>881.0</ele><time>2026-03-29T13:34:03.582Z</time></trkpt><trkpt lat="39.040935" lon="16.5313017"><ele>879.6666666666667</ele><time>2026-03-29T13:34:04.582Z</time></trkpt><trkpt lat="39.04088" lon="16.5310833"><ele>878.3333333333333</ele><time>2026-03-29T13:34:05.582Z</time></trkpt><trkpt lat="39.0408317" lon="16.5308683"><ele>877.0</ele><time>2026-03-29T13:34:06.582Z</time></trkpt><trkpt lat="39.0407783" lon="16.530655"><ele>877.0</ele><time>2026-03-29T13:34:07.582Z</time></trkpt><trkpt lat="39.04071" lon="16.5304367"><ele>877.0</ele><time>2026-03-29T13:34:08.582Z</time></trkpt><trkpt lat="39.0405967" lon="16.5302167"><ele>877.0</ele><time>2026-03-29T13:34:09.582Z</time></trkpt><trkpt lat="39.0404317" lon="16.5300183"><ele>888.5</ele><time>2026-03-29T13:34:10.582Z</time></trkpt><trkpt lat="39.0402367" lon="16.5298433"><ele>900.0</ele><time>2026-03-29T13:34:11.582Z</time></trkpt><trkpt lat="39.0400383" lon="16.5296633"><ele>898.6666666666667</ele><time>2026-03-29T13:34:12.582Z</time></trkpt><trkpt lat="39.0398617" lon="16.5295033"><ele>897.3333333333334</ele><time>2026-03-29T13:34:13.582Z</time></trkpt><trkpt lat="39.03972" lon="16.5293617"><ele>896.0</ele><time>2026-03-29T13:34:14.582Z</time></trkpt><trkpt lat="39.03961" lon="16.52922"><ele>896.0</ele><time>2026-03-29T13:34:15.582Z</time></trkpt><trkpt lat="39.03952" lon="16.529045"><ele>896.0</ele><time>2026-03-29T13:34:16.582Z</time></trkpt><trkpt lat="39.0394467" lon="16.5288417"><ele>896.0</ele><time>2026-03-29T13:34:17.582Z</time></trkpt><trkpt lat="39.0393883" lon="16.5286117"><ele>900.3333333333334</ele><time>2026-03-29T13:34:18.582Z</time></trkpt><trkpt lat="39.039335" lon="16.5283833"><ele>904.6666666666667</ele><time>2026-03-29T13:34:19.582Z</time></trkpt><trkpt lat="39.0392933" lon="16.528185"><ele>909.0</ele><time>2026-03-29T13:34:20.582Z</time></trkpt><trkpt lat="39.039265" lon="16.52801"><ele>910.0</ele><time>2026-03-29T13:34:21.582Z</time></trkpt><trkpt lat="39.0392633" lon="16.5278233"><ele>911.0</ele><time>2026-03-29T13:34:22.582Z</time></trkpt><trkpt lat="39.039305" lon="16.527625"><ele>912.0</ele><time>2026-03-29T13:34:23.583Z</time></trkpt><trkpt lat="39.0393633" lon="16.5274"><ele>912.0</ele><time>2026-03-29T13:34:24.582Z</time></trkpt><trkpt lat="39.0394433" lon="16.5271633"><ele>912.0</ele><time>2026-03-29T13:34:25.582Z</time></trkpt><trkpt lat="39.0395283" lon="16.5269267"><ele>912.0</ele><time>2026-03-29T13:34:26.582Z</time></trkpt><trkpt lat="39.03961" lon="16.5266867"><ele>908.3333333333333</ele><time>2026-03-29T13:34:27.582Z</time></trkpt><trkpt lat="39.03968" lon="16.526475"><ele>904.6666666666666</ele><time>2026-03-29T13:34:28.582Z</time></trkpt><trkpt lat="39.039745" lon="16.52627"><ele>901.0</ele><time>2026-03-29T13:34:29.582Z</time></trkpt><trkpt lat="39.0398217" lon="16.526075"><ele>899.0</ele><time>2026-03-29T13:34:30.582Z</time></trkpt><trkpt lat="39.0399217" lon="16.5258817"><ele>897.0</ele><time>2026-03-29T13:34:31.582Z</time></trkpt><trkpt lat="39.0400433" lon="16.52567"><ele>895.0</ele><time>2026-03-29T13:34:32.582Z</time></trkpt><trkpt lat="39.0401883" lon="16.525455"><ele>903.3333333333333</ele><time>2026-03-29T13:34:33.582Z</time></trkpt><trkpt lat="39.0403383" lon="16.5252367"><ele>911.6666666666667</ele><time>2026-03-29T13:34:34.582Z</time></trkpt><trkpt lat="39.0404783" lon="16.5250417"><ele>920.0</ele><time>2026-03-29T13:34:35.582Z</time></trkpt><trkpt lat="39.0406033" lon="16.5248967"><ele>920.0</ele><time>2026-03-29T13:34:36.583Z</time></trkpt><trkpt lat="39.0407417" lon="16.5248"><ele>920.0</ele><time>2026-03-29T13:34:37.582Z</time></trkpt><trkpt lat="39.04091" lon="16.5247467"><ele>920.0</ele><time>2026-03-29T13:34:38.583Z</time></trkpt><trkpt lat="39.0410983" lon="16.5247367"><ele>927.6666666666667</ele><time>2026-03-29T13:34:39.582Z</time></trkpt><trkpt lat="39.0413017" lon="16.5247633"><ele>935.3333333333333</ele><time>2026-03-29T13:34:40.582Z</time></trkpt><trkpt lat="39.0415067" lon="16.5247933"><ele>943.0</ele><time>2026-03-29T13:34:41.582Z</time></trkpt><trkpt lat="39.0417133" lon="16.52479"><ele>947.3333333333333</ele><time>2026-03-29T13:34:42.582Z</time></trkpt><trkpt lat="39.04193" lon="16.5247617"><ele>951.6666666666667</ele><time>2026-03-29T13:34:43.582Z</time></trkpt><trkpt lat="39.0421483" lon="16.5247267"><ele>956.0</ele><time>2026-03-29T13:34:44.582Z</time></trkpt><trkpt lat="39.0423683" lon="16.524685"><ele>960.0</ele><time>2026-03-29T13:34:45.582Z</time></trkpt><trkpt lat="39.0425617" lon="16.5246517"><ele>964.0</ele><time>2026-03-29T13:34:46.582Z</time></trkpt><trkpt lat="39.0427183" lon="16.52463"><ele>968.0</ele><time>2026-03-29T13:34:47.582Z</time></trkpt><trkpt lat="39.04286" lon="16.5245917"><ele>961.25</ele><time>2026-03-29T13:34:48.582Z</time></trkpt><trkpt lat="39.0429867" lon="16.5245117"><ele>954.5</ele><time>2026-03-29T13:34:49.582Z</time></trkpt><trkpt lat="39.0430767" lon="16.5244067"><ele>947.75</ele><time>2026-03-29T13:34:50.582Z</time></trkpt><trkpt lat="39.0431567" lon="16.5242767"><ele>941.0</ele><time>2026-03-29T13:34:51.582Z</time></trkpt><trkpt lat="39.04322" lon="16.5241133"><ele>941.0</ele><time>2026-03-29T13:34:52.582Z</time></trkpt><trkpt lat="39.0432483" lon="16.5239317"><ele>941.0</ele><time>2026-03-29T13:34:53.582Z</time></trkpt><trkpt lat="39.0432367" lon="16.5237383"><ele>941.0</ele><time>2026-03-29T13:34:54.582Z</time></trkpt><trkpt lat="39.0432017" lon="16.523545"><ele>941.0</ele><time>2026-03-29T13:34:55.583Z</time></trkpt><trkpt lat="39.0431717" lon="16.52336"><ele>934.0</ele><time>2026-03-29T13:34:56.583Z</time></trkpt><trkpt lat="39.04318" lon="16.523155"><ele>927.0</ele><time>2026-03-29T13:34:57.583Z</time></trkpt><trkpt lat="39.0432217" lon="16.522925"><ele>920.0</ele><time>2026-03-29T13:34:58.583Z</time></trkpt><trkpt lat="39.0432917" lon="16.5226683"><ele>931.3333333333334</ele><time>2026-03-29T13:34:59.583Z</time></trkpt><trkpt lat="39.0433667" lon="16.5224"><ele>942.6666666666667</ele><time>2026-03-29T13:35:00.583Z</time></trkpt><trkpt lat="39.043435" lon="16.52216"><ele>954.0</ele><time>2026-03-29T13:35:01.583Z</time></trkpt><trkpt lat="39.0435067" lon="16.52194"><ele>954.0</ele><time>2026-03-29T13:35:02.583Z</time></trkpt><trkpt lat="39.0435983" lon="16.5217667"><ele>954.0</ele><time>2026-03-29T13:35:03.583Z</time></trkpt><trkpt lat="39.04372" lon="16.52163"><ele>954.0</ele><time>2026-03-29T13:35:04.583Z</time></trkpt><trkpt lat="39.0438667" lon="16.521515"><ele>954.0</ele><time>2026-03-29T13:35:05.583Z</time></trkpt><trkpt lat="39.0440433" lon="16.52142"><ele>954.0</ele><time>2026-03-29T13:35:06.583Z</time></trkpt><trkpt lat="39.0442567" lon="16.5213417"><ele>954.0</ele><time>2026-03-29T13:35:07.583Z</time></trkpt><trkpt lat="39.0445017" lon="16.5212683"><ele>955.5</ele><time>2026-03-29T13:35:08.583Z</time></trkpt><trkpt lat="39.0447433" lon="16.5211917"><ele>957.0</ele><time>2026-03-29T13:35:09.583Z</time></trkpt><trkpt lat="39.044985" lon="16.5211033"><ele>963.0</ele><time>2026-03-29T13:35:10.583Z</time></trkpt><trkpt lat="39.045245" lon="16.521005"><ele>969.0</ele><time>2026-03-29T13:35:11.583Z</time></trkpt><trkpt lat="39.0454983" lon="16.5209067"><ele>969.0</ele><time>2026-03-29T13:35:12.583Z</time></trkpt><trkpt lat="39.0457383" lon="16.52082"><ele>969.0</ele><time>2026-03-29T13:35:13.583Z</time></trkpt><trkpt lat="39.0459417" lon="16.5207533"><ele>974.0</ele><time>2026-03-29T13:35:14.583Z</time></trkpt><trkpt lat="39.0461233" lon="16.520675"><ele>979.0</ele><time>2026-03-29T13:35:15.583Z</time></trkpt><trkpt lat="39.0463" lon="16.5206183"><ele>984.0</ele><time>2026-03-29T13:35:16.583Z</time></trkpt><trkpt lat="39.04649" lon="16.520595"><ele>987.6666666666667</ele><time>2026-03-29T13:35:17.583Z</time></trkpt><trkpt lat="39.0466883" lon="16.5206267"><ele>991.3333333333334</ele><time>2026-03-29T13:35:18.583Z</time></trkpt><trkpt lat="39.0468883" lon="16.5207033"><ele>995.0</ele><time>2026-03-29T13:35:19.583Z</time></trkpt><trkpt lat="39.0470867" lon="16.520815"><ele>995.0</ele><time>2026-03-29T13:35:20.583Z</time></trkpt><trkpt lat="39.0472733" lon="16.5209217"><ele>995.0</ele><time>2026-03-29T13:35:21.583Z</time></trkpt><trkpt lat="39.0474483" lon="16.5210317"><ele>995.0</ele><time>2026-03-29T13:35:22.583Z</time></trkpt><trkpt lat="39.0476133" lon="16.5211283"><ele>992.6666666666667</ele><time>2026-03-29T13:35:23.584Z</time></trkpt><trkpt lat="39.0477767" lon="16.52122"><ele>990.3333333333333</ele><time>2026-03-29T13:35:24.583Z</time></trkpt><trkpt lat="39.0479267" lon="16.5212983"><ele>988.0</ele><time>2026-03-29T13:35:25.583Z</time></trkpt><trkpt lat="39.048065" lon="16.5213533"><ele>994.5</ele><time>2026-03-29T13:35:26.583Z</time></trkpt><trkpt lat="39.04821" lon="16.52139"><ele>1001.0</ele><time>2026-03-29T13:35:27.583Z</time></trkpt><trkpt lat="39.04836" lon="16.5213883"><ele>1007.5</ele><time>2026-03-29T13:35:28.583Z</time></trkpt><trkpt lat="39.048505" lon="16.5213467"><ele>1014.0</ele><time>2026-03-29T13:35:29.583Z</time></trkpt><trkpt lat="39.04865" lon="16.5212617"><ele>1004.3333333333333</ele><time>2026-03-29T13:35:30.583Z</time></trkpt><trkpt lat="39.04878" lon="16.5211483"><ele>994.6666666666666</ele><time>2026-03-29T13:35:31.583Z</time></trkpt><trkpt lat="39.0488933" lon="16.5210167"><ele>985.0</ele><time>2026-03-29T13:35:32.583Z</time></trkpt><trkpt lat="39.04902" lon="16.5208583"><ele>989.6666666666666</ele><time>2026-03-29T13:35:33.583Z</time></trkpt><trkpt lat="39.04917" lon="16.52071"><ele>994.3333333333333</ele><time>2026-03-29T13:35:34.583Z</time></trkpt><trkpt lat="39.0493133" lon="16.5205917"><ele>999.0</ele><time>2026-03-29T13:35:35.583Z</time></trkpt><trkpt lat="39.0494267" lon="16.5204833"><ele>999.0</ele><time>2026-03-29T13:35:36.583Z</time></trkpt><trkpt lat="39.0495567" lon="16.5204183"><ele>999.0</ele><time>2026-03-29T13:35:37.583Z</time></trkpt><trkpt lat="39.0497083" lon="16.5203983"><ele>999.0</ele><time>2026-03-29T13:35:38.583Z</time></trkpt><trkpt lat="39.04988" lon="16.5204267"><ele>1004.6666666666667</ele><time>2026-03-29T13:35:39.583Z</time></trkpt><trkpt lat="39.05005" lon="16.5204667"><ele>1010.3333333333334</ele><time>2026-03-29T13:35:40.583Z</time></trkpt><trkpt lat="39.0502217" lon="16.5205033"><ele>1016.0</ele><time>2026-03-29T13:35:41.583Z</time></trkpt><trkpt lat="39.050405" lon="16.5205433"><ele>1016.0</ele><time>2026-03-29T13:35:42.583Z</time></trkpt><trkpt lat="39.050575" lon="16.52054"><ele>1016.0</ele><time>2026-03-29T13:35:43.583Z</time></trkpt><trkpt lat="39.0507717" lon="16.5205417"><ele>1016.0</ele><time>2026-03-29T13:35:44.583Z</time></trkpt><trkpt lat="39.0509883" lon="16.5205183"><ele>1018.6666666666667</ele><time>2026-03-29T13:35:45.584Z</time></trkpt><trkpt lat="39.051205" lon="16.5204767"><ele>1021.3333333333333</ele><time>2026-03-29T13:35:46.583Z</time></trkpt><trkpt lat="39.0514317" lon="16.520445"><ele>1024.0</ele><time>2026-03-29T13:35:47.583Z</time></trkpt><trkpt lat="39.0516717" lon="16.5204067"><ele>1007.0</ele><time>2026-03-29T13:35:48.583Z</time></trkpt><trkpt lat="39.0519317" lon="16.52037"><ele>990.0</ele><time>2026-03-29T13:35:49.583Z</time></trkpt><trkpt lat="39.0522017" lon="16.5203267"><ele>998.0</ele><time>2026-03-29T13:35:50.583Z</time></trkpt><trkpt lat="39.0524767" lon="16.52029"><ele>1006.0</ele><time>2026-03-29T13:35:51.583Z</time></trkpt><trkpt lat="39.0527483" lon="16.5202517"><ele>1006.0</ele><time>2026-03-29T13:35:52.583Z</time></trkpt><trkpt lat="39.053005" lon="16.520235"><ele>1006.0</ele><time>2026-03-29T13:35:53.583Z</time></trkpt><trkpt lat="39.0532417" lon="16.5201967"><ele>1009.3333333333333</ele><time>2026-03-29T13:35:54.583Z</time></trkpt><trkpt lat="39.0534533" lon="16.520135"><ele>1012.6666666666667</ele><time>2026-03-29T13:35:55.583Z</time></trkpt><trkpt lat="39.0536533" lon="16.52004"><ele>1016.0</ele><time>2026-03-29T13:35:56.583Z</time></trkpt><trkpt lat="39.0538383" lon="16.5199233"><ele>1016.0</ele><time>2026-03-29T13:35:57.583Z</time></trkpt><trkpt lat="39.0540267" lon="16.5198383"><ele>1016.0</ele><time>2026-03-29T13:35:58.583Z</time></trkpt><trkpt lat="39.0542167" lon="16.5197433"><ele>1016.0</ele><time>2026-03-29T13:35:59.583Z</time></trkpt><trkpt lat="39.054415" lon="16.51964"><ele>1009.6666666666667</ele><time>2026-03-29T13:36:00.583Z</time></trkpt><trkpt lat="39.054605" lon="16.5195467"><ele>1003.3333333333333</ele><time>2026-03-29T13:36:01.583Z</time></trkpt><trkpt lat="39.0547783" lon="16.5194567"><ele>997.0</ele><time>2026-03-29T13:36:02.583Z</time></trkpt><trkpt lat="39.05495" lon="16.5193833"><ele>1002.6666666666666</ele><time>2026-03-29T13:36:03.583Z</time></trkpt><trkpt lat="39.05512" lon="16.5193183"><ele>1008.3333333333333</ele><time>2026-03-29T13:36:04.583Z</time></trkpt><trkpt lat="39.055305" lon="16.5192583"><ele>1014.0</ele><time>2026-03-29T13:36:05.583Z</time></trkpt><trkpt lat="39.0554867" lon="16.519195"><ele>1014.0</ele><time>2026-03-29T13:36:06.583Z</time></trkpt><trkpt lat="39.0556583" lon="16.5191367"><ele>1014.0</ele><time>2026-03-29T13:36:07.583Z</time></trkpt><trkpt lat="39.05581" lon="16.5191067"><ele>1014.0</ele><time>2026-03-29T13:36:08.583Z</time></trkpt><trkpt lat="39.0559483" lon="16.519065"><ele>1009.75</ele><time>2026-03-29T13:36:09.583Z</time></trkpt><trkpt lat="39.0560683" lon="16.5190033"><ele>1005.5</ele><time>2026-03-29T13:36:10.583Z</time></trkpt><trkpt lat="39.0561683" lon="16.51891"><ele>1001.25</ele><time>2026-03-29T13:36:11.583Z</time></trkpt><trkpt lat="39.0562533" lon="16.51879"><ele>997.0</ele><time>2026-03-29T13:36:12.583Z</time></trkpt><trkpt lat="39.0563517" lon="16.51867"><ele>997.0</ele><time>2026-03-29T13:36:13.583Z</time></trkpt><trkpt lat="39.0564317" lon="16.5185233"><ele>997.0</ele><time>2026-03-29T13:36:14.583Z</time></trkpt><trkpt lat="39.0565083" lon="16.518365"><ele>997.0</ele><time>2026-03-29T13:36:15.583Z</time></trkpt><trkpt lat="39.0565833" lon="16.5182033"><ele>997.0</ele><time>2026-03-29T13:36:16.583Z</time></trkpt><trkpt lat="39.05668" lon="16.5180517"><ele>1004.0</ele><time>2026-03-29T13:36:17.583Z</time></trkpt><trkpt lat="39.05678" lon="16.5179083"><ele>1011.0</ele><time>2026-03-29T13:36:18.583Z</time></trkpt><trkpt lat="39.056895" lon="16.5177717"><ele>1018.0</ele><time>2026-03-29T13:36:19.583Z</time></trkpt><trkpt lat="39.0570017" lon="16.5176333"><ele>1018.0</ele><time>2026-03-29T13:36:20.583Z</time></trkpt><trkpt lat="39.057115" lon="16.517495"><ele>1018.0</ele><time>2026-03-29T13:36:21.583Z</time></trkpt><trkpt lat="39.0572333" lon="16.517375"><ele>1018.0</ele><time>2026-03-29T13:36:22.583Z</time></trkpt><trkpt lat="39.057335" lon="16.5172633"><ele>1018.0</ele><time>2026-03-29T13:36:23.583Z</time></trkpt><trkpt lat="39.057425" lon="16.517165"><ele>1019.25</ele><time>2026-03-29T13:36:24.583Z</time></trkpt><trkpt lat="39.0575233" lon="16.5170983"><ele>1020.5</ele><time>2026-03-29T13:36:25.583Z</time></trkpt><trkpt lat="39.05764" lon="16.51705"><ele>1021.75</ele><time>2026-03-29T13:36:26.583Z</time></trkpt><trkpt lat="39.057755" lon="16.5170367"><ele>1023.0</ele><time>2026-03-29T13:36:27.583Z</time></trkpt><trkpt lat="39.0578633" lon="16.517055"><ele>1028.8</ele><time>2026-03-29T13:36:28.583Z</time></trkpt><trkpt lat="39.0579667" lon="16.5170917"><ele>1034.6</ele><time>2026-03-29T13:36:29.583Z</time></trkpt><trkpt lat="39.0580433" lon="16.5171183"><ele>1040.4</ele><time>2026-03-29T13:36:30.583Z</time></trkpt><trkpt lat="39.0581367" lon="16.517165"><ele>1046.2</ele><time>2026-03-29T13:36:31.584Z</time></trkpt><trkpt lat="39.0582317" lon="16.5172"><ele>1052.0</ele><time>2026-03-29T13:36:32.583Z</time></trkpt><trkpt lat="39.0583267" lon="16.5172133"><ele>1054.6</ele><time>2026-03-29T13:36:33.583Z</time></trkpt><trkpt lat="39.058415" lon="16.5172217"><ele>1057.2</ele><time>2026-03-29T13:36:34.583Z</time></trkpt><trkpt lat="39.0585083" lon="16.5172"><ele>1059.8</ele><time>2026-03-29T13:36:35.583Z</time></trkpt><trkpt lat="39.0585933" lon="16.517155"><ele>1062.4</ele><time>2026-03-29T13:36:36.583Z</time></trkpt><trkpt lat="39.0586783" lon="16.5170817"><ele>1065.0</ele><time>2026-03-29T13:36:37.583Z</time></trkpt><trkpt lat="39.0588033" lon="16.5170267"><ele>1055.0</ele><time>2026-03-29T13:36:38.583Z</time></trkpt><trkpt lat="39.0590567" lon="16.5169717"><ele>1045.0</ele><time>2026-03-29T13:36:40.583Z</time></trkpt><trkpt lat="39.05919" lon="16.516985"><ele>1035.0</ele><time>2026-03-29T13:36:41.583Z</time></trkpt><trkpt lat="39.05933" lon="16.517045"><ele>1048.3333333333333</ele><time>2026-03-29T13:36:42.583Z</time></trkpt><trkpt lat="39.0594583" lon="16.5171483"><ele>1061.6666666666665</ele><time>2026-03-29T13:36:43.583Z</time></trkpt><trkpt lat="39.0595883" lon="16.5172717"><ele>1075.0</ele><time>2026-03-29T13:36:44.583Z</time></trkpt><trkpt lat="39.0596983" lon="16.517385"><ele>1075.0</ele><time>2026-03-29T13:36:45.583Z</time></trkpt><trkpt lat="39.05979" lon="16.5174767"><ele>1075.0</ele><time>2026-03-29T13:36:46.583Z</time></trkpt><trkpt lat="39.059865" lon="16.5175683"><ele>1075.0</ele><time>2026-03-29T13:36:47.583Z</time></trkpt><trkpt lat="39.05994" lon="16.5176717"><ele>1075.0</ele><time>2026-03-29T13:36:48.583Z</time></trkpt><trkpt lat="39.05999" lon="16.5177633"><ele>1075.0</ele><time>2026-03-29T13:36:49.583Z</time></trkpt><trkpt lat="39.0600383" lon="16.517875"><ele>1076.4</ele><time>2026-03-29T13:36:50.583Z</time></trkpt><trkpt lat="39.060075" lon="16.5180017"><ele>1077.8</ele><time>2026-03-29T13:36:51.583Z</time></trkpt><trkpt lat="39.0601017" lon="16.51813"><ele>1079.2</ele><time>2026-03-29T13:36:52.583Z</time></trkpt><trkpt lat="39.0601483" lon="16.5182617"><ele>1080.6</ele><time>2026-03-29T13:36:53.583Z</time></trkpt><trkpt lat="39.06021" lon="16.5183917"><ele>1082.0</ele><time>2026-03-29T13:36:54.583Z</time></trkpt><trkpt lat="39.06028" lon="16.51851"><ele>1082.0</ele><time>2026-03-29T13:36:55.583Z</time></trkpt><trkpt lat="39.0603683" lon="16.5185983"><ele>1082.0</ele><time>2026-03-29T13:36:56.583Z</time></trkpt><trkpt lat="39.0604717" lon="16.518675"><ele>1082.0</ele><time>2026-03-29T13:36:57.583Z</time></trkpt><trkpt lat="39.0605833" lon="16.51875"><ele>1082.0</ele><time>2026-03-29T13:36:58.583Z</time></trkpt><trkpt lat="39.060695" lon="16.5188167"><ele>1081.0</ele><time>2026-03-29T13:36:59.583Z</time></trkpt><trkpt lat="39.0608217" lon="16.5189"><ele>1080.0</ele><time>2026-03-29T13:37:00.583Z</time></trkpt><trkpt lat="39.0609283" lon="16.5189917"><ele>1079.0</ele><time>2026-03-29T13:37:01.583Z</time></trkpt><trkpt lat="39.0610533" lon="16.5190767"><ele>1078.0</ele><time>2026-03-29T13:37:02.583Z</time></trkpt><trkpt lat="39.06118" lon="16.5191617"><ele>1078.0</ele><time>2026-03-29T13:37:03.583Z</time></trkpt><trkpt lat="39.0613117" lon="16.5192383"><ele>1078.0</ele><time>2026-03-29T13:37:04.583Z</time></trkpt><trkpt lat="39.0614083" lon="16.5193133"><ele>1078.0</ele><time>2026-03-29T13:37:05.583Z</time></trkpt><trkpt lat="39.0615183" lon="16.519395"><ele>1078.0</ele><time>2026-03-29T13:37:06.584Z</time></trkpt><trkpt lat="39.0616383" lon="16.5194767"><ele>1073.5</ele><time>2026-03-29T13:37:07.583Z</time></trkpt><trkpt lat="39.061775" lon="16.519535"><ele>1069.0</ele><time>2026-03-29T13:37:08.583Z</time></trkpt><trkpt lat="39.0619" lon="16.5195983"><ele>1064.5</ele><time>2026-03-29T13:37:09.583Z</time></trkpt><trkpt lat="39.0620083" lon="16.5196367"><ele>1060.0</ele><time>2026-03-29T13:37:10.583Z</time></trkpt><trkpt lat="39.0621067" lon="16.519655"><ele>1060.0</ele><time>2026-03-29T13:37:11.583Z</time></trkpt><trkpt lat="39.0621917" lon="16.5196417"><ele>1060.0</ele><time>2026-03-29T13:37:12.584Z</time></trkpt><trkpt lat="39.0622683" lon="16.519605"><ele>1060.0</ele><time>2026-03-29T13:37:13.583Z</time></trkpt><trkpt lat="39.0623567" lon="16.519545"><ele>1060.0</ele><time>2026-03-29T13:37:14.583Z</time></trkpt><trkpt lat="39.0624483" lon="16.5194467"><ele>1060.0</ele><time>2026-03-29T13:37:15.583Z</time></trkpt><trkpt lat="39.0625333" lon="16.51933"><ele>1062.0</ele><time>2026-03-29T13:37:16.583Z</time></trkpt><trkpt lat="39.0626117" lon="16.5191967"><ele>1064.0</ele><time>2026-03-29T13:37:17.583Z</time></trkpt><trkpt lat="39.0626783" lon="16.51906"><ele>1066.0</ele><time>2026-03-29T13:37:18.583Z</time></trkpt><trkpt lat="39.0627417" lon="16.5189283"><ele>1068.0</ele><time>2026-03-29T13:37:19.583Z</time></trkpt><trkpt lat="39.0628" lon="16.5188133"><ele>1063.8</ele><time>2026-03-29T13:37:20.583Z</time></trkpt><trkpt lat="39.0628733" lon="16.51871"><ele>1059.6</ele><time>2026-03-29T13:37:21.583Z</time></trkpt><trkpt lat="39.06296" lon="16.5186283"><ele>1055.4</ele><time>2026-03-29T13:37:22.583Z</time></trkpt><trkpt lat="39.0630517" lon="16.5185583"><ele>1051.2</ele><time>2026-03-29T13:37:23.583Z</time></trkpt><trkpt lat="39.0631567" lon="16.5185217"><ele>1047.0</ele><time>2026-03-29T13:37:24.583Z</time></trkpt><trkpt lat="39.0632683" lon="16.5185217"><ele>1051.0</ele><time>2026-03-29T13:37:25.583Z</time></trkpt><trkpt lat="39.0633783" lon="16.5185667"><ele>1055.0</ele><time>2026-03-29T13:37:26.583Z</time></trkpt><trkpt lat="39.0634767" lon="16.5186283"><ele>1059.0</ele><time>2026-03-29T13:37:27.583Z</time></trkpt><trkpt lat="39.0635733" lon="16.5186967"><ele>1063.0</ele><time>2026-03-29T13:37:28.584Z</time></trkpt><trkpt lat="39.06368" lon="16.5187517"><ele>1069.5</ele><time>2026-03-29T13:37:29.583Z</time></trkpt><trkpt lat="39.0637967" lon="16.5188"><ele>1076.0</ele><time>2026-03-29T13:37:30.583Z</time></trkpt><trkpt lat="39.0639067" lon="16.51882"><ele>1082.5</ele><time>2026-03-29T13:37:31.584Z</time></trkpt><trkpt lat="39.0640267" lon="16.5188317"><ele>1089.0</ele><time>2026-03-29T13:37:32.583Z</time></trkpt><trkpt lat="39.0641233" lon="16.5187883"><ele>1084.25</ele><time>2026-03-29T13:37:33.583Z</time></trkpt><trkpt lat="39.0642083" lon="16.5187167"><ele>1079.5</ele><time>2026-03-29T13:37:34.583Z</time></trkpt><trkpt lat="39.06432" lon="16.5186433"><ele>1074.75</ele><time>2026-03-29T13:37:35.583Z</time></trkpt><trkpt lat="39.064425" lon="16.518535"><ele>1070.0</ele><time>2026-03-29T13:37:36.583Z</time></trkpt><trkpt lat="39.0645" lon="16.518385"><ele>1070.0</ele><time>2026-03-29T13:37:37.583Z</time></trkpt><trkpt lat="39.0645867" lon="16.5182417"><ele>1070.0</ele><time>2026-03-29T13:37:38.583Z</time></trkpt><trkpt lat="39.064685" lon="16.518095"><ele>1070.0</ele><time>2026-03-29T13:37:39.583Z</time></trkpt><trkpt lat="39.06478" lon="16.5179533"><ele>1070.0</ele><time>2026-03-29T13:37:40.584Z</time></trkpt><trkpt lat="39.064865" lon="16.5178033"><ele>1073.25</ele><time>2026-03-29T13:37:41.583Z</time></trkpt><trkpt lat="39.0649333" lon="16.5176633"><ele>1076.5</ele><time>2026-03-29T13:37:42.583Z</time></trkpt><trkpt lat="39.064975" lon="16.5175167"><ele>1079.75</ele><time>2026-03-29T13:37:43.583Z</time></trkpt><trkpt lat="39.06501" lon="16.5173567"><ele>1083.0</ele><time>2026-03-29T13:37:44.583Z</time></trkpt><trkpt lat="39.064995" lon="16.51718"><ele>1075.0</ele><time>2026-03-29T13:37:45.583Z</time></trkpt><trkpt lat="39.06494" lon="16.5170067"><ele>1067.0</ele><time>2026-03-29T13:37:46.583Z</time></trkpt><trkpt lat="39.06489" lon="16.5168583"><ele>1059.0</ele><time>2026-03-29T13:37:47.583Z</time></trkpt><trkpt lat="39.06485" lon="16.5167217"><ele>1051.0</ele><time>2026-03-29T13:37:48.583Z</time></trkpt><trkpt lat="39.06484" lon="16.5165883"><ele>1051.0</ele><time>2026-03-29T13:37:49.583Z</time></trkpt><trkpt lat="39.0648567" lon="16.5164483"><ele>1051.0</ele><time>2026-03-29T13:37:50.583Z</time></trkpt><trkpt lat="39.0649017" lon="16.51632"><ele>1051.0</ele><time>2026-03-29T13:37:51.583Z</time></trkpt><trkpt lat="39.064955" lon="16.51621"><ele>1051.0</ele><time>2026-03-29T13:37:52.583Z</time></trkpt><trkpt lat="39.06503" lon="16.51611"><ele>1051.0</ele><time>2026-03-29T13:37:53.584Z</time></trkpt><trkpt lat="39.0651033" lon="16.5160267"><ele>1054.75</ele><time>2026-03-29T13:37:54.583Z</time></trkpt><trkpt lat="39.0651917" lon="16.5159633"><ele>1058.5</ele><time>2026-03-29T13:37:55.583Z</time></trkpt><trkpt lat="39.0653067" lon="16.5159167"><ele>1062.25</ele><time>2026-03-29T13:37:56.583Z</time></trkpt><trkpt lat="39.0654283" lon="16.51588"><ele>1066.0</ele><time>2026-03-29T13:37:57.583Z</time></trkpt><trkpt lat="39.0655467" lon="16.51586"><ele>1066.0</ele><time>2026-03-29T13:37:58.583Z</time></trkpt><trkpt lat="39.0656567" lon="16.51586"><ele>1066.0</ele><time>2026-03-29T13:37:59.583Z</time></trkpt><trkpt lat="39.0657833" lon="16.5158433"><ele>1066.0</ele><time>2026-03-29T13:38:00.583Z</time></trkpt><trkpt lat="39.0659117" lon="16.51586"><ele>1066.0</ele><time>2026-03-29T13:38:01.583Z</time></trkpt><trkpt lat="39.0660517" lon="16.5158983"><ele>1069.6666666666665</ele><time>2026-03-29T13:38:02.583Z</time></trkpt><trkpt lat="39.0661883" lon="16.5159183"><ele>1073.3333333333333</ele><time>2026-03-29T13:38:03.583Z</time></trkpt><trkpt lat="39.0663383" lon="16.5159"><ele>1077.0</ele><time>2026-03-29T13:38:04.583Z</time></trkpt><trkpt lat="39.0665067" lon="16.5158583"><ele>1079.0</ele><time>2026-03-29T13:38:05.583Z</time></trkpt><trkpt lat="39.066665" lon="16.515775"><ele>1081.0</ele><time>2026-03-29T13:38:06.583Z</time></trkpt><trkpt lat="39.0668183" lon="16.5156583"><ele>1083.0</ele><time>2026-03-29T13:38:07.583Z</time></trkpt><trkpt lat="39.0669667" lon="16.5155483"><ele>1083.0</ele><time>2026-03-29T13:38:08.584Z</time></trkpt><trkpt lat="39.0671167" lon="16.51545"><ele>1083.0</ele><time>2026-03-29T13:38:09.583Z</time></trkpt><trkpt lat="39.0672583" lon="16.5153717"><ele>1083.0</ele><time>2026-03-29T13:38:10.584Z</time></trkpt><trkpt lat="39.0673933" lon="16.5152867"><ele>1079.0</ele><time>2026-03-29T13:38:11.583Z</time></trkpt><trkpt lat="39.0675233" lon="16.5151983"><ele>1075.0</ele><time>2026-03-29T13:38:12.583Z</time></trkpt><trkpt lat="39.06765" lon="16.5151133"><ele>1071.0</ele><time>2026-03-29T13:38:13.584Z</time></trkpt><trkpt lat="39.067775" lon="16.51503"><ele>1067.0</ele><time>2026-03-29T13:38:14.583Z</time></trkpt><trkpt lat="39.0678833" lon="16.51495"><ele>1067.0</ele><time>2026-03-29T13:38:15.583Z</time></trkpt><trkpt lat="39.0679683" lon="16.5148967"><ele>1067.0</ele><time>2026-03-29T13:38:16.583Z</time></trkpt><trkpt lat="39.06807" lon="16.5148317"><ele>1067.0</ele><time>2026-03-29T13:38:17.583Z</time></trkpt><trkpt lat="39.06816" lon="16.514775"><ele>1067.0</ele><time>2026-03-29T13:38:18.583Z</time></trkpt><trkpt lat="39.0682567" lon="16.5147217"><ele>1067.0</ele><time>2026-03-29T13:38:19.583Z</time></trkpt><trkpt lat="39.06834" lon="16.5146917"><ele>1069.0</ele><time>2026-03-29T13:38:20.583Z</time></trkpt><trkpt lat="39.06843" lon="16.5146717"><ele>1071.0</ele><time>2026-03-29T13:38:21.583Z</time></trkpt><trkpt lat="39.06854" lon="16.5146683"><ele>1073.0</ele><time>2026-03-29T13:38:22.583Z</time></trkpt><trkpt lat="39.0686517" lon="16.514685"><ele>1075.0</ele><time>2026-03-29T13:38:23.583Z</time></trkpt><trkpt lat="39.0687883" lon="16.51471"><ele>1075.0</ele><time>2026-03-29T13:38:24.583Z</time></trkpt><trkpt lat="39.068915" lon="16.5147567"><ele>1075.0</ele><time>2026-03-29T13:38:25.583Z</time></trkpt><trkpt lat="39.06905" lon="16.514815"><ele>1075.0</ele><time>2026-03-29T13:38:26.583Z</time></trkpt><trkpt lat="39.06919" lon="16.5148883"><ele>1075.0</ele><time>2026-03-29T13:38:27.583Z</time></trkpt><trkpt lat="39.0693433" lon="16.5149633"><ele>1076.3333333333333</ele><time>2026-03-29T13:38:28.583Z</time></trkpt><trkpt lat="39.0695033" lon="16.5150617"><ele>1077.6666666666667</ele><time>2026-03-29T13:38:29.583Z</time></trkpt><trkpt lat="39.0696567" lon="16.5151333"><ele>1079.0</ele><time>2026-03-29T13:38:30.583Z</time></trkpt><trkpt lat="39.069805" lon="16.5151783"><ele>1076.25</ele><time>2026-03-29T13:38:31.584Z</time></trkpt><trkpt lat="39.0699467" lon="16.5151867"><ele>1073.5</ele><time>2026-03-29T13:38:32.583Z</time></trkpt><trkpt lat="39.0700833" lon="16.515155"><ele>1070.75</ele><time>2026-03-29T13:38:33.583Z</time></trkpt><trkpt lat="39.0702083" lon="16.5150883"><ele>1068.0</ele><time>2026-03-29T13:38:34.583Z</time></trkpt><trkpt lat="39.070325" lon="16.51497"><ele>1068.0</ele><time>2026-03-29T13:38:35.583Z</time></trkpt><trkpt lat="39.070435" lon="16.5148417"><ele>1068.0</ele><time>2026-03-29T13:38:36.583Z</time></trkpt><trkpt lat="39.0705267" lon="16.5147133"><ele>1068.0</ele><time>2026-03-29T13:38:37.583Z</time></trkpt><trkpt lat="39.0706433" lon="16.51462"><ele>1068.0</ele><time>2026-03-29T13:38:38.583Z</time></trkpt><trkpt lat="39.0707433" lon="16.5145567"><ele>1066.5</ele><time>2026-03-29T13:38:39.583Z</time></trkpt><trkpt lat="39.0708683" lon="16.5145117"><ele>1065.0</ele><time>2026-03-29T13:38:40.583Z</time></trkpt><trkpt lat="39.0709883" lon="16.514495"><ele>1063.5</ele><time>2026-03-29T13:38:41.583Z</time></trkpt><trkpt lat="39.071115" lon="16.5145"><ele>1062.0</ele><time>2026-03-29T13:38:42.583Z</time></trkpt><trkpt lat="39.071245" lon="16.51452"><ele>1062.0</ele><time>2026-03-29T13:38:43.583Z</time></trkpt><trkpt lat="39.0713917" lon="16.5145483"><ele>1062.0</ele><time>2026-03-29T13:38:44.583Z</time></trkpt><trkpt lat="39.0715417" lon="16.51458"><ele>1062.0</ele><time>2026-03-29T13:38:45.583Z</time></trkpt><trkpt lat="39.0716833" lon="16.5146117"><ele>1062.0</ele><time>2026-03-29T13:38:46.583Z</time></trkpt><trkpt lat="39.0718233" lon="16.51463"><ele>1062.75</ele><time>2026-03-29T13:38:47.583Z</time></trkpt><trkpt lat="39.0719517" lon="16.51461"><ele>1063.5</ele><time>2026-03-29T13:38:48.584Z</time></trkpt><trkpt lat="39.0720817" lon="16.5145483"><ele>1064.25</ele><time>2026-03-29T13:38:49.583Z</time></trkpt><trkpt lat="39.07222" lon="16.514465"><ele>1065.0</ele><time>2026-03-29T13:38:50.583Z</time></trkpt><trkpt lat="39.0723683" lon="16.5143733"><ele>1066.6666666666667</ele><time>2026-03-29T13:38:51.583Z</time></trkpt><trkpt lat="39.0725233" lon="16.5143067"><ele>1068.3333333333335</ele><time>2026-03-29T13:38:52.583Z</time></trkpt><trkpt lat="39.0726717" lon="16.5142283"><ele>1070.0</ele><time>2026-03-29T13:38:53.583Z</time></trkpt><trkpt lat="39.07283" lon="16.514165"><ele>1070.0</ele><time>2026-03-29T13:38:54.583Z</time></trkpt><trkpt lat="39.0729867" lon="16.514115"><ele>1070.0</ele><time>2026-03-29T13:38:55.583Z</time></trkpt><trkpt lat="39.0731317" lon="16.514075"><ele>1070.0</ele><time>2026-03-29T13:38:56.583Z</time></trkpt><trkpt lat="39.0732617" lon="16.51405"><ele>1070.0</ele><time>2026-03-29T13:38:57.583Z</time></trkpt><trkpt lat="39.0733833" lon="16.5140217"><ele>1071.2</ele><time>2026-03-29T13:38:58.583Z</time></trkpt><trkpt lat="39.0734867" lon="16.5139883"><ele>1072.4</ele><time>2026-03-29T13:38:59.584Z</time></trkpt><trkpt lat="39.0735917" lon="16.5139517"><ele>1073.6</ele><time>2026-03-29T13:39:00.583Z</time></trkpt><trkpt lat="39.0736983" lon="16.51391"><ele>1074.8</ele><time>2026-03-29T13:39:01.583Z</time></trkpt><trkpt lat="39.073795" lon="16.513865"><ele>1076.0</ele><time>2026-03-29T13:39:02.583Z</time></trkpt><trkpt lat="39.0738933" lon="16.5138033"><ele>1074.0</ele><time>2026-03-29T13:39:03.583Z</time></trkpt><trkpt lat="39.07398" lon="16.513735"><ele>1072.0</ele><time>2026-03-29T13:39:04.583Z</time></trkpt><trkpt lat="39.074065" lon="16.5136583"><ele>1070.0</ele><time>2026-03-29T13:39:05.583Z</time></trkpt><trkpt lat="39.074135" lon="16.5135783"><ele>1068.0</ele><time>2026-03-29T13:39:06.583Z</time></trkpt><trkpt lat="39.0741933" lon="16.513505"><ele>1066.0</ele><time>2026-03-29T13:39:07.583Z</time></trkpt><trkpt lat="39.0742417" lon="16.51344"><ele>1066.0</ele><time>2026-03-29T13:39:08.584Z</time></trkpt><trkpt lat="39.07429" lon="16.5133867"><ele>1066.0</ele><time>2026-03-29T13:39:09.583Z</time></trkpt><trkpt lat="39.07437" lon="16.513345"><ele>1066.0</ele><time>2026-03-29T13:39:11.583Z</time></trkpt><trkpt lat="39.074435" lon="16.5133783"><ele>1066.0</ele><time>2026-03-29T13:39:13.583Z</time></trkpt><trkpt lat="39.0744667" lon="16.51348"><ele>1066.0</ele><time>2026-03-29T13:39:15.583Z</time></trkpt><trkpt lat="39.0745183" lon="16.5135517"><ele>1066.0</ele><time>2026-03-29T13:39:17.583Z</time></trkpt><trkpt lat="39.0745833" lon="16.5136067"><ele>1066.0</ele><time>2026-03-29T13:39:20.583Z</time></trkpt><trkpt lat="39.074675" lon="16.51359"><ele>1066.0</ele><time>2026-03-29T13:45:09.586Z</time></trkpt><trkpt lat="39.07463" lon="16.51352"><ele>1066.0</ele><time>2026-03-29T13:45:43.585Z</time></trkpt><trkpt lat="39.0745767" lon="16.5136067"><ele>1066.0</ele><time>2026-03-29T13:45:56.585Z</time></trkpt><trkpt lat="39.074685" lon="16.5136733"><ele>1066.0</ele><time>2026-03-29T13:46:17.585Z</time></trkpt><trkpt lat="39.0745767" lon="16.5136917"><ele>1066.0</ele><time>2026-03-29T13:46:20.585Z</time></trkpt><trkpt lat="39.0744733" lon="16.51367"><ele>1066.0</ele><time>2026-03-29T13:46:22.585Z</time></trkpt><trkpt lat="39.0743817" lon="16.5136667"><ele>1066.0</ele><time>2026-03-29T13:46:24.585Z</time></trkpt><trkpt lat="39.0743517" lon="16.51375"><ele>1066.0</ele><time>2026-03-29T13:46:27.585Z</time></trkpt><trkpt lat="39.0743867" lon="16.5138267"><ele>1066.0</ele><time>2026-03-29T13:46:30.585Z</time></trkpt><trkpt lat="39.07441" lon="16.5139317"><ele>1066.0</ele><time>2026-03-29T13:46:40.585Z</time></trkpt><trkpt lat="39.0745617" lon="16.513965"><ele>1066.0</ele><time>2026-03-29T13:46:53.585Z</time></trkpt><trkpt lat="39.0746517" lon="16.51382"><ele>1066.0</ele><time>2026-03-29T13:46:59.585Z</time></trkpt><trkpt lat="39.0747" lon="16.5136267"><ele>1066.0</ele><time>2026-03-29T13:47:03.585Z</time></trkpt><trkpt lat="39.0747033" lon="16.5135067"><ele>1066.0</ele><time>2026-03-29T13:47:06.585Z</time></trkpt><trkpt lat="39.074695" lon="16.51333"><ele>1066.0</ele><time>2026-03-29T13:47:07.585Z</time></trkpt><trkpt lat="39.0746983" lon="16.5131817"><ele>1066.0</ele><time>2026-03-29T13:47:08.585Z</time></trkpt><trkpt lat="39.0747067" lon="16.5130683"><ele>1066.0</ele><time>2026-03-29T13:47:10.585Z</time></trkpt><trkpt lat="39.0746917" lon="16.512915"><ele>1066.0</ele><time>2026-03-29T13:47:12.585Z</time></trkpt><trkpt lat="39.0746833" lon="16.5128067"><ele>1066.0</ele><time>2026-03-29T13:47:14.585Z</time></trkpt><trkpt lat="39.074675" lon="16.51266"><ele>1065.8333333333333</ele><time>2026-03-29T13:47:16.585Z</time></trkpt><trkpt lat="39.0746783" lon="16.512555"><ele>1065.6666666666665</ele><time>2026-03-29T13:47:18.585Z</time></trkpt><trkpt lat="39.0747317" lon="16.5124817"><ele>1065.5</ele><time>2026-03-29T13:47:21.585Z</time></trkpt><trkpt lat="39.0747433" lon="16.5123617"><ele>1065.3333333333333</ele><time>2026-03-29T13:47:23.585Z</time></trkpt><trkpt lat="39.07475" lon="16.512275"><ele>1065.1666666666667</ele><time>2026-03-29T13:47:25.585Z</time></trkpt><trkpt lat="39.07483" lon="16.5122267"><ele>1065.0</ele><time>2026-03-29T13:47:31.585Z</time></trkpt><trkpt lat="39.0749" lon="16.5122"><ele>1065.0</ele><time>2026-03-29T13:47:38.585Z</time></trkpt><trkpt lat="39.0749633" lon="16.5121517"><ele>1065.0</ele><time>2026-03-29T13:47:41.585Z</time></trkpt><trkpt lat="39.07487" lon="16.512275"><ele>1065.0</ele><time>2026-03-29T13:47:47.585Z</time></trkpt><trkpt lat="39.07479" lon="16.5124367"><ele>1065.0</ele><time>2026-03-29T13:47:49.585Z</time></trkpt><trkpt lat="39.0746633" lon="16.51281"><ele>1065.25</ele><time>2026-03-29T13:47:51.585Z</time></trkpt><trkpt lat="39.0747217" lon="16.512995"><ele>1065.5</ele><time>2026-03-29T13:47:56.585Z</time></trkpt><trkpt lat="39.07474" lon="16.5130983"><ele>1065.75</ele><time>2026-03-29T13:47:58.585Z</time></trkpt><trkpt lat="39.0747617" lon="16.513315"><ele>1066.0</ele><time>2026-03-29T13:48:03.585Z</time></trkpt><trkpt lat="39.07484" lon="16.5135183"><ele>1066.0</ele><time>2026-03-29T13:48:12.585Z</time></trkpt><trkpt lat="39.0749183" lon="16.5135417"><ele>1066.0</ele><time>2026-03-29T13:48:15.585Z</time></trkpt><trkpt lat="39.074925" lon="16.5134533"><ele>1066.0</ele><time>2026-03-29T13:48:21.585Z</time></trkpt><trkpt lat="39.0749383" lon="16.5133517"><ele>1066.0</ele><time>2026-03-29T13:48:33.585Z</time></trkpt><trkpt lat="39.07487" lon="16.5133883"><ele>1066.0</ele><time>2026-03-29T13:48:44.585Z</time></trkpt><trkpt lat="39.0748067" lon="16.5133833"><ele>1066.0</ele><time>2026-03-29T13:48:46.585Z</time></trkpt><trkpt lat="39.0749033" lon="16.5133867"><ele>1066.0</ele><time>2026-03-29T13:48:54.585Z</time></trkpt><trkpt lat="39.074945" lon="16.5133217"><ele>1066.0</ele><time>2026-03-29T13:49:07.585Z</time></trkpt><trkpt lat="39.0748033" lon="16.5133617"><ele>1066.0</ele><time>2026-03-29T13:49:17.585Z</time></trkpt><trkpt lat="39.0748583" lon="16.5134233"><ele>1066.0</ele><time>2026-03-29T13:49:38.585Z</time></trkpt><trkpt lat="39.0747567" lon="16.5134117"><ele>1066.0</ele><time>2026-03-29T13:49:47.585Z</time></trkpt><trkpt lat="39.0747317" lon="16.51352"><ele>1066.0</ele><time>2026-03-29T13:50:08.585Z</time></trkpt><trkpt lat="39.074685" lon="16.5135817"><ele>1066.0</ele><time>2026-03-29T13:50:18.585Z</time></trkpt><trkpt lat="39.074575" lon="16.5135883"><ele>1066.0</ele><time>2026-03-29T13:50:23.585Z</time></trkpt><trkpt lat="39.07467" lon="16.5135633"><ele>1066.0</ele><time>2026-03-29T13:50:59.585Z</time></trkpt><trkpt lat="39.07478" lon="16.5135967"><ele>1066.0</ele><time>2026-03-29T13:51:02.585Z</time></trkpt><trkpt lat="39.0748717" lon="16.5134933"><ele>1066.0</ele><time>2026-03-29T13:51:16.585Z</time></trkpt><trkpt lat="39.074945" lon="16.5134683"><ele>1066.0</ele><time>2026-03-29T13:51:22.586Z</time></trkpt><trkpt lat="39.0748517" lon="16.5135133"><ele>1066.0</ele><time>2026-03-29T13:51:27.585Z</time></trkpt><trkpt lat="39.0747833" lon="16.51356"><ele>1066.0</ele><time>2026-03-29T13:51:29.585Z</time></trkpt><trkpt lat="39.0746333" lon="16.513625"><ele>1066.0</ele><time>2026-03-29T13:51:31.585Z</time></trkpt><trkpt lat="39.07491" lon="16.5137017"><ele>1067.6</ele><time>2026-03-29T13:55:26.348Z</time></trkpt><trkpt lat="39.0750917" lon="16.5137017"><ele>1069.1999999999998</ele><time>2026-03-29T13:55:31.348Z</time></trkpt><trkpt lat="39.0751583" lon="16.5137083"><ele>1070.8000000000002</ele><time>2026-03-29T13:55:33.578Z</time></trkpt><trkpt lat="39.0751967" lon="16.5137733"><ele>1072.4</ele><time>2026-03-29T13:55:42.578Z</time></trkpt><trkpt lat="39.0751367" lon="16.51382"><ele>1074.0</ele><time>2026-03-29T13:55:45.578Z</time></trkpt><trkpt lat="39.07507" lon="16.5138383"><ele>1074.4285714285713</ele><time>2026-03-29T13:55:50.578Z</time></trkpt><trkpt lat="39.0751067" lon="16.5139217"><ele>1074.857142857143</ele><time>2026-03-29T13:56:43.578Z</time></trkpt><trkpt lat="39.07515" lon="16.5139867"><ele>1075.2857142857142</ele><time>2026-03-29T13:56:48.578Z</time></trkpt><trkpt lat="39.07519" lon="16.5140517"><ele>1075.7142857142858</ele><time>2026-03-29T13:57:18.578Z</time></trkpt><trkpt lat="39.0752383" lon="16.514115"><ele>1076.142857142857</ele><time>2026-03-29T13:57:23.578Z</time></trkpt><trkpt lat="39.0752133" lon="16.5140383"><ele>1076.5714285714284</ele><time>2026-03-29T13:57:38.578Z</time></trkpt><trkpt lat="39.0751683" lon="16.5139633"><ele>1077.0</ele><time>2026-03-29T13:57:44.578Z</time></trkpt><trkpt lat="39.0750867" lon="16.5138883"><ele>1077.0</ele><time>2026-03-29T13:57:48.578Z</time></trkpt><trkpt lat="39.07499" lon="16.5137783"><ele>1077.0</ele><time>2026-03-29T13:57:57.579Z</time></trkpt><trkpt lat="39.0749217" lon="16.5137367"><ele>1077.0</ele><time>2026-03-29T13:58:01.578Z</time></trkpt><trkpt lat="39.0749867" lon="16.5137633"><ele>1077.0</ele><time>2026-03-29T13:58:10.578Z</time></trkpt><trkpt lat="39.07494" lon="16.513705"><ele>1077.0</ele><time>2026-03-29T13:58:29.578Z</time></trkpt><trkpt lat="39.0750217" lon="16.5137067"><ele>1077.0</ele><time>2026-03-29T13:58:59.578Z</time></trkpt><trkpt lat="39.075055" lon="16.5137867"><ele>1077.0</ele><time>2026-03-29T13:59:05.578Z</time></trkpt><trkpt lat="39.0751267" lon="16.5137867"><ele>1077.0</ele><time>2026-03-29T13:59:16.578Z</time></trkpt><trkpt lat="39.07517" lon="16.5138467"><ele>1077.0</ele><time>2026-03-29T13:59:22.578Z</time></trkpt><trkpt lat="39.07507" lon="16.51385"><ele>1077.0</ele><time>2026-03-29T14:00:07.578Z</time></trkpt><trkpt lat="39.0750083" lon="16.5138217"><ele>1077.0</ele><time>2026-03-29T14:00:15.578Z</time></trkpt><trkpt lat="39.0749467" lon="16.51376"><ele>1077.0</ele><time>2026-03-29T14:00:25.578Z</time></trkpt><trkpt lat="39.0749217" lon="16.513845"><ele>1077.0</ele><time>2026-03-29T14:00:33.578Z</time></trkpt><trkpt lat="39.074975" lon="16.5139367"><ele>1077.0</ele><time>2026-03-29T14:00:48.578Z</time></trkpt><trkpt lat="39.0749933" lon="16.513815"><ele>1077.0</ele><time>2026-03-29T14:02:21.578Z</time></trkpt><trkpt lat="39.0749217" lon="16.513785"><ele>1077.0</ele><time>2026-03-29T14:02:35.578Z</time></trkpt><trkpt lat="39.0750017" lon="16.5138583"><ele>1077.0</ele><time>2026-03-29T14:03:06.578Z</time></trkpt><trkpt lat="39.0749533" lon="16.5137983"><ele>1077.0</ele><time>2026-03-29T14:03:33.578Z</time></trkpt><trkpt lat="39.0748617" lon="16.5137167"><ele>1077.0</ele><time>2026-03-29T14:04:00.578Z</time></trkpt><trkpt lat="39.074805" lon="16.51367"><ele>1075.1666666666667</ele><time>2026-03-29T14:04:05.578Z</time></trkpt><trkpt lat="39.0747433" lon="16.513625"><ele>1073.3333333333333</ele><time>2026-03-29T14:04:08.578Z</time></trkpt><trkpt lat="39.0746733" lon="16.5136067"><ele>1071.5</ele><time>2026-03-29T14:04:11.578Z</time></trkpt><trkpt lat="39.0746033" lon="16.5135833"><ele>1069.6666666666665</ele><time>2026-03-29T14:04:17.578Z</time></trkpt><trkpt lat="39.0746217" lon="16.5136683"><ele>1067.8333333333333</ele><time>2026-03-29T14:04:58.578Z</time></trkpt><trkpt lat="39.074745" lon="16.5137017"><ele>1066.0</ele><time>2026-03-29T14:05:15.578Z</time></trkpt><trkpt lat="39.0748317" lon="16.5137367"><ele>1066.5714285714284</ele><time>2026-03-29T14:05:22.578Z</time></trkpt><trkpt lat="39.0748883" lon="16.5137733"><ele>1067.142857142857</ele><time>2026-03-29T14:05:28.578Z</time></trkpt><trkpt lat="39.074935" lon="16.51383"><ele>1067.7142857142858</ele><time>2026-03-29T14:06:16.578Z</time></trkpt><trkpt lat="39.0749567" lon="16.5139083"><ele>1068.2857142857142</ele><time>2026-03-29T14:06:31.578Z</time></trkpt><trkpt lat="39.0750167" lon="16.5139433"><ele>1068.857142857143</ele><time>2026-03-29T14:06:38.578Z</time></trkpt><trkpt lat="39.0750067" lon="16.5140383"><ele>1069.4285714285713</ele><time>2026-03-29T14:07:04.578Z</time></trkpt><trkpt lat="39.0750717" lon="16.5140233"><ele>1070.0</ele><time>2026-03-29T14:07:16.578Z</time></trkpt><trkpt lat="39.0750267" lon="16.513965"><ele>1070.0</ele><time>2026-03-29T14:07:34.578Z</time></trkpt><trkpt lat="39.0750283" lon="16.5138783"><ele>1070.0</ele><time>2026-03-29T14:07:49.578Z</time></trkpt><trkpt lat="39.0749967" lon="16.513805"><ele>1070.0</ele><time>2026-03-29T14:07:54.578Z</time></trkpt><trkpt lat="39.0749317" lon="16.5137667"><ele>1070.0</ele><time>2026-03-29T14:08:04.578Z</time></trkpt><trkpt lat="39.074865" lon="16.513765"><ele>1070.0</ele><time>2026-03-29T14:08:10.578Z</time></trkpt><trkpt lat="39.0747883" lon="16.513755"><ele>1070.0</ele><time>2026-03-29T14:08:19.578Z</time></trkpt><trkpt lat="39.0748667" lon="16.513755"><ele>1070.0</ele><time>2026-03-29T14:09:24.578Z</time></trkpt><trkpt lat="39.0749767" lon="16.5137567"><ele>1070.0</ele><time>2026-03-29T14:09:33.579Z</time></trkpt><trkpt lat="39.0749283" lon="16.5136917"><ele>1070.0</ele><time>2026-03-29T14:10:01.578Z</time></trkpt><trkpt lat="39.0748583" lon="16.5136817"><ele>1070.0</ele><time>2026-03-29T14:10:07.578Z</time></trkpt><trkpt lat="39.0748367" lon="16.5137583"><ele>1070.0</ele><time>2026-03-29T14:10:15.579Z</time></trkpt><trkpt lat="39.0749183" lon="16.51382"><ele>1070.0</ele><time>2026-03-29T14:10:17.578Z</time></trkpt><trkpt lat="39.0749833" lon="16.5137933"><ele>1070.0</ele><time>2026-03-29T14:10:26.578Z</time></trkpt><trkpt lat="39.0749367" lon="16.513725"><ele>1070.0</ele><time>2026-03-29T14:10:29.578Z</time></trkpt><trkpt lat="39.0749633" lon="16.5136467"><ele>1070.5714285714284</ele><time>2026-03-29T14:10:46.578Z</time></trkpt><trkpt lat="39.0749983" lon="16.5135633"><ele>1071.142857142857</ele><time>2026-03-29T14:10:54.578Z</time></trkpt><trkpt lat="39.07496" lon="16.5134883"><ele>1071.7142857142858</ele><time>2026-03-29T14:10:57.578Z</time></trkpt><trkpt lat="39.075005" lon="16.5135633"><ele>1072.2857142857142</ele><time>2026-03-29T14:11:00.578Z</time></trkpt><trkpt lat="39.0750417" lon="16.5136733"><ele>1072.857142857143</ele><time>2026-03-29T14:11:02.578Z</time></trkpt><trkpt lat="39.0750633" lon="16.5137517"><ele>1073.4285714285713</ele><time>2026-03-29T14:11:07.578Z</time></trkpt><trkpt lat="39.074995" lon="16.5137183"><ele>1074.0</ele><time>2026-03-29T14:11:11.578Z</time></trkpt><trkpt lat="39.0749267" lon="16.5137033"><ele>1074.4285714285713</ele><time>2026-03-29T14:11:13.578Z</time></trkpt><trkpt lat="39.07486" lon="16.51366"><ele>1074.857142857143</ele><time>2026-03-29T14:11:14.578Z</time></trkpt><trkpt lat="39.0748783" lon="16.5137467"><ele>1075.2857142857142</ele><time>2026-03-29T14:11:29.578Z</time></trkpt><trkpt lat="39.0749433" lon="16.5137583"><ele>1075.7142857142858</ele><time>2026-03-29T14:11:41.578Z</time></trkpt><trkpt lat="39.07499" lon="16.5138283"><ele>1076.142857142857</ele><time>2026-03-29T14:11:56.578Z</time></trkpt><trkpt lat="39.0749167" lon="16.51384"><ele>1076.5714285714284</ele><time>2026-03-29T14:12:54.578Z</time></trkpt><trkpt lat="39.0749" lon="16.5139317"><ele>1077.0</ele><time>2026-03-29T14:13:33.578Z</time></trkpt><trkpt lat="39.0748467" lon="16.5138867"><ele>1077.0</ele><time>2026-03-29T14:13:41.579Z</time></trkpt><trkpt lat="39.0749017" lon="16.51393"><ele>1077.0</ele><time>2026-03-29T14:13:52.578Z</time></trkpt><trkpt lat="39.07486" lon="16.51384"><ele>1077.0</ele><time>2026-03-29T14:13:59.578Z</time></trkpt><trkpt lat="39.0748117" lon="16.5137683"><ele>1077.0</ele><time>2026-03-29T14:14:10.578Z</time></trkpt><trkpt lat="39.0749083" lon="16.513695"><ele>1077.0</ele><time>2026-03-29T14:14:35.579Z</time></trkpt><trkpt lat="39.0749617" lon="16.51374"><ele>1077.0</ele><time>2026-03-29T14:14:50.577Z</time></trkpt><trkpt lat="39.07503" lon="16.513765"><ele>1077.0</ele><time>2026-03-29T14:15:59.577Z</time></trkpt><trkpt lat="39.0750033" lon="16.51369"><ele>1074.0</ele><time>2026-03-29T14:16:54.577Z</time></trkpt><trkpt lat="39.0749483" lon="16.5137367"><ele>1074.0</ele><time>2026-03-29T14:17:53.577Z</time></trkpt><trkpt lat="39.0750183" lon="16.5137383"><ele>1074.0</ele><time>2026-03-29T14:18:11.577Z</time></trkpt><trkpt lat="39.07496" lon="16.5137067"><ele>1074.0</ele><time>2026-03-29T14:19:48.577Z</time></trkpt></trkseg><trkseg><trkpt lat="39.0745867" lon="16.5136617"><ele>1066.0</ele><time>2026-03-29T15:42:04.579Z</time></trkpt><trkpt lat="39.0744183" lon="16.513315"><ele>1066.0</ele><time>2026-03-29T15:43:08.229Z</time></trkpt><trkpt lat="39.0744617" lon="16.513155"><ele>1066.0</ele><time>2026-03-29T15:43:10.229Z</time></trkpt><trkpt lat="39.074595" lon="16.512875"><ele>1065.75</ele><time>2026-03-29T15:43:12.229Z</time></trkpt><trkpt lat="39.07468" lon="16.5127583"><ele>1065.5</ele><time>2026-03-29T15:43:13.229Z</time></trkpt><trkpt lat="39.0747567" lon="16.5126467"><ele>1065.25</ele><time>2026-03-29T15:43:14.229Z</time></trkpt><trkpt lat="39.074835" lon="16.5125367"><ele>1065.0</ele><time>2026-03-29T15:43:15.229Z</time></trkpt><trkpt lat="39.0749033" lon="16.5124333"><ele>1065.75</ele><time>2026-03-29T15:43:16.229Z</time></trkpt><trkpt lat="39.0749733" lon="16.5123267"><ele>1066.5</ele><time>2026-03-29T15:43:17.229Z</time></trkpt><trkpt lat="39.0750617" lon="16.5122367"><ele>1067.25</ele><time>2026-03-29T15:43:18.229Z</time></trkpt><trkpt lat="39.07516" lon="16.5120217"><ele>1068.0</ele><time>2026-03-29T15:43:19.229Z</time></trkpt><trkpt lat="39.075275" lon="16.5118767"><ele>1068.0</ele><time>2026-03-29T15:43:20.579Z</time></trkpt><trkpt lat="39.07538" lon="16.5117667"><ele>1068.0</ele><time>2026-03-29T15:43:21.579Z</time></trkpt><trkpt lat="39.0755" lon="16.51165"><ele>1068.0</ele><time>2026-03-29T15:43:22.579Z</time></trkpt><trkpt lat="39.075625" lon="16.5115383"><ele>1068.0</ele><time>2026-03-29T15:43:23.579Z</time></trkpt><trkpt lat="39.0757567" lon="16.5114233"><ele>1068.0</ele><time>2026-03-29T15:43:24.579Z</time></trkpt><trkpt lat="39.0759017" lon="16.5112983"><ele>1068.0</ele><time>2026-03-29T15:43:25.579Z</time></trkpt><trkpt lat="39.0760583" lon="16.5111667"><ele>1068.0</ele><time>2026-03-29T15:43:26.579Z</time></trkpt><trkpt lat="39.076215" lon="16.5110367"><ele>1068.0</ele><time>2026-03-29T15:43:27.579Z</time></trkpt><trkpt lat="39.0763667" lon="16.5108967"><ele>1068.0</ele><time>2026-03-29T15:43:28.579Z</time></trkpt><trkpt lat="39.0765217" lon="16.51075"><ele>1068.0</ele><time>2026-03-29T15:43:29.579Z</time></trkpt><trkpt lat="39.0766733" lon="16.5106017"><ele>1069.6666666666667</ele><time>2026-03-29T15:43:30.579Z</time></trkpt><trkpt lat="39.0768333" lon="16.5104467"><ele>1071.3333333333335</ele><time>2026-03-29T15:43:31.579Z</time></trkpt><trkpt lat="39.0769933" lon="16.5103"><ele>1073.0</ele><time>2026-03-29T15:43:32.579Z</time></trkpt><trkpt lat="39.0771567" lon="16.5101617"><ele>1073.0</ele><time>2026-03-29T15:43:33.579Z</time></trkpt><trkpt lat="39.0773217" lon="16.5100267"><ele>1073.0</ele><time>2026-03-29T15:43:34.579Z</time></trkpt><trkpt lat="39.07749" lon="16.50989"><ele>1073.0</ele><time>2026-03-29T15:43:35.579Z</time></trkpt><trkpt lat="39.0776583" lon="16.5097483"><ele>1074.0</ele><time>2026-03-29T15:43:36.579Z</time></trkpt><trkpt lat="39.07782" lon="16.5096117"><ele>1075.0</ele><time>2026-03-29T15:43:37.579Z</time></trkpt><trkpt lat="39.0779833" lon="16.5094733"><ele>1076.0</ele><time>2026-03-29T15:43:38.579Z</time></trkpt><trkpt lat="39.0781317" lon="16.50933"><ele>1075.0</ele><time>2026-03-29T15:43:39.579Z</time></trkpt><trkpt lat="39.0782767" lon="16.5092083"><ele>1074.0</ele><time>2026-03-29T15:43:40.579Z</time></trkpt><trkpt lat="39.0784133" lon="16.5090917"><ele>1073.0</ele><time>2026-03-29T15:43:41.579Z</time></trkpt><trkpt lat="39.0785517" lon="16.5089883"><ele>1073.0</ele><time>2026-03-29T15:43:42.579Z</time></trkpt><trkpt lat="39.0786967" lon="16.5088917"><ele>1073.0</ele><time>2026-03-29T15:43:43.579Z</time></trkpt><trkpt lat="39.0788417" lon="16.5088117"><ele>1073.0</ele><time>2026-03-29T15:43:44.579Z</time></trkpt><trkpt lat="39.0789933" lon="16.50875"><ele>1073.6666666666667</ele><time>2026-03-29T15:43:45.579Z</time></trkpt><trkpt lat="39.0791483" lon="16.5087033"><ele>1074.3333333333333</ele><time>2026-03-29T15:43:46.579Z</time></trkpt><trkpt lat="39.0793117" lon="16.5086717"><ele>1075.0</ele><time>2026-03-29T15:43:47.579Z</time></trkpt><trkpt lat="39.07948" lon="16.5086467"><ele>1075.0</ele><time>2026-03-29T15:43:48.579Z</time></trkpt><trkpt lat="39.07965" lon="16.5086183"><ele>1075.0</ele><time>2026-03-29T15:43:49.579Z</time></trkpt><trkpt lat="39.07982" lon="16.508585"><ele>1075.0</ele><time>2026-03-29T15:43:50.579Z</time></trkpt><trkpt lat="39.0799933" lon="16.50855"><ele>1075.6666666666665</ele><time>2026-03-29T15:43:51.579Z</time></trkpt><trkpt lat="39.08017" lon="16.5085117"><ele>1076.3333333333333</ele><time>2026-03-29T15:43:52.579Z</time></trkpt><trkpt lat="39.08035" lon="16.5084767"><ele>1077.0</ele><time>2026-03-29T15:43:53.579Z</time></trkpt><trkpt lat="39.080535" lon="16.508435"><ele>1077.0</ele><time>2026-03-29T15:43:54.579Z</time></trkpt><trkpt lat="39.0807233" lon="16.508395"><ele>1077.0</ele><time>2026-03-29T15:43:55.579Z</time></trkpt><trkpt lat="39.08091" lon="16.5083517"><ele>1077.0</ele><time>2026-03-29T15:43:56.579Z</time></trkpt><trkpt lat="39.0810983" lon="16.508305"><ele>1077.6666666666667</ele><time>2026-03-29T15:43:57.579Z</time></trkpt><trkpt lat="39.0812883" lon="16.50826"><ele>1078.3333333333335</ele><time>2026-03-29T15:43:58.579Z</time></trkpt><trkpt lat="39.0814817" lon="16.5082217"><ele>1079.0</ele><time>2026-03-29T15:43:59.579Z</time></trkpt><trkpt lat="39.0816817" lon="16.50818"><ele>1079.6666666666667</ele><time>2026-03-29T15:44:00.579Z</time></trkpt><trkpt lat="39.0818733" lon="16.5081467"><ele>1080.3333333333333</ele><time>2026-03-29T15:44:01.579Z</time></trkpt><trkpt lat="39.08205" lon="16.5081183"><ele>1081.0</ele><time>2026-03-29T15:44:02.579Z</time></trkpt><trkpt lat="39.0822217" lon="16.508095"><ele>1081.0</ele><time>2026-03-29T15:44:03.579Z</time></trkpt><trkpt lat="39.0823783" lon="16.50808"><ele>1081.0</ele><time>2026-03-29T15:44:04.579Z</time></trkpt><trkpt lat="39.0825267" lon="16.50808"><ele>1081.0</ele><time>2026-03-29T15:44:05.579Z</time></trkpt><trkpt lat="39.08266" lon="16.508095"><ele>1081.0</ele><time>2026-03-29T15:44:06.579Z</time></trkpt><trkpt lat="39.082785" lon="16.5081267"><ele>1081.75</ele><time>2026-03-29T15:44:07.579Z</time></trkpt><trkpt lat="39.0829067" lon="16.508165"><ele>1082.5</ele><time>2026-03-29T15:44:08.579Z</time></trkpt><trkpt lat="39.083035" lon="16.508215"><ele>1083.25</ele><time>2026-03-29T15:44:09.579Z</time></trkpt><trkpt lat="39.0831667" lon="16.5082717"><ele>1084.0</ele><time>2026-03-29T15:44:10.579Z</time></trkpt><trkpt lat="39.083295" lon="16.5083383"><ele>1085.0</ele><time>2026-03-29T15:44:11.579Z</time></trkpt><trkpt lat="39.0834033" lon="16.5084033"><ele>1086.0</ele><time>2026-03-29T15:44:12.579Z</time></trkpt><trkpt lat="39.0834933" lon="16.5084517"><ele>1087.0</ele><time>2026-03-29T15:44:13.579Z</time></trkpt><trkpt lat="39.083565" lon="16.5084917"><ele>1088.0</ele><time>2026-03-29T15:44:14.579Z</time></trkpt><trkpt lat="39.08368" lon="16.5085333"><ele>1089.0</ele><time>2026-03-29T15:44:16.58Z</time></trkpt><trkpt lat="39.08375" lon="16.5085133"><ele>1089.0</ele><time>2026-03-29T15:44:17.579Z</time></trkpt><trkpt lat="39.0838217" lon="16.50847"><ele>1089.0</ele><time>2026-03-29T15:44:18.579Z</time></trkpt><trkpt lat="39.083895" lon="16.508395"><ele>1089.0</ele><time>2026-03-29T15:44:19.579Z</time></trkpt><trkpt lat="39.083975" lon="16.508325"><ele>1089.0</ele><time>2026-03-29T15:44:20.579Z</time></trkpt><trkpt lat="39.084065" lon="16.50825"><ele>1089.0</ele><time>2026-03-29T15:44:21.579Z</time></trkpt><trkpt lat="39.084165" lon="16.5081633"><ele>1088.0</ele><time>2026-03-29T15:44:22.579Z</time></trkpt><trkpt lat="39.0842783" lon="16.5080783"><ele>1087.0</ele><time>2026-03-29T15:44:23.58Z</time></trkpt><trkpt lat="39.0844" lon="16.5079683"><ele>1086.0</ele><time>2026-03-29T15:44:24.579Z</time></trkpt><trkpt lat="39.08453" lon="16.5078767"><ele>1085.0</ele><time>2026-03-29T15:44:25.579Z</time></trkpt><trkpt lat="39.0846567" lon="16.5077883"><ele>1085.0</ele><time>2026-03-29T15:44:26.579Z</time></trkpt><trkpt lat="39.0847833" lon="16.5076883"><ele>1085.0</ele><time>2026-03-29T15:44:27.579Z</time></trkpt><trkpt lat="39.0849167" lon="16.5075767"><ele>1085.0</ele><time>2026-03-29T15:44:28.579Z</time></trkpt><trkpt lat="39.0850483" lon="16.5074733"><ele>1087.3333333333335</ele><time>2026-03-29T15:44:29.579Z</time></trkpt><trkpt lat="39.0851833" lon="16.5073633"><ele>1089.6666666666667</ele><time>2026-03-29T15:44:30.579Z</time></trkpt><trkpt lat="39.08531" lon="16.5072433"><ele>1092.0</ele><time>2026-03-29T15:44:31.579Z</time></trkpt><trkpt lat="39.0854333" lon="16.5071517"><ele>1091.5</ele><time>2026-03-29T15:44:32.579Z</time></trkpt><trkpt lat="39.085545" lon="16.5070683"><ele>1091.0</ele><time>2026-03-29T15:44:33.579Z</time></trkpt><trkpt lat="39.0856567" lon="16.506985"><ele>1090.5</ele><time>2026-03-29T15:44:34.579Z</time></trkpt><trkpt lat="39.08577" lon="16.5069267"><ele>1090.0</ele><time>2026-03-29T15:44:35.579Z</time></trkpt><trkpt lat="39.085875" lon="16.5068933"><ele>1090.0</ele><time>2026-03-29T15:44:36.579Z</time></trkpt><trkpt lat="39.0859867" lon="16.506885"><ele>1090.0</ele><time>2026-03-29T15:44:37.579Z</time></trkpt><trkpt lat="39.08612" lon="16.506895"><ele>1090.0</ele><time>2026-03-29T15:44:38.579Z</time></trkpt><trkpt lat="39.086255" lon="16.5069267"><ele>1090.0</ele><time>2026-03-29T15:44:39.579Z</time></trkpt><trkpt lat="39.0864067" lon="16.5069467"><ele>1090.0</ele><time>2026-03-29T15:44:40.579Z</time></trkpt><trkpt lat="39.0865633" lon="16.506985"><ele>1090.0</ele><time>2026-03-29T15:44:41.579Z</time></trkpt><trkpt lat="39.08673" lon="16.5070333"><ele>1090.0</ele><time>2026-03-29T15:44:42.579Z</time></trkpt><trkpt lat="39.0869017" lon="16.50706"><ele>1093.3333333333333</ele><time>2026-03-29T15:44:43.579Z</time></trkpt><trkpt lat="39.087075" lon="16.50709"><ele>1096.6666666666667</ele><time>2026-03-29T15:44:44.579Z</time></trkpt><trkpt lat="39.0872483" lon="16.50712"><ele>1100.0</ele><time>2026-03-29T15:44:45.579Z</time></trkpt><trkpt lat="39.08743" lon="16.50713"><ele>1100.0</ele><time>2026-03-29T15:44:46.579Z</time></trkpt><trkpt lat="39.087615" lon="16.50712"><ele>1100.0</ele><time>2026-03-29T15:44:47.579Z</time></trkpt><trkpt lat="39.0877983" lon="16.507095"><ele>1100.0</ele><time>2026-03-29T15:44:48.579Z</time></trkpt><trkpt lat="39.0880033" lon="16.507055"><ele>1100.0</ele><time>2026-03-29T15:44:49.579Z</time></trkpt><trkpt lat="39.0882017" lon="16.5070017"><ele>1100.0</ele><time>2026-03-29T15:44:50.579Z</time></trkpt><trkpt lat="39.0884133" lon="16.5069367"><ele>1100.0</ele><time>2026-03-29T15:44:51.579Z</time></trkpt><trkpt lat="39.088635" lon="16.506875"><ele>1100.0</ele><time>2026-03-29T15:44:52.579Z</time></trkpt><trkpt lat="39.0888733" lon="16.5068117"><ele>1100.0</ele><time>2026-03-29T15:44:53.579Z</time></trkpt><trkpt lat="39.0891233" lon="16.50674"><ele>1101.5</ele><time>2026-03-29T15:44:54.579Z</time></trkpt><trkpt lat="39.08936" lon="16.5067"><ele>1103.0</ele><time>2026-03-29T15:44:55.579Z</time></trkpt><trkpt lat="39.0895883" lon="16.5066567"><ele>1103.0</ele><time>2026-03-29T15:44:56.579Z</time></trkpt><trkpt lat="39.0898017" lon="16.506625"><ele>1103.0</ele><time>2026-03-29T15:44:57.579Z</time></trkpt><trkpt lat="39.0899883" lon="16.5066133"><ele>1103.0</ele><time>2026-03-29T15:44:58.579Z</time></trkpt><trkpt lat="39.0901617" lon="16.5066217"><ele>1104.0</ele><time>2026-03-29T15:44:59.579Z</time></trkpt><trkpt lat="39.0903267" lon="16.50664"><ele>1105.0</ele><time>2026-03-29T15:45:00.579Z</time></trkpt><trkpt lat="39.09048" lon="16.50669"><ele>1106.0</ele><time>2026-03-29T15:45:01.579Z</time></trkpt><trkpt lat="39.0906283" lon="16.5067483"><ele>1106.8</ele><time>2026-03-29T15:45:02.579Z</time></trkpt><trkpt lat="39.0907617" lon="16.506795"><ele>1107.6</ele><time>2026-03-29T15:45:03.579Z</time></trkpt><trkpt lat="39.090865" lon="16.5068233"><ele>1108.4</ele><time>2026-03-29T15:45:04.579Z</time></trkpt><trkpt lat="39.0909433" lon="16.5068367"><ele>1109.2</ele><time>2026-03-29T15:45:05.579Z</time></trkpt><trkpt lat="39.0910217" lon="16.5068483"><ele>1110.0</ele><time>2026-03-29T15:45:06.579Z</time></trkpt><trkpt lat="39.09109" lon="16.50687"><ele>1110.0</ele><time>2026-03-29T15:45:07.579Z</time></trkpt><trkpt lat="39.09115" lon="16.5069017"><ele>1110.0</ele><time>2026-03-29T15:45:08.579Z</time></trkpt><trkpt lat="39.091215" lon="16.5069333"><ele>1110.0</ele><time>2026-03-29T15:45:09.579Z</time></trkpt><trkpt lat="39.091315" lon="16.5069733"><ele>1110.0</ele><time>2026-03-29T15:45:11.579Z</time></trkpt><trkpt lat="39.091385" lon="16.50701"><ele>1110.0</ele><time>2026-03-29T15:45:13.579Z</time></trkpt><trkpt lat="39.0913317" lon="16.50696"><ele>1110.0</ele><time>2026-03-29T15:45:55.579Z</time></trkpt><trkpt lat="39.091175" lon="16.506945"><ele>1110.0</ele><time>2026-03-29T15:45:57.58Z</time></trkpt><trkpt lat="39.0910533" lon="16.506905"><ele>1110.0</ele><time>2026-03-29T15:45:58.579Z</time></trkpt><trkpt lat="39.0909083" lon="16.506845"><ele>1110.0</ele><time>2026-03-29T15:45:59.579Z</time></trkpt><trkpt lat="39.090755" lon="16.506795"><ele>1110.0</ele><time>2026-03-29T15:46:00.579Z</time></trkpt><trkpt lat="39.0905917" lon="16.5067467"><ele>1108.6666666666667</ele><time>2026-03-29T15:46:01.579Z</time></trkpt><trkpt lat="39.0904367" lon="16.5066983"><ele>1107.3333333333335</ele><time>2026-03-29T15:46:02.579Z</time></trkpt><trkpt lat="39.09029" lon="16.50666"><ele>1106.0</ele><time>2026-03-29T15:46:03.58Z</time></trkpt><trkpt lat="39.090145" lon="16.5066233"><ele>1106.0</ele><time>2026-03-29T15:46:04.579Z</time></trkpt><trkpt lat="39.0900183" lon="16.5066067"><ele>1106.0</ele><time>2026-03-29T15:46:05.579Z</time></trkpt><trkpt lat="39.089745" lon="16.50664"><ele>1106.0</ele><time>2026-03-29T15:46:07.579Z</time></trkpt><trkpt lat="39.0895817" lon="16.5066717"><ele>1105.0</ele><time>2026-03-29T15:46:08.579Z</time></trkpt><trkpt lat="39.0894033" lon="16.5066983"><ele>1104.0</ele><time>2026-03-29T15:46:09.579Z</time></trkpt><trkpt lat="39.0892133" lon="16.5067417"><ele>1103.0</ele><time>2026-03-29T15:46:10.579Z</time></trkpt><trkpt lat="39.0890233" lon="16.5067767"><ele>1102.0</ele><time>2026-03-29T15:46:11.579Z</time></trkpt><trkpt lat="39.0888433" lon="16.5068067"><ele>1101.0</ele><time>2026-03-29T15:46:12.579Z</time></trkpt><trkpt lat="39.0886833" lon="16.5068467"><ele>1100.0</ele><time>2026-03-29T15:46:13.579Z</time></trkpt><trkpt lat="39.0885233" lon="16.5068717"><ele>1100.0</ele><time>2026-03-29T15:46:14.579Z</time></trkpt><trkpt lat="39.0883767" lon="16.5069"><ele>1100.0</ele><time>2026-03-29T15:46:15.579Z</time></trkpt><trkpt lat="39.0882333" lon="16.5069383"><ele>1100.0</ele><time>2026-03-29T15:46:16.579Z</time></trkpt><trkpt lat="39.088075" lon="16.5069833"><ele>1099.0</ele><time>2026-03-29T15:46:17.579Z</time></trkpt><trkpt lat="39.087895" lon="16.5070217"><ele>1098.0</ele><time>2026-03-29T15:46:18.579Z</time></trkpt><trkpt lat="39.0877" lon="16.5070533"><ele>1097.0</ele><time>2026-03-29T15:46:19.579Z</time></trkpt><trkpt lat="39.08751" lon="16.5070733"><ele>1096.3333333333335</ele><time>2026-03-29T15:46:20.579Z</time></trkpt><trkpt lat="39.0873167" lon="16.5070917"><ele>1095.6666666666667</ele><time>2026-03-29T15:46:21.579Z</time></trkpt><trkpt lat="39.08712" lon="16.50708"><ele>1095.0</ele><time>2026-03-29T15:46:22.579Z</time></trkpt><trkpt lat="39.08692" lon="16.5070533"><ele>1095.0</ele><time>2026-03-29T15:46:23.579Z</time></trkpt><trkpt lat="39.08672" lon="16.50701"><ele>1095.0</ele><time>2026-03-29T15:46:24.579Z</time></trkpt><trkpt lat="39.086525" lon="16.5069683"><ele>1095.0</ele><time>2026-03-29T15:46:25.579Z</time></trkpt><trkpt lat="39.08634" lon="16.50693"><ele>1093.3333333333333</ele><time>2026-03-29T15:46:26.579Z</time></trkpt><trkpt lat="39.0861783" lon="16.5069"><ele>1091.6666666666665</ele><time>2026-03-29T15:46:27.579Z</time></trkpt><trkpt lat="39.0860317" lon="16.50688"><ele>1090.0</ele><time>2026-03-29T15:46:28.579Z</time></trkpt><trkpt lat="39.0858883" lon="16.5068767"><ele>1089.3333333333333</ele><time>2026-03-29T15:46:29.579Z</time></trkpt><trkpt lat="39.0857467" lon="16.5069033"><ele>1088.6666666666667</ele><time>2026-03-29T15:46:30.579Z</time></trkpt><trkpt lat="39.0856067" lon="16.5069567"><ele>1088.0</ele><time>2026-03-29T15:46:31.579Z</time></trkpt><trkpt lat="39.0854583" lon="16.5070583"><ele>1089.3333333333335</ele><time>2026-03-29T15:46:32.579Z</time></trkpt><trkpt lat="39.0853217" lon="16.507185"><ele>1090.6666666666667</ele><time>2026-03-29T15:46:33.579Z</time></trkpt><trkpt lat="39.085185" lon="16.5073233"><ele>1092.0</ele><time>2026-03-29T15:46:34.579Z</time></trkpt><trkpt lat="39.0850367" lon="16.50747"><ele>1089.6666666666667</ele><time>2026-03-29T15:46:35.579Z</time></trkpt><trkpt lat="39.08488" lon="16.5076117"><ele>1087.3333333333335</ele><time>2026-03-29T15:46:36.579Z</time></trkpt><trkpt lat="39.08473" lon="16.5077283"><ele>1085.0</ele><time>2026-03-29T15:46:37.579Z</time></trkpt><trkpt lat="39.08459" lon="16.5078367"><ele>1087.5</ele><time>2026-03-29T15:46:38.579Z</time></trkpt><trkpt lat="39.0844583" lon="16.5079383"><ele>1090.0</ele><time>2026-03-29T15:46:39.579Z</time></trkpt><trkpt lat="39.0843333" lon="16.50804"><ele>1092.5</ele><time>2026-03-29T15:46:40.579Z</time></trkpt><trkpt lat="39.08422" lon="16.5081233"><ele>1095.0</ele><time>2026-03-29T15:46:41.579Z</time></trkpt><trkpt lat="39.0841067" lon="16.5082133"><ele>1093.8</ele><time>2026-03-29T15:46:42.579Z</time></trkpt><trkpt lat="39.0839883" lon="16.5083033"><ele>1092.6</ele><time>2026-03-29T15:46:43.58Z</time></trkpt><trkpt lat="39.0839" lon="16.5083767"><ele>1091.4</ele><time>2026-03-29T15:46:44.579Z</time></trkpt><trkpt lat="39.0838367" lon="16.50843"><ele>1090.2</ele><time>2026-03-29T15:46:45.579Z</time></trkpt><trkpt lat="39.0837483" lon="16.5085067"><ele>1089.0</ele><time>2026-03-29T15:46:47.579Z</time></trkpt><trkpt lat="39.083685" lon="16.5085483"><ele>1089.0</ele><time>2026-03-29T15:46:49.579Z</time></trkpt><trkpt lat="39.083665" lon="16.5086267"><ele>1089.0</ele><time>2026-03-29T15:46:52.579Z</time></trkpt><trkpt lat="39.0837133" lon="16.5087"><ele>1089.0</ele><time>2026-03-29T15:46:54.58Z</time></trkpt><trkpt lat="39.0837967" lon="16.5087733"><ele>1089.0</ele><time>2026-03-29T15:46:56.579Z</time></trkpt><trkpt lat="39.083855" lon="16.5088167"><ele>1089.0</ele><time>2026-03-29T15:46:57.579Z</time></trkpt><trkpt lat="39.08393" lon="16.50887"><ele>1089.0</ele><time>2026-03-29T15:46:58.579Z</time></trkpt><trkpt lat="39.0840117" lon="16.50893"><ele>1091.6000000000001</ele><time>2026-03-29T15:46:59.579Z</time></trkpt><trkpt lat="39.0840983" lon="16.5089933"><ele>1094.2</ele><time>2026-03-29T15:47:00.579Z</time></trkpt><trkpt lat="39.0841883" lon="16.5090667"><ele>1096.8000000000002</ele><time>2026-03-29T15:47:01.579Z</time></trkpt><trkpt lat="39.084285" lon="16.509155"><ele>1099.4</ele><time>2026-03-29T15:47:02.579Z</time></trkpt><trkpt lat="39.0843817" lon="16.50924"><ele>1102.0</ele><time>2026-03-29T15:47:03.579Z</time></trkpt><trkpt lat="39.08449" lon="16.5093267"><ele>1102.0</ele><time>2026-03-29T15:47:04.579Z</time></trkpt><trkpt lat="39.0846" lon="16.5094167"><ele>1102.0</ele><time>2026-03-29T15:47:05.579Z</time></trkpt><trkpt lat="39.0847083" lon="16.5095133"><ele>1102.0</ele><time>2026-03-29T15:47:06.579Z</time></trkpt><trkpt lat="39.0848233" lon="16.5096067"><ele>1102.0</ele><time>2026-03-29T15:47:07.579Z</time></trkpt><trkpt lat="39.084935" lon="16.5097"><ele>1103.25</ele><time>2026-03-29T15:47:08.579Z</time></trkpt><trkpt lat="39.08504" lon="16.5097933"><ele>1104.5</ele><time>2026-03-29T15:47:09.579Z</time></trkpt><trkpt lat="39.0851367" lon="16.5098833"><ele>1105.75</ele><time>2026-03-29T15:47:10.579Z</time></trkpt><trkpt lat="39.08522" lon="16.509965"><ele>1107.0</ele><time>2026-03-29T15:47:11.579Z</time></trkpt><trkpt lat="39.0853167" lon="16.5100533"><ele>1107.0</ele><time>2026-03-29T15:47:12.579Z</time></trkpt><trkpt lat="39.085415" lon="16.5101367"><ele>1107.0</ele><time>2026-03-29T15:47:13.579Z</time></trkpt><trkpt lat="39.0855117" lon="16.5102267"><ele>1107.0</ele><time>2026-03-29T15:47:14.579Z</time></trkpt><trkpt lat="39.0856" lon="16.51032"><ele>1107.0</ele><time>2026-03-29T15:47:15.579Z</time></trkpt><trkpt lat="39.0856917" lon="16.5104167"><ele>1107.75</ele><time>2026-03-29T15:47:16.579Z</time></trkpt><trkpt lat="39.08579" lon="16.5105033"><ele>1108.5</ele><time>2026-03-29T15:47:17.579Z</time></trkpt><trkpt lat="39.0858883" lon="16.51059"><ele>1109.25</ele><time>2026-03-29T15:47:18.579Z</time></trkpt><trkpt lat="39.08598" lon="16.5106917"><ele>1110.0</ele><time>2026-03-29T15:47:19.579Z</time></trkpt><trkpt lat="39.0860767" lon="16.5107867"><ele>1110.0</ele><time>2026-03-29T15:47:20.579Z</time></trkpt><trkpt lat="39.0861683" lon="16.5108867"><ele>1110.0</ele><time>2026-03-29T15:47:21.579Z</time></trkpt><trkpt lat="39.086265" lon="16.5110083"><ele>1110.0</ele><time>2026-03-29T15:47:22.579Z</time></trkpt><trkpt lat="39.0863667" lon="16.5111217"><ele>1110.0</ele><time>2026-03-29T15:47:23.579Z</time></trkpt><trkpt lat="39.0864583" lon="16.5112167"><ele>1109.8333333333333</ele><time>2026-03-29T15:47:24.579Z</time></trkpt><trkpt lat="39.08654" lon="16.511285"><ele>1109.6666666666667</ele><time>2026-03-29T15:47:25.579Z</time></trkpt><trkpt lat="39.0865983" lon="16.5113367"><ele>1109.5</ele><time>2026-03-29T15:47:26.579Z</time></trkpt><trkpt lat="39.086665" lon="16.5114217"><ele>1109.3333333333335</ele><time>2026-03-29T15:47:28.579Z</time></trkpt><trkpt lat="39.0867417" lon="16.5115083"><ele>1109.1666666666667</ele><time>2026-03-29T15:47:32.579Z</time></trkpt><trkpt lat="39.0868017" lon="16.511565"><ele>1109.0</ele><time>2026-03-29T15:47:34.579Z</time></trkpt><trkpt lat="39.086855" lon="16.51161"><ele>1109.3333333333335</ele><time>2026-03-29T15:47:36.579Z</time></trkpt><trkpt lat="39.08692" lon="16.511665"><ele>1109.6666666666667</ele><time>2026-03-29T15:47:40.579Z</time></trkpt><trkpt lat="39.0869867" lon="16.5117317"><ele>1110.0</ele><time>2026-03-29T15:47:43.579Z</time></trkpt><trkpt lat="39.087065" lon="16.51181"><ele>1110.3333333333333</ele><time>2026-03-29T15:47:45.579Z</time></trkpt><trkpt lat="39.0871517" lon="16.5119033"><ele>1110.6666666666665</ele><time>2026-03-29T15:47:47.579Z</time></trkpt><trkpt lat="39.0872117" lon="16.5119517"><ele>1111.0</ele><time>2026-03-29T15:47:48.579Z</time></trkpt><trkpt lat="39.0872817" lon="16.512015"><ele>1112.0</ele><time>2026-03-29T15:47:49.579Z</time></trkpt><trkpt lat="39.0873833" lon="16.5121383"><ele>1113.0</ele><time>2026-03-29T15:47:50.579Z</time></trkpt><trkpt lat="39.0874933" lon="16.5122533"><ele>1114.0</ele><time>2026-03-29T15:47:51.579Z</time></trkpt><trkpt lat="39.0876217" lon="16.5123917"><ele>1115.0</ele><time>2026-03-29T15:47:52.579Z</time></trkpt><trkpt lat="39.0877583" lon="16.5125433"><ele>1116.3333333333335</ele><time>2026-03-29T15:47:53.579Z</time></trkpt><trkpt lat="39.0878933" lon="16.5127017"><ele>1117.6666666666667</ele><time>2026-03-29T15:47:54.579Z</time></trkpt><trkpt lat="39.08803" lon="16.512845"><ele>1119.0</ele><time>2026-03-29T15:47:55.579Z</time></trkpt><trkpt lat="39.0881733" lon="16.5129933"><ele>1122.0</ele><time>2026-03-29T15:47:56.579Z</time></trkpt><trkpt lat="39.0883367" lon="16.513165"><ele>1125.0</ele><time>2026-03-29T15:47:57.579Z</time></trkpt><trkpt lat="39.0885" lon="16.5133267"><ele>1128.0</ele><time>2026-03-29T15:47:58.579Z</time></trkpt><trkpt lat="39.0886533" lon="16.5134633"><ele>1128.0</ele><time>2026-03-29T15:47:59.579Z</time></trkpt><trkpt lat="39.0888083" lon="16.513615"><ele>1128.0</ele><time>2026-03-29T15:48:00.579Z</time></trkpt><trkpt lat="39.08895" lon="16.5137717"><ele>1128.0</ele><time>2026-03-29T15:48:01.579Z</time></trkpt><trkpt lat="39.0891167" lon="16.5139283"><ele>1133.0</ele><time>2026-03-29T15:48:02.579Z</time></trkpt><trkpt lat="39.0892733" lon="16.5140833"><ele>1138.0</ele><time>2026-03-29T15:48:03.579Z</time></trkpt><trkpt lat="39.0894267" lon="16.514265"><ele>1143.0</ele><time>2026-03-29T15:48:04.579Z</time></trkpt><trkpt lat="39.0895833" lon="16.5144467"><ele>1145.6666666666667</ele><time>2026-03-29T15:48:05.579Z</time></trkpt><trkpt lat="39.0897383" lon="16.5146167"><ele>1148.3333333333335</ele><time>2026-03-29T15:48:06.579Z</time></trkpt><trkpt lat="39.0898883" lon="16.51477"><ele>1151.0</ele><time>2026-03-29T15:48:07.579Z</time></trkpt><trkpt lat="39.090035" lon="16.5149067"><ele>1151.0</ele><time>2026-03-29T15:48:08.579Z</time></trkpt><trkpt lat="39.09017" lon="16.51504"><ele>1151.0</ele><time>2026-03-29T15:48:09.579Z</time></trkpt><trkpt lat="39.0903017" lon="16.5151583"><ele>1151.0</ele><time>2026-03-29T15:48:10.579Z</time></trkpt><trkpt lat="39.0904183" lon="16.5152817"><ele>1151.0</ele><time>2026-03-29T15:48:11.579Z</time></trkpt><trkpt lat="39.0905283" lon="16.5154"><ele>1151.0</ele><time>2026-03-29T15:48:12.579Z</time></trkpt><trkpt lat="39.090625" lon="16.5155283"><ele>1151.0</ele><time>2026-03-29T15:48:13.579Z</time></trkpt><trkpt lat="39.0907017" lon="16.5156783"><ele>1151.0</ele><time>2026-03-29T15:48:14.579Z</time></trkpt><trkpt lat="39.09077" lon="16.5158483"><ele>1152.0</ele><time>2026-03-29T15:48:15.579Z</time></trkpt><trkpt lat="39.09081" lon="16.516035"><ele>1153.0</ele><time>2026-03-29T15:48:16.579Z</time></trkpt><trkpt lat="39.090825" lon="16.51622"><ele>1154.0</ele><time>2026-03-29T15:48:17.579Z</time></trkpt><trkpt lat="39.0908333" lon="16.5163917"><ele>1155.0</ele><time>2026-03-29T15:48:18.579Z</time></trkpt><trkpt lat="39.0908367" lon="16.516555"><ele>1154.0</ele><time>2026-03-29T15:48:19.579Z</time></trkpt><trkpt lat="39.0908317" lon="16.5167083"><ele>1153.0</ele><time>2026-03-29T15:48:20.579Z</time></trkpt><trkpt lat="39.0908517" lon="16.516815"><ele>1152.0</ele><time>2026-03-29T15:48:21.579Z</time></trkpt><trkpt lat="39.09085" lon="16.5169333"><ele>1151.0</ele><time>2026-03-29T15:48:22.579Z</time></trkpt><trkpt lat="39.090845" lon="16.517055"><ele>1150.0</ele><time>2026-03-29T15:48:23.579Z</time></trkpt><trkpt lat="39.090845" lon="16.517165"><ele>1150.0</ele><time>2026-03-29T15:48:24.579Z</time></trkpt><trkpt lat="39.090845" lon="16.517255"><ele>1150.0</ele><time>2026-03-29T15:48:25.579Z</time></trkpt><trkpt lat="39.0908383" lon="16.5173817"><ele>1150.0</ele><time>2026-03-29T15:48:27.579Z</time></trkpt><trkpt lat="39.0908333" lon="16.5174717"><ele>1150.0</ele><time>2026-03-29T15:48:30.579Z</time></trkpt><trkpt lat="39.090825" lon="16.5175667"><ele>1150.0</ele><time>2026-03-29T15:48:35.58Z</time></trkpt><trkpt lat="39.0907867" lon="16.5176733"><ele>1150.0</ele><time>2026-03-29T15:48:37.58Z</time></trkpt><trkpt lat="39.09072" lon="16.5178283"><ele>1153.5</ele><time>2026-03-29T15:48:39.58Z</time></trkpt><trkpt lat="39.09067" lon="16.5179283"><ele>1157.0</ele><time>2026-03-29T15:48:40.58Z</time></trkpt><trkpt lat="39.09061" lon="16.5180633"><ele>1160.5</ele><time>2026-03-29T15:48:41.58Z</time></trkpt><trkpt lat="39.09054" lon="16.5182267"><ele>1164.0</ele><time>2026-03-29T15:48:42.58Z</time></trkpt><trkpt lat="39.09048" lon="16.518395"><ele>1164.0</ele><time>2026-03-29T15:48:43.58Z</time></trkpt><trkpt lat="39.0904433" lon="16.51858"><ele>1164.0</ele><time>2026-03-29T15:48:44.58Z</time></trkpt><trkpt lat="39.0904083" lon="16.5187483"><ele>1164.0</ele><time>2026-03-29T15:48:45.58Z</time></trkpt><trkpt lat="39.0904017" lon="16.518915"><ele>1164.0</ele><time>2026-03-29T15:48:46.58Z</time></trkpt><trkpt lat="39.0903933" lon="16.5190383"><ele>1161.8333333333333</ele><time>2026-03-29T15:48:47.58Z</time></trkpt><trkpt lat="39.0904" lon="16.5191333"><ele>1159.6666666666667</ele><time>2026-03-29T15:48:48.58Z</time></trkpt><trkpt lat="39.0904183" lon="16.5192567"><ele>1157.5</ele><time>2026-03-29T15:48:50.58Z</time></trkpt><trkpt lat="39.09044" lon="16.51935"><ele>1155.3333333333335</ele><time>2026-03-29T15:48:53.58Z</time></trkpt><trkpt lat="39.0905033" lon="16.5193267"><ele>1153.1666666666667</ele><time>2026-03-29T15:49:09.58Z</time></trkpt><trkpt lat="39.090495" lon="16.5192283"><ele>1151.0</ele><time>2026-03-29T15:49:11.58Z</time></trkpt><trkpt lat="39.090485" lon="16.519145"><ele>1151.0</ele><time>2026-03-29T15:49:12.58Z</time></trkpt><trkpt lat="39.0904783" lon="16.519055"><ele>1151.0</ele><time>2026-03-29T15:49:13.58Z</time></trkpt><trkpt lat="39.090475" lon="16.51892"><ele>1151.0</ele><time>2026-03-29T15:49:14.58Z</time></trkpt><trkpt lat="39.0904867" lon="16.518765"><ele>1151.0</ele><time>2026-03-29T15:49:15.58Z</time></trkpt><trkpt lat="39.0905083" lon="16.5186017"><ele>1151.0</ele><time>2026-03-29T15:49:16.58Z</time></trkpt><trkpt lat="39.090545" lon="16.5184683"><ele>1150.8333333333335</ele><time>2026-03-29T15:49:17.58Z</time></trkpt><trkpt lat="39.0905833" lon="16.5183417"><ele>1150.6666666666667</ele><time>2026-03-29T15:49:18.58Z</time></trkpt><trkpt lat="39.0906283" lon="16.5182333"><ele>1150.5</ele><time>2026-03-29T15:49:19.58Z</time></trkpt><trkpt lat="39.090665" lon="16.51814"><ele>1150.3333333333333</ele><time>2026-03-29T15:49:20.58Z</time></trkpt><trkpt lat="39.0907017" lon="16.5180533"><ele>1150.1666666666665</ele><time>2026-03-29T15:49:21.58Z</time></trkpt><trkpt lat="39.0907417" lon="16.5179533"><ele>1150.0</ele><time>2026-03-29T15:49:22.58Z</time></trkpt><trkpt lat="39.090785" lon="16.5178367"><ele>1150.0</ele><time>2026-03-29T15:49:23.58Z</time></trkpt><trkpt lat="39.0908283" lon="16.5177167"><ele>1150.0</ele><time>2026-03-29T15:49:24.58Z</time></trkpt><trkpt lat="39.0908683" lon="16.5176183"><ele>1150.0</ele><time>2026-03-29T15:49:25.58Z</time></trkpt><trkpt lat="39.0909017" lon="16.5175417"><ele>1150.0</ele><time>2026-03-29T15:49:26.58Z</time></trkpt><trkpt lat="39.0909567" lon="16.5174583"><ele>1150.0</ele><time>2026-03-29T15:49:29.58Z</time></trkpt><trkpt lat="39.0910533" lon="16.517465"><ele>1150.0</ele><time>2026-03-29T15:49:34.58Z</time></trkpt><trkpt lat="39.0911317" lon="16.51746"><ele>1150.0</ele><time>2026-03-29T15:49:37.58Z</time></trkpt><trkpt lat="39.0911683" lon="16.5173917"><ele>1150.0</ele><time>2026-03-29T15:49:40.58Z</time></trkpt><trkpt lat="39.091155" lon="16.5173117"><ele>1150.0</ele><time>2026-03-29T15:49:43.58Z</time></trkpt><trkpt lat="39.0911167" lon="16.51722"><ele>1150.0</ele><time>2026-03-29T15:49:47.58Z</time></trkpt><trkpt lat="39.0911083" lon="16.5171333"><ele>1150.0</ele><time>2026-03-29T15:49:51.58Z</time></trkpt><trkpt lat="39.0911317" lon="16.517055"><ele>1150.0</ele><time>2026-03-29T15:49:54.58Z</time></trkpt><trkpt lat="39.0911867" lon="16.5169867"><ele>1150.0</ele><time>2026-03-29T15:49:57.58Z</time></trkpt><trkpt lat="39.0912667" lon="16.5169417"><ele>1150.0</ele><time>2026-03-29T15:50:00.58Z</time></trkpt><trkpt lat="39.0913483" lon="16.516905"><ele>1150.0</ele><time>2026-03-29T15:50:03.58Z</time></trkpt><trkpt lat="39.0914067" lon="16.51683"><ele>1150.0</ele><time>2026-03-29T15:50:20.58Z</time></trkpt><trkpt lat="39.0913317" lon="16.5169017"><ele>1150.0</ele><time>2026-03-29T15:51:45.58Z</time></trkpt><trkpt lat="39.0912483" lon="16.5169333"><ele>1150.0</ele><time>2026-03-29T15:51:47.58Z</time></trkpt><trkpt lat="39.0911733" lon="16.5169833"><ele>1150.0</ele><time>2026-03-29T15:51:49.58Z</time></trkpt><trkpt lat="39.0911233" lon="16.517075"><ele>1150.0</ele><time>2026-03-29T15:51:51.58Z</time></trkpt><trkpt lat="39.0911233" lon="16.5171717"><ele>1150.0</ele><time>2026-03-29T15:51:53.58Z</time></trkpt><trkpt lat="39.0911433" lon="16.5172967"><ele>1150.0</ele><time>2026-03-29T15:51:55.58Z</time></trkpt><trkpt lat="39.0911383" lon="16.5173817"><ele>1150.0</ele><time>2026-03-29T15:51:57.58Z</time></trkpt><trkpt lat="39.091075" lon="16.5174267"><ele>1150.0</ele><time>2026-03-29T15:51:59.58Z</time></trkpt><trkpt lat="39.0909883" lon="16.5174533"><ele>1150.0</ele><time>2026-03-29T15:52:01.58Z</time></trkpt><trkpt lat="39.0909317" lon="16.5175083"><ele>1150.0</ele><time>2026-03-29T15:52:03.58Z</time></trkpt><trkpt lat="39.09088" lon="16.5175917"><ele>1150.0</ele><time>2026-03-29T15:52:05.58Z</time></trkpt><trkpt lat="39.0908367" lon="16.5177"><ele>1150.0</ele><time>2026-03-29T15:52:07.58Z</time></trkpt><trkpt lat="39.09079" lon="16.5177867"><ele>1150.0</ele><time>2026-03-29T15:52:09.58Z</time></trkpt><trkpt lat="39.090735" lon="16.517865"><ele>1150.0</ele><time>2026-03-29T15:52:11.58Z</time></trkpt><trkpt lat="39.0906933" lon="16.51795"><ele>1150.0</ele><time>2026-03-29T15:52:13.58Z</time></trkpt><trkpt lat="39.09066" lon="16.518055"><ele>1152.8</ele><time>2026-03-29T15:52:15.58Z</time></trkpt><trkpt lat="39.0906167" lon="16.5181483"><ele>1155.6</ele><time>2026-03-29T15:52:17.58Z</time></trkpt><trkpt lat="39.09058" lon="16.5182333"><ele>1158.4</ele><time>2026-03-29T15:52:19.58Z</time></trkpt><trkpt lat="39.0905433" lon="16.518345"><ele>1161.2</ele><time>2026-03-29T15:52:32.58Z</time></trkpt><trkpt lat="39.0904917" lon="16.5184867"><ele>1164.0</ele><time>2026-03-29T15:52:34.58Z</time></trkpt><trkpt lat="39.0904517" lon="16.5186067"><ele>1160.75</ele><time>2026-03-29T15:52:35.58Z</time></trkpt><trkpt lat="39.09042" lon="16.5187533"><ele>1157.5</ele><time>2026-03-29T15:52:36.58Z</time></trkpt><trkpt lat="39.090405" lon="16.5189267"><ele>1154.25</ele><time>2026-03-29T15:52:37.58Z</time></trkpt><trkpt lat="39.0904183" lon="16.519095"><ele>1151.0</ele><time>2026-03-29T15:52:38.58Z</time></trkpt><trkpt lat="39.090445" lon="16.519255"><ele>1151.0</ele><time>2026-03-29T15:52:39.58Z</time></trkpt><trkpt lat="39.0905067" lon="16.519415"><ele>1151.0</ele><time>2026-03-29T15:52:40.58Z</time></trkpt><trkpt lat="39.0905883" lon="16.5195717"><ele>1151.0</ele><time>2026-03-29T15:52:41.58Z</time></trkpt><trkpt lat="39.0907" lon="16.5197133"><ele>1151.0</ele><time>2026-03-29T15:52:42.58Z</time></trkpt><trkpt lat="39.0908117" lon="16.519845"><ele>1146.75</ele><time>2026-03-29T15:52:43.581Z</time></trkpt><trkpt lat="39.0909217" lon="16.51996"><ele>1142.5</ele><time>2026-03-29T15:52:44.58Z</time></trkpt><trkpt lat="39.0910283" lon="16.5201017"><ele>1138.25</ele><time>2026-03-29T15:52:45.58Z</time></trkpt><trkpt lat="39.0910967" lon="16.5201967"><ele>1134.0</ele><time>2026-03-29T15:52:46.58Z</time></trkpt><trkpt lat="39.091165" lon="16.520335"><ele>1132.6000000000001</ele><time>2026-03-29T15:52:47.58Z</time></trkpt><trkpt lat="39.0912117" lon="16.5204733"><ele>1131.2</ele><time>2026-03-29T15:52:48.58Z</time></trkpt><trkpt lat="39.0912517" lon="16.5206117"><ele>1129.8000000000002</ele><time>2026-03-29T15:52:49.58Z</time></trkpt><trkpt lat="39.0912833" lon="16.5207367"><ele>1128.4</ele><time>2026-03-29T15:52:50.58Z</time></trkpt><trkpt lat="39.091305" lon="16.520875"><ele>1127.0</ele><time>2026-03-29T15:52:51.58Z</time></trkpt><trkpt lat="39.09132" lon="16.521025"><ele>1127.0</ele><time>2026-03-29T15:52:52.58Z</time></trkpt><trkpt lat="39.0913433" lon="16.5211833"><ele>1127.0</ele><time>2026-03-29T15:52:53.58Z</time></trkpt><trkpt lat="39.091365" lon="16.521355"><ele>1127.0</ele><time>2026-03-29T15:52:54.58Z</time></trkpt><trkpt lat="39.09139" lon="16.5215233"><ele>1127.0</ele><time>2026-03-29T15:52:55.58Z</time></trkpt><trkpt lat="39.0914183" lon="16.5216683"><ele>1125.25</ele><time>2026-03-29T15:52:56.581Z</time></trkpt><trkpt lat="39.0914383" lon="16.52182"><ele>1123.5</ele><time>2026-03-29T15:52:57.58Z</time></trkpt><trkpt lat="39.0914583" lon="16.5219767"><ele>1121.75</ele><time>2026-03-29T15:52:58.58Z</time></trkpt><trkpt lat="39.0914767" lon="16.522115"><ele>1120.0</ele><time>2026-03-29T15:52:59.58Z</time></trkpt><trkpt lat="39.0915033" lon="16.5222517"><ele>1117.0</ele><time>2026-03-29T15:53:00.58Z</time></trkpt><trkpt lat="39.09153" lon="16.5223933"><ele>1114.0</ele><time>2026-03-29T15:53:01.58Z</time></trkpt><trkpt lat="39.0915467" lon="16.5225417"><ele>1111.0</ele><time>2026-03-29T15:53:02.58Z</time></trkpt><trkpt lat="39.09156" lon="16.5226933"><ele>1108.0</ele><time>2026-03-29T15:53:03.58Z</time></trkpt><trkpt lat="39.091565" lon="16.522845"><ele>1103.25</ele><time>2026-03-29T15:53:04.58Z</time></trkpt><trkpt lat="39.09156" lon="16.523"><ele>1098.5</ele><time>2026-03-29T15:53:05.58Z</time></trkpt><trkpt lat="39.091555" lon="16.5231733"><ele>1093.75</ele><time>2026-03-29T15:53:06.58Z</time></trkpt><trkpt lat="39.09156" lon="16.5233517"><ele>1089.0</ele><time>2026-03-29T15:53:07.58Z</time></trkpt><trkpt lat="39.09157" lon="16.5235433"><ele>1089.0</ele><time>2026-03-29T15:53:08.58Z</time></trkpt><trkpt lat="39.0915733" lon="16.52373"><ele>1089.0</ele><time>2026-03-29T15:53:09.58Z</time></trkpt><trkpt lat="39.09158" lon="16.523915"><ele>1089.0</ele><time>2026-03-29T15:53:10.58Z</time></trkpt><trkpt lat="39.09159" lon="16.5241117"><ele>1089.0</ele><time>2026-03-29T15:53:11.58Z</time></trkpt><trkpt lat="39.0915983" lon="16.52429"><ele>1093.25</ele><time>2026-03-29T15:53:12.58Z</time></trkpt><trkpt lat="39.0916033" lon="16.524465"><ele>1097.5</ele><time>2026-03-29T15:53:13.58Z</time></trkpt><trkpt lat="39.091605" lon="16.5246333"><ele>1101.75</ele><time>2026-03-29T15:53:14.58Z</time></trkpt><trkpt lat="39.0916133" lon="16.5248117"><ele>1106.0</ele><time>2026-03-29T15:53:15.58Z</time></trkpt><trkpt lat="39.0916133" lon="16.5249833"><ele>1107.5</ele><time>2026-03-29T15:53:16.58Z</time></trkpt><trkpt lat="39.09161" lon="16.525145"><ele>1109.0</ele><time>2026-03-29T15:53:17.58Z</time></trkpt><trkpt lat="39.0916167" lon="16.525315"><ele>1110.5</ele><time>2026-03-29T15:53:18.58Z</time></trkpt><trkpt lat="39.0916217" lon="16.525475"><ele>1112.0</ele><time>2026-03-29T15:53:19.58Z</time></trkpt><trkpt lat="39.091625" lon="16.5256283"><ele>1114.25</ele><time>2026-03-29T15:53:20.58Z</time></trkpt><trkpt lat="39.0916317" lon="16.52578"><ele>1116.5</ele><time>2026-03-29T15:53:21.58Z</time></trkpt><trkpt lat="39.0916317" lon="16.525925"><ele>1118.75</ele><time>2026-03-29T15:53:22.58Z</time></trkpt><trkpt lat="39.09164" lon="16.5260733"><ele>1121.0</ele><time>2026-03-29T15:53:23.58Z</time></trkpt><trkpt lat="39.0916583" lon="16.5262133"><ele>1122.8</ele><time>2026-03-29T15:53:24.58Z</time></trkpt><trkpt lat="39.0916917" lon="16.5263433"><ele>1124.6</ele><time>2026-03-29T15:53:25.58Z</time></trkpt><trkpt lat="39.0917383" lon="16.5264667"><ele>1126.4</ele><time>2026-03-29T15:53:26.58Z</time></trkpt><trkpt lat="39.0918083" lon="16.5265733"><ele>1128.2</ele><time>2026-03-29T15:53:27.58Z</time></trkpt><trkpt lat="39.0918967" lon="16.5266617"><ele>1130.0</ele><time>2026-03-29T15:53:28.58Z</time></trkpt><trkpt lat="39.0919883" lon="16.5267417"><ele>1130.0</ele><time>2026-03-29T15:53:29.58Z</time></trkpt><trkpt lat="39.0920883" lon="16.52678"><ele>1130.0</ele><time>2026-03-29T15:53:30.58Z</time></trkpt><trkpt lat="39.092205" lon="16.5267833"><ele>1130.0</ele><time>2026-03-29T15:53:31.58Z</time></trkpt><trkpt lat="39.0923317" lon="16.5267667"><ele>1130.0</ele><time>2026-03-29T15:53:32.58Z</time></trkpt><trkpt lat="39.0924583" lon="16.5267283"><ele>1131.5</ele><time>2026-03-29T15:53:33.58Z</time></trkpt><trkpt lat="39.0925917" lon="16.5266817"><ele>1133.0</ele><time>2026-03-29T15:53:34.58Z</time></trkpt><trkpt lat="39.0927233" lon="16.5266433"><ele>1134.5</ele><time>2026-03-29T15:53:35.58Z</time></trkpt><trkpt lat="39.0928533" lon="16.5266067"><ele>1136.0</ele><time>2026-03-29T15:53:36.58Z</time></trkpt><trkpt lat="39.0929733" lon="16.5265583"><ele>1136.0</ele><time>2026-03-29T15:53:37.581Z</time></trkpt><trkpt lat="39.093095" lon="16.5265333"><ele>1136.0</ele><time>2026-03-29T15:53:38.58Z</time></trkpt><trkpt lat="39.0932167" lon="16.5265267"><ele>1136.0</ele><time>2026-03-29T15:53:39.58Z</time></trkpt><trkpt lat="39.093345" lon="16.5265433"><ele>1136.0</ele><time>2026-03-29T15:53:40.58Z</time></trkpt><trkpt lat="39.0934583" lon="16.52658"><ele>1136.25</ele><time>2026-03-29T15:53:41.58Z</time></trkpt><trkpt lat="39.0935667" lon="16.526635"><ele>1136.5</ele><time>2026-03-29T15:53:42.58Z</time></trkpt><trkpt lat="39.093675" lon="16.526695"><ele>1136.75</ele><time>2026-03-29T15:53:43.58Z</time></trkpt><trkpt lat="39.09378" lon="16.52676"><ele>1137.0</ele><time>2026-03-29T15:53:44.58Z</time></trkpt><trkpt lat="39.0938967" lon="16.5268317"><ele>1137.0</ele><time>2026-03-29T15:53:45.58Z</time></trkpt><trkpt lat="39.09402" lon="16.5269133"><ele>1137.0</ele><time>2026-03-29T15:53:46.58Z</time></trkpt><trkpt lat="39.0941267" lon="16.5270067"><ele>1137.0</ele><time>2026-03-29T15:53:47.58Z</time></trkpt><trkpt lat="39.0942767" lon="16.5270833"><ele>1137.0</ele><time>2026-03-29T15:53:48.58Z</time></trkpt><trkpt lat="39.0944167" lon="16.52716"><ele>1138.25</ele><time>2026-03-29T15:53:49.58Z</time></trkpt><trkpt lat="39.0945533" lon="16.5272267"><ele>1139.5</ele><time>2026-03-29T15:53:50.58Z</time></trkpt><trkpt lat="39.0946833" lon="16.5273033"><ele>1140.75</ele><time>2026-03-29T15:53:51.58Z</time></trkpt><trkpt lat="39.0948217" lon="16.5273767"><ele>1142.0</ele><time>2026-03-29T15:53:52.58Z</time></trkpt><trkpt lat="39.0949533" lon="16.5274517"><ele>1142.0</ele><time>2026-03-29T15:53:53.58Z</time></trkpt><trkpt lat="39.0950883" lon="16.5274967"><ele>1142.0</ele><time>2026-03-29T15:53:54.58Z</time></trkpt><trkpt lat="39.0952167" lon="16.5275133"><ele>1142.0</ele><time>2026-03-29T15:53:55.58Z</time></trkpt><trkpt lat="39.095355" lon="16.5274967"><ele>1142.0</ele><time>2026-03-29T15:53:56.58Z</time></trkpt><trkpt lat="39.0954917" lon="16.5274467"><ele>1142.0</ele><time>2026-03-29T15:53:57.58Z</time></trkpt><trkpt lat="39.095615" lon="16.52737"><ele>1142.0</ele><time>2026-03-29T15:53:58.58Z</time></trkpt><trkpt lat="39.0957283" lon="16.527275"><ele>1142.0</ele><time>2026-03-29T15:53:59.58Z</time></trkpt><trkpt lat="39.0958267" lon="16.52715"><ele>1142.0</ele><time>2026-03-29T15:54:00.58Z</time></trkpt><trkpt lat="39.0959117" lon="16.5270067"><ele>1143.6666666666667</ele><time>2026-03-29T15:54:01.58Z</time></trkpt><trkpt lat="39.0959983" lon="16.52686"><ele>1145.3333333333333</ele><time>2026-03-29T15:54:02.58Z</time></trkpt><trkpt lat="39.0960817" lon="16.5266933"><ele>1147.0</ele><time>2026-03-29T15:54:03.58Z</time></trkpt><trkpt lat="39.096175" lon="16.5265367"><ele>1147.0</ele><time>2026-03-29T15:54:04.58Z</time></trkpt><trkpt lat="39.096285" lon="16.52642"><ele>1147.0</ele><time>2026-03-29T15:54:05.58Z</time></trkpt><trkpt lat="39.096395" lon="16.5263217"><ele>1147.0</ele><time>2026-03-29T15:54:06.58Z</time></trkpt><trkpt lat="39.096515" lon="16.5262433"><ele>1147.0</ele><time>2026-03-29T15:54:07.58Z</time></trkpt><trkpt lat="39.09664" lon="16.52618"><ele>1147.5</ele><time>2026-03-29T15:54:08.58Z</time></trkpt><trkpt lat="39.0967633" lon="16.5261183"><ele>1148.0</ele><time>2026-03-29T15:54:09.58Z</time></trkpt><trkpt lat="39.0968817" lon="16.5260617"><ele>1148.5</ele><time>2026-03-29T15:54:10.58Z</time></trkpt><trkpt lat="39.09699" lon="16.5259917"><ele>1149.0</ele><time>2026-03-29T15:54:11.58Z</time></trkpt><trkpt lat="39.0970917" lon="16.5259033"><ele>1149.0</ele><time>2026-03-29T15:54:12.58Z</time></trkpt><trkpt lat="39.0971783" lon="16.5257933"><ele>1149.0</ele><time>2026-03-29T15:54:13.58Z</time></trkpt><trkpt lat="39.0972617" lon="16.5256833"><ele>1149.0</ele><time>2026-03-29T15:54:14.58Z</time></trkpt><trkpt lat="39.097325" lon="16.52555"><ele>1149.0</ele><time>2026-03-29T15:54:15.58Z</time></trkpt><trkpt lat="39.0973683" lon="16.525425"><ele>1152.0</ele><time>2026-03-29T15:54:16.58Z</time></trkpt><trkpt lat="39.097405" lon="16.52529"><ele>1155.0</ele><time>2026-03-29T15:54:17.58Z</time></trkpt><trkpt lat="39.097425" lon="16.52515"><ele>1158.0</ele><time>2026-03-29T15:54:18.58Z</time></trkpt><trkpt lat="39.097455" lon="16.525005"><ele>1161.0</ele><time>2026-03-29T15:54:19.58Z</time></trkpt><trkpt lat="39.0974883" lon="16.524865"><ele>1161.0</ele><time>2026-03-29T15:54:20.58Z</time></trkpt><trkpt lat="39.0975383" lon="16.524705"><ele>1161.0</ele><time>2026-03-29T15:54:21.58Z</time></trkpt><trkpt lat="39.0975817" lon="16.5245483"><ele>1161.0</ele><time>2026-03-29T15:54:22.58Z</time></trkpt><trkpt lat="39.0976467" lon="16.524415"><ele>1161.0</ele><time>2026-03-29T15:54:23.58Z</time></trkpt><trkpt lat="39.0977433" lon="16.5242983"><ele>1162.75</ele><time>2026-03-29T15:54:24.58Z</time></trkpt><trkpt lat="39.0978617" lon="16.524205"><ele>1164.5</ele><time>2026-03-29T15:54:25.58Z</time></trkpt><trkpt lat="39.097995" lon="16.5241333"><ele>1166.25</ele><time>2026-03-29T15:54:26.58Z</time></trkpt><trkpt lat="39.0981267" lon="16.5240617"><ele>1168.0</ele><time>2026-03-29T15:54:27.58Z</time></trkpt><trkpt lat="39.098265" lon="16.5240117"><ele>1168.0</ele><time>2026-03-29T15:54:28.58Z</time></trkpt><trkpt lat="39.0984117" lon="16.5239717"><ele>1168.0</ele><time>2026-03-29T15:54:29.58Z</time></trkpt><trkpt lat="39.0985617" lon="16.523935"><ele>1168.0</ele><time>2026-03-29T15:54:30.58Z</time></trkpt><trkpt lat="39.09871" lon="16.523905"><ele>1168.0</ele><time>2026-03-29T15:54:31.58Z</time></trkpt><trkpt lat="39.0988517" lon="16.5238917"><ele>1168.0</ele><time>2026-03-29T15:54:32.58Z</time></trkpt><trkpt lat="39.0989908" lon="16.5238987"><ele>1168.0</ele><time>2026-03-29T15:54:33.58Z</time></trkpt><trkpt lat="39.0991269" lon="16.5239331"><ele>1168.0</ele><time>2026-03-29T15:54:34.58Z</time></trkpt><trkpt lat="39.0992555" lon="16.5239871"><ele>1169.75</ele><time>2026-03-29T15:54:35.58Z</time></trkpt><trkpt lat="39.0993771" lon="16.5240613"><ele>1171.5</ele><time>2026-03-29T15:54:36.58Z</time></trkpt><trkpt lat="39.0994883" lon="16.5241634"><ele>1173.25</ele><time>2026-03-29T15:54:37.58Z</time></trkpt><trkpt lat="39.0995894" lon="16.5242604"><ele>1175.0</ele><time>2026-03-29T15:54:38.58Z</time></trkpt><trkpt lat="39.0996868" lon="16.5243648"><ele>1175.0</ele><time>2026-03-29T15:54:39.58Z</time></trkpt><trkpt lat="39.0997834" lon="16.5244787"><ele>1175.0</ele><time>2026-03-29T15:54:40.58Z</time></trkpt><trkpt lat="39.0998796" lon="16.5245986"><ele>1175.0</ele><time>2026-03-29T15:54:41.58Z</time></trkpt><trkpt lat="39.0999739" lon="16.5247182"><ele>1175.0</ele><time>2026-03-29T15:54:42.58Z</time></trkpt><trkpt lat="39.1000698" lon="16.5248429"><ele>1178.0</ele><time>2026-03-29T15:54:43.58Z</time></trkpt><trkpt lat="39.1001648" lon="16.5249732"><ele>1181.0</ele><time>2026-03-29T15:54:44.58Z</time></trkpt><trkpt lat="39.1002519" lon="16.5251098"><ele>1184.0</ele><time>2026-03-29T15:54:45.58Z</time></trkpt><trkpt lat="39.1003335" lon="16.5252605"><ele>1187.0</ele><time>2026-03-29T15:54:46.58Z</time></trkpt><trkpt lat="39.1004085" lon="16.5254228"><ele>1191.0</ele><time>2026-03-29T15:54:47.58Z</time></trkpt><trkpt lat="39.1004701" lon="16.5255881"><ele>1195.0</ele><time>2026-03-29T15:54:48.58Z</time></trkpt><trkpt lat="39.1005307" lon="16.5257607"><ele>1199.0</ele><time>2026-03-29T15:54:49.58Z</time></trkpt><trkpt lat="39.1005983" lon="16.5259309"><ele>1203.0</ele><time>2026-03-29T15:54:50.58Z</time></trkpt><trkpt lat="39.1006714" lon="16.5260857"><ele>1203.0</ele><time>2026-03-29T15:54:51.58Z</time></trkpt><trkpt lat="39.1007488" lon="16.5262178"><ele>1203.0</ele><time>2026-03-29T15:54:52.58Z</time></trkpt><trkpt lat="39.1008368" lon="16.5263244"><ele>1203.0</ele><time>2026-03-29T15:54:53.58Z</time></trkpt><trkpt lat="39.1009358" lon="16.5264003"><ele>1203.0</ele><time>2026-03-29T15:54:54.58Z</time></trkpt><trkpt lat="39.1010483" lon="16.5264569"><ele>1201.5</ele><time>2026-03-29T15:54:55.58Z</time></trkpt><trkpt lat="39.101177" lon="16.5265052"><ele>1200.0</ele><time>2026-03-29T15:54:56.58Z</time></trkpt><trkpt lat="39.1013193" lon="16.5265506"><ele>1198.5</ele><time>2026-03-29T15:54:57.58Z</time></trkpt><trkpt lat="39.1014712" lon="16.5265901"><ele>1197.0</ele><time>2026-03-29T15:54:58.58Z</time></trkpt><trkpt lat="39.1016247" lon="16.5266306"><ele>1196.0</ele><time>2026-03-29T15:54:59.58Z</time></trkpt><trkpt lat="39.1017794" lon="16.5266794"><ele>1195.0</ele><time>2026-03-29T15:55:00.58Z</time></trkpt><trkpt lat="39.1019454" lon="16.5267267"><ele>1194.0</ele><time>2026-03-29T15:55:01.58Z</time></trkpt><trkpt lat="39.1021122" lon="16.5267788"><ele>1194.0</ele><time>2026-03-29T15:55:02.58Z</time></trkpt><trkpt lat="39.1022889" lon="16.5268372"><ele>1194.0</ele><time>2026-03-29T15:55:03.581Z</time></trkpt><trkpt lat="39.1024752" lon="16.5269032"><ele>1194.0</ele><time>2026-03-29T15:55:04.58Z</time></trkpt><trkpt lat="39.1026627" lon="16.526976"><ele>1192.6666666666667</ele><time>2026-03-29T15:55:05.58Z</time></trkpt><trkpt lat="39.1028387" lon="16.5270458"><ele>1191.3333333333335</ele><time>2026-03-29T15:55:06.58Z</time></trkpt><trkpt lat="39.1030185" lon="16.5271174"><ele>1190.0</ele><time>2026-03-29T15:55:07.58Z</time></trkpt><trkpt lat="39.1031921" lon="16.5271945"><ele>1194.0</ele><time>2026-03-29T15:55:08.58Z</time></trkpt><trkpt lat="39.1033461" lon="16.5272684"><ele>1198.0</ele><time>2026-03-29T15:55:09.58Z</time></trkpt><trkpt lat="39.1034884" lon="16.5273633"><ele>1202.0</ele><time>2026-03-29T15:55:10.58Z</time></trkpt><trkpt lat="39.1036077" lon="16.5274607"><ele>1202.0</ele><time>2026-03-29T15:55:11.58Z</time></trkpt><trkpt lat="39.1037088" lon="16.5275737"><ele>1202.0</ele><time>2026-03-29T15:55:12.58Z</time></trkpt><trkpt lat="39.1037935" lon="16.5276945"><ele>1202.0</ele><time>2026-03-29T15:55:13.58Z</time></trkpt><trkpt lat="39.1038626" lon="16.527837"><ele>1202.0</ele><time>2026-03-29T15:55:14.58Z</time></trkpt><trkpt lat="39.1039167" lon="16.5279898"><ele>1205.5</ele><time>2026-03-29T15:55:15.58Z</time></trkpt><trkpt lat="39.1039536" lon="16.5281463"><ele>1209.0</ele><time>2026-03-29T15:55:16.58Z</time></trkpt><trkpt lat="39.1039686" lon="16.528305"><ele>1212.5</ele><time>2026-03-29T15:55:17.58Z</time></trkpt><trkpt lat="39.1039659" lon="16.5284529"><ele>1216.0</ele><time>2026-03-29T15:55:18.58Z</time></trkpt><trkpt lat="39.1039401" lon="16.5286073"><ele>1212.5</ele><time>2026-03-29T15:55:19.58Z</time></trkpt><trkpt lat="39.103884" lon="16.5287607"><ele>1209.0</ele><time>2026-03-29T15:55:20.581Z</time></trkpt><trkpt lat="39.1037915" lon="16.5288908"><ele>1205.5</ele><time>2026-03-29T15:55:21.58Z</time></trkpt><trkpt lat="39.1036938" lon="16.5290062"><ele>1202.0</ele><time>2026-03-29T15:55:22.58Z</time></trkpt><trkpt lat="39.1035913" lon="16.529102"><ele>1202.0</ele><time>2026-03-29T15:55:23.58Z</time></trkpt><trkpt lat="39.1034847" lon="16.5291743"><ele>1202.0</ele><time>2026-03-29T15:55:24.58Z</time></trkpt><trkpt lat="39.10337" lon="16.5292294"><ele>1202.0</ele><time>2026-03-29T15:55:25.58Z</time></trkpt><trkpt lat="39.1032432" lon="16.5292717"><ele>1202.0</ele><time>2026-03-29T15:55:26.58Z</time></trkpt><trkpt lat="39.1031172" lon="16.5293126"><ele>1202.5</ele><time>2026-03-29T15:55:27.58Z</time></trkpt><trkpt lat="39.1029869" lon="16.5293716"><ele>1203.0</ele><time>2026-03-29T15:55:28.58Z</time></trkpt><trkpt lat="39.1028568" lon="16.5294558"><ele>1203.5</ele><time>2026-03-29T15:55:29.58Z</time></trkpt><trkpt lat="39.1027153" lon="16.5295611"><ele>1204.0</ele><time>2026-03-29T15:55:30.58Z</time></trkpt><trkpt lat="39.1025717" lon="16.5296803"><ele>1204.0</ele><time>2026-03-29T15:55:31.58Z</time></trkpt><trkpt lat="39.1024293" lon="16.5297925"><ele>1204.0</ele><time>2026-03-29T15:55:32.58Z</time></trkpt><trkpt lat="39.1022915" lon="16.5299044"><ele>1204.0</ele><time>2026-03-29T15:55:33.58Z</time></trkpt><trkpt lat="39.102166" lon="16.5299986"><ele>1209.25</ele><time>2026-03-29T15:55:34.58Z</time></trkpt><trkpt lat="39.1020371" lon="16.5300754"><ele>1214.5</ele><time>2026-03-29T15:55:35.58Z</time></trkpt><trkpt lat="39.1019042" lon="16.5301242"><ele>1219.75</ele><time>2026-03-29T15:55:36.58Z</time></trkpt><trkpt lat="39.1017665" lon="16.5301569"><ele>1225.0</ele><time>2026-03-29T15:55:37.58Z</time></trkpt><trkpt lat="39.1016256" lon="16.530178"><ele>1224.0</ele><time>2026-03-29T15:55:38.58Z</time></trkpt><trkpt lat="39.1014867" lon="16.5302033"><ele>1223.0</ele><time>2026-03-29T15:55:39.58Z</time></trkpt><trkpt lat="39.1013517" lon="16.5302567"><ele>1222.0</ele><time>2026-03-29T15:55:40.58Z</time></trkpt><trkpt lat="39.1012167" lon="16.5303267"><ele>1221.0</ele><time>2026-03-29T15:55:41.58Z</time></trkpt><trkpt lat="39.1010833" lon="16.5304"><ele>1221.0</ele><time>2026-03-29T15:55:42.58Z</time></trkpt><trkpt lat="39.10095" lon="16.5304733"><ele>1221.0</ele><time>2026-03-29T15:55:43.58Z</time></trkpt><trkpt lat="39.1008133" lon="16.5305417"><ele>1221.0</ele><time>2026-03-29T15:55:44.58Z</time></trkpt><trkpt lat="39.1006783" lon="16.5306033"><ele>1221.0</ele><time>2026-03-29T15:55:45.58Z</time></trkpt><trkpt lat="39.1005417" lon="16.5306417"><ele>1224.0</ele><time>2026-03-29T15:55:46.58Z</time></trkpt><trkpt lat="39.100405" lon="16.5306783"><ele>1227.0</ele><time>2026-03-29T15:55:47.58Z</time></trkpt><trkpt lat="39.10027" lon="16.530705"><ele>1230.0</ele><time>2026-03-29T15:55:48.58Z</time></trkpt><trkpt lat="39.1001367" lon="16.5307317"><ele>1233.0</ele><time>2026-03-29T15:55:49.58Z</time></trkpt><trkpt lat="39.0999967" lon="16.530775"><ele>1235.6666666666667</ele><time>2026-03-29T15:55:50.58Z</time></trkpt><trkpt lat="39.09985" lon="16.5308267"><ele>1238.3333333333335</ele><time>2026-03-29T15:55:51.58Z</time></trkpt><trkpt lat="39.0996967" lon="16.53088"><ele>1241.0</ele><time>2026-03-29T15:55:52.58Z</time></trkpt><trkpt lat="39.0995383" lon="16.530935"><ele>1241.0</ele><time>2026-03-29T15:55:53.58Z</time></trkpt><trkpt lat="39.0993733" lon="16.5310017"><ele>1241.0</ele><time>2026-03-29T15:55:54.58Z</time></trkpt><trkpt lat="39.099195" lon="16.5310467"><ele>1241.0</ele><time>2026-03-29T15:55:55.58Z</time></trkpt><trkpt lat="39.0990183" lon="16.5311"><ele>1239.0</ele><time>2026-03-29T15:55:56.58Z</time></trkpt><trkpt lat="39.0988533" lon="16.5311583"><ele>1237.0</ele><time>2026-03-29T15:55:57.58Z</time></trkpt><trkpt lat="39.0986967" lon="16.53125"><ele>1235.0</ele><time>2026-03-29T15:55:58.58Z</time></trkpt><trkpt lat="39.0985617" lon="16.53135"><ele>1234.5</ele><time>2026-03-29T15:55:59.58Z</time></trkpt><trkpt lat="39.0984467" lon="16.531465"><ele>1234.0</ele><time>2026-03-29T15:56:00.58Z</time></trkpt><trkpt lat="39.0983617" lon="16.5315683"><ele>1233.5</ele><time>2026-03-29T15:56:01.581Z</time></trkpt><trkpt lat="39.098295" lon="16.5317067"><ele>1233.0</ele><time>2026-03-29T15:56:02.58Z</time></trkpt><trkpt lat="39.09824" lon="16.531805"><ele>1233.8333333333333</ele><time>2026-03-29T15:56:03.58Z</time></trkpt><trkpt lat="39.0981983" lon="16.5319133"><ele>1234.6666666666667</ele><time>2026-03-29T15:56:04.581Z</time></trkpt><trkpt lat="39.0981717" lon="16.5320067"><ele>1235.5</ele><time>2026-03-29T15:56:05.58Z</time></trkpt><trkpt lat="39.0981467" lon="16.5321083"><ele>1236.3333333333335</ele><time>2026-03-29T15:56:06.58Z</time></trkpt><trkpt lat="39.0981367" lon="16.5322267"><ele>1237.1666666666667</ele><time>2026-03-29T15:56:07.58Z</time></trkpt><trkpt lat="39.0981333" lon="16.532355"><ele>1238.0</ele><time>2026-03-29T15:56:08.58Z</time></trkpt><trkpt lat="39.0981317" lon="16.532475"><ele>1236.25</ele><time>2026-03-29T15:56:09.58Z</time></trkpt><trkpt lat="39.0981433" lon="16.5326217"><ele>1234.5</ele><time>2026-03-29T15:56:10.58Z</time></trkpt><trkpt lat="39.0981667" lon="16.5327717"><ele>1232.75</ele><time>2026-03-29T15:56:11.58Z</time></trkpt><trkpt lat="39.0982017" lon="16.5329267"><ele>1231.0</ele><time>2026-03-29T15:56:12.58Z</time></trkpt><trkpt lat="39.0982483" lon="16.53308"><ele>1234.25</ele><time>2026-03-29T15:56:13.58Z</time></trkpt><trkpt lat="39.0983013" lon="16.533229"><ele>1237.5</ele><time>2026-03-29T15:56:14.58Z</time></trkpt><trkpt lat="39.0983624" lon="16.5333774"><ele>1240.75</ele><time>2026-03-29T15:56:15.58Z</time></trkpt><trkpt lat="39.0984336" lon="16.5335247"><ele>1244.0</ele><time>2026-03-29T15:56:16.58Z</time></trkpt><trkpt lat="39.0985198" lon="16.5336557"><ele>1243.25</ele><time>2026-03-29T15:56:17.58Z</time></trkpt><trkpt lat="39.0986277" lon="16.5337724"><ele>1242.5</ele><time>2026-03-29T15:56:18.58Z</time></trkpt><trkpt lat="39.0987491" lon="16.5338782"><ele>1241.75</ele><time>2026-03-29T15:56:19.58Z</time></trkpt><trkpt lat="39.0988852" lon="16.5339649"><ele>1241.0</ele><time>2026-03-29T15:56:20.58Z</time></trkpt><trkpt lat="39.099033" lon="16.5340458"><ele>1244.0</ele><time>2026-03-29T15:56:21.58Z</time></trkpt><trkpt lat="39.0991873" lon="16.5341103"><ele>1247.0</ele><time>2026-03-29T15:56:22.58Z</time></trkpt><trkpt lat="39.0993475" lon="16.5341667"><ele>1250.0</ele><time>2026-03-29T15:56:23.581Z</time></trkpt><trkpt lat="39.0995127" lon="16.5342198"><ele>1250.0</ele><time>2026-03-29T15:56:24.58Z</time></trkpt><trkpt lat="39.0996733" lon="16.534284"><ele>1250.0</ele><time>2026-03-29T15:56:25.581Z</time></trkpt><trkpt lat="39.0998235" lon="16.534358"><ele>1250.0</ele><time>2026-03-29T15:56:26.58Z</time></trkpt><trkpt lat="39.0999574" lon="16.5344578"><ele>1251.75</ele><time>2026-03-29T15:56:27.58Z</time></trkpt><trkpt lat="39.1000771" lon="16.5345859"><ele>1253.5</ele><time>2026-03-29T15:56:28.58Z</time></trkpt><trkpt lat="39.1001713" lon="16.5347196"><ele>1255.25</ele><time>2026-03-29T15:56:29.58Z</time></trkpt><trkpt lat="39.1002339" lon="16.5348528"><ele>1257.0</ele><time>2026-03-29T15:56:30.58Z</time></trkpt><trkpt lat="39.1002673" lon="16.5349713"><ele>1257.0</ele><time>2026-03-29T15:56:31.58Z</time></trkpt><trkpt lat="39.1002809" lon="16.5350733"><ele>1257.0</ele><time>2026-03-29T15:56:32.58Z</time></trkpt><trkpt lat="39.1002864" lon="16.5351719"><ele>1257.0</ele><time>2026-03-29T15:56:33.58Z</time></trkpt><trkpt lat="39.10029" lon="16.5353347"><ele>1257.0</ele><time>2026-03-29T15:56:35.581Z</time></trkpt><trkpt lat="39.100289" lon="16.5354268"><ele>1257.0</ele><time>2026-03-29T15:56:36.581Z</time></trkpt><trkpt lat="39.1002881" lon="16.5355329"><ele>1257.0</ele><time>2026-03-29T15:56:37.581Z</time></trkpt><trkpt lat="39.1002855" lon="16.5356505"><ele>1258.8</ele><time>2026-03-29T15:56:38.581Z</time></trkpt><trkpt lat="39.1002819" lon="16.5357698"><ele>1260.6</ele><time>2026-03-29T15:56:39.581Z</time></trkpt><trkpt lat="39.1002854" lon="16.5358887"><ele>1262.3999999999999</ele><time>2026-03-29T15:56:40.581Z</time></trkpt><trkpt lat="39.1002932" lon="16.5360167"><ele>1264.2</ele><time>2026-03-29T15:56:41.581Z</time></trkpt><trkpt lat="39.1003" lon="16.536155"><ele>1266.0</ele><time>2026-03-29T15:56:42.581Z</time></trkpt><trkpt lat="39.1003058" lon="16.5363008"><ele>1267.6</ele><time>2026-03-29T15:56:43.581Z</time></trkpt><trkpt lat="39.1003079" lon="16.5364548"><ele>1269.1999999999998</ele><time>2026-03-29T15:56:44.581Z</time></trkpt><trkpt lat="39.1003104" lon="16.5365982"><ele>1270.8000000000002</ele><time>2026-03-29T15:56:45.581Z</time></trkpt><trkpt lat="39.1003132" lon="16.5367093"><ele>1272.4</ele><time>2026-03-29T15:56:46.581Z</time></trkpt><trkpt lat="39.1003117" lon="16.5368054"><ele>1274.0</ele><time>2026-03-29T15:56:47.581Z</time></trkpt><trkpt lat="39.1003123" lon="16.5368979"><ele>1274.0</ele><time>2026-03-29T15:56:48.582Z</time></trkpt><trkpt lat="39.1003143" lon="16.5370406"><ele>1274.0</ele><time>2026-03-29T15:56:50.581Z</time></trkpt><trkpt lat="39.1003278" lon="16.5371493"><ele>1274.0</ele><time>2026-03-29T15:56:52.581Z</time></trkpt><trkpt lat="39.1003755" lon="16.5372221"><ele>1274.0</ele><time>2026-03-29T15:56:54.581Z</time></trkpt><trkpt lat="39.1004542" lon="16.5372491"><ele>1274.0</ele><time>2026-03-29T15:56:56.581Z</time></trkpt><trkpt lat="39.1005684" lon="16.5372393"><ele>1273.1666666666667</ele><time>2026-03-29T15:56:58.581Z</time></trkpt><trkpt lat="39.1006312" lon="16.5372259"><ele>1272.3333333333335</ele><time>2026-03-29T15:56:59.581Z</time></trkpt><trkpt lat="39.1007018" lon="16.5372107"><ele>1271.5</ele><time>2026-03-29T15:57:00.581Z</time></trkpt><trkpt lat="39.1007843" lon="16.5371981"><ele>1270.6666666666667</ele><time>2026-03-29T15:57:01.581Z</time></trkpt><trkpt lat="39.1008796" lon="16.5371943"><ele>1269.8333333333333</ele><time>2026-03-29T15:57:02.581Z</time></trkpt><trkpt lat="39.1009779" lon="16.5371973"><ele>1269.0</ele><time>2026-03-29T15:57:03.581Z</time></trkpt><trkpt lat="39.1010841" lon="16.5372126"><ele>1268.6000000000001</ele><time>2026-03-29T15:57:04.581Z</time></trkpt><trkpt lat="39.1011869" lon="16.5372425"><ele>1268.2</ele><time>2026-03-29T15:57:05.581Z</time></trkpt><trkpt lat="39.1012879" lon="16.5372804"><ele>1267.8000000000002</ele><time>2026-03-29T15:57:06.581Z</time></trkpt><trkpt lat="39.1013868" lon="16.5373165"><ele>1267.4</ele><time>2026-03-29T15:57:07.581Z</time></trkpt><trkpt lat="39.101475" lon="16.5373638"><ele>1267.0</ele><time>2026-03-29T15:57:08.581Z</time></trkpt><trkpt lat="39.1015635" lon="16.537405"><ele>1267.6</ele><time>2026-03-29T15:57:09.582Z</time></trkpt><trkpt lat="39.1016409" lon="16.5374414"><ele>1268.2</ele><time>2026-03-29T15:57:10.581Z</time></trkpt><trkpt lat="39.1017459" lon="16.5374881"><ele>1268.8</ele><time>2026-03-29T15:57:12.581Z</time></trkpt><trkpt lat="39.1018324" lon="16.5374876"><ele>1269.4</ele><time>2026-03-29T15:57:15.582Z</time></trkpt><trkpt lat="39.101901" lon="16.5374289"><ele>1270.0</ele><time>2026-03-29T15:57:17.581Z</time></trkpt><trkpt lat="39.1019728" lon="16.5373427"><ele>1270.0</ele><time>2026-03-29T15:57:19.581Z</time></trkpt><trkpt lat="39.1020717" lon="16.5372717"><ele>1270.0</ele><time>2026-03-29T15:57:21.581Z</time></trkpt><trkpt lat="39.1021983" lon="16.5372317"><ele>1270.0</ele><time>2026-03-29T15:57:23.581Z</time></trkpt><trkpt lat="39.1022683" lon="16.5372467"><ele>1270.0</ele><time>2026-03-29T15:57:24.581Z</time></trkpt><trkpt lat="39.1023367" lon="16.537285"><ele>1270.0</ele><time>2026-03-29T15:57:25.581Z</time></trkpt><trkpt lat="39.1024067" lon="16.5373267"><ele>1269.6</ele><time>2026-03-29T15:57:26.581Z</time></trkpt><trkpt lat="39.102485" lon="16.5373633"><ele>1269.2</ele><time>2026-03-29T15:57:27.581Z</time></trkpt><trkpt lat="39.1025783" lon="16.537395"><ele>1268.8</ele><time>2026-03-29T15:57:28.581Z</time></trkpt><trkpt lat="39.1026867" lon="16.5374133"><ele>1268.4</ele><time>2026-03-29T15:57:29.581Z</time></trkpt><trkpt lat="39.1027917" lon="16.5374117"><ele>1268.0</ele><time>2026-03-29T15:57:30.581Z</time></trkpt><trkpt lat="39.102915" lon="16.537385"><ele>1268.0</ele><time>2026-03-29T15:57:31.581Z</time></trkpt><trkpt lat="39.1030317" lon="16.5373633"><ele>1268.0</ele><time>2026-03-29T15:57:32.582Z</time></trkpt><trkpt lat="39.1031517" lon="16.5373067"><ele>1268.0</ele><time>2026-03-29T15:57:33.581Z</time></trkpt><trkpt lat="39.103265" lon="16.53723"><ele>1268.0</ele><time>2026-03-29T15:57:34.581Z</time></trkpt><trkpt lat="39.1033667" lon="16.5371583"><ele>1267.8</ele><time>2026-03-29T15:57:35.581Z</time></trkpt><trkpt lat="39.103465" lon="16.5370783"><ele>1267.6</ele><time>2026-03-29T15:57:36.581Z</time></trkpt><trkpt lat="39.1035517" lon="16.5370167"><ele>1267.4</ele><time>2026-03-29T15:57:37.581Z</time></trkpt><trkpt lat="39.103635" lon="16.53699"><ele>1267.2</ele><time>2026-03-29T15:57:38.581Z</time></trkpt><trkpt lat="39.1037217" lon="16.5369917"><ele>1267.0</ele><time>2026-03-29T15:57:39.581Z</time></trkpt><trkpt lat="39.1038117" lon="16.5370367"><ele>1267.0</ele><time>2026-03-29T15:57:40.581Z</time></trkpt><trkpt lat="39.1038917" lon="16.5370917"><ele>1267.0</ele><time>2026-03-29T15:57:41.581Z</time></trkpt><trkpt lat="39.1039783" lon="16.5371533"><ele>1267.0</ele><time>2026-03-29T15:57:42.581Z</time></trkpt><trkpt lat="39.1040467" lon="16.537235"><ele>1267.0</ele><time>2026-03-29T15:57:43.581Z</time></trkpt><trkpt lat="39.1041233" lon="16.537305"><ele>1267.0</ele><time>2026-03-29T15:57:44.581Z</time></trkpt><trkpt lat="39.1042067" lon="16.5373383"><ele>1265.25</ele><time>2026-03-29T15:57:45.581Z</time></trkpt><trkpt lat="39.1043" lon="16.5373683"><ele>1263.5</ele><time>2026-03-29T15:57:46.581Z</time></trkpt><trkpt lat="39.1044033" lon="16.5373933"><ele>1261.75</ele><time>2026-03-29T15:57:47.581Z</time></trkpt><trkpt lat="39.1045367" lon="16.5374067"><ele>1260.0</ele><time>2026-03-29T15:57:48.581Z</time></trkpt><trkpt lat="39.104685" lon="16.5373933"><ele>1260.0</ele><time>2026-03-29T15:57:49.581Z</time></trkpt><trkpt lat="39.1048583" lon="16.53736"><ele>1260.0</ele><time>2026-03-29T15:57:50.581Z</time></trkpt><trkpt lat="39.1050167" lon="16.537335"><ele>1260.0</ele><time>2026-03-29T15:57:51.581Z</time></trkpt><trkpt lat="39.1051583" lon="16.53729"><ele>1258.8</ele><time>2026-03-29T15:57:52.582Z</time></trkpt><trkpt lat="39.1052717" lon="16.5372333"><ele>1257.6</ele><time>2026-03-29T15:57:53.581Z</time></trkpt><trkpt lat="39.1053717" lon="16.5371633"><ele>1256.4</ele><time>2026-03-29T15:57:54.581Z</time></trkpt><trkpt lat="39.1054367" lon="16.5370917"><ele>1255.2</ele><time>2026-03-29T15:57:55.581Z</time></trkpt><trkpt lat="39.1054833" lon="16.537005"><ele>1254.0</ele><time>2026-03-29T15:57:56.581Z</time></trkpt><trkpt lat="39.10551" lon="16.53691"><ele>1253.0</ele><time>2026-03-29T15:57:57.581Z</time></trkpt><trkpt lat="39.1055367" lon="16.5368"><ele>1252.0</ele><time>2026-03-29T15:57:58.581Z</time></trkpt><trkpt lat="39.1055667" lon="16.5366767"><ele>1251.0</ele><time>2026-03-29T15:57:59.581Z</time></trkpt><trkpt lat="39.1056233" lon="16.5365583"><ele>1250.0</ele><time>2026-03-29T15:58:00.582Z</time></trkpt><trkpt lat="39.1057167" lon="16.5364317"><ele>1249.0</ele><time>2026-03-29T15:58:01.581Z</time></trkpt><trkpt lat="39.1058217" lon="16.5363133"><ele>1245.0</ele><time>2026-03-29T15:58:02.581Z</time></trkpt><trkpt lat="39.10594" lon="16.5361983"><ele>1241.0</ele><time>2026-03-29T15:58:03.581Z</time></trkpt><trkpt lat="39.1060717" lon="16.5361067"><ele>1237.0</ele><time>2026-03-29T15:58:04.581Z</time></trkpt><trkpt lat="39.1062067" lon="16.5360383"><ele>1233.0</ele><time>2026-03-29T15:58:05.581Z</time></trkpt><trkpt lat="39.1063317" lon="16.5359867"><ele>1233.0</ele><time>2026-03-29T15:58:06.581Z</time></trkpt><trkpt lat="39.10645" lon="16.5359317"><ele>1233.0</ele><time>2026-03-29T15:58:07.581Z</time></trkpt><trkpt lat="39.10655" lon="16.5358767"><ele>1233.0</ele><time>2026-03-29T15:58:08.581Z</time></trkpt><trkpt lat="39.1066333" lon="16.5358233"><ele>1233.0</ele><time>2026-03-29T15:58:09.581Z</time></trkpt><trkpt lat="39.1067" lon="16.5357567"><ele>1233.0</ele><time>2026-03-29T15:58:10.581Z</time></trkpt><trkpt lat="39.1067583" lon="16.5356433"><ele>1235.75</ele><time>2026-03-29T15:58:11.581Z</time></trkpt><trkpt lat="39.1068067" lon="16.5354933"><ele>1238.5</ele><time>2026-03-29T15:58:12.581Z</time></trkpt><trkpt lat="39.1068267" lon="16.5353333"><ele>1241.25</ele><time>2026-03-29T15:58:13.582Z</time></trkpt><trkpt lat="39.1068717" lon="16.5351983"><ele>1244.0</ele><time>2026-03-29T15:58:14.582Z</time></trkpt><trkpt lat="39.1069283" lon="16.5350883"><ele>1240.3333333333335</ele><time>2026-03-29T15:58:15.581Z</time></trkpt><trkpt lat="39.1069833" lon="16.5350167"><ele>1236.6666666666667</ele><time>2026-03-29T15:58:16.581Z</time></trkpt><trkpt lat="39.10705" lon="16.5349567"><ele>1233.0</ele><time>2026-03-29T15:58:17.581Z</time></trkpt><trkpt lat="39.1071233" lon="16.5349283"><ele>1229.3333333333333</ele><time>2026-03-29T15:58:18.581Z</time></trkpt><trkpt lat="39.1071967" lon="16.534905"><ele>1225.6666666666665</ele><time>2026-03-29T15:58:19.581Z</time></trkpt><trkpt lat="39.107265" lon="16.5349117"><ele>1222.0</ele><time>2026-03-29T15:58:20.581Z</time></trkpt><trkpt lat="39.1073317" lon="16.53494"><ele>1222.0</ele><time>2026-03-29T15:58:21.581Z</time></trkpt><trkpt lat="39.1073933" lon="16.53497"><ele>1222.0</ele><time>2026-03-29T15:58:22.581Z</time></trkpt><trkpt lat="39.1074717" lon="16.5349967"><ele>1222.0</ele><time>2026-03-29T15:58:23.581Z</time></trkpt><trkpt lat="39.1075633" lon="16.5350617"><ele>1222.0</ele><time>2026-03-29T15:58:24.581Z</time></trkpt><trkpt lat="39.107655" lon="16.5351633"><ele>1222.0</ele><time>2026-03-29T15:58:25.581Z</time></trkpt><trkpt lat="39.1077467" lon="16.5351767"><ele>1223.0</ele><time>2026-03-29T15:58:26.581Z</time></trkpt><trkpt lat="39.107835" lon="16.53514"><ele>1224.0</ele><time>2026-03-29T15:58:28.581Z</time></trkpt><trkpt lat="39.1078067" lon="16.5349517"><ele>1225.0</ele><time>2026-03-29T15:58:30.581Z</time></trkpt><trkpt lat="39.107765" lon="16.534795"><ele>1226.0</ele><time>2026-03-29T15:58:31.581Z</time></trkpt><trkpt lat="39.1077167" lon="16.53459"><ele>1222.0</ele><time>2026-03-29T15:58:32.581Z</time></trkpt><trkpt lat="39.10767" lon="16.5343767"><ele>1218.0</ele><time>2026-03-29T15:58:33.581Z</time></trkpt><trkpt lat="39.107655" lon="16.5341867"><ele>1214.0</ele><time>2026-03-29T15:58:34.581Z</time></trkpt><trkpt lat="39.1076817" lon="16.5340233"><ele>1214.0</ele><time>2026-03-29T15:58:35.581Z</time></trkpt><trkpt lat="39.107735" lon="16.5338783"><ele>1214.0</ele><time>2026-03-29T15:58:36.581Z</time></trkpt><trkpt lat="39.10779" lon="16.5337567"><ele>1214.0</ele><time>2026-03-29T15:58:37.581Z</time></trkpt><trkpt lat="39.1078067" lon="16.5336367"><ele>1214.0</ele><time>2026-03-29T15:58:38.581Z</time></trkpt><trkpt lat="39.10781" lon="16.533515"><ele>1214.0</ele><time>2026-03-29T15:58:39.581Z</time></trkpt><trkpt lat="39.10779" lon="16.533405"><ele>1212.5</ele><time>2026-03-29T15:58:40.581Z</time></trkpt><trkpt lat="39.10772" lon="16.5332817"><ele>1211.0</ele><time>2026-03-29T15:58:41.581Z</time></trkpt><trkpt lat="39.1076183" lon="16.5331783"><ele>1209.5</ele><time>2026-03-29T15:58:42.581Z</time></trkpt><trkpt lat="39.107535" lon="16.5330583"><ele>1208.0</ele><time>2026-03-29T15:58:43.581Z</time></trkpt><trkpt lat="39.1074767" lon="16.5329367"><ele>1208.0</ele><time>2026-03-29T15:58:44.581Z</time></trkpt><trkpt lat="39.1074417" lon="16.5328033"><ele>1208.0</ele><time>2026-03-29T15:58:45.581Z</time></trkpt><trkpt lat="39.1074283" lon="16.5326667"><ele>1208.0</ele><time>2026-03-29T15:58:46.581Z</time></trkpt><trkpt lat="39.107425" lon="16.5325267"><ele>1208.0</ele><time>2026-03-29T15:58:47.581Z</time></trkpt><trkpt lat="39.10746" lon="16.5323683"><ele>1208.0</ele><time>2026-03-29T15:58:48.581Z</time></trkpt><trkpt lat="39.107505" lon="16.5322117"><ele>1208.0</ele><time>2026-03-29T15:58:49.581Z</time></trkpt><trkpt lat="39.1075633" lon="16.5320667"><ele>1208.0</ele><time>2026-03-29T15:58:50.581Z</time></trkpt><trkpt lat="39.10763" lon="16.5319483"><ele>1208.0</ele><time>2026-03-29T15:58:51.581Z</time></trkpt><trkpt lat="39.107705" lon="16.5318667"><ele>1205.75</ele><time>2026-03-29T15:58:52.581Z</time></trkpt><trkpt lat="39.1077967" lon="16.5318167"><ele>1203.5</ele><time>2026-03-29T15:58:53.581Z</time></trkpt><trkpt lat="39.1079083" lon="16.5317917"><ele>1201.25</ele><time>2026-03-29T15:58:54.581Z</time></trkpt><trkpt lat="39.108045" lon="16.5317917"><ele>1199.0</ele><time>2026-03-29T15:58:55.581Z</time></trkpt><trkpt lat="39.1081883" lon="16.53179"><ele>1200.0</ele><time>2026-03-29T15:58:56.581Z</time></trkpt><trkpt lat="39.10835" lon="16.5317767"><ele>1201.0</ele><time>2026-03-29T15:58:57.581Z</time></trkpt><trkpt lat="39.1084917" lon="16.5317083"><ele>1202.0</ele><time>2026-03-29T15:58:58.581Z</time></trkpt><trkpt lat="39.1086083" lon="16.531635"><ele>1203.0</ele><time>2026-03-29T15:58:59.581Z</time></trkpt><trkpt lat="39.1087183" lon="16.5315717"><ele>1203.0</ele><time>2026-03-29T15:59:00.581Z</time></trkpt><trkpt lat="39.108815" lon="16.5315567"><ele>1203.0</ele><time>2026-03-29T15:59:01.581Z</time></trkpt><trkpt lat="39.10891" lon="16.5315917"><ele>1203.0</ele><time>2026-03-29T15:59:02.581Z</time></trkpt><trkpt lat="39.108995" lon="16.531625"><ele>1203.0</ele><time>2026-03-29T15:59:03.581Z</time></trkpt><trkpt lat="39.109085" lon="16.5316433"><ele>1203.0</ele><time>2026-03-29T15:59:04.581Z</time></trkpt><trkpt lat="39.1091783" lon="16.5316617"><ele>1203.0</ele><time>2026-03-29T15:59:05.581Z</time></trkpt><trkpt lat="39.10928" lon="16.5316967"><ele>1203.0</ele><time>2026-03-29T15:59:06.581Z</time></trkpt><trkpt lat="39.1093717" lon="16.5317317"><ele>1203.0</ele><time>2026-03-29T15:59:07.581Z</time></trkpt><trkpt lat="39.10946" lon="16.5317383"><ele>1203.0</ele><time>2026-03-29T15:59:08.581Z</time></trkpt><trkpt lat="39.1095433" lon="16.5317217"><ele>1203.0</ele><time>2026-03-29T15:59:09.581Z</time></trkpt><trkpt lat="39.1096233" lon="16.5316767"><ele>1203.0</ele><time>2026-03-29T15:59:10.581Z</time></trkpt><trkpt lat="39.109695" lon="16.5316083"><ele>1203.0</ele><time>2026-03-29T15:59:11.581Z</time></trkpt><trkpt lat="39.10973" lon="16.531485"><ele>1203.0</ele><time>2026-03-29T15:59:12.581Z</time></trkpt><trkpt lat="39.109775" lon="16.5313617"><ele>1203.0</ele><time>2026-03-29T15:59:13.581Z</time></trkpt><trkpt lat="39.1098383" lon="16.5312683"><ele>1203.0</ele><time>2026-03-29T15:59:14.581Z</time></trkpt><trkpt lat="39.1099267" lon="16.5312"><ele>1197.75</ele><time>2026-03-29T15:59:15.581Z</time></trkpt><trkpt lat="39.1100217" lon="16.5311583"><ele>1192.5</ele><time>2026-03-29T15:59:16.581Z</time></trkpt><trkpt lat="39.1101317" lon="16.5311517"><ele>1187.25</ele><time>2026-03-29T15:59:17.581Z</time></trkpt><trkpt lat="39.1102583" lon="16.5311533"><ele>1182.0</ele><time>2026-03-29T15:59:18.581Z</time></trkpt><trkpt lat="39.1104083" lon="16.5311867"><ele>1185.75</ele><time>2026-03-29T15:59:19.581Z</time></trkpt><trkpt lat="39.11056" lon="16.5312333"><ele>1189.5</ele><time>2026-03-29T15:59:20.581Z</time></trkpt><trkpt lat="39.1107067" lon="16.5312983"><ele>1193.25</ele><time>2026-03-29T15:59:21.581Z</time></trkpt><trkpt lat="39.110835" lon="16.531365"><ele>1197.0</ele><time>2026-03-29T15:59:22.581Z</time></trkpt><trkpt lat="39.1109483" lon="16.5314217"><ele>1197.0</ele><time>2026-03-29T15:59:23.581Z</time></trkpt><trkpt lat="39.111045" lon="16.5314317"><ele>1197.0</ele><time>2026-03-29T15:59:24.581Z</time></trkpt><trkpt lat="39.11114" lon="16.531415"><ele>1197.0</ele><time>2026-03-29T15:59:25.581Z</time></trkpt><trkpt lat="39.1112267" lon="16.53137"><ele>1197.0</ele><time>2026-03-29T15:59:26.581Z</time></trkpt><trkpt lat="39.1113" lon="16.53132"><ele>1197.0</ele><time>2026-03-29T15:59:27.581Z</time></trkpt><trkpt lat="39.111345" lon="16.5312417"><ele>1197.0</ele><time>2026-03-29T15:59:28.581Z</time></trkpt><trkpt lat="39.1113617" lon="16.5311467"><ele>1193.25</ele><time>2026-03-29T15:59:29.581Z</time></trkpt><trkpt lat="39.1113433" lon="16.531015"><ele>1189.5</ele><time>2026-03-29T15:59:30.581Z</time></trkpt><trkpt lat="39.1112917" lon="16.5308917"><ele>1185.75</ele><time>2026-03-29T15:59:31.581Z</time></trkpt><trkpt lat="39.1112083" lon="16.5307517"><ele>1182.0</ele><time>2026-03-29T15:59:32.581Z</time></trkpt><trkpt lat="39.1111183" lon="16.530625"><ele>1182.0</ele><time>2026-03-29T15:59:33.581Z</time></trkpt><trkpt lat="39.1110233" lon="16.5304883"><ele>1182.0</ele><time>2026-03-29T15:59:34.581Z</time></trkpt><trkpt lat="39.1109117" lon="16.53035"><ele>1182.0</ele><time>2026-03-29T15:59:35.581Z</time></trkpt><trkpt lat="39.110815" lon="16.5302167"><ele>1182.0</ele><time>2026-03-29T15:59:36.581Z</time></trkpt><trkpt lat="39.1107283" lon="16.5300833"><ele>1180.75</ele><time>2026-03-29T15:59:37.581Z</time></trkpt><trkpt lat="39.1106583" lon="16.5299533"><ele>1179.5</ele><time>2026-03-29T15:59:38.581Z</time></trkpt><trkpt lat="39.11058" lon="16.529825"><ele>1178.25</ele><time>2026-03-29T15:59:39.581Z</time></trkpt><trkpt lat="39.1105167" lon="16.5297"><ele>1177.0</ele><time>2026-03-29T15:59:40.581Z</time></trkpt><trkpt lat="39.1104833" lon="16.5295883"><ele>1177.4</ele><time>2026-03-29T15:59:41.581Z</time></trkpt><trkpt lat="39.1104867" lon="16.5294717"><ele>1177.8000000000002</ele><time>2026-03-29T15:59:42.581Z</time></trkpt><trkpt lat="39.1105283" lon="16.5293533"><ele>1178.2</ele><time>2026-03-29T15:59:43.581Z</time></trkpt><trkpt lat="39.1105867" lon="16.52925"><ele>1178.6000000000001</ele><time>2026-03-29T15:59:44.581Z</time></trkpt><trkpt lat="39.1106817" lon="16.5291533"><ele>1179.0</ele><time>2026-03-29T15:59:45.581Z</time></trkpt><trkpt lat="39.1107933" lon="16.5290267"><ele>1180.0</ele><time>2026-03-29T15:59:46.581Z</time></trkpt><trkpt lat="39.1109033" lon="16.5288867"><ele>1181.0</ele><time>2026-03-29T15:59:47.581Z</time></trkpt><trkpt lat="39.1110067" lon="16.528735"><ele>1182.0</ele><time>2026-03-29T15:59:48.581Z</time></trkpt><trkpt lat="39.1111167" lon="16.5286"><ele>1179.5</ele><time>2026-03-29T15:59:49.581Z</time></trkpt><trkpt lat="39.1112233" lon="16.528475"><ele>1177.0</ele><time>2026-03-29T15:59:50.581Z</time></trkpt><trkpt lat="39.1113333" lon="16.5283483"><ele>1174.5</ele><time>2026-03-29T15:59:51.581Z</time></trkpt><trkpt lat="39.1114417" lon="16.5282267"><ele>1172.0</ele><time>2026-03-29T15:59:52.581Z</time></trkpt><trkpt lat="39.1115583" lon="16.52813"><ele>1174.0</ele><time>2026-03-29T15:59:53.581Z</time></trkpt><trkpt lat="39.11169" lon="16.5280583"><ele>1176.0</ele><time>2026-03-29T15:59:54.581Z</time></trkpt><trkpt lat="39.1118233" lon="16.528005"><ele>1178.0</ele><time>2026-03-29T15:59:55.581Z</time></trkpt><trkpt lat="39.1119533" lon="16.5279617"><ele>1180.0</ele><time>2026-03-29T15:59:56.581Z</time></trkpt><trkpt lat="39.11208" lon="16.5278967"><ele>1177.6</ele><time>2026-03-29T15:59:57.581Z</time></trkpt><trkpt lat="39.1121767" lon="16.5278333"><ele>1175.2</ele><time>2026-03-29T15:59:58.581Z</time></trkpt><trkpt lat="39.1122567" lon="16.5277667"><ele>1172.8</ele><time>2026-03-29T15:59:59.581Z</time></trkpt><trkpt lat="39.1123367" lon="16.5277117"><ele>1170.4</ele><time>2026-03-29T16:00:00.581Z</time></trkpt><trkpt lat="39.1124167" lon="16.5276567"><ele>1168.0</ele><time>2026-03-29T16:00:01.582Z</time></trkpt><trkpt lat="39.11251" lon="16.5276217"><ele>1168.0</ele><time>2026-03-29T16:00:02.581Z</time></trkpt><trkpt lat="39.11261" lon="16.527615"><ele>1168.0</ele><time>2026-03-29T16:00:03.581Z</time></trkpt><trkpt lat="39.1127083" lon="16.5276433"><ele>1168.0</ele><time>2026-03-29T16:00:04.581Z</time></trkpt><trkpt lat="39.1128183" lon="16.5276783"><ele>1168.0</ele><time>2026-03-29T16:00:05.581Z</time></trkpt><trkpt lat="39.11294" lon="16.5277067"><ele>1168.0</ele><time>2026-03-29T16:00:06.581Z</time></trkpt><trkpt lat="39.1130683" lon="16.52772"><ele>1168.0</ele><time>2026-03-29T16:00:07.581Z</time></trkpt><trkpt lat="39.1132117" lon="16.5277017"><ele>1168.0</ele><time>2026-03-29T16:00:08.581Z</time></trkpt><trkpt lat="39.1133483" lon="16.5276533"><ele>1168.0</ele><time>2026-03-29T16:00:09.581Z</time></trkpt><trkpt lat="39.113475" lon="16.5275667"><ele>1168.0</ele><time>2026-03-29T16:00:10.581Z</time></trkpt><trkpt lat="39.113595" lon="16.5274667"><ele>1169.0</ele><time>2026-03-29T16:00:11.582Z</time></trkpt><trkpt lat="39.11372" lon="16.52737"><ele>1170.0</ele><time>2026-03-29T16:00:12.581Z</time></trkpt><trkpt lat="39.1138383" lon="16.5272767"><ele>1171.0</ele><time>2026-03-29T16:00:13.581Z</time></trkpt><trkpt lat="39.1139433" lon="16.5271967"><ele>1172.0</ele><time>2026-03-29T16:00:14.581Z</time></trkpt><trkpt lat="39.1140217" lon="16.5271233"><ele>1171.1666666666667</ele><time>2026-03-29T16:00:15.581Z</time></trkpt><trkpt lat="39.1140783" lon="16.52704"><ele>1170.3333333333335</ele><time>2026-03-29T16:00:16.581Z</time></trkpt><trkpt lat="39.1141217" lon="16.526955"><ele>1169.5</ele><time>2026-03-29T16:00:17.581Z</time></trkpt><trkpt lat="39.1141417" lon="16.5268567"><ele>1168.6666666666667</ele><time>2026-03-29T16:00:18.581Z</time></trkpt><trkpt lat="39.1141317" lon="16.52674"><ele>1167.8333333333333</ele><time>2026-03-29T16:00:19.581Z</time></trkpt><trkpt lat="39.1140933" lon="16.5266117"><ele>1167.0</ele><time>2026-03-29T16:00:20.581Z</time></trkpt><trkpt lat="39.114045" lon="16.5264717"><ele>1166.75</ele><time>2026-03-29T16:00:21.581Z</time></trkpt><trkpt lat="39.1140017" lon="16.5263283"><ele>1166.5</ele><time>2026-03-29T16:00:22.581Z</time></trkpt><trkpt lat="39.1139467" lon="16.526205"><ele>1166.25</ele><time>2026-03-29T16:00:23.581Z</time></trkpt><trkpt lat="39.1138617" lon="16.526095"><ele>1166.0</ele><time>2026-03-29T16:00:24.581Z</time></trkpt><trkpt lat="39.11376" lon="16.5260067"><ele>1166.0</ele><time>2026-03-29T16:00:25.581Z</time></trkpt><trkpt lat="39.1136417" lon="16.525935"><ele>1166.0</ele><time>2026-03-29T16:00:26.581Z</time></trkpt><trkpt lat="39.1135067" lon="16.52587"><ele>1166.0</ele><time>2026-03-29T16:00:27.581Z</time></trkpt><trkpt lat="39.1133867" lon="16.5258017"><ele>1166.0</ele><time>2026-03-29T16:00:28.582Z</time></trkpt><trkpt lat="39.113255" lon="16.52573"><ele>1166.25</ele><time>2026-03-29T16:00:29.581Z</time></trkpt><trkpt lat="39.1131267" lon="16.5256417"><ele>1166.5</ele><time>2026-03-29T16:00:30.581Z</time></trkpt><trkpt lat="39.1130017" lon="16.52555"><ele>1166.75</ele><time>2026-03-29T16:00:31.581Z</time></trkpt><trkpt lat="39.1128917" lon="16.5254483"><ele>1167.0</ele><time>2026-03-29T16:00:32.581Z</time></trkpt><trkpt lat="39.1128117" lon="16.5253333"><ele>1167.0</ele><time>2026-03-29T16:00:33.581Z</time></trkpt><trkpt lat="39.11277" lon="16.5252317"><ele>1167.0</ele><time>2026-03-29T16:00:34.581Z</time></trkpt><trkpt lat="39.1127533" lon="16.5251183"><ele>1167.0</ele><time>2026-03-29T16:00:35.581Z</time></trkpt><trkpt lat="39.1127617" lon="16.5249967"><ele>1167.0</ele><time>2026-03-29T16:00:36.581Z</time></trkpt><trkpt lat="39.1128" lon="16.5248717"><ele>1167.0</ele><time>2026-03-29T16:00:37.581Z</time></trkpt><trkpt lat="39.1128483" lon="16.524735"><ele>1167.0</ele><time>2026-03-29T16:00:38.581Z</time></trkpt><trkpt lat="39.1128867" lon="16.524595"><ele>1167.0</ele><time>2026-03-29T16:00:39.581Z</time></trkpt><trkpt lat="39.1129083" lon="16.5244567"><ele>1167.0</ele><time>2026-03-29T16:00:40.581Z</time></trkpt><trkpt lat="39.112905" lon="16.5243183"><ele>1167.0</ele><time>2026-03-29T16:00:41.581Z</time></trkpt><trkpt lat="39.1128667" lon="16.5241933"><ele>1167.0</ele><time>2026-03-29T16:00:42.581Z</time></trkpt><trkpt lat="39.112805" lon="16.52408"><ele>1167.75</ele><time>2026-03-29T16:00:43.581Z</time></trkpt><trkpt lat="39.112715" lon="16.5239817"><ele>1168.5</ele><time>2026-03-29T16:00:44.581Z</time></trkpt><trkpt lat="39.112605" lon="16.523905"><ele>1169.25</ele><time>2026-03-29T16:00:45.581Z</time></trkpt><trkpt lat="39.1125033" lon="16.52382"><ele>1170.0</ele><time>2026-03-29T16:00:46.581Z</time></trkpt><trkpt lat="39.1124217" lon="16.5237267"><ele>1169.6</ele><time>2026-03-29T16:00:47.581Z</time></trkpt><trkpt lat="39.1123733" lon="16.5236083"><ele>1169.2</ele><time>2026-03-29T16:00:48.581Z</time></trkpt><trkpt lat="39.1123533" lon="16.5234883"><ele>1168.8</ele><time>2026-03-29T16:00:49.581Z</time></trkpt><trkpt lat="39.112345" lon="16.5233583"><ele>1168.4</ele><time>2026-03-29T16:00:50.581Z</time></trkpt><trkpt lat="39.1123483" lon="16.523225"><ele>1168.0</ele><time>2026-03-29T16:00:51.581Z</time></trkpt><trkpt lat="39.1123367" lon="16.5230983"><ele>1168.0</ele><time>2026-03-29T16:00:52.581Z</time></trkpt><trkpt lat="39.112295" lon="16.522975"><ele>1168.0</ele><time>2026-03-29T16:00:53.581Z</time></trkpt><trkpt lat="39.11223" lon="16.5228767"><ele>1168.0</ele><time>2026-03-29T16:00:54.581Z</time></trkpt><trkpt lat="39.11215" lon="16.52281"><ele>1168.0</ele><time>2026-03-29T16:00:55.581Z</time></trkpt><trkpt lat="39.1120533" lon="16.52277"><ele>1168.0</ele><time>2026-03-29T16:00:56.581Z</time></trkpt><trkpt lat="39.111945" lon="16.5227417"><ele>1168.25</ele><time>2026-03-29T16:00:57.581Z</time></trkpt><trkpt lat="39.1118333" lon="16.5227117"><ele>1168.5</ele><time>2026-03-29T16:00:58.581Z</time></trkpt><trkpt lat="39.1117183" lon="16.5226733"><ele>1168.75</ele><time>2026-03-29T16:00:59.581Z</time></trkpt><trkpt lat="39.111595" lon="16.522625"><ele>1169.0</ele><time>2026-03-29T16:01:00.581Z</time></trkpt><trkpt lat="39.1114717" lon="16.522565"><ele>1169.0</ele><time>2026-03-29T16:01:01.581Z</time></trkpt><trkpt lat="39.1113467" lon="16.522495"><ele>1169.0</ele><time>2026-03-29T16:01:02.581Z</time></trkpt><trkpt lat="39.11122" lon="16.5224117"><ele>1169.0</ele><time>2026-03-29T16:01:03.581Z</time></trkpt><trkpt lat="39.111105" lon="16.522315"><ele>1169.0</ele><time>2026-03-29T16:01:04.581Z</time></trkpt><trkpt lat="39.1109883" lon="16.52223"><ele>1169.0</ele><time>2026-03-29T16:01:05.581Z</time></trkpt><trkpt lat="39.1108683" lon="16.5221667"><ele>1169.0</ele><time>2026-03-29T16:01:06.581Z</time></trkpt><trkpt lat="39.1107467" lon="16.522135"><ele>1169.0</ele><time>2026-03-29T16:01:07.581Z</time></trkpt><trkpt lat="39.1106317" lon="16.522125"><ele>1169.0</ele><time>2026-03-29T16:01:08.581Z</time></trkpt><trkpt lat="39.1105283" lon="16.522115"><ele>1168.1666666666667</ele><time>2026-03-29T16:01:09.581Z</time></trkpt><trkpt lat="39.1104367" lon="16.522085"><ele>1167.3333333333335</ele><time>2026-03-29T16:01:10.581Z</time></trkpt><trkpt lat="39.1103667" lon="16.5220283"><ele>1166.5</ele><time>2026-03-29T16:01:11.581Z</time></trkpt><trkpt lat="39.110315" lon="16.5219533"><ele>1165.6666666666667</ele><time>2026-03-29T16:01:12.581Z</time></trkpt><trkpt lat="39.1102817" lon="16.5218567"><ele>1164.8333333333333</ele><time>2026-03-29T16:01:13.581Z</time></trkpt><trkpt lat="39.1102767" lon="16.5217383"><ele>1164.0</ele><time>2026-03-29T16:01:14.581Z</time></trkpt><trkpt lat="39.1102933" lon="16.521615"><ele>1164.0</ele><time>2026-03-29T16:01:15.581Z</time></trkpt><trkpt lat="39.1103317" lon="16.5214733"><ele>1164.0</ele><time>2026-03-29T16:01:16.581Z</time></trkpt><trkpt lat="39.1103917" lon="16.5213283"><ele>1164.0</ele><time>2026-03-29T16:01:17.581Z</time></trkpt><trkpt lat="39.1104433" lon="16.52119"><ele>1164.0</ele><time>2026-03-29T16:01:18.581Z</time></trkpt><trkpt lat="39.1104717" lon="16.5210583"><ele>1165.0</ele><time>2026-03-29T16:01:19.581Z</time></trkpt><trkpt lat="39.1104683" lon="16.5209183"><ele>1166.0</ele><time>2026-03-29T16:01:20.581Z</time></trkpt><trkpt lat="39.110445" lon="16.5207733"><ele>1167.0</ele><time>2026-03-29T16:01:21.581Z</time></trkpt><trkpt lat="39.1104083" lon="16.5206283"><ele>1168.0</ele><time>2026-03-29T16:01:22.581Z</time></trkpt><trkpt lat="39.1103533" lon="16.5204817"><ele>1169.0</ele><time>2026-03-29T16:01:23.581Z</time></trkpt><trkpt lat="39.1102917" lon="16.5203383"><ele>1170.0</ele><time>2026-03-29T16:01:24.581Z</time></trkpt><trkpt lat="39.1102417" lon="16.5201933"><ele>1171.0</ele><time>2026-03-29T16:01:25.581Z</time></trkpt><trkpt lat="39.11021" lon="16.52005"><ele>1172.0</ele><time>2026-03-29T16:01:26.581Z</time></trkpt><trkpt lat="39.110195" lon="16.5199083"><ele>1172.0</ele><time>2026-03-29T16:01:27.581Z</time></trkpt><trkpt lat="39.1101883" lon="16.5197817"><ele>1172.0</ele><time>2026-03-29T16:01:28.581Z</time></trkpt><trkpt lat="39.11018" lon="16.519665"><ele>1172.0</ele><time>2026-03-29T16:01:29.581Z</time></trkpt><trkpt lat="39.110165" lon="16.5195667"><ele>1172.0</ele><time>2026-03-29T16:01:30.581Z</time></trkpt><trkpt lat="39.11014" lon="16.519475"><ele>1172.0</ele><time>2026-03-29T16:01:31.581Z</time></trkpt><trkpt lat="39.1101033" lon="16.519405"><ele>1172.0</ele><time>2026-03-29T16:01:32.581Z</time></trkpt><trkpt lat="39.1100167" lon="16.5193467"><ele>1174.1666666666667</ele><time>2026-03-29T16:01:34.581Z</time></trkpt><trkpt lat="39.109885" lon="16.5193317"><ele>1176.3333333333335</ele><time>2026-03-29T16:01:36.581Z</time></trkpt><trkpt lat="39.109805" lon="16.5193267"><ele>1178.5</ele><time>2026-03-29T16:01:37.581Z</time></trkpt><trkpt lat="39.1097333" lon="16.51931"><ele>1180.6666666666667</ele><time>2026-03-29T16:01:38.581Z</time></trkpt><trkpt lat="39.1096633" lon="16.5192683"><ele>1182.8333333333333</ele><time>2026-03-29T16:01:39.581Z</time></trkpt><trkpt lat="39.1096" lon="16.5192033"><ele>1185.0</ele><time>2026-03-29T16:01:40.581Z</time></trkpt><trkpt lat="39.1095483" lon="16.51911"><ele>1185.0</ele><time>2026-03-29T16:01:41.581Z</time></trkpt><trkpt lat="39.1095083" lon="16.5190017"><ele>1185.0</ele><time>2026-03-29T16:01:42.581Z</time></trkpt><trkpt lat="39.1094833" lon="16.5188883"><ele>1185.0</ele><time>2026-03-29T16:01:43.581Z</time></trkpt><trkpt lat="39.109455" lon="16.5187683"><ele>1185.0</ele><time>2026-03-29T16:01:44.581Z</time></trkpt><trkpt lat="39.109425" lon="16.5186483"><ele>1185.0</ele><time>2026-03-29T16:01:45.581Z</time></trkpt><trkpt lat="39.10939" lon="16.5185183"><ele>1185.5</ele><time>2026-03-29T16:01:46.581Z</time></trkpt><trkpt lat="39.10936" lon="16.5183683"><ele>1186.0</ele><time>2026-03-29T16:01:47.581Z</time></trkpt><trkpt lat="39.109325" lon="16.5182117"><ele>1186.5</ele><time>2026-03-29T16:01:48.581Z</time></trkpt><trkpt lat="39.1092917" lon="16.518075"><ele>1187.0</ele><time>2026-03-29T16:01:49.581Z</time></trkpt><trkpt lat="39.1092533" lon="16.51794"><ele>1187.0</ele><time>2026-03-29T16:01:50.581Z</time></trkpt><trkpt lat="39.1092233" lon="16.5178067"><ele>1187.0</ele><time>2026-03-29T16:01:51.581Z</time></trkpt><trkpt lat="39.1091867" lon="16.5176883"><ele>1187.0</ele><time>2026-03-29T16:01:52.581Z</time></trkpt><trkpt lat="39.1091267" lon="16.5175733"><ele>1187.0</ele><time>2026-03-29T16:01:53.581Z</time></trkpt><trkpt lat="39.109055" lon="16.51746"><ele>1187.0</ele><time>2026-03-29T16:01:54.581Z</time></trkpt><trkpt lat="39.1089917" lon="16.5173483"><ele>1187.0</ele><time>2026-03-29T16:01:55.581Z</time></trkpt><trkpt lat="39.1089333" lon="16.51723"><ele>1187.0</ele><time>2026-03-29T16:01:56.581Z</time></trkpt><trkpt lat="39.1088817" lon="16.5170917"><ele>1187.0</ele><time>2026-03-29T16:01:57.581Z</time></trkpt><trkpt lat="39.1088417" lon="16.5169483"><ele>1187.0</ele><time>2026-03-29T16:01:58.581Z</time></trkpt><trkpt lat="39.108795" lon="16.5168233"><ele>1185.8</ele><time>2026-03-29T16:01:59.581Z</time></trkpt><trkpt lat="39.10873" lon="16.5166917"><ele>1184.6</ele><time>2026-03-29T16:02:00.581Z</time></trkpt><trkpt lat="39.1086567" lon="16.5165733"><ele>1183.3999999999999</ele><time>2026-03-29T16:02:01.581Z</time></trkpt><trkpt lat="39.108575" lon="16.5164883"><ele>1182.2</ele><time>2026-03-29T16:02:02.581Z</time></trkpt><trkpt lat="39.10852" lon="16.5163983"><ele>1181.0</ele><time>2026-03-29T16:02:03.581Z</time></trkpt><trkpt lat="39.1084833" lon="16.516315"><ele>1179.8</ele><time>2026-03-29T16:02:04.581Z</time></trkpt><trkpt lat="39.1084583" lon="16.5162183"><ele>1178.6</ele><time>2026-03-29T16:02:05.581Z</time></trkpt><trkpt lat="39.1084617" lon="16.5161117"><ele>1177.4</ele><time>2026-03-29T16:02:06.581Z</time></trkpt><trkpt lat="39.1084933" lon="16.5159817"><ele>1176.2</ele><time>2026-03-29T16:02:07.581Z</time></trkpt><trkpt lat="39.1085333" lon="16.5158617"><ele>1175.0</ele><time>2026-03-29T16:02:08.581Z</time></trkpt><trkpt lat="39.1085717" lon="16.5157183"><ele>1175.0</ele><time>2026-03-29T16:02:09.581Z</time></trkpt><trkpt lat="39.108595" lon="16.5155767"><ele>1175.0</ele><time>2026-03-29T16:02:10.582Z</time></trkpt><trkpt lat="39.1085783" lon="16.5154283"><ele>1175.0</ele><time>2026-03-29T16:02:11.581Z</time></trkpt><trkpt lat="39.10854" lon="16.51529"><ele>1175.0</ele><time>2026-03-29T16:02:12.581Z</time></trkpt><trkpt lat="39.1084833" lon="16.5151583"><ele>1172.5</ele><time>2026-03-29T16:02:13.581Z</time></trkpt><trkpt lat="39.108395" lon="16.5150283"><ele>1170.0</ele><time>2026-03-29T16:02:14.581Z</time></trkpt><trkpt lat="39.1082883" lon="16.514905"><ele>1167.5</ele><time>2026-03-29T16:02:15.581Z</time></trkpt><trkpt lat="39.10817" lon="16.5148033"><ele>1165.0</ele><time>2026-03-29T16:02:16.581Z</time></trkpt><trkpt lat="39.10804" lon="16.5147167"><ele>1164.0</ele><time>2026-03-29T16:02:17.581Z</time></trkpt><trkpt lat="39.1078967" lon="16.5146717"><ele>1163.0</ele><time>2026-03-29T16:02:18.581Z</time></trkpt><trkpt lat="39.1077467" lon="16.514645"><ele>1162.0</ele><time>2026-03-29T16:02:19.581Z</time></trkpt><trkpt lat="39.1076" lon="16.514625"><ele>1161.0</ele><time>2026-03-29T16:02:20.581Z</time></trkpt><trkpt lat="39.1074583" lon="16.5146217"><ele>1158.0</ele><time>2026-03-29T16:02:21.581Z</time></trkpt><trkpt lat="39.1073283" lon="16.5145967"><ele>1155.0</ele><time>2026-03-29T16:02:22.581Z</time></trkpt><trkpt lat="39.1071833" lon="16.51458"><ele>1152.0</ele><time>2026-03-29T16:02:23.581Z</time></trkpt><trkpt lat="39.1070467" lon="16.5146017"><ele>1149.0</ele><time>2026-03-29T16:02:24.581Z</time></trkpt><trkpt lat="39.106915" lon="16.5146283"><ele>1149.0</ele><time>2026-03-29T16:02:25.581Z</time></trkpt><trkpt lat="39.1067983" lon="16.5146667"><ele>1149.0</ele><time>2026-03-29T16:02:26.581Z</time></trkpt><trkpt lat="39.1066917" lon="16.5146933"><ele>1149.0</ele><time>2026-03-29T16:02:27.581Z</time></trkpt><trkpt lat="39.1065917" lon="16.5147133"><ele>1149.0</ele><time>2026-03-29T16:02:28.581Z</time></trkpt><trkpt lat="39.106495" lon="16.5147433"><ele>1149.0</ele><time>2026-03-29T16:02:29.581Z</time></trkpt><trkpt lat="39.1063917" lon="16.5147883"><ele>1146.2</ele><time>2026-03-29T16:02:30.581Z</time></trkpt><trkpt lat="39.1062917" lon="16.5148317"><ele>1143.4</ele><time>2026-03-29T16:02:31.581Z</time></trkpt><trkpt lat="39.1061883" lon="16.514875"><ele>1140.6</ele><time>2026-03-29T16:02:32.581Z</time></trkpt><trkpt lat="39.1060933" lon="16.5149133"><ele>1137.8</ele><time>2026-03-29T16:02:33.581Z</time></trkpt><trkpt lat="39.106" lon="16.51494"><ele>1135.0</ele><time>2026-03-29T16:02:34.581Z</time></trkpt><trkpt lat="39.105925" lon="16.514945"><ele>1135.0</ele><time>2026-03-29T16:02:35.581Z</time></trkpt><trkpt lat="39.1058617" lon="16.51494"><ele>1135.0</ele><time>2026-03-29T16:02:36.581Z</time></trkpt><trkpt lat="39.10577" lon="16.51488"><ele>1135.0</ele><time>2026-03-29T16:02:38.581Z</time></trkpt><trkpt lat="39.105725" lon="16.5147467"><ele>1135.0</ele><time>2026-03-29T16:02:40.581Z</time></trkpt><trkpt lat="39.1057533" lon="16.5146217"><ele>1135.0</ele><time>2026-03-29T16:02:42.581Z</time></trkpt><trkpt lat="39.1058367" lon="16.5145283"><ele>1133.8333333333333</ele><time>2026-03-29T16:02:44.581Z</time></trkpt><trkpt lat="39.1058967" lon="16.514485"><ele>1132.6666666666665</ele><time>2026-03-29T16:02:45.581Z</time></trkpt><trkpt lat="39.1059633" lon="16.5144483"><ele>1131.5</ele><time>2026-03-29T16:02:46.581Z</time></trkpt><trkpt lat="39.1060217" lon="16.5144117"><ele>1130.3333333333333</ele><time>2026-03-29T16:02:47.581Z</time></trkpt><trkpt lat="39.106085" lon="16.5143733"><ele>1129.1666666666667</ele><time>2026-03-29T16:02:48.581Z</time></trkpt><trkpt lat="39.10614" lon="16.5143333"><ele>1128.0</ele><time>2026-03-29T16:02:49.581Z</time></trkpt><trkpt lat="39.10624" lon="16.5142583"><ele>1128.0</ele><time>2026-03-29T16:02:51.581Z</time></trkpt><trkpt lat="39.1063367" lon="16.514195"><ele>1128.0</ele><time>2026-03-29T16:02:53.581Z</time></trkpt><trkpt lat="39.10643" lon="16.5141017"><ele>1128.0</ele><time>2026-03-29T16:02:55.581Z</time></trkpt><trkpt lat="39.10651" lon="16.5140033"><ele>1128.0</ele><time>2026-03-29T16:02:57.582Z</time></trkpt><trkpt lat="39.1065783" lon="16.5139267"><ele>1128.0</ele><time>2026-03-29T16:02:59.582Z</time></trkpt><trkpt lat="39.106635" lon="16.5138633"><ele>1127.3333333333333</ele><time>2026-03-29T16:03:02.582Z</time></trkpt><trkpt lat="39.1066567" lon="16.51377"><ele>1126.6666666666667</ele><time>2026-03-29T16:03:23.582Z</time></trkpt><trkpt lat="39.1067033" lon="16.5136517"><ele>1126.0</ele><time>2026-03-29T16:03:25.582Z</time></trkpt><trkpt lat="39.106745" lon="16.5135883"><ele>1125.3333333333335</ele><time>2026-03-29T16:03:26.582Z</time></trkpt><trkpt lat="39.1067983" lon="16.5135167"><ele>1124.6666666666667</ele><time>2026-03-29T16:03:27.582Z</time></trkpt><trkpt lat="39.1068583" lon="16.5134417"><ele>1124.0</ele><time>2026-03-29T16:03:28.582Z</time></trkpt><trkpt lat="39.1069167" lon="16.5133683"><ele>1124.0</ele><time>2026-03-29T16:03:29.582Z</time></trkpt><trkpt lat="39.1069717" lon="16.5133"><ele>1124.0</ele><time>2026-03-29T16:03:30.582Z</time></trkpt><trkpt lat="39.1070217" lon="16.513235"><ele>1124.0</ele><time>2026-03-29T16:03:31.582Z</time></trkpt><trkpt lat="39.1071117" lon="16.513135"><ele>1124.0</ele><time>2026-03-29T16:03:33.582Z</time></trkpt><trkpt lat="39.107165" lon="16.5130867"><ele>1124.0</ele><time>2026-03-29T16:03:34.582Z</time></trkpt><trkpt lat="39.1072783" lon="16.5130267"><ele>1124.0</ele><time>2026-03-29T16:03:36.583Z</time></trkpt><trkpt lat="39.1073917" lon="16.5130033"><ele>1124.0</ele><time>2026-03-29T16:03:38.582Z</time></trkpt><trkpt lat="39.1074717" lon="16.5130067"><ele>1124.0</ele><time>2026-03-29T16:03:40.582Z</time></trkpt><trkpt lat="39.1073967" lon="16.5129867"><ele>1124.0</ele><time>2026-03-29T16:07:17.582Z</time></trkpt><trkpt lat="39.1074783" lon="16.5129367"><ele>1124.0</ele><time>2026-03-29T16:27:42.585Z</time></trkpt><trkpt lat="39.1074167" lon="16.5129583"><ele>1124.0</ele><time>2026-03-29T16:28:02.585Z</time></trkpt><trkpt lat="39.1073317" lon="16.51298"><ele>1124.0</ele><time>2026-03-29T16:28:04.585Z</time></trkpt><trkpt lat="39.1072117" lon="16.5130383"><ele>1124.0</ele><time>2026-03-29T16:28:06.585Z</time></trkpt><trkpt lat="39.10714" lon="16.51308"><ele>1124.0</ele><time>2026-03-29T16:28:07.585Z</time></trkpt><trkpt lat="39.1070617" lon="16.5131267"><ele>1124.0</ele><time>2026-03-29T16:28:08.585Z</time></trkpt><trkpt lat="39.107" lon="16.513195"><ele>1124.0</ele><time>2026-03-29T16:28:09.585Z</time></trkpt><trkpt lat="39.10694" lon="16.5132767"><ele>1124.0</ele><time>2026-03-29T16:28:10.585Z</time></trkpt><trkpt lat="39.1068917" lon="16.5133567"><ele>1124.0</ele><time>2026-03-29T16:28:11.585Z</time></trkpt><trkpt lat="39.1068467" lon="16.5134267"><ele>1124.0</ele><time>2026-03-29T16:28:12.585Z</time></trkpt><trkpt lat="39.1068017" lon="16.5134883"><ele>1124.0</ele><time>2026-03-29T16:28:13.585Z</time></trkpt><trkpt lat="39.106755" lon="16.51355"><ele>1124.0</ele><time>2026-03-29T16:28:14.585Z</time></trkpt><trkpt lat="39.1066983" lon="16.513675"><ele>1124.0</ele><time>2026-03-29T16:28:16.585Z</time></trkpt><trkpt lat="39.1066683" lon="16.5138067"><ele>1124.6666666666667</ele><time>2026-03-29T16:28:18.585Z</time></trkpt><trkpt lat="39.1066467" lon="16.5138833"><ele>1125.3333333333335</ele><time>2026-03-29T16:28:20.585Z</time></trkpt><trkpt lat="39.1065967" lon="16.5139433"><ele>1126.0</ele><time>2026-03-29T16:28:53.585Z</time></trkpt><trkpt lat="39.1065383" lon="16.513995"><ele>1126.6666666666667</ele><time>2026-03-29T16:28:55.586Z</time></trkpt><trkpt lat="39.1064467" lon="16.5140733"><ele>1127.3333333333333</ele><time>2026-03-29T16:28:57.586Z</time></trkpt><trkpt lat="39.1063717" lon="16.5141233"><ele>1128.0</ele><time>2026-03-29T16:28:59.586Z</time></trkpt><trkpt lat="39.1064717" lon="16.51404"><ele>1128.0</ele><time>2026-03-29T16:29:11.586Z</time></trkpt><trkpt lat="39.1065183" lon="16.513985"><ele>1128.0</ele><time>2026-03-29T16:29:12.587Z</time></trkpt><trkpt lat="39.106595" lon="16.5139083"><ele>1128.0</ele><time>2026-03-29T16:29:14.586Z</time></trkpt><trkpt lat="39.1066367" lon="16.5138133"><ele>1128.0</ele><time>2026-03-29T16:44:04.588Z</time></trkpt><trkpt lat="39.106665" lon="16.5137117"><ele>1128.0</ele><time>2026-03-29T16:44:08.588Z</time></trkpt><trkpt lat="39.10672" lon="16.5136367"><ele>1128.0</ele><time>2026-03-29T16:44:11.588Z</time></trkpt><trkpt lat="39.1067733" lon="16.5135517"><ele>1127.3333333333333</ele><time>2026-03-29T16:44:13.588Z</time></trkpt><trkpt lat="39.1068517" lon="16.51343"><ele>1126.6666666666667</ele><time>2026-03-29T16:44:15.588Z</time></trkpt><trkpt lat="39.10691" lon="16.5133517"><ele>1126.0</ele><time>2026-03-29T16:44:16.588Z</time></trkpt><trkpt lat="39.106965" lon="16.5132733"><ele>1125.3333333333335</ele><time>2026-03-29T16:44:17.588Z</time></trkpt><trkpt lat="39.107015" lon="16.5132083"><ele>1124.6666666666667</ele><time>2026-03-29T16:44:18.588Z</time></trkpt><trkpt lat="39.1070717" lon="16.513145"><ele>1124.0</ele><time>2026-03-29T16:44:20.588Z</time></trkpt><trkpt lat="39.1069717" lon="16.5132283"><ele>1124.0</ele><time>2026-03-29T16:44:29.588Z</time></trkpt><trkpt lat="39.106905" lon="16.5133167"><ele>1124.0</ele><time>2026-03-29T16:44:30.588Z</time></trkpt><trkpt lat="39.1068217" lon="16.5134467"><ele>1124.0</ele><time>2026-03-29T16:44:31.588Z</time></trkpt><trkpt lat="39.1067467" lon="16.5135617"><ele>1124.0</ele><time>2026-03-29T16:44:32.588Z</time></trkpt><trkpt lat="39.106685" lon="16.5136417"><ele>1124.0</ele><time>2026-03-29T16:44:33.588Z</time></trkpt><trkpt lat="39.1066317" lon="16.5137783"><ele>1124.6666666666667</ele><time>2026-03-29T16:44:35.588Z</time></trkpt><trkpt lat="39.1066183" lon="16.5138783"><ele>1125.3333333333335</ele><time>2026-03-29T16:44:37.588Z</time></trkpt><trkpt lat="39.1065667" lon="16.5139533"><ele>1126.0</ele><time>2026-03-29T16:44:39.588Z</time></trkpt><trkpt lat="39.1065067" lon="16.514015"><ele>1126.6666666666667</ele><time>2026-03-29T16:44:41.588Z</time></trkpt><trkpt lat="39.106425" lon="16.5140717"><ele>1127.3333333333333</ele><time>2026-03-29T16:45:22.588Z</time></trkpt><trkpt lat="39.1063617" lon="16.5141033"><ele>1128.0</ele><time>2026-03-29T16:45:24.588Z</time></trkpt><trkpt lat="39.1062983" lon="16.5141333"><ele>1128.0</ele><time>2026-03-29T16:45:26.588Z</time></trkpt><trkpt lat="39.1062133" lon="16.5141883"><ele>1128.0</ele><time>2026-03-29T16:45:28.588Z</time></trkpt><trkpt lat="39.106115" lon="16.5142717"><ele>1128.0</ele><time>2026-03-29T16:45:29.588Z</time></trkpt><trkpt lat="39.1060267" lon="16.5143383"><ele>1128.0</ele><time>2026-03-29T16:45:30.588Z</time></trkpt><trkpt lat="39.105945" lon="16.5143983"><ele>1128.0</ele><time>2026-03-29T16:45:31.588Z</time></trkpt><trkpt lat="39.1058717" lon="16.51446"><ele>1128.0</ele><time>2026-03-29T16:45:32.588Z</time></trkpt><trkpt lat="39.10579" lon="16.514565"><ele>1128.0</ele><time>2026-03-29T16:45:33.588Z</time></trkpt><trkpt lat="39.10574" lon="16.5146283"><ele>1128.0</ele><time>2026-03-29T16:45:34.588Z</time></trkpt><trkpt lat="39.1057167" lon="16.5147083"><ele>1128.0</ele><time>2026-03-29T16:45:35.588Z</time></trkpt><trkpt lat="39.1057167" lon="16.51479"><ele>1128.0</ele><time>2026-03-29T16:45:36.588Z</time></trkpt><trkpt lat="39.1057367" lon="16.514875"><ele>1128.0</ele><time>2026-03-29T16:45:37.588Z</time></trkpt><trkpt lat="39.1057733" lon="16.5149433"><ele>1128.0</ele><time>2026-03-29T16:45:38.588Z</time></trkpt><trkpt lat="39.1058367" lon="16.514985"><ele>1129.0</ele><time>2026-03-29T16:45:39.588Z</time></trkpt><trkpt lat="39.1059017" lon="16.5149983"><ele>1130.0</ele><time>2026-03-29T16:45:40.588Z</time></trkpt><trkpt lat="39.105975" lon="16.5149883"><ele>1131.0</ele><time>2026-03-29T16:45:41.589Z</time></trkpt><trkpt lat="39.10605" lon="16.5149583"><ele>1132.0</ele><time>2026-03-29T16:45:42.588Z</time></trkpt><trkpt lat="39.1061233" lon="16.514925"><ele>1133.0</ele><time>2026-03-29T16:45:43.589Z</time></trkpt><trkpt lat="39.106195" lon="16.514895"><ele>1134.0</ele><time>2026-03-29T16:45:44.588Z</time></trkpt><trkpt lat="39.1062617" lon="16.514855"><ele>1135.0</ele><time>2026-03-29T16:45:45.588Z</time></trkpt><trkpt lat="39.1063267" lon="16.5148283"><ele>1135.0</ele><time>2026-03-29T16:45:46.588Z</time></trkpt><trkpt lat="39.1063833" lon="16.51479"><ele>1135.0</ele><time>2026-03-29T16:45:47.588Z</time></trkpt><trkpt lat="39.1064483" lon="16.5147567"><ele>1135.0</ele><time>2026-03-29T16:45:48.588Z</time></trkpt><trkpt lat="39.10652" lon="16.5147333"><ele>1135.0</ele><time>2026-03-29T16:45:49.588Z</time></trkpt><trkpt lat="39.106605" lon="16.514705"><ele>1135.0</ele><time>2026-03-29T16:45:50.588Z</time></trkpt><trkpt lat="39.10668" lon="16.514685"><ele>1135.0</ele><time>2026-03-29T16:45:51.588Z</time></trkpt><trkpt lat="39.1067567" lon="16.5146617"><ele>1135.1666666666665</ele><time>2026-03-29T16:45:52.588Z</time></trkpt><trkpt lat="39.1068333" lon="16.5146333"><ele>1135.3333333333333</ele><time>2026-03-29T16:45:53.588Z</time></trkpt><trkpt lat="39.106905" lon="16.5146"><ele>1135.5</ele><time>2026-03-29T16:45:54.588Z</time></trkpt><trkpt lat="39.1069733" lon="16.5145817"><ele>1135.6666666666667</ele><time>2026-03-29T16:45:55.588Z</time></trkpt><trkpt lat="39.107075" lon="16.514555"><ele>1135.8333333333335</ele><time>2026-03-29T16:45:57.588Z</time></trkpt><trkpt lat="39.10716" lon="16.5145533"><ele>1136.0</ele><time>2026-03-29T16:45:59.588Z</time></trkpt><trkpt lat="39.107255" lon="16.514575"><ele>1139.25</ele><time>2026-03-29T16:46:01.588Z</time></trkpt><trkpt lat="39.107355" lon="16.5145883"><ele>1142.5</ele><time>2026-03-29T16:46:03.588Z</time></trkpt><trkpt lat="39.1074633" lon="16.5145917"><ele>1145.75</ele><time>2026-03-29T16:46:05.589Z</time></trkpt><trkpt lat="39.1075833" lon="16.5146033"><ele>1149.0</ele><time>2026-03-29T16:46:07.588Z</time></trkpt><trkpt lat="39.1077183" lon="16.5146017"><ele>1151.0</ele><time>2026-03-29T16:46:09.588Z</time></trkpt><trkpt lat="39.1077833" lon="16.5146017"><ele>1153.0</ele><time>2026-03-29T16:46:10.588Z</time></trkpt><trkpt lat="39.10785" lon="16.5146083"><ele>1155.0</ele><time>2026-03-29T16:46:11.588Z</time></trkpt><trkpt lat="39.107925" lon="16.51463"><ele>1157.0</ele><time>2026-03-29T16:46:12.588Z</time></trkpt><trkpt lat="39.108005" lon="16.5146783"><ele>1159.0</ele><time>2026-03-29T16:46:13.588Z</time></trkpt><trkpt lat="39.10809" lon="16.5147433"><ele>1161.0</ele><time>2026-03-29T16:46:14.588Z</time></trkpt><trkpt lat="39.108185" lon="16.514835"><ele>1161.8</ele><time>2026-03-29T16:46:15.588Z</time></trkpt><trkpt lat="39.108275" lon="16.5149317"><ele>1162.6</ele><time>2026-03-29T16:46:16.588Z</time></trkpt><trkpt lat="39.10834" lon="16.51504"><ele>1163.4</ele><time>2026-03-29T16:46:17.588Z</time></trkpt><trkpt lat="39.10841" lon="16.5151533"><ele>1164.2</ele><time>2026-03-29T16:46:18.588Z</time></trkpt><trkpt lat="39.1084617" lon="16.515275"><ele>1165.0</ele><time>2026-03-29T16:46:19.588Z</time></trkpt><trkpt lat="39.1084967" lon="16.5154"><ele>1167.0</ele><time>2026-03-29T16:46:20.588Z</time></trkpt><trkpt lat="39.1085083" lon="16.5155433"><ele>1169.0</ele><time>2026-03-29T16:46:21.588Z</time></trkpt><trkpt lat="39.1085067" lon="16.51568"><ele>1171.0</ele><time>2026-03-29T16:46:22.588Z</time></trkpt><trkpt lat="39.1084883" lon="16.5157933"><ele>1173.0</ele><time>2026-03-29T16:46:23.588Z</time></trkpt><trkpt lat="39.108455" lon="16.51591"><ele>1175.0</ele><time>2026-03-29T16:46:24.588Z</time></trkpt><trkpt lat="39.108425" lon="16.5160317"><ele>1175.0</ele><time>2026-03-29T16:46:25.588Z</time></trkpt><trkpt lat="39.1084117" lon="16.516145"><ele>1175.0</ele><time>2026-03-29T16:46:26.588Z</time></trkpt><trkpt lat="39.1084233" lon="16.5162817"><ele>1175.0</ele><time>2026-03-29T16:46:27.588Z</time></trkpt><trkpt lat="39.1084617" lon="16.5164067"><ele>1175.0</ele><time>2026-03-29T16:46:28.588Z</time></trkpt><trkpt lat="39.10852" lon="16.5165083"><ele>1175.0</ele><time>2026-03-29T16:46:29.588Z</time></trkpt><trkpt lat="39.10859" lon="16.5166"><ele>1176.2</ele><time>2026-03-29T16:46:30.588Z</time></trkpt><trkpt lat="39.1086567" lon="16.516695"><ele>1177.4</ele><time>2026-03-29T16:46:31.588Z</time></trkpt><trkpt lat="39.1087183" lon="16.5167967"><ele>1178.6</ele><time>2026-03-29T16:46:32.588Z</time></trkpt><trkpt lat="39.108755" lon="16.5169"><ele>1179.8</ele><time>2026-03-29T16:46:33.588Z</time></trkpt><trkpt lat="39.1087883" lon="16.5170217"><ele>1181.0</ele><time>2026-03-29T16:46:34.588Z</time></trkpt><trkpt lat="39.1088333" lon="16.517145"><ele>1181.2</ele><time>2026-03-29T16:46:35.588Z</time></trkpt><trkpt lat="39.1088867" lon="16.5172633"><ele>1181.3999999999999</ele><time>2026-03-29T16:46:36.588Z</time></trkpt><trkpt lat="39.10895" lon="16.5173783"><ele>1181.6</ele><time>2026-03-29T16:46:37.588Z</time></trkpt><trkpt lat="39.1090167" lon="16.51749"><ele>1181.8</ele><time>2026-03-29T16:46:38.588Z</time></trkpt><trkpt lat="39.1090817" lon="16.5176"><ele>1182.0</ele><time>2026-03-29T16:46:39.588Z</time></trkpt><trkpt lat="39.1091333" lon="16.517715"><ele>1182.0</ele><time>2026-03-29T16:46:40.588Z</time></trkpt><trkpt lat="39.1091867" lon="16.5178383"><ele>1182.0</ele><time>2026-03-29T16:46:41.588Z</time></trkpt><trkpt lat="39.1092267" lon="16.517965"><ele>1182.0</ele><time>2026-03-29T16:46:42.588Z</time></trkpt><trkpt lat="39.1092567" lon="16.5180933"><ele>1182.0</ele><time>2026-03-29T16:46:43.588Z</time></trkpt><trkpt lat="39.1092833" lon="16.5182283"><ele>1182.0</ele><time>2026-03-29T16:46:44.588Z</time></trkpt><trkpt lat="39.1093167" lon="16.5183617"><ele>1182.6</ele><time>2026-03-29T16:46:45.588Z</time></trkpt><trkpt lat="39.1093533" lon="16.5184917"><ele>1183.2</ele><time>2026-03-29T16:46:46.588Z</time></trkpt><trkpt lat="39.1093917" lon="16.51861"><ele>1183.8</ele><time>2026-03-29T16:46:47.588Z</time></trkpt><trkpt lat="39.1094283" lon="16.51873"><ele>1184.4</ele><time>2026-03-29T16:46:48.588Z</time></trkpt><trkpt lat="39.1094583" lon="16.5188467"><ele>1185.0</ele><time>2026-03-29T16:46:49.588Z</time></trkpt><trkpt lat="39.1095" lon="16.51898"><ele>1185.0</ele><time>2026-03-29T16:46:50.588Z</time></trkpt><trkpt lat="39.1095283" lon="16.519105"><ele>1185.0</ele><time>2026-03-29T16:46:51.588Z</time></trkpt><trkpt lat="39.1095667" lon="16.519215"><ele>1185.0</ele><time>2026-03-29T16:46:52.588Z</time></trkpt><trkpt lat="39.1096167" lon="16.5192983"><ele>1185.0</ele><time>2026-03-29T16:46:53.588Z</time></trkpt><trkpt lat="39.10968" lon="16.51938"><ele>1185.0</ele><time>2026-03-29T16:46:54.588Z</time></trkpt><trkpt lat="39.1097633" lon="16.51943"><ele>1185.0</ele><time>2026-03-29T16:46:55.588Z</time></trkpt><trkpt lat="39.1098533" lon="16.5194483"><ele>1185.0</ele><time>2026-03-29T16:46:56.588Z</time></trkpt><trkpt lat="39.1099367" lon="16.5194467"><ele>1185.0</ele><time>2026-03-29T16:46:57.588Z</time></trkpt><trkpt lat="39.1100067" lon="16.519435"><ele>1185.0</ele><time>2026-03-29T16:46:58.588Z</time></trkpt><trkpt lat="39.1100717" lon="16.519455"><ele>1185.0</ele><time>2026-03-29T16:46:59.588Z</time></trkpt><trkpt lat="39.1101617" lon="16.5195783"><ele>1185.0</ele><time>2026-03-29T16:47:01.588Z</time></trkpt><trkpt lat="39.110185" lon="16.5196867"><ele>1181.75</ele><time>2026-03-29T16:47:02.588Z</time></trkpt><trkpt lat="39.110195" lon="16.5198117"><ele>1178.5</ele><time>2026-03-29T16:47:03.588Z</time></trkpt><trkpt lat="39.110195" lon="16.5199517"><ele>1175.25</ele><time>2026-03-29T16:47:04.588Z</time></trkpt><trkpt lat="39.1102067" lon="16.52011"><ele>1172.0</ele><time>2026-03-29T16:47:05.588Z</time></trkpt><trkpt lat="39.1102417" lon="16.5202683"><ele>1171.0</ele><time>2026-03-29T16:47:06.588Z</time></trkpt><trkpt lat="39.1102967" lon="16.5204333"><ele>1170.0</ele><time>2026-03-29T16:47:07.588Z</time></trkpt><trkpt lat="39.1103533" lon="16.5206"><ele>1169.0</ele><time>2026-03-29T16:47:08.588Z</time></trkpt><trkpt lat="39.1104133" lon="16.52076"><ele>1168.0</ele><time>2026-03-29T16:47:09.588Z</time></trkpt><trkpt lat="39.110455" lon="16.5209"><ele>1168.0</ele><time>2026-03-29T16:47:10.588Z</time></trkpt><trkpt lat="39.1104683" lon="16.52104"><ele>1168.0</ele><time>2026-03-29T16:47:11.588Z</time></trkpt><trkpt lat="39.1104533" lon="16.5211883"><ele>1168.0</ele><time>2026-03-29T16:47:12.588Z</time></trkpt><trkpt lat="39.1104167" lon="16.521335"><ele>1168.0</ele><time>2026-03-29T16:47:13.588Z</time></trkpt><trkpt lat="39.1103533" lon="16.5214883"><ele>1167.2</ele><time>2026-03-29T16:47:14.588Z</time></trkpt><trkpt lat="39.1103017" lon="16.5216333"><ele>1166.4</ele><time>2026-03-29T16:47:15.588Z</time></trkpt><trkpt lat="39.1102717" lon="16.5217667"><ele>1165.6000000000001</ele><time>2026-03-29T16:47:16.588Z</time></trkpt><trkpt lat="39.110265" lon="16.521875"><ele>1164.8</ele><time>2026-03-29T16:47:17.588Z</time></trkpt><trkpt lat="39.110285" lon="16.5219667"><ele>1164.0</ele><time>2026-03-29T16:47:18.588Z</time></trkpt><trkpt lat="39.11033" lon="16.52205"><ele>1165.0</ele><time>2026-03-29T16:47:19.588Z</time></trkpt><trkpt lat="39.1103933" lon="16.522125"><ele>1166.0</ele><time>2026-03-29T16:47:20.588Z</time></trkpt><trkpt lat="39.1104617" lon="16.5221883"><ele>1167.0</ele><time>2026-03-29T16:47:21.588Z</time></trkpt><trkpt lat="39.110545" lon="16.5222183"><ele>1168.0</ele><time>2026-03-29T16:47:22.588Z</time></trkpt><trkpt lat="39.110635" lon="16.5222283"><ele>1169.0</ele><time>2026-03-29T16:47:23.588Z</time></trkpt><trkpt lat="39.1107483" lon="16.5222233"><ele>1169.0</ele><time>2026-03-29T16:47:24.588Z</time></trkpt><trkpt lat="39.1108617" lon="16.52224"><ele>1169.0</ele><time>2026-03-29T16:47:25.588Z</time></trkpt><trkpt lat="39.110975" lon="16.5222783"><ele>1169.0</ele><time>2026-03-29T16:47:26.589Z</time></trkpt><trkpt lat="39.1110767" lon="16.5223433"><ele>1169.0</ele><time>2026-03-29T16:47:27.588Z</time></trkpt><trkpt lat="39.111175" lon="16.522425"><ele>1169.0</ele><time>2026-03-29T16:47:28.588Z</time></trkpt><trkpt lat="39.1112783" lon="16.5225017"><ele>1169.0</ele><time>2026-03-29T16:47:29.588Z</time></trkpt><trkpt lat="39.1113767" lon="16.5225667"><ele>1169.0</ele><time>2026-03-29T16:47:30.588Z</time></trkpt><trkpt lat="39.1114767" lon="16.5226233"><ele>1169.0</ele><time>2026-03-29T16:47:31.588Z</time></trkpt><trkpt lat="39.1115733" lon="16.5226767"><ele>1169.0</ele><time>2026-03-29T16:47:32.588Z</time></trkpt><trkpt lat="39.1116717" lon="16.5227133"><ele>1168.8</ele><time>2026-03-29T16:47:33.588Z</time></trkpt><trkpt lat="39.1117767" lon="16.52275"><ele>1168.6000000000001</ele><time>2026-03-29T16:47:34.588Z</time></trkpt><trkpt lat="39.1118867" lon="16.5227833"><ele>1168.4</ele><time>2026-03-29T16:47:35.588Z</time></trkpt><trkpt lat="39.1119967" lon="16.5228233"><ele>1168.2</ele><time>2026-03-29T16:47:36.588Z</time></trkpt><trkpt lat="39.1121017" lon="16.522865"><ele>1168.0</ele><time>2026-03-29T16:47:37.588Z</time></trkpt><trkpt lat="39.11219" lon="16.522915"><ele>1168.0</ele><time>2026-03-29T16:47:38.588Z</time></trkpt><trkpt lat="39.11226" lon="16.5229833"><ele>1168.0</ele><time>2026-03-29T16:47:39.588Z</time></trkpt><trkpt lat="39.1123183" lon="16.523055"><ele>1168.0</ele><time>2026-03-29T16:47:40.588Z</time></trkpt><trkpt lat="39.1123633" lon="16.5231467"><ele>1168.0</ele><time>2026-03-29T16:47:41.588Z</time></trkpt><trkpt lat="39.1123667" lon="16.5232533"><ele>1168.0</ele><time>2026-03-29T16:47:42.588Z</time></trkpt><trkpt lat="39.1123517" lon="16.5233783"><ele>1168.0</ele><time>2026-03-29T16:47:43.588Z</time></trkpt><trkpt lat="39.112335" lon="16.5234683"><ele>1168.0</ele><time>2026-03-29T16:47:44.588Z</time></trkpt><trkpt lat="39.1123267" lon="16.5235567"><ele>1168.0</ele><time>2026-03-29T16:47:45.589Z</time></trkpt><trkpt lat="39.1123367" lon="16.5236467"><ele>1168.0</ele><time>2026-03-29T16:47:46.588Z</time></trkpt><trkpt lat="39.1124067" lon="16.5238033"><ele>1168.0</ele><time>2026-03-29T16:47:48.588Z</time></trkpt><trkpt lat="39.112475" lon="16.5238817"><ele>1168.0</ele><time>2026-03-29T16:47:49.588Z</time></trkpt><trkpt lat="39.1125667" lon="16.52396"><ele>1168.4</ele><time>2026-03-29T16:47:50.588Z</time></trkpt><trkpt lat="39.1126567" lon="16.5240383"><ele>1168.8</ele><time>2026-03-29T16:47:51.588Z</time></trkpt><trkpt lat="39.1127467" lon="16.524125"><ele>1169.2</ele><time>2026-03-29T16:47:52.588Z</time></trkpt><trkpt lat="39.11282" lon="16.5242317"><ele>1169.6</ele><time>2026-03-29T16:47:53.588Z</time></trkpt><trkpt lat="39.1128717" lon="16.5243483"><ele>1170.0</ele><time>2026-03-29T16:47:54.588Z</time></trkpt><trkpt lat="39.11289" lon="16.5244583"><ele>1169.5</ele><time>2026-03-29T16:47:55.588Z</time></trkpt><trkpt lat="39.11288" lon="16.52457"><ele>1169.0</ele><time>2026-03-29T16:47:56.588Z</time></trkpt><trkpt lat="39.1128583" lon="16.52466"><ele>1168.5</ele><time>2026-03-29T16:47:57.588Z</time></trkpt><trkpt lat="39.112835" lon="16.5247517"><ele>1168.0</ele><time>2026-03-29T16:47:58.588Z</time></trkpt><trkpt lat="39.1128067" lon="16.52484"><ele>1167.5</ele><time>2026-03-29T16:47:59.588Z</time></trkpt><trkpt lat="39.1127783" lon="16.5249417"><ele>1167.0</ele><time>2026-03-29T16:48:00.588Z</time></trkpt><trkpt lat="39.1127483" lon="16.5250383"><ele>1167.0</ele><time>2026-03-29T16:48:01.588Z</time></trkpt><trkpt lat="39.1127433" lon="16.52516"><ele>1167.0</ele><time>2026-03-29T16:48:02.588Z</time></trkpt><trkpt lat="39.11275" lon="16.525275"><ele>1167.0</ele><time>2026-03-29T16:48:03.588Z</time></trkpt><trkpt lat="39.1127817" lon="16.5253767"><ele>1167.0</ele><time>2026-03-29T16:48:04.588Z</time></trkpt><trkpt lat="39.1128367" lon="16.52547"><ele>1167.0</ele><time>2026-03-29T16:48:05.588Z</time></trkpt><trkpt lat="39.1129317" lon="16.5255483"><ele>1166.75</ele><time>2026-03-29T16:48:06.588Z</time></trkpt><trkpt lat="39.113045" lon="16.5256233"><ele>1166.5</ele><time>2026-03-29T16:48:07.588Z</time></trkpt><trkpt lat="39.1131817" lon="16.5257017"><ele>1166.25</ele><time>2026-03-29T16:48:08.588Z</time></trkpt><trkpt lat="39.11332" lon="16.52579"><ele>1166.0</ele><time>2026-03-29T16:48:09.588Z</time></trkpt><trkpt lat="39.11348" lon="16.525895"><ele>1166.0</ele><time>2026-03-29T16:48:10.588Z</time></trkpt><trkpt lat="39.1136383" lon="16.526"><ele>1166.0</ele><time>2026-03-29T16:48:11.588Z</time></trkpt><trkpt lat="39.1137517" lon="16.5260933"><ele>1166.0</ele><time>2026-03-29T16:48:12.588Z</time></trkpt><trkpt lat="39.113855" lon="16.526185"><ele>1166.0</ele><time>2026-03-29T16:48:13.588Z</time></trkpt><trkpt lat="39.1139233" lon="16.5262783"><ele>1165.3999999999999</ele><time>2026-03-29T16:48:14.588Z</time></trkpt><trkpt lat="39.1139783" lon="16.5263917"><ele>1164.8</ele><time>2026-03-29T16:48:15.588Z</time></trkpt><trkpt lat="39.11401" lon="16.5265167"><ele>1164.1999999999998</ele><time>2026-03-29T16:48:16.588Z</time></trkpt><trkpt lat="39.1140483" lon="16.526655"><ele>1163.6</ele><time>2026-03-29T16:48:17.588Z</time></trkpt><trkpt lat="39.114065" lon="16.5267933"><ele>1163.0</ele><time>2026-03-29T16:48:18.588Z</time></trkpt><trkpt lat="39.11406" lon="16.5269167"><ele>1163.0</ele><time>2026-03-29T16:48:19.588Z</time></trkpt><trkpt lat="39.1140317" lon="16.52702"><ele>1163.0</ele><time>2026-03-29T16:48:20.588Z</time></trkpt><trkpt lat="39.11399" lon="16.527115"><ele>1163.0</ele><time>2026-03-29T16:48:21.588Z</time></trkpt><trkpt lat="39.1139267" lon="16.5271917"><ele>1163.0</ele><time>2026-03-29T16:48:22.588Z</time></trkpt><trkpt lat="39.1138367" lon="16.5272867"><ele>1163.0</ele><time>2026-03-29T16:48:23.588Z</time></trkpt><trkpt lat="39.11371" lon="16.5273833"><ele>1166.0</ele><time>2026-03-29T16:48:24.588Z</time></trkpt><trkpt lat="39.1135633" lon="16.527475"><ele>1169.0</ele><time>2026-03-29T16:48:25.588Z</time></trkpt><trkpt lat="39.1134017" lon="16.5275433"><ele>1172.0</ele><time>2026-03-29T16:48:26.588Z</time></trkpt><trkpt lat="39.11325" lon="16.5276183"><ele>1170.6666666666667</ele><time>2026-03-29T16:48:27.588Z</time></trkpt><trkpt lat="39.1131083" lon="16.5276667"><ele>1169.3333333333333</ele><time>2026-03-29T16:48:28.588Z</time></trkpt><trkpt lat="39.1129567" lon="16.5276717"><ele>1168.0</ele><time>2026-03-29T16:48:29.588Z</time></trkpt><trkpt lat="39.1128033" lon="16.527645"><ele>1168.0</ele><time>2026-03-29T16:48:30.588Z</time></trkpt><trkpt lat="39.112645" lon="16.5275917"><ele>1168.0</ele><time>2026-03-29T16:48:31.588Z</time></trkpt><trkpt lat="39.1125133" lon="16.52757"><ele>1168.0</ele><time>2026-03-29T16:48:32.588Z</time></trkpt><trkpt lat="39.1124083" lon="16.527585"><ele>1168.0</ele><time>2026-03-29T16:48:33.588Z</time></trkpt><trkpt lat="39.1123167" lon="16.5276267"><ele>1166.4</ele><time>2026-03-29T16:48:34.588Z</time></trkpt><trkpt lat="39.112235" lon="16.527695"><ele>1164.8</ele><time>2026-03-29T16:48:35.589Z</time></trkpt><trkpt lat="39.1121617" lon="16.527785"><ele>1163.2</ele><time>2026-03-29T16:48:36.588Z</time></trkpt><trkpt lat="39.1120767" lon="16.5278733"><ele>1161.6</ele><time>2026-03-29T16:48:37.588Z</time></trkpt><trkpt lat="39.1119667" lon="16.5279533"><ele>1160.0</ele><time>2026-03-29T16:48:38.588Z</time></trkpt><trkpt lat="39.11185" lon="16.52801"><ele>1163.0</ele><time>2026-03-29T16:48:39.588Z</time></trkpt><trkpt lat="39.1117167" lon="16.528065"><ele>1166.0</ele><time>2026-03-29T16:48:40.588Z</time></trkpt><trkpt lat="39.1115733" lon="16.5281267"><ele>1169.0</ele><time>2026-03-29T16:48:41.588Z</time></trkpt><trkpt lat="39.1114367" lon="16.5282183"><ele>1172.0</ele><time>2026-03-29T16:48:42.588Z</time></trkpt><trkpt lat="39.1113033" lon="16.52833"><ele>1172.0</ele><time>2026-03-29T16:48:43.588Z</time></trkpt><trkpt lat="39.1111817" lon="16.5284567"><ele>1172.0</ele><time>2026-03-29T16:48:44.588Z</time></trkpt><trkpt lat="39.111065" lon="16.5286067"><ele>1172.0</ele><time>2026-03-29T16:48:45.588Z</time></trkpt><trkpt lat="39.110955" lon="16.5287567"><ele>1174.3333333333335</ele><time>2026-03-29T16:48:46.588Z</time></trkpt><trkpt lat="39.1108533" lon="16.5289083"><ele>1176.6666666666667</ele><time>2026-03-29T16:48:47.588Z</time></trkpt><trkpt lat="39.1107467" lon="16.5290567"><ele>1179.0</ele><time>2026-03-29T16:48:48.588Z</time></trkpt><trkpt lat="39.11064" lon="16.5291917"><ele>1179.0</ele><time>2026-03-29T16:48:49.588Z</time></trkpt><trkpt lat="39.1105483" lon="16.5293333"><ele>1179.0</ele><time>2026-03-29T16:48:50.588Z</time></trkpt><trkpt lat="39.1104783" lon="16.5294433"><ele>1179.0</ele><time>2026-03-29T16:48:51.588Z</time></trkpt><trkpt lat="39.1104433" lon="16.52956"><ele>1179.0</ele><time>2026-03-29T16:48:52.588Z</time></trkpt><trkpt lat="39.1104383" lon="16.5296633"><ele>1179.0</ele><time>2026-03-29T16:48:53.588Z</time></trkpt><trkpt lat="39.110465" lon="16.52976"><ele>1178.6000000000001</ele><time>2026-03-29T16:48:54.588Z</time></trkpt><trkpt lat="39.11051" lon="16.5298433"><ele>1178.2</ele><time>2026-03-29T16:48:55.588Z</time></trkpt><trkpt lat="39.11057" lon="16.5299183"><ele>1177.8000000000002</ele><time>2026-03-29T16:48:56.588Z</time></trkpt><trkpt lat="39.1106367" lon="16.5300233"><ele>1177.4</ele><time>2026-03-29T16:48:57.588Z</time></trkpt><trkpt lat="39.110715" lon="16.5301283"><ele>1177.0</ele><time>2026-03-29T16:48:58.588Z</time></trkpt><trkpt lat="39.11079" lon="16.530245"><ele>1178.25</ele><time>2026-03-29T16:48:59.588Z</time></trkpt><trkpt lat="39.110875" lon="16.5303667"><ele>1179.5</ele><time>2026-03-29T16:49:00.588Z</time></trkpt><trkpt lat="39.11096" lon="16.530485"><ele>1180.75</ele><time>2026-03-29T16:49:01.588Z</time></trkpt><trkpt lat="39.1110433" lon="16.5306133"><ele>1182.0</ele><time>2026-03-29T16:49:02.588Z</time></trkpt><trkpt lat="39.1111233" lon="16.5307467"><ele>1182.0</ele><time>2026-03-29T16:49:03.588Z</time></trkpt><trkpt lat="39.1112" lon="16.53088"><ele>1182.0</ele><time>2026-03-29T16:49:04.588Z</time></trkpt><trkpt lat="39.1112667" lon="16.530985"><ele>1182.0</ele><time>2026-03-29T16:49:05.588Z</time></trkpt><trkpt lat="39.111295" lon="16.531095"><ele>1182.0</ele><time>2026-03-29T16:49:06.588Z</time></trkpt><trkpt lat="39.111315" lon="16.5311917"><ele>1182.0</ele><time>2026-03-29T16:49:07.588Z</time></trkpt><trkpt lat="39.1112767" lon="16.5313333"><ele>1185.0</ele><time>2026-03-29T16:49:09.588Z</time></trkpt><trkpt lat="39.1111617" lon="16.53142"><ele>1188.0</ele><time>2026-03-29T16:49:11.588Z</time></trkpt><trkpt lat="39.11108" lon="16.531445"><ele>1191.0</ele><time>2026-03-29T16:49:12.588Z</time></trkpt><trkpt lat="39.1109817" lon="16.5314283"><ele>1194.0</ele><time>2026-03-29T16:49:13.588Z</time></trkpt><trkpt lat="39.1108733" lon="16.5313867"><ele>1197.0</ele><time>2026-03-29T16:49:14.588Z</time></trkpt><trkpt lat="39.1107417" lon="16.5313183"><ele>1200.0</ele><time>2026-03-29T16:49:15.588Z</time></trkpt><trkpt lat="39.1105783" lon="16.5312717"><ele>1203.0</ele><time>2026-03-29T16:49:16.588Z</time></trkpt><trkpt lat="39.1104083" lon="16.531245"><ele>1206.0</ele><time>2026-03-29T16:49:17.588Z</time></trkpt><trkpt lat="39.110245" lon="16.5312267"><ele>1205.25</ele><time>2026-03-29T16:49:18.588Z</time></trkpt><trkpt lat="39.1100833" lon="16.5312067"><ele>1204.5</ele><time>2026-03-29T16:49:19.588Z</time></trkpt><trkpt lat="39.1099433" lon="16.5312033"><ele>1203.75</ele><time>2026-03-29T16:49:20.588Z</time></trkpt><trkpt lat="39.109835" lon="16.531215"><ele>1203.0</ele><time>2026-03-29T16:49:21.588Z</time></trkpt><trkpt lat="39.10974" lon="16.5312317"><ele>1203.0</ele><time>2026-03-29T16:49:22.588Z</time></trkpt><trkpt lat="39.1096667" lon="16.531295"><ele>1203.0</ele><time>2026-03-29T16:49:23.588Z</time></trkpt><trkpt lat="39.10962" lon="16.5313833"><ele>1203.0</ele><time>2026-03-29T16:49:24.588Z</time></trkpt><trkpt lat="39.10958" lon="16.5314783"><ele>1203.0</ele><time>2026-03-29T16:49:25.588Z</time></trkpt><trkpt lat="39.1095033" lon="16.5316033"><ele>1203.0</ele><time>2026-03-29T16:49:27.588Z</time></trkpt><trkpt lat="39.1094017" lon="16.5316633"><ele>1203.0</ele><time>2026-03-29T16:49:29.588Z</time></trkpt><trkpt lat="39.1093333" lon="16.53167"><ele>1203.0</ele><time>2026-03-29T16:49:30.588Z</time></trkpt><trkpt lat="39.109245" lon="16.5316583"><ele>1203.0</ele><time>2026-03-29T16:49:31.588Z</time></trkpt><trkpt lat="39.10914" lon="16.531625"><ele>1203.0</ele><time>2026-03-29T16:49:32.588Z</time></trkpt><trkpt lat="39.1090367" lon="16.5315883"><ele>1203.0</ele><time>2026-03-29T16:49:33.589Z</time></trkpt><trkpt lat="39.1089183" lon="16.5315717"><ele>1203.0</ele><time>2026-03-29T16:49:34.589Z</time></trkpt><trkpt lat="39.1088017" lon="16.5315717"><ele>1203.0</ele><time>2026-03-29T16:49:35.588Z</time></trkpt><trkpt lat="39.1086867" lon="16.5316033"><ele>1203.0</ele><time>2026-03-29T16:49:36.588Z</time></trkpt><trkpt lat="39.1085783" lon="16.53166"><ele>1203.0</ele><time>2026-03-29T16:49:37.588Z</time></trkpt><trkpt lat="39.1084833" lon="16.53173"><ele>1203.0</ele><time>2026-03-29T16:49:38.588Z</time></trkpt><trkpt lat="39.1083883" lon="16.5318067"><ele>1203.0</ele><time>2026-03-29T16:49:39.588Z</time></trkpt><trkpt lat="39.1082867" lon="16.5318717"><ele>1203.0</ele><time>2026-03-29T16:49:40.588Z</time></trkpt><trkpt lat="39.1081733" lon="16.531915"><ele>1203.0</ele><time>2026-03-29T16:49:41.588Z</time></trkpt><trkpt lat="39.10806" lon="16.5319283"><ele>1202.2</ele><time>2026-03-29T16:49:42.588Z</time></trkpt><trkpt lat="39.107955" lon="16.53194"><ele>1201.4</ele><time>2026-03-29T16:49:43.588Z</time></trkpt><trkpt lat="39.1078567" lon="16.53194"><ele>1200.6000000000001</ele><time>2026-03-29T16:49:44.589Z</time></trkpt><trkpt lat="39.1077633" lon="16.5319483"><ele>1199.8</ele><time>2026-03-29T16:49:45.59Z</time></trkpt><trkpt lat="39.1076767" lon="16.532"><ele>1199.0</ele><time>2026-03-29T16:49:46.589Z</time></trkpt><trkpt lat="39.10761" lon="16.53207"><ele>1200.8</ele><time>2026-03-29T16:49:47.589Z</time></trkpt><trkpt lat="39.1075517" lon="16.532165"><ele>1202.6000000000001</ele><time>2026-03-29T16:49:48.589Z</time></trkpt><trkpt lat="39.1074983" lon="16.532285"><ele>1204.4</ele><time>2026-03-29T16:49:49.589Z</time></trkpt><trkpt lat="39.1074583" lon="16.532425"><ele>1206.2</ele><time>2026-03-29T16:49:50.589Z</time></trkpt><trkpt lat="39.1074167" lon="16.5325783"><ele>1208.0</ele><time>2026-03-29T16:49:51.589Z</time></trkpt><trkpt lat="39.1073967" lon="16.532715"><ele>1208.0</ele><time>2026-03-29T16:49:52.589Z</time></trkpt><trkpt lat="39.1074" lon="16.5328367"><ele>1208.0</ele><time>2026-03-29T16:49:53.589Z</time></trkpt><trkpt lat="39.1074267" lon="16.5329467"><ele>1208.0</ele><time>2026-03-29T16:49:54.589Z</time></trkpt><trkpt lat="39.1074683" lon="16.5330467"><ele>1208.0</ele><time>2026-03-29T16:49:55.589Z</time></trkpt><trkpt lat="39.1075167" lon="16.533135"><ele>1208.0</ele><time>2026-03-29T16:49:56.589Z</time></trkpt><trkpt lat="39.1075933" lon="16.53318"><ele>1208.0</ele><time>2026-03-29T16:49:57.589Z</time></trkpt><trkpt lat="39.1076617" lon="16.53325"><ele>1208.0</ele><time>2026-03-29T16:49:58.589Z</time></trkpt><trkpt lat="39.1077333" lon="16.5333217"><ele>1208.0</ele><time>2026-03-29T16:49:59.589Z</time></trkpt><trkpt lat="39.1077883" lon="16.5333917"><ele>1208.0</ele><time>2026-03-29T16:50:00.589Z</time></trkpt><trkpt lat="39.1078217" lon="16.5334717"><ele>1208.0</ele><time>2026-03-29T16:50:01.589Z</time></trkpt><trkpt lat="39.1078217" lon="16.5336383"><ele>1208.0</ele><time>2026-03-29T16:50:03.589Z</time></trkpt><trkpt lat="39.1077833" lon="16.5337383"><ele>1209.5</ele><time>2026-03-29T16:50:04.589Z</time></trkpt><trkpt lat="39.1077167" lon="16.53388"><ele>1211.0</ele><time>2026-03-29T16:50:05.589Z</time></trkpt><trkpt lat="39.107645" lon="16.5340567"><ele>1212.5</ele><time>2026-03-29T16:50:06.589Z</time></trkpt><trkpt lat="39.1076167" lon="16.534245"><ele>1214.0</ele><time>2026-03-29T16:50:07.589Z</time></trkpt><trkpt lat="39.1076183" lon="16.5344417"><ele>1217.0</ele><time>2026-03-29T16:50:08.589Z</time></trkpt><trkpt lat="39.1076567" lon="16.534655"><ele>1220.0</ele><time>2026-03-29T16:50:09.589Z</time></trkpt><trkpt lat="39.1077117" lon="16.5348317"><ele>1223.0</ele><time>2026-03-29T16:50:10.589Z</time></trkpt><trkpt lat="39.1077533" lon="16.534985"><ele>1226.0</ele><time>2026-03-29T16:50:11.589Z</time></trkpt><trkpt lat="39.1077867" lon="16.5351117"><ele>1226.0</ele><time>2026-03-29T16:50:12.589Z</time></trkpt><trkpt lat="39.1078017" lon="16.5351967"><ele>1226.0</ele><time>2026-03-29T16:50:13.589Z</time></trkpt><trkpt lat="39.1077967" lon="16.53528"><ele>1226.0</ele><time>2026-03-29T16:50:14.589Z</time></trkpt><trkpt lat="39.10775" lon="16.535395"><ele>1226.0</ele><time>2026-03-29T16:50:16.589Z</time></trkpt><trkpt lat="39.107615" lon="16.5353917"><ele>1226.0</ele><time>2026-03-29T16:50:18.589Z</time></trkpt><trkpt lat="39.1075117" lon="16.53532"><ele>1224.6666666666667</ele><time>2026-03-29T16:50:19.589Z</time></trkpt><trkpt lat="39.10737" lon="16.535195"><ele>1223.3333333333333</ele><time>2026-03-29T16:50:20.589Z</time></trkpt><trkpt lat="39.10725" lon="16.5350933"><ele>1222.0</ele><time>2026-03-29T16:50:21.589Z</time></trkpt><trkpt lat="39.107105" lon="16.5350133"><ele>1222.0</ele><time>2026-03-29T16:50:22.589Z</time></trkpt><trkpt lat="39.1069667" lon="16.5350067"><ele>1222.0</ele><time>2026-03-29T16:50:23.589Z</time></trkpt><trkpt lat="39.10686" lon="16.5350367"><ele>1222.0</ele><time>2026-03-29T16:50:24.589Z</time></trkpt><trkpt lat="39.1067867" lon="16.5351167"><ele>1222.0</ele><time>2026-03-29T16:50:25.589Z</time></trkpt><trkpt lat="39.1067367" lon="16.5352283"><ele>1222.0</ele><time>2026-03-29T16:50:26.589Z</time></trkpt><trkpt lat="39.1067017" lon="16.5353733"><ele>1224.2</ele><time>2026-03-29T16:50:27.589Z</time></trkpt><trkpt lat="39.1066717" lon="16.5355333"><ele>1226.4</ele><time>2026-03-29T16:50:28.589Z</time></trkpt><trkpt lat="39.1066333" lon="16.53567"><ele>1228.6</ele><time>2026-03-29T16:50:29.589Z</time></trkpt><trkpt lat="39.106585" lon="16.5357717"><ele>1230.8</ele><time>2026-03-29T16:50:30.589Z</time></trkpt><trkpt lat="39.1065233" lon="16.5358683"><ele>1233.0</ele><time>2026-03-29T16:50:31.589Z</time></trkpt><trkpt lat="39.10645" lon="16.5359383"><ele>1233.0</ele><time>2026-03-29T16:50:32.589Z</time></trkpt><trkpt lat="39.1063417" lon="16.536"><ele>1233.0</ele><time>2026-03-29T16:50:33.589Z</time></trkpt><trkpt lat="39.1062167" lon="16.53606"><ele>1233.0</ele><time>2026-03-29T16:50:34.589Z</time></trkpt><trkpt lat="39.1060517" lon="16.5361617"><ele>1233.0</ele><time>2026-03-29T16:50:35.589Z</time></trkpt><trkpt lat="39.1058517" lon="16.53631"><ele>1236.6666666666667</ele><time>2026-03-29T16:50:36.589Z</time></trkpt><trkpt lat="39.1056883" lon="16.53648"><ele>1240.3333333333335</ele><time>2026-03-29T16:50:37.589Z</time></trkpt><trkpt lat="39.1055667" lon="16.53666"><ele>1244.0</ele><time>2026-03-29T16:50:38.589Z</time></trkpt><trkpt lat="39.1054867" lon="16.536835"><ele>1244.0</ele><time>2026-03-29T16:50:39.589Z</time></trkpt><trkpt lat="39.105415" lon="16.537"><ele>1244.0</ele><time>2026-03-29T16:50:40.589Z</time></trkpt><trkpt lat="39.1053483" lon="16.5371367"><ele>1244.0</ele><time>2026-03-29T16:50:41.589Z</time></trkpt><trkpt lat="39.1052817" lon="16.5372217"><ele>1244.0</ele><time>2026-03-29T16:50:42.589Z</time></trkpt><trkpt lat="39.1052067" lon="16.53728"><ele>1246.5</ele><time>2026-03-29T16:50:43.589Z</time></trkpt><trkpt lat="39.10511" lon="16.5373133"><ele>1249.0</ele><time>2026-03-29T16:50:44.589Z</time></trkpt><trkpt lat="39.1049967" lon="16.5373333"><ele>1251.5</ele><time>2026-03-29T16:50:45.589Z</time></trkpt><trkpt lat="39.104885" lon="16.53736"><ele>1254.0</ele><time>2026-03-29T16:50:46.589Z</time></trkpt><trkpt lat="39.1047617" lon="16.5373933"><ele>1255.2</ele><time>2026-03-29T16:50:47.589Z</time></trkpt><trkpt lat="39.1046517" lon="16.53741"><ele>1256.4</ele><time>2026-03-29T16:50:48.589Z</time></trkpt><trkpt lat="39.104555" lon="16.5374383"><ele>1257.6</ele><time>2026-03-29T16:50:49.589Z</time></trkpt><trkpt lat="39.104465" lon="16.5374633"><ele>1258.8</ele><time>2026-03-29T16:50:50.589Z</time></trkpt><trkpt lat="39.1043917" lon="16.537485"><ele>1260.0</ele><time>2026-03-29T16:50:51.589Z</time></trkpt><trkpt lat="39.1043" lon="16.5374783"><ele>1260.0</ele><time>2026-03-29T16:50:52.589Z</time></trkpt><trkpt lat="39.1042083" lon="16.5374533"><ele>1260.0</ele><time>2026-03-29T16:50:53.589Z</time></trkpt><trkpt lat="39.1041283" lon="16.5374083"><ele>1260.0</ele><time>2026-03-29T16:50:54.589Z</time></trkpt><trkpt lat="39.1040433" lon="16.537325"><ele>1260.0</ele><time>2026-03-29T16:50:55.589Z</time></trkpt><trkpt lat="39.1039717" lon="16.5372467"><ele>1260.0</ele><time>2026-03-29T16:50:56.589Z</time></trkpt><trkpt lat="39.103915" lon="16.53716"><ele>1259.8333333333333</ele><time>2026-03-29T16:50:57.589Z</time></trkpt><trkpt lat="39.1038717" lon="16.5370933"><ele>1259.6666666666667</ele><time>2026-03-29T16:50:58.589Z</time></trkpt><trkpt lat="39.1037633" lon="16.537005"><ele>1259.5</ele><time>2026-03-29T16:51:00.589Z</time></trkpt><trkpt lat="39.1037" lon="16.5369817"><ele>1259.3333333333335</ele><time>2026-03-29T16:51:01.589Z</time></trkpt><trkpt lat="39.1036167" lon="16.536975"><ele>1259.1666666666667</ele><time>2026-03-29T16:51:02.589Z</time></trkpt><trkpt lat="39.103535" lon="16.536995"><ele>1259.0</ele><time>2026-03-29T16:51:03.589Z</time></trkpt><trkpt lat="39.103455" lon="16.53704"><ele>1260.6000000000001</ele><time>2026-03-29T16:51:04.589Z</time></trkpt><trkpt lat="39.10337" lon="16.537105"><ele>1262.2</ele><time>2026-03-29T16:51:05.589Z</time></trkpt><trkpt lat="39.1032717" lon="16.5371767"><ele>1263.8000000000002</ele><time>2026-03-29T16:51:06.589Z</time></trkpt><trkpt lat="39.103165" lon="16.5372433"><ele>1265.4</ele><time>2026-03-29T16:51:07.589Z</time></trkpt><trkpt lat="39.103055" lon="16.5372933"><ele>1267.0</ele><time>2026-03-29T16:51:08.589Z</time></trkpt><trkpt lat="39.10294" lon="16.5373317"><ele>1267.2</ele><time>2026-03-29T16:51:09.589Z</time></trkpt><trkpt lat="39.1028317" lon="16.53737"><ele>1267.4</ele><time>2026-03-29T16:51:10.589Z</time></trkpt><trkpt lat="39.1027233" lon="16.53739"><ele>1267.6</ele><time>2026-03-29T16:51:11.589Z</time></trkpt><trkpt lat="39.1026167" lon="16.5373983"><ele>1267.8</ele><time>2026-03-29T16:51:12.589Z</time></trkpt><trkpt lat="39.1025167" lon="16.5373817"><ele>1268.0</ele><time>2026-03-29T16:51:13.589Z</time></trkpt><trkpt lat="39.102415" lon="16.53735"><ele>1268.3333333333335</ele><time>2026-03-29T16:51:14.589Z</time></trkpt><trkpt lat="39.1023233" lon="16.5373"><ele>1268.6666666666667</ele><time>2026-03-29T16:51:15.589Z</time></trkpt><trkpt lat="39.1022433" lon="16.5372433"><ele>1269.0</ele><time>2026-03-29T16:51:16.589Z</time></trkpt><trkpt lat="39.1021617" lon="16.5372033"><ele>1269.3333333333333</ele><time>2026-03-29T16:51:17.589Z</time></trkpt><trkpt lat="39.102085" lon="16.5372067"><ele>1269.6666666666665</ele><time>2026-03-29T16:51:18.59Z</time></trkpt><trkpt lat="39.10202" lon="16.53726"><ele>1270.0</ele><time>2026-03-29T16:51:19.589Z</time></trkpt><trkpt lat="39.10196" lon="16.5373217"><ele>1270.0</ele><time>2026-03-29T16:51:20.589Z</time></trkpt><trkpt lat="39.101905" lon="16.5373867"><ele>1270.0</ele><time>2026-03-29T16:51:21.589Z</time></trkpt><trkpt lat="39.101845" lon="16.537445"><ele>1270.0</ele><time>2026-03-29T16:51:22.589Z</time></trkpt><trkpt lat="39.1017817" lon="16.5374717"><ele>1270.0</ele><time>2026-03-29T16:51:23.589Z</time></trkpt><trkpt lat="39.1017117" lon="16.537455"><ele>1270.0</ele><time>2026-03-29T16:51:24.589Z</time></trkpt><trkpt lat="39.10162" lon="16.537425"><ele>1270.0</ele><time>2026-03-29T16:51:25.589Z</time></trkpt><trkpt lat="39.10151" lon="16.5373767"><ele>1269.25</ele><time>2026-03-29T16:51:26.589Z</time></trkpt><trkpt lat="39.1013933" lon="16.5373283"><ele>1268.5</ele><time>2026-03-29T16:51:27.589Z</time></trkpt><trkpt lat="39.101275" lon="16.53727"><ele>1267.75</ele><time>2026-03-29T16:51:28.589Z</time></trkpt><trkpt lat="39.1011617" lon="16.5372233"><ele>1267.0</ele><time>2026-03-29T16:51:29.589Z</time></trkpt><trkpt lat="39.1010517" lon="16.5371833"><ele>1267.0</ele><time>2026-03-29T16:51:30.589Z</time></trkpt><trkpt lat="39.1009333" lon="16.537155"><ele>1267.0</ele><time>2026-03-29T16:51:31.589Z</time></trkpt><trkpt lat="39.10082" lon="16.5371433"><ele>1267.0</ele><time>2026-03-29T16:51:32.589Z</time></trkpt><trkpt lat="39.1007233" lon="16.537135"><ele>1267.0</ele><time>2026-03-29T16:51:33.589Z</time></trkpt><trkpt lat="39.1006517" lon="16.5371267"><ele>1267.0</ele><time>2026-03-29T16:51:34.589Z</time></trkpt><trkpt lat="39.10059" lon="16.53711"><ele>1267.2857142857142</ele><time>2026-03-29T16:51:35.589Z</time></trkpt><trkpt lat="39.10053" lon="16.53708"><ele>1267.5714285714284</ele><time>2026-03-29T16:51:36.589Z</time></trkpt><trkpt lat="39.1004683" lon="16.5370567"><ele>1267.857142857143</ele><time>2026-03-29T16:51:37.589Z</time></trkpt><trkpt lat="39.10041" lon="16.5370217"><ele>1268.142857142857</ele><time>2026-03-29T16:51:38.589Z</time></trkpt><trkpt lat="39.1003583" lon="16.5369617"><ele>1268.4285714285713</ele><time>2026-03-29T16:51:39.589Z</time></trkpt><trkpt lat="39.1003217" lon="16.5368867"><ele>1268.7142857142858</ele><time>2026-03-29T16:51:40.589Z</time></trkpt><trkpt lat="39.1003167" lon="16.5367717"><ele>1269.0</ele><time>2026-03-29T16:51:41.589Z</time></trkpt><trkpt lat="39.1003183" lon="16.5366633"><ele>1268.25</ele><time>2026-03-29T16:51:42.589Z</time></trkpt><trkpt lat="39.1003167" lon="16.5365383"><ele>1267.5</ele><time>2026-03-29T16:51:43.589Z</time></trkpt><trkpt lat="39.1003233" lon="16.5363833"><ele>1266.75</ele><time>2026-03-29T16:51:44.59Z</time></trkpt><trkpt lat="39.1003417" lon="16.536135"><ele>1266.0</ele><time>2026-03-29T16:51:45.589Z</time></trkpt><trkpt lat="39.1003267" lon="16.5359433"><ele>1266.0</ele><time>2026-03-29T16:51:46.589Z</time></trkpt><trkpt lat="39.1003217" lon="16.535755"><ele>1266.0</ele><time>2026-03-29T16:51:47.589Z</time></trkpt><trkpt lat="39.1003117" lon="16.53559"><ele>1266.0</ele><time>2026-03-29T16:51:48.59Z</time></trkpt><trkpt lat="39.1003133" lon="16.5354283"><ele>1266.0</ele><time>2026-03-29T16:51:49.59Z</time></trkpt><trkpt lat="39.1003" lon="16.535275"><ele>1263.75</ele><time>2026-03-29T16:51:50.589Z</time></trkpt><trkpt lat="39.1002717" lon="16.5351117"><ele>1261.5</ele><time>2026-03-29T16:51:51.589Z</time></trkpt><trkpt lat="39.10023" lon="16.5349683"><ele>1259.25</ele><time>2026-03-29T16:51:52.589Z</time></trkpt><trkpt lat="39.1001717" lon="16.5348267"><ele>1257.0</ele><time>2026-03-29T16:51:53.589Z</time></trkpt><trkpt lat="39.100105" lon="16.534705"><ele>1257.0</ele><time>2026-03-29T16:51:54.589Z</time></trkpt><trkpt lat="39.1000317" lon="16.5345983"><ele>1257.0</ele><time>2026-03-29T16:51:55.589Z</time></trkpt><trkpt lat="39.099955" lon="16.5345017"><ele>1257.0</ele><time>2026-03-29T16:51:56.589Z</time></trkpt><trkpt lat="39.0998717" lon="16.534445"><ele>1257.0</ele><time>2026-03-29T16:51:57.589Z</time></trkpt><trkpt lat="39.09977" lon="16.5343633"><ele>1257.0</ele><time>2026-03-29T16:51:58.589Z</time></trkpt><trkpt lat="39.09966" lon="16.5342983"><ele>1255.25</ele><time>2026-03-29T16:51:59.589Z</time></trkpt><trkpt lat="39.099535" lon="16.534235"><ele>1253.5</ele><time>2026-03-29T16:52:00.589Z</time></trkpt><trkpt lat="39.0993983" lon="16.5341783"><ele>1251.75</ele><time>2026-03-29T16:52:01.589Z</time></trkpt><trkpt lat="39.0992567" lon="16.53411"><ele>1250.0</ele><time>2026-03-29T16:52:02.589Z</time></trkpt><trkpt lat="39.0991267" lon="16.5340167"><ele>1247.75</ele><time>2026-03-29T16:52:03.589Z</time></trkpt><trkpt lat="39.0989967" lon="16.5339517"><ele>1245.5</ele><time>2026-03-29T16:52:04.589Z</time></trkpt><trkpt lat="39.098865" lon="16.5338967"><ele>1243.25</ele><time>2026-03-29T16:52:05.589Z</time></trkpt><trkpt lat="39.0987417" lon="16.5338217"><ele>1241.0</ele><time>2026-03-29T16:52:06.589Z</time></trkpt><trkpt lat="39.0986283" lon="16.5337317"><ele>1241.6</ele><time>2026-03-29T16:52:07.589Z</time></trkpt><trkpt lat="39.0985333" lon="16.5336383"><ele>1242.1999999999998</ele><time>2026-03-29T16:52:08.589Z</time></trkpt><trkpt lat="39.09846" lon="16.5335483"><ele>1242.8000000000002</ele><time>2026-03-29T16:52:09.589Z</time></trkpt><trkpt lat="39.0984067" lon="16.5334517"><ele>1243.4</ele><time>2026-03-29T16:52:10.589Z</time></trkpt><trkpt lat="39.0983533" lon="16.5333467"><ele>1244.0</ele><time>2026-03-29T16:52:11.589Z</time></trkpt><trkpt lat="39.098305" lon="16.5332183"><ele>1244.0</ele><time>2026-03-29T16:52:12.589Z</time></trkpt><trkpt lat="39.09826" lon="16.5330883"><ele>1244.0</ele><time>2026-03-29T16:52:13.589Z</time></trkpt><trkpt lat="39.0982067" lon="16.5329333"><ele>1244.0</ele><time>2026-03-29T16:52:14.589Z</time></trkpt><trkpt lat="39.0981667" lon="16.5327717"><ele>1244.0</ele><time>2026-03-29T16:52:15.589Z</time></trkpt><trkpt lat="39.098155" lon="16.5326017"><ele>1242.5</ele><time>2026-03-29T16:52:16.589Z</time></trkpt><trkpt lat="39.0981433" lon="16.5324483"><ele>1241.0</ele><time>2026-03-29T16:52:17.589Z</time></trkpt><trkpt lat="39.0981433" lon="16.532285"><ele>1239.5</ele><time>2026-03-29T16:52:18.589Z</time></trkpt><trkpt lat="39.0981733" lon="16.53213"><ele>1238.0</ele><time>2026-03-29T16:52:19.589Z</time></trkpt><trkpt lat="39.098205" lon="16.5319733"><ele>1236.3333333333335</ele><time>2026-03-29T16:52:20.589Z</time></trkpt><trkpt lat="39.0982633" lon="16.5317983"><ele>1234.6666666666667</ele><time>2026-03-29T16:52:21.589Z</time></trkpt><trkpt lat="39.0983433" lon="16.5316267"><ele>1233.0</ele><time>2026-03-29T16:52:22.589Z</time></trkpt><trkpt lat="39.0984483" lon="16.53146"><ele>1233.0</ele><time>2026-03-29T16:52:23.589Z</time></trkpt><trkpt lat="39.0985767" lon="16.5313283"><ele>1233.0</ele><time>2026-03-29T16:52:24.589Z</time></trkpt><trkpt lat="39.09872" lon="16.5312283"><ele>1233.0</ele><time>2026-03-29T16:52:25.589Z</time></trkpt><trkpt lat="39.098885" lon="16.5311383"><ele>1233.6666666666667</ele><time>2026-03-29T16:52:26.589Z</time></trkpt><trkpt lat="39.099075" lon="16.5310633"><ele>1234.3333333333335</ele><time>2026-03-29T16:52:27.589Z</time></trkpt><trkpt lat="39.0992883" lon="16.531"><ele>1235.0</ele><time>2026-03-29T16:52:28.59Z</time></trkpt><trkpt lat="39.0995083" lon="16.5309517"><ele>1234.0</ele><time>2026-03-29T16:52:29.589Z</time></trkpt><trkpt lat="39.0997383" lon="16.5308767"><ele>1233.0</ele><time>2026-03-29T16:52:30.589Z</time></trkpt><trkpt lat="39.0999617" lon="16.530825"><ele>1233.0</ele><time>2026-03-29T16:52:31.589Z</time></trkpt><trkpt lat="39.1001717" lon="16.5307617"><ele>1233.0</ele><time>2026-03-29T16:52:32.589Z</time></trkpt><trkpt lat="39.100385" lon="16.5307"><ele>1233.0</ele><time>2026-03-29T16:52:33.59Z</time></trkpt><trkpt lat="39.1005917" lon="16.53063"><ele>1236.3333333333333</ele><time>2026-03-29T16:52:34.589Z</time></trkpt><trkpt lat="39.1007933" lon="16.5305367"><ele>1239.6666666666665</ele><time>2026-03-29T16:52:35.589Z</time></trkpt><trkpt lat="39.1009917" lon="16.530435"><ele>1243.0</ele><time>2026-03-29T16:52:36.589Z</time></trkpt><trkpt lat="39.1011833" lon="16.5303217"><ele>1243.0</ele><time>2026-03-29T16:52:37.589Z</time></trkpt><trkpt lat="39.1013567" lon="16.5302267"><ele>1243.0</ele><time>2026-03-29T16:52:38.589Z</time></trkpt><trkpt lat="39.1015367" lon="16.5301633"><ele>1243.0</ele><time>2026-03-29T16:52:39.589Z</time></trkpt><trkpt lat="39.1017217" lon="16.5301133"><ele>1237.0</ele><time>2026-03-29T16:52:40.589Z</time></trkpt><trkpt lat="39.101905" lon="16.5300983"><ele>1231.0</ele><time>2026-03-29T16:52:41.59Z</time></trkpt><trkpt lat="39.1020883" lon="16.5300633"><ele>1225.0</ele><time>2026-03-29T16:52:42.589Z</time></trkpt><trkpt lat="39.1022333" lon="16.5300033"><ele>1225.0</ele><time>2026-03-29T16:52:43.589Z</time></trkpt><trkpt lat="39.1023767" lon="16.529905"><ele>1225.0</ele><time>2026-03-29T16:52:44.589Z</time></trkpt><trkpt lat="39.1025183" lon="16.5297683"><ele>1225.0</ele><time>2026-03-29T16:52:45.589Z</time></trkpt><trkpt lat="39.1026667" lon="16.5296267"><ele>1224.6666666666665</ele><time>2026-03-29T16:52:46.589Z</time></trkpt><trkpt lat="39.1028133" lon="16.52949"><ele>1224.3333333333333</ele><time>2026-03-29T16:52:47.589Z</time></trkpt><trkpt lat="39.1029833" lon="16.5293667"><ele>1224.0</ele><time>2026-03-29T16:52:48.589Z</time></trkpt><trkpt lat="39.10315" lon="16.5292567"><ele>1216.6666666666667</ele><time>2026-03-29T16:52:49.589Z</time></trkpt><trkpt lat="39.1033167" lon="16.5291833"><ele>1209.3333333333335</ele><time>2026-03-29T16:52:50.589Z</time></trkpt><trkpt lat="39.1034667" lon="16.529125"><ele>1202.0</ele><time>2026-03-29T16:52:51.589Z</time></trkpt><trkpt lat="39.1036033" lon="16.529065"><ele>1202.0</ele><time>2026-03-29T16:52:52.589Z</time></trkpt><trkpt lat="39.1037317" lon="16.5289883"><ele>1202.0</ele><time>2026-03-29T16:52:53.589Z</time></trkpt><trkpt lat="39.1038217" lon="16.528875"><ele>1202.0</ele><time>2026-03-29T16:52:54.589Z</time></trkpt><trkpt lat="39.1039" lon="16.5287317"><ele>1202.0</ele><time>2026-03-29T16:52:55.589Z</time></trkpt><trkpt lat="39.1039617" lon="16.5285867"><ele>1202.0</ele><time>2026-03-29T16:52:56.589Z</time></trkpt><trkpt lat="39.1039933" lon="16.5284183"><ele>1202.0</ele><time>2026-03-29T16:52:57.589Z</time></trkpt><trkpt lat="39.1039967" lon="16.5282333"><ele>1202.0</ele><time>2026-03-29T16:52:58.589Z</time></trkpt><trkpt lat="39.1039933" lon="16.528055"><ele>1202.0</ele><time>2026-03-29T16:52:59.589Z</time></trkpt><trkpt lat="39.1039567" lon="16.52787"><ele>1202.0</ele><time>2026-03-29T16:53:00.589Z</time></trkpt><trkpt lat="39.1038917" lon="16.5277017"><ele>1202.0</ele><time>2026-03-29T16:53:01.589Z</time></trkpt><trkpt lat="39.103805" lon="16.5275483"><ele>1202.0</ele><time>2026-03-29T16:53:02.589Z</time></trkpt><trkpt lat="39.1036967" lon="16.52742"><ele>1202.0</ele><time>2026-03-29T16:53:03.589Z</time></trkpt><trkpt lat="39.10356" lon="16.5273067"><ele>1202.0</ele><time>2026-03-29T16:53:04.589Z</time></trkpt><trkpt lat="39.1034083" lon="16.5272117"><ele>1202.0</ele><time>2026-03-29T16:53:05.59Z</time></trkpt><trkpt lat="39.1032417" lon="16.527135"><ele>1202.0</ele><time>2026-03-29T16:53:06.589Z</time></trkpt><trkpt lat="39.1030467" lon="16.5270633"><ele>1196.0</ele><time>2026-03-29T16:53:07.59Z</time></trkpt><trkpt lat="39.102835" lon="16.5269933"><ele>1190.0</ele><time>2026-03-29T16:53:08.589Z</time></trkpt><trkpt lat="39.1026117" lon="16.526915"><ele>1192.0</ele><time>2026-03-29T16:53:09.589Z</time></trkpt><trkpt lat="39.1023767" lon="16.5268417"><ele>1194.0</ele><time>2026-03-29T16:53:10.589Z</time></trkpt><trkpt lat="39.1021167" lon="16.5267633"><ele>1194.0</ele><time>2026-03-29T16:53:11.589Z</time></trkpt><trkpt lat="39.1018617" lon="16.5266667"><ele>1194.0</ele><time>2026-03-29T16:53:12.589Z</time></trkpt><trkpt lat="39.101625" lon="16.5265717"><ele>1195.5</ele><time>2026-03-29T16:53:13.589Z</time></trkpt><trkpt lat="39.1013917" lon="16.5264683"><ele>1197.0</ele><time>2026-03-29T16:53:14.589Z</time></trkpt><trkpt lat="39.1011817" lon="16.5263917"><ele>1197.0</ele><time>2026-03-29T16:53:15.589Z</time></trkpt><trkpt lat="39.1010067" lon="16.5263217"><ele>1197.0</ele><time>2026-03-29T16:53:16.589Z</time></trkpt><trkpt lat="39.10085" lon="16.5262367"><ele>1197.0</ele><time>2026-03-29T16:53:17.589Z</time></trkpt><trkpt lat="39.1007" lon="16.526115"><ele>1199.0</ele><time>2026-03-29T16:53:18.589Z</time></trkpt><trkpt lat="39.10059" lon="16.525985"><ele>1201.0</ele><time>2026-03-29T16:53:19.589Z</time></trkpt><trkpt lat="39.10051" lon="16.5258183"><ele>1203.0</ele><time>2026-03-29T16:53:20.589Z</time></trkpt><trkpt lat="39.1004317" lon="16.5256283"><ele>1203.0</ele><time>2026-03-29T16:53:21.589Z</time></trkpt><trkpt lat="39.1003667" lon="16.5254467"><ele>1203.0</ele><time>2026-03-29T16:53:22.589Z</time></trkpt><trkpt lat="39.1002933" lon="16.5252667"><ele>1203.0</ele><time>2026-03-29T16:53:23.589Z</time></trkpt><trkpt lat="39.1002017" lon="16.52507"><ele>1197.6666666666667</ele><time>2026-03-29T16:53:24.589Z</time></trkpt><trkpt lat="39.1000783" lon="16.5248567"><ele>1192.3333333333335</ele><time>2026-03-29T16:53:25.589Z</time></trkpt><trkpt lat="39.099935" lon="16.5246567"><ele>1187.0</ele><time>2026-03-29T16:53:26.589Z</time></trkpt><trkpt lat="39.099795" lon="16.52447"><ele>1183.0</ele><time>2026-03-29T16:53:27.589Z</time></trkpt><trkpt lat="39.0996667" lon="16.524315"><ele>1179.0</ele><time>2026-03-29T16:53:28.589Z</time></trkpt><trkpt lat="39.09954" lon="16.5241683"><ele>1175.0</ele><time>2026-03-29T16:53:29.589Z</time></trkpt><trkpt lat="39.0994083" lon="16.52404"><ele>1175.0</ele><time>2026-03-29T16:53:30.589Z</time></trkpt><trkpt lat="39.09927" lon="16.5239283"><ele>1175.0</ele><time>2026-03-29T16:53:31.589Z</time></trkpt><trkpt lat="39.0991083" lon="16.523835"><ele>1175.0</ele><time>2026-03-29T16:53:32.589Z</time></trkpt><trkpt lat="39.0989433" lon="16.5237883"><ele>1172.6666666666667</ele><time>2026-03-29T16:53:33.589Z</time></trkpt><trkpt lat="39.09877" lon="16.5237817"><ele>1170.3333333333333</ele><time>2026-03-29T16:53:34.589Z</time></trkpt><trkpt lat="39.0985933" lon="16.5237983"><ele>1168.0</ele><time>2026-03-29T16:53:35.589Z</time></trkpt><trkpt lat="39.0983983" lon="16.5238567"><ele>1161.0</ele><time>2026-03-29T16:53:36.589Z</time></trkpt><trkpt lat="39.0982133" lon="16.5239317"><ele>1154.0</ele><time>2026-03-29T16:53:37.589Z</time></trkpt><trkpt lat="39.098045" lon="16.524005"><ele>1147.0</ele><time>2026-03-29T16:53:38.589Z</time></trkpt><trkpt lat="39.0978967" lon="16.52409"><ele>1147.0</ele><time>2026-03-29T16:53:39.589Z</time></trkpt><trkpt lat="39.09776" lon="16.524195"><ele>1147.0</ele><time>2026-03-29T16:53:40.589Z</time></trkpt><trkpt lat="39.0976467" lon="16.524335"><ele>1147.0</ele><time>2026-03-29T16:53:41.589Z</time></trkpt><trkpt lat="39.0975533" lon="16.5245017"><ele>1151.6666666666665</ele><time>2026-03-29T16:53:42.589Z</time></trkpt><trkpt lat="39.0974717" lon="16.5246717"><ele>1156.3333333333333</ele><time>2026-03-29T16:53:43.589Z</time></trkpt><trkpt lat="39.0974283" lon="16.5248783"><ele>1161.0</ele><time>2026-03-29T16:53:44.589Z</time></trkpt><trkpt lat="39.0973867" lon="16.525095"><ele>1157.0</ele><time>2026-03-29T16:53:45.589Z</time></trkpt><trkpt lat="39.0973417" lon="16.5253"><ele>1153.0</ele><time>2026-03-29T16:53:46.589Z</time></trkpt><trkpt lat="39.0972917" lon="16.5254883"><ele>1149.0</ele><time>2026-03-29T16:53:47.589Z</time></trkpt><trkpt lat="39.0972333" lon="16.5256567"><ele>1149.0</ele><time>2026-03-29T16:53:48.589Z</time></trkpt><trkpt lat="39.09716" lon="16.5257933"><ele>1149.0</ele><time>2026-03-29T16:53:49.589Z</time></trkpt><trkpt lat="39.0970517" lon="16.5259067"><ele>1149.0</ele><time>2026-03-29T16:53:50.589Z</time></trkpt><trkpt lat="39.09692" lon="16.5260067"><ele>1149.0</ele><time>2026-03-29T16:53:51.589Z</time></trkpt><trkpt lat="39.0967833" lon="16.5260833"><ele>1149.0</ele><time>2026-03-29T16:53:52.589Z</time></trkpt><trkpt lat="39.0966267" lon="16.5261367"><ele>1149.0</ele><time>2026-03-29T16:53:53.589Z</time></trkpt><trkpt lat="39.0964767" lon="16.526205"><ele>1149.0</ele><time>2026-03-29T16:53:54.589Z</time></trkpt><trkpt lat="39.0963333" lon="16.5262867"><ele>1148.3333333333333</ele><time>2026-03-29T16:53:55.589Z</time></trkpt><trkpt lat="39.0962067" lon="16.5263933"><ele>1147.6666666666665</ele><time>2026-03-29T16:53:56.589Z</time></trkpt><trkpt lat="39.09609" lon="16.5265417"><ele>1147.0</ele><time>2026-03-29T16:53:57.589Z</time></trkpt><trkpt lat="39.0959717" lon="16.5267217"><ele>1147.0</ele><time>2026-03-29T16:53:58.589Z</time></trkpt><trkpt lat="39.0958667" lon="16.526895"><ele>1147.0</ele><time>2026-03-29T16:53:59.589Z</time></trkpt><trkpt lat="39.0957617" lon="16.5270633"><ele>1147.0</ele><time>2026-03-29T16:54:00.589Z</time></trkpt><trkpt lat="39.0956617" lon="16.5272217"><ele>1145.75</ele><time>2026-03-29T16:54:01.589Z</time></trkpt><trkpt lat="39.0955517" lon="16.52735"><ele>1144.5</ele><time>2026-03-29T16:54:02.589Z</time></trkpt><trkpt lat="39.095445" lon="16.5274567"><ele>1143.25</ele><time>2026-03-29T16:54:03.589Z</time></trkpt><trkpt lat="39.0953333" lon="16.5275"><ele>1142.0</ele><time>2026-03-29T16:54:04.589Z</time></trkpt><trkpt lat="39.0952117" lon="16.527515"><ele>1142.0</ele><time>2026-03-29T16:54:05.589Z</time></trkpt><trkpt lat="39.0950883" lon="16.5275017"><ele>1142.0</ele><time>2026-03-29T16:54:06.589Z</time></trkpt><trkpt lat="39.0949583" lon="16.5274517"><ele>1142.0</ele><time>2026-03-29T16:54:07.589Z</time></trkpt><trkpt lat="39.09483" lon="16.5273817"><ele>1142.0</ele><time>2026-03-29T16:54:08.589Z</time></trkpt><trkpt lat="39.094695" lon="16.5272967"><ele>1144.6666666666667</ele><time>2026-03-29T16:54:09.589Z</time></trkpt><trkpt lat="39.0945433" lon="16.5271967"><ele>1147.3333333333333</ele><time>2026-03-29T16:54:10.589Z</time></trkpt><trkpt lat="39.0943767" lon="16.5271033"><ele>1150.0</ele><time>2026-03-29T16:54:11.589Z</time></trkpt><trkpt lat="39.0941983" lon="16.526995"><ele>1145.6666666666665</ele><time>2026-03-29T16:54:12.589Z</time></trkpt><trkpt lat="39.0940133" lon="16.5269017"><ele>1141.3333333333333</ele><time>2026-03-29T16:54:13.589Z</time></trkpt><trkpt lat="39.0938367" lon="16.5268017"><ele>1137.0</ele><time>2026-03-29T16:54:14.589Z</time></trkpt><trkpt lat="39.09368" lon="16.5267067"><ele>1137.0</ele><time>2026-03-29T16:54:15.589Z</time></trkpt><trkpt lat="39.09355" lon="16.526635"><ele>1137.0</ele><time>2026-03-29T16:54:16.589Z</time></trkpt><trkpt lat="39.0934367" lon="16.5265683"><ele>1137.0</ele><time>2026-03-29T16:54:17.589Z</time></trkpt><trkpt lat="39.0933317" lon="16.5265117"><ele>1137.0</ele><time>2026-03-29T16:54:18.589Z</time></trkpt><trkpt lat="39.0932317" lon="16.5264867"><ele>1136.8</ele><time>2026-03-29T16:54:19.589Z</time></trkpt><trkpt lat="39.0931333" lon="16.526465"><ele>1136.6</ele><time>2026-03-29T16:54:20.589Z</time></trkpt><trkpt lat="39.09303" lon="16.526485"><ele>1136.3999999999999</ele><time>2026-03-29T16:54:21.589Z</time></trkpt><trkpt lat="39.09294" lon="16.5265167"><ele>1136.2</ele><time>2026-03-29T16:54:22.589Z</time></trkpt><trkpt lat="39.0928567" lon="16.5265383"><ele>1136.0</ele><time>2026-03-29T16:54:23.589Z</time></trkpt><trkpt lat="39.092765" lon="16.5265717"><ele>1136.0</ele><time>2026-03-29T16:54:24.589Z</time></trkpt><trkpt lat="39.0926667" lon="16.5266067"><ele>1136.0</ele><time>2026-03-29T16:54:25.589Z</time></trkpt><trkpt lat="39.0925667" lon="16.5266483"><ele>1136.0</ele><time>2026-03-29T16:54:26.589Z</time></trkpt><trkpt lat="39.09245" lon="16.5266867"><ele>1136.0</ele><time>2026-03-29T16:54:27.589Z</time></trkpt><trkpt lat="39.0923333" lon="16.5267217"><ele>1136.0</ele><time>2026-03-29T16:54:28.589Z</time></trkpt><trkpt lat="39.0922033" lon="16.5267533"><ele>1134.5</ele><time>2026-03-29T16:54:29.589Z</time></trkpt><trkpt lat="39.0920833" lon="16.526755"><ele>1133.0</ele><time>2026-03-29T16:54:30.589Z</time></trkpt><trkpt lat="39.0919783" lon="16.5267117"><ele>1131.5</ele><time>2026-03-29T16:54:31.589Z</time></trkpt><trkpt lat="39.091885" lon="16.52664"><ele>1130.0</ele><time>2026-03-29T16:54:32.589Z</time></trkpt><trkpt lat="39.0918033" lon="16.52653"><ele>1130.0</ele><time>2026-03-29T16:54:33.589Z</time></trkpt><trkpt lat="39.0917417" lon="16.5264117"><ele>1130.0</ele><time>2026-03-29T16:54:34.589Z</time></trkpt><trkpt lat="39.0916933" lon="16.5262717"><ele>1130.0</ele><time>2026-03-29T16:54:35.589Z</time></trkpt><trkpt lat="39.0916633" lon="16.5261217"><ele>1130.0</ele><time>2026-03-29T16:54:36.589Z</time></trkpt><trkpt lat="39.0916483" lon="16.525965"><ele>1127.75</ele><time>2026-03-29T16:54:37.589Z</time></trkpt><trkpt lat="39.091655" lon="16.5257833"><ele>1125.5</ele><time>2026-03-29T16:54:38.589Z</time></trkpt><trkpt lat="39.091655" lon="16.525585"><ele>1123.25</ele><time>2026-03-29T16:54:39.589Z</time></trkpt><trkpt lat="39.09165" lon="16.525395"><ele>1121.0</ele><time>2026-03-29T16:54:40.589Z</time></trkpt><trkpt lat="39.0916433" lon="16.5252033"><ele>1118.0</ele><time>2026-03-29T16:54:41.59Z</time></trkpt><trkpt lat="39.0916367" lon="16.5250083"><ele>1115.0</ele><time>2026-03-29T16:54:42.589Z</time></trkpt><trkpt lat="39.0916317" lon="16.5248017"><ele>1112.0</ele><time>2026-03-29T16:54:43.589Z</time></trkpt><trkpt lat="39.0916317" lon="16.5245817"><ele>1110.0</ele><time>2026-03-29T16:54:44.589Z</time></trkpt><trkpt lat="39.0916267" lon="16.5243633"><ele>1108.0</ele><time>2026-03-29T16:54:45.589Z</time></trkpt><trkpt lat="39.0916183" lon="16.524135"><ele>1106.0</ele><time>2026-03-29T16:54:46.589Z</time></trkpt><trkpt lat="39.0916133" lon="16.5239017"><ele>1107.6666666666667</ele><time>2026-03-29T16:54:47.589Z</time></trkpt><trkpt lat="39.0916083" lon="16.523665"><ele>1109.3333333333333</ele><time>2026-03-29T16:54:48.589Z</time></trkpt><trkpt lat="39.0915967" lon="16.52344"><ele>1111.0</ele><time>2026-03-29T16:54:49.589Z</time></trkpt><trkpt lat="39.0915883" lon="16.52321"><ele>1110.0</ele><time>2026-03-29T16:54:50.589Z</time></trkpt><trkpt lat="39.0915833" lon="16.5229717"><ele>1109.0</ele><time>2026-03-29T16:54:51.589Z</time></trkpt><trkpt lat="39.0915783" lon="16.522725"><ele>1108.0</ele><time>2026-03-29T16:54:52.59Z</time></trkpt><trkpt lat="39.0915667" lon="16.522485"><ele>1108.0</ele><time>2026-03-29T16:54:53.589Z</time></trkpt><trkpt lat="39.0915383" lon="16.5222483"><ele>1108.0</ele><time>2026-03-29T16:54:54.59Z</time></trkpt><trkpt lat="39.0915033" lon="16.5220083"><ele>1108.0</ele><time>2026-03-29T16:54:55.589Z</time></trkpt><trkpt lat="39.0914567" lon="16.5217667"><ele>1112.0</ele><time>2026-03-29T16:54:56.589Z</time></trkpt><trkpt lat="39.0914083" lon="16.5215317"><ele>1116.0</ele><time>2026-03-29T16:54:57.589Z</time></trkpt><trkpt lat="39.09136" lon="16.5212883"><ele>1120.0</ele><time>2026-03-29T16:54:58.589Z</time></trkpt><trkpt lat="39.0913233" lon="16.5210467"><ele>1122.3333333333333</ele><time>2026-03-29T16:54:59.589Z</time></trkpt><trkpt lat="39.0912883" lon="16.5208167"><ele>1124.6666666666667</ele><time>2026-03-29T16:55:00.589Z</time></trkpt><trkpt lat="39.0912517" lon="16.5206"><ele>1127.0</ele><time>2026-03-29T16:55:01.589Z</time></trkpt><trkpt lat="39.091225" lon="16.5204033"><ele>1129.3333333333335</ele><time>2026-03-29T16:55:02.589Z</time></trkpt><trkpt lat="39.0911633" lon="16.520225"><ele>1131.6666666666667</ele><time>2026-03-29T16:55:03.589Z</time></trkpt><trkpt lat="39.091075" lon="16.5200367"><ele>1134.0</ele><time>2026-03-29T16:55:04.589Z</time></trkpt><trkpt lat="39.0909783" lon="16.5198883"><ele>1134.0</ele><time>2026-03-29T16:55:05.59Z</time></trkpt><trkpt lat="39.09087" lon="16.5197467"><ele>1134.0</ele><time>2026-03-29T16:55:06.59Z</time></trkpt><trkpt lat="39.090755" lon="16.5196167"><ele>1134.0</ele><time>2026-03-29T16:55:07.59Z</time></trkpt><trkpt lat="39.0906467" lon="16.519485"><ele>1138.25</ele><time>2026-03-29T16:55:08.59Z</time></trkpt><trkpt lat="39.09056" lon="16.5193517"><ele>1142.5</ele><time>2026-03-29T16:55:09.59Z</time></trkpt><trkpt lat="39.0904933" lon="16.5192067"><ele>1146.75</ele><time>2026-03-29T16:55:10.59Z</time></trkpt><trkpt lat="39.0904567" lon="16.5190533"><ele>1151.0</ele><time>2026-03-29T16:55:11.59Z</time></trkpt><trkpt lat="39.0904367" lon="16.5188883"><ele>1154.25</ele><time>2026-03-29T16:55:12.59Z</time></trkpt><trkpt lat="39.0904417" lon="16.5187233"><ele>1157.5</ele><time>2026-03-29T16:55:13.59Z</time></trkpt><trkpt lat="39.0904833" lon="16.5185733"><ele>1160.75</ele><time>2026-03-29T16:55:14.59Z</time></trkpt><trkpt lat="39.0905267" lon="16.5184117"><ele>1164.0</ele><time>2026-03-29T16:55:15.59Z</time></trkpt><trkpt lat="39.0905883" lon="16.518245"><ele>1164.0</ele><time>2026-03-29T16:55:16.59Z</time></trkpt><trkpt lat="39.0906617" lon="16.5180833"><ele>1164.0</ele><time>2026-03-29T16:55:17.59Z</time></trkpt><trkpt lat="39.0907383" lon="16.5179133"><ele>1164.0</ele><time>2026-03-29T16:55:18.59Z</time></trkpt><trkpt lat="39.0908" lon="16.5177333"><ele>1159.3333333333333</ele><time>2026-03-29T16:55:19.59Z</time></trkpt><trkpt lat="39.0908383" lon="16.5175417"><ele>1154.6666666666665</ele><time>2026-03-29T16:55:20.59Z</time></trkpt><trkpt lat="39.0908583" lon="16.517335"><ele>1150.0</ele><time>2026-03-29T16:55:21.59Z</time></trkpt><trkpt lat="39.090855" lon="16.5171133"><ele>1149.0</ele><time>2026-03-29T16:55:22.59Z</time></trkpt><trkpt lat="39.0908383" lon="16.516875"><ele>1148.0</ele><time>2026-03-29T16:55:23.59Z</time></trkpt><trkpt lat="39.0908283" lon="16.5166417"><ele>1147.0</ele><time>2026-03-29T16:55:24.59Z</time></trkpt><trkpt lat="39.0908133" lon="16.516415"><ele>1149.0</ele><time>2026-03-29T16:55:25.59Z</time></trkpt><trkpt lat="39.0907917" lon="16.5162"><ele>1151.0</ele><time>2026-03-29T16:55:26.59Z</time></trkpt><trkpt lat="39.0907683" lon="16.5160133"><ele>1153.0</ele><time>2026-03-29T16:55:27.59Z</time></trkpt><trkpt lat="39.0907417" lon="16.515855"><ele>1155.0</ele><time>2026-03-29T16:55:28.59Z</time></trkpt><trkpt lat="39.090695" lon="16.5156867"><ele>1153.6666666666667</ele><time>2026-03-29T16:55:29.59Z</time></trkpt><trkpt lat="39.0906217" lon="16.5155233"><ele>1152.3333333333335</ele><time>2026-03-29T16:55:30.59Z</time></trkpt><trkpt lat="39.0905233" lon="16.51535"><ele>1151.0</ele><time>2026-03-29T16:55:31.59Z</time></trkpt><trkpt lat="39.090385" lon="16.5151817"><ele>1151.0</ele><time>2026-03-29T16:55:32.59Z</time></trkpt><trkpt lat="39.0902217" lon="16.51504"><ele>1151.0</ele><time>2026-03-29T16:55:33.59Z</time></trkpt><trkpt lat="39.09007" lon="16.5148867"><ele>1151.0</ele><time>2026-03-29T16:55:34.59Z</time></trkpt><trkpt lat="39.0899" lon="16.5147183"><ele>1148.3333333333335</ele><time>2026-03-29T16:55:35.59Z</time></trkpt><trkpt lat="39.0897317" lon="16.5145467"><ele>1145.6666666666667</ele><time>2026-03-29T16:55:36.59Z</time></trkpt><trkpt lat="39.08956" lon="16.5143617"><ele>1143.0</ele><time>2026-03-29T16:55:37.59Z</time></trkpt><trkpt lat="39.0893767" lon="16.5141617"><ele>1143.0</ele><time>2026-03-29T16:55:38.59Z</time></trkpt><trkpt lat="39.08919" lon="16.5139583"><ele>1143.0</ele><time>2026-03-29T16:55:39.59Z</time></trkpt><trkpt lat="39.0889933" lon="16.5137667"><ele>1135.5</ele><time>2026-03-29T16:55:40.59Z</time></trkpt><trkpt lat="39.0887983" lon="16.5135917"><ele>1128.0</ele><time>2026-03-29T16:55:41.59Z</time></trkpt><trkpt lat="39.0886133" lon="16.5134067"><ele>1128.0</ele><time>2026-03-29T16:55:42.59Z</time></trkpt><trkpt lat="39.088435" lon="16.5132267"><ele>1128.0</ele><time>2026-03-29T16:55:43.59Z</time></trkpt><trkpt lat="39.088265" lon="16.5130517"><ele>1128.0</ele><time>2026-03-29T16:55:44.59Z</time></trkpt><trkpt lat="39.0880967" lon="16.5128733"><ele>1125.0</ele><time>2026-03-29T16:55:45.59Z</time></trkpt><trkpt lat="39.087925" lon="16.51269"><ele>1122.0</ele><time>2026-03-29T16:55:46.59Z</time></trkpt><trkpt lat="39.0877433" lon="16.5125167"><ele>1119.0</ele><time>2026-03-29T16:55:47.59Z</time></trkpt><trkpt lat="39.0875783" lon="16.5123367"><ele>1117.6666666666667</ele><time>2026-03-29T16:55:48.59Z</time></trkpt><trkpt lat="39.08741" lon="16.5121567"><ele>1116.3333333333335</ele><time>2026-03-29T16:55:49.59Z</time></trkpt><trkpt lat="39.0872517" lon="16.51197"><ele>1115.0</ele><time>2026-03-29T16:55:50.59Z</time></trkpt><trkpt lat="39.0870783" lon="16.5117883"><ele>1113.0</ele><time>2026-03-29T16:55:51.59Z</time></trkpt><trkpt lat="39.086895" lon="16.511605"><ele>1111.0</ele><time>2026-03-29T16:55:52.59Z</time></trkpt><trkpt lat="39.08671" lon="16.5114183"><ele>1110.5</ele><time>2026-03-29T16:55:53.59Z</time></trkpt><trkpt lat="39.086515" lon="16.5112367"><ele>1110.0</ele><time>2026-03-29T16:55:54.59Z</time></trkpt><trkpt lat="39.0863167" lon="16.5110467"><ele>1110.0</ele><time>2026-03-29T16:55:55.59Z</time></trkpt><trkpt lat="39.08612" lon="16.510835"><ele>1110.0</ele><time>2026-03-29T16:55:56.59Z</time></trkpt><trkpt lat="39.0859167" lon="16.5106433"><ele>1108.5</ele><time>2026-03-29T16:55:57.59Z</time></trkpt><trkpt lat="39.0857167" lon="16.5104433"><ele>1107.0</ele><time>2026-03-29T16:55:58.59Z</time></trkpt><trkpt lat="39.0855333" lon="16.5102383"><ele>1107.0</ele><time>2026-03-29T16:55:59.591Z</time></trkpt><trkpt lat="39.085345" lon="16.5100417"><ele>1107.0</ele><time>2026-03-29T16:56:00.59Z</time></trkpt><trkpt lat="39.085145" lon="16.50986"><ele>1107.0</ele><time>2026-03-29T16:56:01.59Z</time></trkpt><trkpt lat="39.0849517" lon="16.5096883"><ele>1107.0</ele><time>2026-03-29T16:56:02.59Z</time></trkpt><trkpt lat="39.08475" lon="16.5095183"><ele>1104.5</ele><time>2026-03-29T16:56:03.59Z</time></trkpt><trkpt lat="39.0845367" lon="16.5093333"><ele>1102.0</ele><time>2026-03-29T16:56:04.59Z</time></trkpt><trkpt lat="39.0843317" lon="16.5091583"><ele>1102.0</ele><time>2026-03-29T16:56:05.59Z</time></trkpt><trkpt lat="39.0841483" lon="16.5089867"><ele>1102.0</ele><time>2026-03-29T16:56:06.59Z</time></trkpt><trkpt lat="39.0839583" lon="16.50883"><ele>1097.6666666666665</ele><time>2026-03-29T16:56:07.59Z</time></trkpt><trkpt lat="39.0837667" lon="16.5087033"><ele>1093.3333333333333</ele><time>2026-03-29T16:56:08.59Z</time></trkpt><trkpt lat="39.083575" lon="16.508565"><ele>1089.0</ele><time>2026-03-29T16:56:09.59Z</time></trkpt><trkpt lat="39.083405" lon="16.5084283"><ele>1087.3333333333333</ele><time>2026-03-29T16:56:10.59Z</time></trkpt><trkpt lat="39.0832367" lon="16.5083117"><ele>1085.6666666666665</ele><time>2026-03-29T16:56:11.59Z</time></trkpt><trkpt lat="39.0830767" lon="16.5082117"><ele>1084.0</ele><time>2026-03-29T16:56:12.59Z</time></trkpt><trkpt lat="39.0829083" lon="16.5081217"><ele>1084.0</ele><time>2026-03-29T16:56:13.59Z</time></trkpt><trkpt lat="39.082735" lon="16.508065"><ele>1084.0</ele><time>2026-03-29T16:56:14.59Z</time></trkpt><trkpt lat="39.08256" lon="16.5080217"><ele>1084.0</ele><time>2026-03-29T16:56:15.59Z</time></trkpt><trkpt lat="39.0823833" lon="16.508"><ele>1083.0</ele><time>2026-03-29T16:56:16.59Z</time></trkpt><trkpt lat="39.0822017" lon="16.5080067"><ele>1082.0</ele><time>2026-03-29T16:56:17.59Z</time></trkpt><trkpt lat="39.0820083" lon="16.5080333"><ele>1081.0</ele><time>2026-03-29T16:56:18.59Z</time></trkpt><trkpt lat="39.0818083" lon="16.5080717"><ele>1080.3333333333333</ele><time>2026-03-29T16:56:19.59Z</time></trkpt><trkpt lat="39.081595" lon="16.5081233"><ele>1079.6666666666667</ele><time>2026-03-29T16:56:20.59Z</time></trkpt><trkpt lat="39.0813717" lon="16.5081767"><ele>1079.0</ele><time>2026-03-29T16:56:21.59Z</time></trkpt><trkpt lat="39.0811417" lon="16.508235"><ele>1079.0</ele><time>2026-03-29T16:56:22.59Z</time></trkpt><trkpt lat="39.0808983" lon="16.5082983"><ele>1079.0</ele><time>2026-03-29T16:56:23.59Z</time></trkpt><trkpt lat="39.0806467" lon="16.508355"><ele>1078.0</ele><time>2026-03-29T16:56:24.59Z</time></trkpt><trkpt lat="39.0803833" lon="16.5084083"><ele>1077.0</ele><time>2026-03-29T16:56:25.59Z</time></trkpt><trkpt lat="39.0801267" lon="16.50846"><ele>1076.0</ele><time>2026-03-29T16:56:26.59Z</time></trkpt><trkpt lat="39.07988" lon="16.5085067"><ele>1075.0</ele><time>2026-03-29T16:56:27.59Z</time></trkpt><trkpt lat="39.0796517" lon="16.508555"><ele>1075.0</ele><time>2026-03-29T16:56:28.59Z</time></trkpt><trkpt lat="39.0794267" lon="16.5086033"><ele>1075.0</ele><time>2026-03-29T16:56:29.59Z</time></trkpt><trkpt lat="39.0792167" lon="16.5086583"><ele>1075.0</ele><time>2026-03-29T16:56:30.59Z</time></trkpt><trkpt lat="39.079025" lon="16.5087133"><ele>1074.3333333333333</ele><time>2026-03-29T16:56:31.59Z</time></trkpt><trkpt lat="39.0788583" lon="16.5087917"><ele>1073.6666666666667</ele><time>2026-03-29T16:56:32.591Z</time></trkpt><trkpt lat="39.0786817" lon="16.5088717"><ele>1073.0</ele><time>2026-03-29T16:56:33.591Z</time></trkpt><trkpt lat="39.07851" lon="16.5089733"><ele>1073.0</ele><time>2026-03-29T16:56:34.59Z</time></trkpt><trkpt lat="39.078345" lon="16.5091117"><ele>1073.0</ele><time>2026-03-29T16:56:35.59Z</time></trkpt><trkpt lat="39.0781783" lon="16.5092517"><ele>1073.0</ele><time>2026-03-29T16:56:36.59Z</time></trkpt><trkpt lat="39.0780117" lon="16.5094067"><ele>1072.0</ele><time>2026-03-29T16:56:37.59Z</time></trkpt><trkpt lat="39.0778317" lon="16.5095567"><ele>1071.0</ele><time>2026-03-29T16:56:38.59Z</time></trkpt><trkpt lat="39.0776533" lon="16.5097183"><ele>1070.0</ele><time>2026-03-29T16:56:39.59Z</time></trkpt><trkpt lat="39.07747" lon="16.5098817"><ele>1071.0</ele><time>2026-03-29T16:56:40.59Z</time></trkpt><trkpt lat="39.0772867" lon="16.51004"><ele>1072.0</ele><time>2026-03-29T16:56:41.59Z</time></trkpt><trkpt lat="39.077095" lon="16.510195"><ele>1073.0</ele><time>2026-03-29T16:56:42.59Z</time></trkpt><trkpt lat="39.0769033" lon="16.51036"><ele>1070.5</ele><time>2026-03-29T16:56:43.59Z</time></trkpt><trkpt lat="39.0766983" lon="16.510535"><ele>1068.0</ele><time>2026-03-29T16:56:44.59Z</time></trkpt><trkpt lat="39.0764833" lon="16.5106983"><ele>1068.0</ele><time>2026-03-29T16:56:45.59Z</time></trkpt><trkpt lat="39.0762733" lon="16.5108683"><ele>1068.0</ele><time>2026-03-29T16:56:46.59Z</time></trkpt><trkpt lat="39.07606" lon="16.5110467"><ele>1068.0</ele><time>2026-03-29T16:56:47.59Z</time></trkpt><trkpt lat="39.0758633" lon="16.5112033"><ele>1068.0</ele><time>2026-03-29T16:56:48.59Z</time></trkpt><trkpt lat="39.0756483" lon="16.511365"><ele>1068.0</ele><time>2026-03-29T16:56:49.59Z</time></trkpt><trkpt lat="39.0754683" lon="16.5115167"><ele>1068.0</ele><time>2026-03-29T16:56:50.59Z</time></trkpt><trkpt lat="39.0753083" lon="16.5116683"><ele>1068.0</ele><time>2026-03-29T16:56:51.59Z</time></trkpt><trkpt lat="39.0751433" lon="16.5118367"><ele>1068.0</ele><time>2026-03-29T16:56:52.59Z</time></trkpt><trkpt lat="39.0749917" lon="16.5120167"><ele>1068.0</ele><time>2026-03-29T16:56:53.59Z</time></trkpt><trkpt lat="39.0748617" lon="16.5122167"><ele>1068.0</ele><time>2026-03-29T16:56:54.59Z</time></trkpt><trkpt lat="39.0747317" lon="16.512415"><ele>1067.3333333333333</ele><time>2026-03-29T16:56:55.59Z</time></trkpt><trkpt lat="39.0746217" lon="16.5126267"><ele>1066.6666666666665</ele><time>2026-03-29T16:56:56.59Z</time></trkpt><trkpt lat="39.0745033" lon="16.51284"><ele>1066.0</ele><time>2026-03-29T16:56:57.59Z</time></trkpt><trkpt lat="39.0744" lon="16.5130533"><ele>1066.0</ele><time>2026-03-29T16:56:58.59Z</time></trkpt><trkpt lat="39.0743017" lon="16.5132333"><ele>1066.0</ele><time>2026-03-29T16:56:59.59Z</time></trkpt><trkpt lat="39.0741917" lon="16.5133933"><ele>1066.0</ele><time>2026-03-29T16:57:00.59Z</time></trkpt><trkpt lat="39.0740917" lon="16.5135417"><ele>1065.0</ele><time>2026-03-29T16:57:01.59Z</time></trkpt><trkpt lat="39.074" lon="16.513655"><ele>1064.0</ele><time>2026-03-29T16:57:02.59Z</time></trkpt><trkpt lat="39.0738933" lon="16.5137567"><ele>1063.0</ele><time>2026-03-29T16:57:03.59Z</time></trkpt><trkpt lat="39.0737517" lon="16.513835"><ele>1062.0</ele><time>2026-03-29T16:57:04.59Z</time></trkpt><trkpt lat="39.0736" lon="16.5138967"><ele>1064.6666666666667</ele><time>2026-03-29T16:57:05.59Z</time></trkpt><trkpt lat="39.0734167" lon="16.5139467"><ele>1067.3333333333335</ele><time>2026-03-29T16:57:06.59Z</time></trkpt><trkpt lat="39.0732933" lon="16.5139333"><ele>1070.0</ele><time>2026-03-29T16:57:07.59Z</time></trkpt><trkpt lat="39.0731367" lon="16.5139733"><ele>1070.0</ele><time>2026-03-29T16:57:08.59Z</time></trkpt><trkpt lat="39.0729833" lon="16.5140133"><ele>1070.0</ele><time>2026-03-29T16:57:09.59Z</time></trkpt><trkpt lat="39.0728233" lon="16.5140933"><ele>1070.0</ele><time>2026-03-29T16:57:10.59Z</time></trkpt><trkpt lat="39.0726617" lon="16.514185"><ele>1070.0</ele><time>2026-03-29T16:57:11.59Z</time></trkpt><trkpt lat="39.0725067" lon="16.51426"><ele>1070.0</ele><time>2026-03-29T16:57:12.59Z</time></trkpt><trkpt lat="39.07235" lon="16.5143317"><ele>1070.0</ele><time>2026-03-29T16:57:13.59Z</time></trkpt><trkpt lat="39.0721917" lon="16.5143867"><ele>1068.3333333333335</ele><time>2026-03-29T16:57:14.59Z</time></trkpt><trkpt lat="39.0720533" lon="16.5144367"><ele>1066.6666666666667</ele><time>2026-03-29T16:57:15.59Z</time></trkpt><trkpt lat="39.0718917" lon="16.5144867"><ele>1065.0</ele><time>2026-03-29T16:57:16.59Z</time></trkpt><trkpt lat="39.071745" lon="16.514525"><ele>1064.0</ele><time>2026-03-29T16:57:17.59Z</time></trkpt><trkpt lat="39.07159" lon="16.5145383"><ele>1063.0</ele><time>2026-03-29T16:57:18.59Z</time></trkpt><trkpt lat="39.0714267" lon="16.5145333"><ele>1062.0</ele><time>2026-03-29T16:57:19.59Z</time></trkpt><trkpt lat="39.071265" lon="16.5145217"><ele>1062.0</ele><time>2026-03-29T16:57:20.59Z</time></trkpt><trkpt lat="39.07111" lon="16.5145133"><ele>1062.0</ele><time>2026-03-29T16:57:21.59Z</time></trkpt><trkpt lat="39.0709733" lon="16.5145217"><ele>1062.0</ele><time>2026-03-29T16:57:22.59Z</time></trkpt><trkpt lat="39.07084" lon="16.5145383"><ele>1062.0</ele><time>2026-03-29T16:57:23.59Z</time></trkpt><trkpt lat="39.07072" lon="16.51457"><ele>1063.5</ele><time>2026-03-29T16:57:24.59Z</time></trkpt><trkpt lat="39.0706117" lon="16.51467"><ele>1065.0</ele><time>2026-03-29T16:57:25.59Z</time></trkpt><trkpt lat="39.0705067" lon="16.5147483"><ele>1066.5</ele><time>2026-03-29T16:57:26.59Z</time></trkpt><trkpt lat="39.0704167" lon="16.5148517"><ele>1068.0</ele><time>2026-03-29T16:57:27.59Z</time></trkpt><trkpt lat="39.07032" lon="16.514935"><ele>1068.0</ele><time>2026-03-29T16:57:28.59Z</time></trkpt><trkpt lat="39.070235" lon="16.515015"><ele>1068.0</ele><time>2026-03-29T16:57:29.59Z</time></trkpt><trkpt lat="39.0701367" lon="16.5150883"><ele>1068.0</ele><time>2026-03-29T16:57:30.59Z</time></trkpt><trkpt lat="39.07003" lon="16.5151117"><ele>1068.0</ele><time>2026-03-29T16:57:31.59Z</time></trkpt><trkpt lat="39.0699217" lon="16.5151333"><ele>1068.0</ele><time>2026-03-29T16:57:32.59Z</time></trkpt><trkpt lat="39.0698117" lon="16.5151167"><ele>1070.75</ele><time>2026-03-29T16:57:33.59Z</time></trkpt><trkpt lat="39.0697083" lon="16.5150817"><ele>1073.5</ele><time>2026-03-29T16:57:34.59Z</time></trkpt><trkpt lat="39.06959" lon="16.51503"><ele>1076.25</ele><time>2026-03-29T16:57:35.59Z</time></trkpt><trkpt lat="39.069475" lon="16.5149817"><ele>1079.0</ele><time>2026-03-29T16:57:36.59Z</time></trkpt><trkpt lat="39.0693517" lon="16.514925"><ele>1079.0</ele><time>2026-03-29T16:57:37.59Z</time></trkpt><trkpt lat="39.069235" lon="16.5148733"><ele>1079.0</ele><time>2026-03-29T16:57:38.59Z</time></trkpt><trkpt lat="39.0691333" lon="16.5148333"><ele>1079.0</ele><time>2026-03-29T16:57:39.59Z</time></trkpt><trkpt lat="39.069035" lon="16.5147883"><ele>1079.0</ele><time>2026-03-29T16:57:40.59Z</time></trkpt><trkpt lat="39.068935" lon="16.5147433"><ele>1079.0</ele><time>2026-03-29T16:57:41.59Z</time></trkpt><trkpt lat="39.0688333" lon="16.514725"><ele>1078.0</ele><time>2026-03-29T16:57:42.59Z</time></trkpt><trkpt lat="39.06872" lon="16.5147133"><ele>1077.0</ele><time>2026-03-29T16:57:43.59Z</time></trkpt><trkpt lat="39.0686067" lon="16.5147233"><ele>1076.0</ele><time>2026-03-29T16:57:44.59Z</time></trkpt><trkpt lat="39.0684817" lon="16.514735"><ele>1075.0</ele><time>2026-03-29T16:57:45.59Z</time></trkpt><trkpt lat="39.0683417" lon="16.5147483"><ele>1073.0</ele><time>2026-03-29T16:57:46.59Z</time></trkpt><trkpt lat="39.0682217" lon="16.514795"><ele>1071.0</ele><time>2026-03-29T16:57:47.59Z</time></trkpt><trkpt lat="39.0681" lon="16.5148267"><ele>1069.0</ele><time>2026-03-29T16:57:48.59Z</time></trkpt><trkpt lat="39.067965" lon="16.51489"><ele>1067.0</ele><time>2026-03-29T16:57:49.59Z</time></trkpt><trkpt lat="39.0678483" lon="16.5149417"><ele>1067.0</ele><time>2026-03-29T16:57:50.59Z</time></trkpt><trkpt lat="39.06774" lon="16.5150167"><ele>1067.0</ele><time>2026-03-29T16:57:51.59Z</time></trkpt><trkpt lat="39.0676283" lon="16.5150933"><ele>1067.0</ele><time>2026-03-29T16:57:52.59Z</time></trkpt><trkpt lat="39.0675117" lon="16.515185"><ele>1067.0</ele><time>2026-03-29T16:57:53.59Z</time></trkpt><trkpt lat="39.06737" lon="16.5152767"><ele>1064.75</ele><time>2026-03-29T16:57:54.59Z</time></trkpt><trkpt lat="39.0672533" lon="16.5153533"><ele>1062.5</ele><time>2026-03-29T16:57:55.59Z</time></trkpt><trkpt lat="39.06712" lon="16.5154467"><ele>1060.25</ele><time>2026-03-29T16:57:56.59Z</time></trkpt><trkpt lat="39.0669883" lon="16.5155367"><ele>1058.0</ele><time>2026-03-29T16:57:57.59Z</time></trkpt><trkpt lat="39.0668567" lon="16.5156217"><ele>1062.75</ele><time>2026-03-29T16:57:58.59Z</time></trkpt><trkpt lat="39.0667183" lon="16.5156967"><ele>1067.5</ele><time>2026-03-29T16:57:59.59Z</time></trkpt><trkpt lat="39.066575" lon="16.51576"><ele>1072.25</ele><time>2026-03-29T16:58:00.59Z</time></trkpt><trkpt lat="39.066435" lon="16.5158183"><ele>1077.0</ele><time>2026-03-29T16:58:01.59Z</time></trkpt><trkpt lat="39.06627" lon="16.515855"><ele>1077.0</ele><time>2026-03-29T16:58:02.59Z</time></trkpt><trkpt lat="39.066105" lon="16.51589"><ele>1077.0</ele><time>2026-03-29T16:58:03.59Z</time></trkpt><trkpt lat="39.0659433" lon="16.5159067"><ele>1077.0</ele><time>2026-03-29T16:58:04.59Z</time></trkpt><trkpt lat="39.06577" lon="16.515925"><ele>1073.3333333333333</ele><time>2026-03-29T16:58:05.591Z</time></trkpt><trkpt lat="39.0655967" lon="16.5159683"><ele>1069.6666666666665</ele><time>2026-03-29T16:58:06.59Z</time></trkpt><trkpt lat="39.065435" lon="16.5160117"><ele>1066.0</ele><time>2026-03-29T16:58:07.59Z</time></trkpt><trkpt lat="39.0652817" lon="16.51604"><ele>1066.0</ele><time>2026-03-29T16:58:08.59Z</time></trkpt><trkpt lat="39.065125" lon="16.51605"><ele>1066.0</ele><time>2026-03-29T16:58:09.59Z</time></trkpt><trkpt lat="39.06502" lon="16.5161333"><ele>1066.0</ele><time>2026-03-29T16:58:10.59Z</time></trkpt><trkpt lat="39.064945" lon="16.5162417"><ele>1066.0</ele><time>2026-03-29T16:58:11.59Z</time></trkpt><trkpt lat="39.064925" lon="16.516425"><ele>1069.5</ele><time>2026-03-29T16:58:12.59Z</time></trkpt><trkpt lat="39.0649117" lon="16.5165817"><ele>1073.0</ele><time>2026-03-29T16:58:13.59Z</time></trkpt><trkpt lat="39.0649133" lon="16.516735"><ele>1076.5</ele><time>2026-03-29T16:58:14.59Z</time></trkpt><trkpt lat="39.0649483" lon="16.5169"><ele>1080.0</ele><time>2026-03-29T16:58:15.59Z</time></trkpt><trkpt lat="39.064985" lon="16.5170783"><ele>1080.75</ele><time>2026-03-29T16:58:16.59Z</time></trkpt><trkpt lat="39.0650117" lon="16.5172617"><ele>1081.5</ele><time>2026-03-29T16:58:17.59Z</time></trkpt><trkpt lat="39.0650417" lon="16.517445"><ele>1082.25</ele><time>2026-03-29T16:58:18.59Z</time></trkpt><trkpt lat="39.0650183" lon="16.517605"><ele>1083.0</ele><time>2026-03-29T16:58:19.591Z</time></trkpt><trkpt lat="39.0649283" lon="16.5177467"><ele>1078.6666666666667</ele><time>2026-03-29T16:58:20.59Z</time></trkpt><trkpt lat="39.0648267" lon="16.5179333"><ele>1074.3333333333335</ele><time>2026-03-29T16:58:21.59Z</time></trkpt><trkpt lat="39.0647067" lon="16.5181483"><ele>1070.0</ele><time>2026-03-29T16:58:22.59Z</time></trkpt><trkpt lat="39.0645917" lon="16.518345"><ele>1070.0</ele><time>2026-03-29T16:58:23.59Z</time></trkpt><trkpt lat="39.06445" lon="16.518505"><ele>1070.0</ele><time>2026-03-29T16:58:24.59Z</time></trkpt><trkpt lat="39.064345" lon="16.5186467"><ele>1070.0</ele><time>2026-03-29T16:58:25.59Z</time></trkpt><trkpt lat="39.0642383" lon="16.518675"><ele>1070.0</ele><time>2026-03-29T16:58:26.59Z</time></trkpt><trkpt lat="39.0641383" lon="16.5186683"><ele>1068.6</ele><time>2026-03-29T16:58:27.59Z</time></trkpt><trkpt lat="39.0640333" lon="16.518695"><ele>1067.2</ele><time>2026-03-29T16:58:28.59Z</time></trkpt><trkpt lat="39.0639217" lon="16.5187183"><ele>1065.8</ele><time>2026-03-29T16:58:29.59Z</time></trkpt><trkpt lat="39.0638217" lon="16.5187133"><ele>1064.4</ele><time>2026-03-29T16:58:30.591Z</time></trkpt><trkpt lat="39.06372" lon="16.5186633"><ele>1063.0</ele><time>2026-03-29T16:58:31.59Z</time></trkpt><trkpt lat="39.0636017" lon="16.5186067"><ele>1063.0</ele><time>2026-03-29T16:58:32.591Z</time></trkpt><trkpt lat="39.0634867" lon="16.5185467"><ele>1063.0</ele><time>2026-03-29T16:58:33.59Z</time></trkpt><trkpt lat="39.063375" lon="16.5185133"><ele>1063.0</ele><time>2026-03-29T16:58:34.59Z</time></trkpt><trkpt lat="39.063265" lon="16.5185"><ele>1063.0</ele><time>2026-03-29T16:58:35.59Z</time></trkpt><trkpt lat="39.0631533" lon="16.51851"><ele>1064.0</ele><time>2026-03-29T16:58:36.59Z</time></trkpt><trkpt lat="39.063045" lon="16.5185367"><ele>1065.0</ele><time>2026-03-29T16:58:37.59Z</time></trkpt><trkpt lat="39.0629383" lon="16.51858"><ele>1066.0</ele><time>2026-03-29T16:58:38.59Z</time></trkpt><trkpt lat="39.0628483" lon="16.5186567"><ele>1067.0</ele><time>2026-03-29T16:58:39.59Z</time></trkpt><trkpt lat="39.0627617" lon="16.5187483"><ele>1068.0</ele><time>2026-03-29T16:58:40.59Z</time></trkpt><trkpt lat="39.0626967" lon="16.518875"><ele>1068.0</ele><time>2026-03-29T16:58:41.591Z</time></trkpt><trkpt lat="39.0626433" lon="16.5190283"><ele>1068.0</ele><time>2026-03-29T16:58:42.591Z</time></trkpt><trkpt lat="39.0625867" lon="16.5191867"><ele>1068.0</ele><time>2026-03-29T16:58:43.59Z</time></trkpt><trkpt lat="39.062525" lon="16.5193333"><ele>1068.0</ele><time>2026-03-29T16:58:44.59Z</time></trkpt><trkpt lat="39.062445" lon="16.5194533"><ele>1066.0</ele><time>2026-03-29T16:58:45.59Z</time></trkpt><trkpt lat="39.06236" lon="16.5195467"><ele>1064.0</ele><time>2026-03-29T16:58:46.59Z</time></trkpt><trkpt lat="39.0622617" lon="16.51962"><ele>1062.0</ele><time>2026-03-29T16:58:47.59Z</time></trkpt><trkpt lat="39.0621533" lon="16.5196467"><ele>1060.0</ele><time>2026-03-29T16:58:48.59Z</time></trkpt><trkpt lat="39.0620383" lon="16.51964"><ele>1060.0</ele><time>2026-03-29T16:58:49.59Z</time></trkpt><trkpt lat="39.0619017" lon="16.5196083"><ele>1060.0</ele><time>2026-03-29T16:58:50.59Z</time></trkpt><trkpt lat="39.0617483" lon="16.519555"><ele>1060.0</ele><time>2026-03-29T16:58:51.59Z</time></trkpt><trkpt lat="39.06159" lon="16.5194567"><ele>1066.0</ele><time>2026-03-29T16:58:52.59Z</time></trkpt><trkpt lat="39.0614067" lon="16.519325"><ele>1072.0</ele><time>2026-03-29T16:58:53.59Z</time></trkpt><trkpt lat="39.0612083" lon="16.5191783"><ele>1078.0</ele><time>2026-03-29T16:58:54.59Z</time></trkpt><trkpt lat="39.0610017" lon="16.5190217"><ele>1078.0</ele><time>2026-03-29T16:58:55.59Z</time></trkpt><trkpt lat="39.0608033" lon="16.5188733"><ele>1078.0</ele><time>2026-03-29T16:58:56.59Z</time></trkpt><trkpt lat="39.0606233" lon="16.518745"><ele>1078.0</ele><time>2026-03-29T16:58:57.59Z</time></trkpt><trkpt lat="39.0604733" lon="16.51862"><ele>1079.3333333333333</ele><time>2026-03-29T16:58:58.59Z</time></trkpt><trkpt lat="39.0603267" lon="16.518475"><ele>1080.6666666666667</ele><time>2026-03-29T16:58:59.59Z</time></trkpt><trkpt lat="39.060195" lon="16.5182967"><ele>1082.0</ele><time>2026-03-29T16:59:00.59Z</time></trkpt><trkpt lat="39.0601" lon="16.5180867"><ele>1079.6666666666667</ele><time>2026-03-29T16:59:01.59Z</time></trkpt><trkpt lat="39.0600133" lon="16.5178683"><ele>1077.3333333333333</ele><time>2026-03-29T16:59:02.59Z</time></trkpt><trkpt lat="39.05993" lon="16.5176583"><ele>1075.0</ele><time>2026-03-29T16:59:03.59Z</time></trkpt><trkpt lat="39.0598267" lon="16.517445"><ele>1075.0</ele><time>2026-03-29T16:59:04.59Z</time></trkpt><trkpt lat="39.0596933" lon="16.5172733"><ele>1075.0</ele><time>2026-03-29T16:59:05.59Z</time></trkpt><trkpt lat="39.05953" lon="16.5170983"><ele>1075.0</ele><time>2026-03-29T16:59:06.59Z</time></trkpt><trkpt lat="39.0593817" lon="16.51697"><ele>1061.6666666666665</ele><time>2026-03-29T16:59:07.59Z</time></trkpt><trkpt lat="39.0592367" lon="16.516895"><ele>1048.3333333333333</ele><time>2026-03-29T16:59:08.59Z</time></trkpt><trkpt lat="39.0590967" lon="16.516845"><ele>1035.0</ele><time>2026-03-29T16:59:09.59Z</time></trkpt><trkpt lat="39.058945" lon="16.516835"><ele>1032.3333333333333</ele><time>2026-03-29T16:59:10.591Z</time></trkpt><trkpt lat="39.0587967" lon="16.51689"><ele>1029.6666666666665</ele><time>2026-03-29T16:59:11.59Z</time></trkpt><trkpt lat="39.0586367" lon="16.5170117"><ele>1027.0</ele><time>2026-03-29T16:59:12.59Z</time></trkpt><trkpt lat="39.0584933" lon="16.5171383"><ele>1033.25</ele><time>2026-03-29T16:59:13.59Z</time></trkpt><trkpt lat="39.0583567" lon="16.517245"><ele>1039.5</ele><time>2026-03-29T16:59:14.59Z</time></trkpt><trkpt lat="39.0582333" lon="16.5172733"><ele>1045.75</ele><time>2026-03-29T16:59:15.59Z</time></trkpt><trkpt lat="39.058105" lon="16.51725"><ele>1052.0</ele><time>2026-03-29T16:59:16.59Z</time></trkpt><trkpt lat="39.05795" lon="16.517175"><ele>1052.0</ele><time>2026-03-29T16:59:17.59Z</time></trkpt><trkpt lat="39.057805" lon="16.517125"><ele>1052.0</ele><time>2026-03-29T16:59:18.59Z</time></trkpt><trkpt lat="39.05766" lon="16.5171217"><ele>1052.0</ele><time>2026-03-29T16:59:19.59Z</time></trkpt><trkpt lat="39.05751" lon="16.5171433"><ele>1052.0</ele><time>2026-03-29T16:59:20.59Z</time></trkpt><trkpt lat="39.0573583" lon="16.5172283"><ele>1040.6666666666667</ele><time>2026-03-29T16:59:21.59Z</time></trkpt><trkpt lat="39.0572083" lon="16.517365"><ele>1029.3333333333333</ele><time>2026-03-29T16:59:22.591Z</time></trkpt><trkpt lat="39.0570633" lon="16.5175267"><ele>1018.0</ele><time>2026-03-29T16:59:23.59Z</time></trkpt><trkpt lat="39.0569" lon="16.51771"><ele>1011.0</ele><time>2026-03-29T16:59:24.59Z</time></trkpt><trkpt lat="39.05675" lon="16.5179033"><ele>1004.0</ele><time>2026-03-29T16:59:25.59Z</time></trkpt><trkpt lat="39.0565983" lon="16.5181067"><ele>997.0</ele><time>2026-03-29T16:59:26.59Z</time></trkpt><trkpt lat="39.0564517" lon="16.5183367"><ele>997.0</ele><time>2026-03-29T16:59:27.59Z</time></trkpt><trkpt lat="39.0563083" lon="16.5185717"><ele>997.0</ele><time>2026-03-29T16:59:28.59Z</time></trkpt><trkpt lat="39.05619" lon="16.5187767"><ele>997.0</ele><time>2026-03-29T16:59:29.59Z</time></trkpt><trkpt lat="39.05608" lon="16.5189383"><ele>1002.6666666666666</ele><time>2026-03-29T16:59:30.59Z</time></trkpt><trkpt lat="39.05594" lon="16.5190433"><ele>1008.3333333333333</ele><time>2026-03-29T16:59:31.59Z</time></trkpt><trkpt lat="39.0557783" lon="16.5191433"><ele>1014.0</ele><time>2026-03-29T16:59:32.59Z</time></trkpt><trkpt lat="39.0555583" lon="16.5192233"><ele>1014.0</ele><time>2026-03-29T16:59:33.59Z</time></trkpt><trkpt lat="39.0553283" lon="16.5193033"><ele>1014.0</ele><time>2026-03-29T16:59:34.59Z</time></trkpt><trkpt lat="39.0550533" lon="16.519385"><ele>1022.0</ele><time>2026-03-29T16:59:35.59Z</time></trkpt><trkpt lat="39.05477" lon="16.51949"><ele>1030.0</ele><time>2026-03-29T16:59:36.59Z</time></trkpt><trkpt lat="39.05447" lon="16.5196133"><ele>1030.0</ele><time>2026-03-29T16:59:37.59Z</time></trkpt><trkpt lat="39.0541717" lon="16.5197367"><ele>1030.0</ele><time>2026-03-29T16:59:38.59Z</time></trkpt><trkpt lat="39.0538783" lon="16.5198667"><ele>1023.0</ele><time>2026-03-29T16:59:39.59Z</time></trkpt><trkpt lat="39.0535867" lon="16.5200017"><ele>1016.0</ele><time>2026-03-29T16:59:40.59Z</time></trkpt><trkpt lat="39.053295" lon="16.5201033"><ele>1011.0</ele><time>2026-03-29T16:59:41.59Z</time></trkpt><trkpt lat="39.0529783" lon="16.5201833"><ele>1006.0</ele><time>2026-03-29T16:59:42.59Z</time></trkpt><trkpt lat="39.0526483" lon="16.5202467"><ele>998.0</ele><time>2026-03-29T16:59:43.59Z</time></trkpt><trkpt lat="39.05231" lon="16.5203217"><ele>990.0</ele><time>2026-03-29T16:59:44.59Z</time></trkpt><trkpt lat="39.051965" lon="16.5203817"><ele>1007.0</ele><time>2026-03-29T16:59:45.59Z</time></trkpt><trkpt lat="39.0516333" lon="16.5204333"><ele>1024.0</ele><time>2026-03-29T16:59:46.59Z</time></trkpt><trkpt lat="39.05133" lon="16.5204817"><ele>1024.0</ele><time>2026-03-29T16:59:47.59Z</time></trkpt><trkpt lat="39.0510533" lon="16.5205033"><ele>1024.0</ele><time>2026-03-29T16:59:48.59Z</time></trkpt><trkpt lat="39.0507833" lon="16.52053"><ele>1020.0</ele><time>2026-03-29T16:59:49.59Z</time></trkpt><trkpt lat="39.050535" lon="16.5205467"><ele>1016.0</ele><time>2026-03-29T16:59:50.59Z</time></trkpt><trkpt lat="39.0502767" lon="16.52053"><ele>1016.0</ele><time>2026-03-29T16:59:51.59Z</time></trkpt><trkpt lat="39.0500367" lon="16.5204883"><ele>1016.0</ele><time>2026-03-29T16:59:52.59Z</time></trkpt><trkpt lat="39.0498267" lon="16.5204417"><ele>1010.3333333333334</ele><time>2026-03-29T16:59:53.59Z</time></trkpt><trkpt lat="39.0496517" lon="16.5204117"><ele>1004.6666666666667</ele><time>2026-03-29T16:59:54.591Z</time></trkpt><trkpt lat="39.0495" lon="16.5204317"><ele>999.0</ele><time>2026-03-29T16:59:55.59Z</time></trkpt><trkpt lat="39.049355" lon="16.5205133"><ele>999.0</ele><time>2026-03-29T16:59:56.59Z</time></trkpt><trkpt lat="39.0492083" lon="16.5206517"><ele>999.0</ele><time>2026-03-29T16:59:57.59Z</time></trkpt><trkpt lat="39.04905" lon="16.5208333"><ele>999.0</ele><time>2026-03-29T16:59:58.59Z</time></trkpt><trkpt lat="39.0488983" lon="16.52103"><ele>994.3333333333333</ele><time>2026-03-29T16:59:59.59Z</time></trkpt><trkpt lat="39.04874" lon="16.5212"><ele>989.6666666666666</ele><time>2026-03-29T17:00:00.59Z</time></trkpt><trkpt lat="39.04859" lon="16.52133"><ele>985.0</ele><time>2026-03-29T17:00:01.59Z</time></trkpt><trkpt lat="39.048445" lon="16.5214083"><ele>993.25</ele><time>2026-03-29T17:00:02.59Z</time></trkpt><trkpt lat="39.0482917" lon="16.5214367"><ele>1001.5</ele><time>2026-03-29T17:00:03.59Z</time></trkpt><trkpt lat="39.0481417" lon="16.5214217"><ele>1009.75</ele><time>2026-03-29T17:00:04.59Z</time></trkpt><trkpt lat="39.0480183" lon="16.521395"><ele>1018.0</ele><time>2026-03-29T17:00:05.59Z</time></trkpt><trkpt lat="39.0479083" lon="16.521345"><ele>1018.0</ele><time>2026-03-29T17:00:06.59Z</time></trkpt><trkpt lat="39.0478117" lon="16.5212717"><ele>1018.0</ele><time>2026-03-29T17:00:07.592Z</time></trkpt><trkpt lat="39.0477133" lon="16.5211883"><ele>1018.0</ele><time>2026-03-29T17:00:08.591Z</time></trkpt><trkpt lat="39.047605" lon="16.5211067"><ele>1018.0</ele><time>2026-03-29T17:00:09.591Z</time></trkpt><trkpt lat="39.0474867" lon="16.521025"><ele>1012.25</ele><time>2026-03-29T17:00:10.591Z</time></trkpt><trkpt lat="39.04736" lon="16.5209517"><ele>1006.5</ele><time>2026-03-29T17:00:11.591Z</time></trkpt><trkpt lat="39.0472217" lon="16.5208667"><ele>1000.75</ele><time>2026-03-29T17:00:12.591Z</time></trkpt><trkpt lat="39.0470883" lon="16.5207867"><ele>995.0</ele><time>2026-03-29T17:00:13.591Z</time></trkpt><trkpt lat="39.0469433" lon="16.5207067"><ele>995.0</ele><time>2026-03-29T17:00:14.591Z</time></trkpt><trkpt lat="39.0468033" lon="16.5206383"><ele>995.0</ele><time>2026-03-29T17:00:15.591Z</time></trkpt><trkpt lat="39.0466583" lon="16.5205817"><ele>995.0</ele><time>2026-03-29T17:00:16.591Z</time></trkpt><trkpt lat="39.0465133" lon="16.52056"><ele>995.0</ele><time>2026-03-29T17:00:17.591Z</time></trkpt><trkpt lat="39.046215" lon="16.5206133"><ele>991.3333333333334</ele><time>2026-03-29T17:00:19.591Z</time></trkpt><trkpt lat="39.0460633" lon="16.5206733"><ele>987.6666666666667</ele><time>2026-03-29T17:00:20.591Z</time></trkpt><trkpt lat="39.0459067" lon="16.5207283"><ele>984.0</ele><time>2026-03-29T17:00:21.591Z</time></trkpt><trkpt lat="39.0457517" lon="16.5207917"><ele>979.0</ele><time>2026-03-29T17:00:22.591Z</time></trkpt><trkpt lat="39.0455817" lon="16.52085"><ele>974.0</ele><time>2026-03-29T17:00:23.591Z</time></trkpt><trkpt lat="39.0454067" lon="16.5209067"><ele>969.0</ele><time>2026-03-29T17:00:24.591Z</time></trkpt><trkpt lat="39.0452283" lon="16.5209733"><ele>969.0</ele><time>2026-03-29T17:00:25.591Z</time></trkpt><trkpt lat="39.045045" lon="16.5210383"><ele>969.0</ele><time>2026-03-29T17:00:26.591Z</time></trkpt><trkpt lat="39.0448583" lon="16.5211"><ele>969.0</ele><time>2026-03-29T17:00:27.591Z</time></trkpt><trkpt lat="39.04467" lon="16.52116"><ele>972.3333333333333</ele><time>2026-03-29T17:00:28.591Z</time></trkpt><trkpt lat="39.04449" lon="16.5212283"><ele>975.6666666666666</ele><time>2026-03-29T17:00:29.592Z</time></trkpt><trkpt lat="39.04431" lon="16.5212967"><ele>979.0</ele><time>2026-03-29T17:00:30.591Z</time></trkpt><trkpt lat="39.0441417" lon="16.5213617"><ele>970.6666666666666</ele><time>2026-03-29T17:00:31.591Z</time></trkpt><trkpt lat="39.0439883" lon="16.521425"><ele>962.3333333333333</ele><time>2026-03-29T17:00:32.591Z</time></trkpt><trkpt lat="39.04384" lon="16.5214967"><ele>954.0</ele><time>2026-03-29T17:00:33.591Z</time></trkpt><trkpt lat="39.0437167" lon="16.5215933"><ele>954.0</ele><time>2026-03-29T17:00:34.591Z</time></trkpt><trkpt lat="39.04361" lon="16.5216917"><ele>954.0</ele><time>2026-03-29T17:00:35.591Z</time></trkpt><trkpt lat="39.0435183" lon="16.5218167"><ele>954.0</ele><time>2026-03-29T17:00:36.591Z</time></trkpt><trkpt lat="39.0434383" lon="16.5219733"><ele>954.0</ele><time>2026-03-29T17:00:37.591Z</time></trkpt><trkpt lat="39.0433833" lon="16.5221683"><ele>957.3333333333333</ele><time>2026-03-29T17:00:38.591Z</time></trkpt><trkpt lat="39.0433433" lon="16.5223767"><ele>960.6666666666666</ele><time>2026-03-29T17:00:39.591Z</time></trkpt><trkpt lat="39.0432983" lon="16.5226"><ele>964.0</ele><time>2026-03-29T17:00:40.591Z</time></trkpt><trkpt lat="39.04325" lon="16.5228133"><ele>949.3333333333333</ele><time>2026-03-29T17:00:41.591Z</time></trkpt><trkpt lat="39.0432" lon="16.5230017"><ele>934.6666666666667</ele><time>2026-03-29T17:00:42.591Z</time></trkpt><trkpt lat="39.0431783" lon="16.52319"><ele>920.0</ele><time>2026-03-29T17:00:43.591Z</time></trkpt><trkpt lat="39.04316" lon="16.5234017"><ele>920.0</ele><time>2026-03-29T17:00:44.591Z</time></trkpt><trkpt lat="39.043185" lon="16.5235933"><ele>920.0</ele><time>2026-03-29T17:00:45.591Z</time></trkpt><trkpt lat="39.0432133" lon="16.523775"><ele>920.0</ele><time>2026-03-29T17:00:46.591Z</time></trkpt><trkpt lat="39.0432233" lon="16.523945"><ele>920.0</ele><time>2026-03-29T17:00:47.591Z</time></trkpt><trkpt lat="39.0432183" lon="16.5241033"><ele>925.25</ele><time>2026-03-29T17:00:48.591Z</time></trkpt><trkpt lat="39.0431883" lon="16.52425"><ele>930.5</ele><time>2026-03-29T17:00:49.591Z</time></trkpt><trkpt lat="39.0431317" lon="16.5243883"><ele>935.75</ele><time>2026-03-29T17:00:50.591Z</time></trkpt><trkpt lat="39.0430583" lon="16.5245183"><ele>941.0</ele><time>2026-03-29T17:00:51.591Z</time></trkpt><trkpt lat="39.0429683" lon="16.524605"><ele>950.0</ele><time>2026-03-29T17:00:52.591Z</time></trkpt><trkpt lat="39.0428233" lon="16.5246467"><ele>959.0</ele><time>2026-03-29T17:00:53.591Z</time></trkpt><trkpt lat="39.0426683" lon="16.524675"><ele>968.0</ele><time>2026-03-29T17:00:54.591Z</time></trkpt><trkpt lat="39.0425" lon="16.5246933"><ele>964.0</ele><time>2026-03-29T17:00:55.591Z</time></trkpt><trkpt lat="39.0423167" lon="16.5246967"><ele>960.0</ele><time>2026-03-29T17:00:56.592Z</time></trkpt><trkpt lat="39.04212" lon="16.524705"><ele>956.0</ele><time>2026-03-29T17:00:57.591Z</time></trkpt><trkpt lat="39.0419167" lon="16.5247233"><ele>956.0</ele><time>2026-03-29T17:00:58.592Z</time></trkpt><trkpt lat="39.0417117" lon="16.5247367"><ele>956.0</ele><time>2026-03-29T17:00:59.591Z</time></trkpt><trkpt lat="39.041525" lon="16.524755"><ele>956.0</ele><time>2026-03-29T17:01:00.591Z</time></trkpt><trkpt lat="39.0413417" lon="16.5247467"><ele>951.6666666666667</ele><time>2026-03-29T17:01:01.591Z</time></trkpt><trkpt lat="39.0411633" lon="16.5247383"><ele>947.3333333333333</ele><time>2026-03-29T17:01:02.591Z</time></trkpt><trkpt lat="39.0410017" lon="16.524725"><ele>943.0</ele><time>2026-03-29T17:01:03.591Z</time></trkpt><trkpt lat="39.0408517" lon="16.5247317"><ele>935.3333333333333</ele><time>2026-03-29T17:01:04.591Z</time></trkpt><trkpt lat="39.0407133" lon="16.5247933"><ele>927.6666666666667</ele><time>2026-03-29T17:01:05.591Z</time></trkpt><trkpt lat="39.0405733" lon="16.5249"><ele>920.0</ele><time>2026-03-29T17:01:06.591Z</time></trkpt><trkpt lat="39.0404317" lon="16.5250417"><ele>920.0</ele><time>2026-03-29T17:01:07.591Z</time></trkpt><trkpt lat="39.0402967" lon="16.52523"><ele>920.0</ele><time>2026-03-29T17:01:08.591Z</time></trkpt><trkpt lat="39.0401683" lon="16.52543"><ele>920.0</ele><time>2026-03-29T17:01:09.591Z</time></trkpt><trkpt lat="39.0400433" lon="16.5256333"><ele>913.6666666666667</ele><time>2026-03-29T17:01:10.591Z</time></trkpt><trkpt lat="39.0399267" lon="16.5258283"><ele>907.3333333333333</ele><time>2026-03-29T17:01:11.591Z</time></trkpt><trkpt lat="39.039815" lon="16.5260383"><ele>901.0</ele><time>2026-03-29T17:01:12.591Z</time></trkpt><trkpt lat="39.03972" lon="16.5262733"><ele>901.0</ele><time>2026-03-29T17:01:13.591Z</time></trkpt><trkpt lat="39.03963" lon="16.5265217"><ele>901.0</ele><time>2026-03-29T17:01:14.591Z</time></trkpt><trkpt lat="39.0395467" lon="16.5267867"><ele>901.0</ele><time>2026-03-29T17:01:15.591Z</time></trkpt><trkpt lat="39.0394567" lon="16.5270367"><ele>904.6666666666666</ele><time>2026-03-29T17:01:16.591Z</time></trkpt><trkpt lat="39.0393733" lon="16.527265"><ele>908.3333333333333</ele><time>2026-03-29T17:01:17.591Z</time></trkpt><trkpt lat="39.0393033" lon="16.5274767"><ele>912.0</ele><time>2026-03-29T17:01:18.591Z</time></trkpt><trkpt lat="39.03925" lon="16.52769"><ele>911.0</ele><time>2026-03-29T17:01:19.591Z</time></trkpt><trkpt lat="39.0392283" lon="16.5279033"><ele>910.0</ele><time>2026-03-29T17:01:20.591Z</time></trkpt><trkpt lat="39.0392433" lon="16.52812"><ele>909.0</ele><time>2026-03-29T17:01:21.591Z</time></trkpt><trkpt lat="39.03929" lon="16.5283483"><ele>909.0</ele><time>2026-03-29T17:01:22.591Z</time></trkpt><trkpt lat="39.0393517" lon="16.52859"><ele>909.0</ele><time>2026-03-29T17:01:23.591Z</time></trkpt><trkpt lat="39.03942" lon="16.528815"><ele>909.0</ele><time>2026-03-29T17:01:24.591Z</time></trkpt><trkpt lat="39.0394867" lon="16.5290083"><ele>904.6666666666667</ele><time>2026-03-29T17:01:25.591Z</time></trkpt><trkpt lat="39.039565" lon="16.5291917"><ele>900.3333333333334</ele><time>2026-03-29T17:01:26.591Z</time></trkpt><trkpt lat="39.0396767" lon="16.5293733"><ele>896.0</ele><time>2026-03-29T17:01:27.591Z</time></trkpt><trkpt lat="39.0398183" lon="16.5295367"><ele>897.3333333333334</ele><time>2026-03-29T17:01:28.591Z</time></trkpt><trkpt lat="39.03999" lon="16.5296917"><ele>898.6666666666667</ele><time>2026-03-29T17:01:29.591Z</time></trkpt><trkpt lat="39.04017" lon="16.5298567"><ele>900.0</ele><time>2026-03-29T17:01:30.591Z</time></trkpt><trkpt lat="39.0403517" lon="16.5300167"><ele>900.0</ele><time>2026-03-29T17:01:31.591Z</time></trkpt><trkpt lat="39.0405033" lon="16.53017"><ele>900.0</ele><time>2026-03-29T17:01:32.591Z</time></trkpt><trkpt lat="39.0406317" lon="16.530335"><ele>900.0</ele><time>2026-03-29T17:01:33.591Z</time></trkpt><trkpt lat="39.0407417" lon="16.5305233"><ele>903.0</ele><time>2026-03-29T17:01:34.591Z</time></trkpt><trkpt lat="39.0408133" lon="16.5307367"><ele>906.0</ele><time>2026-03-29T17:01:35.591Z</time></trkpt><trkpt lat="39.0408583" lon="16.5309683"><ele>909.0</ele><time>2026-03-29T17:01:36.591Z</time></trkpt><trkpt lat="39.0408983" lon="16.531185"><ele>902.0</ele><time>2026-03-29T17:01:37.591Z</time></trkpt><trkpt lat="39.0409517" lon="16.5313767"><ele>895.0</ele><time>2026-03-29T17:01:38.591Z</time></trkpt><trkpt lat="39.0410217" lon="16.53154"><ele>888.0</ele><time>2026-03-29T17:01:39.591Z</time></trkpt><trkpt lat="39.0411117" lon="16.53168"><ele>881.0</ele><time>2026-03-29T17:01:40.591Z</time></trkpt><trkpt lat="39.041225" lon="16.5317817"><ele>881.0</ele><time>2026-03-29T17:01:41.591Z</time></trkpt><trkpt lat="39.0413583" lon="16.5318633"><ele>881.0</ele><time>2026-03-29T17:01:42.591Z</time></trkpt><trkpt lat="39.0414967" lon="16.5319217"><ele>881.0</ele><time>2026-03-29T17:01:43.591Z</time></trkpt><trkpt lat="39.041615" lon="16.5319967"><ele>881.0</ele><time>2026-03-29T17:01:44.591Z</time></trkpt><trkpt lat="39.0417033" lon="16.5320917"><ele>881.75</ele><time>2026-03-29T17:01:45.591Z</time></trkpt><trkpt lat="39.04177" lon="16.5322133"><ele>882.5</ele><time>2026-03-29T17:01:46.592Z</time></trkpt><trkpt lat="39.04181" lon="16.532355"><ele>883.25</ele><time>2026-03-29T17:01:47.591Z</time></trkpt><trkpt lat="39.0418183" lon="16.532495"><ele>884.0</ele><time>2026-03-29T17:01:48.591Z</time></trkpt><trkpt lat="39.041795" lon="16.532645"><ele>884.0</ele><time>2026-03-29T17:01:49.591Z</time></trkpt><trkpt lat="39.041745" lon="16.5327683"><ele>884.0</ele><time>2026-03-29T17:01:50.591Z</time></trkpt><trkpt lat="39.04167" lon="16.53287"><ele>884.0</ele><time>2026-03-29T17:01:51.591Z</time></trkpt><trkpt lat="39.0415633" lon="16.532955"><ele>884.0</ele><time>2026-03-29T17:01:52.591Z</time></trkpt><trkpt lat="39.0414133" lon="16.53303"><ele>888.3333333333334</ele><time>2026-03-29T17:01:53.591Z</time></trkpt><trkpt lat="39.0412533" lon="16.533095"><ele>892.6666666666667</ele><time>2026-03-29T17:01:54.591Z</time></trkpt><trkpt lat="39.0410817" lon="16.533185"><ele>897.0</ele><time>2026-03-29T17:01:55.591Z</time></trkpt><trkpt lat="39.04089" lon="16.5332817"><ele>889.5</ele><time>2026-03-29T17:01:56.591Z</time></trkpt><trkpt lat="39.04068" lon="16.5333767"><ele>882.0</ele><time>2026-03-29T17:01:57.591Z</time></trkpt><trkpt lat="39.0404583" lon="16.5334467"><ele>882.0</ele><time>2026-03-29T17:01:58.591Z</time></trkpt><trkpt lat="39.0402333" lon="16.5335183"><ele>882.0</ele><time>2026-03-29T17:01:59.591Z</time></trkpt><trkpt lat="39.0400233" lon="16.5335867"><ele>882.0</ele><time>2026-03-29T17:02:00.591Z</time></trkpt><trkpt lat="39.03984" lon="16.533645"><ele>881.5</ele><time>2026-03-29T17:02:01.591Z</time></trkpt><trkpt lat="39.0396917" lon="16.5337217"><ele>881.0</ele><time>2026-03-29T17:02:02.591Z</time></trkpt><trkpt lat="39.039575" lon="16.5338267"><ele>880.5</ele><time>2026-03-29T17:02:03.591Z</time></trkpt><trkpt lat="39.0394883" lon="16.5339467"><ele>880.0</ele><time>2026-03-29T17:02:04.591Z</time></trkpt><trkpt lat="39.0394333" lon="16.5340983"><ele>880.0</ele><time>2026-03-29T17:02:05.591Z</time></trkpt><trkpt lat="39.0394033" lon="16.5342717"><ele>880.0</ele><time>2026-03-29T17:02:06.591Z</time></trkpt><trkpt lat="39.0394017" lon="16.534475"><ele>880.0</ele><time>2026-03-29T17:02:07.591Z</time></trkpt><trkpt lat="39.0394083" lon="16.5346567"><ele>880.0</ele><time>2026-03-29T17:02:08.591Z</time></trkpt><trkpt lat="39.039405" lon="16.5348283"><ele>882.75</ele><time>2026-03-29T17:02:09.591Z</time></trkpt><trkpt lat="39.0393617" lon="16.5349917"><ele>885.5</ele><time>2026-03-29T17:02:10.591Z</time></trkpt><trkpt lat="39.0392917" lon="16.53513"><ele>888.25</ele><time>2026-03-29T17:02:11.591Z</time></trkpt><trkpt lat="39.039185" lon="16.5352217"><ele>891.0</ele><time>2026-03-29T17:02:12.591Z</time></trkpt><trkpt lat="39.039065" lon="16.535275"><ele>891.3333333333333</ele><time>2026-03-29T17:02:13.591Z</time></trkpt><trkpt lat="39.0388883" lon="16.535305"><ele>891.6666666666666</ele><time>2026-03-29T17:02:14.591Z</time></trkpt><trkpt lat="39.03871" lon="16.5353117"><ele>892.0</ele><time>2026-03-29T17:02:15.591Z</time></trkpt><trkpt lat="39.0385467" lon="16.5353033"><ele>892.0</ele><time>2026-03-29T17:02:16.591Z</time></trkpt><trkpt lat="39.0383833" lon="16.5352417"><ele>892.0</ele><time>2026-03-29T17:02:17.591Z</time></trkpt><trkpt lat="39.038225" lon="16.5351367"><ele>892.0</ele><time>2026-03-29T17:02:18.591Z</time></trkpt><trkpt lat="39.038085" lon="16.5350283"><ele>897.0</ele><time>2026-03-29T17:02:19.591Z</time></trkpt><trkpt lat="39.0379383" lon="16.5349083"><ele>902.0</ele><time>2026-03-29T17:02:20.591Z</time></trkpt><trkpt lat="39.037795" lon="16.5348083"><ele>907.0</ele><time>2026-03-29T17:02:21.591Z</time></trkpt><trkpt lat="39.037625" lon="16.5347433"><ele>909.3333333333333</ele><time>2026-03-29T17:02:22.591Z</time></trkpt><trkpt lat="39.0374367" lon="16.5347117"><ele>911.6666666666667</ele><time>2026-03-29T17:02:23.591Z</time></trkpt><trkpt lat="39.0372333" lon="16.534695"><ele>914.0</ele><time>2026-03-29T17:02:24.591Z</time></trkpt><trkpt lat="39.0370283" lon="16.53467"><ele>914.0</ele><time>2026-03-29T17:02:25.591Z</time></trkpt><trkpt lat="39.0368183" lon="16.534625"><ele>914.0</ele><time>2026-03-29T17:02:26.591Z</time></trkpt><trkpt lat="39.0366133" lon="16.5345617"><ele>914.0</ele><time>2026-03-29T17:02:27.591Z</time></trkpt><trkpt lat="39.036395" lon="16.534505"><ele>902.3333333333334</ele><time>2026-03-29T17:02:28.591Z</time></trkpt><trkpt lat="39.0361767" lon="16.534445"><ele>890.6666666666667</ele><time>2026-03-29T17:02:29.592Z</time></trkpt><trkpt lat="39.0359667" lon="16.53439"><ele>879.0</ele><time>2026-03-29T17:02:30.591Z</time></trkpt><trkpt lat="39.0357733" lon="16.534345"><ele>877.3333333333333</ele><time>2026-03-29T17:02:31.591Z</time></trkpt><trkpt lat="39.0355967" lon="16.5343167"><ele>875.6666666666666</ele><time>2026-03-29T17:02:32.591Z</time></trkpt><trkpt lat="39.035445" lon="16.5343033"><ele>874.0</ele><time>2026-03-29T17:02:33.591Z</time></trkpt><trkpt lat="39.03531" lon="16.534315"><ele>874.0</ele><time>2026-03-29T17:02:34.591Z</time></trkpt><trkpt lat="39.03517" lon="16.53436"><ele>874.0</ele><time>2026-03-29T17:02:35.591Z</time></trkpt><trkpt lat="39.0350417" lon="16.534455"><ele>874.0</ele><time>2026-03-29T17:02:36.591Z</time></trkpt><trkpt lat="39.034925" lon="16.5345783"><ele>874.0</ele><time>2026-03-29T17:02:37.591Z</time></trkpt><trkpt lat="39.034825" lon="16.534745"><ele>868.6666666666666</ele><time>2026-03-29T17:02:38.591Z</time></trkpt><trkpt lat="39.0347383" lon="16.5349417"><ele>863.3333333333333</ele><time>2026-03-29T17:02:39.591Z</time></trkpt><trkpt lat="39.0346633" lon="16.53515"><ele>858.0</ele><time>2026-03-29T17:02:40.591Z</time></trkpt><trkpt lat="39.0345933" lon="16.5353633"><ele>863.3333333333333</ele><time>2026-03-29T17:02:41.591Z</time></trkpt><trkpt lat="39.0345217" lon="16.5355683"><ele>868.6666666666666</ele><time>2026-03-29T17:02:42.591Z</time></trkpt><trkpt lat="39.0344367" lon="16.5357467"><ele>874.0</ele><time>2026-03-29T17:02:43.591Z</time></trkpt><trkpt lat="39.0343483" lon="16.5358967"><ele>874.0</ele><time>2026-03-29T17:02:44.591Z</time></trkpt><trkpt lat="39.0342483" lon="16.5360067"><ele>874.0</ele><time>2026-03-29T17:02:45.591Z</time></trkpt><trkpt lat="39.0341183" lon="16.536085"><ele>874.0</ele><time>2026-03-29T17:02:46.591Z</time></trkpt><trkpt lat="39.0339683" lon="16.5361383"><ele>874.0</ele><time>2026-03-29T17:02:47.591Z</time></trkpt><trkpt lat="39.03382" lon="16.5362067"><ele>870.3333333333333</ele><time>2026-03-29T17:02:48.591Z</time></trkpt><trkpt lat="39.033695" lon="16.536315"><ele>866.6666666666667</ele><time>2026-03-29T17:02:49.591Z</time></trkpt><trkpt lat="39.0336" lon="16.5364567"><ele>863.0</ele><time>2026-03-29T17:02:50.591Z</time></trkpt><trkpt lat="39.0335117" lon="16.5366317"><ele>863.0</ele><time>2026-03-29T17:02:51.591Z</time></trkpt><trkpt lat="39.0334583" lon="16.53684"><ele>863.0</ele><time>2026-03-29T17:02:52.591Z</time></trkpt><trkpt lat="39.03344" lon="16.5370483"><ele>863.0</ele><time>2026-03-29T17:02:53.591Z</time></trkpt><trkpt lat="39.033455" lon="16.537265"><ele>863.0</ele><time>2026-03-29T17:02:54.591Z</time></trkpt><trkpt lat="39.033505" lon="16.5374817"><ele>863.0</ele><time>2026-03-29T17:02:55.591Z</time></trkpt><trkpt lat="39.0335817" lon="16.5376917"><ele>863.0</ele><time>2026-03-29T17:02:56.591Z</time></trkpt><trkpt lat="39.0336667" lon="16.5379083"><ele>857.6666666666667</ele><time>2026-03-29T17:02:57.591Z</time></trkpt><trkpt lat="39.033745" lon="16.5381267"><ele>852.3333333333333</ele><time>2026-03-29T17:02:58.591Z</time></trkpt><trkpt lat="39.0338217" lon="16.5383283"><ele>847.0</ele><time>2026-03-29T17:02:59.591Z</time></trkpt><trkpt lat="39.03389" lon="16.5385333"><ele>847.0</ele><time>2026-03-29T17:03:00.591Z</time></trkpt><trkpt lat="39.0339283" lon="16.5387167"><ele>847.0</ele><time>2026-03-29T17:03:01.591Z</time></trkpt><trkpt lat="39.033935" lon="16.5389033"><ele>847.0</ele><time>2026-03-29T17:03:02.591Z</time></trkpt><trkpt lat="39.0339033" lon="16.5390717"><ele>847.0</ele><time>2026-03-29T17:03:03.591Z</time></trkpt><trkpt lat="39.03383" lon="16.53923"><ele>850.3333333333333</ele><time>2026-03-29T17:03:04.591Z</time></trkpt><trkpt lat="39.033735" lon="16.5393767"><ele>853.6666666666667</ele><time>2026-03-29T17:03:05.591Z</time></trkpt><trkpt lat="39.03359" lon="16.5394683"><ele>857.0</ele><time>2026-03-29T17:03:06.591Z</time></trkpt><trkpt lat="39.033445" lon="16.5395217"><ele>852.0</ele><time>2026-03-29T17:03:07.591Z</time></trkpt><trkpt lat="39.0332783" lon="16.5395483"><ele>847.0</ele><time>2026-03-29T17:03:08.591Z</time></trkpt><trkpt lat="39.033115" lon="16.5395633"><ele>842.0</ele><time>2026-03-29T17:03:09.591Z</time></trkpt><trkpt lat="39.0329383" lon="16.5395767"><ele>849.0</ele><time>2026-03-29T17:03:10.591Z</time></trkpt><trkpt lat="39.03274" lon="16.5395933"><ele>856.0</ele><time>2026-03-29T17:03:11.591Z</time></trkpt><trkpt lat="39.0325433" lon="16.5396117"><ele>863.0</ele><time>2026-03-29T17:03:12.591Z</time></trkpt><trkpt lat="39.032325" lon="16.53964"><ele>863.0</ele><time>2026-03-29T17:03:13.591Z</time></trkpt><trkpt lat="39.0321183" lon="16.5396683"><ele>863.0</ele><time>2026-03-29T17:03:14.592Z</time></trkpt><trkpt lat="39.03193" lon="16.5397"><ele>863.0</ele><time>2026-03-29T17:03:15.591Z</time></trkpt><trkpt lat="39.0317717" lon="16.539745"><ele>852.0</ele><time>2026-03-29T17:03:16.591Z</time></trkpt><trkpt lat="39.03163" lon="16.5398467"><ele>841.0</ele><time>2026-03-29T17:03:17.591Z</time></trkpt><trkpt lat="39.03151" lon="16.5399767"><ele>830.0</ele><time>2026-03-29T17:03:18.591Z</time></trkpt><trkpt lat="39.0314133" lon="16.540125"><ele>830.0</ele><time>2026-03-29T17:03:19.591Z</time></trkpt><trkpt lat="39.031345" lon="16.5402933"><ele>830.0</ele><time>2026-03-29T17:03:20.591Z</time></trkpt><trkpt lat="39.031305" lon="16.54049"><ele>830.0</ele><time>2026-03-29T17:03:21.591Z</time></trkpt><trkpt lat="39.031295" lon="16.5407033"><ele>831.6666666666667</ele><time>2026-03-29T17:03:22.591Z</time></trkpt><trkpt lat="39.0313117" lon="16.54091"><ele>833.3333333333333</ele><time>2026-03-29T17:03:23.591Z</time></trkpt><trkpt lat="39.0313317" lon="16.5410983"><ele>835.0</ele><time>2026-03-29T17:03:24.591Z</time></trkpt><trkpt lat="39.0313417" lon="16.54129"><ele>837.6666666666666</ele><time>2026-03-29T17:03:25.591Z</time></trkpt><trkpt lat="39.0313083" lon="16.5414733"><ele>840.3333333333333</ele><time>2026-03-29T17:03:26.591Z</time></trkpt><trkpt lat="39.0312167" lon="16.5416483"><ele>843.0</ele><time>2026-03-29T17:03:27.591Z</time></trkpt><trkpt lat="39.031105" lon="16.5418033"><ele>843.0</ele><time>2026-03-29T17:03:28.591Z</time></trkpt><trkpt lat="39.0309817" lon="16.5419617"><ele>843.0</ele><time>2026-03-29T17:03:29.591Z</time></trkpt><trkpt lat="39.030845" lon="16.542115"><ele>843.0</ele><time>2026-03-29T17:03:30.591Z</time></trkpt><trkpt lat="39.03071" lon="16.54228"><ele>842.0</ele><time>2026-03-29T17:03:31.591Z</time></trkpt><trkpt lat="39.0305967" lon="16.5424817"><ele>841.0</ele><time>2026-03-29T17:03:32.591Z</time></trkpt><trkpt lat="39.03051" lon="16.5427133"><ele>840.0</ele><time>2026-03-29T17:03:33.591Z</time></trkpt><trkpt lat="39.0304333" lon="16.542975"><ele>840.0</ele><time>2026-03-29T17:03:34.591Z</time></trkpt><trkpt lat="39.030375" lon="16.543265"><ele>840.0</ele><time>2026-03-29T17:03:35.591Z</time></trkpt><trkpt lat="39.0303183" lon="16.5435283"><ele>840.0</ele><time>2026-03-29T17:03:36.591Z</time></trkpt><trkpt lat="39.0302467" lon="16.5437767"><ele>841.6666666666667</ele><time>2026-03-29T17:03:37.591Z</time></trkpt><trkpt lat="39.03021" lon="16.5439783"><ele>843.3333333333334</ele><time>2026-03-29T17:03:38.591Z</time></trkpt><trkpt lat="39.0301767" lon="16.54417"><ele>845.0</ele><time>2026-03-29T17:03:39.591Z</time></trkpt><trkpt lat="39.0301967" lon="16.5443733"><ele>842.6666666666667</ele><time>2026-03-29T17:03:40.591Z</time></trkpt><trkpt lat="39.0302533" lon="16.54457"><ele>840.3333333333333</ele><time>2026-03-29T17:03:41.591Z</time></trkpt><trkpt lat="39.03035" lon="16.5447583"><ele>838.0</ele><time>2026-03-29T17:03:42.591Z</time></trkpt><trkpt lat="39.030455" lon="16.544955"><ele>838.0</ele><time>2026-03-29T17:03:43.591Z</time></trkpt><trkpt lat="39.03053" lon="16.54517"><ele>838.0</ele><time>2026-03-29T17:03:44.591Z</time></trkpt><trkpt lat="39.0305733" lon="16.54538"><ele>838.0</ele><time>2026-03-29T17:03:45.591Z</time></trkpt><trkpt lat="39.0305717" lon="16.545595"><ele>835.3333333333333</ele><time>2026-03-29T17:03:46.591Z</time></trkpt><trkpt lat="39.03053" lon="16.54581"><ele>832.6666666666667</ele><time>2026-03-29T17:03:47.591Z</time></trkpt><trkpt lat="39.0304783" lon="16.546005"><ele>830.0</ele><time>2026-03-29T17:03:48.591Z</time></trkpt><trkpt lat="39.0304467" lon="16.546195"><ele>826.6666666666667</ele><time>2026-03-29T17:03:49.591Z</time></trkpt><trkpt lat="39.0304583" lon="16.5463867"><ele>823.3333333333333</ele><time>2026-03-29T17:03:50.591Z</time></trkpt><trkpt lat="39.0305033" lon="16.54658"><ele>820.0</ele><time>2026-03-29T17:03:51.591Z</time></trkpt><trkpt lat="39.03059" lon="16.54674"><ele>820.0</ele><time>2026-03-29T17:03:52.592Z</time></trkpt><trkpt lat="39.0307183" lon="16.5468533"><ele>820.0</ele><time>2026-03-29T17:03:53.591Z</time></trkpt><trkpt lat="39.0308533" lon="16.54693"><ele>820.0</ele><time>2026-03-29T17:03:54.591Z</time></trkpt><trkpt lat="39.0309983" lon="16.54696"><ele>827.0</ele><time>2026-03-29T17:03:55.591Z</time></trkpt><trkpt lat="39.031155" lon="16.54694"><ele>834.0</ele><time>2026-03-29T17:03:56.591Z</time></trkpt><trkpt lat="39.0313083" lon="16.5468967"><ele>841.0</ele><time>2026-03-29T17:03:57.591Z</time></trkpt><trkpt lat="39.0314517" lon="16.5468717"><ele>841.0</ele><time>2026-03-29T17:03:58.591Z</time></trkpt><trkpt lat="39.0315917" lon="16.5468783"><ele>841.0</ele><time>2026-03-29T17:03:59.591Z</time></trkpt><trkpt lat="39.03171" lon="16.5469383"><ele>841.0</ele><time>2026-03-29T17:04:00.591Z</time></trkpt><trkpt lat="39.0318167" lon="16.5470283"><ele>841.0</ele><time>2026-03-29T17:04:01.591Z</time></trkpt><trkpt lat="39.031895" lon="16.5471533"><ele>839.25</ele><time>2026-03-29T17:04:02.591Z</time></trkpt><trkpt lat="39.0319517" lon="16.54731"><ele>837.5</ele><time>2026-03-29T17:04:03.591Z</time></trkpt><trkpt lat="39.0319633" lon="16.5474767"><ele>835.75</ele><time>2026-03-29T17:04:04.591Z</time></trkpt><trkpt lat="39.0319517" lon="16.547615"><ele>834.0</ele><time>2026-03-29T17:04:05.591Z</time></trkpt><trkpt lat="39.03191" lon="16.547765"><ele>831.0</ele><time>2026-03-29T17:04:06.591Z</time></trkpt><trkpt lat="39.03185" lon="16.547905"><ele>828.0</ele><time>2026-03-29T17:04:07.591Z</time></trkpt><trkpt lat="39.031755" lon="16.5480183"><ele>825.0</ele><time>2026-03-29T17:04:08.591Z</time></trkpt><trkpt lat="39.0316067" lon="16.5481233"><ele>822.0</ele><time>2026-03-29T17:04:09.591Z</time></trkpt><trkpt lat="39.03146" lon="16.5482033"><ele>822.0</ele><time>2026-03-29T17:04:10.591Z</time></trkpt><trkpt lat="39.031295" lon="16.5482817"><ele>822.0</ele><time>2026-03-29T17:04:11.591Z</time></trkpt><trkpt lat="39.0311383" lon="16.5483717"><ele>822.0</ele><time>2026-03-29T17:04:12.591Z</time></trkpt><trkpt lat="39.0309667" lon="16.5484667"><ele>819.0</ele><time>2026-03-29T17:04:13.591Z</time></trkpt><trkpt lat="39.0307883" lon="16.548555"><ele>816.0</ele><time>2026-03-29T17:04:14.591Z</time></trkpt><trkpt lat="39.0306267" lon="16.5486333"><ele>813.0</ele><time>2026-03-29T17:04:15.591Z</time></trkpt><trkpt lat="39.0304767" lon="16.54873"><ele>813.0</ele><time>2026-03-29T17:04:16.591Z</time></trkpt><trkpt lat="39.0303383" lon="16.5488683"><ele>813.0</ele><time>2026-03-29T17:04:17.591Z</time></trkpt><trkpt lat="39.0302217" lon="16.5490383"><ele>813.0</ele><time>2026-03-29T17:04:18.591Z</time></trkpt><trkpt lat="39.0300983" lon="16.5492267"><ele>805.3333333333333</ele><time>2026-03-29T17:04:19.591Z</time></trkpt><trkpt lat="39.0299733" lon="16.5494233"><ele>797.6666666666666</ele><time>2026-03-29T17:04:20.591Z</time></trkpt><trkpt lat="39.02986" lon="16.5495983"><ele>790.0</ele><time>2026-03-29T17:04:21.591Z</time></trkpt><trkpt lat="39.029775" lon="16.549775"><ele>790.0</ele><time>2026-03-29T17:04:22.591Z</time></trkpt><trkpt lat="39.0297133" lon="16.5499717"><ele>790.0</ele><time>2026-03-29T17:04:23.591Z</time></trkpt><trkpt lat="39.0296833" lon="16.5501767"><ele>790.0</ele><time>2026-03-29T17:04:24.591Z</time></trkpt><trkpt lat="39.0296833" lon="16.550405"><ele>790.3333333333333</ele><time>2026-03-29T17:04:25.591Z</time></trkpt><trkpt lat="39.0296883" lon="16.5506317"><ele>790.6666666666667</ele><time>2026-03-29T17:04:26.591Z</time></trkpt><trkpt lat="39.02969" lon="16.5508567"><ele>791.0</ele><time>2026-03-29T17:04:27.591Z</time></trkpt><trkpt lat="39.0296817" lon="16.551075"><ele>795.3333333333334</ele><time>2026-03-29T17:04:28.591Z</time></trkpt><trkpt lat="39.02965" lon="16.551295"><ele>799.6666666666667</ele><time>2026-03-29T17:04:29.591Z</time></trkpt><trkpt lat="39.0295833" lon="16.55151"><ele>804.0</ele><time>2026-03-29T17:04:30.591Z</time></trkpt><trkpt lat="39.0294833" lon="16.55172"><ele>804.0</ele><time>2026-03-29T17:04:31.591Z</time></trkpt><trkpt lat="39.0293617" lon="16.5519217"><ele>804.0</ele><time>2026-03-29T17:04:32.591Z</time></trkpt><trkpt lat="39.0292333" lon="16.5521"><ele>804.0</ele><time>2026-03-29T17:04:33.591Z</time></trkpt><trkpt lat="39.0290817" lon="16.5522567"><ele>805.3333333333333</ele><time>2026-03-29T17:04:34.591Z</time></trkpt><trkpt lat="39.028915" lon="16.5524033"><ele>806.6666666666666</ele><time>2026-03-29T17:04:35.591Z</time></trkpt><trkpt lat="39.0287433" lon="16.5525417"><ele>808.0</ele><time>2026-03-29T17:04:36.591Z</time></trkpt><trkpt lat="39.0285733" lon="16.5526867"><ele>808.0</ele><time>2026-03-29T17:04:37.591Z</time></trkpt><trkpt lat="39.0284" lon="16.5528483"><ele>808.0</ele><time>2026-03-29T17:04:38.591Z</time></trkpt><trkpt lat="39.0282217" lon="16.55301"><ele>808.0</ele><time>2026-03-29T17:04:39.591Z</time></trkpt><trkpt lat="39.0280517" lon="16.55319"><ele>804.3333333333333</ele><time>2026-03-29T17:04:40.591Z</time></trkpt><trkpt lat="39.02789" lon="16.5533867"><ele>800.6666666666667</ele><time>2026-03-29T17:04:41.591Z</time></trkpt><trkpt lat="39.0277433" lon="16.5536083"><ele>797.0</ele><time>2026-03-29T17:04:42.591Z</time></trkpt><trkpt lat="39.0276067" lon="16.5538317"><ele>789.5</ele><time>2026-03-29T17:04:43.591Z</time></trkpt><trkpt lat="39.0274717" lon="16.554075"><ele>782.0</ele><time>2026-03-29T17:04:44.591Z</time></trkpt><trkpt lat="39.0273467" lon="16.5543283"><ele>781.0</ele><time>2026-03-29T17:04:45.591Z</time></trkpt><trkpt lat="39.02722" lon="16.5545867"><ele>780.0</ele><time>2026-03-29T17:04:46.591Z</time></trkpt><trkpt lat="39.0270917" lon="16.5548517"><ele>780.0</ele><time>2026-03-29T17:04:47.591Z</time></trkpt><trkpt lat="39.0269617" lon="16.5551083"><ele>780.0</ele><time>2026-03-29T17:04:48.591Z</time></trkpt><trkpt lat="39.0268283" lon="16.55537"><ele>779.0</ele><time>2026-03-29T17:04:49.591Z</time></trkpt><trkpt lat="39.0267" lon="16.55563"><ele>778.0</ele><time>2026-03-29T17:04:50.591Z</time></trkpt><trkpt lat="39.0265783" lon="16.5558767"><ele>778.0</ele><time>2026-03-29T17:04:51.591Z</time></trkpt><trkpt lat="39.02645" lon="16.5561017"><ele>778.0</ele><time>2026-03-29T17:04:52.591Z</time></trkpt><trkpt lat="39.0263133" lon="16.5563033"><ele>778.0</ele><time>2026-03-29T17:04:53.591Z</time></trkpt><trkpt lat="39.0261683" lon="16.5564817"><ele>779.6666666666666</ele><time>2026-03-29T17:04:54.591Z</time></trkpt><trkpt lat="39.0260033" lon="16.556625"><ele>781.3333333333333</ele><time>2026-03-29T17:04:55.591Z</time></trkpt><trkpt lat="39.0258183" lon="16.5567267"><ele>783.0</ele><time>2026-03-29T17:04:56.591Z</time></trkpt><trkpt lat="39.02562" lon="16.5568117"><ele>785.6666666666667</ele><time>2026-03-29T17:04:57.591Z</time></trkpt><trkpt lat="39.025415" lon="16.5568417"><ele>788.3333333333334</ele><time>2026-03-29T17:04:58.591Z</time></trkpt><trkpt lat="39.0252" lon="16.556875"><ele>791.0</ele><time>2026-03-29T17:04:59.591Z</time></trkpt><trkpt lat="39.0249833" lon="16.5569083"><ele>795.6666666666667</ele><time>2026-03-29T17:05:00.591Z</time></trkpt><trkpt lat="39.024775" lon="16.55694"><ele>800.3333333333333</ele><time>2026-03-29T17:05:01.591Z</time></trkpt><trkpt lat="39.0245633" lon="16.5569667"><ele>805.0</ele><time>2026-03-29T17:05:02.591Z</time></trkpt><trkpt lat="39.0243517" lon="16.557005"><ele>796.6666666666666</ele><time>2026-03-29T17:05:03.591Z</time></trkpt><trkpt lat="39.0241383" lon="16.5570517"><ele>788.3333333333333</ele><time>2026-03-29T17:05:04.591Z</time></trkpt><trkpt lat="39.0239267" lon="16.5570767"><ele>780.0</ele><time>2026-03-29T17:05:05.591Z</time></trkpt><trkpt lat="39.0237367" lon="16.5570833"><ele>780.0</ele><time>2026-03-29T17:05:06.591Z</time></trkpt><trkpt lat="39.0235433" lon="16.5571017"><ele>780.0</ele><time>2026-03-29T17:05:07.592Z</time></trkpt><trkpt lat="39.0233867" lon="16.5570717"><ele>780.0</ele><time>2026-03-29T17:05:08.592Z</time></trkpt><trkpt lat="39.023235" lon="16.5569867"><ele>786.3333333333333</ele><time>2026-03-29T17:05:09.592Z</time></trkpt><trkpt lat="39.0231117" lon="16.55685"><ele>792.6666666666666</ele><time>2026-03-29T17:05:10.592Z</time></trkpt><trkpt lat="39.0230017" lon="16.5566917"><ele>799.0</ele><time>2026-03-29T17:05:11.592Z</time></trkpt><trkpt lat="39.0228867" lon="16.556535"><ele>799.0</ele><time>2026-03-29T17:05:12.593Z</time></trkpt><trkpt lat="39.0227767" lon="16.55641"><ele>799.0</ele><time>2026-03-29T17:05:13.592Z</time></trkpt><trkpt lat="39.0226417" lon="16.5563083"><ele>799.0</ele><time>2026-03-29T17:05:14.592Z</time></trkpt><trkpt lat="39.022505" lon="16.55624"><ele>805.6666666666666</ele><time>2026-03-29T17:05:15.592Z</time></trkpt><trkpt lat="39.02235" lon="16.5562317"><ele>812.3333333333333</ele><time>2026-03-29T17:05:16.592Z</time></trkpt><trkpt lat="39.0221933" lon="16.556285"><ele>819.0</ele><time>2026-03-29T17:05:17.592Z</time></trkpt><trkpt lat="39.0220467" lon="16.5563917"><ele>819.0</ele><time>2026-03-29T17:05:18.592Z</time></trkpt><trkpt lat="39.0219033" lon="16.556535"><ele>819.0</ele><time>2026-03-29T17:05:19.592Z</time></trkpt><trkpt lat="39.02178" lon="16.5567433"><ele>819.0</ele><time>2026-03-29T17:05:20.592Z</time></trkpt><trkpt lat="39.0216717" lon="16.55693"><ele>824.0</ele><time>2026-03-29T17:05:21.592Z</time></trkpt><trkpt lat="39.021555" lon="16.5571333"><ele>829.0</ele><time>2026-03-29T17:05:22.592Z</time></trkpt><trkpt lat="39.0214483" lon="16.5573417"><ele>834.0</ele><time>2026-03-29T17:05:23.592Z</time></trkpt><trkpt lat="39.021325" lon="16.55756"><ele>834.0</ele><time>2026-03-29T17:05:24.592Z</time></trkpt><trkpt lat="39.0212067" lon="16.5577817"><ele>834.0</ele><time>2026-03-29T17:05:25.592Z</time></trkpt><trkpt lat="39.0210917" lon="16.5580017"><ele>834.0</ele><time>2026-03-29T17:05:26.592Z</time></trkpt><trkpt lat="39.0209833" lon="16.558215"><ele>832.3333333333333</ele><time>2026-03-29T17:05:27.592Z</time></trkpt><trkpt lat="39.0208517" lon="16.5583833"><ele>830.6666666666666</ele><time>2026-03-29T17:05:28.592Z</time></trkpt><trkpt lat="39.02073" lon="16.55853"><ele>829.0</ele><time>2026-03-29T17:05:29.592Z</time></trkpt><trkpt lat="39.0206083" lon="16.5586633"><ele>817.0</ele><time>2026-03-29T17:05:30.592Z</time></trkpt><trkpt lat="39.0204883" lon="16.5587583"><ele>805.0</ele><time>2026-03-29T17:05:31.592Z</time></trkpt><trkpt lat="39.0203283" lon="16.5588067"><ele>793.0</ele><time>2026-03-29T17:05:32.592Z</time></trkpt><trkpt lat="39.0201517" lon="16.558825"><ele>790.3333333333333</ele><time>2026-03-29T17:05:33.592Z</time></trkpt><trkpt lat="39.0199667" lon="16.5588183"><ele>787.6666666666667</ele><time>2026-03-29T17:05:34.592Z</time></trkpt><trkpt lat="39.0197933" lon="16.5587617"><ele>785.0</ele><time>2026-03-29T17:05:35.592Z</time></trkpt><trkpt lat="39.019625" lon="16.558665"><ele>793.0</ele><time>2026-03-29T17:05:36.592Z</time></trkpt><trkpt lat="39.01948" lon="16.5585067"><ele>801.0</ele><time>2026-03-29T17:05:37.592Z</time></trkpt><trkpt lat="39.019365" lon="16.558315"><ele>809.0</ele><time>2026-03-29T17:05:38.592Z</time></trkpt><trkpt lat="39.0192717" lon="16.558105"><ele>809.0</ele><time>2026-03-29T17:05:39.592Z</time></trkpt><trkpt lat="39.019175" lon="16.5578933"><ele>809.0</ele><time>2026-03-29T17:05:40.592Z</time></trkpt><trkpt lat="39.0190717" lon="16.55768"><ele>809.0</ele><time>2026-03-29T17:05:41.593Z</time></trkpt><trkpt lat="39.0189667" lon="16.55746"><ele>810.0</ele><time>2026-03-29T17:05:42.592Z</time></trkpt><trkpt lat="39.0188567" lon="16.55725"><ele>811.0</ele><time>2026-03-29T17:05:43.592Z</time></trkpt><trkpt lat="39.0187233" lon="16.55707"><ele>812.0</ele><time>2026-03-29T17:05:44.592Z</time></trkpt><trkpt lat="39.018575" lon="16.55691"><ele>812.0</ele><time>2026-03-29T17:05:45.592Z</time></trkpt><trkpt lat="39.0184133" lon="16.5567867"><ele>812.0</ele><time>2026-03-29T17:05:46.592Z</time></trkpt><trkpt lat="39.0182367" lon="16.5566983"><ele>812.0</ele><time>2026-03-29T17:05:47.592Z</time></trkpt><trkpt lat="39.0180517" lon="16.556655"><ele>812.6666666666667</ele><time>2026-03-29T17:05:48.592Z</time></trkpt><trkpt lat="39.017855" lon="16.5566583"><ele>813.3333333333333</ele><time>2026-03-29T17:05:49.592Z</time></trkpt><trkpt lat="39.0176433" lon="16.5566883"><ele>814.0</ele><time>2026-03-29T17:05:50.592Z</time></trkpt><trkpt lat="39.0174233" lon="16.5567133"><ele>815.3333333333333</ele><time>2026-03-29T17:05:51.592Z</time></trkpt><trkpt lat="39.0172033" lon="16.5567733"><ele>816.6666666666667</ele><time>2026-03-29T17:05:52.592Z</time></trkpt><trkpt lat="39.0169817" lon="16.55681"><ele>818.0</ele><time>2026-03-29T17:05:53.592Z</time></trkpt><trkpt lat="39.016745" lon="16.5568517"><ele>827.0</ele><time>2026-03-29T17:05:54.592Z</time></trkpt><trkpt lat="39.016505" lon="16.55689"><ele>836.0</ele><time>2026-03-29T17:05:55.592Z</time></trkpt><trkpt lat="39.0162783" lon="16.556915"><ele>836.0</ele><time>2026-03-29T17:05:56.592Z</time></trkpt><trkpt lat="39.016045" lon="16.55695"><ele>836.0</ele><time>2026-03-29T17:05:57.592Z</time></trkpt><trkpt lat="39.01581" lon="16.556995"><ele>837.5</ele><time>2026-03-29T17:05:58.592Z</time></trkpt><trkpt lat="39.015575" lon="16.5570583"><ele>839.0</ele><time>2026-03-29T17:05:59.592Z</time></trkpt><trkpt lat="39.0153533" lon="16.5571383"><ele>839.0</ele><time>2026-03-29T17:06:00.592Z</time></trkpt><trkpt lat="39.0151317" lon="16.5572417"><ele>839.0</ele><time>2026-03-29T17:06:01.592Z</time></trkpt><trkpt lat="39.014925" lon="16.557375"><ele>845.5</ele><time>2026-03-29T17:06:02.592Z</time></trkpt><trkpt lat="39.0147167" lon="16.5575367"><ele>852.0</ele><time>2026-03-29T17:06:03.592Z</time></trkpt><trkpt lat="39.0145267" lon="16.557715"><ele>855.0</ele><time>2026-03-29T17:06:04.592Z</time></trkpt><trkpt lat="39.0143617" lon="16.5578983"><ele>858.0</ele><time>2026-03-29T17:06:05.593Z</time></trkpt><trkpt lat="39.014215" lon="16.5580583"><ele>861.0</ele><time>2026-03-29T17:06:06.592Z</time></trkpt><trkpt lat="39.01405" lon="16.55817"><ele>861.0</ele><time>2026-03-29T17:06:07.592Z</time></trkpt><trkpt lat="39.01387" lon="16.5582483"><ele>861.0</ele><time>2026-03-29T17:06:08.592Z</time></trkpt><trkpt lat="39.01367" lon="16.5583167"><ele>861.0</ele><time>2026-03-29T17:06:09.592Z</time></trkpt><trkpt lat="39.0134617" lon="16.558375"><ele>864.6666666666667</ele><time>2026-03-29T17:06:10.592Z</time></trkpt><trkpt lat="39.0132567" lon="16.5584417"><ele>868.3333333333334</ele><time>2026-03-29T17:06:11.592Z</time></trkpt><trkpt lat="39.013045" lon="16.5585067"><ele>872.0</ele><time>2026-03-29T17:06:12.592Z</time></trkpt><trkpt lat="39.0128433" lon="16.5585783"><ele>872.0</ele><time>2026-03-29T17:06:13.592Z</time></trkpt><trkpt lat="39.0126483" lon="16.5586633"><ele>872.0</ele><time>2026-03-29T17:06:14.592Z</time></trkpt><trkpt lat="39.0124783" lon="16.5587633"><ele>872.0</ele><time>2026-03-29T17:06:15.592Z</time></trkpt><trkpt lat="39.0123167" lon="16.5588883"><ele>876.3333333333334</ele><time>2026-03-29T17:06:16.593Z</time></trkpt><trkpt lat="39.0121817" lon="16.559055"><ele>880.6666666666667</ele><time>2026-03-29T17:06:17.592Z</time></trkpt><trkpt lat="39.01206" lon="16.5592217"><ele>885.0</ele><time>2026-03-29T17:06:18.592Z</time></trkpt><trkpt lat="39.0119417" lon="16.5594067"><ele>880.6666666666667</ele><time>2026-03-29T17:06:19.592Z</time></trkpt><trkpt lat="39.0118083" lon="16.5595783"><ele>876.3333333333334</ele><time>2026-03-29T17:06:20.592Z</time></trkpt><trkpt lat="39.01165" lon="16.559715"><ele>872.0</ele><time>2026-03-29T17:06:21.592Z</time></trkpt><trkpt lat="39.0114717" lon="16.5598267"><ele>881.3333333333334</ele><time>2026-03-29T17:06:22.592Z</time></trkpt><trkpt lat="39.011295" lon="16.559945"><ele>890.6666666666667</ele><time>2026-03-29T17:06:23.592Z</time></trkpt><trkpt lat="39.0111017" lon="16.5600583"><ele>900.0</ele><time>2026-03-29T17:06:24.592Z</time></trkpt><trkpt lat="39.01093" lon="16.56016"><ele>905.5</ele><time>2026-03-29T17:06:25.592Z</time></trkpt><trkpt lat="39.0107867" lon="16.5602633"><ele>911.0</ele><time>2026-03-29T17:06:26.593Z</time></trkpt><trkpt lat="39.01067" lon="16.5603633"><ele>916.5</ele><time>2026-03-29T17:06:27.592Z</time></trkpt><trkpt lat="39.0105883" lon="16.5604817"><ele>922.0</ele><time>2026-03-29T17:06:28.592Z</time></trkpt><trkpt lat="39.0105417" lon="16.5606483"><ele>922.0</ele><time>2026-03-29T17:06:29.592Z</time></trkpt><trkpt lat="39.010535" lon="16.5608233"><ele>922.0</ele><time>2026-03-29T17:06:30.592Z</time></trkpt><trkpt lat="39.0105667" lon="16.56101"><ele>922.0</ele><time>2026-03-29T17:06:31.592Z</time></trkpt><trkpt lat="39.01063" lon="16.56118"><ele>922.0</ele><time>2026-03-29T17:06:32.592Z</time></trkpt><trkpt lat="39.0106817" lon="16.561345"><ele>922.0</ele><time>2026-03-29T17:06:33.592Z</time></trkpt><trkpt lat="39.010685" lon="16.5614967"><ele>922.0</ele><time>2026-03-29T17:06:34.592Z</time></trkpt><trkpt lat="39.0106367" lon="16.5616383"><ele>922.0</ele><time>2026-03-29T17:06:35.592Z</time></trkpt><trkpt lat="39.010545" lon="16.5617533"><ele>922.0</ele><time>2026-03-29T17:06:36.593Z</time></trkpt><trkpt lat="39.010435" lon="16.5618817"><ele>922.0</ele><time>2026-03-29T17:06:37.592Z</time></trkpt><trkpt lat="39.010355" lon="16.5620067"><ele>922.0</ele><time>2026-03-29T17:06:38.592Z</time></trkpt><trkpt lat="39.0103017" lon="16.56216"><ele>922.0</ele><time>2026-03-29T17:06:39.592Z</time></trkpt><trkpt lat="39.010275" lon="16.56234"><ele>922.0</ele><time>2026-03-29T17:06:40.592Z</time></trkpt><trkpt lat="39.0103067" lon="16.5625117"><ele>918.0</ele><time>2026-03-29T17:06:41.592Z</time></trkpt><trkpt lat="39.0103617" lon="16.5627"><ele>914.0</ele><time>2026-03-29T17:06:42.592Z</time></trkpt><trkpt lat="39.0104367" lon="16.5629067"><ele>910.0</ele><time>2026-03-29T17:06:43.592Z</time></trkpt><trkpt lat="39.010505" lon="16.56312"><ele>910.0</ele><time>2026-03-29T17:06:44.592Z</time></trkpt><trkpt lat="39.0105717" lon="16.5633233"><ele>910.0</ele><time>2026-03-29T17:06:45.592Z</time></trkpt><trkpt lat="39.01063" lon="16.5635283"><ele>910.0</ele><time>2026-03-29T17:06:46.592Z</time></trkpt><trkpt lat="39.0106817" lon="16.5637017"><ele>910.25</ele><time>2026-03-29T17:06:47.592Z</time></trkpt><trkpt lat="39.0106967" lon="16.5638783"><ele>910.5</ele><time>2026-03-29T17:06:48.592Z</time></trkpt><trkpt lat="39.01067" lon="16.5640467"><ele>910.75</ele><time>2026-03-29T17:06:49.592Z</time></trkpt><trkpt lat="39.01062" lon="16.5642033"><ele>911.0</ele><time>2026-03-29T17:06:50.592Z</time></trkpt><trkpt lat="39.0105483" lon="16.564355"><ele>911.0</ele><time>2026-03-29T17:06:51.593Z</time></trkpt><trkpt lat="39.01047" lon="16.5645"><ele>911.0</ele><time>2026-03-29T17:06:52.592Z</time></trkpt><trkpt lat="39.0103933" lon="16.564645"><ele>911.0</ele><time>2026-03-29T17:06:53.592Z</time></trkpt><trkpt lat="39.0103133" lon="16.5647917"><ele>911.0</ele><time>2026-03-29T17:06:54.592Z</time></trkpt><trkpt lat="39.010235" lon="16.56494"><ele>911.5</ele><time>2026-03-29T17:06:55.593Z</time></trkpt><trkpt lat="39.0100917" lon="16.5650367"><ele>912.0</ele><time>2026-03-29T17:06:56.592Z</time></trkpt><trkpt lat="39.0098067" lon="16.56516"><ele>915.0</ele><time>2026-03-29T17:06:57.592Z</time></trkpt><trkpt lat="39.0094867" lon="16.5653617"><ele>918.0</ele><time>2026-03-29T17:06:58.592Z</time></trkpt><trkpt lat="39.0092767" lon="16.5655033"><ele>921.3333333333333</ele><time>2026-03-29T17:06:59.592Z</time></trkpt><trkpt lat="39.00911" lon="16.56559"><ele>924.6666666666666</ele><time>2026-03-29T17:07:00.592Z</time></trkpt><trkpt lat="39.0089467" lon="16.56562"><ele>928.0</ele><time>2026-03-29T17:07:01.593Z</time></trkpt><trkpt lat="39.008785" lon="16.56559"><ele>928.0</ele><time>2026-03-29T17:07:02.592Z</time></trkpt><trkpt lat="39.0086067" lon="16.56551"><ele>928.0</ele><time>2026-03-29T17:07:03.592Z</time></trkpt><trkpt lat="39.0084183" lon="16.5654133"><ele>928.0</ele><time>2026-03-29T17:07:04.593Z</time></trkpt><trkpt lat="39.0082217" lon="16.56533"><ele>918.0</ele><time>2026-03-29T17:07:05.593Z</time></trkpt><trkpt lat="39.0080217" lon="16.565265"><ele>908.0</ele><time>2026-03-29T17:07:06.592Z</time></trkpt><trkpt lat="39.0078517" lon="16.5652333"><ele>898.0</ele><time>2026-03-29T17:07:07.592Z</time></trkpt><trkpt lat="39.0076983" lon="16.5652333"><ele>898.0</ele><time>2026-03-29T17:07:08.592Z</time></trkpt><trkpt lat="39.00751" lon="16.5652883"><ele>898.0</ele><time>2026-03-29T17:07:09.592Z</time></trkpt><trkpt lat="39.0073433" lon="16.565385"><ele>898.0</ele><time>2026-03-29T17:07:10.592Z</time></trkpt><trkpt lat="39.00718" lon="16.56549"><ele>903.3333333333333</ele><time>2026-03-29T17:07:11.592Z</time></trkpt><trkpt lat="39.0070233" lon="16.56559"><ele>908.6666666666667</ele><time>2026-03-29T17:07:12.592Z</time></trkpt><trkpt lat="39.0068817" lon="16.5656517"><ele>914.0</ele><time>2026-03-29T17:07:13.592Z</time></trkpt><trkpt lat="39.00674" lon="16.5656683"><ele>912.5</ele><time>2026-03-29T17:07:14.592Z</time></trkpt><trkpt lat="39.0066067" lon="16.5656317"><ele>911.0</ele><time>2026-03-29T17:07:15.592Z</time></trkpt><trkpt lat="39.006485" lon="16.56556"><ele>909.5</ele><time>2026-03-29T17:07:16.592Z</time></trkpt><trkpt lat="39.0063767" lon="16.5654567"><ele>908.0</ele><time>2026-03-29T17:07:17.592Z</time></trkpt><trkpt lat="39.0062767" lon="16.5653833"><ele>908.0</ele><time>2026-03-29T17:07:18.592Z</time></trkpt><trkpt lat="39.0061783" lon="16.5653633"><ele>908.0</ele><time>2026-03-29T17:07:19.592Z</time></trkpt><trkpt lat="39.00609" lon="16.5653883"><ele>908.0</ele><time>2026-03-29T17:07:20.592Z</time></trkpt><trkpt lat="39.0060017" lon="16.56546"><ele>908.0</ele><time>2026-03-29T17:07:21.592Z</time></trkpt><trkpt lat="39.00592" lon="16.5655883"><ele>908.0</ele><time>2026-03-29T17:07:22.592Z</time></trkpt><trkpt lat="39.0058333" lon="16.5657183"><ele>907.0</ele><time>2026-03-29T17:07:23.592Z</time></trkpt><trkpt lat="39.0057333" lon="16.565845"><ele>906.0</ele><time>2026-03-29T17:07:24.592Z</time></trkpt><trkpt lat="39.005615" lon="16.56592"><ele>905.0</ele><time>2026-03-29T17:07:25.592Z</time></trkpt><trkpt lat="39.005485" lon="16.5659483"><ele>904.0</ele><time>2026-03-29T17:07:26.592Z</time></trkpt><trkpt lat="39.0053417" lon="16.5659233"><ele>904.0</ele><time>2026-03-29T17:07:27.592Z</time></trkpt><trkpt lat="39.0051933" lon="16.5658533"><ele>904.0</ele><time>2026-03-29T17:07:28.592Z</time></trkpt><trkpt lat="39.0050567" lon="16.5657483"><ele>904.0</ele><time>2026-03-29T17:07:29.593Z</time></trkpt><trkpt lat="39.004925" lon="16.5656417"><ele>902.0</ele><time>2026-03-29T17:07:30.592Z</time></trkpt><trkpt lat="39.0048183" lon="16.5655433"><ele>900.0</ele><time>2026-03-29T17:07:31.592Z</time></trkpt><trkpt lat="39.0047033" lon="16.565485"><ele>898.0</ele><time>2026-03-29T17:07:32.592Z</time></trkpt><trkpt lat="39.0045833" lon="16.5654733"><ele>896.0</ele><time>2026-03-29T17:07:33.592Z</time></trkpt><trkpt lat="39.0044683" lon="16.56552"><ele>896.0</ele><time>2026-03-29T17:07:34.592Z</time></trkpt><trkpt lat="39.0043567" lon="16.5656133"><ele>896.0</ele><time>2026-03-29T17:07:35.592Z</time></trkpt><trkpt lat="39.0042683" lon="16.5657333"><ele>896.0</ele><time>2026-03-29T17:07:36.592Z</time></trkpt><trkpt lat="39.00418" lon="16.565845"><ele>896.0</ele><time>2026-03-29T17:07:37.592Z</time></trkpt><trkpt lat="39.004075" lon="16.5659067"><ele>898.0</ele><time>2026-03-29T17:07:38.592Z</time></trkpt><trkpt lat="39.0039633" lon="16.5659283"><ele>900.0</ele><time>2026-03-29T17:07:39.592Z</time></trkpt><trkpt lat="39.0038433" lon="16.5659067"><ele>902.0</ele><time>2026-03-29T17:07:40.592Z</time></trkpt><trkpt lat="39.0037067" lon="16.5658533"><ele>904.0</ele><time>2026-03-29T17:07:41.592Z</time></trkpt><trkpt lat="39.0035517" lon="16.5657683"><ele>904.0</ele><time>2026-03-29T17:07:42.592Z</time></trkpt><trkpt lat="39.0033833" lon="16.56567"><ele>904.0</ele><time>2026-03-29T17:07:43.592Z</time></trkpt><trkpt lat="39.00321" lon="16.5655667"><ele>904.0</ele><time>2026-03-29T17:07:44.592Z</time></trkpt><trkpt lat="39.00302" lon="16.56547"><ele>907.3333333333333</ele><time>2026-03-29T17:07:45.592Z</time></trkpt><trkpt lat="39.002815" lon="16.5654033"><ele>910.6666666666667</ele><time>2026-03-29T17:07:46.592Z</time></trkpt><trkpt lat="39.002605" lon="16.5653517"><ele>914.0</ele><time>2026-03-29T17:07:47.592Z</time></trkpt><trkpt lat="39.0023817" lon="16.5653183"><ele>895.5</ele><time>2026-03-29T17:07:48.592Z</time></trkpt><trkpt lat="39.0021517" lon="16.5652967"><ele>877.0</ele><time>2026-03-29T17:07:49.592Z</time></trkpt><trkpt lat="39.001925" lon="16.5652817"><ele>877.0</ele><time>2026-03-29T17:07:50.592Z</time></trkpt><trkpt lat="39.00171" lon="16.56526"><ele>877.0</ele><time>2026-03-29T17:07:51.592Z</time></trkpt><trkpt lat="39.0015183" lon="16.5652133"><ele>877.0</ele><time>2026-03-29T17:07:52.592Z</time></trkpt><trkpt lat="39.00132" lon="16.5651483"><ele>877.6666666666666</ele><time>2026-03-29T17:07:53.592Z</time></trkpt><trkpt lat="39.0011383" lon="16.5650517"><ele>878.3333333333333</ele><time>2026-03-29T17:07:54.592Z</time></trkpt><trkpt lat="39.0009767" lon="16.5649583"><ele>879.0</ele><time>2026-03-29T17:07:55.592Z</time></trkpt><trkpt lat="39.0008333" lon="16.56486"><ele>875.6666666666667</ele><time>2026-03-29T17:07:56.592Z</time></trkpt><trkpt lat="39.0006833" lon="16.564805"><ele>872.3333333333334</ele><time>2026-03-29T17:07:57.592Z</time></trkpt><trkpt lat="39.000515" lon="16.5648033"><ele>869.0</ele><time>2026-03-29T17:07:58.592Z</time></trkpt><trkpt lat="39.0003333" lon="16.5648483"><ele>869.0</ele><time>2026-03-29T17:07:59.592Z</time></trkpt><trkpt lat="39.0001483" lon="16.5649083"><ele>869.0</ele><time>2026-03-29T17:08:00.592Z</time></trkpt><trkpt lat="38.9999817" lon="16.5649583"><ele>869.0</ele><time>2026-03-29T17:08:01.592Z</time></trkpt><trkpt lat="38.99983" lon="16.5649667"><ele>869.0</ele><time>2026-03-29T17:08:02.592Z</time></trkpt><trkpt lat="38.9996767" lon="16.5649333"><ele>869.0</ele><time>2026-03-29T17:08:03.592Z</time></trkpt><trkpt lat="38.9995167" lon="16.5648367"><ele>869.0</ele><time>2026-03-29T17:08:04.592Z</time></trkpt><trkpt lat="38.9993683" lon="16.564725"><ele>869.0</ele><time>2026-03-29T17:08:05.592Z</time></trkpt><trkpt lat="38.999245" lon="16.5646067"><ele>869.0</ele><time>2026-03-29T17:08:06.592Z</time></trkpt><trkpt lat="38.9991267" lon="16.56454"><ele>869.0</ele><time>2026-03-29T17:08:07.593Z</time></trkpt><trkpt lat="38.9989967" lon="16.5645167"><ele>869.0</ele><time>2026-03-29T17:08:08.592Z</time></trkpt><trkpt lat="38.9988567" lon="16.5645383"><ele>865.0</ele><time>2026-03-29T17:08:09.592Z</time></trkpt><trkpt lat="38.998695" lon="16.5646117"><ele>861.0</ele><time>2026-03-29T17:08:10.592Z</time></trkpt><trkpt lat="38.998525" lon="16.5647383"><ele>857.0</ele><time>2026-03-29T17:08:11.592Z</time></trkpt><trkpt lat="38.998365" lon="16.5648917"><ele>854.3333333333334</ele><time>2026-03-29T17:08:12.592Z</time></trkpt><trkpt lat="38.9982267" lon="16.5650517"><ele>851.6666666666667</ele><time>2026-03-29T17:08:13.592Z</time></trkpt><trkpt lat="38.9980917" lon="16.5652133"><ele>849.0</ele><time>2026-03-29T17:08:14.593Z</time></trkpt><trkpt lat="38.997945" lon="16.5653467"><ele>847.0</ele><time>2026-03-29T17:08:15.592Z</time></trkpt><trkpt lat="38.9977967" lon="16.5654767"><ele>845.0</ele><time>2026-03-29T17:08:16.592Z</time></trkpt><trkpt lat="38.9976417" lon="16.56555"><ele>843.0</ele><time>2026-03-29T17:08:17.592Z</time></trkpt><trkpt lat="38.9974667" lon="16.56558"><ele>841.0</ele><time>2026-03-29T17:08:18.592Z</time></trkpt><trkpt lat="38.99728" lon="16.5655733"><ele>839.0</ele><time>2026-03-29T17:08:19.592Z</time></trkpt><trkpt lat="38.9970933" lon="16.5655417"><ele>837.0</ele><time>2026-03-29T17:08:20.592Z</time></trkpt><trkpt lat="38.996905" lon="16.5654767"><ele>837.0</ele><time>2026-03-29T17:08:21.592Z</time></trkpt><trkpt lat="38.9967083" lon="16.56541"><ele>837.0</ele><time>2026-03-29T17:08:22.592Z</time></trkpt><trkpt lat="38.996525" lon="16.56536"><ele>837.0</ele><time>2026-03-29T17:08:23.592Z</time></trkpt><trkpt lat="38.99636" lon="16.5653383"><ele>836.0</ele><time>2026-03-29T17:08:24.592Z</time></trkpt><trkpt lat="38.9962" lon="16.5653717"><ele>835.0</ele><time>2026-03-29T17:08:25.592Z</time></trkpt><trkpt lat="38.9960417" lon="16.5654533"><ele>834.0</ele><time>2026-03-29T17:08:26.592Z</time></trkpt><trkpt lat="38.9958967" lon="16.5655683"><ele>835.3333333333333</ele><time>2026-03-29T17:08:27.592Z</time></trkpt><trkpt lat="38.9957783" lon="16.5657267"><ele>836.6666666666666</ele><time>2026-03-29T17:08:28.592Z</time></trkpt><trkpt lat="38.995665" lon="16.565925"><ele>838.0</ele><time>2026-03-29T17:08:29.592Z</time></trkpt><trkpt lat="38.99556" lon="16.5661467"><ele>832.6666666666666</ele><time>2026-03-29T17:08:30.592Z</time></trkpt><trkpt lat="38.9954767" lon="16.5663717"><ele>827.3333333333333</ele><time>2026-03-29T17:08:31.592Z</time></trkpt><trkpt lat="38.9953867" lon="16.5665767"><ele>822.0</ele><time>2026-03-29T17:08:32.592Z</time></trkpt><trkpt lat="38.9952767" lon="16.566735"><ele>822.0</ele><time>2026-03-29T17:08:33.592Z</time></trkpt><trkpt lat="38.99515" lon="16.5668683"><ele>822.0</ele><time>2026-03-29T17:08:34.592Z</time></trkpt><trkpt lat="38.9950067" lon="16.56698"><ele>822.0</ele><time>2026-03-29T17:08:35.592Z</time></trkpt><trkpt lat="38.9948733" lon="16.5670633"><ele>820.5</ele><time>2026-03-29T17:08:36.592Z</time></trkpt><trkpt lat="38.994755" lon="16.5671117"><ele>819.0</ele><time>2026-03-29T17:08:37.592Z</time></trkpt><trkpt lat="38.9946183" lon="16.5671233"><ele>817.5</ele><time>2026-03-29T17:08:38.592Z</time></trkpt><trkpt lat="38.99449" lon="16.56708"><ele>816.0</ele><time>2026-03-29T17:08:39.592Z</time></trkpt><trkpt lat="38.9943767" lon="16.5670317"><ele>817.25</ele><time>2026-03-29T17:08:40.592Z</time></trkpt><trkpt lat="38.99426" lon="16.5670183"><ele>818.5</ele><time>2026-03-29T17:08:41.592Z</time></trkpt><trkpt lat="38.9941433" lon="16.5670533"><ele>819.75</ele><time>2026-03-29T17:08:42.592Z</time></trkpt><trkpt lat="38.9940283" lon="16.56711"><ele>821.0</ele><time>2026-03-29T17:08:43.592Z</time></trkpt><trkpt lat="38.9939417" lon="16.567185"><ele>821.0</ele><time>2026-03-29T17:08:44.592Z</time></trkpt><trkpt lat="38.9938667" lon="16.5672417"><ele>821.0</ele><time>2026-03-29T17:08:45.592Z</time></trkpt><trkpt lat="38.99378" lon="16.567275"><ele>821.0</ele><time>2026-03-29T17:08:46.592Z</time></trkpt><trkpt lat="38.9936667" lon="16.56728"><ele>821.0</ele><time>2026-03-29T17:08:47.592Z</time></trkpt><trkpt lat="38.9935233" lon="16.567305"><ele>821.0</ele><time>2026-03-29T17:08:48.592Z</time></trkpt><trkpt lat="38.9933733" lon="16.5673017"><ele>824.0</ele><time>2026-03-29T17:08:49.592Z</time></trkpt><trkpt lat="38.9932167" lon="16.5672917"><ele>827.0</ele><time>2026-03-29T17:08:50.592Z</time></trkpt><trkpt lat="38.9930383" lon="16.5672983"><ele>830.0</ele><time>2026-03-29T17:08:51.592Z</time></trkpt><trkpt lat="38.9928567" lon="16.5672883"><ele>830.0</ele><time>2026-03-29T17:08:52.592Z</time></trkpt><trkpt lat="38.9926733" lon="16.5672483"><ele>830.0</ele><time>2026-03-29T17:08:53.592Z</time></trkpt><trkpt lat="38.9925083" lon="16.56715"><ele>830.0</ele><time>2026-03-29T17:08:54.592Z</time></trkpt><trkpt lat="38.99234" lon="16.5670583"><ele>830.0</ele><time>2026-03-29T17:08:55.592Z</time></trkpt><trkpt lat="38.9921867" lon="16.5669833"><ele>830.0</ele><time>2026-03-29T17:08:56.592Z</time></trkpt><trkpt lat="38.9920317" lon="16.566985"><ele>830.0</ele><time>2026-03-29T17:08:57.592Z</time></trkpt><trkpt lat="38.9918817" lon="16.56703"><ele>830.0</ele><time>2026-03-29T17:08:58.592Z</time></trkpt><trkpt lat="38.991745" lon="16.567115"><ele>830.0</ele><time>2026-03-29T17:08:59.592Z</time></trkpt><trkpt lat="38.9915967" lon="16.5672283"><ele>830.0</ele><time>2026-03-29T17:09:00.592Z</time></trkpt><trkpt lat="38.9914333" lon="16.567335"><ele>829.3333333333334</ele><time>2026-03-29T17:09:01.592Z</time></trkpt><trkpt lat="38.9912783" lon="16.5674167"><ele>828.6666666666667</ele><time>2026-03-29T17:09:02.592Z</time></trkpt><trkpt lat="38.9911283" lon="16.5674567"><ele>828.0</ele><time>2026-03-29T17:09:03.592Z</time></trkpt><trkpt lat="38.9910017" lon="16.5674933"><ele>828.0</ele><time>2026-03-29T17:09:04.592Z</time></trkpt><trkpt lat="38.99091" lon="16.56753"><ele>828.0</ele><time>2026-03-29T17:09:05.592Z</time></trkpt><trkpt lat="38.9908383" lon="16.5675967"><ele>828.0</ele><time>2026-03-29T17:09:06.592Z</time></trkpt><trkpt lat="38.9907983" lon="16.5676817"><ele>828.0</ele><time>2026-03-29T17:09:07.592Z</time></trkpt><trkpt lat="38.9907683" lon="16.567785"><ele>828.0</ele><time>2026-03-29T17:09:08.592Z</time></trkpt><trkpt lat="38.990755" lon="16.5679067"><ele>828.0</ele><time>2026-03-29T17:09:09.592Z</time></trkpt><trkpt lat="38.9907933" lon="16.5680567"><ele>823.75</ele><time>2026-03-29T17:09:10.592Z</time></trkpt><trkpt lat="38.990875" lon="16.5682433"><ele>819.5</ele><time>2026-03-29T17:09:11.592Z</time></trkpt><trkpt lat="38.9909167" lon="16.5684267"><ele>815.25</ele><time>2026-03-29T17:09:12.592Z</time></trkpt><trkpt lat="38.990925" lon="16.5685817"><ele>811.0</ele><time>2026-03-29T17:09:13.592Z</time></trkpt><trkpt lat="38.9908967" lon="16.5687033"><ele>814.0</ele><time>2026-03-29T17:09:14.592Z</time></trkpt><trkpt lat="38.99083" lon="16.5687767"><ele>817.0</ele><time>2026-03-29T17:09:15.592Z</time></trkpt><trkpt lat="38.9907383" lon="16.5688167"><ele>820.0</ele><time>2026-03-29T17:09:16.592Z</time></trkpt><trkpt lat="38.9906067" lon="16.568795"><ele>823.0</ele><time>2026-03-29T17:09:17.592Z</time></trkpt><trkpt lat="38.9904367" lon="16.568785"><ele>823.0</ele><time>2026-03-29T17:09:18.592Z</time></trkpt><trkpt lat="38.9902617" lon="16.568795"><ele>823.0</ele><time>2026-03-29T17:09:19.592Z</time></trkpt><trkpt lat="38.9900967" lon="16.568825"><ele>823.0</ele><time>2026-03-29T17:09:20.592Z</time></trkpt><trkpt lat="38.989935" lon="16.568825"><ele>823.6666666666666</ele><time>2026-03-29T17:09:21.592Z</time></trkpt><trkpt lat="38.98979" lon="16.5687783"><ele>824.3333333333333</ele><time>2026-03-29T17:09:22.592Z</time></trkpt><trkpt lat="38.9896433" lon="16.568705"><ele>825.0</ele><time>2026-03-29T17:09:23.592Z</time></trkpt><trkpt lat="38.9895" lon="16.5686883"><ele>825.0</ele><time>2026-03-29T17:09:24.592Z</time></trkpt><trkpt lat="38.9893417" lon="16.568725"><ele>825.0</ele><time>2026-03-29T17:09:25.592Z</time></trkpt><trkpt lat="38.9891633" lon="16.56881"><ele>825.0</ele><time>2026-03-29T17:09:26.592Z</time></trkpt><trkpt lat="38.98899" lon="16.568925"><ele>826.25</ele><time>2026-03-29T17:09:27.592Z</time></trkpt><trkpt lat="38.9888417" lon="16.5690533"><ele>827.5</ele><time>2026-03-29T17:09:28.592Z</time></trkpt><trkpt lat="38.98873" lon="16.5691667"><ele>828.75</ele><time>2026-03-29T17:09:29.592Z</time></trkpt><trkpt lat="38.9886267" lon="16.5692383"><ele>830.0</ele><time>2026-03-29T17:09:30.592Z</time></trkpt><trkpt lat="38.98851" lon="16.5692433"><ele>830.0</ele><time>2026-03-29T17:09:31.592Z</time></trkpt><trkpt lat="38.9883733" lon="16.56921"><ele>830.0</ele><time>2026-03-29T17:09:32.592Z</time></trkpt><trkpt lat="38.98823" lon="16.56921"><ele>830.0</ele><time>2026-03-29T17:09:33.592Z</time></trkpt><trkpt lat="38.9880667" lon="16.56925"><ele>830.0</ele><time>2026-03-29T17:09:34.592Z</time></trkpt><trkpt lat="38.9879133" lon="16.5692883"><ele>833.25</ele><time>2026-03-29T17:09:35.592Z</time></trkpt><trkpt lat="38.9877567" lon="16.56931"><ele>836.5</ele><time>2026-03-29T17:09:36.592Z</time></trkpt><trkpt lat="38.9876133" lon="16.5693017"><ele>839.75</ele><time>2026-03-29T17:09:37.592Z</time></trkpt><trkpt lat="38.9874817" lon="16.5693017"><ele>843.0</ele><time>2026-03-29T17:09:38.592Z</time></trkpt><trkpt lat="38.9873483" lon="16.569365"><ele>845.3333333333333</ele><time>2026-03-29T17:09:39.592Z</time></trkpt><trkpt lat="38.9872267" lon="16.56948"><ele>847.6666666666666</ele><time>2026-03-29T17:09:40.592Z</time></trkpt><trkpt lat="38.9871167" lon="16.5696283"><ele>850.0</ele><time>2026-03-29T17:09:41.592Z</time></trkpt><trkpt lat="38.9869983" lon="16.5697883"><ele>850.6666666666666</ele><time>2026-03-29T17:09:42.592Z</time></trkpt><trkpt lat="38.9868717" lon="16.5699733"><ele>851.3333333333333</ele><time>2026-03-29T17:09:43.592Z</time></trkpt><trkpt lat="38.9867617" lon="16.5701383"><ele>852.0</ele><time>2026-03-29T17:09:44.592Z</time></trkpt><trkpt lat="38.9866567" lon="16.5703133"><ele>841.3333333333333</ele><time>2026-03-29T17:09:45.592Z</time></trkpt><trkpt lat="38.9865583" lon="16.5704983"><ele>830.6666666666666</ele><time>2026-03-29T17:09:46.592Z</time></trkpt><trkpt lat="38.986455" lon="16.5706783"><ele>820.0</ele><time>2026-03-29T17:09:47.592Z</time></trkpt><trkpt lat="38.9863567" lon="16.5708317"><ele>820.0</ele><time>2026-03-29T17:09:48.592Z</time></trkpt><trkpt lat="38.9862733" lon="16.5709917"><ele>820.0</ele><time>2026-03-29T17:09:49.592Z</time></trkpt><trkpt lat="38.9861833" lon="16.57114"><ele>820.0</ele><time>2026-03-29T17:09:50.592Z</time></trkpt><trkpt lat="38.9860967" lon="16.57126"><ele>820.0</ele><time>2026-03-29T17:09:51.592Z</time></trkpt><trkpt lat="38.9860133" lon="16.5713417"><ele>818.6666666666666</ele><time>2026-03-29T17:09:52.592Z</time></trkpt><trkpt lat="38.9859383" lon="16.5714133"><ele>817.3333333333333</ele><time>2026-03-29T17:09:53.592Z</time></trkpt><trkpt lat="38.9858683" lon="16.57147"><ele>816.0</ele><time>2026-03-29T17:09:54.592Z</time></trkpt><trkpt lat="38.9858" lon="16.571515"><ele>814.6666666666667</ele><time>2026-03-29T17:09:55.592Z</time></trkpt><trkpt lat="38.985715" lon="16.571535"><ele>813.3333333333334</ele><time>2026-03-29T17:09:56.592Z</time></trkpt><trkpt lat="38.9856367" lon="16.5714967"><ele>812.0</ele><time>2026-03-29T17:09:57.592Z</time></trkpt><trkpt lat="38.98556" lon="16.5713917"><ele>812.0</ele><time>2026-03-29T17:09:58.592Z</time></trkpt><trkpt lat="38.9854767" lon="16.57123"><ele>812.0</ele><time>2026-03-29T17:09:59.592Z</time></trkpt><trkpt lat="38.985375" lon="16.57101"><ele>812.0</ele><time>2026-03-29T17:10:00.592Z</time></trkpt><trkpt lat="38.9852533" lon="16.5708033"><ele>815.3333333333334</ele><time>2026-03-29T17:10:01.592Z</time></trkpt><trkpt lat="38.9851367" lon="16.5706117"><ele>818.6666666666667</ele><time>2026-03-29T17:10:02.592Z</time></trkpt><trkpt lat="38.9850433" lon="16.5704167"><ele>822.0</ele><time>2026-03-29T17:10:03.592Z</time></trkpt><trkpt lat="38.9849617" lon="16.5702317"><ele>822.0</ele><time>2026-03-29T17:10:04.593Z</time></trkpt><trkpt lat="38.9848817" lon="16.5700767"><ele>822.0</ele><time>2026-03-29T17:10:05.592Z</time></trkpt><trkpt lat="38.9847783" lon="16.5699417"><ele>822.0</ele><time>2026-03-29T17:10:06.592Z</time></trkpt><trkpt lat="38.9846217" lon="16.5698667"><ele>822.0</ele><time>2026-03-29T17:10:07.592Z</time></trkpt><trkpt lat="38.9844617" lon="16.5698333"><ele>822.0</ele><time>2026-03-29T17:10:08.593Z</time></trkpt><trkpt lat="38.9843183" lon="16.5697783"><ele>822.0</ele><time>2026-03-29T17:10:09.592Z</time></trkpt><trkpt lat="38.98421" lon="16.5696683"><ele>817.0</ele><time>2026-03-29T17:10:10.592Z</time></trkpt><trkpt lat="38.98413" lon="16.5695267"><ele>812.0</ele><time>2026-03-29T17:10:11.592Z</time></trkpt><trkpt lat="38.9840967" lon="16.5693517"><ele>807.0</ele><time>2026-03-29T17:10:12.592Z</time></trkpt><trkpt lat="38.9841133" lon="16.5691633"><ele>802.0</ele><time>2026-03-29T17:10:13.593Z</time></trkpt><trkpt lat="38.98413" lon="16.5689617"><ele>802.0</ele><time>2026-03-29T17:10:14.593Z</time></trkpt><trkpt lat="38.9841183" lon="16.5687367"><ele>802.0</ele><time>2026-03-29T17:10:15.593Z</time></trkpt><trkpt lat="38.9840683" lon="16.568525"><ele>802.0</ele><time>2026-03-29T17:10:16.593Z</time></trkpt><trkpt lat="38.98396" lon="16.568335"><ele>800.6666666666666</ele><time>2026-03-29T17:10:17.593Z</time></trkpt><trkpt lat="38.983815" lon="16.5681683"><ele>799.3333333333333</ele><time>2026-03-29T17:10:18.593Z</time></trkpt><trkpt lat="38.98364" lon="16.56804"><ele>798.0</ele><time>2026-03-29T17:10:19.593Z</time></trkpt><trkpt lat="38.983455" lon="16.5679333"><ele>794.5</ele><time>2026-03-29T17:10:20.593Z</time></trkpt><trkpt lat="38.9833083" lon="16.567815"><ele>791.0</ele><time>2026-03-29T17:10:21.593Z</time></trkpt><trkpt lat="38.9831717" lon="16.5677467"><ele>787.5</ele><time>2026-03-29T17:10:22.594Z</time></trkpt><trkpt lat="38.9830617" lon="16.56773"><ele>784.0</ele><time>2026-03-29T17:10:23.593Z</time></trkpt><trkpt lat="38.9829533" lon="16.56775"><ele>784.0</ele><time>2026-03-29T17:10:24.593Z</time></trkpt><trkpt lat="38.982845" lon="16.567805"><ele>784.0</ele><time>2026-03-29T17:10:25.593Z</time></trkpt><trkpt lat="38.9827283" lon="16.5678767"><ele>784.0</ele><time>2026-03-29T17:10:26.593Z</time></trkpt><trkpt lat="38.98261" lon="16.56797"><ele>784.0</ele><time>2026-03-29T17:10:27.593Z</time></trkpt><trkpt lat="38.982495" lon="16.5680817"><ele>783.0</ele><time>2026-03-29T17:10:28.593Z</time></trkpt><trkpt lat="38.98238" lon="16.5681667"><ele>782.0</ele><time>2026-03-29T17:10:29.593Z</time></trkpt><trkpt lat="38.98227" lon="16.568225"><ele>781.0</ele><time>2026-03-29T17:10:30.593Z</time></trkpt><trkpt lat="38.9821617" lon="16.568245"><ele>780.0</ele><time>2026-03-29T17:10:31.593Z</time></trkpt><trkpt lat="38.9820633" lon="16.5682267"><ele>780.0</ele><time>2026-03-29T17:10:32.593Z</time></trkpt><trkpt lat="38.981975" lon="16.568165"><ele>780.0</ele><time>2026-03-29T17:10:33.593Z</time></trkpt><trkpt lat="38.9818967" lon="16.568055"><ele>780.0</ele><time>2026-03-29T17:10:34.593Z</time></trkpt><trkpt lat="38.9818" lon="16.56796"><ele>780.0</ele><time>2026-03-29T17:10:35.593Z</time></trkpt><trkpt lat="38.9816867" lon="16.5679083"><ele>779.25</ele><time>2026-03-29T17:10:36.593Z</time></trkpt><trkpt lat="38.981575" lon="16.5678833"><ele>778.5</ele><time>2026-03-29T17:10:37.593Z</time></trkpt><trkpt lat="38.98145" lon="16.5679217"><ele>777.75</ele><time>2026-03-29T17:10:38.593Z</time></trkpt><trkpt lat="38.9813333" lon="16.5680217"><ele>777.0</ele><time>2026-03-29T17:10:39.593Z</time></trkpt><trkpt lat="38.9812217" lon="16.5681717"><ele>777.0</ele><time>2026-03-29T17:10:40.593Z</time></trkpt><trkpt lat="38.98115" lon="16.56834"><ele>777.0</ele><time>2026-03-29T17:10:41.593Z</time></trkpt><trkpt lat="38.9811167" lon="16.5684933"><ele>777.0</ele><time>2026-03-29T17:10:42.593Z</time></trkpt><trkpt lat="38.981055" lon="16.5686367"><ele>777.0</ele><time>2026-03-29T17:10:43.594Z</time></trkpt><trkpt lat="38.9809567" lon="16.5687467"><ele>776.5</ele><time>2026-03-29T17:10:44.593Z</time></trkpt><trkpt lat="38.9808517" lon="16.56884"><ele>776.0</ele><time>2026-03-29T17:10:45.593Z</time></trkpt><trkpt lat="38.9807283" lon="16.5689233"><ele>775.5</ele><time>2026-03-29T17:10:46.593Z</time></trkpt><trkpt lat="38.9806033" lon="16.5690217"><ele>775.0</ele><time>2026-03-29T17:10:47.593Z</time></trkpt><trkpt lat="38.9805033" lon="16.56914"><ele>775.0</ele><time>2026-03-29T17:10:48.593Z</time></trkpt><trkpt lat="38.980435" lon="16.5692983"><ele>775.0</ele><time>2026-03-29T17:10:49.593Z</time></trkpt><trkpt lat="38.9803883" lon="16.569485"><ele>775.0</ele><time>2026-03-29T17:10:50.593Z</time></trkpt><trkpt lat="38.980365" lon="16.5697"><ele>772.25</ele><time>2026-03-29T17:10:51.593Z</time></trkpt><trkpt lat="38.9803367" lon="16.5698983"><ele>769.5</ele><time>2026-03-29T17:10:52.593Z</time></trkpt><trkpt lat="38.98031" lon="16.5700617"><ele>766.75</ele><time>2026-03-29T17:10:53.593Z</time></trkpt><trkpt lat="38.980285" lon="16.5702"><ele>764.0</ele><time>2026-03-29T17:10:54.593Z</time></trkpt><trkpt lat="38.9802333" lon="16.57031"><ele>763.0</ele><time>2026-03-29T17:10:55.593Z</time></trkpt><trkpt lat="38.9801533" lon="16.5703833"><ele>762.0</ele><time>2026-03-29T17:10:56.593Z</time></trkpt><trkpt lat="38.9800333" lon="16.5704067"><ele>761.0</ele><time>2026-03-29T17:10:57.593Z</time></trkpt><trkpt lat="38.979905" lon="16.5704133"><ele>760.0</ele><time>2026-03-29T17:10:58.593Z</time></trkpt><trkpt lat="38.97978" lon="16.5704233"><ele>762.0</ele><time>2026-03-29T17:10:59.593Z</time></trkpt><trkpt lat="38.97966" lon="16.5704567"><ele>764.0</ele><time>2026-03-29T17:11:00.593Z</time></trkpt><trkpt lat="38.9795533" lon="16.5705183"><ele>766.0</ele><time>2026-03-29T17:11:01.593Z</time></trkpt><trkpt lat="38.979475" lon="16.5705967"><ele>768.0</ele><time>2026-03-29T17:11:02.593Z</time></trkpt><trkpt lat="38.9794067" lon="16.5706633"><ele>770.0</ele><time>2026-03-29T17:11:03.593Z</time></trkpt><trkpt lat="38.9793467" lon="16.57071"><ele>770.0</ele><time>2026-03-29T17:11:04.593Z</time></trkpt><trkpt lat="38.9792517" lon="16.57077"><ele>770.0</ele><time>2026-03-29T17:11:06.593Z</time></trkpt><trkpt lat="38.9791317" lon="16.5708133"><ele>770.0</ele><time>2026-03-29T17:11:08.594Z</time></trkpt><trkpt lat="38.979025" lon="16.5708417"><ele>770.0</ele><time>2026-03-29T17:11:10.593Z</time></trkpt><trkpt lat="38.9789517" lon="16.5708667"><ele>770.0</ele><time>2026-03-29T17:11:12.593Z</time></trkpt><trkpt lat="38.9788467" lon="16.5709417"><ele>768.4</ele><time>2026-03-29T17:11:40.593Z</time></trkpt><trkpt lat="38.9787867" lon="16.5710067"><ele>766.8</ele><time>2026-03-29T17:11:41.593Z</time></trkpt><trkpt lat="38.9787233" lon="16.5711"><ele>765.2</ele><time>2026-03-29T17:11:42.593Z</time></trkpt><trkpt lat="38.97868" lon="16.5712017"><ele>763.6</ele><time>2026-03-29T17:11:43.593Z</time></trkpt><trkpt lat="38.9786633" lon="16.57132"><ele>762.0</ele><time>2026-03-29T17:11:44.593Z</time></trkpt><trkpt lat="38.97867" lon="16.571445"><ele>762.0</ele><time>2026-03-29T17:11:45.593Z</time></trkpt><trkpt lat="38.9786867" lon="16.5716017"><ele>762.0</ele><time>2026-03-29T17:11:46.594Z</time></trkpt><trkpt lat="38.97874" lon="16.5717883"><ele>762.0</ele><time>2026-03-29T17:11:47.593Z</time></trkpt><trkpt lat="38.9788233" lon="16.5719967"><ele>761.5</ele><time>2026-03-29T17:11:48.593Z</time></trkpt><trkpt lat="38.9788867" lon="16.57217"><ele>761.0</ele><time>2026-03-29T17:11:49.593Z</time></trkpt><trkpt lat="38.9789067" lon="16.5723283"><ele>760.5</ele><time>2026-03-29T17:11:50.593Z</time></trkpt><trkpt lat="38.978895" lon="16.57247"><ele>760.0</ele><time>2026-03-29T17:11:51.593Z</time></trkpt><trkpt lat="38.978835" lon="16.57259"><ele>760.0</ele><time>2026-03-29T17:11:52.593Z</time></trkpt><trkpt lat="38.9787733" lon="16.5726717"><ele>760.0</ele><time>2026-03-29T17:11:53.593Z</time></trkpt><trkpt lat="38.97866" lon="16.5727583"><ele>760.0</ele><time>2026-03-29T17:11:54.593Z</time></trkpt><trkpt lat="38.9785017" lon="16.572815"><ele>760.0</ele><time>2026-03-29T17:11:55.593Z</time></trkpt><trkpt lat="38.9783367" lon="16.5728833"><ele>765.5</ele><time>2026-03-29T17:11:56.593Z</time></trkpt><trkpt lat="38.9782" lon="16.572945"><ele>771.0</ele><time>2026-03-29T17:11:57.593Z</time></trkpt><trkpt lat="38.9780933" lon="16.5730467"><ele>776.5</ele><time>2026-03-29T17:11:58.593Z</time></trkpt><trkpt lat="38.97805" lon="16.5731667"><ele>782.0</ele><time>2026-03-29T17:11:59.593Z</time></trkpt><trkpt lat="38.9780567" lon="16.5733083"><ele>782.0</ele><time>2026-03-29T17:12:00.593Z</time></trkpt><trkpt lat="38.9781133" lon="16.5734517"><ele>782.0</ele><time>2026-03-29T17:12:01.593Z</time></trkpt><trkpt lat="38.9782" lon="16.5735833"><ele>782.0</ele><time>2026-03-29T17:12:02.593Z</time></trkpt><trkpt lat="38.97832" lon="16.573685"><ele>782.0</ele><time>2026-03-29T17:12:03.593Z</time></trkpt><trkpt lat="38.9784317" lon="16.5737617"><ele>773.4000000000001</ele><time>2026-03-29T17:12:04.593Z</time></trkpt><trkpt lat="38.9785283" lon="16.573845"><ele>764.8000000000001</ele><time>2026-03-29T17:12:05.594Z</time></trkpt><trkpt lat="38.97856" lon="16.5739567"><ele>756.2</ele><time>2026-03-29T17:12:06.593Z</time></trkpt><trkpt lat="38.9785583" lon="16.5741017"><ele>747.6</ele><time>2026-03-29T17:12:07.593Z</time></trkpt><trkpt lat="38.9785283" lon="16.5742417"><ele>739.0</ele><time>2026-03-29T17:12:08.593Z</time></trkpt><trkpt lat="38.9785283" lon="16.5743883"><ele>742.0</ele><time>2026-03-29T17:12:09.593Z</time></trkpt><trkpt lat="38.9785717" lon="16.5745467"><ele>745.0</ele><time>2026-03-29T17:12:10.593Z</time></trkpt><trkpt lat="38.9786483" lon="16.57469"><ele>748.0</ele><time>2026-03-29T17:12:11.593Z</time></trkpt><trkpt lat="38.9787067" lon="16.5748317"><ele>751.0</ele><time>2026-03-29T17:12:12.593Z</time></trkpt><trkpt lat="38.9787833" lon="16.57495"><ele>751.0</ele><time>2026-03-29T17:12:13.593Z</time></trkpt><trkpt lat="38.9788333" lon="16.5750733"><ele>751.0</ele><time>2026-03-29T17:12:14.593Z</time></trkpt><trkpt lat="38.9788533" lon="16.575195"><ele>751.0</ele><time>2026-03-29T17:12:15.593Z</time></trkpt><trkpt lat="38.978815" lon="16.5753467"><ele>751.0</ele><time>2026-03-29T17:12:16.593Z</time></trkpt><trkpt lat="38.97876" lon="16.5754917"><ele>746.0</ele><time>2026-03-29T17:12:17.593Z</time></trkpt><trkpt lat="38.9786683" lon="16.5756683"><ele>741.0</ele><time>2026-03-29T17:12:18.593Z</time></trkpt><trkpt lat="38.97857" lon="16.5758217"><ele>736.0</ele><time>2026-03-29T17:12:19.593Z</time></trkpt><trkpt lat="38.9784683" lon="16.5759483"><ele>736.0</ele><time>2026-03-29T17:12:20.593Z</time></trkpt><trkpt lat="38.9783633" lon="16.5760683"><ele>736.0</ele><time>2026-03-29T17:12:21.593Z</time></trkpt><trkpt lat="38.9783033" lon="16.5762183"><ele>736.0</ele><time>2026-03-29T17:12:22.593Z</time></trkpt><trkpt lat="38.9783017" lon="16.5764083"><ele>736.0</ele><time>2026-03-29T17:12:23.593Z</time></trkpt><trkpt lat="38.9782983" lon="16.57661"><ele>739.0</ele><time>2026-03-29T17:12:24.593Z</time></trkpt><trkpt lat="38.97829" lon="16.5767983"><ele>742.0</ele><time>2026-03-29T17:12:25.593Z</time></trkpt><trkpt lat="38.9782683" lon="16.576945"><ele>745.0</ele><time>2026-03-29T17:12:26.593Z</time></trkpt><trkpt lat="38.97822" lon="16.5770683"><ele>748.0</ele><time>2026-03-29T17:12:27.594Z</time></trkpt><trkpt lat="38.97813" lon="16.5771617"><ele>748.0</ele><time>2026-03-29T17:12:28.593Z</time></trkpt><trkpt lat="38.978005" lon="16.577245"><ele>748.0</ele><time>2026-03-29T17:12:29.593Z</time></trkpt><trkpt lat="38.9778767" lon="16.5773167"><ele>748.0</ele><time>2026-03-29T17:12:30.593Z</time></trkpt><trkpt lat="38.977755" lon="16.57736"><ele>748.0</ele><time>2026-03-29T17:12:31.593Z</time></trkpt><trkpt lat="38.9776117" lon="16.5773717"><ele>751.0</ele><time>2026-03-29T17:12:32.593Z</time></trkpt><trkpt lat="38.9774933" lon="16.5772983"><ele>754.0</ele><time>2026-03-29T17:12:33.593Z</time></trkpt><trkpt lat="38.97738" lon="16.577245"><ele>757.0</ele><time>2026-03-29T17:12:34.593Z</time></trkpt><trkpt lat="38.9772933" lon="16.5772217"><ele>760.0</ele><time>2026-03-29T17:12:35.593Z</time></trkpt><trkpt lat="38.977215" lon="16.57725"><ele>763.0</ele><time>2026-03-29T17:12:36.593Z</time></trkpt><trkpt lat="38.9771517" lon="16.5773117"><ele>763.0</ele><time>2026-03-29T17:12:37.593Z</time></trkpt><trkpt lat="38.9770867" lon="16.5773917"><ele>763.0</ele><time>2026-03-29T17:12:38.593Z</time></trkpt><trkpt lat="38.9770483" lon="16.5775417"><ele>763.0</ele><time>2026-03-29T17:12:39.594Z</time></trkpt><trkpt lat="38.9770467" lon="16.5777383"><ele>763.0</ele><time>2026-03-29T17:12:40.593Z</time></trkpt><trkpt lat="38.9771333" lon="16.5779767"><ele>760.0</ele><time>2026-03-29T17:12:41.593Z</time></trkpt><trkpt lat="38.97724" lon="16.5781583"><ele>757.0</ele><time>2026-03-29T17:12:42.593Z</time></trkpt><trkpt lat="38.9773167" lon="16.578305"><ele>754.0</ele><time>2026-03-29T17:12:43.593Z</time></trkpt><trkpt lat="38.97735" lon="16.5784333"><ele>751.0</ele><time>2026-03-29T17:12:44.593Z</time></trkpt><trkpt lat="38.9773617" lon="16.578565"><ele>746.25</ele><time>2026-03-29T17:12:45.593Z</time></trkpt><trkpt lat="38.977315" lon="16.5786933"><ele>741.5</ele><time>2026-03-29T17:12:46.593Z</time></trkpt><trkpt lat="38.9772317" lon="16.57882"><ele>736.75</ele><time>2026-03-29T17:12:47.593Z</time></trkpt><trkpt lat="38.9770983" lon="16.5789517"><ele>732.0</ele><time>2026-03-29T17:12:48.593Z</time></trkpt><trkpt lat="38.9769467" lon="16.57906"><ele>732.0</ele><time>2026-03-29T17:12:49.593Z</time></trkpt><trkpt lat="38.976805" lon="16.5791417"><ele>732.0</ele><time>2026-03-29T17:12:50.593Z</time></trkpt><trkpt lat="38.97666" lon="16.5791867"><ele>732.0</ele><time>2026-03-29T17:12:51.593Z</time></trkpt><trkpt lat="38.976515" lon="16.5791917"><ele>732.0</ele><time>2026-03-29T17:12:52.593Z</time></trkpt><trkpt lat="38.9763567" lon="16.5791417"><ele>736.3333333333334</ele><time>2026-03-29T17:12:53.593Z</time></trkpt><trkpt lat="38.9762017" lon="16.579075"><ele>740.6666666666667</ele><time>2026-03-29T17:12:54.593Z</time></trkpt><trkpt lat="38.9760517" lon="16.5789883"><ele>745.0</ele><time>2026-03-29T17:12:55.593Z</time></trkpt><trkpt lat="38.97592" lon="16.5789167"><ele>742.75</ele><time>2026-03-29T17:12:56.593Z</time></trkpt><trkpt lat="38.9758083" lon="16.57881"><ele>740.5</ele><time>2026-03-29T17:12:57.593Z</time></trkpt><trkpt lat="38.9756967" lon="16.5786817"><ele>738.25</ele><time>2026-03-29T17:12:58.593Z</time></trkpt><trkpt lat="38.97558" lon="16.5785867"><ele>736.0</ele><time>2026-03-29T17:12:59.593Z</time></trkpt><trkpt lat="38.9754483" lon="16.5785533"><ele>736.0</ele><time>2026-03-29T17:13:00.593Z</time></trkpt><trkpt lat="38.9753067" lon="16.5785567"><ele>736.0</ele><time>2026-03-29T17:13:01.593Z</time></trkpt><trkpt lat="38.9751833" lon="16.578605"><ele>736.0</ele><time>2026-03-29T17:13:02.593Z</time></trkpt><trkpt lat="38.975065" lon="16.5786933"><ele>736.0</ele><time>2026-03-29T17:13:03.593Z</time></trkpt><trkpt lat="38.97498" lon="16.5788267"><ele>739.6666666666667</ele><time>2026-03-29T17:13:04.593Z</time></trkpt><trkpt lat="38.9749117" lon="16.5790067"><ele>743.3333333333334</ele><time>2026-03-29T17:13:05.593Z</time></trkpt><trkpt lat="38.9748433" lon="16.579215"><ele>747.0</ele><time>2026-03-29T17:13:06.593Z</time></trkpt><trkpt lat="38.974775" lon="16.5793933"><ele>743.0</ele><time>2026-03-29T17:13:07.593Z</time></trkpt><trkpt lat="38.97472" lon="16.5795667"><ele>739.0</ele><time>2026-03-29T17:13:08.593Z</time></trkpt><trkpt lat="38.974705" lon="16.5797567"><ele>735.0</ele><time>2026-03-29T17:13:09.593Z</time></trkpt><trkpt lat="38.9747317" lon="16.579965"><ele>735.0</ele><time>2026-03-29T17:13:10.593Z</time></trkpt><trkpt lat="38.9747883" lon="16.5801717"><ele>735.0</ele><time>2026-03-29T17:13:11.593Z</time></trkpt><trkpt lat="38.9748583" lon="16.5803867"><ele>735.0</ele><time>2026-03-29T17:13:12.593Z</time></trkpt><trkpt lat="38.9749167" lon="16.58061"><ele>736.3333333333334</ele><time>2026-03-29T17:13:13.593Z</time></trkpt><trkpt lat="38.9749667" lon="16.5808517"><ele>737.6666666666667</ele><time>2026-03-29T17:13:14.593Z</time></trkpt><trkpt lat="38.97501" lon="16.581075"><ele>739.0</ele><time>2026-03-29T17:13:15.593Z</time></trkpt><trkpt lat="38.9750467" lon="16.5812617"><ele>737.2</ele><time>2026-03-29T17:13:16.593Z</time></trkpt><trkpt lat="38.97506" lon="16.5814067"><ele>735.4000000000001</ele><time>2026-03-29T17:13:17.593Z</time></trkpt><trkpt lat="38.9750367" lon="16.5815383"><ele>733.6</ele><time>2026-03-29T17:13:18.593Z</time></trkpt><trkpt lat="38.9749817" lon="16.5816467"><ele>731.8</ele><time>2026-03-29T17:13:19.593Z</time></trkpt><trkpt lat="38.9748883" lon="16.581725"><ele>730.0</ele><time>2026-03-29T17:13:20.593Z</time></trkpt><trkpt lat="38.9747817" lon="16.581795"><ele>730.0</ele><time>2026-03-29T17:13:21.593Z</time></trkpt><trkpt lat="38.974695" lon="16.5818967"><ele>730.0</ele><time>2026-03-29T17:13:22.593Z</time></trkpt><trkpt lat="38.9746367" lon="16.5820617"><ele>730.0</ele><time>2026-03-29T17:13:23.593Z</time></trkpt><trkpt lat="38.97463" lon="16.5822633"><ele>730.0</ele><time>2026-03-29T17:13:24.593Z</time></trkpt><trkpt lat="38.9746567" lon="16.5824967"><ele>729.25</ele><time>2026-03-29T17:13:25.593Z</time></trkpt><trkpt lat="38.974695" lon="16.5827117"><ele>728.5</ele><time>2026-03-29T17:13:26.593Z</time></trkpt><trkpt lat="38.974735" lon="16.5828917"><ele>727.75</ele><time>2026-03-29T17:13:27.593Z</time></trkpt><trkpt lat="38.9748117" lon="16.583025"><ele>727.0</ele><time>2026-03-29T17:13:28.593Z</time></trkpt><trkpt lat="38.9749" lon="16.5831317"><ele>716.5</ele><time>2026-03-29T17:13:29.593Z</time></trkpt><trkpt lat="38.9750233" lon="16.5832133"><ele>706.0</ele><time>2026-03-29T17:13:30.593Z</time></trkpt><trkpt lat="38.9751483" lon="16.5832717"><ele>695.5</ele><time>2026-03-29T17:13:31.593Z</time></trkpt><trkpt lat="38.9752533" lon="16.5833683"><ele>685.0</ele><time>2026-03-29T17:13:32.593Z</time></trkpt><trkpt lat="38.97528" lon="16.58352"><ele>685.0</ele><time>2026-03-29T17:13:33.593Z</time></trkpt><trkpt lat="38.9753133" lon="16.5836483"><ele>685.0</ele><time>2026-03-29T17:13:34.593Z</time></trkpt><trkpt lat="38.9752867" lon="16.5837833"><ele>685.0</ele><time>2026-03-29T17:13:35.593Z</time></trkpt><trkpt lat="38.9752017" lon="16.5839067"><ele>685.0</ele><time>2026-03-29T17:13:36.593Z</time></trkpt><trkpt lat="38.975095" lon="16.58405"><ele>693.3333333333334</ele><time>2026-03-29T17:13:37.593Z</time></trkpt><trkpt lat="38.975" lon="16.5842383"><ele>701.6666666666666</ele><time>2026-03-29T17:13:38.593Z</time></trkpt><trkpt lat="38.974925" lon="16.5844633"><ele>710.0</ele><time>2026-03-29T17:13:39.593Z</time></trkpt><trkpt lat="38.9748917" lon="16.58469"><ele>710.0</ele><time>2026-03-29T17:13:40.593Z</time></trkpt><trkpt lat="38.9748633" lon="16.5849167"><ele>710.0</ele><time>2026-03-29T17:13:41.593Z</time></trkpt><trkpt lat="38.9748417" lon="16.5851167"><ele>710.0</ele><time>2026-03-29T17:13:42.593Z</time></trkpt><trkpt lat="38.974815" lon="16.585285"><ele>709.8</ele><time>2026-03-29T17:13:43.594Z</time></trkpt><trkpt lat="38.9748033" lon="16.5854367"><ele>709.6</ele><time>2026-03-29T17:13:44.593Z</time></trkpt><trkpt lat="38.9747783" lon="16.58556"><ele>709.4000000000001</ele><time>2026-03-29T17:13:45.593Z</time></trkpt><trkpt lat="38.97474" lon="16.5856417"><ele>709.2</ele><time>2026-03-29T17:13:46.593Z</time></trkpt><trkpt lat="38.97469" lon="16.585695"><ele>709.0</ele><time>2026-03-29T17:13:47.593Z</time></trkpt><trkpt lat="38.9745933" lon="16.5857267"><ele>709.0</ele><time>2026-03-29T17:13:49.593Z</time></trkpt><trkpt lat="38.9745133" lon="16.5856867"><ele>709.0</ele><time>2026-03-29T17:13:51.594Z</time></trkpt><trkpt lat="38.97445" lon="16.5856183"><ele>709.0</ele><time>2026-03-29T17:13:53.593Z</time></trkpt><trkpt lat="38.97439" lon="16.5855317"><ele>709.0</ele><time>2026-03-29T17:13:55.593Z</time></trkpt><trkpt lat="38.9743233" lon="16.585435"><ele>709.0</ele><time>2026-03-29T17:13:57.593Z</time></trkpt><trkpt lat="38.97424" lon="16.5853233"><ele>709.2</ele><time>2026-03-29T17:13:59.593Z</time></trkpt><trkpt lat="38.9741983" lon="16.5852617"><ele>709.4000000000001</ele><time>2026-03-29T17:14:00.593Z</time></trkpt><trkpt lat="38.9741517" lon="16.5852017"><ele>709.6</ele><time>2026-03-29T17:14:01.593Z</time></trkpt><trkpt lat="38.9740433" lon="16.5851"><ele>709.8</ele><time>2026-03-29T17:14:03.593Z</time></trkpt><trkpt lat="38.9738983" lon="16.5849817"><ele>710.0</ele><time>2026-03-29T17:14:05.593Z</time></trkpt><trkpt lat="38.97382" lon="16.5849183"><ele>709.4</ele><time>2026-03-29T17:14:06.593Z</time></trkpt><trkpt lat="38.973735" lon="16.5848583"><ele>708.8</ele><time>2026-03-29T17:14:07.593Z</time></trkpt><trkpt lat="38.9736467" lon="16.5848133"><ele>708.2</ele><time>2026-03-29T17:14:08.593Z</time></trkpt><trkpt lat="38.9735483" lon="16.5848017"><ele>707.6</ele><time>2026-03-29T17:14:09.593Z</time></trkpt><trkpt lat="38.9734433" lon="16.5848117"><ele>707.0</ele><time>2026-03-29T17:14:10.593Z</time></trkpt><trkpt lat="38.9733433" lon="16.5848367"><ele>707.0</ele><time>2026-03-29T17:14:11.593Z</time></trkpt><trkpt lat="38.9732317" lon="16.5848467"><ele>707.0</ele><time>2026-03-29T17:14:12.593Z</time></trkpt><trkpt lat="38.9731083" lon="16.5848417"><ele>707.0</ele><time>2026-03-29T17:14:13.593Z</time></trkpt><trkpt lat="38.972965" lon="16.5848133"><ele>707.0</ele><time>2026-03-29T17:14:14.593Z</time></trkpt><trkpt lat="38.9728133" lon="16.5847933"><ele>707.0</ele><time>2026-03-29T17:14:15.593Z</time></trkpt><trkpt lat="38.9726567" lon="16.5847767"><ele>707.0</ele><time>2026-03-29T17:14:16.593Z</time></trkpt><trkpt lat="38.9725" lon="16.5847617"><ele>707.0</ele><time>2026-03-29T17:14:17.593Z</time></trkpt><trkpt lat="38.9723417" lon="16.5847717"><ele>705.0</ele><time>2026-03-29T17:14:18.593Z</time></trkpt><trkpt lat="38.9721967" lon="16.5848017"><ele>703.0</ele><time>2026-03-29T17:14:19.593Z</time></trkpt><trkpt lat="38.972045" lon="16.5848633"><ele>701.0</ele><time>2026-03-29T17:14:20.593Z</time></trkpt><trkpt lat="38.9719467" lon="16.584975"><ele>699.0</ele><time>2026-03-29T17:14:21.593Z</time></trkpt><trkpt lat="38.9718917" lon="16.5851267"><ele>699.0</ele><time>2026-03-29T17:14:22.593Z</time></trkpt><trkpt lat="38.9719" lon="16.5852983"><ele>699.0</ele><time>2026-03-29T17:14:23.593Z</time></trkpt><trkpt lat="38.97189" lon="16.5854683"><ele>699.0</ele><time>2026-03-29T17:14:24.594Z</time></trkpt><trkpt lat="38.9718483" lon="16.5855933"><ele>699.0</ele><time>2026-03-29T17:14:25.593Z</time></trkpt><trkpt lat="38.9717933" lon="16.585675"><ele>697.5</ele><time>2026-03-29T17:14:26.593Z</time></trkpt><trkpt lat="38.97171" lon="16.5857"><ele>696.0</ele><time>2026-03-29T17:14:27.593Z</time></trkpt><trkpt lat="38.9716083" lon="16.5856867"><ele>694.5</ele><time>2026-03-29T17:14:28.593Z</time></trkpt><trkpt lat="38.9714883" lon="16.5856133"><ele>693.0</ele><time>2026-03-29T17:14:29.593Z</time></trkpt><trkpt lat="38.97134" lon="16.5855067"><ele>693.0</ele><time>2026-03-29T17:14:30.593Z</time></trkpt><trkpt lat="38.9711717" lon="16.5854"><ele>693.0</ele><time>2026-03-29T17:14:31.593Z</time></trkpt><trkpt lat="38.9709983" lon="16.58533"><ele>693.0</ele><time>2026-03-29T17:14:32.593Z</time></trkpt><trkpt lat="38.9708417" lon="16.58531"><ele>694.25</ele><time>2026-03-29T17:14:33.593Z</time></trkpt><trkpt lat="38.97072" lon="16.58533"><ele>695.5</ele><time>2026-03-29T17:14:34.593Z</time></trkpt><trkpt lat="38.970625" lon="16.5853817"><ele>696.75</ele><time>2026-03-29T17:14:35.593Z</time></trkpt><trkpt lat="38.9705417" lon="16.5854617"><ele>698.0</ele><time>2026-03-29T17:14:36.593Z</time></trkpt><trkpt lat="38.970475" lon="16.5856033"><ele>698.0</ele><time>2026-03-29T17:14:37.593Z</time></trkpt><trkpt lat="38.9704233" lon="16.5858083"><ele>698.0</ele><time>2026-03-29T17:14:38.593Z</time></trkpt><trkpt lat="38.97043" lon="16.586055"><ele>698.0</ele><time>2026-03-29T17:14:39.593Z</time></trkpt><trkpt lat="38.9704133" lon="16.5862817"><ele>692.75</ele><time>2026-03-29T17:14:40.593Z</time></trkpt><trkpt lat="38.9703833" lon="16.5864817"><ele>687.5</ele><time>2026-03-29T17:14:41.593Z</time></trkpt><trkpt lat="38.9703067" lon="16.5866317"><ele>682.25</ele><time>2026-03-29T17:14:42.593Z</time></trkpt><trkpt lat="38.970195" lon="16.5867267"><ele>677.0</ele><time>2026-03-29T17:14:43.593Z</time></trkpt><trkpt lat="38.9700917" lon="16.5867867"><ele>684.25</ele><time>2026-03-29T17:14:44.593Z</time></trkpt><trkpt lat="38.969975" lon="16.5868083"><ele>691.5</ele><time>2026-03-29T17:14:45.593Z</time></trkpt><trkpt lat="38.9698667" lon="16.5867733"><ele>698.75</ele><time>2026-03-29T17:14:46.593Z</time></trkpt><trkpt lat="38.96974" lon="16.5867517"><ele>706.0</ele><time>2026-03-29T17:14:47.593Z</time></trkpt><trkpt lat="38.969585" lon="16.58677"><ele>706.0</ele><time>2026-03-29T17:14:48.593Z</time></trkpt><trkpt lat="38.969415" lon="16.5868133"><ele>706.0</ele><time>2026-03-29T17:14:49.593Z</time></trkpt><trkpt lat="38.9692533" lon="16.5868733"><ele>706.0</ele><time>2026-03-29T17:14:50.593Z</time></trkpt><trkpt lat="38.9691083" lon="16.58692"><ele>709.5</ele><time>2026-03-29T17:14:51.593Z</time></trkpt><trkpt lat="38.9689767" lon="16.5869383"><ele>713.0</ele><time>2026-03-29T17:14:52.593Z</time></trkpt><trkpt lat="38.968835" lon="16.5869433"><ele>716.5</ele><time>2026-03-29T17:14:53.593Z</time></trkpt><trkpt lat="38.968695" lon="16.5868933"><ele>720.0</ele><time>2026-03-29T17:14:54.593Z</time></trkpt><trkpt lat="38.968545" lon="16.5868217"><ele>720.0</ele><time>2026-03-29T17:14:55.593Z</time></trkpt><trkpt lat="38.9683817" lon="16.5867517"><ele>720.0</ele><time>2026-03-29T17:14:56.593Z</time></trkpt><trkpt lat="38.9682183" lon="16.5867317"><ele>720.0</ele><time>2026-03-29T17:14:57.593Z</time></trkpt><trkpt lat="38.9680617" lon="16.5867267"><ele>717.3333333333334</ele><time>2026-03-29T17:14:58.593Z</time></trkpt><trkpt lat="38.9678867" lon="16.5867567"><ele>714.6666666666667</ele><time>2026-03-29T17:14:59.594Z</time></trkpt><trkpt lat="38.9677167" lon="16.5867983"><ele>712.0</ele><time>2026-03-29T17:15:00.593Z</time></trkpt><trkpt lat="38.967565" lon="16.5868483"><ele>710.6666666666667</ele><time>2026-03-29T17:15:01.593Z</time></trkpt><trkpt lat="38.967425" lon="16.5869317"><ele>709.3333333333334</ele><time>2026-03-29T17:15:02.593Z</time></trkpt><trkpt lat="38.9673133" lon="16.5870233"><ele>708.0</ele><time>2026-03-29T17:15:03.593Z</time></trkpt><trkpt lat="38.9671833" lon="16.5871567"><ele>693.6666666666666</ele><time>2026-03-29T17:15:04.593Z</time></trkpt><trkpt lat="38.9670417" lon="16.587295"><ele>679.3333333333333</ele><time>2026-03-29T17:15:05.593Z</time></trkpt><trkpt lat="38.9669167" lon="16.5874133"><ele>665.0</ele><time>2026-03-29T17:15:06.593Z</time></trkpt><trkpt lat="38.9667983" lon="16.5875467"><ele>664.3333333333333</ele><time>2026-03-29T17:15:07.594Z</time></trkpt><trkpt lat="38.9666933" lon="16.5876917"><ele>663.6666666666666</ele><time>2026-03-29T17:15:08.593Z</time></trkpt><trkpt lat="38.96658" lon="16.5878517"><ele>663.0</ele><time>2026-03-29T17:15:09.593Z</time></trkpt><trkpt lat="38.9664633" lon="16.5880017"><ele>663.0</ele><time>2026-03-29T17:15:10.593Z</time></trkpt><trkpt lat="38.966365" lon="16.5881833"><ele>663.0</ele><time>2026-03-29T17:15:11.593Z</time></trkpt><trkpt lat="38.9662983" lon="16.588365"><ele>663.0</ele><time>2026-03-29T17:15:12.593Z</time></trkpt><trkpt lat="38.9662433" lon="16.5885583"><ele>658.5</ele><time>2026-03-29T17:15:13.593Z</time></trkpt><trkpt lat="38.96619" lon="16.5887583"><ele>654.0</ele><time>2026-03-29T17:15:14.593Z</time></trkpt><trkpt lat="38.9661483" lon="16.5889333"><ele>649.5</ele><time>2026-03-29T17:15:15.593Z</time></trkpt><trkpt lat="38.9660833" lon="16.5890717"><ele>645.0</ele><time>2026-03-29T17:15:16.593Z</time></trkpt><trkpt lat="38.9659967" lon="16.5891483"><ele>645.0</ele><time>2026-03-29T17:15:17.593Z</time></trkpt><trkpt lat="38.9658917" lon="16.5891767"><ele>645.0</ele><time>2026-03-29T17:15:18.593Z</time></trkpt><trkpt lat="38.9657733" lon="16.5891267"><ele>645.0</ele><time>2026-03-29T17:15:19.593Z</time></trkpt><trkpt lat="38.96564" lon="16.5890383"><ele>645.0</ele><time>2026-03-29T17:15:20.594Z</time></trkpt><trkpt lat="38.9655067" lon="16.5889517"><ele>650.5</ele><time>2026-03-29T17:15:21.594Z</time></trkpt><trkpt lat="38.9653833" lon="16.588865"><ele>656.0</ele><time>2026-03-29T17:15:22.594Z</time></trkpt><trkpt lat="38.965275" lon="16.5888283"><ele>661.5</ele><time>2026-03-29T17:15:23.594Z</time></trkpt><trkpt lat="38.96516" lon="16.5888383"><ele>667.0</ele><time>2026-03-29T17:15:24.594Z</time></trkpt><trkpt lat="38.9650467" lon="16.58892"><ele>666.0</ele><time>2026-03-29T17:15:25.594Z</time></trkpt><trkpt lat="38.9649217" lon="16.58906"><ele>665.0</ele><time>2026-03-29T17:15:26.594Z</time></trkpt><trkpt lat="38.9648317" lon="16.5892183"><ele>664.0</ele><time>2026-03-29T17:15:27.594Z</time></trkpt><trkpt lat="38.9647533" lon="16.5893767"><ele>664.0</ele><time>2026-03-29T17:15:28.595Z</time></trkpt><trkpt lat="38.9646867" lon="16.5895083"><ele>664.0</ele><time>2026-03-29T17:15:29.594Z</time></trkpt><trkpt lat="38.9646067" lon="16.58958"><ele>664.0</ele><time>2026-03-29T17:15:30.594Z</time></trkpt><trkpt lat="38.964525" lon="16.5895967"><ele>664.0</ele><time>2026-03-29T17:15:31.594Z</time></trkpt><trkpt lat="38.9644433" lon="16.5895617"><ele>664.0</ele><time>2026-03-29T17:15:32.594Z</time></trkpt><trkpt lat="38.9643617" lon="16.5895017"><ele>664.0</ele><time>2026-03-29T17:15:33.594Z</time></trkpt><trkpt lat="38.9642767" lon="16.5894083"><ele>664.0</ele><time>2026-03-29T17:15:34.594Z</time></trkpt><trkpt lat="38.9642083" lon="16.5892633"><ele>664.0</ele><time>2026-03-29T17:15:35.594Z</time></trkpt><trkpt lat="38.9641483" lon="16.5890667"><ele>664.0</ele><time>2026-03-29T17:15:36.594Z</time></trkpt><trkpt lat="38.96408" lon="16.58883"><ele>661.0</ele><time>2026-03-29T17:15:37.594Z</time></trkpt><trkpt lat="38.9640483" lon="16.5885367"><ele>658.0</ele><time>2026-03-29T17:15:38.594Z</time></trkpt><trkpt lat="38.9640083" lon="16.588335"><ele>655.0</ele><time>2026-03-29T17:15:39.594Z</time></trkpt><trkpt lat="38.9640083" lon="16.588175"><ele>655.0</ele><time>2026-03-29T17:15:40.594Z</time></trkpt><trkpt lat="38.96407" lon="16.588005"><ele>655.0</ele><time>2026-03-29T17:15:41.594Z</time></trkpt><trkpt lat="38.9641" lon="16.5878233"><ele>655.0</ele><time>2026-03-29T17:15:42.594Z</time></trkpt><trkpt lat="38.9640967" lon="16.5876233"><ele>655.0</ele><time>2026-03-29T17:15:43.594Z</time></trkpt><trkpt lat="38.9640617" lon="16.58742"><ele>654.75</ele><time>2026-03-29T17:15:44.594Z</time></trkpt><trkpt lat="38.964015" lon="16.5872267"><ele>654.5</ele><time>2026-03-29T17:15:45.594Z</time></trkpt><trkpt lat="38.963975" lon="16.58704"><ele>654.25</ele><time>2026-03-29T17:15:46.594Z</time></trkpt><trkpt lat="38.9639533" lon="16.5868667"><ele>654.0</ele><time>2026-03-29T17:15:47.594Z</time></trkpt><trkpt lat="38.9639717" lon="16.586695"><ele>653.5</ele><time>2026-03-29T17:15:48.594Z</time></trkpt><trkpt lat="38.964" lon="16.58654"><ele>653.0</ele><time>2026-03-29T17:15:49.594Z</time></trkpt><trkpt lat="38.9640083" lon="16.5864067"><ele>652.5</ele><time>2026-03-29T17:15:50.595Z</time></trkpt><trkpt lat="38.9639733" lon="16.58627"><ele>652.0</ele><time>2026-03-29T17:15:51.594Z</time></trkpt><trkpt lat="38.9638967" lon="16.5861467"><ele>652.0</ele><time>2026-03-29T17:15:52.594Z</time></trkpt><trkpt lat="38.9638183" lon="16.5859967"><ele>652.0</ele><time>2026-03-29T17:15:53.594Z</time></trkpt><trkpt lat="38.96375" lon="16.5858617"><ele>652.0</ele><time>2026-03-29T17:15:54.594Z</time></trkpt><trkpt lat="38.963695" lon="16.5857317"><ele>652.0</ele><time>2026-03-29T17:15:55.594Z</time></trkpt><trkpt lat="38.9636433" lon="16.585595"><ele>652.0</ele><time>2026-03-29T17:15:56.594Z</time></trkpt><trkpt lat="38.9635867" lon="16.5854767"><ele>652.0</ele><time>2026-03-29T17:15:57.594Z</time></trkpt><trkpt lat="38.96352" lon="16.5853933"><ele>652.0</ele><time>2026-03-29T17:15:58.594Z</time></trkpt><trkpt lat="38.9634317" lon="16.5853183"><ele>652.0</ele><time>2026-03-29T17:15:59.594Z</time></trkpt><trkpt lat="38.9633267" lon="16.58527"><ele>652.0</ele><time>2026-03-29T17:16:00.595Z</time></trkpt><trkpt lat="38.9632083" lon="16.5852567"><ele>648.75</ele><time>2026-03-29T17:16:01.594Z</time></trkpt><trkpt lat="38.9630683" lon="16.5852583"><ele>645.5</ele><time>2026-03-29T17:16:02.594Z</time></trkpt><trkpt lat="38.96292" lon="16.5852583"><ele>642.25</ele><time>2026-03-29T17:16:03.594Z</time></trkpt><trkpt lat="38.9627917" lon="16.5852617"><ele>639.0</ele><time>2026-03-29T17:16:04.594Z</time></trkpt><trkpt lat="38.96266" lon="16.5853117"><ele>638.0</ele><time>2026-03-29T17:16:05.594Z</time></trkpt><trkpt lat="38.9625467" lon="16.585395"><ele>637.0</ele><time>2026-03-29T17:16:06.594Z</time></trkpt><trkpt lat="38.9624583" lon="16.5855133"><ele>636.0</ele><time>2026-03-29T17:16:07.594Z</time></trkpt><trkpt lat="38.9623783" lon="16.5856467"><ele>635.0</ele><time>2026-03-29T17:16:08.594Z</time></trkpt><trkpt lat="38.9623033" lon="16.5857717"><ele>633.0</ele><time>2026-03-29T17:16:09.594Z</time></trkpt><trkpt lat="38.9622217" lon="16.585875"><ele>631.0</ele><time>2026-03-29T17:16:10.594Z</time></trkpt><trkpt lat="38.9621183" lon="16.5859183"><ele>629.0</ele><time>2026-03-29T17:16:11.594Z</time></trkpt><trkpt lat="38.96199" lon="16.5859033"><ele>627.0</ele><time>2026-03-29T17:16:12.594Z</time></trkpt><trkpt lat="38.96184" lon="16.5858767"><ele>626.0</ele><time>2026-03-29T17:16:13.594Z</time></trkpt><trkpt lat="38.961675" lon="16.5858667"><ele>625.0</ele><time>2026-03-29T17:16:14.594Z</time></trkpt><trkpt lat="38.9614833" lon="16.5858683"><ele>624.0</ele><time>2026-03-29T17:16:15.594Z</time></trkpt><trkpt lat="38.9613" lon="16.585885"><ele>624.0</ele><time>2026-03-29T17:16:16.594Z</time></trkpt><trkpt lat="38.961125" lon="16.5859167"><ele>624.0</ele><time>2026-03-29T17:16:17.594Z</time></trkpt><trkpt lat="38.960965" lon="16.5859633"><ele>624.0</ele><time>2026-03-29T17:16:18.594Z</time></trkpt><trkpt lat="38.9608133" lon="16.58607"><ele>621.0</ele><time>2026-03-29T17:16:19.594Z</time></trkpt><trkpt lat="38.960685" lon="16.5862383"><ele>618.0</ele><time>2026-03-29T17:16:20.594Z</time></trkpt><trkpt lat="38.96057" lon="16.5863983"><ele>615.0</ele><time>2026-03-29T17:16:21.595Z</time></trkpt><trkpt lat="38.96047" lon="16.5865167"><ele>615.0</ele><time>2026-03-29T17:16:22.594Z</time></trkpt><trkpt lat="38.96036" lon="16.5866"><ele>615.0</ele><time>2026-03-29T17:16:23.595Z</time></trkpt><trkpt lat="38.9602283" lon="16.5866367"><ele>615.0</ele><time>2026-03-29T17:16:24.595Z</time></trkpt><trkpt lat="38.96011" lon="16.5866483"><ele>615.0</ele><time>2026-03-29T17:16:25.594Z</time></trkpt><trkpt lat="38.9599817" lon="16.5867033"><ele>615.75</ele><time>2026-03-29T17:16:26.594Z</time></trkpt><trkpt lat="38.9598767" lon="16.5867967"><ele>616.5</ele><time>2026-03-29T17:16:27.594Z</time></trkpt><trkpt lat="38.9598033" lon="16.5869633"><ele>617.25</ele><time>2026-03-29T17:16:28.594Z</time></trkpt><trkpt lat="38.959735" lon="16.5871317"><ele>618.0</ele><time>2026-03-29T17:16:29.594Z</time></trkpt><trkpt lat="38.9596383" lon="16.5872733"><ele>614.25</ele><time>2026-03-29T17:16:30.594Z</time></trkpt><trkpt lat="38.95953" lon="16.58738"><ele>610.5</ele><time>2026-03-29T17:16:31.594Z</time></trkpt><trkpt lat="38.9594183" lon="16.5874683"><ele>606.75</ele><time>2026-03-29T17:16:32.594Z</time></trkpt><trkpt lat="38.9593333" lon="16.58759"><ele>603.0</ele><time>2026-03-29T17:16:33.594Z</time></trkpt><trkpt lat="38.95927" lon="16.5877417"><ele>598.6666666666666</ele><time>2026-03-29T17:16:34.594Z</time></trkpt><trkpt lat="38.9592583" lon="16.5879167"><ele>594.3333333333333</ele><time>2026-03-29T17:16:35.594Z</time></trkpt><trkpt lat="38.959305" lon="16.5881083"><ele>590.0</ele><time>2026-03-29T17:16:36.594Z</time></trkpt><trkpt lat="38.9593933" lon="16.5883083"><ele>590.0</ele><time>2026-03-29T17:16:37.595Z</time></trkpt><trkpt lat="38.9594517" lon="16.588515"><ele>590.0</ele><time>2026-03-29T17:16:38.594Z</time></trkpt><trkpt lat="38.95946" lon="16.5887317"><ele>590.0</ele><time>2026-03-29T17:16:39.595Z</time></trkpt><trkpt lat="38.95945" lon="16.588955"><ele>586.0</ele><time>2026-03-29T17:16:40.594Z</time></trkpt><trkpt lat="38.959425" lon="16.5891617"><ele>582.0</ele><time>2026-03-29T17:16:41.594Z</time></trkpt><trkpt lat="38.95937" lon="16.5893667"><ele>578.0</ele><time>2026-03-29T17:16:42.594Z</time></trkpt><trkpt lat="38.9592867" lon="16.5895367"><ele>583.0</ele><time>2026-03-29T17:16:43.594Z</time></trkpt><trkpt lat="38.9591817" lon="16.5897133"><ele>588.0</ele><time>2026-03-29T17:16:44.594Z</time></trkpt><trkpt lat="38.9590683" lon="16.5898883"><ele>593.0</ele><time>2026-03-29T17:16:45.594Z</time></trkpt><trkpt lat="38.958935" lon="16.5900583"><ele>593.0</ele><time>2026-03-29T17:16:46.594Z</time></trkpt><trkpt lat="38.9588167" lon="16.5902283"><ele>593.0</ele><time>2026-03-29T17:16:47.594Z</time></trkpt><trkpt lat="38.9587033" lon="16.5903883"><ele>593.0</ele><time>2026-03-29T17:16:48.594Z</time></trkpt><trkpt lat="38.958605" lon="16.590545"><ele>590.5</ele><time>2026-03-29T17:16:49.594Z</time></trkpt><trkpt lat="38.9585167" lon="16.5906867"><ele>588.0</ele><time>2026-03-29T17:16:50.594Z</time></trkpt><trkpt lat="38.9584367" lon="16.5908033"><ele>585.5</ele><time>2026-03-29T17:16:51.594Z</time></trkpt><trkpt lat="38.95833" lon="16.5908417"><ele>583.0</ele><time>2026-03-29T17:16:52.594Z</time></trkpt><trkpt lat="38.958205" lon="16.5908117"><ele>583.0</ele><time>2026-03-29T17:16:53.594Z</time></trkpt><trkpt lat="38.958085" lon="16.590745"><ele>583.0</ele><time>2026-03-29T17:16:54.594Z</time></trkpt><trkpt lat="38.9579733" lon="16.5906817"><ele>583.0</ele><time>2026-03-29T17:16:55.594Z</time></trkpt><trkpt lat="38.95786" lon="16.590665"><ele>583.0</ele><time>2026-03-29T17:16:56.594Z</time></trkpt><trkpt lat="38.9577483" lon="16.5907133"><ele>583.0</ele><time>2026-03-29T17:16:57.594Z</time></trkpt><trkpt lat="38.9576467" lon="16.5907983"><ele>583.0</ele><time>2026-03-29T17:16:58.594Z</time></trkpt><trkpt lat="38.9575667" lon="16.590935"><ele>583.0</ele><time>2026-03-29T17:16:59.594Z</time></trkpt><trkpt lat="38.9574867" lon="16.5911133"><ele>583.0</ele><time>2026-03-29T17:17:00.594Z</time></trkpt><trkpt lat="38.9574167" lon="16.5912983"><ele>580.25</ele><time>2026-03-29T17:17:01.594Z</time></trkpt><trkpt lat="38.9573433" lon="16.5914633"><ele>577.5</ele><time>2026-03-29T17:17:02.594Z</time></trkpt><trkpt lat="38.9572617" lon="16.5916067"><ele>574.75</ele><time>2026-03-29T17:17:03.594Z</time></trkpt><trkpt lat="38.95716" lon="16.5916967"><ele>572.0</ele><time>2026-03-29T17:17:04.594Z</time></trkpt><trkpt lat="38.95704" lon="16.5917467"><ele>572.0</ele><time>2026-03-29T17:17:05.594Z</time></trkpt><trkpt lat="38.9568867" lon="16.5917867"><ele>572.0</ele><time>2026-03-29T17:17:06.594Z</time></trkpt><trkpt lat="38.9567183" lon="16.591855"><ele>572.0</ele><time>2026-03-29T17:17:07.594Z</time></trkpt><trkpt lat="38.956565" lon="16.5919067"><ele>574.0</ele><time>2026-03-29T17:17:08.594Z</time></trkpt><trkpt lat="38.9563983" lon="16.5919217"><ele>576.0</ele><time>2026-03-29T17:17:09.594Z</time></trkpt><trkpt lat="38.9562467" lon="16.5919067"><ele>578.0</ele><time>2026-03-29T17:17:10.594Z</time></trkpt><trkpt lat="38.9560967" lon="16.591895"><ele>578.0</ele><time>2026-03-29T17:17:11.595Z</time></trkpt><trkpt lat="38.9559367" lon="16.5919283"><ele>578.0</ele><time>2026-03-29T17:17:12.594Z</time></trkpt><trkpt lat="38.95577" lon="16.5919733"><ele>578.0</ele><time>2026-03-29T17:17:13.594Z</time></trkpt><trkpt lat="38.9556083" lon="16.5919983"><ele>578.75</ele><time>2026-03-29T17:17:14.594Z</time></trkpt><trkpt lat="38.9554667" lon="16.59204"><ele>579.5</ele><time>2026-03-29T17:17:15.594Z</time></trkpt><trkpt lat="38.9553383" lon="16.59206"><ele>580.25</ele><time>2026-03-29T17:17:16.594Z</time></trkpt><trkpt lat="38.9552433" lon="16.5920333"><ele>581.0</ele><time>2026-03-29T17:17:17.594Z</time></trkpt><trkpt lat="38.9551767" lon="16.5919683"><ele>581.0</ele><time>2026-03-29T17:17:18.594Z</time></trkpt><trkpt lat="38.9551283" lon="16.5918867"><ele>581.0</ele><time>2026-03-29T17:17:19.594Z</time></trkpt><trkpt lat="38.95509" lon="16.5917517"><ele>581.0</ele><time>2026-03-29T17:17:20.594Z</time></trkpt><trkpt lat="38.9550583" lon="16.59157"><ele>581.0</ele><time>2026-03-29T17:17:21.594Z</time></trkpt><trkpt lat="38.9550317" lon="16.5913833"><ele>579.0</ele><time>2026-03-29T17:17:22.594Z</time></trkpt><trkpt lat="38.9550017" lon="16.591205"><ele>577.0</ele><time>2026-03-29T17:17:23.594Z</time></trkpt><trkpt lat="38.9549517" lon="16.5910417"><ele>575.0</ele><time>2026-03-29T17:17:24.595Z</time></trkpt><trkpt lat="38.9548867" lon="16.5909033"><ele>573.0</ele><time>2026-03-29T17:17:25.594Z</time></trkpt><trkpt lat="38.95482" lon="16.5907867"><ele>573.0</ele><time>2026-03-29T17:17:26.594Z</time></trkpt><trkpt lat="38.9547733" lon="16.5906617"><ele>573.0</ele><time>2026-03-29T17:17:27.594Z</time></trkpt><trkpt lat="38.95474" lon="16.5905333"><ele>573.0</ele><time>2026-03-29T17:17:28.594Z</time></trkpt><trkpt lat="38.9547167" lon="16.5903767"><ele>573.0</ele><time>2026-03-29T17:17:29.594Z</time></trkpt><trkpt lat="38.9547017" lon="16.5902133"><ele>574.5</ele><time>2026-03-29T17:17:30.594Z</time></trkpt><trkpt lat="38.95467" lon="16.590055"><ele>576.0</ele><time>2026-03-29T17:17:31.594Z</time></trkpt><trkpt lat="38.9546283" lon="16.589925"><ele>577.5</ele><time>2026-03-29T17:17:32.594Z</time></trkpt><trkpt lat="38.9545817" lon="16.5897867"><ele>579.0</ele><time>2026-03-29T17:17:33.594Z</time></trkpt><trkpt lat="38.9545133" lon="16.5896433"><ele>580.25</ele><time>2026-03-29T17:17:34.594Z</time></trkpt><trkpt lat="38.954455" lon="16.5894917"><ele>581.5</ele><time>2026-03-29T17:17:35.594Z</time></trkpt><trkpt lat="38.9544033" lon="16.5893417"><ele>582.75</ele><time>2026-03-29T17:17:36.594Z</time></trkpt><trkpt lat="38.9543617" lon="16.5891767"><ele>584.0</ele><time>2026-03-29T17:17:37.594Z</time></trkpt><trkpt lat="38.9543367" lon="16.5888117"><ele>582.6666666666666</ele><time>2026-03-29T17:17:39.594Z</time></trkpt><trkpt lat="38.9543517" lon="16.5886283"><ele>581.3333333333334</ele><time>2026-03-29T17:17:40.594Z</time></trkpt><trkpt lat="38.9543833" lon="16.588425"><ele>580.0</ele><time>2026-03-29T17:17:41.594Z</time></trkpt><trkpt lat="38.9543967" lon="16.5882267"><ele>580.0</ele><time>2026-03-29T17:17:42.594Z</time></trkpt><trkpt lat="38.9544133" lon="16.5880267"><ele>580.0</ele><time>2026-03-29T17:17:43.594Z</time></trkpt><trkpt lat="38.9544267" lon="16.5878217"><ele>580.0</ele><time>2026-03-29T17:17:44.594Z</time></trkpt><trkpt lat="38.9544383" lon="16.5876083"><ele>577.5</ele><time>2026-03-29T17:17:45.595Z</time></trkpt><trkpt lat="38.9544433" lon="16.5874267"><ele>575.0</ele><time>2026-03-29T17:17:46.594Z</time></trkpt><trkpt lat="38.9544383" lon="16.587245"><ele>572.5</ele><time>2026-03-29T17:17:47.594Z</time></trkpt><trkpt lat="38.954415" lon="16.5870533"><ele>570.0</ele><time>2026-03-29T17:17:48.594Z</time></trkpt><trkpt lat="38.9543633" lon="16.5868533"><ele>569.6666666666666</ele><time>2026-03-29T17:17:49.594Z</time></trkpt><trkpt lat="38.9542983" lon="16.5866433"><ele>569.3333333333333</ele><time>2026-03-29T17:17:50.594Z</time></trkpt><trkpt lat="38.954215" lon="16.58641"><ele>569.0</ele><time>2026-03-29T17:17:51.594Z</time></trkpt><trkpt lat="38.954135" lon="16.58617"><ele>559.6666666666666</ele><time>2026-03-29T17:17:52.594Z</time></trkpt><trkpt lat="38.954055" lon="16.585925"><ele>550.3333333333334</ele><time>2026-03-29T17:17:53.594Z</time></trkpt><trkpt lat="38.95396" lon="16.5856817"><ele>541.0</ele><time>2026-03-29T17:17:54.594Z</time></trkpt><trkpt lat="38.9538733" lon="16.5854367"><ele>543.0</ele><time>2026-03-29T17:17:55.594Z</time></trkpt><trkpt lat="38.9537833" lon="16.5852067"><ele>545.0</ele><time>2026-03-29T17:17:56.594Z</time></trkpt><trkpt lat="38.953695" lon="16.5849883"><ele>547.0</ele><time>2026-03-29T17:17:57.594Z</time></trkpt><trkpt lat="38.9536133" lon="16.5847917"><ele>547.0</ele><time>2026-03-29T17:17:58.594Z</time></trkpt><trkpt lat="38.9535433" lon="16.58461"><ele>547.0</ele><time>2026-03-29T17:17:59.594Z</time></trkpt><trkpt lat="38.9534733" lon="16.5844633"><ele>547.0</ele><time>2026-03-29T17:18:00.594Z</time></trkpt><trkpt lat="38.9533917" lon="16.5843333"><ele>547.0</ele><time>2026-03-29T17:18:01.594Z</time></trkpt><trkpt lat="38.953295" lon="16.5842283"><ele>542.0</ele><time>2026-03-29T17:18:02.594Z</time></trkpt><trkpt lat="38.9531633" lon="16.5841533"><ele>537.0</ele><time>2026-03-29T17:18:03.594Z</time></trkpt><trkpt lat="38.9530033" lon="16.5840967"><ele>532.0</ele><time>2026-03-29T17:18:04.594Z</time></trkpt><trkpt lat="38.9528267" lon="16.5840467"><ele>532.0</ele><time>2026-03-29T17:18:05.594Z</time></trkpt><trkpt lat="38.95264" lon="16.5839817"><ele>532.0</ele><time>2026-03-29T17:18:06.594Z</time></trkpt><trkpt lat="38.9524367" lon="16.5838967"><ele>532.0</ele><time>2026-03-29T17:18:07.594Z</time></trkpt><trkpt lat="38.95225" lon="16.5837983"><ele>534.3333333333334</ele><time>2026-03-29T17:18:08.594Z</time></trkpt><trkpt lat="38.9520717" lon="16.583685"><ele>536.6666666666666</ele><time>2026-03-29T17:18:09.594Z</time></trkpt><trkpt lat="38.9518933" lon="16.583575"><ele>539.0</ele><time>2026-03-29T17:18:10.594Z</time></trkpt><trkpt lat="38.9517133" lon="16.5834967"><ele>532.6666666666666</ele><time>2026-03-29T17:18:11.594Z</time></trkpt><trkpt lat="38.9515567" lon="16.583415"><ele>526.3333333333334</ele><time>2026-03-29T17:18:12.594Z</time></trkpt><trkpt lat="38.9514267" lon="16.5832917"><ele>520.0</ele><time>2026-03-29T17:18:13.594Z</time></trkpt><trkpt lat="38.951315" lon="16.5831283"><ele>520.0</ele><time>2026-03-29T17:18:14.594Z</time></trkpt><trkpt lat="38.9512133" lon="16.5829333"><ele>520.0</ele><time>2026-03-29T17:18:15.594Z</time></trkpt><trkpt lat="38.9511133" lon="16.58272"><ele>520.0</ele><time>2026-03-29T17:18:16.594Z</time></trkpt><trkpt lat="38.951005" lon="16.5825383"><ele>515.3333333333334</ele><time>2026-03-29T17:18:17.594Z</time></trkpt><trkpt lat="38.9508717" lon="16.5823817"><ele>510.66666666666663</ele><time>2026-03-29T17:18:18.594Z</time></trkpt><trkpt lat="38.9507117" lon="16.5822533"><ele>506.0</ele><time>2026-03-29T17:18:19.594Z</time></trkpt><trkpt lat="38.950545" lon="16.5821333"><ele>505.3333333333333</ele><time>2026-03-29T17:18:20.594Z</time></trkpt><trkpt lat="38.9504083" lon="16.582"><ele>504.66666666666663</ele><time>2026-03-29T17:18:21.594Z</time></trkpt><trkpt lat="38.950285" lon="16.58186"><ele>504.0</ele><time>2026-03-29T17:18:22.594Z</time></trkpt><trkpt lat="38.950165" lon="16.5817433"><ele>504.0</ele><time>2026-03-29T17:18:23.594Z</time></trkpt><trkpt lat="38.9500467" lon="16.5816483"><ele>504.0</ele><time>2026-03-29T17:18:24.594Z</time></trkpt><trkpt lat="38.9499083" lon="16.5815833"><ele>504.0</ele><time>2026-03-29T17:18:25.594Z</time></trkpt><trkpt lat="38.9497667" lon="16.5815567"><ele>504.0</ele><time>2026-03-29T17:18:26.594Z</time></trkpt><trkpt lat="38.9496267" lon="16.5815833"><ele>501.33333333333337</ele><time>2026-03-29T17:18:27.594Z</time></trkpt><trkpt lat="38.9494967" lon="16.5816733"><ele>498.6666666666667</ele><time>2026-03-29T17:18:28.594Z</time></trkpt><trkpt lat="38.9493733" lon="16.5818083"><ele>496.0</ele><time>2026-03-29T17:18:29.594Z</time></trkpt><trkpt lat="38.9492717" lon="16.5819583"><ele>493.33333333333337</ele><time>2026-03-29T17:18:30.595Z</time></trkpt><trkpt lat="38.949155" lon="16.5820833"><ele>490.66666666666663</ele><time>2026-03-29T17:18:31.594Z</time></trkpt><trkpt lat="38.9490083" lon="16.5821583"><ele>488.0</ele><time>2026-03-29T17:18:32.594Z</time></trkpt><trkpt lat="38.9488317" lon="16.5822133"><ele>488.0</ele><time>2026-03-29T17:18:33.594Z</time></trkpt><trkpt lat="38.94864" lon="16.5822583"><ele>488.0</ele><time>2026-03-29T17:18:34.594Z</time></trkpt><trkpt lat="38.9484533" lon="16.5822883"><ele>488.0</ele><time>2026-03-29T17:18:35.594Z</time></trkpt><trkpt lat="38.948255" lon="16.58234"><ele>488.3333333333333</ele><time>2026-03-29T17:18:36.594Z</time></trkpt><trkpt lat="38.9480783" lon="16.5823883"><ele>488.66666666666663</ele><time>2026-03-29T17:18:37.594Z</time></trkpt><trkpt lat="38.947895" lon="16.582425"><ele>489.0</ele><time>2026-03-29T17:18:38.594Z</time></trkpt><trkpt lat="38.9477117" lon="16.5824383"><ele>485.66666666666663</ele><time>2026-03-29T17:18:39.594Z</time></trkpt><trkpt lat="38.9475383" lon="16.5824367"><ele>482.3333333333333</ele><time>2026-03-29T17:18:40.594Z</time></trkpt><trkpt lat="38.9473767" lon="16.58241"><ele>479.0</ele><time>2026-03-29T17:18:41.595Z</time></trkpt><trkpt lat="38.9472517" lon="16.5823467"><ele>479.0</ele><time>2026-03-29T17:18:42.594Z</time></trkpt><trkpt lat="38.9471567" lon="16.582245"><ele>479.0</ele><time>2026-03-29T17:18:43.594Z</time></trkpt><trkpt lat="38.9470933" lon="16.5821017"><ele>479.0</ele><time>2026-03-29T17:18:44.594Z</time></trkpt><trkpt lat="38.9470233" lon="16.5819367"><ele>479.0</ele><time>2026-03-29T17:18:45.594Z</time></trkpt><trkpt lat="38.94694" lon="16.5817617"><ele>478.66666666666663</ele><time>2026-03-29T17:18:46.594Z</time></trkpt><trkpt lat="38.9468467" lon="16.5815717"><ele>478.33333333333337</ele><time>2026-03-29T17:18:47.594Z</time></trkpt><trkpt lat="38.94675" lon="16.5813733"><ele>478.0</ele><time>2026-03-29T17:18:48.594Z</time></trkpt><trkpt lat="38.9466667" lon="16.5811717"><ele>478.0</ele><time>2026-03-29T17:18:49.594Z</time></trkpt><trkpt lat="38.9465867" lon="16.5809567"><ele>478.0</ele><time>2026-03-29T17:18:50.594Z</time></trkpt><trkpt lat="38.9465233" lon="16.580735"><ele>478.0</ele><time>2026-03-29T17:18:51.594Z</time></trkpt><trkpt lat="38.9464683" lon="16.5805517"><ele>478.0</ele><time>2026-03-29T17:18:52.594Z</time></trkpt><trkpt lat="38.94642" lon="16.580365"><ele>478.0</ele><time>2026-03-29T17:18:53.594Z</time></trkpt><trkpt lat="38.9463683" lon="16.5802083"><ele>478.0</ele><time>2026-03-29T17:18:54.594Z</time></trkpt><trkpt lat="38.9462783" lon="16.5800867"><ele>478.0</ele><time>2026-03-29T17:18:55.594Z</time></trkpt><trkpt lat="38.9461633" lon="16.579995"><ele>479.6666666666667</ele><time>2026-03-29T17:18:56.594Z</time></trkpt><trkpt lat="38.9460283" lon="16.5799167"><ele>481.33333333333337</ele><time>2026-03-29T17:18:57.594Z</time></trkpt><trkpt lat="38.94589" lon="16.57985"><ele>483.0</ele><time>2026-03-29T17:18:58.594Z</time></trkpt><trkpt lat="38.9457467" lon="16.5797767"><ele>483.0</ele><time>2026-03-29T17:18:59.594Z</time></trkpt><trkpt lat="38.945615" lon="16.5797533"><ele>483.0</ele><time>2026-03-29T17:19:00.594Z</time></trkpt><trkpt lat="38.945475" lon="16.5797867"><ele>483.0</ele><time>2026-03-29T17:19:01.594Z</time></trkpt><trkpt lat="38.9453333" lon="16.5798617"><ele>483.0</ele><time>2026-03-29T17:19:02.594Z</time></trkpt><trkpt lat="38.9452117" lon="16.5799583"><ele>483.0</ele><time>2026-03-29T17:19:03.594Z</time></trkpt><trkpt lat="38.9450917" lon="16.5800767"><ele>483.0</ele><time>2026-03-29T17:19:04.594Z</time></trkpt><trkpt lat="38.944975" lon="16.5801917"><ele>483.0</ele><time>2026-03-29T17:19:05.594Z</time></trkpt><trkpt lat="38.94486" lon="16.58024"><ele>483.0</ele><time>2026-03-29T17:19:06.594Z</time></trkpt><trkpt lat="38.9447383" lon="16.5802033"><ele>482.5</ele><time>2026-03-29T17:19:07.594Z</time></trkpt><trkpt lat="38.9446583" lon="16.5801083"><ele>482.0</ele><time>2026-03-29T17:19:08.594Z</time></trkpt><trkpt lat="38.9445867" lon="16.579995"><ele>481.5</ele><time>2026-03-29T17:19:09.594Z</time></trkpt><trkpt lat="38.944545" lon="16.5798217"><ele>481.0</ele><time>2026-03-29T17:19:10.594Z</time></trkpt><trkpt lat="38.9445517" lon="16.579615"><ele>476.0</ele><time>2026-03-29T17:19:11.594Z</time></trkpt><trkpt lat="38.94456" lon="16.5794067"><ele>471.0</ele><time>2026-03-29T17:19:12.594Z</time></trkpt><trkpt lat="38.9445483" lon="16.5792083"><ele>466.0</ele><time>2026-03-29T17:19:13.594Z</time></trkpt><trkpt lat="38.9445017" lon="16.5790283"><ele>466.0</ele><time>2026-03-29T17:19:14.594Z</time></trkpt><trkpt lat="38.9444117" lon="16.5788783"><ele>466.0</ele><time>2026-03-29T17:19:15.594Z</time></trkpt><trkpt lat="38.944295" lon="16.5787517"><ele>466.0</ele><time>2026-03-29T17:19:16.594Z</time></trkpt><trkpt lat="38.9441817" lon="16.578655"><ele>466.0</ele><time>2026-03-29T17:19:17.594Z</time></trkpt><trkpt lat="38.9440717" lon="16.578595"><ele>465.75</ele><time>2026-03-29T17:19:18.594Z</time></trkpt><trkpt lat="38.9439483" lon="16.578605"><ele>465.5</ele><time>2026-03-29T17:19:19.594Z</time></trkpt><trkpt lat="38.94383" lon="16.5786917"><ele>465.25</ele><time>2026-03-29T17:19:20.594Z</time></trkpt><trkpt lat="38.943705" lon="16.5787783"><ele>465.0</ele><time>2026-03-29T17:19:21.594Z</time></trkpt><trkpt lat="38.943575" lon="16.5788367"><ele>470.25</ele><time>2026-03-29T17:19:22.594Z</time></trkpt><trkpt lat="38.9434433" lon="16.5788067"><ele>475.5</ele><time>2026-03-29T17:19:23.594Z</time></trkpt><trkpt lat="38.9433117" lon="16.5787467"><ele>480.75</ele><time>2026-03-29T17:19:24.594Z</time></trkpt><trkpt lat="38.9431717" lon="16.578725"><ele>486.0</ele><time>2026-03-29T17:19:25.594Z</time></trkpt><trkpt lat="38.9430083" lon="16.5787117"><ele>486.25</ele><time>2026-03-29T17:19:26.594Z</time></trkpt><trkpt lat="38.9428733" lon="16.5787017"><ele>486.5</ele><time>2026-03-29T17:19:27.594Z</time></trkpt><trkpt lat="38.9427633" lon="16.5786667"><ele>486.75</ele><time>2026-03-29T17:19:28.594Z</time></trkpt><trkpt lat="38.942675" lon="16.5785933"><ele>487.0</ele><time>2026-03-29T17:19:29.594Z</time></trkpt><trkpt lat="38.9426" lon="16.5784683"><ele>485.0</ele><time>2026-03-29T17:19:30.594Z</time></trkpt><trkpt lat="38.942545" lon="16.5783217"><ele>483.00000000000006</ele><time>2026-03-29T17:19:31.594Z</time></trkpt><trkpt lat="38.94248" lon="16.5781983"><ele>481.00000000000006</ele><time>2026-03-29T17:19:32.594Z</time></trkpt><trkpt lat="38.9424083" lon="16.57812"><ele>479.0</ele><time>2026-03-29T17:19:33.594Z</time></trkpt><trkpt lat="38.9423433" lon="16.57807"><ele>477.0</ele><time>2026-03-29T17:19:34.594Z</time></trkpt><trkpt lat="38.9422633" lon="16.5780533"><ele>477.0</ele><time>2026-03-29T17:19:35.594Z</time></trkpt><trkpt lat="38.9421883" lon="16.57811"><ele>477.00000000000006</ele><time>2026-03-29T17:19:36.594Z</time></trkpt><trkpt lat="38.9421117" lon="16.5782067"><ele>477.00000000000006</ele><time>2026-03-29T17:19:37.594Z</time></trkpt><trkpt lat="38.94204" lon="16.5783133"><ele>477.0</ele><time>2026-03-29T17:19:38.594Z</time></trkpt><trkpt lat="38.9419517" lon="16.5783783"><ele>477.0</ele><time>2026-03-29T17:19:39.594Z</time></trkpt><trkpt lat="38.941875" lon="16.5784233"><ele>477.0</ele><time>2026-03-29T17:19:40.594Z</time></trkpt><trkpt lat="38.941795" lon="16.578465"><ele>477.0</ele><time>2026-03-29T17:19:41.594Z</time></trkpt><trkpt lat="38.9416917" lon="16.5785033"><ele>477.0</ele><time>2026-03-29T17:19:42.594Z</time></trkpt><trkpt lat="38.9415633" lon="16.5785533"><ele>477.0</ele><time>2026-03-29T17:19:43.594Z</time></trkpt><trkpt lat="38.941435" lon="16.5786133"><ele>479.25</ele><time>2026-03-29T17:19:44.594Z</time></trkpt><trkpt lat="38.9413033" lon="16.5787"><ele>481.5</ele><time>2026-03-29T17:19:45.594Z</time></trkpt><trkpt lat="38.9411933" lon="16.578815"><ele>483.75</ele><time>2026-03-29T17:19:46.594Z</time></trkpt><trkpt lat="38.941125" lon="16.578965"><ele>486.0</ele><time>2026-03-29T17:19:47.594Z</time></trkpt><trkpt lat="38.9411017" lon="16.5791317"><ele>486.0</ele><time>2026-03-29T17:19:48.594Z</time></trkpt><trkpt lat="38.94106" lon="16.5792883"><ele>486.0</ele><time>2026-03-29T17:19:49.594Z</time></trkpt><trkpt lat="38.9410033" lon="16.5794067"><ele>486.0</ele><time>2026-03-29T17:19:50.594Z</time></trkpt><trkpt lat="38.9409467" lon="16.5794767"><ele>486.0</ele><time>2026-03-29T17:19:51.594Z</time></trkpt><trkpt lat="38.94088" lon="16.5794933"><ele>486.0</ele><time>2026-03-29T17:19:52.595Z</time></trkpt><trkpt lat="38.9408" lon="16.5794717"><ele>483.25</ele><time>2026-03-29T17:19:53.594Z</time></trkpt><trkpt lat="38.9406933" lon="16.57942"><ele>480.5</ele><time>2026-03-29T17:19:54.594Z</time></trkpt><trkpt lat="38.94059" lon="16.5793233"><ele>477.75</ele><time>2026-03-29T17:19:55.594Z</time></trkpt><trkpt lat="38.940475" lon="16.5792067"><ele>475.0</ele><time>2026-03-29T17:19:56.594Z</time></trkpt><trkpt lat="38.9403767" lon="16.5791017"><ele>475.0</ele><time>2026-03-29T17:19:57.594Z</time></trkpt><trkpt lat="38.9402933" lon="16.5789583"><ele>475.0</ele><time>2026-03-29T17:19:58.594Z</time></trkpt><trkpt lat="38.9402017" lon="16.578825"><ele>475.0</ele><time>2026-03-29T17:19:59.594Z</time></trkpt><trkpt lat="38.9401133" lon="16.5787317"><ele>475.0</ele><time>2026-03-29T17:20:00.594Z</time></trkpt><trkpt lat="38.940025" lon="16.578685"><ele>475.75</ele><time>2026-03-29T17:20:01.594Z</time></trkpt><trkpt lat="38.939915" lon="16.5786817"><ele>476.5</ele><time>2026-03-29T17:20:02.594Z</time></trkpt><trkpt lat="38.93979" lon="16.57871"><ele>477.25</ele><time>2026-03-29T17:20:03.594Z</time></trkpt><trkpt lat="38.9396683" lon="16.5787817"><ele>478.0</ele><time>2026-03-29T17:20:04.594Z</time></trkpt><trkpt lat="38.9395383" lon="16.5788467"><ele>478.0</ele><time>2026-03-29T17:20:05.594Z</time></trkpt><trkpt lat="38.9393917" lon="16.5789"><ele>478.0</ele><time>2026-03-29T17:20:06.594Z</time></trkpt><trkpt lat="38.9392667" lon="16.57894"><ele>478.0</ele><time>2026-03-29T17:20:07.594Z</time></trkpt><trkpt lat="38.9391367" lon="16.5789767"><ele>478.0</ele><time>2026-03-29T17:20:08.594Z</time></trkpt><trkpt lat="38.9390133" lon="16.5790233"><ele>477.5</ele><time>2026-03-29T17:20:09.594Z</time></trkpt><trkpt lat="38.9389017" lon="16.5790567"><ele>477.0</ele><time>2026-03-29T17:20:10.594Z</time></trkpt><trkpt lat="38.9387817" lon="16.5791167"><ele>476.5</ele><time>2026-03-29T17:20:11.594Z</time></trkpt><trkpt lat="38.9386783" lon="16.57918"><ele>476.0</ele><time>2026-03-29T17:20:12.594Z</time></trkpt><trkpt lat="38.9385983" lon="16.5792583"><ele>476.0</ele><time>2026-03-29T17:20:13.594Z</time></trkpt><trkpt lat="38.938535" lon="16.579375"><ele>476.0</ele><time>2026-03-29T17:20:14.594Z</time></trkpt><trkpt lat="38.9384733" lon="16.5795067"><ele>476.0</ele><time>2026-03-29T17:20:15.594Z</time></trkpt><trkpt lat="38.9383983" lon="16.5796367"><ele>476.0</ele><time>2026-03-29T17:20:16.594Z</time></trkpt><trkpt lat="38.93834" lon="16.5797683"><ele>477.20000000000005</ele><time>2026-03-29T17:20:17.594Z</time></trkpt><trkpt lat="38.9382817" lon="16.5798967"><ele>478.40000000000003</ele><time>2026-03-29T17:20:18.594Z</time></trkpt><trkpt lat="38.9382467" lon="16.580015"><ele>479.6</ele><time>2026-03-29T17:20:19.594Z</time></trkpt><trkpt lat="38.9382333" lon="16.5801383"><ele>480.8</ele><time>2026-03-29T17:20:20.594Z</time></trkpt><trkpt lat="38.9382417" lon="16.580255"><ele>482.0</ele><time>2026-03-29T17:20:21.594Z</time></trkpt><trkpt lat="38.9382633" lon="16.58038"><ele>482.0</ele><time>2026-03-29T17:20:22.594Z</time></trkpt><trkpt lat="38.938285" lon="16.5804833"><ele>482.00000000000006</ele><time>2026-03-29T17:20:23.594Z</time></trkpt><trkpt lat="38.93829" lon="16.5805683"><ele>482.00000000000006</ele><time>2026-03-29T17:20:24.594Z</time></trkpt><trkpt lat="38.9382133" lon="16.580715"><ele>482.0</ele><time>2026-03-29T17:20:26.594Z</time></trkpt><trkpt lat="38.938135" lon="16.5807583"><ele>482.0</ele><time>2026-03-29T17:20:27.594Z</time></trkpt><trkpt lat="38.9380417" lon="16.5807883"><ele>482.0</ele><time>2026-03-29T17:20:28.594Z</time></trkpt><trkpt lat="38.9379217" lon="16.5807833"><ele>482.0</ele><time>2026-03-29T17:20:29.594Z</time></trkpt><trkpt lat="38.9377783" lon="16.580765"><ele>482.0</ele><time>2026-03-29T17:20:30.594Z</time></trkpt><trkpt lat="38.9376267" lon="16.5807383"><ele>482.0</ele><time>2026-03-29T17:20:31.594Z</time></trkpt><trkpt lat="38.9374817" lon="16.5807183"><ele>477.75</ele><time>2026-03-29T17:20:32.594Z</time></trkpt><trkpt lat="38.93735" lon="16.58069"><ele>473.5</ele><time>2026-03-29T17:20:33.594Z</time></trkpt><trkpt lat="38.9372217" lon="16.5806617"><ele>469.25</ele><time>2026-03-29T17:20:34.594Z</time></trkpt><trkpt lat="38.9371133" lon="16.5806367"><ele>465.0</ele><time>2026-03-29T17:20:35.594Z</time></trkpt><trkpt lat="38.9370067" lon="16.58061"><ele>465.0</ele><time>2026-03-29T17:20:36.594Z</time></trkpt><trkpt lat="38.936915" lon="16.5805717"><ele>465.0</ele><time>2026-03-29T17:20:37.594Z</time></trkpt><trkpt lat="38.9368267" lon="16.5805533"><ele>465.0</ele><time>2026-03-29T17:20:38.594Z</time></trkpt><trkpt lat="38.9367383" lon="16.5805217"><ele>465.0</ele><time>2026-03-29T17:20:39.595Z</time></trkpt><trkpt lat="38.9366533" lon="16.580495"><ele>465.0</ele><time>2026-03-29T17:20:40.595Z</time></trkpt><trkpt lat="38.936575" lon="16.580465"><ele>465.0</ele><time>2026-03-29T17:20:41.595Z</time></trkpt><trkpt lat="38.9365017" lon="16.580435"><ele>463.6666666666667</ele><time>2026-03-29T17:20:42.595Z</time></trkpt><trkpt lat="38.93644" lon="16.5803967"><ele>462.33333333333337</ele><time>2026-03-29T17:20:43.595Z</time></trkpt><trkpt lat="38.936375" lon="16.5803517"><ele>461.0</ele><time>2026-03-29T17:20:44.595Z</time></trkpt><trkpt lat="38.9363117" lon="16.5802917"><ele>459.6666666666667</ele><time>2026-03-29T17:20:45.595Z</time></trkpt><trkpt lat="38.9362367" lon="16.5802083"><ele>458.33333333333337</ele><time>2026-03-29T17:20:46.595Z</time></trkpt><trkpt lat="38.93616" lon="16.5800917"><ele>457.0</ele><time>2026-03-29T17:20:47.596Z</time></trkpt><trkpt lat="38.9360583" lon="16.5799617"><ele>458.33333333333337</ele><time>2026-03-29T17:20:48.595Z</time></trkpt><trkpt lat="38.9359517" lon="16.579825"><ele>459.66666666666663</ele><time>2026-03-29T17:20:49.595Z</time></trkpt><trkpt lat="38.9358283" lon="16.57967"><ele>461.0</ele><time>2026-03-29T17:20:50.595Z</time></trkpt><trkpt lat="38.9357083" lon="16.579505"><ele>461.0</ele><time>2026-03-29T17:20:51.595Z</time></trkpt><trkpt lat="38.9355883" lon="16.5793217"><ele>461.0</ele><time>2026-03-29T17:20:52.595Z</time></trkpt><trkpt lat="38.9354583" lon="16.57915"><ele>461.0</ele><time>2026-03-29T17:20:53.595Z</time></trkpt><trkpt lat="38.9353233" lon="16.5789817"><ele>461.0</ele><time>2026-03-29T17:20:54.595Z</time></trkpt><trkpt lat="38.9351733" lon="16.578835"><ele>461.0</ele><time>2026-03-29T17:20:55.595Z</time></trkpt><trkpt lat="38.934975" lon="16.5787167"><ele>461.0</ele><time>2026-03-29T17:20:56.595Z</time></trkpt><trkpt lat="38.934755" lon="16.57863"><ele>460.0</ele><time>2026-03-29T17:20:57.595Z</time></trkpt><trkpt lat="38.934565" lon="16.578555"><ele>459.0</ele><time>2026-03-29T17:20:58.595Z</time></trkpt><trkpt lat="38.9343683" lon="16.5784717"><ele>458.0</ele><time>2026-03-29T17:20:59.595Z</time></trkpt><trkpt lat="38.9341617" lon="16.578405"><ele>453.66666666666663</ele><time>2026-03-29T17:21:00.595Z</time></trkpt><trkpt lat="38.9339483" lon="16.57835"><ele>449.33333333333337</ele><time>2026-03-29T17:21:01.595Z</time></trkpt><trkpt lat="38.933725" lon="16.57827"><ele>445.0</ele><time>2026-03-29T17:21:02.595Z</time></trkpt><trkpt lat="38.9335167" lon="16.57818"><ele>444.6666666666667</ele><time>2026-03-29T17:21:03.595Z</time></trkpt><trkpt lat="38.933305" lon="16.5781217"><ele>444.33333333333337</ele><time>2026-03-29T17:21:04.595Z</time></trkpt><trkpt lat="38.9330767" lon="16.5780683"><ele>444.0</ele><time>2026-03-29T17:21:05.595Z</time></trkpt><trkpt lat="38.932865" lon="16.5780267"><ele>444.0</ele><time>2026-03-29T17:21:06.595Z</time></trkpt><trkpt lat="38.9326567" lon="16.57799"><ele>444.0</ele><time>2026-03-29T17:21:07.595Z</time></trkpt><trkpt lat="38.932435" lon="16.5779733"><ele>444.0</ele><time>2026-03-29T17:21:08.595Z</time></trkpt><trkpt lat="38.9322167" lon="16.5779783"><ele>444.0</ele><time>2026-03-29T17:21:09.595Z</time></trkpt><trkpt lat="38.9319933" lon="16.578015"><ele>444.0</ele><time>2026-03-29T17:21:10.595Z</time></trkpt><trkpt lat="38.9317617" lon="16.5780667"><ele>430.0</ele><time>2026-03-29T17:21:11.595Z</time></trkpt><trkpt lat="38.9315183" lon="16.578145"><ele>416.0</ele><time>2026-03-29T17:21:12.595Z</time></trkpt><trkpt lat="38.93129" lon="16.57822"><ele>416.0</ele><time>2026-03-29T17:21:13.595Z</time></trkpt><trkpt lat="38.931055" lon="16.578285"><ele>416.0</ele><time>2026-03-29T17:21:14.595Z</time></trkpt><trkpt lat="38.9308367" lon="16.5783367"><ele>413.66666666666663</ele><time>2026-03-29T17:21:15.595Z</time></trkpt><trkpt lat="38.930615" lon="16.5783983"><ele>411.33333333333337</ele><time>2026-03-29T17:21:16.595Z</time></trkpt><trkpt lat="38.93041" lon="16.5784383"><ele>409.0</ele><time>2026-03-29T17:21:17.595Z</time></trkpt><trkpt lat="38.9302067" lon="16.578445"><ele>412.6666666666667</ele><time>2026-03-29T17:21:18.595Z</time></trkpt><trkpt lat="38.9300133" lon="16.5784183"><ele>416.33333333333337</ele><time>2026-03-29T17:21:19.595Z</time></trkpt><trkpt lat="38.9298333" lon="16.57836"><ele>420.0</ele><time>2026-03-29T17:21:20.595Z</time></trkpt><trkpt lat="38.929635" lon="16.5782767"><ele>420.0</ele><time>2026-03-29T17:21:21.595Z</time></trkpt><trkpt lat="38.9294383" lon="16.57815"><ele>420.0</ele><time>2026-03-29T17:21:22.595Z</time></trkpt><trkpt lat="38.9292533" lon="16.5780067"><ele>420.0</ele><time>2026-03-29T17:21:23.595Z</time></trkpt><trkpt lat="38.9290733" lon="16.5778533"><ele>418.0</ele><time>2026-03-29T17:21:24.595Z</time></trkpt><trkpt lat="38.9288917" lon="16.57767"><ele>416.0</ele><time>2026-03-29T17:21:25.595Z</time></trkpt><trkpt lat="38.9287183" lon="16.5774633"><ele>416.0</ele><time>2026-03-29T17:21:26.595Z</time></trkpt><trkpt lat="38.9285483" lon="16.5772617"><ele>416.0</ele><time>2026-03-29T17:21:27.595Z</time></trkpt><trkpt lat="38.9283783" lon="16.577075"><ele>413.5</ele><time>2026-03-29T17:21:28.595Z</time></trkpt><trkpt lat="38.9281933" lon="16.5768883"><ele>411.0</ele><time>2026-03-29T17:21:29.595Z</time></trkpt><trkpt lat="38.9280133" lon="16.5767367"><ele>411.0</ele><time>2026-03-29T17:21:30.595Z</time></trkpt><trkpt lat="38.9278183" lon="16.5766183"><ele>411.0</ele><time>2026-03-29T17:21:31.595Z</time></trkpt><trkpt lat="38.92767" lon="16.5764967"><ele>411.0</ele><time>2026-03-29T17:21:32.595Z</time></trkpt><trkpt lat="38.9275017" lon="16.5763683"><ele>408.0</ele><time>2026-03-29T17:21:33.595Z</time></trkpt><trkpt lat="38.9273283" lon="16.5762317"><ele>405.0</ele><time>2026-03-29T17:21:34.595Z</time></trkpt><trkpt lat="38.927155" lon="16.5760917"><ele>402.0</ele><time>2026-03-29T17:21:35.595Z</time></trkpt><trkpt lat="38.92698" lon="16.5759583"><ele>402.0</ele><time>2026-03-29T17:21:36.595Z</time></trkpt><trkpt lat="38.92682" lon="16.5758783"><ele>402.0</ele><time>2026-03-29T17:21:37.595Z</time></trkpt><trkpt lat="38.9266617" lon="16.5759517"><ele>402.0</ele><time>2026-03-29T17:21:38.595Z</time></trkpt><trkpt lat="38.9265067" lon="16.5761467"><ele>413.0</ele><time>2026-03-29T17:21:39.595Z</time></trkpt><trkpt lat="38.926325" lon="16.5768817"><ele>424.0</ele><time>2026-03-29T17:21:40.595Z</time></trkpt><trkpt lat="38.9261533" lon="16.5771133"><ele>435.0</ele><time>2026-03-29T17:21:41.595Z</time></trkpt><trkpt lat="38.9259767" lon="16.5774367"><ele>431.0</ele><time>2026-03-29T17:21:42.596Z</time></trkpt><trkpt lat="38.92582" lon="16.5776817"><ele>427.0</ele><time>2026-03-29T17:21:43.595Z</time></trkpt><trkpt lat="38.9256467" lon="16.5779133"><ele>427.0</ele><time>2026-03-29T17:21:44.595Z</time></trkpt><trkpt lat="38.9254717" lon="16.57815"><ele>427.0</ele><time>2026-03-29T17:21:45.595Z</time></trkpt><trkpt lat="38.9253" lon="16.57838"><ele>427.0</ele><time>2026-03-29T17:21:46.595Z</time></trkpt><trkpt lat="38.9251317" lon="16.57861"><ele>427.0</ele><time>2026-03-29T17:21:47.595Z</time></trkpt><trkpt lat="38.9249617" lon="16.5788367"><ele>430.0</ele><time>2026-03-29T17:21:48.596Z</time></trkpt><trkpt lat="38.9247917" lon="16.5790633"><ele>433.0</ele><time>2026-03-29T17:21:49.595Z</time></trkpt><trkpt lat="38.9232483" lon="16.5807283"><ele>426.33333333333337</ele><time>2026-03-29T17:21:59.581Z</time></trkpt><trkpt lat="38.923075" lon="16.5807383"><ele>419.66666666666663</ele><time>2026-03-29T17:22:00.582Z</time></trkpt><trkpt lat="38.9228633" lon="16.5807583"><ele>413.0</ele><time>2026-03-29T17:22:01.581Z</time></trkpt><trkpt lat="38.9226633" lon="16.58076"><ele>411.3333333333333</ele><time>2026-03-29T17:22:02.581Z</time></trkpt><trkpt lat="38.9224533" lon="16.580765"><ele>409.66666666666663</ele><time>2026-03-29T17:22:03.581Z</time></trkpt><trkpt lat="38.9222533" lon="16.5807483"><ele>408.0</ele><time>2026-03-29T17:22:04.581Z</time></trkpt><trkpt lat="38.922015" lon="16.580755"><ele>408.0</ele><time>2026-03-29T17:22:05.581Z</time></trkpt><trkpt lat="38.9218083" lon="16.5807517"><ele>408.0</ele><time>2026-03-29T17:22:06.582Z</time></trkpt><trkpt lat="38.9216267" lon="16.5807433"><ele>408.0</ele><time>2026-03-29T17:22:07.582Z</time></trkpt><trkpt lat="38.9214333" lon="16.5807233"><ele>405.0</ele><time>2026-03-29T17:22:08.581Z</time></trkpt><trkpt lat="38.921255" lon="16.5806833"><ele>402.0</ele><time>2026-03-29T17:22:09.581Z</time></trkpt><trkpt lat="38.9210883" lon="16.5806"><ele>399.0</ele><time>2026-03-29T17:22:10.581Z</time></trkpt><trkpt lat="38.920925" lon="16.5804833"><ele>396.33333333333337</ele><time>2026-03-29T17:22:11.581Z</time></trkpt><trkpt lat="38.9207767" lon="16.5803417"><ele>393.6666666666667</ele><time>2026-03-29T17:22:12.581Z</time></trkpt><trkpt lat="38.9206633" lon="16.5801317"><ele>391.0</ele><time>2026-03-29T17:22:13.581Z</time></trkpt><trkpt lat="38.920575" lon="16.5799133"><ele>391.0</ele><time>2026-03-29T17:22:14.581Z</time></trkpt><trkpt lat="38.9205083" lon="16.5796583"><ele>391.0</ele><time>2026-03-29T17:22:15.581Z</time></trkpt><trkpt lat="38.92044" lon="16.5794233"><ele>391.0</ele><time>2026-03-29T17:22:16.582Z</time></trkpt><trkpt lat="38.9203817" lon="16.5792"><ele>383.6666666666667</ele><time>2026-03-29T17:22:17.581Z</time></trkpt><trkpt lat="38.920305" lon="16.5790133"><ele>376.33333333333337</ele><time>2026-03-29T17:22:18.581Z</time></trkpt><trkpt lat="38.9202183" lon="16.57884"><ele>369.0</ele><time>2026-03-29T17:22:19.581Z</time></trkpt><trkpt lat="38.9200983" lon="16.5787"><ele>365.3333333333333</ele><time>2026-03-29T17:22:20.581Z</time></trkpt><trkpt lat="38.9199567" lon="16.5785867"><ele>361.66666666666663</ele><time>2026-03-29T17:22:21.581Z</time></trkpt><trkpt lat="38.9198033" lon="16.5784883"><ele>358.0</ele><time>2026-03-29T17:22:22.582Z</time></trkpt><trkpt lat="38.9196367" lon="16.5784283"><ele>358.0</ele><time>2026-03-29T17:22:23.581Z</time></trkpt><trkpt lat="38.9194633" lon="16.578395"><ele>358.0</ele><time>2026-03-29T17:22:24.581Z</time></trkpt><trkpt lat="38.9192783" lon="16.5783933"><ele>358.0</ele><time>2026-03-29T17:22:25.581Z</time></trkpt><trkpt lat="38.9191" lon="16.578415"><ele>361.3333333333333</ele><time>2026-03-29T17:22:26.581Z</time></trkpt><trkpt lat="38.9189167" lon="16.5784533"><ele>364.6666666666667</ele><time>2026-03-29T17:22:27.581Z</time></trkpt><trkpt lat="38.9187383" lon="16.5785017"><ele>368.0</ele><time>2026-03-29T17:22:28.581Z</time></trkpt><trkpt lat="38.9185517" lon="16.57856"><ele>366.6666666666667</ele><time>2026-03-29T17:22:29.581Z</time></trkpt><trkpt lat="38.9183667" lon="16.5785983"><ele>365.3333333333333</ele><time>2026-03-29T17:22:30.581Z</time></trkpt><trkpt lat="38.918165" lon="16.5786417"><ele>364.0</ele><time>2026-03-29T17:22:31.581Z</time></trkpt><trkpt lat="38.9179717" lon="16.5786883"><ele>365.0</ele><time>2026-03-29T17:22:32.581Z</time></trkpt><trkpt lat="38.9177717" lon="16.5787433"><ele>366.0</ele><time>2026-03-29T17:22:33.581Z</time></trkpt><trkpt lat="38.917575" lon="16.5788067"><ele>367.0</ele><time>2026-03-29T17:22:34.581Z</time></trkpt><trkpt lat="38.9173817" lon="16.5788033"><ele>367.0</ele><time>2026-03-29T17:22:35.581Z</time></trkpt><trkpt lat="38.917195" lon="16.5787733"><ele>367.0</ele><time>2026-03-29T17:22:36.581Z</time></trkpt><trkpt lat="38.9170033" lon="16.5787283"><ele>367.0</ele><time>2026-03-29T17:22:37.581Z</time></trkpt><trkpt lat="38.9168067" lon="16.5786317"><ele>361.0</ele><time>2026-03-29T17:22:38.581Z</time></trkpt><trkpt lat="38.9166383" lon="16.5785"><ele>355.0</ele><time>2026-03-29T17:22:39.581Z</time></trkpt><trkpt lat="38.916475" lon="16.578355"><ele>349.0</ele><time>2026-03-29T17:22:40.581Z</time></trkpt><trkpt lat="38.9163367" lon="16.5781733"><ele>349.0</ele><time>2026-03-29T17:22:41.581Z</time></trkpt><trkpt lat="38.9161967" lon="16.5779767"><ele>349.0</ele><time>2026-03-29T17:22:42.581Z</time></trkpt><trkpt lat="38.916035" lon="16.5777883"><ele>349.0</ele><time>2026-03-29T17:22:43.581Z</time></trkpt><trkpt lat="38.915875" lon="16.5775967"><ele>332.0</ele><time>2026-03-29T17:22:44.581Z</time></trkpt><trkpt lat="38.9157117" lon="16.57741"><ele>315.0</ele><time>2026-03-29T17:22:45.582Z</time></trkpt><trkpt lat="38.9155433" lon="16.57722"><ele>298.0</ele><time>2026-03-29T17:22:46.581Z</time></trkpt><trkpt lat="38.9153633" lon="16.5770417"><ele>285.3333333333333</ele><time>2026-03-29T17:22:47.581Z</time></trkpt><trkpt lat="38.9151867" lon="16.576865"><ele>272.6666666666667</ele><time>2026-03-29T17:22:48.581Z</time></trkpt><trkpt lat="38.9150233" lon="16.5766783"><ele>260.0</ele><time>2026-03-29T17:22:49.581Z</time></trkpt><trkpt lat="38.91487" lon="16.5764867"><ele>250.5</ele><time>2026-03-29T17:22:50.581Z</time></trkpt><trkpt lat="38.9147033" lon="16.5762883"><ele>241.0</ele><time>2026-03-29T17:22:51.581Z</time></trkpt><trkpt lat="38.9145333" lon="16.57609"><ele>241.0</ele><time>2026-03-29T17:22:52.581Z</time></trkpt><trkpt lat="38.9143483" lon="16.57589"><ele>241.0</ele><time>2026-03-29T17:22:53.581Z</time></trkpt><trkpt lat="38.9141617" lon="16.5756933"><ele>248.5</ele><time>2026-03-29T17:22:54.581Z</time></trkpt><trkpt lat="38.9139733" lon="16.5754867"><ele>256.0</ele><time>2026-03-29T17:22:55.581Z</time></trkpt><trkpt lat="38.9137933" lon="16.57528"><ele>269.0</ele><time>2026-03-29T17:22:56.581Z</time></trkpt><trkpt lat="38.9136117" lon="16.5750733"><ele>282.0</ele><time>2026-03-29T17:22:57.581Z</time></trkpt><trkpt lat="38.913435" lon="16.5748733"><ele>290.3333333333333</ele><time>2026-03-29T17:22:58.581Z</time></trkpt><trkpt lat="38.9132617" lon="16.5746817"><ele>298.66666666666663</ele><time>2026-03-29T17:22:59.581Z</time></trkpt><trkpt lat="38.9130983" lon="16.5744917"><ele>307.0</ele><time>2026-03-29T17:23:00.581Z</time></trkpt><trkpt lat="38.9129417" lon="16.5743133"><ele>313.0</ele><time>2026-03-29T17:23:01.581Z</time></trkpt><trkpt lat="38.9127717" lon="16.5741583"><ele>319.0</ele><time>2026-03-29T17:23:02.581Z</time></trkpt><trkpt lat="38.9126083" lon="16.57402"><ele>325.0</ele><time>2026-03-29T17:23:03.582Z</time></trkpt><trkpt lat="38.9124217" lon="16.573905"><ele>325.66666666666663</ele><time>2026-03-29T17:23:04.581Z</time></trkpt><trkpt lat="38.9122267" lon="16.5738217"><ele>326.3333333333333</ele><time>2026-03-29T17:23:05.581Z</time></trkpt><trkpt lat="38.9120283" lon="16.5737633"><ele>327.0</ele><time>2026-03-29T17:23:06.581Z</time></trkpt><trkpt lat="38.9118217" lon="16.5737283"><ele>324.3333333333333</ele><time>2026-03-29T17:23:07.581Z</time></trkpt><trkpt lat="38.911615" lon="16.5736917"><ele>321.66666666666663</ele><time>2026-03-29T17:23:08.581Z</time></trkpt><trkpt lat="38.9114" lon="16.573645"><ele>319.0</ele><time>2026-03-29T17:23:09.581Z</time></trkpt><trkpt lat="38.91119" lon="16.5735883"><ele>319.0</ele><time>2026-03-29T17:23:10.581Z</time></trkpt><trkpt lat="38.9109883" lon="16.5735317"><ele>319.0</ele><time>2026-03-29T17:23:11.582Z</time></trkpt><trkpt lat="38.9107833" lon="16.573475"><ele>319.0</ele><time>2026-03-29T17:23:12.581Z</time></trkpt><trkpt lat="38.9105733" lon="16.5734217"><ele>317.66666666666663</ele><time>2026-03-29T17:23:13.581Z</time></trkpt><trkpt lat="38.9103567" lon="16.5733733"><ele>316.3333333333333</ele><time>2026-03-29T17:23:14.582Z</time></trkpt><trkpt lat="38.9101333" lon="16.573335"><ele>315.0</ele><time>2026-03-29T17:23:15.581Z</time></trkpt><trkpt lat="38.9099233" lon="16.57329"><ele>315.0</ele><time>2026-03-29T17:23:16.581Z</time></trkpt><trkpt lat="38.9097233" lon="16.5732533"><ele>315.0</ele><time>2026-03-29T17:23:17.581Z</time></trkpt><trkpt lat="38.9095133" lon="16.5732233"><ele>315.0</ele><time>2026-03-29T17:23:18.581Z</time></trkpt><trkpt lat="38.9093367" lon="16.5732017"><ele>314.0</ele><time>2026-03-29T17:23:19.581Z</time></trkpt><trkpt lat="38.9091433" lon="16.5732267"><ele>313.0</ele><time>2026-03-29T17:23:20.581Z</time></trkpt><trkpt lat="38.9089317" lon="16.57329"><ele>312.0</ele><time>2026-03-29T17:23:21.581Z</time></trkpt><trkpt lat="38.90873" lon="16.5733833"><ele>312.0</ele><time>2026-03-29T17:23:22.581Z</time></trkpt><trkpt lat="38.9085367" lon="16.5734917"><ele>312.0</ele><time>2026-03-29T17:23:23.581Z</time></trkpt><trkpt lat="38.908345" lon="16.5736333"><ele>312.0</ele><time>2026-03-29T17:23:24.581Z</time></trkpt><trkpt lat="38.9081617" lon="16.5738"><ele>307.5</ele><time>2026-03-29T17:23:25.581Z</time></trkpt><trkpt lat="38.9079883" lon="16.5739983"><ele>303.0</ele><time>2026-03-29T17:23:26.581Z</time></trkpt><trkpt lat="38.9078283" lon="16.5741967"><ele>303.0</ele><time>2026-03-29T17:23:27.581Z</time></trkpt><trkpt lat="38.90767" lon="16.5743933"><ele>303.0</ele><time>2026-03-29T17:23:28.581Z</time></trkpt><trkpt lat="38.90751" lon="16.5745983"><ele>303.0</ele><time>2026-03-29T17:23:29.581Z</time></trkpt><trkpt lat="38.9073333" lon="16.5748"><ele>302.0</ele><time>2026-03-29T17:23:30.581Z</time></trkpt><trkpt lat="38.907155" lon="16.5749833"><ele>301.0</ele><time>2026-03-29T17:23:31.581Z</time></trkpt><trkpt lat="38.9069867" lon="16.57515"><ele>300.0</ele><time>2026-03-29T17:23:32.581Z</time></trkpt><trkpt lat="38.9068017" lon="16.5752883"><ele>302.6666666666667</ele><time>2026-03-29T17:23:33.581Z</time></trkpt><trkpt lat="38.9066067" lon="16.5754067"><ele>305.33333333333337</ele><time>2026-03-29T17:23:34.581Z</time></trkpt><trkpt lat="38.9063967" lon="16.5755217"><ele>308.0</ele><time>2026-03-29T17:23:35.581Z</time></trkpt><trkpt lat="38.90619" lon="16.5756233"><ele>308.0</ele><time>2026-03-29T17:23:36.581Z</time></trkpt><trkpt lat="38.90598" lon="16.5757117"><ele>308.0</ele><time>2026-03-29T17:23:37.581Z</time></trkpt><trkpt lat="38.9057917" lon="16.5758"><ele>308.0</ele><time>2026-03-29T17:23:38.581Z</time></trkpt><trkpt lat="38.9056283" lon="16.57591"><ele>308.0</ele><time>2026-03-29T17:23:39.581Z</time></trkpt><trkpt lat="38.90548" lon="16.5760467"><ele>308.0</ele><time>2026-03-29T17:23:40.581Z</time></trkpt><trkpt lat="38.9053483" lon="16.5762217"><ele>308.0</ele><time>2026-03-29T17:23:41.581Z</time></trkpt><trkpt lat="38.9052417" lon="16.57641"><ele>308.0</ele><time>2026-03-29T17:23:42.581Z</time></trkpt><trkpt lat="38.9051683" lon="16.576635"><ele>308.0</ele><time>2026-03-29T17:23:43.581Z</time></trkpt><trkpt lat="38.9051233" lon="16.57687"><ele>308.0</ele><time>2026-03-29T17:23:44.581Z</time></trkpt><trkpt lat="38.9050833" lon="16.5771083"><ele>309.6666666666667</ele><time>2026-03-29T17:23:45.581Z</time></trkpt><trkpt lat="38.905075" lon="16.5773383"><ele>311.3333333333333</ele><time>2026-03-29T17:23:46.581Z</time></trkpt><trkpt lat="38.905105" lon="16.57754"><ele>313.0</ele><time>2026-03-29T17:23:47.581Z</time></trkpt><trkpt lat="38.90515" lon="16.5777217"><ele>312.4</ele><time>2026-03-29T17:23:48.581Z</time></trkpt><trkpt lat="38.9052067" lon="16.5778633"><ele>311.8</ele><time>2026-03-29T17:23:49.581Z</time></trkpt><trkpt lat="38.90526" lon="16.5779867"><ele>311.2</ele><time>2026-03-29T17:23:50.582Z</time></trkpt><trkpt lat="38.9052967" lon="16.5781033"><ele>310.6</ele><time>2026-03-29T17:23:51.581Z</time></trkpt><trkpt lat="38.9053183" lon="16.5781983"><ele>310.0</ele><time>2026-03-29T17:23:52.581Z</time></trkpt><trkpt lat="38.9053517" lon="16.5783167"><ele>310.0</ele><time>2026-03-29T17:23:54.581Z</time></trkpt><trkpt lat="38.9053717" lon="16.5784233"><ele>310.0</ele><time>2026-03-29T17:23:56.582Z</time></trkpt><trkpt lat="38.9053833" lon="16.5785333"><ele>310.0</ele><time>2026-03-29T17:23:58.581Z</time></trkpt><trkpt lat="38.9053733" lon="16.5786967"><ele>310.0</ele><time>2026-03-29T17:24:00.581Z</time></trkpt><trkpt lat="38.9053617" lon="16.5787917"><ele>310.0</ele><time>2026-03-29T17:24:01.581Z</time></trkpt><trkpt lat="38.9053317" lon="16.578905"><ele>309.25</ele><time>2026-03-29T17:24:02.581Z</time></trkpt><trkpt lat="38.9053033" lon="16.5790367"><ele>308.5</ele><time>2026-03-29T17:24:03.581Z</time></trkpt><trkpt lat="38.90528" lon="16.5791883"><ele>307.75</ele><time>2026-03-29T17:24:04.581Z</time></trkpt><trkpt lat="38.9052467" lon="16.5793483"><ele>307.0</ele><time>2026-03-29T17:24:05.581Z</time></trkpt><trkpt lat="38.9052117" lon="16.5795033"><ele>307.25</ele><time>2026-03-29T17:24:06.581Z</time></trkpt><trkpt lat="38.9051683" lon="16.5796367"><ele>307.5</ele><time>2026-03-29T17:24:07.581Z</time></trkpt><trkpt lat="38.9051333" lon="16.579785"><ele>307.75</ele><time>2026-03-29T17:24:08.582Z</time></trkpt><trkpt lat="38.9050933" lon="16.57992"><ele>308.0</ele><time>2026-03-29T17:24:09.581Z</time></trkpt><trkpt lat="38.9050417" lon="16.5800683"><ele>308.0</ele><time>2026-03-29T17:24:10.581Z</time></trkpt><trkpt lat="38.9049933" lon="16.5802133"><ele>308.0</ele><time>2026-03-29T17:24:11.581Z</time></trkpt><trkpt lat="38.9049467" lon="16.5803517"><ele>308.0</ele><time>2026-03-29T17:24:12.582Z</time></trkpt><trkpt lat="38.9049017" lon="16.5804817"><ele>308.0</ele><time>2026-03-29T17:24:13.581Z</time></trkpt><trkpt lat="38.90487" lon="16.5806117"><ele>306.25</ele><time>2026-03-29T17:24:14.581Z</time></trkpt><trkpt lat="38.9048233" lon="16.5807533"><ele>304.5</ele><time>2026-03-29T17:24:15.581Z</time></trkpt><trkpt lat="38.90478" lon="16.5809017"><ele>302.75</ele><time>2026-03-29T17:24:16.581Z</time></trkpt><trkpt lat="38.9047233" lon="16.58105"><ele>301.0</ele><time>2026-03-29T17:24:17.581Z</time></trkpt><trkpt lat="38.90463" lon="16.58121"><ele>300.3333333333333</ele><time>2026-03-29T17:24:18.581Z</time></trkpt><trkpt lat="38.904525" lon="16.5813483"><ele>299.6666666666667</ele><time>2026-03-29T17:24:19.581Z</time></trkpt><trkpt lat="38.9044033" lon="16.5814517"><ele>299.0</ele><time>2026-03-29T17:24:20.581Z</time></trkpt><trkpt lat="38.9042533" lon="16.581535"><ele>299.0</ele><time>2026-03-29T17:24:21.581Z</time></trkpt><trkpt lat="38.904095" lon="16.5815967"><ele>299.0</ele><time>2026-03-29T17:24:22.581Z</time></trkpt><trkpt lat="38.9039633" lon="16.5817083"><ele>299.0</ele><time>2026-03-29T17:24:23.581Z</time></trkpt><trkpt lat="38.903855" lon="16.5818183"><ele>299.0</ele><time>2026-03-29T17:24:24.581Z</time></trkpt><trkpt lat="38.9037433" lon="16.5819117"><ele>299.0</ele><time>2026-03-29T17:24:25.581Z</time></trkpt><trkpt lat="38.9036383" lon="16.582015"><ele>299.0</ele><time>2026-03-29T17:24:26.581Z</time></trkpt><trkpt lat="38.9035367" lon="16.5821217"><ele>299.0</ele><time>2026-03-29T17:24:27.581Z</time></trkpt><trkpt lat="38.90343" lon="16.5822233"><ele>296.25</ele><time>2026-03-29T17:24:28.581Z</time></trkpt><trkpt lat="38.9033167" lon="16.58232"><ele>293.5</ele><time>2026-03-29T17:24:29.581Z</time></trkpt><trkpt lat="38.9031917" lon="16.5824217"><ele>290.75</ele><time>2026-03-29T17:24:30.581Z</time></trkpt><trkpt lat="38.90306" lon="16.5825"><ele>288.0</ele><time>2026-03-29T17:24:31.581Z</time></trkpt><trkpt lat="38.902925" lon="16.5825933"><ele>288.0</ele><time>2026-03-29T17:24:32.581Z</time></trkpt><trkpt lat="38.90278" lon="16.5827117"><ele>288.0</ele><time>2026-03-29T17:24:33.581Z</time></trkpt><trkpt lat="38.9026367" lon="16.5828167"><ele>288.0</ele><time>2026-03-29T17:24:34.581Z</time></trkpt><trkpt lat="38.9025033" lon="16.5829233"><ele>282.3333333333333</ele><time>2026-03-29T17:24:35.581Z</time></trkpt><trkpt lat="38.9023783" lon="16.5830383"><ele>276.66666666666663</ele><time>2026-03-29T17:24:36.581Z</time></trkpt><trkpt lat="38.9022383" lon="16.5831383"><ele>271.0</ele><time>2026-03-29T17:24:37.581Z</time></trkpt><trkpt lat="38.9020933" lon="16.58326"><ele>271.0</ele><time>2026-03-29T17:24:38.581Z</time></trkpt><trkpt lat="38.9019533" lon="16.5833667"><ele>271.0</ele><time>2026-03-29T17:24:39.581Z</time></trkpt><trkpt lat="38.9018067" lon="16.58348"><ele>271.0</ele><time>2026-03-29T17:24:40.581Z</time></trkpt><trkpt lat="38.9016567" lon="16.5836083"><ele>272.3333333333333</ele><time>2026-03-29T17:24:41.581Z</time></trkpt><trkpt lat="38.9014983" lon="16.5837317"><ele>273.6666666666667</ele><time>2026-03-29T17:24:42.581Z</time></trkpt><trkpt lat="38.9013433" lon="16.5838517"><ele>275.0</ele><time>2026-03-29T17:24:43.581Z</time></trkpt><trkpt lat="38.9011833" lon="16.5839667"><ele>275.0</ele><time>2026-03-29T17:24:44.582Z</time></trkpt><trkpt lat="38.9010567" lon="16.5841033"><ele>275.0</ele><time>2026-03-29T17:24:45.581Z</time></trkpt><trkpt lat="38.9009183" lon="16.5842417"><ele>275.0</ele><time>2026-03-29T17:24:46.581Z</time></trkpt><trkpt lat="38.9007867" lon="16.5843767"><ele>275.0</ele><time>2026-03-29T17:24:47.581Z</time></trkpt><trkpt lat="38.9006267" lon="16.5844833"><ele>275.0</ele><time>2026-03-29T17:24:48.581Z</time></trkpt><trkpt lat="38.9004733" lon="16.5845517"><ele>275.0</ele><time>2026-03-29T17:24:49.581Z</time></trkpt><trkpt lat="38.9003117" lon="16.5846"><ele>275.6666666666667</ele><time>2026-03-29T17:24:50.581Z</time></trkpt><trkpt lat="38.9001567" lon="16.5846117"><ele>276.3333333333333</ele><time>2026-03-29T17:24:51.581Z</time></trkpt><trkpt lat="38.8999917" lon="16.5845733"><ele>277.0</ele><time>2026-03-29T17:24:52.581Z</time></trkpt><trkpt lat="38.89982" lon="16.5844933"><ele>277.0</ele><time>2026-03-29T17:24:53.581Z</time></trkpt><trkpt lat="38.8996667" lon="16.584385"><ele>277.0</ele><time>2026-03-29T17:24:54.581Z</time></trkpt><trkpt lat="38.8995183" lon="16.58428"><ele>277.0</ele><time>2026-03-29T17:24:55.581Z</time></trkpt><trkpt lat="38.8993783" lon="16.584175"><ele>271.66666666666663</ele><time>2026-03-29T17:24:56.581Z</time></trkpt><trkpt lat="38.8992417" lon="16.5840867"><ele>266.3333333333333</ele><time>2026-03-29T17:24:57.581Z</time></trkpt><trkpt lat="38.8990967" lon="16.584005"><ele>261.0</ele><time>2026-03-29T17:24:58.581Z</time></trkpt><trkpt lat="38.8989267" lon="16.5839367"><ele>261.0</ele><time>2026-03-29T17:24:59.581Z</time></trkpt><trkpt lat="38.8987767" lon="16.5838517"><ele>261.0</ele><time>2026-03-29T17:25:00.581Z</time></trkpt><trkpt lat="38.8986417" lon="16.5838033"><ele>261.0</ele><time>2026-03-29T17:25:01.581Z</time></trkpt><trkpt lat="38.89851" lon="16.58378"><ele>261.0</ele><time>2026-03-29T17:25:02.581Z</time></trkpt><trkpt lat="38.898385" lon="16.5837883"><ele>259.0</ele><time>2026-03-29T17:25:03.581Z</time></trkpt><trkpt lat="38.8982533" lon="16.5838367"><ele>257.0</ele><time>2026-03-29T17:25:04.581Z</time></trkpt><trkpt lat="38.898145" lon="16.58391"><ele>255.0</ele><time>2026-03-29T17:25:05.581Z</time></trkpt><trkpt lat="38.8980083" lon="16.58403"><ele>253.0</ele><time>2026-03-29T17:25:06.581Z</time></trkpt><trkpt lat="38.8979017" lon="16.5841633"><ele>253.0</ele><time>2026-03-29T17:25:07.581Z</time></trkpt><trkpt lat="38.8978" lon="16.584335"><ele>253.0</ele><time>2026-03-29T17:25:08.581Z</time></trkpt><trkpt lat="38.8977067" lon="16.58452"><ele>253.0</ele><time>2026-03-29T17:25:09.582Z</time></trkpt><trkpt lat="38.8976133" lon="16.584725"><ele>250.0</ele><time>2026-03-29T17:25:10.581Z</time></trkpt><trkpt lat="38.89752" lon="16.5849483"><ele>247.0</ele><time>2026-03-29T17:25:11.581Z</time></trkpt><trkpt lat="38.8974217" lon="16.5851667"><ele>244.0</ele><time>2026-03-29T17:25:12.581Z</time></trkpt><trkpt lat="38.8973067" lon="16.5853733"><ele>242.0</ele><time>2026-03-29T17:25:13.581Z</time></trkpt><trkpt lat="38.8971883" lon="16.5855633"><ele>240.0</ele><time>2026-03-29T17:25:14.581Z</time></trkpt><trkpt lat="38.897055" lon="16.5857383"><ele>238.0</ele><time>2026-03-29T17:25:15.581Z</time></trkpt><trkpt lat="38.8969" lon="16.5858883"><ele>238.66666666666666</ele><time>2026-03-29T17:25:16.581Z</time></trkpt><trkpt lat="38.896735" lon="16.58601"><ele>239.33333333333331</ele><time>2026-03-29T17:25:17.581Z</time></trkpt><trkpt lat="38.8965717" lon="16.5861133"><ele>240.0</ele><time>2026-03-29T17:25:18.581Z</time></trkpt><trkpt lat="38.8964067" lon="16.5862017"><ele>237.66666666666669</ele><time>2026-03-29T17:25:19.581Z</time></trkpt><trkpt lat="38.8962217" lon="16.5863"><ele>235.33333333333334</ele><time>2026-03-29T17:25:20.581Z</time></trkpt><trkpt lat="38.8960383" lon="16.5863967"><ele>233.0</ele><time>2026-03-29T17:25:21.581Z</time></trkpt><trkpt lat="38.8958667" lon="16.5864917"><ele>233.0</ele><time>2026-03-29T17:25:22.581Z</time></trkpt><trkpt lat="38.8957067" lon="16.5865933"><ele>233.0</ele><time>2026-03-29T17:25:23.581Z</time></trkpt><trkpt lat="38.8955417" lon="16.5866783"><ele>233.0</ele><time>2026-03-29T17:25:24.581Z</time></trkpt><trkpt lat="38.8954" lon="16.5867583"><ele>233.0</ele><time>2026-03-29T17:25:25.581Z</time></trkpt><trkpt lat="38.8952783" lon="16.5868483"><ele>233.0</ele><time>2026-03-29T17:25:26.581Z</time></trkpt><trkpt lat="38.8951683" lon="16.5869567"><ele>233.0</ele><time>2026-03-29T17:25:27.581Z</time></trkpt><trkpt lat="38.8950783" lon="16.5870883"><ele>233.0</ele><time>2026-03-29T17:25:28.581Z</time></trkpt><trkpt lat="38.895015" lon="16.5872583"><ele>231.0</ele><time>2026-03-29T17:25:29.581Z</time></trkpt><trkpt lat="38.8949683" lon="16.5874433"><ele>229.0</ele><time>2026-03-29T17:25:30.581Z</time></trkpt><trkpt lat="38.8949383" lon="16.587635"><ele>227.0</ele><time>2026-03-29T17:25:31.581Z</time></trkpt><trkpt lat="38.894945" lon="16.58783"><ele>223.66666666666669</ele><time>2026-03-29T17:25:32.581Z</time></trkpt><trkpt lat="38.8949833" lon="16.5880233"><ele>220.33333333333331</ele><time>2026-03-29T17:25:33.581Z</time></trkpt><trkpt lat="38.8950417" lon="16.588205"><ele>217.0</ele><time>2026-03-29T17:25:34.581Z</time></trkpt><trkpt lat="38.8951267" lon="16.5883783"><ele>216.33333333333331</ele><time>2026-03-29T17:25:35.581Z</time></trkpt><trkpt lat="38.89523" lon="16.58852"><ele>215.66666666666669</ele><time>2026-03-29T17:25:36.581Z</time></trkpt><trkpt lat="38.8953533" lon="16.588635"><ele>215.0</ele><time>2026-03-29T17:25:37.581Z</time></trkpt><trkpt lat="38.8955033" lon="16.5887233"><ele>211.66666666666669</ele><time>2026-03-29T17:25:38.581Z</time></trkpt><trkpt lat="38.895665" lon="16.588775"><ele>208.33333333333331</ele><time>2026-03-29T17:25:39.581Z</time></trkpt><trkpt lat="38.8958233" lon="16.5887917"><ele>205.0</ele><time>2026-03-29T17:25:40.581Z</time></trkpt><trkpt lat="38.89598" lon="16.588775"><ele>202.33333333333331</ele><time>2026-03-29T17:25:41.581Z</time></trkpt><trkpt lat="38.896145" lon="16.588705"><ele>199.66666666666669</ele><time>2026-03-29T17:25:42.581Z</time></trkpt><trkpt lat="38.8963" lon="16.588615"><ele>197.0</ele><time>2026-03-29T17:25:43.581Z</time></trkpt><trkpt lat="38.8964517" lon="16.58852"><ele>202.0</ele><time>2026-03-29T17:25:44.581Z</time></trkpt><trkpt lat="38.8965967" lon="16.5884417"><ele>207.0</ele><time>2026-03-29T17:25:45.581Z</time></trkpt><trkpt lat="38.8967517" lon="16.5883967"><ele>212.0</ele><time>2026-03-29T17:25:46.581Z</time></trkpt><trkpt lat="38.896905" lon="16.5883817"><ele>212.0</ele><time>2026-03-29T17:25:47.581Z</time></trkpt><trkpt lat="38.8970633" lon="16.58839"><ele>212.0</ele><time>2026-03-29T17:25:48.581Z</time></trkpt><trkpt lat="38.897235" lon="16.58842"><ele>212.0</ele><time>2026-03-29T17:25:49.581Z</time></trkpt><trkpt lat="38.89742" lon="16.5884583"><ele>213.33333333333334</ele><time>2026-03-29T17:25:50.581Z</time></trkpt><trkpt lat="38.8976067" lon="16.588495"><ele>214.66666666666669</ele><time>2026-03-29T17:25:51.581Z</time></trkpt><trkpt lat="38.897795" lon="16.5885233"><ele>216.0</ele><time>2026-03-29T17:25:52.581Z</time></trkpt><trkpt lat="38.8979783" lon="16.5885517"><ele>216.0</ele><time>2026-03-29T17:25:53.581Z</time></trkpt><trkpt lat="38.89816" lon="16.5885583"><ele>216.0</ele><time>2026-03-29T17:25:54.581Z</time></trkpt><trkpt lat="38.8983283" lon="16.5885383"><ele>216.0</ele><time>2026-03-29T17:25:55.581Z</time></trkpt><trkpt lat="38.8984817" lon="16.588495"><ele>209.33333333333331</ele><time>2026-03-29T17:25:56.581Z</time></trkpt><trkpt lat="38.8986417" lon="16.5884383"><ele>202.66666666666666</ele><time>2026-03-29T17:25:57.581Z</time></trkpt><trkpt lat="38.8987883" lon="16.5883433"><ele>196.0</ele><time>2026-03-29T17:25:58.581Z</time></trkpt><trkpt lat="38.898925" lon="16.5882467"><ele>196.0</ele><time>2026-03-29T17:25:59.581Z</time></trkpt><trkpt lat="38.89905" lon="16.58815"><ele>196.0</ele><time>2026-03-29T17:26:00.581Z</time></trkpt><trkpt lat="38.899185" lon="16.588055"><ele>196.0</ele><time>2026-03-29T17:26:01.581Z</time></trkpt><trkpt lat="38.899325" lon="16.5879733"><ele>195.66666666666666</ele><time>2026-03-29T17:26:02.581Z</time></trkpt><trkpt lat="38.8994733" lon="16.58789"><ele>195.33333333333331</ele><time>2026-03-29T17:26:03.581Z</time></trkpt><trkpt lat="38.8996217" lon="16.587825"><ele>195.0</ele><time>2026-03-29T17:26:04.581Z</time></trkpt><trkpt lat="38.8997833" lon="16.58775"><ele>195.0</ele><time>2026-03-29T17:26:05.582Z</time></trkpt><trkpt lat="38.8999233" lon="16.5876533"><ele>195.0</ele><time>2026-03-29T17:26:06.581Z</time></trkpt><trkpt lat="38.9000583" lon="16.5875267"><ele>195.0</ele><time>2026-03-29T17:26:07.581Z</time></trkpt><trkpt lat="38.900185" lon="16.587415"><ele>193.0</ele><time>2026-03-29T17:26:08.581Z</time></trkpt><trkpt lat="38.9002933" lon="16.5872867"><ele>191.0</ele><time>2026-03-29T17:26:09.581Z</time></trkpt><trkpt lat="38.90038" lon="16.58714"><ele>189.0</ele><time>2026-03-29T17:26:10.581Z</time></trkpt><trkpt lat="38.9004567" lon="16.586985"><ele>187.0</ele><time>2026-03-29T17:26:11.581Z</time></trkpt><trkpt lat="38.90052" lon="16.5868367"><ele>187.0</ele><time>2026-03-29T17:26:12.581Z</time></trkpt><trkpt lat="38.9005833" lon="16.5866817"><ele>187.0</ele><time>2026-03-29T17:26:13.581Z</time></trkpt><trkpt lat="38.9006333" lon="16.5865383"><ele>187.0</ele><time>2026-03-29T17:26:14.581Z</time></trkpt><trkpt lat="38.9007017" lon="16.5863983"><ele>187.0</ele><time>2026-03-29T17:26:15.581Z</time></trkpt><trkpt lat="38.900765" lon="16.5862617"><ele>188.5</ele><time>2026-03-29T17:26:16.581Z</time></trkpt><trkpt lat="38.9008517" lon="16.5861517"><ele>190.0</ele><time>2026-03-29T17:26:17.581Z</time></trkpt><trkpt lat="38.9009267" lon="16.5860683"><ele>191.5</ele><time>2026-03-29T17:26:18.581Z</time></trkpt><trkpt lat="38.9010433" lon="16.58601"><ele>193.0</ele><time>2026-03-29T17:26:19.581Z</time></trkpt><trkpt lat="38.9011583" lon="16.5859933"><ele>193.0</ele><time>2026-03-29T17:26:20.581Z</time></trkpt><trkpt lat="38.9012833" lon="16.586005"><ele>193.0</ele><time>2026-03-29T17:26:21.581Z</time></trkpt><trkpt lat="38.901395" lon="16.58604"><ele>193.0</ele><time>2026-03-29T17:26:22.581Z</time></trkpt><trkpt lat="38.9015" lon="16.58608"><ele>193.0</ele><time>2026-03-29T17:26:23.581Z</time></trkpt><trkpt lat="38.901615" lon="16.5861467"><ele>189.5</ele><time>2026-03-29T17:26:24.581Z</time></trkpt><trkpt lat="38.9017367" lon="16.5861983"><ele>186.0</ele><time>2026-03-29T17:26:25.581Z</time></trkpt><trkpt lat="38.9018633" lon="16.5862483"><ele>182.5</ele><time>2026-03-29T17:26:26.581Z</time></trkpt><trkpt lat="38.90199" lon="16.5862883"><ele>179.0</ele><time>2026-03-29T17:26:27.581Z</time></trkpt><trkpt lat="38.9021067" lon="16.5863567"><ele>179.0</ele><time>2026-03-29T17:26:28.581Z</time></trkpt><trkpt lat="38.9022017" lon="16.5863967"><ele>179.0</ele><time>2026-03-29T17:26:29.581Z</time></trkpt><trkpt lat="38.9023217" lon="16.586415"><ele>179.0</ele><time>2026-03-29T17:26:30.581Z</time></trkpt><trkpt lat="38.902415" lon="16.586475"><ele>179.0</ele><time>2026-03-29T17:26:31.582Z</time></trkpt><trkpt lat="38.9025217" lon="16.5864933"><ele>179.0</ele><time>2026-03-29T17:26:32.582Z</time></trkpt><trkpt lat="38.9026483" lon="16.5865067"><ele>179.25</ele><time>2026-03-29T17:26:33.582Z</time></trkpt><trkpt lat="38.9027817" lon="16.5864933"><ele>179.5</ele><time>2026-03-29T17:26:34.582Z</time></trkpt><trkpt lat="38.9029033" lon="16.5864567"><ele>179.75</ele><time>2026-03-29T17:26:35.582Z</time></trkpt><trkpt lat="38.9030133" lon="16.5864217"><ele>180.0</ele><time>2026-03-29T17:26:36.582Z</time></trkpt><trkpt lat="38.9031083" lon="16.5863733"><ele>180.0</ele><time>2026-03-29T17:26:37.582Z</time></trkpt><trkpt lat="38.9031983" lon="16.5863117"><ele>180.0</ele><time>2026-03-29T17:26:38.582Z</time></trkpt><trkpt lat="38.9032883" lon="16.5862267"><ele>180.0</ele><time>2026-03-29T17:26:39.582Z</time></trkpt><trkpt lat="38.9033567" lon="16.5861167"><ele>180.0</ele><time>2026-03-29T17:26:40.582Z</time></trkpt><trkpt lat="38.9034083" lon="16.5859817"><ele>180.0</ele><time>2026-03-29T17:26:41.582Z</time></trkpt><trkpt lat="38.9034867" lon="16.5858483"><ele>180.75</ele><time>2026-03-29T17:26:42.582Z</time></trkpt><trkpt lat="38.9035633" lon="16.585695"><ele>181.5</ele><time>2026-03-29T17:26:43.582Z</time></trkpt><trkpt lat="38.9036167" lon="16.5855333"><ele>182.25</ele><time>2026-03-29T17:26:44.582Z</time></trkpt><trkpt lat="38.9036567" lon="16.5853917"><ele>183.0</ele><time>2026-03-29T17:26:45.582Z</time></trkpt><trkpt lat="38.903675" lon="16.58525"><ele>184.60000000000002</ele><time>2026-03-29T17:26:46.582Z</time></trkpt><trkpt lat="38.9036717" lon="16.5851117"><ele>186.20000000000002</ele><time>2026-03-29T17:26:47.582Z</time></trkpt><trkpt lat="38.90366" lon="16.5849833"><ele>187.8</ele><time>2026-03-29T17:26:48.582Z</time></trkpt><trkpt lat="38.9036317" lon="16.5848433"><ele>189.4</ele><time>2026-03-29T17:26:49.582Z</time></trkpt><trkpt lat="38.9035883" lon="16.5847"><ele>191.0</ele><time>2026-03-29T17:26:50.582Z</time></trkpt><trkpt lat="38.9035467" lon="16.5845483"><ele>198.75</ele><time>2026-03-29T17:26:51.582Z</time></trkpt><trkpt lat="38.9035017" lon="16.584395"><ele>206.5</ele><time>2026-03-29T17:26:52.582Z</time></trkpt><trkpt lat="38.9034533" lon="16.5842433"><ele>214.25</ele><time>2026-03-29T17:26:53.582Z</time></trkpt><trkpt lat="38.9034117" lon="16.5840917"><ele>222.0</ele><time>2026-03-29T17:26:54.582Z</time></trkpt><trkpt lat="38.9032772" lon="16.584373"><ele>139.0</ele><time>2026-03-29T17:27:24.731Z</time></trkpt><trkpt lat="38.8990468" lon="16.5733594"><ele>160.0</ele><time>2026-03-29T17:27:31.764Z</time></trkpt><trkpt lat="38.8994533" lon="16.574095"><ele>160.0</ele><time>2026-03-29T17:27:48.579Z</time></trkpt><trkpt lat="38.8994183" lon="16.5738933"><ele>160.0</ele><time>2026-03-29T17:27:49.579Z</time></trkpt><trkpt lat="38.8993833" lon="16.573705"><ele>160.0</ele><time>2026-03-29T17:27:50.579Z</time></trkpt><trkpt lat="38.8993483" lon="16.5735033"><ele>155.66666666666669</ele><time>2026-03-29T17:27:51.579Z</time></trkpt><trkpt lat="38.8993133" lon="16.573305"><ele>151.33333333333334</ele><time>2026-03-29T17:27:52.579Z</time></trkpt><trkpt lat="38.899285" lon="16.5730917"><ele>147.0</ele><time>2026-03-29T17:27:53.579Z</time></trkpt><trkpt lat="38.8992533" lon="16.5728667"><ele>141.33333333333334</ele><time>2026-03-29T17:27:54.579Z</time></trkpt><trkpt lat="38.899245" lon="16.5726433"><ele>135.66666666666669</ele><time>2026-03-29T17:27:55.579Z</time></trkpt><trkpt lat="38.89923" lon="16.5724083"><ele>130.0</ele><time>2026-03-29T17:27:56.579Z</time></trkpt><trkpt lat="38.89921" lon="16.5721517"><ele>127.66666666666667</ele><time>2026-03-29T17:27:57.579Z</time></trkpt><trkpt lat="38.8991867" lon="16.5718833"><ele>125.33333333333334</ele><time>2026-03-29T17:27:58.579Z</time></trkpt><trkpt lat="38.899165" lon="16.571605"><ele>123.0</ele><time>2026-03-29T17:27:59.58Z</time></trkpt><trkpt lat="38.8991367" lon="16.5713367"><ele>127.0</ele><time>2026-03-29T17:28:00.58Z</time></trkpt><trkpt lat="38.899115" lon="16.5710317"><ele>131.0</ele><time>2026-03-29T17:28:01.579Z</time></trkpt><trkpt lat="38.8991017" lon="16.5707333"><ele>131.0</ele><time>2026-03-29T17:28:02.579Z</time></trkpt><trkpt lat="38.8990833" lon="16.5704217"><ele>131.0</ele><time>2026-03-29T17:28:03.579Z</time></trkpt><trkpt lat="38.8990583" lon="16.5701167"><ele>132.33333333333331</ele><time>2026-03-29T17:28:04.579Z</time></trkpt><trkpt lat="38.899035" lon="16.5698217"><ele>133.66666666666666</ele><time>2026-03-29T17:28:05.579Z</time></trkpt><trkpt lat="38.8990167" lon="16.5695433"><ele>135.0</ele><time>2026-03-29T17:28:06.579Z</time></trkpt><trkpt lat="38.898985" lon="16.56928"><ele>132.0</ele><time>2026-03-29T17:28:07.579Z</time></trkpt><trkpt lat="38.898965" lon="16.569015"><ele>129.0</ele><time>2026-03-29T17:28:08.579Z</time></trkpt><trkpt lat="38.8989533" lon="16.5687567"><ele>126.0</ele><time>2026-03-29T17:28:09.579Z</time></trkpt><trkpt lat="38.8989283" lon="16.5684983"><ele>132.0</ele><time>2026-03-29T17:28:10.579Z</time></trkpt><trkpt lat="38.8988867" lon="16.56825"><ele>138.0</ele><time>2026-03-29T17:28:11.579Z</time></trkpt><trkpt lat="38.898835" lon="16.5679933"><ele>144.0</ele><time>2026-03-29T17:28:12.579Z</time></trkpt><trkpt lat="38.8987783" lon="16.567735"><ele>146.0</ele><time>2026-03-29T17:28:13.579Z</time></trkpt><trkpt lat="38.898705" lon="16.5674833"><ele>148.0</ele><time>2026-03-29T17:28:14.579Z</time></trkpt><trkpt lat="38.8986083" lon="16.5672467"><ele>150.0</ele><time>2026-03-29T17:28:15.579Z</time></trkpt><trkpt lat="38.8985083" lon="16.5669983"><ele>138.66666666666666</ele><time>2026-03-29T17:28:16.579Z</time></trkpt><trkpt lat="38.8984067" lon="16.56676"><ele>127.33333333333333</ele><time>2026-03-29T17:28:17.579Z</time></trkpt><trkpt lat="38.8982883" lon="16.5665317"><ele>116.0</ele><time>2026-03-29T17:28:18.579Z</time></trkpt><trkpt lat="38.898155" lon="16.5663083"><ele>133.0</ele><time>2026-03-29T17:28:19.579Z</time></trkpt><trkpt lat="38.8979917" lon="16.5661017"><ele>150.0</ele><time>2026-03-29T17:28:20.579Z</time></trkpt><trkpt lat="38.897835" lon="16.5658817"><ele>150.0</ele><time>2026-03-29T17:28:21.579Z</time></trkpt><trkpt lat="38.897685" lon="16.5656417"><ele>150.0</ele><time>2026-03-29T17:28:22.579Z</time></trkpt><trkpt lat="38.8975367" lon="16.5653883"><ele>134.5</ele><time>2026-03-29T17:28:23.579Z</time></trkpt><trkpt lat="38.897385" lon="16.565125"><ele>119.0</ele><time>2026-03-29T17:28:24.579Z</time></trkpt><trkpt lat="38.8972433" lon="16.564855"><ele>119.0</ele><time>2026-03-29T17:28:25.579Z</time></trkpt><trkpt lat="38.8971167" lon="16.56457"><ele>119.0</ele><time>2026-03-29T17:28:26.579Z</time></trkpt><trkpt lat="38.8969917" lon="16.5642717"><ele>125.0</ele><time>2026-03-29T17:28:27.579Z</time></trkpt><trkpt lat="38.8968667" lon="16.5639733"><ele>131.0</ele><time>2026-03-29T17:28:28.579Z</time></trkpt><trkpt lat="38.8967517" lon="16.5636733"><ele>116.0</ele><time>2026-03-29T17:28:29.579Z</time></trkpt><trkpt lat="38.89664" lon="16.56336"><ele>101.0</ele><time>2026-03-29T17:28:30.579Z</time></trkpt><trkpt lat="38.8965283" lon="16.56304"><ele>103.5</ele><time>2026-03-29T17:28:31.579Z</time></trkpt><trkpt lat="38.8964367" lon="16.5627017"><ele>106.0</ele><time>2026-03-29T17:28:32.579Z</time></trkpt><trkpt lat="38.8963633" lon="16.5623583"><ele>110.0</ele><time>2026-03-29T17:28:33.579Z</time></trkpt><trkpt lat="38.8963117" lon="16.5620033"><ele>114.0</ele><time>2026-03-29T17:28:34.579Z</time></trkpt><trkpt lat="38.89626" lon="16.5616433"><ele>114.0</ele><time>2026-03-29T17:28:35.579Z</time></trkpt><trkpt lat="38.8962017" lon="16.561285"><ele>114.0</ele><time>2026-03-29T17:28:36.579Z</time></trkpt><trkpt lat="38.896145" lon="16.560925"><ele>111.5</ele><time>2026-03-29T17:28:37.579Z</time></trkpt><trkpt lat="38.8960917" lon="16.56056"><ele>109.0</ele><time>2026-03-29T17:28:38.579Z</time></trkpt><trkpt lat="38.8960567" lon="16.5601767"><ele>99.5</ele><time>2026-03-29T17:28:39.579Z</time></trkpt><trkpt lat="38.8959867" lon="16.559815"><ele>90.0</ele><time>2026-03-29T17:28:40.579Z</time></trkpt><trkpt lat="38.8959283" lon="16.5594467"><ele>81.0</ele><time>2026-03-29T17:28:41.579Z</time></trkpt><trkpt lat="38.8958817" lon="16.5590783"><ele>72.0</ele><time>2026-03-29T17:28:42.579Z</time></trkpt><trkpt lat="38.89582" lon="16.5587167"><ele>72.5</ele><time>2026-03-29T17:28:43.579Z</time></trkpt><trkpt lat="38.895745" lon="16.558365"><ele>73.0</ele><time>2026-03-29T17:28:44.579Z</time></trkpt><trkpt lat="38.89567" lon="16.5580117"><ele>73.0</ele><time>2026-03-29T17:28:45.579Z</time></trkpt><trkpt lat="38.8955983" lon="16.5576767"><ele>73.0</ele><time>2026-03-29T17:28:46.579Z</time></trkpt><trkpt lat="38.8955367" lon="16.5573433"><ele>72.0</ele><time>2026-03-29T17:28:47.58Z</time></trkpt><trkpt lat="38.8954683" lon="16.5570183"><ele>71.0</ele><time>2026-03-29T17:28:48.579Z</time></trkpt><trkpt lat="38.8953983" lon="16.55669"><ele>71.0</ele><time>2026-03-29T17:28:49.58Z</time></trkpt><trkpt lat="38.8953167" lon="16.5563683"><ele>71.0</ele><time>2026-03-29T17:28:50.579Z</time></trkpt><trkpt lat="38.8952167" lon="16.5560517"><ele>71.0</ele><time>2026-03-29T17:28:51.579Z</time></trkpt><trkpt lat="38.8951183" lon="16.5557433"><ele>71.0</ele><time>2026-03-29T17:28:52.579Z</time></trkpt><trkpt lat="38.895005" lon="16.5554433"><ele>69.5</ele><time>2026-03-29T17:28:53.579Z</time></trkpt><trkpt lat="38.8948967" lon="16.555135"><ele>68.0</ele><time>2026-03-29T17:28:54.579Z</time></trkpt><trkpt lat="38.8947617" lon="16.5548333"><ele>67.0</ele><time>2026-03-29T17:28:55.579Z</time></trkpt><trkpt lat="38.89463" lon="16.5545183"><ele>66.0</ele><time>2026-03-29T17:28:56.579Z</time></trkpt><trkpt lat="38.8944917" lon="16.5542117"><ele>66.0</ele><time>2026-03-29T17:28:57.579Z</time></trkpt><trkpt lat="38.8943567" lon="16.553895"><ele>66.0</ele><time>2026-03-29T17:28:58.579Z</time></trkpt><trkpt lat="38.8942167" lon="16.5535683"><ele>71.0</ele><time>2026-03-29T17:28:59.579Z</time></trkpt><trkpt lat="38.8940833" lon="16.5532467"><ele>76.0</ele><time>2026-03-29T17:29:00.579Z</time></trkpt><trkpt lat="38.8939433" lon="16.55293"><ele>83.5</ele><time>2026-03-29T17:29:01.579Z</time></trkpt><trkpt lat="38.8938017" lon="16.5526083"><ele>91.0</ele><time>2026-03-29T17:29:02.579Z</time></trkpt><trkpt lat="38.89366" lon="16.5522883"><ele>94.0</ele><time>2026-03-29T17:29:03.579Z</time></trkpt><trkpt lat="38.8935217" lon="16.5519567"><ele>97.0</ele><time>2026-03-29T17:29:04.579Z</time></trkpt><trkpt lat="38.8934" lon="16.5516183"><ele>91.0</ele><time>2026-03-29T17:29:05.579Z</time></trkpt><trkpt lat="38.8933083" lon="16.551275"><ele>85.0</ele><time>2026-03-29T17:29:06.579Z</time></trkpt><trkpt lat="38.8932333" lon="16.5509267"><ele>85.0</ele><time>2026-03-29T17:29:07.579Z</time></trkpt><trkpt lat="38.8931633" lon="16.5505883"><ele>85.0</ele><time>2026-03-29T17:29:08.579Z</time></trkpt><trkpt lat="38.893105" lon="16.5502433"><ele>84.0</ele><time>2026-03-29T17:29:09.579Z</time></trkpt><trkpt lat="38.8930633" lon="16.549905"><ele>83.0</ele><time>2026-03-29T17:29:10.579Z</time></trkpt><trkpt lat="38.89304" lon="16.549565"><ele>83.0</ele><time>2026-03-29T17:29:11.579Z</time></trkpt><trkpt lat="38.8930233" lon="16.5492217"><ele>83.0</ele><time>2026-03-29T17:29:12.579Z</time></trkpt><trkpt lat="38.8930133" lon="16.5488767"><ele>83.0</ele><time>2026-03-29T17:29:13.579Z</time></trkpt><trkpt lat="38.893025" lon="16.5485233"><ele>83.0</ele><time>2026-03-29T17:29:14.579Z</time></trkpt><trkpt lat="38.8930367" lon="16.54818"><ele>80.0</ele><time>2026-03-29T17:29:15.58Z</time></trkpt><trkpt lat="38.89306" lon="16.5478383"><ele>77.0</ele><time>2026-03-29T17:29:16.579Z</time></trkpt><trkpt lat="38.89309" lon="16.5474967"><ele>77.0</ele><time>2026-03-29T17:29:17.579Z</time></trkpt><trkpt lat="38.893145" lon="16.54717"><ele>77.0</ele><time>2026-03-29T17:29:18.579Z</time></trkpt><trkpt lat="38.8932017" lon="16.5468333"><ele>76.5</ele><time>2026-03-29T17:29:19.579Z</time></trkpt><trkpt lat="38.8932667" lon="16.5464867"><ele>76.0</ele><time>2026-03-29T17:29:20.579Z</time></trkpt><trkpt lat="38.893345" lon="16.5461517"><ele>81.5</ele><time>2026-03-29T17:29:21.579Z</time></trkpt><trkpt lat="38.89343" lon="16.5458217"><ele>87.0</ele><time>2026-03-29T17:29:22.579Z</time></trkpt><trkpt lat="38.8935267" lon="16.5455067"><ele>89.0</ele><time>2026-03-29T17:29:23.579Z</time></trkpt><trkpt lat="38.893635" lon="16.5451933"><ele>91.0</ele><time>2026-03-29T17:29:24.579Z</time></trkpt><trkpt lat="38.893745" lon="16.544895"><ele>91.0</ele><time>2026-03-29T17:29:25.579Z</time></trkpt><trkpt lat="38.8938783" lon="16.5446"><ele>91.0</ele><time>2026-03-29T17:29:26.579Z</time></trkpt><trkpt lat="38.8940217" lon="16.5443167"><ele>92.0</ele><time>2026-03-29T17:29:27.579Z</time></trkpt><trkpt lat="38.8941617" lon="16.5440333"><ele>93.0</ele><time>2026-03-29T17:29:28.579Z</time></trkpt><trkpt lat="38.8943033" lon="16.5437483"><ele>87.5</ele><time>2026-03-29T17:29:29.579Z</time></trkpt><trkpt lat="38.8944417" lon="16.543465"><ele>82.0</ele><time>2026-03-29T17:29:30.579Z</time></trkpt><trkpt lat="38.8945833" lon="16.5431733"><ele>82.0</ele><time>2026-03-29T17:29:31.579Z</time></trkpt><trkpt lat="38.8947317" lon="16.542885"><ele>82.0</ele><time>2026-03-29T17:29:32.579Z</time></trkpt><trkpt lat="38.8948717" lon="16.5425983"><ele>82.5</ele><time>2026-03-29T17:29:33.579Z</time></trkpt><trkpt lat="38.8950167" lon="16.542305"><ele>83.0</ele><time>2026-03-29T17:29:34.579Z</time></trkpt><trkpt lat="38.8951617" lon="16.542005"><ele>83.0</ele><time>2026-03-29T17:29:35.579Z</time></trkpt><trkpt lat="38.89531" lon="16.541715"><ele>83.0</ele><time>2026-03-29T17:29:36.579Z</time></trkpt><trkpt lat="38.8954567" lon="16.5414283"><ele>80.5</ele><time>2026-03-29T17:29:37.579Z</time></trkpt><trkpt lat="38.8956" lon="16.5411367"><ele>78.0</ele><time>2026-03-29T17:29:38.579Z</time></trkpt><trkpt lat="38.8957433" lon="16.5408383"><ele>78.0</ele><time>2026-03-29T17:29:39.58Z</time></trkpt><trkpt lat="38.8958833" lon="16.540545"><ele>78.0</ele><time>2026-03-29T17:29:40.579Z</time></trkpt><trkpt lat="38.896015" lon="16.5402467"><ele>82.0</ele><time>2026-03-29T17:29:41.579Z</time></trkpt><trkpt lat="38.896135" lon="16.5399533"><ele>86.0</ele><time>2026-03-29T17:29:42.579Z</time></trkpt><trkpt lat="38.8962567" lon="16.5396583"><ele>85.5</ele><time>2026-03-29T17:29:43.579Z</time></trkpt><trkpt lat="38.8963767" lon="16.5393617"><ele>85.0</ele><time>2026-03-29T17:29:44.579Z</time></trkpt><trkpt lat="38.8964867" lon="16.5390633"><ele>85.0</ele><time>2026-03-29T17:29:45.579Z</time></trkpt><trkpt lat="38.8965867" lon="16.5387583"><ele>85.0</ele><time>2026-03-29T17:29:46.579Z</time></trkpt><trkpt lat="38.8966667" lon="16.53845"><ele>84.5</ele><time>2026-03-29T17:29:47.579Z</time></trkpt><trkpt lat="38.89674" lon="16.5381283"><ele>84.0</ele><time>2026-03-29T17:29:48.579Z</time></trkpt><trkpt lat="38.8968083" lon="16.5378067"><ele>84.0</ele><time>2026-03-29T17:29:49.579Z</time></trkpt><trkpt lat="38.89687" lon="16.5374817"><ele>84.0</ele><time>2026-03-29T17:29:50.579Z</time></trkpt><trkpt lat="38.8969233" lon="16.537155"><ele>84.0</ele><time>2026-03-29T17:29:51.579Z</time></trkpt><trkpt lat="38.8969683" lon="16.5368267"><ele>84.0</ele><time>2026-03-29T17:29:52.579Z</time></trkpt><trkpt lat="38.8970017" lon="16.5364933"><ele>82.0</ele><time>2026-03-29T17:29:53.579Z</time></trkpt><trkpt lat="38.8970267" lon="16.536155"><ele>80.0</ele><time>2026-03-29T17:29:54.579Z</time></trkpt><trkpt lat="38.8970517" lon="16.53581"><ele>80.0</ele><time>2026-03-29T17:29:55.579Z</time></trkpt><trkpt lat="38.897065" lon="16.53545"><ele>80.0</ele><time>2026-03-29T17:29:56.579Z</time></trkpt><trkpt lat="38.8970833" lon="16.53508"><ele>79.5</ele><time>2026-03-29T17:29:57.579Z</time></trkpt><trkpt lat="38.897095" lon="16.5347133"><ele>79.0</ele><time>2026-03-29T17:29:58.579Z</time></trkpt><trkpt lat="38.8971117" lon="16.5343467"><ele>78.0</ele><time>2026-03-29T17:29:59.579Z</time></trkpt><trkpt lat="38.8971267" lon="16.53398"><ele>77.0</ele><time>2026-03-29T17:30:00.579Z</time></trkpt><trkpt lat="38.897145" lon="16.533615"><ele>77.0</ele><time>2026-03-29T17:30:01.579Z</time></trkpt><trkpt lat="38.89716" lon="16.5332533"><ele>77.0</ele><time>2026-03-29T17:30:02.579Z</time></trkpt><trkpt lat="38.897175" lon="16.53289"><ele>77.5</ele><time>2026-03-29T17:30:03.579Z</time></trkpt><trkpt lat="38.8971967" lon="16.532525"><ele>78.0</ele><time>2026-03-29T17:30:04.579Z</time></trkpt><trkpt lat="38.897205" lon="16.5321517"><ele>78.0</ele><time>2026-03-29T17:30:05.579Z</time></trkpt><trkpt lat="38.8972117" lon="16.531775"><ele>78.0</ele><time>2026-03-29T17:30:06.579Z</time></trkpt><trkpt lat="38.8972267" lon="16.5313917"><ele>78.0</ele><time>2026-03-29T17:30:07.579Z</time></trkpt><trkpt lat="38.8972433" lon="16.5310167"><ele>78.0</ele><time>2026-03-29T17:30:08.579Z</time></trkpt><trkpt lat="38.89726" lon="16.5306483"><ele>79.0</ele><time>2026-03-29T17:30:09.579Z</time></trkpt><trkpt lat="38.897285" lon="16.530285"><ele>80.0</ele><time>2026-03-29T17:30:10.579Z</time></trkpt><trkpt lat="38.8973133" lon="16.5299217"><ele>80.0</ele><time>2026-03-29T17:30:11.58Z</time></trkpt><trkpt lat="38.897355" lon="16.52956"><ele>80.0</ele><time>2026-03-29T17:30:12.579Z</time></trkpt><trkpt lat="38.8974133" lon="16.529205"><ele>80.0</ele><time>2026-03-29T17:30:13.579Z</time></trkpt><trkpt lat="38.897465" lon="16.52886"><ele>80.0</ele><time>2026-03-29T17:30:14.579Z</time></trkpt><trkpt lat="38.89753" lon="16.528505"><ele>87.5</ele><time>2026-03-29T17:30:15.579Z</time></trkpt><trkpt lat="38.8975933" lon="16.5281533"><ele>95.0</ele><time>2026-03-29T17:30:16.579Z</time></trkpt><trkpt lat="38.8976617" lon="16.5278117"><ele>95.5</ele><time>2026-03-29T17:30:17.579Z</time></trkpt><trkpt lat="38.8977217" lon="16.527475"><ele>96.0</ele><time>2026-03-29T17:30:18.579Z</time></trkpt><trkpt lat="38.89779" lon="16.5271383"><ele>94.5</ele><time>2026-03-29T17:30:19.579Z</time></trkpt><trkpt lat="38.8978533" lon="16.526805"><ele>93.0</ele><time>2026-03-29T17:30:20.579Z</time></trkpt><trkpt lat="38.8979167" lon="16.5264817"><ele>90.0</ele><time>2026-03-29T17:30:21.579Z</time></trkpt><trkpt lat="38.8979733" lon="16.5261633"><ele>87.0</ele><time>2026-03-29T17:30:22.579Z</time></trkpt><trkpt lat="38.8980383" lon="16.5258367"><ele>87.0</ele><time>2026-03-29T17:30:23.579Z</time></trkpt><trkpt lat="38.8981083" lon="16.5255133"><ele>87.0</ele><time>2026-03-29T17:30:24.579Z</time></trkpt><trkpt lat="38.8981617" lon="16.525185"><ele>88.0</ele><time>2026-03-29T17:30:25.579Z</time></trkpt><trkpt lat="38.8982283" lon="16.5248517"><ele>89.0</ele><time>2026-03-29T17:30:26.579Z</time></trkpt><trkpt lat="38.8982933" lon="16.5245183"><ele>89.0</ele><time>2026-03-29T17:30:27.579Z</time></trkpt><trkpt lat="38.8983617" lon="16.5241883"><ele>89.0</ele><time>2026-03-29T17:30:28.579Z</time></trkpt><trkpt lat="38.8984267" lon="16.52385"><ele>97.0</ele><time>2026-03-29T17:30:29.579Z</time></trkpt><trkpt lat="38.8984833" lon="16.5235217"><ele>105.0</ele><time>2026-03-29T17:30:30.579Z</time></trkpt><trkpt lat="38.898545" lon="16.52319"><ele>102.0</ele><time>2026-03-29T17:30:31.579Z</time></trkpt><trkpt lat="38.8986267" lon="16.5228567"><ele>99.0</ele><time>2026-03-29T17:30:32.579Z</time></trkpt><trkpt lat="38.8986917" lon="16.5225283"><ele>99.0</ele><time>2026-03-29T17:30:33.579Z</time></trkpt><trkpt lat="38.89877" lon="16.5222267"><ele>99.0</ele><time>2026-03-29T17:30:34.579Z</time></trkpt><trkpt lat="38.8988517" lon="16.521945"><ele>97.0</ele><time>2026-03-29T17:30:35.579Z</time></trkpt><trkpt lat="38.8989367" lon="16.5216683"><ele>95.0</ele><time>2026-03-29T17:30:36.579Z</time></trkpt><trkpt lat="38.8990283" lon="16.5214"><ele>92.5</ele><time>2026-03-29T17:30:37.579Z</time></trkpt><trkpt lat="38.899135" lon="16.5211217"><ele>90.0</ele><time>2026-03-29T17:30:38.579Z</time></trkpt><trkpt lat="38.89925" lon="16.52085"><ele>90.0</ele><time>2026-03-29T17:30:39.58Z</time></trkpt><trkpt lat="38.8993633" lon="16.5205767"><ele>90.0</ele><time>2026-03-29T17:30:40.579Z</time></trkpt><trkpt lat="38.8994883" lon="16.520295"><ele>90.0</ele><time>2026-03-29T17:30:41.579Z</time></trkpt><trkpt lat="38.89962" lon="16.52001"><ele>90.0</ele><time>2026-03-29T17:30:42.579Z</time></trkpt><trkpt lat="38.899745" lon="16.519715"><ele>92.0</ele><time>2026-03-29T17:30:43.579Z</time></trkpt><trkpt lat="38.8998817" lon="16.5194233"><ele>94.0</ele><time>2026-03-29T17:30:44.579Z</time></trkpt><trkpt lat="38.9000217" lon="16.5191233"><ele>94.0</ele><time>2026-03-29T17:30:45.579Z</time></trkpt><trkpt lat="38.9001617" lon="16.5188133"><ele>94.0</ele><time>2026-03-29T17:30:46.579Z</time></trkpt><trkpt lat="38.90031" lon="16.5184983"><ele>93.5</ele><time>2026-03-29T17:30:47.579Z</time></trkpt><trkpt lat="38.9004433" lon="16.5181933"><ele>93.0</ele><time>2026-03-29T17:30:48.579Z</time></trkpt><trkpt lat="38.9005783" lon="16.5178983"><ele>95.5</ele><time>2026-03-29T17:30:49.579Z</time></trkpt><trkpt lat="38.900715" lon="16.5175983"><ele>98.0</ele><time>2026-03-29T17:30:50.579Z</time></trkpt><trkpt lat="38.90085" lon="16.5173033"><ele>99.0</ele><time>2026-03-29T17:30:51.579Z</time></trkpt><trkpt lat="38.9009883" lon="16.5170067"><ele>100.0</ele><time>2026-03-29T17:30:52.579Z</time></trkpt><trkpt lat="38.9011233" lon="16.5167067"><ele>100.0</ele><time>2026-03-29T17:30:53.579Z</time></trkpt><trkpt lat="38.9012733" lon="16.5163917"><ele>100.0</ele><time>2026-03-29T17:30:54.579Z</time></trkpt><trkpt lat="38.901415" lon="16.51608"><ele>103.0</ele><time>2026-03-29T17:30:55.58Z</time></trkpt><trkpt lat="38.901565" lon="16.51577"><ele>106.0</ele><time>2026-03-29T17:30:56.579Z</time></trkpt><trkpt lat="38.9017167" lon="16.51544"><ele>105.5</ele><time>2026-03-29T17:30:57.579Z</time></trkpt><trkpt lat="38.9018783" lon="16.5150933"><ele>105.0</ele><time>2026-03-29T17:30:58.579Z</time></trkpt><trkpt lat="38.9020383" lon="16.514735"><ele>105.5</ele><time>2026-03-29T17:30:59.579Z</time></trkpt><trkpt lat="38.9021883" lon="16.5143733"><ele>106.0</ele><time>2026-03-29T17:31:00.58Z</time></trkpt><trkpt lat="38.90235" lon="16.5140017"><ele>106.0</ele><time>2026-03-29T17:31:01.579Z</time></trkpt><trkpt lat="38.9025083" lon="16.51365"><ele>106.0</ele><time>2026-03-29T17:31:02.579Z</time></trkpt><trkpt lat="38.9026717" lon="16.5133183"><ele>116.0</ele><time>2026-03-29T17:31:03.579Z</time></trkpt><trkpt lat="38.9028233" lon="16.5130017"><ele>126.0</ele><time>2026-03-29T17:31:04.579Z</time></trkpt><trkpt lat="38.9029683" lon="16.5126883"><ele>126.0</ele><time>2026-03-29T17:31:05.579Z</time></trkpt><trkpt lat="38.9031083" lon="16.51237"><ele>126.0</ele><time>2026-03-29T17:31:06.579Z</time></trkpt><trkpt lat="38.903265" lon="16.5120567"><ele>129.5</ele><time>2026-03-29T17:31:07.579Z</time></trkpt><trkpt lat="38.9034217" lon="16.51175"><ele>133.0</ele><time>2026-03-29T17:31:08.579Z</time></trkpt><trkpt lat="38.9035917" lon="16.511435"><ele>128.5</ele><time>2026-03-29T17:31:09.579Z</time></trkpt><trkpt lat="38.9037567" lon="16.5111283"><ele>124.0</ele><time>2026-03-29T17:31:10.579Z</time></trkpt><trkpt lat="38.9039183" lon="16.5108133"><ele>124.0</ele><time>2026-03-29T17:31:11.579Z</time></trkpt><trkpt lat="38.9040917" lon="16.5104983"><ele>124.0</ele><time>2026-03-29T17:31:12.579Z</time></trkpt><trkpt lat="38.90426" lon="16.510205"><ele>126.5</ele><time>2026-03-29T17:31:13.579Z</time></trkpt><trkpt lat="38.9044417" lon="16.5099233"><ele>129.0</ele><time>2026-03-29T17:31:14.579Z</time></trkpt><trkpt lat="38.9046233" lon="16.5096517"><ele>126.5</ele><time>2026-03-29T17:31:15.579Z</time></trkpt><trkpt lat="38.90481" lon="16.5093867"><ele>124.0</ele><time>2026-03-29T17:31:16.579Z</time></trkpt><trkpt lat="38.9050117" lon="16.50912"><ele>129.5</ele><time>2026-03-29T17:31:17.579Z</time></trkpt><trkpt lat="38.905205" lon="16.50886"><ele>135.0</ele><time>2026-03-29T17:31:18.579Z</time></trkpt><trkpt lat="38.9053983" lon="16.5086"><ele>135.0</ele><time>2026-03-29T17:31:19.579Z</time></trkpt><trkpt lat="38.9056" lon="16.5083283"><ele>135.0</ele><time>2026-03-29T17:31:20.579Z</time></trkpt><trkpt lat="38.9057967" lon="16.5080567"><ele>132.0</ele><time>2026-03-29T17:31:21.579Z</time></trkpt><trkpt lat="38.9059983" lon="16.5077767"><ele>129.0</ele><time>2026-03-29T17:31:22.579Z</time></trkpt><trkpt lat="38.906205" lon="16.5075017"><ele>129.0</ele><time>2026-03-29T17:31:23.579Z</time></trkpt><trkpt lat="38.9064033" lon="16.5072333"><ele>129.0</ele><time>2026-03-29T17:31:24.579Z</time></trkpt><trkpt lat="38.9065933" lon="16.5069767"><ele>127.0</ele><time>2026-03-29T17:31:25.579Z</time></trkpt><trkpt lat="38.9067817" lon="16.5067183"><ele>125.0</ele><time>2026-03-29T17:31:26.579Z</time></trkpt><trkpt lat="38.9069667" lon="16.5064633"><ele>124.0</ele><time>2026-03-29T17:31:27.579Z</time></trkpt><trkpt lat="38.90714" lon="16.5062283"><ele>123.0</ele><time>2026-03-29T17:31:28.579Z</time></trkpt><trkpt lat="38.90732" lon="16.505985"><ele>123.0</ele><time>2026-03-29T17:31:29.579Z</time></trkpt><trkpt lat="38.9075033" lon="16.5057467"><ele>123.0</ele><time>2026-03-29T17:31:30.579Z</time></trkpt><trkpt lat="38.9076767" lon="16.5055033"><ele>125.0</ele><time>2026-03-29T17:31:31.579Z</time></trkpt><trkpt lat="38.9078433" lon="16.5052667"><ele>127.0</ele><time>2026-03-29T17:31:32.579Z</time></trkpt><trkpt lat="38.908015" lon="16.5050217"><ele>127.0</ele><time>2026-03-29T17:31:33.579Z</time></trkpt><trkpt lat="38.908175" lon="16.5047633"><ele>127.0</ele><time>2026-03-29T17:31:34.579Z</time></trkpt><trkpt lat="38.9083283" lon="16.504495"><ele>128.0</ele><time>2026-03-29T17:31:35.579Z</time></trkpt><trkpt lat="38.90848" lon="16.5042233"><ele>129.0</ele><time>2026-03-29T17:31:36.579Z</time></trkpt><trkpt lat="38.90863" lon="16.5039517"><ele>129.5</ele><time>2026-03-29T17:31:37.579Z</time></trkpt><trkpt lat="38.90878" lon="16.5036633"><ele>130.0</ele><time>2026-03-29T17:31:38.579Z</time></trkpt><trkpt lat="38.9089167" lon="16.5033783"><ele>130.0</ele><time>2026-03-29T17:31:39.579Z</time></trkpt><trkpt lat="38.9090583" lon="16.5030783"><ele>130.0</ele><time>2026-03-29T17:31:40.579Z</time></trkpt><trkpt lat="38.909205" lon="16.502775"><ele>132.5</ele><time>2026-03-29T17:31:41.579Z</time></trkpt><trkpt lat="38.9093467" lon="16.5024683"><ele>135.0</ele><time>2026-03-29T17:31:42.579Z</time></trkpt><trkpt lat="38.9094917" lon="16.5021517"><ele>133.5</ele><time>2026-03-29T17:31:43.579Z</time></trkpt><trkpt lat="38.90963" lon="16.5018367"><ele>132.0</ele><time>2026-03-29T17:31:44.579Z</time></trkpt><trkpt lat="38.9097767" lon="16.5015167"><ele>131.5</ele><time>2026-03-29T17:31:45.579Z</time></trkpt><trkpt lat="38.909925" lon="16.50119"><ele>131.0</ele><time>2026-03-29T17:31:46.579Z</time></trkpt><trkpt lat="38.9100683" lon="16.500875"><ele>133.0</ele><time>2026-03-29T17:31:47.579Z</time></trkpt><trkpt lat="38.910215" lon="16.5005567"><ele>135.0</ele><time>2026-03-29T17:31:48.579Z</time></trkpt><trkpt lat="38.9103567" lon="16.500235"><ele>135.0</ele><time>2026-03-29T17:31:49.579Z</time></trkpt><trkpt lat="38.9105017" lon="16.49991"><ele>135.0</ele><time>2026-03-29T17:31:50.58Z</time></trkpt><trkpt lat="38.9106417" lon="16.4995883"><ele>134.5</ele><time>2026-03-29T17:31:51.579Z</time></trkpt><trkpt lat="38.9107883" lon="16.4992667"><ele>134.0</ele><time>2026-03-29T17:31:52.579Z</time></trkpt><trkpt lat="38.9109333" lon="16.4989433"><ele>144.0</ele><time>2026-03-29T17:31:53.579Z</time></trkpt><trkpt lat="38.9110867" lon="16.49862"><ele>154.0</ele><time>2026-03-29T17:31:54.579Z</time></trkpt><trkpt lat="38.9112367" lon="16.498305"><ele>154.0</ele><time>2026-03-29T17:31:55.579Z</time></trkpt><trkpt lat="38.911365" lon="16.4979983"><ele>154.0</ele><time>2026-03-29T17:31:56.579Z</time></trkpt><trkpt lat="38.9114917" lon="16.497695"><ele>154.5</ele><time>2026-03-29T17:31:57.579Z</time></trkpt><trkpt lat="38.9116283" lon="16.4973867"><ele>155.0</ele><time>2026-03-29T17:31:58.579Z</time></trkpt><trkpt lat="38.9117667" lon="16.4970783"><ele>157.0</ele><time>2026-03-29T17:31:59.579Z</time></trkpt><trkpt lat="38.911885" lon="16.4967633"><ele>159.0</ele><time>2026-03-29T17:32:00.579Z</time></trkpt><trkpt lat="38.9120183" lon="16.4964517"><ele>161.0</ele><time>2026-03-29T17:32:01.58Z</time></trkpt><trkpt lat="38.9121667" lon="16.4961217"><ele>163.0</ele><time>2026-03-29T17:32:02.579Z</time></trkpt><trkpt lat="38.9123067" lon="16.4958117"><ele>163.0</ele><time>2026-03-29T17:32:03.579Z</time></trkpt><trkpt lat="38.9124467" lon="16.4955067"><ele>163.0</ele><time>2026-03-29T17:32:04.579Z</time></trkpt><trkpt lat="38.91259" lon="16.4952017"><ele>168.5</ele><time>2026-03-29T17:32:05.579Z</time></trkpt><trkpt lat="38.9127267" lon="16.494905"><ele>174.0</ele><time>2026-03-29T17:32:06.58Z</time></trkpt><trkpt lat="38.9128683" lon="16.4946033"><ele>166.0</ele><time>2026-03-29T17:32:07.579Z</time></trkpt><trkpt lat="38.9142117" lon="16.4926217"><ele>167.5</ele><time>2026-03-29T17:32:14.579Z</time></trkpt><trkpt lat="38.914485" lon="16.49242"><ele>169.0</ele><time>2026-03-29T17:32:15.579Z</time></trkpt><trkpt lat="38.9147417" lon="16.4922033"><ele>169.0</ele><time>2026-03-29T17:32:16.579Z</time></trkpt><trkpt lat="38.915015" lon="16.49195"><ele>169.0</ele><time>2026-03-29T17:32:17.579Z</time></trkpt><trkpt lat="38.9152833" lon="16.49168"><ele>172.5</ele><time>2026-03-29T17:32:18.579Z</time></trkpt><trkpt lat="38.91554" lon="16.49144"><ele>176.0</ele><time>2026-03-29T17:32:19.579Z</time></trkpt><trkpt lat="38.9157833" lon="16.4912133"><ele>181.5</ele><time>2026-03-29T17:32:20.579Z</time></trkpt><trkpt lat="38.9160167" lon="16.490975"><ele>187.0</ele><time>2026-03-29T17:32:21.579Z</time></trkpt><trkpt lat="38.9162283" lon="16.4907233"><ele>187.0</ele><time>2026-03-29T17:32:22.579Z</time></trkpt><trkpt lat="38.916425" lon="16.4904733"><ele>187.0</ele><time>2026-03-29T17:32:23.58Z</time></trkpt><trkpt lat="38.9165933" lon="16.4901933"><ele>192.0</ele><time>2026-03-29T17:32:24.579Z</time></trkpt><trkpt lat="38.9167567" lon="16.489905"><ele>197.0</ele><time>2026-03-29T17:32:25.579Z</time></trkpt><trkpt lat="38.9168967" lon="16.4896017"><ele>193.0</ele><time>2026-03-29T17:32:26.579Z</time></trkpt><trkpt lat="38.91703" lon="16.489285"><ele>189.0</ele><time>2026-03-29T17:32:27.579Z</time></trkpt><trkpt lat="38.9171567" lon="16.4889517"><ele>187.0</ele><time>2026-03-29T17:32:28.579Z</time></trkpt><trkpt lat="38.9172617" lon="16.4886"><ele>185.0</ele><time>2026-03-29T17:32:29.579Z</time></trkpt><trkpt lat="38.9173567" lon="16.48823"><ele>185.0</ele><time>2026-03-29T17:32:30.579Z</time></trkpt><trkpt lat="38.9174283" lon="16.4878533"><ele>185.0</ele><time>2026-03-29T17:32:31.579Z</time></trkpt><trkpt lat="38.9174767" lon="16.4874667"><ele>187.0</ele><time>2026-03-29T17:32:32.579Z</time></trkpt><trkpt lat="38.91751" lon="16.4870667"><ele>189.0</ele><time>2026-03-29T17:32:33.579Z</time></trkpt><trkpt lat="38.917545" lon="16.4866767"><ele>194.0</ele><time>2026-03-29T17:32:34.579Z</time></trkpt><trkpt lat="38.917575" lon="16.4862933"><ele>199.0</ele><time>2026-03-29T17:32:35.579Z</time></trkpt><trkpt lat="38.9176017" lon="16.4859183"><ele>200.0</ele><time>2026-03-29T17:32:36.579Z</time></trkpt><trkpt lat="38.9176417" lon="16.4855467"><ele>201.0</ele><time>2026-03-29T17:32:37.579Z</time></trkpt><trkpt lat="38.9176567" lon="16.4851783"><ele>199.0</ele><time>2026-03-29T17:32:38.579Z</time></trkpt><trkpt lat="38.917685" lon="16.4848233"><ele>197.0</ele><time>2026-03-29T17:32:39.58Z</time></trkpt><trkpt lat="38.9177217" lon="16.48445"><ele>196.0</ele><time>2026-03-29T17:32:40.579Z</time></trkpt><trkpt lat="38.9177567" lon="16.4840917"><ele>195.0</ele><time>2026-03-29T17:32:41.579Z</time></trkpt><trkpt lat="38.9178017" lon="16.4837367"><ele>197.0</ele><time>2026-03-29T17:32:42.579Z</time></trkpt><trkpt lat="38.9178383" lon="16.4833883"><ele>199.0</ele><time>2026-03-29T17:32:43.579Z</time></trkpt><trkpt lat="38.9178767" lon="16.4830283"><ele>202.0</ele><time>2026-03-29T17:32:44.579Z</time></trkpt><trkpt lat="38.9179133" lon="16.4826733"><ele>205.0</ele><time>2026-03-29T17:32:45.579Z</time></trkpt><trkpt lat="38.9179433" lon="16.4823333"><ele>208.5</ele><time>2026-03-29T17:32:46.579Z</time></trkpt><trkpt lat="38.917975" lon="16.4819917"><ele>212.0</ele><time>2026-03-29T17:32:47.579Z</time></trkpt><trkpt lat="38.918005" lon="16.481645"><ele>212.0</ele><time>2026-03-29T17:32:48.579Z</time></trkpt><trkpt lat="38.9180317" lon="16.4813"><ele>212.0</ele><time>2026-03-29T17:32:49.579Z</time></trkpt><trkpt lat="38.91805" lon="16.4809533"><ele>217.0</ele><time>2026-03-29T17:32:50.579Z</time></trkpt><trkpt lat="38.9180567" lon="16.4806183"><ele>222.0</ele><time>2026-03-29T17:32:51.579Z</time></trkpt><trkpt lat="38.9180683" lon="16.48028"><ele>229.0</ele><time>2026-03-29T17:32:52.579Z</time></trkpt><trkpt lat="38.9180667" lon="16.4799467"><ele>236.0</ele><time>2026-03-29T17:32:53.579Z</time></trkpt><trkpt lat="38.9180533" lon="16.4796167"><ele>242.5</ele><time>2026-03-29T17:32:54.579Z</time></trkpt><trkpt lat="38.9180583" lon="16.4792833"><ele>249.0</ele><time>2026-03-29T17:32:55.579Z</time></trkpt><trkpt lat="38.9180667" lon="16.4789467"><ele>255.5</ele><time>2026-03-29T17:32:56.579Z</time></trkpt><trkpt lat="38.9180733" lon="16.4786133"><ele>262.0</ele><time>2026-03-29T17:32:57.579Z</time></trkpt><trkpt lat="38.91808" lon="16.4782783"><ele>262.0</ele><time>2026-03-29T17:32:58.579Z</time></trkpt><trkpt lat="38.9180867" lon="16.4779433"><ele>262.0</ele><time>2026-03-29T17:32:59.579Z</time></trkpt><trkpt lat="38.9180933" lon="16.4776083"><ele>263.5</ele><time>2026-03-29T17:33:00.579Z</time></trkpt><trkpt lat="38.9181483" lon="16.4772233"><ele>265.0</ele><time>2026-03-29T17:33:01.579Z</time></trkpt><trkpt lat="38.9182067" lon="16.4768283"><ele>210.0</ele><time>2026-03-29T17:33:02.579Z</time></trkpt><trkpt lat="38.9185883" lon="16.47302"><ele>208.0</ele><time>2026-03-29T17:33:13.578Z</time></trkpt><trkpt lat="38.9186467" lon="16.4726433"><ele>206.0</ele><time>2026-03-29T17:33:14.578Z</time></trkpt><trkpt lat="38.91869" lon="16.4722917"><ele>205.5</ele><time>2026-03-29T17:33:15.578Z</time></trkpt><trkpt lat="38.91874" lon="16.4719383"><ele>205.0</ele><time>2026-03-29T17:33:16.579Z</time></trkpt><trkpt lat="38.918765" lon="16.4716"><ele>203.0</ele><time>2026-03-29T17:33:17.578Z</time></trkpt><trkpt lat="38.9187983" lon="16.4712567"><ele>201.0</ele><time>2026-03-29T17:33:18.578Z</time></trkpt><trkpt lat="38.9188217" lon="16.4709067"><ele>201.0</ele><time>2026-03-29T17:33:19.578Z</time></trkpt><trkpt lat="38.9188417" lon="16.4705567"><ele>201.0</ele><time>2026-03-29T17:33:20.579Z</time></trkpt><trkpt lat="38.9188567" lon="16.470195"><ele>201.0</ele><time>2026-03-29T17:33:21.579Z</time></trkpt><trkpt lat="38.918865" lon="16.4698367"><ele>201.0</ele><time>2026-03-29T17:33:22.579Z</time></trkpt><trkpt lat="38.9188733" lon="16.4694883"><ele>200.0</ele><time>2026-03-29T17:33:23.579Z</time></trkpt><trkpt lat="38.9188867" lon="16.4691283"><ele>199.0</ele><time>2026-03-29T17:33:24.579Z</time></trkpt><trkpt lat="38.91889" lon="16.4687617"><ele>197.0</ele><time>2026-03-29T17:33:25.579Z</time></trkpt><trkpt lat="38.9188917" lon="16.46839"><ele>195.0</ele><time>2026-03-29T17:33:26.579Z</time></trkpt><trkpt lat="38.9188833" lon="16.4680183"><ele>191.0</ele><time>2026-03-29T17:33:27.579Z</time></trkpt><trkpt lat="38.9188567" lon="16.4676533"><ele>187.0</ele><time>2026-03-29T17:33:28.579Z</time></trkpt><trkpt lat="38.918825" lon="16.4672817"><ele>183.0</ele><time>2026-03-29T17:33:29.579Z</time></trkpt><trkpt lat="38.9187883" lon="16.466915"><ele>179.0</ele><time>2026-03-29T17:33:30.579Z</time></trkpt><trkpt lat="38.9187383" lon="16.4665467"><ele>175.0</ele><time>2026-03-29T17:33:31.58Z</time></trkpt><trkpt lat="38.918685" lon="16.466185"><ele>171.0</ele><time>2026-03-29T17:33:32.579Z</time></trkpt><trkpt lat="38.918615" lon="16.4658267"><ele>171.0</ele><time>2026-03-29T17:33:33.579Z</time></trkpt><trkpt lat="38.9185433" lon="16.4654783"><ele>171.0</ele><time>2026-03-29T17:33:34.579Z</time></trkpt><trkpt lat="38.91846" lon="16.4651467"><ele>172.5</ele><time>2026-03-29T17:33:35.579Z</time></trkpt><trkpt lat="38.9183767" lon="16.464825"><ele>174.0</ele><time>2026-03-29T17:33:36.579Z</time></trkpt><trkpt lat="38.9182967" lon="16.4645133"><ele>174.0</ele><time>2026-03-29T17:33:37.579Z</time></trkpt><trkpt lat="38.9182083" lon="16.4642117"><ele>174.0</ele><time>2026-03-29T17:33:38.579Z</time></trkpt><trkpt lat="38.9181133" lon="16.4639283"><ele>174.33333333333334</ele><time>2026-03-29T17:33:39.579Z</time></trkpt><trkpt lat="38.918025" lon="16.4636633"><ele>174.66666666666669</ele><time>2026-03-29T17:33:40.579Z</time></trkpt><trkpt lat="38.9179367" lon="16.4634083"><ele>175.0</ele><time>2026-03-29T17:33:41.579Z</time></trkpt><trkpt lat="38.9178467" lon="16.4631633"><ele>175.33333333333334</ele><time>2026-03-29T17:33:42.58Z</time></trkpt><trkpt lat="38.917755" lon="16.462925"><ele>175.66666666666666</ele><time>2026-03-29T17:33:43.579Z</time></trkpt><trkpt lat="38.9176617" lon="16.462695"><ele>176.0</ele><time>2026-03-29T17:33:44.579Z</time></trkpt><trkpt lat="38.917565" lon="16.4624733"><ele>176.0</ele><time>2026-03-29T17:33:45.579Z</time></trkpt><trkpt lat="38.91747" lon="16.4622483"><ele>176.0</ele><time>2026-03-29T17:33:46.579Z</time></trkpt><trkpt lat="38.9173683" lon="16.4620333"><ele>176.0</ele><time>2026-03-29T17:33:47.579Z</time></trkpt><trkpt lat="38.91726" lon="16.4618217"><ele>175.33333333333331</ele><time>2026-03-29T17:33:48.58Z</time></trkpt><trkpt lat="38.91716" lon="16.461615"><ele>174.66666666666666</ele><time>2026-03-29T17:33:49.579Z</time></trkpt><trkpt lat="38.91706" lon="16.461405"><ele>174.0</ele><time>2026-03-29T17:33:50.579Z</time></trkpt><trkpt lat="38.916965" lon="16.4611967"><ele>173.33333333333334</ele><time>2026-03-29T17:33:51.58Z</time></trkpt><trkpt lat="38.9168667" lon="16.4609967"><ele>172.66666666666669</ele><time>2026-03-29T17:33:52.579Z</time></trkpt><trkpt lat="38.9167583" lon="16.46081"><ele>172.0</ele><time>2026-03-29T17:33:53.579Z</time></trkpt><trkpt lat="38.9166617" lon="16.4606283"><ele>172.0</ele><time>2026-03-29T17:33:54.579Z</time></trkpt><trkpt lat="38.9165633" lon="16.4604567"><ele>172.0</ele><time>2026-03-29T17:33:55.58Z</time></trkpt><trkpt lat="38.916465" lon="16.4602767"><ele>172.0</ele><time>2026-03-29T17:33:56.579Z</time></trkpt><trkpt lat="38.9163767" lon="16.4601033"><ele>169.75</ele><time>2026-03-29T17:33:57.579Z</time></trkpt><trkpt lat="38.9162917" lon="16.45995"><ele>167.5</ele><time>2026-03-29T17:33:58.579Z</time></trkpt><trkpt lat="38.9162133" lon="16.459805"><ele>165.25</ele><time>2026-03-29T17:33:59.579Z</time></trkpt><trkpt lat="38.916145" lon="16.459675"><ele>163.0</ele><time>2026-03-29T17:34:00.579Z</time></trkpt><trkpt lat="38.9160883" lon="16.4595667"><ele>161.0</ele><time>2026-03-29T17:34:01.579Z</time></trkpt><trkpt lat="38.9160517" lon="16.4594683"><ele>159.0</ele><time>2026-03-29T17:34:02.579Z</time></trkpt><trkpt lat="38.9160417" lon="16.45938"><ele>157.0</ele><time>2026-03-29T17:34:03.579Z</time></trkpt><trkpt lat="38.9160567" lon="16.4592317"><ele>155.0</ele><time>2026-03-29T17:34:05.579Z</time></trkpt><trkpt lat="38.916085" lon="16.4590933"><ele>153.0</ele><time>2026-03-29T17:34:07.579Z</time></trkpt><trkpt lat="38.9160867" lon="16.4589883"><ele>153.0</ele><time>2026-03-29T17:34:09.579Z</time></trkpt><trkpt lat="38.916055" lon="16.4588817"><ele>153.0</ele><time>2026-03-29T17:34:12.579Z</time></trkpt><trkpt lat="38.9159883" lon="16.45881"><ele>153.0</ele><time>2026-03-29T17:44:59.58Z</time></trkpt><trkpt lat="38.91591" lon="16.4587933"><ele>153.0</ele><time>2026-03-29T17:45:02.58Z</time></trkpt><trkpt lat="38.9158417" lon="16.4587983"><ele>153.0</ele><time>2026-03-29T17:45:04.58Z</time></trkpt><trkpt lat="38.9157783" lon="16.4588083"><ele>153.0</ele><time>2026-03-29T17:45:06.58Z</time></trkpt><trkpt lat="38.9156967" lon="16.4587833"><ele>153.4</ele><time>2026-03-29T17:45:09.581Z</time></trkpt><trkpt lat="38.915615" lon="16.4587283"><ele>153.8</ele><time>2026-03-29T17:45:12.58Z</time></trkpt><trkpt lat="38.9155583" lon="16.4586533"><ele>154.2</ele><time>2026-03-29T17:45:14.58Z</time></trkpt><trkpt lat="38.91548" lon="16.4585167"><ele>154.6</ele><time>2026-03-29T17:45:16.58Z</time></trkpt><trkpt lat="38.9154367" lon="16.4584283"><ele>155.0</ele><time>2026-03-29T17:45:17.58Z</time></trkpt><trkpt lat="38.91539" lon="16.4583333"><ele>155.0</ele><time>2026-03-29T17:45:18.58Z</time></trkpt><trkpt lat="38.915335" lon="16.4582417"><ele>155.0</ele><time>2026-03-29T17:45:19.58Z</time></trkpt><trkpt lat="38.91527" lon="16.45813"><ele>155.0</ele><time>2026-03-29T17:45:20.58Z</time></trkpt><trkpt lat="38.9151967" lon="16.4580183"><ele>155.0</ele><time>2026-03-29T17:45:21.58Z</time></trkpt><trkpt lat="38.9151317" lon="16.4578967"><ele>155.0</ele><time>2026-03-29T17:45:22.58Z</time></trkpt><trkpt lat="38.91506" lon="16.4577683"><ele>152.75</ele><time>2026-03-29T17:45:23.58Z</time></trkpt><trkpt lat="38.91499" lon="16.4576333"><ele>150.5</ele><time>2026-03-29T17:45:24.58Z</time></trkpt><trkpt lat="38.9149133" lon="16.4574933"><ele>148.25</ele><time>2026-03-29T17:45:25.58Z</time></trkpt><trkpt lat="38.9148367" lon="16.4573467"><ele>146.0</ele><time>2026-03-29T17:45:26.58Z</time></trkpt><trkpt lat="38.91476" lon="16.4571933"><ele>144.75</ele><time>2026-03-29T17:45:27.581Z</time></trkpt><trkpt lat="38.9146867" lon="16.4570383"><ele>143.5</ele><time>2026-03-29T17:45:28.58Z</time></trkpt><trkpt lat="38.9146083" lon="16.4568733"><ele>142.25</ele><time>2026-03-29T17:45:29.58Z</time></trkpt><trkpt lat="38.914535" lon="16.4566983"><ele>141.0</ele><time>2026-03-29T17:45:30.58Z</time></trkpt><trkpt lat="38.9144583" lon="16.4565217"><ele>141.0</ele><time>2026-03-29T17:45:31.58Z</time></trkpt><trkpt lat="38.9143917" lon="16.4563433"><ele>141.0</ele><time>2026-03-29T17:45:32.58Z</time></trkpt><trkpt lat="38.9143333" lon="16.456165"><ele>141.0</ele><time>2026-03-29T17:45:33.58Z</time></trkpt><trkpt lat="38.9142717" lon="16.455975"><ele>142.0</ele><time>2026-03-29T17:45:34.58Z</time></trkpt><trkpt lat="38.9142217" lon="16.4557617"><ele>143.0</ele><time>2026-03-29T17:45:35.58Z</time></trkpt><trkpt lat="38.9141767" lon="16.4555533"><ele>144.0</ele><time>2026-03-29T17:45:36.58Z</time></trkpt><trkpt lat="38.914145" lon="16.4553383"><ele>141.66666666666666</ele><time>2026-03-29T17:45:37.58Z</time></trkpt><trkpt lat="38.9141083" lon="16.4551217"><ele>139.33333333333331</ele><time>2026-03-29T17:45:38.58Z</time></trkpt><trkpt lat="38.9140717" lon="16.4549133"><ele>137.0</ele><time>2026-03-29T17:45:39.58Z</time></trkpt><trkpt lat="38.9140333" lon="16.4546867"><ele>135.0</ele><time>2026-03-29T17:45:40.58Z</time></trkpt><trkpt lat="38.9140083" lon="16.45445"><ele>133.0</ele><time>2026-03-29T17:45:41.58Z</time></trkpt><trkpt lat="38.9139833" lon="16.45421"><ele>131.0</ele><time>2026-03-29T17:45:42.58Z</time></trkpt><trkpt lat="38.9139667" lon="16.4539633"><ele>130.0</ele><time>2026-03-29T17:45:43.58Z</time></trkpt><trkpt lat="38.913945" lon="16.453725"><ele>129.0</ele><time>2026-03-29T17:45:44.58Z</time></trkpt><trkpt lat="38.9139167" lon="16.4534783"><ele>128.0</ele><time>2026-03-29T17:45:45.58Z</time></trkpt><trkpt lat="38.91389" lon="16.4532333"><ele>128.0</ele><time>2026-03-29T17:45:46.58Z</time></trkpt><trkpt lat="38.913875" lon="16.45298"><ele>128.0</ele><time>2026-03-29T17:45:47.58Z</time></trkpt><trkpt lat="38.9138667" lon="16.4527183"><ele>128.0</ele><time>2026-03-29T17:45:48.58Z</time></trkpt><trkpt lat="38.9138533" lon="16.452465"><ele>127.0</ele><time>2026-03-29T17:45:49.58Z</time></trkpt><trkpt lat="38.9138417" lon="16.4522067"><ele>126.0</ele><time>2026-03-29T17:45:50.58Z</time></trkpt><trkpt lat="38.9138167" lon="16.4519483"><ele>125.0</ele><time>2026-03-29T17:45:51.58Z</time></trkpt><trkpt lat="38.9138" lon="16.4516817"><ele>124.33333333333333</ele><time>2026-03-29T17:45:52.581Z</time></trkpt><trkpt lat="38.9137867" lon="16.451415"><ele>123.66666666666666</ele><time>2026-03-29T17:45:53.58Z</time></trkpt><trkpt lat="38.91377" lon="16.45115"><ele>123.0</ele><time>2026-03-29T17:45:54.58Z</time></trkpt><trkpt lat="38.9137567" lon="16.4508983"><ele>122.0</ele><time>2026-03-29T17:45:55.58Z</time></trkpt><trkpt lat="38.91374" lon="16.4506517"><ele>121.0</ele><time>2026-03-29T17:45:56.58Z</time></trkpt><trkpt lat="38.9137217" lon="16.4503967"><ele>120.0</ele><time>2026-03-29T17:45:57.58Z</time></trkpt><trkpt lat="38.9137017" lon="16.4501383"><ele>120.0</ele><time>2026-03-29T17:45:58.58Z</time></trkpt><trkpt lat="38.91368" lon="16.4498783"><ele>120.0</ele><time>2026-03-29T17:45:59.58Z</time></trkpt><trkpt lat="38.91365" lon="16.4496167"><ele>120.0</ele><time>2026-03-29T17:46:00.58Z</time></trkpt><trkpt lat="38.9136183" lon="16.44935"><ele>119.66666666666666</ele><time>2026-03-29T17:46:01.58Z</time></trkpt><trkpt lat="38.9135817" lon="16.44908"><ele>119.33333333333333</ele><time>2026-03-29T17:46:02.581Z</time></trkpt><trkpt lat="38.91355" lon="16.448815"><ele>119.0</ele><time>2026-03-29T17:46:03.58Z</time></trkpt><trkpt lat="38.91352" lon="16.4485333"><ele>119.0</ele><time>2026-03-29T17:46:04.58Z</time></trkpt><trkpt lat="38.913485" lon="16.4482517"><ele>119.0</ele><time>2026-03-29T17:46:05.58Z</time></trkpt><trkpt lat="38.913445" lon="16.4479683"><ele>119.0</ele><time>2026-03-29T17:46:06.58Z</time></trkpt><trkpt lat="38.9134" lon="16.4476883"><ele>118.0</ele><time>2026-03-29T17:46:07.581Z</time></trkpt><trkpt lat="38.9133567" lon="16.4473983"><ele>117.0</ele><time>2026-03-29T17:46:08.58Z</time></trkpt><trkpt lat="38.9133183" lon="16.4471083"><ele>116.33333333333334</ele><time>2026-03-29T17:46:09.58Z</time></trkpt><trkpt lat="38.9132733" lon="16.446825"><ele>115.66666666666667</ele><time>2026-03-29T17:46:10.58Z</time></trkpt><trkpt lat="38.91323" lon="16.446545"><ele>115.0</ele><time>2026-03-29T17:46:11.58Z</time></trkpt><trkpt lat="38.91318" lon="16.4462483"><ele>115.0</ele><time>2026-03-29T17:46:12.58Z</time></trkpt><trkpt lat="38.9131333" lon="16.4459617"><ele>115.0</ele><time>2026-03-29T17:46:13.58Z</time></trkpt><trkpt lat="38.9130883" lon="16.445665"><ele>113.5</ele><time>2026-03-29T17:46:14.58Z</time></trkpt><trkpt lat="38.9130483" lon="16.4453783"><ele>112.0</ele><time>2026-03-29T17:46:15.58Z</time></trkpt><trkpt lat="38.913005" lon="16.4450967"><ele>112.0</ele><time>2026-03-29T17:46:16.58Z</time></trkpt><trkpt lat="38.9129483" lon="16.4448167"><ele>112.0</ele><time>2026-03-29T17:46:17.58Z</time></trkpt><trkpt lat="38.9128817" lon="16.44454"><ele>111.33333333333334</ele><time>2026-03-29T17:46:18.58Z</time></trkpt><trkpt lat="38.9128167" lon="16.444265"><ele>110.66666666666666</ele><time>2026-03-29T17:46:19.581Z</time></trkpt><trkpt lat="38.91275" lon="16.4439883"><ele>110.0</ele><time>2026-03-29T17:46:20.58Z</time></trkpt><trkpt lat="38.912675" lon="16.443705"><ele>109.0</ele><time>2026-03-29T17:46:21.581Z</time></trkpt><trkpt lat="38.9126" lon="16.4434317"><ele>108.0</ele><time>2026-03-29T17:46:22.58Z</time></trkpt><trkpt lat="38.9125167" lon="16.443155"><ele>109.0</ele><time>2026-03-29T17:46:23.58Z</time></trkpt><trkpt lat="38.91243" lon="16.4428917"><ele>110.0</ele><time>2026-03-29T17:46:24.58Z</time></trkpt><trkpt lat="38.91233" lon="16.4426333"><ele>111.0</ele><time>2026-03-29T17:46:25.58Z</time></trkpt><trkpt lat="38.912225" lon="16.4423683"><ele>110.5</ele><time>2026-03-29T17:46:26.58Z</time></trkpt><trkpt lat="38.9121217" lon="16.4421117"><ele>110.0</ele><time>2026-03-29T17:46:27.58Z</time></trkpt><trkpt lat="38.9120067" lon="16.44184"><ele>110.0</ele><time>2026-03-29T17:46:28.58Z</time></trkpt><trkpt lat="38.91189" lon="16.4415733"><ele>110.0</ele><time>2026-03-29T17:46:29.58Z</time></trkpt><trkpt lat="38.9117783" lon="16.4413117"><ele>112.0</ele><time>2026-03-29T17:46:30.58Z</time></trkpt><trkpt lat="38.9116633" lon="16.44106"><ele>114.0</ele><time>2026-03-29T17:46:31.58Z</time></trkpt><trkpt lat="38.9115417" lon="16.4407917"><ele>114.0</ele><time>2026-03-29T17:46:32.58Z</time></trkpt><trkpt lat="38.9114233" lon="16.44053"><ele>114.0</ele><time>2026-03-29T17:46:33.58Z</time></trkpt><trkpt lat="38.9113083" lon="16.440265"><ele>111.0</ele><time>2026-03-29T17:46:34.58Z</time></trkpt><trkpt lat="38.9111967" lon="16.4400017"><ele>108.0</ele><time>2026-03-29T17:46:35.58Z</time></trkpt><trkpt lat="38.91108" lon="16.43974"><ele>108.0</ele><time>2026-03-29T17:46:36.58Z</time></trkpt><trkpt lat="38.9109667" lon="16.4394683"><ele>108.0</ele><time>2026-03-29T17:46:37.58Z</time></trkpt><trkpt lat="38.9108533" lon="16.4392033"><ele>108.0</ele><time>2026-03-29T17:46:38.58Z</time></trkpt><trkpt lat="38.910745" lon="16.4389267"><ele>108.0</ele><time>2026-03-29T17:46:39.58Z</time></trkpt><trkpt lat="38.910645" lon="16.4386433"><ele>107.0</ele><time>2026-03-29T17:46:40.58Z</time></trkpt><trkpt lat="38.91055" lon="16.438365"><ele>106.0</ele><time>2026-03-29T17:46:41.58Z</time></trkpt><trkpt lat="38.910465" lon="16.438085"><ele>104.5</ele><time>2026-03-29T17:46:42.58Z</time></trkpt><trkpt lat="38.9103967" lon="16.4377867"><ele>103.0</ele><time>2026-03-29T17:46:43.58Z</time></trkpt><trkpt lat="38.91033" lon="16.4374917"><ele>103.0</ele><time>2026-03-29T17:46:44.58Z</time></trkpt><trkpt lat="38.9102667" lon="16.43719"><ele>103.0</ele><time>2026-03-29T17:46:45.58Z</time></trkpt><trkpt lat="38.910205" lon="16.4368883"><ele>103.5</ele><time>2026-03-29T17:46:46.58Z</time></trkpt><trkpt lat="38.9101483" lon="16.4365867"><ele>104.0</ele><time>2026-03-29T17:46:47.58Z</time></trkpt><trkpt lat="38.9101067" lon="16.4362767"><ele>104.0</ele><time>2026-03-29T17:46:48.58Z</time></trkpt><trkpt lat="38.910075" lon="16.435965"><ele>104.0</ele><time>2026-03-29T17:46:49.58Z</time></trkpt><trkpt lat="38.9100467" lon="16.4356583"><ele>104.0</ele><time>2026-03-29T17:46:50.58Z</time></trkpt><trkpt lat="38.9100217" lon="16.43535"><ele>104.0</ele><time>2026-03-29T17:46:51.58Z</time></trkpt><trkpt lat="38.9100117" lon="16.4350383"><ele>104.0</ele><time>2026-03-29T17:46:52.58Z</time></trkpt><trkpt lat="38.909995" lon="16.4347183"><ele>104.0</ele><time>2026-03-29T17:46:53.58Z</time></trkpt><trkpt lat="38.9099883" lon="16.4344033"><ele>103.5</ele><time>2026-03-29T17:46:54.58Z</time></trkpt><trkpt lat="38.90998" lon="16.4340783"><ele>103.0</ele><time>2026-03-29T17:46:55.58Z</time></trkpt><trkpt lat="38.90997" lon="16.433765"><ele>103.0</ele><time>2026-03-29T17:46:56.58Z</time></trkpt><trkpt lat="38.9099617" lon="16.433455"><ele>103.0</ele><time>2026-03-29T17:46:57.58Z</time></trkpt><trkpt lat="38.909945" lon="16.4331333"><ele>103.0</ele><time>2026-03-29T17:46:58.58Z</time></trkpt><trkpt lat="38.9099333" lon="16.43281"><ele>103.0</ele><time>2026-03-29T17:46:59.58Z</time></trkpt><trkpt lat="38.9099267" lon="16.432485"><ele>103.0</ele><time>2026-03-29T17:47:00.581Z</time></trkpt><trkpt lat="38.9099317" lon="16.4321483"><ele>103.0</ele><time>2026-03-29T17:47:01.58Z</time></trkpt><trkpt lat="38.9099483" lon="16.4318217"><ele>103.0</ele><time>2026-03-29T17:47:02.58Z</time></trkpt><trkpt lat="38.9099683" lon="16.4315033"><ele>103.0</ele><time>2026-03-29T17:47:03.58Z</time></trkpt><trkpt lat="38.9099917" lon="16.4311767"><ele>102.0</ele><time>2026-03-29T17:47:04.58Z</time></trkpt><trkpt lat="38.9100183" lon="16.430855"><ele>101.0</ele><time>2026-03-29T17:47:05.58Z</time></trkpt><trkpt lat="38.9100517" lon="16.430545"><ele>99.5</ele><time>2026-03-29T17:47:06.58Z</time></trkpt><trkpt lat="38.9100933" lon="16.4302267"><ele>98.0</ele><time>2026-03-29T17:47:07.58Z</time></trkpt><trkpt lat="38.9101383" lon="16.4299"><ele>98.5</ele><time>2026-03-29T17:47:08.58Z</time></trkpt><trkpt lat="38.9101833" lon="16.4295817"><ele>99.0</ele><time>2026-03-29T17:47:09.58Z</time></trkpt><trkpt lat="38.91022" lon="16.429255"><ele>99.0</ele><time>2026-03-29T17:47:10.58Z</time></trkpt><trkpt lat="38.9102633" lon="16.4289283"><ele>99.0</ele><time>2026-03-29T17:47:11.58Z</time></trkpt><trkpt lat="38.9102983" lon="16.4286033"><ele>99.0</ele><time>2026-03-29T17:47:12.58Z</time></trkpt><trkpt lat="38.9103433" lon="16.428275"><ele>99.0</ele><time>2026-03-29T17:47:13.58Z</time></trkpt><trkpt lat="38.910385" lon="16.4279467"><ele>99.0</ele><time>2026-03-29T17:47:14.58Z</time></trkpt><trkpt lat="38.9104267" lon="16.4276183"><ele>99.0</ele><time>2026-03-29T17:47:15.58Z</time></trkpt><trkpt lat="38.9104717" lon="16.4272867"><ele>99.5</ele><time>2026-03-29T17:47:16.58Z</time></trkpt><trkpt lat="38.9105167" lon="16.4269533"><ele>100.0</ele><time>2026-03-29T17:47:17.58Z</time></trkpt><trkpt lat="38.9105617" lon="16.4266183"><ele>98.0</ele><time>2026-03-29T17:47:18.58Z</time></trkpt><trkpt lat="38.9106017" lon="16.426285"><ele>96.0</ele><time>2026-03-29T17:47:19.58Z</time></trkpt><trkpt lat="38.9106333" lon="16.4259583"><ele>96.0</ele><time>2026-03-29T17:47:20.58Z</time></trkpt><trkpt lat="38.9106717" lon="16.42563"><ele>96.0</ele><time>2026-03-29T17:47:21.58Z</time></trkpt><trkpt lat="38.9107133" lon="16.4253033"><ele>95.5</ele><time>2026-03-29T17:47:22.58Z</time></trkpt><trkpt lat="38.9107567" lon="16.42498"><ele>95.0</ele><time>2026-03-29T17:47:23.58Z</time></trkpt><trkpt lat="38.91079" lon="16.4246567"><ele>95.0</ele><time>2026-03-29T17:47:24.58Z</time></trkpt><trkpt lat="38.9108283" lon="16.424335"><ele>95.0</ele><time>2026-03-29T17:47:25.58Z</time></trkpt><trkpt lat="38.91086" lon="16.4240117"><ele>94.5</ele><time>2026-03-29T17:47:26.58Z</time></trkpt><trkpt lat="38.9108883" lon="16.42368"><ele>94.0</ele><time>2026-03-29T17:47:27.58Z</time></trkpt><trkpt lat="38.9109083" lon="16.42335"><ele>93.5</ele><time>2026-03-29T17:47:28.58Z</time></trkpt><trkpt lat="38.9109283" lon="16.42302"><ele>93.0</ele><time>2026-03-29T17:47:29.58Z</time></trkpt><trkpt lat="38.9109283" lon="16.4226883"><ele>93.0</ele><time>2026-03-29T17:47:30.58Z</time></trkpt><trkpt lat="38.9109033" lon="16.422365"><ele>93.0</ele><time>2026-03-29T17:47:31.58Z</time></trkpt><trkpt lat="38.910875" lon="16.4220417"><ele>93.0</ele><time>2026-03-29T17:47:32.58Z</time></trkpt><trkpt lat="38.9108283" lon="16.4217233"><ele>93.0</ele><time>2026-03-29T17:47:33.58Z</time></trkpt><trkpt lat="38.9107733" lon="16.42141"><ele>92.5</ele><time>2026-03-29T17:47:34.58Z</time></trkpt><trkpt lat="38.9107167" lon="16.4210917"><ele>92.0</ele><time>2026-03-29T17:47:35.58Z</time></trkpt><trkpt lat="38.9106617" lon="16.4207717"><ele>91.5</ele><time>2026-03-29T17:47:36.58Z</time></trkpt><trkpt lat="38.9105983" lon="16.4204483"><ele>91.0</ele><time>2026-03-29T17:47:37.58Z</time></trkpt><trkpt lat="38.9105317" lon="16.4201267"><ele>91.0</ele><time>2026-03-29T17:47:38.58Z</time></trkpt><trkpt lat="38.910465" lon="16.4198067"><ele>91.0</ele><time>2026-03-29T17:47:39.581Z</time></trkpt><trkpt lat="38.91039" lon="16.4194883"><ele>91.0</ele><time>2026-03-29T17:47:40.581Z</time></trkpt><trkpt lat="38.91032" lon="16.4191633"><ele>91.0</ele><time>2026-03-29T17:47:41.58Z</time></trkpt><trkpt lat="38.9102467" lon="16.418845"><ele>90.0</ele><time>2026-03-29T17:47:42.58Z</time></trkpt><trkpt lat="38.910175" lon="16.4185233"><ele>89.0</ele><time>2026-03-29T17:47:43.58Z</time></trkpt><trkpt lat="38.9101" lon="16.4182167"><ele>89.0</ele><time>2026-03-29T17:47:44.58Z</time></trkpt><trkpt lat="38.9100217" lon="16.4179"><ele>89.0</ele><time>2026-03-29T17:47:45.58Z</time></trkpt><trkpt lat="38.9099433" lon="16.4175917"><ele>89.0</ele><time>2026-03-29T17:47:46.58Z</time></trkpt><trkpt lat="38.909875" lon="16.41728"><ele>89.0</ele><time>2026-03-29T17:47:47.58Z</time></trkpt><trkpt lat="38.9097983" lon="16.4169667"><ele>90.0</ele><time>2026-03-29T17:47:48.58Z</time></trkpt><trkpt lat="38.9097217" lon="16.4166633"><ele>91.0</ele><time>2026-03-29T17:47:49.58Z</time></trkpt><trkpt lat="38.9096383" lon="16.4163633"><ele>91.0</ele><time>2026-03-29T17:47:50.58Z</time></trkpt><trkpt lat="38.9095517" lon="16.4160733"><ele>91.0</ele><time>2026-03-29T17:47:51.58Z</time></trkpt><trkpt lat="38.9094617" lon="16.415775"><ele>89.0</ele><time>2026-03-29T17:47:52.58Z</time></trkpt><trkpt lat="38.9093617" lon="16.415475"><ele>87.0</ele><time>2026-03-29T17:47:53.58Z</time></trkpt><trkpt lat="38.9092567" lon="16.4151833"><ele>87.0</ele><time>2026-03-29T17:47:54.58Z</time></trkpt><trkpt lat="38.9091417" lon="16.4148983"><ele>87.0</ele><time>2026-03-29T17:47:55.58Z</time></trkpt><trkpt lat="38.909015" lon="16.4146067"><ele>87.0</ele><time>2026-03-29T17:47:56.58Z</time></trkpt><trkpt lat="38.908885" lon="16.414315"><ele>87.0</ele><time>2026-03-29T17:47:57.58Z</time></trkpt><trkpt lat="38.9087467" lon="16.4140317"><ele>87.0</ele><time>2026-03-29T17:47:58.58Z</time></trkpt><trkpt lat="38.9086" lon="16.4137483"><ele>87.0</ele><time>2026-03-29T17:47:59.58Z</time></trkpt><trkpt lat="38.9084467" lon="16.4134617"><ele>87.0</ele><time>2026-03-29T17:48:00.58Z</time></trkpt><trkpt lat="38.9082967" lon="16.4131683"><ele>87.0</ele><time>2026-03-29T17:48:01.58Z</time></trkpt><trkpt lat="38.9081383" lon="16.412865"><ele>86.5</ele><time>2026-03-29T17:48:02.58Z</time></trkpt><trkpt lat="38.9079883" lon="16.4125617"><ele>86.0</ele><time>2026-03-29T17:48:03.58Z</time></trkpt><trkpt lat="38.9078333" lon="16.412255"><ele>86.0</ele><time>2026-03-29T17:48:04.58Z</time></trkpt><trkpt lat="38.9076717" lon="16.4119433"><ele>86.0</ele><time>2026-03-29T17:48:05.58Z</time></trkpt><trkpt lat="38.9075133" lon="16.4116367"><ele>87.0</ele><time>2026-03-29T17:48:06.58Z</time></trkpt><trkpt lat="38.907345" lon="16.4113267"><ele>88.0</ele><time>2026-03-29T17:48:07.58Z</time></trkpt><trkpt lat="38.907185" lon="16.4110267"><ele>88.0</ele><time>2026-03-29T17:48:08.58Z</time></trkpt><trkpt lat="38.9070317" lon="16.41072"><ele>88.0</ele><time>2026-03-29T17:48:09.58Z</time></trkpt><trkpt lat="38.9068733" lon="16.4104217"><ele>88.5</ele><time>2026-03-29T17:48:10.58Z</time></trkpt><trkpt lat="38.9067183" lon="16.4101267"><ele>89.0</ele><time>2026-03-29T17:48:11.58Z</time></trkpt><trkpt lat="38.9065583" lon="16.40983"><ele>88.0</ele><time>2026-03-29T17:48:12.58Z</time></trkpt><trkpt lat="38.9064" lon="16.4095217"><ele>87.0</ele><time>2026-03-29T17:48:13.58Z</time></trkpt><trkpt lat="38.9062467" lon="16.4092217"><ele>87.0</ele><time>2026-03-29T17:48:14.58Z</time></trkpt><trkpt lat="38.9061017" lon="16.4089233"><ele>87.0</ele><time>2026-03-29T17:48:15.58Z</time></trkpt><trkpt lat="38.9059483" lon="16.4086283"><ele>87.0</ele><time>2026-03-29T17:48:16.58Z</time></trkpt><trkpt lat="38.905795" lon="16.4083333"><ele>87.0</ele><time>2026-03-29T17:48:17.581Z</time></trkpt><trkpt lat="38.9056483" lon="16.4080267"><ele>87.0</ele><time>2026-03-29T17:48:18.58Z</time></trkpt><trkpt lat="38.9055017" lon="16.4077267"><ele>87.0</ele><time>2026-03-29T17:48:19.58Z</time></trkpt><trkpt lat="38.9053517" lon="16.4074317"><ele>87.5</ele><time>2026-03-29T17:48:20.58Z</time></trkpt><trkpt lat="38.905215" lon="16.40712"><ele>88.0</ele><time>2026-03-29T17:48:21.581Z</time></trkpt><trkpt lat="38.905095" lon="16.40681"><ele>89.0</ele><time>2026-03-29T17:48:22.58Z</time></trkpt><trkpt lat="38.905" lon="16.40648"><ele>90.0</ele><time>2026-03-29T17:48:23.58Z</time></trkpt><trkpt lat="38.9049033" lon="16.40615"><ele>90.0</ele><time>2026-03-29T17:48:24.58Z</time></trkpt><trkpt lat="38.904825" lon="16.4058217"><ele>90.0</ele><time>2026-03-29T17:48:25.58Z</time></trkpt><trkpt lat="38.9047667" lon="16.4054867"><ele>88.5</ele><time>2026-03-29T17:48:26.58Z</time></trkpt><trkpt lat="38.9047267" lon="16.4051317"><ele>87.0</ele><time>2026-03-29T17:48:27.58Z</time></trkpt><trkpt lat="38.9046933" lon="16.4047917"><ele>87.0</ele><time>2026-03-29T17:48:28.58Z</time></trkpt><trkpt lat="38.90467" lon="16.4044467"><ele>87.0</ele><time>2026-03-29T17:48:29.58Z</time></trkpt><trkpt lat="38.9046517" lon="16.404105"><ele>87.0</ele><time>2026-03-29T17:48:30.58Z</time></trkpt><trkpt lat="38.9046433" lon="16.40376"><ele>87.0</ele><time>2026-03-29T17:48:31.58Z</time></trkpt><trkpt lat="38.9046283" lon="16.40341"><ele>87.0</ele><time>2026-03-29T17:48:32.58Z</time></trkpt><trkpt lat="38.9046067" lon="16.4030717"><ele>87.0</ele><time>2026-03-29T17:48:33.58Z</time></trkpt><trkpt lat="38.9045817" lon="16.4027217"><ele>86.5</ele><time>2026-03-29T17:48:34.58Z</time></trkpt><trkpt lat="38.90456" lon="16.40237"><ele>86.0</ele><time>2026-03-29T17:48:35.58Z</time></trkpt><trkpt lat="38.9045417" lon="16.4020183"><ele>86.0</ele><time>2026-03-29T17:48:36.58Z</time></trkpt><trkpt lat="38.9045183" lon="16.4016783"><ele>86.0</ele><time>2026-03-29T17:48:37.581Z</time></trkpt><trkpt lat="38.9045017" lon="16.401335"><ele>86.0</ele><time>2026-03-29T17:48:38.58Z</time></trkpt><trkpt lat="38.9044833" lon="16.4009917"><ele>86.0</ele><time>2026-03-29T17:48:39.58Z</time></trkpt><trkpt lat="38.904465" lon="16.40065"><ele>85.5</ele><time>2026-03-29T17:48:40.58Z</time></trkpt><trkpt lat="38.9044267" lon="16.4003133"><ele>85.0</ele><time>2026-03-29T17:48:41.58Z</time></trkpt><trkpt lat="38.9043767" lon="16.3999833"><ele>84.5</ele><time>2026-03-29T17:48:42.58Z</time></trkpt><trkpt lat="38.9043167" lon="16.3996483"><ele>84.0</ele><time>2026-03-29T17:48:43.58Z</time></trkpt><trkpt lat="38.9042267" lon="16.39933"><ele>85.0</ele><time>2026-03-29T17:48:44.58Z</time></trkpt><trkpt lat="38.90413" lon="16.399005"><ele>86.0</ele><time>2026-03-29T17:48:45.58Z</time></trkpt><trkpt lat="38.9040233" lon="16.3986867"><ele>86.0</ele><time>2026-03-29T17:48:46.58Z</time></trkpt><trkpt lat="38.9039033" lon="16.398385"><ele>86.0</ele><time>2026-03-29T17:48:47.58Z</time></trkpt><trkpt lat="38.9037633" lon="16.398085"><ele>83.0</ele><time>2026-03-29T17:48:48.58Z</time></trkpt><trkpt lat="38.9036217" lon="16.3977983"><ele>80.0</ele><time>2026-03-29T17:48:49.58Z</time></trkpt><trkpt lat="38.90346" lon="16.3975083"><ele>78.5</ele><time>2026-03-29T17:48:50.58Z</time></trkpt><trkpt lat="38.9033017" lon="16.39721"><ele>77.0</ele><time>2026-03-29T17:48:51.58Z</time></trkpt><trkpt lat="38.9031383" lon="16.3969167"><ele>77.0</ele><time>2026-03-29T17:48:52.58Z</time></trkpt><trkpt lat="38.9029783" lon="16.3966267"><ele>77.0</ele><time>2026-03-29T17:48:53.58Z</time></trkpt><trkpt lat="38.9028217" lon="16.3963317"><ele>76.0</ele><time>2026-03-29T17:48:54.58Z</time></trkpt><trkpt lat="38.9026767" lon="16.39604"><ele>75.0</ele><time>2026-03-29T17:48:55.58Z</time></trkpt><trkpt lat="38.9025233" lon="16.3957533"><ele>74.5</ele><time>2026-03-29T17:48:56.58Z</time></trkpt><trkpt lat="38.9023683" lon="16.3954483"><ele>74.0</ele><time>2026-03-29T17:48:57.581Z</time></trkpt><trkpt lat="38.90221" lon="16.3951517"><ele>74.0</ele><time>2026-03-29T17:48:58.58Z</time></trkpt><trkpt lat="38.9020683" lon="16.3948667"><ele>74.0</ele><time>2026-03-29T17:48:59.58Z</time></trkpt><trkpt lat="38.9019283" lon="16.3945767"><ele>72.5</ele><time>2026-03-29T17:49:00.58Z</time></trkpt><trkpt lat="38.90178" lon="16.3943017"><ele>71.0</ele><time>2026-03-29T17:49:01.58Z</time></trkpt><trkpt lat="38.901645" lon="16.3940117"><ele>78.0</ele><time>2026-03-29T17:49:02.58Z</time></trkpt><trkpt lat="38.9015333" lon="16.3936933"><ele>85.0</ele><time>2026-03-29T17:49:03.58Z</time></trkpt><trkpt lat="38.90142" lon="16.3933783"><ele>85.0</ele><time>2026-03-29T17:49:04.58Z</time></trkpt><trkpt lat="38.9013317" lon="16.3930517"><ele>85.0</ele><time>2026-03-29T17:49:05.58Z</time></trkpt><trkpt lat="38.9012633" lon="16.3927133"><ele>84.5</ele><time>2026-03-29T17:49:06.58Z</time></trkpt><trkpt lat="38.9012117" lon="16.39236"><ele>84.0</ele><time>2026-03-29T17:49:07.58Z</time></trkpt><trkpt lat="38.9011783" lon="16.3920033"><ele>83.0</ele><time>2026-03-29T17:49:08.58Z</time></trkpt><trkpt lat="38.9011567" lon="16.3916417"><ele>82.0</ele><time>2026-03-29T17:49:09.58Z</time></trkpt><trkpt lat="38.9011383" lon="16.3912817"><ele>82.0</ele><time>2026-03-29T17:49:10.58Z</time></trkpt><trkpt lat="38.901135" lon="16.3909217"><ele>82.0</ele><time>2026-03-29T17:49:11.58Z</time></trkpt><trkpt lat="38.9011167" lon="16.39057"><ele>82.5</ele><time>2026-03-29T17:49:12.58Z</time></trkpt><trkpt lat="38.9011" lon="16.3902217"><ele>83.0</ele><time>2026-03-29T17:49:13.58Z</time></trkpt><trkpt lat="38.9010817" lon="16.3898667"><ele>82.5</ele><time>2026-03-29T17:49:14.58Z</time></trkpt><trkpt lat="38.9010583" lon="16.38951"><ele>82.0</ele><time>2026-03-29T17:49:15.58Z</time></trkpt><trkpt lat="38.9010467" lon="16.3891517"><ele>80.0</ele><time>2026-03-29T17:49:16.58Z</time></trkpt><trkpt lat="38.9010483" lon="16.388795"><ele>78.0</ele><time>2026-03-29T17:49:17.58Z</time></trkpt><trkpt lat="38.90107" lon="16.388435"><ele>78.0</ele><time>2026-03-29T17:49:18.58Z</time></trkpt><trkpt lat="38.90111" lon="16.388095"><ele>78.0</ele><time>2026-03-29T17:49:19.58Z</time></trkpt><trkpt lat="38.901185" lon="16.387755"><ele>78.5</ele><time>2026-03-29T17:49:20.58Z</time></trkpt><trkpt lat="38.90128" lon="16.3874383"><ele>79.0</ele><time>2026-03-29T17:49:21.58Z</time></trkpt><trkpt lat="38.901405" lon="16.3871367"><ele>79.5</ele><time>2026-03-29T17:49:22.58Z</time></trkpt><trkpt lat="38.9015517" lon="16.3868417"><ele>80.0</ele><time>2026-03-29T17:49:23.581Z</time></trkpt><trkpt lat="38.9017167" lon="16.3865767"><ele>73.5</ele><time>2026-03-29T17:49:24.58Z</time></trkpt><trkpt lat="38.9019017" lon="16.3863233"><ele>67.0</ele><time>2026-03-29T17:49:25.58Z</time></trkpt><trkpt lat="38.9021083" lon="16.3860983"><ele>67.0</ele><time>2026-03-29T17:49:26.58Z</time></trkpt><trkpt lat="38.9023133" lon="16.3858783"><ele>67.0</ele><time>2026-03-29T17:49:27.58Z</time></trkpt><trkpt lat="38.90252" lon="16.38566"><ele>69.5</ele><time>2026-03-29T17:49:28.58Z</time></trkpt><trkpt lat="38.90272" lon="16.3854367"><ele>72.0</ele><time>2026-03-29T17:49:29.58Z</time></trkpt><trkpt lat="38.902925" lon="16.3851967"><ele>72.0</ele><time>2026-03-29T17:49:30.58Z</time></trkpt><trkpt lat="38.9031117" lon="16.384955"><ele>72.0</ele><time>2026-03-29T17:49:31.58Z</time></trkpt><trkpt lat="38.9032833" lon="16.3846983"><ele>71.5</ele><time>2026-03-29T17:49:32.58Z</time></trkpt><trkpt lat="38.9034367" lon="16.384435"><ele>71.0</ele><time>2026-03-29T17:49:33.58Z</time></trkpt><trkpt lat="38.9035733" lon="16.3841617"><ele>71.0</ele><time>2026-03-29T17:49:34.58Z</time></trkpt><trkpt lat="38.9036817" lon="16.3838683"><ele>71.0</ele><time>2026-03-29T17:49:35.58Z</time></trkpt><trkpt lat="38.903765" lon="16.3835583"><ele>71.0</ele><time>2026-03-29T17:49:36.581Z</time></trkpt><trkpt lat="38.9038283" lon="16.3832517"><ele>71.0</ele><time>2026-03-29T17:49:37.58Z</time></trkpt><trkpt lat="38.9038883" lon="16.3829283"><ele>71.0</ele><time>2026-03-29T17:49:38.58Z</time></trkpt><trkpt lat="38.9039333" lon="16.3825933"><ele>71.0</ele><time>2026-03-29T17:49:39.58Z</time></trkpt><trkpt lat="38.90397" lon="16.3822417"><ele>71.5</ele><time>2026-03-29T17:49:40.58Z</time></trkpt><trkpt lat="38.904005" lon="16.38188"><ele>72.0</ele><time>2026-03-29T17:49:41.58Z</time></trkpt><trkpt lat="38.90404" lon="16.38151"><ele>70.5</ele><time>2026-03-29T17:49:42.58Z</time></trkpt><trkpt lat="38.9040783" lon="16.38115"><ele>69.0</ele><time>2026-03-29T17:49:43.58Z</time></trkpt><trkpt lat="38.9041067" lon="16.3807867"><ele>70.0</ele><time>2026-03-29T17:49:44.58Z</time></trkpt><trkpt lat="38.9041317" lon="16.3804333"><ele>71.0</ele><time>2026-03-29T17:49:45.58Z</time></trkpt><trkpt lat="38.904155" lon="16.3800633"><ele>71.0</ele><time>2026-03-29T17:49:46.58Z</time></trkpt><trkpt lat="38.9041917" lon="16.37969"><ele>71.0</ele><time>2026-03-29T17:49:47.58Z</time></trkpt><trkpt lat="38.9042233" lon="16.37933"><ele>76.5</ele><time>2026-03-29T17:49:48.58Z</time></trkpt><trkpt lat="38.90426" lon="16.37897"><ele>82.0</ele><time>2026-03-29T17:49:49.58Z</time></trkpt><trkpt lat="38.904295" lon="16.3786067"><ele>82.0</ele><time>2026-03-29T17:49:50.58Z</time></trkpt><trkpt lat="38.9043233" lon="16.3782567"><ele>82.0</ele><time>2026-03-29T17:49:51.58Z</time></trkpt><trkpt lat="38.90435" lon="16.3779"><ele>82.0</ele><time>2026-03-29T17:49:52.58Z</time></trkpt><trkpt lat="38.9043617" lon="16.3775283"><ele>82.0</ele><time>2026-03-29T17:49:53.58Z</time></trkpt><trkpt lat="38.904365" lon="16.377155"><ele>82.0</ele><time>2026-03-29T17:49:54.58Z</time></trkpt><trkpt lat="38.9043417" lon="16.3767867"><ele>82.0</ele><time>2026-03-29T17:49:55.58Z</time></trkpt><trkpt lat="38.9043" lon="16.37643"><ele>78.0</ele><time>2026-03-29T17:49:56.58Z</time></trkpt><trkpt lat="38.9042517" lon="16.3760667"><ele>74.0</ele><time>2026-03-29T17:49:57.58Z</time></trkpt><trkpt lat="38.9041967" lon="16.3756983"><ele>75.0</ele><time>2026-03-29T17:49:58.58Z</time></trkpt><trkpt lat="38.9041367" lon="16.3753283"><ele>76.0</ele><time>2026-03-29T17:49:59.58Z</time></trkpt><trkpt lat="38.9040817" lon="16.3749567"><ele>77.5</ele><time>2026-03-29T17:50:00.58Z</time></trkpt><trkpt lat="38.90403" lon="16.3745817"><ele>79.0</ele><time>2026-03-29T17:50:01.58Z</time></trkpt><trkpt lat="38.90398" lon="16.3742217"><ele>82.0</ele><time>2026-03-29T17:50:02.58Z</time></trkpt><trkpt lat="38.9039367" lon="16.3738467"><ele>85.0</ele><time>2026-03-29T17:50:03.58Z</time></trkpt><trkpt lat="38.903895" lon="16.37348"><ele>85.0</ele><time>2026-03-29T17:50:04.58Z</time></trkpt><trkpt lat="38.9038817" lon="16.37312"><ele>85.0</ele><time>2026-03-29T17:50:05.58Z</time></trkpt><trkpt lat="38.903875" lon="16.3727533"><ele>82.0</ele><time>2026-03-29T17:50:06.58Z</time></trkpt><trkpt lat="38.90388" lon="16.37239"><ele>79.0</ele><time>2026-03-29T17:50:07.58Z</time></trkpt><trkpt lat="38.9039117" lon="16.3720233"><ele>75.5</ele><time>2026-03-29T17:50:08.58Z</time></trkpt><trkpt lat="38.9039667" lon="16.3716533"><ele>72.0</ele><time>2026-03-29T17:50:09.58Z</time></trkpt><trkpt lat="38.9040333" lon="16.37131"><ele>71.0</ele><time>2026-03-29T17:50:10.58Z</time></trkpt><trkpt lat="38.90412" lon="16.37097"><ele>70.0</ele><time>2026-03-29T17:50:11.58Z</time></trkpt><trkpt lat="38.90422" lon="16.370635"><ele>72.0</ele><time>2026-03-29T17:50:12.58Z</time></trkpt><trkpt lat="38.90433" lon="16.37031"><ele>74.0</ele><time>2026-03-29T17:50:13.58Z</time></trkpt><trkpt lat="38.9044483" lon="16.3699867"><ele>71.5</ele><time>2026-03-29T17:50:14.58Z</time></trkpt><trkpt lat="38.9045667" lon="16.3696683"><ele>69.0</ele><time>2026-03-29T17:50:15.58Z</time></trkpt><trkpt lat="38.9046917" lon="16.3693367"><ele>69.0</ele><time>2026-03-29T17:50:16.58Z</time></trkpt><trkpt lat="38.9048033" lon="16.36901"><ele>69.0</ele><time>2026-03-29T17:50:17.58Z</time></trkpt><trkpt lat="38.9049117" lon="16.3686733"><ele>68.0</ele><time>2026-03-29T17:50:18.58Z</time></trkpt><trkpt lat="38.904995" lon="16.3683417"><ele>67.0</ele><time>2026-03-29T17:50:19.58Z</time></trkpt><trkpt lat="38.9050583" lon="16.3680017"><ele>75.0</ele><time>2026-03-29T17:50:20.58Z</time></trkpt><trkpt lat="38.9051083" lon="16.3676533"><ele>83.0</ele><time>2026-03-29T17:50:21.58Z</time></trkpt><trkpt lat="38.9051367" lon="16.3673017"><ele>85.5</ele><time>2026-03-29T17:50:22.58Z</time></trkpt><trkpt lat="38.9051583" lon="16.366945"><ele>88.0</ele><time>2026-03-29T17:50:23.58Z</time></trkpt><trkpt lat="38.9051633" lon="16.3665833"><ele>87.0</ele><time>2026-03-29T17:50:24.58Z</time></trkpt><trkpt lat="38.9051583" lon="16.366225"><ele>86.0</ele><time>2026-03-29T17:50:25.58Z</time></trkpt><trkpt lat="38.9051517" lon="16.3658667"><ele>80.5</ele><time>2026-03-29T17:50:26.58Z</time></trkpt><trkpt lat="38.905145" lon="16.3655133"><ele>75.0</ele><time>2026-03-29T17:50:27.58Z</time></trkpt><trkpt lat="38.905145" lon="16.365165"><ele>75.0</ele><time>2026-03-29T17:50:28.58Z</time></trkpt><trkpt lat="38.905145" lon="16.36482"><ele>75.0</ele><time>2026-03-29T17:50:29.58Z</time></trkpt><trkpt lat="38.9051367" lon="16.3644833"><ele>75.0</ele><time>2026-03-29T17:50:30.58Z</time></trkpt><trkpt lat="38.90512" lon="16.3641367"><ele>75.0</ele><time>2026-03-29T17:50:31.58Z</time></trkpt><trkpt lat="38.9051033" lon="16.363795"><ele>71.5</ele><time>2026-03-29T17:50:32.58Z</time></trkpt><trkpt lat="38.905065" lon="16.3634617"><ele>68.0</ele><time>2026-03-29T17:50:33.58Z</time></trkpt><trkpt lat="38.9050117" lon="16.3631283"><ele>70.0</ele><time>2026-03-29T17:50:34.58Z</time></trkpt><trkpt lat="38.9049433" lon="16.362805"><ele>72.0</ele><time>2026-03-29T17:50:35.58Z</time></trkpt><trkpt lat="38.9048567" lon="16.3624833"><ele>73.0</ele><time>2026-03-29T17:50:36.58Z</time></trkpt><trkpt lat="38.9047783" lon="16.3621633"><ele>74.0</ele><time>2026-03-29T17:50:37.58Z</time></trkpt><trkpt lat="38.9046933" lon="16.3618383"><ele>74.0</ele><time>2026-03-29T17:50:38.58Z</time></trkpt><trkpt lat="38.904615" lon="16.3615083"><ele>74.0</ele><time>2026-03-29T17:50:39.58Z</time></trkpt><trkpt lat="38.90455" lon="16.3611833"><ele>75.0</ele><time>2026-03-29T17:50:40.58Z</time></trkpt><trkpt lat="38.904475" lon="16.3608633"><ele>76.0</ele><time>2026-03-29T17:50:41.58Z</time></trkpt><trkpt lat="38.9044033" lon="16.360525"><ele>76.5</ele><time>2026-03-29T17:50:42.58Z</time></trkpt><trkpt lat="38.90433" lon="16.3601933"><ele>77.0</ele><time>2026-03-29T17:50:43.58Z</time></trkpt><trkpt lat="38.9042583" lon="16.359855"><ele>71.5</ele><time>2026-03-29T17:50:44.58Z</time></trkpt><trkpt lat="38.9041883" lon="16.359515"><ele>66.0</ele><time>2026-03-29T17:50:45.58Z</time></trkpt><trkpt lat="38.904125" lon="16.359175"><ele>67.0</ele><time>2026-03-29T17:50:46.58Z</time></trkpt><trkpt lat="38.90406" lon="16.358835"><ele>68.0</ele><time>2026-03-29T17:50:47.58Z</time></trkpt><trkpt lat="38.904" lon="16.3584917"><ele>68.0</ele><time>2026-03-29T17:50:48.58Z</time></trkpt><trkpt lat="38.9039433" lon="16.35817"><ele>68.0</ele><time>2026-03-29T17:50:49.58Z</time></trkpt><trkpt lat="38.9038967" lon="16.35786"><ele>67.66666666666667</ele><time>2026-03-29T17:50:50.58Z</time></trkpt><trkpt lat="38.9038583" lon="16.3575717"><ele>67.33333333333333</ele><time>2026-03-29T17:50:51.58Z</time></trkpt><trkpt lat="38.9038183" lon="16.3573033"><ele>67.0</ele><time>2026-03-29T17:50:52.58Z</time></trkpt><trkpt lat="38.903775" lon="16.3570667"><ele>66.66666666666666</ele><time>2026-03-29T17:50:53.58Z</time></trkpt><trkpt lat="38.9037417" lon="16.3568433"><ele>66.33333333333333</ele><time>2026-03-29T17:50:54.58Z</time></trkpt><trkpt lat="38.9037083" lon="16.3566233"><ele>66.0</ele><time>2026-03-29T17:50:55.58Z</time></trkpt><trkpt lat="38.9036783" lon="16.3564"><ele>68.0</ele><time>2026-03-29T17:50:56.58Z</time></trkpt><trkpt lat="38.9036433" lon="16.3561617"><ele>70.0</ele><time>2026-03-29T17:50:57.58Z</time></trkpt><trkpt lat="38.903605" lon="16.3559183"><ele>72.0</ele><time>2026-03-29T17:50:58.58Z</time></trkpt><trkpt lat="38.9035633" lon="16.355655"><ele>73.33333333333333</ele><time>2026-03-29T17:50:59.58Z</time></trkpt><trkpt lat="38.9035217" lon="16.3553983"><ele>74.66666666666666</ele><time>2026-03-29T17:51:00.58Z</time></trkpt><trkpt lat="38.9034817" lon="16.3551267"><ele>76.0</ele><time>2026-03-29T17:51:01.58Z</time></trkpt><trkpt lat="38.9034433" lon="16.3548467"><ele>70.0</ele><time>2026-03-29T17:51:02.58Z</time></trkpt><trkpt lat="38.9034033" lon="16.3545383"><ele>64.0</ele><time>2026-03-29T17:51:03.58Z</time></trkpt><trkpt lat="38.9033617" lon="16.3542433"><ele>64.0</ele><time>2026-03-29T17:51:04.58Z</time></trkpt><trkpt lat="38.9033217" lon="16.353945"><ele>64.0</ele><time>2026-03-29T17:51:05.58Z</time></trkpt><trkpt lat="38.9032783" lon="16.353645"><ele>64.5</ele><time>2026-03-29T17:51:06.58Z</time></trkpt><trkpt lat="38.9032317" lon="16.353355"><ele>65.0</ele><time>2026-03-29T17:51:07.58Z</time></trkpt><trkpt lat="38.9031817" lon="16.3530617"><ele>65.5</ele><time>2026-03-29T17:51:08.58Z</time></trkpt><trkpt lat="38.9031417" lon="16.3527583"><ele>66.0</ele><time>2026-03-29T17:51:09.581Z</time></trkpt><trkpt lat="38.9031017" lon="16.3524483"><ele>68.5</ele><time>2026-03-29T17:51:10.58Z</time></trkpt><trkpt lat="38.903055" lon="16.352135"><ele>71.0</ele><time>2026-03-29T17:51:11.58Z</time></trkpt><trkpt lat="38.9030083" lon="16.35183"><ele>71.0</ele><time>2026-03-29T17:51:12.58Z</time></trkpt><trkpt lat="38.90296" lon="16.35151"><ele>71.0</ele><time>2026-03-29T17:51:13.58Z</time></trkpt><trkpt lat="38.9029117" lon="16.3511933"><ele>75.5</ele><time>2026-03-29T17:51:14.58Z</time></trkpt><trkpt lat="38.90286" lon="16.3508767"><ele>80.0</ele><time>2026-03-29T17:51:15.58Z</time></trkpt><trkpt lat="38.9028067" lon="16.3505567"><ele>81.5</ele><time>2026-03-29T17:51:16.58Z</time></trkpt><trkpt lat="38.9027567" lon="16.3502317"><ele>83.0</ele><time>2026-03-29T17:51:17.58Z</time></trkpt><trkpt lat="38.9027083" lon="16.3499117"><ele>79.0</ele><time>2026-03-29T17:51:18.58Z</time></trkpt><trkpt lat="38.90266" lon="16.3495867"><ele>75.0</ele><time>2026-03-29T17:51:19.58Z</time></trkpt><trkpt lat="38.9026017" lon="16.3492583"><ele>67.5</ele><time>2026-03-29T17:51:20.58Z</time></trkpt><trkpt lat="38.9025483" lon="16.3489217"><ele>60.0</ele><time>2026-03-29T17:51:21.58Z</time></trkpt><trkpt lat="38.902495" lon="16.3485933"><ele>59.0</ele><time>2026-03-29T17:51:22.58Z</time></trkpt><trkpt lat="38.9024433" lon="16.3482617"><ele>58.0</ele><time>2026-03-29T17:51:23.58Z</time></trkpt><trkpt lat="38.9023967" lon="16.3479267"><ele>58.0</ele><time>2026-03-29T17:51:24.58Z</time></trkpt><trkpt lat="38.9023483" lon="16.34758"><ele>58.0</ele><time>2026-03-29T17:51:25.58Z</time></trkpt><trkpt lat="38.902295" lon="16.3472417"><ele>62.0</ele><time>2026-03-29T17:51:26.58Z</time></trkpt><trkpt lat="38.90224" lon="16.3469"><ele>66.0</ele><time>2026-03-29T17:51:27.58Z</time></trkpt><trkpt lat="38.902185" lon="16.3465533"><ele>68.5</ele><time>2026-03-29T17:51:28.58Z</time></trkpt><trkpt lat="38.9021333" lon="16.3462017"><ele>71.0</ele><time>2026-03-29T17:51:29.58Z</time></trkpt><trkpt lat="38.90208" lon="16.3458533"><ele>71.0</ele><time>2026-03-29T17:51:30.58Z</time></trkpt><trkpt lat="38.9020333" lon="16.3455033"><ele>71.0</ele><time>2026-03-29T17:51:31.58Z</time></trkpt><trkpt lat="38.901985" lon="16.34515"><ele>71.0</ele><time>2026-03-29T17:51:32.58Z</time></trkpt><trkpt lat="38.901945" lon="16.3447933"><ele>71.0</ele><time>2026-03-29T17:51:33.58Z</time></trkpt><trkpt lat="38.90191" lon="16.344435"><ele>70.5</ele><time>2026-03-29T17:51:34.58Z</time></trkpt><trkpt lat="38.9018833" lon="16.344075"><ele>70.0</ele><time>2026-03-29T17:51:35.58Z</time></trkpt><trkpt lat="38.90184" lon="16.3437183"><ele>68.5</ele><time>2026-03-29T17:51:36.58Z</time></trkpt><trkpt lat="38.9018017" lon="16.34336"><ele>67.0</ele><time>2026-03-29T17:51:37.58Z</time></trkpt><trkpt lat="38.901755" lon="16.3430033"><ele>59.5</ele><time>2026-03-29T17:51:38.58Z</time></trkpt><trkpt lat="38.9017117" lon="16.3426467"><ele>52.0</ele><time>2026-03-29T17:51:39.58Z</time></trkpt><trkpt lat="38.9016733" lon="16.3423"><ele>53.0</ele><time>2026-03-29T17:51:40.58Z</time></trkpt><trkpt lat="38.9016333" lon="16.34194"><ele>54.0</ele><time>2026-03-29T17:51:41.58Z</time></trkpt><trkpt lat="38.9016033" lon="16.3415867"><ele>53.5</ele><time>2026-03-29T17:51:42.58Z</time></trkpt><trkpt lat="38.90157" lon="16.34124"><ele>53.0</ele><time>2026-03-29T17:51:43.58Z</time></trkpt><trkpt lat="38.9015383" lon="16.3408967"><ele>53.0</ele><time>2026-03-29T17:51:44.58Z</time></trkpt><trkpt lat="38.9015" lon="16.3405467"><ele>53.0</ele><time>2026-03-29T17:51:45.58Z</time></trkpt><trkpt lat="38.9014683" lon="16.3402067"><ele>53.0</ele><time>2026-03-29T17:51:46.58Z</time></trkpt><trkpt lat="38.901445" lon="16.3398617"><ele>53.0</ele><time>2026-03-29T17:51:47.58Z</time></trkpt><trkpt lat="38.9014217" lon="16.3395167"><ele>54.0</ele><time>2026-03-29T17:51:48.58Z</time></trkpt><trkpt lat="38.90141" lon="16.3391817"><ele>55.0</ele><time>2026-03-29T17:51:49.58Z</time></trkpt><trkpt lat="38.901415" lon="16.3388383"><ele>55.5</ele><time>2026-03-29T17:51:50.58Z</time></trkpt><trkpt lat="38.9014533" lon="16.3384933"><ele>56.0</ele><time>2026-03-29T17:51:51.58Z</time></trkpt><trkpt lat="38.9015017" lon="16.3381567"><ele>56.0</ele><time>2026-03-29T17:51:52.58Z</time></trkpt><trkpt lat="38.9015683" lon="16.3378367"><ele>56.0</ele><time>2026-03-29T17:51:53.58Z</time></trkpt><trkpt lat="38.9016533" lon="16.337505"><ele>56.0</ele><time>2026-03-29T17:51:54.58Z</time></trkpt><trkpt lat="38.90176" lon="16.3371867"><ele>56.0</ele><time>2026-03-29T17:51:55.58Z</time></trkpt><trkpt lat="38.9018967" lon="16.3368933"><ele>56.0</ele><time>2026-03-29T17:51:56.58Z</time></trkpt><trkpt lat="38.9020433" lon="16.336625"><ele>56.0</ele><time>2026-03-29T17:51:57.58Z</time></trkpt><trkpt lat="38.9022067" lon="16.336365"><ele>55.0</ele><time>2026-03-29T17:51:58.58Z</time></trkpt><trkpt lat="38.90239" lon="16.3361283"><ele>54.0</ele><time>2026-03-29T17:51:59.58Z</time></trkpt><trkpt lat="38.9026" lon="16.3359017"><ele>54.5</ele><time>2026-03-29T17:52:00.58Z</time></trkpt><trkpt lat="38.902815" lon="16.3356983"><ele>55.0</ele><time>2026-03-29T17:52:01.58Z</time></trkpt><trkpt lat="38.9030317" lon="16.3354967"><ele>55.0</ele><time>2026-03-29T17:52:02.58Z</time></trkpt><trkpt lat="38.9032483" lon="16.3353083"><ele>55.0</ele><time>2026-03-29T17:52:03.58Z</time></trkpt><trkpt lat="38.9034783" lon="16.3351167"><ele>56.5</ele><time>2026-03-29T17:52:04.58Z</time></trkpt><trkpt lat="38.9036917" lon="16.3349167"><ele>58.0</ele><time>2026-03-29T17:52:05.58Z</time></trkpt><trkpt lat="38.9039217" lon="16.33472"><ele>58.0</ele><time>2026-03-29T17:52:06.58Z</time></trkpt><trkpt lat="38.9041517" lon="16.334525"><ele>58.0</ele><time>2026-03-29T17:52:07.58Z</time></trkpt><trkpt lat="38.9043783" lon="16.3343317"><ele>57.0</ele><time>2026-03-29T17:52:08.58Z</time></trkpt><trkpt lat="38.9046067" lon="16.33413"><ele>56.0</ele><time>2026-03-29T17:52:09.58Z</time></trkpt><trkpt lat="38.9048417" lon="16.3339317"><ele>52.5</ele><time>2026-03-29T17:52:10.58Z</time></trkpt><trkpt lat="38.9050733" lon="16.33373"><ele>49.0</ele><time>2026-03-29T17:52:11.58Z</time></trkpt><trkpt lat="38.9052933" lon="16.3335283"><ele>49.0</ele><time>2026-03-29T17:52:12.58Z</time></trkpt><trkpt lat="38.9054983" lon="16.3333"><ele>49.0</ele><time>2026-03-29T17:52:13.58Z</time></trkpt><trkpt lat="38.9056983" lon="16.3330667"><ele>48.5</ele><time>2026-03-29T17:52:14.58Z</time></trkpt><trkpt lat="38.9059033" lon="16.3328467"><ele>48.0</ele><time>2026-03-29T17:52:15.58Z</time></trkpt><trkpt lat="38.9060883" lon="16.3325983"><ele>44.5</ele><time>2026-03-29T17:52:16.58Z</time></trkpt><trkpt lat="38.906255" lon="16.332305"><ele>41.0</ele><time>2026-03-29T17:52:17.58Z</time></trkpt><trkpt lat="38.9064" lon="16.3320083"><ele>40.0</ele><time>2026-03-29T17:52:18.58Z</time></trkpt><trkpt lat="38.906535" lon="16.3317033"><ele>39.0</ele><time>2026-03-29T17:52:19.58Z</time></trkpt><trkpt lat="38.9066617" lon="16.3313917"><ele>38.0</ele><time>2026-03-29T17:52:20.58Z</time></trkpt><trkpt lat="38.90677" lon="16.3310683"><ele>37.0</ele><time>2026-03-29T17:52:21.58Z</time></trkpt><trkpt lat="38.9068667" lon="16.3307417"><ele>37.0</ele><time>2026-03-29T17:52:22.58Z</time></trkpt><trkpt lat="38.9069483" lon="16.3304017"><ele>37.0</ele><time>2026-03-29T17:52:23.58Z</time></trkpt><trkpt lat="38.9070217" lon="16.3300683"><ele>37.0</ele><time>2026-03-29T17:52:24.58Z</time></trkpt><trkpt lat="38.9070883" lon="16.3297267"><ele>37.0</ele><time>2026-03-29T17:52:25.58Z</time></trkpt><trkpt lat="38.9071533" lon="16.3293883"><ele>37.5</ele><time>2026-03-29T17:52:26.58Z</time></trkpt><trkpt lat="38.9072167" lon="16.3290533"><ele>38.0</ele><time>2026-03-29T17:52:27.58Z</time></trkpt><trkpt lat="38.907285" lon="16.3287133"><ele>38.0</ele><time>2026-03-29T17:52:28.58Z</time></trkpt><trkpt lat="38.9073533" lon="16.3283767"><ele>38.0</ele><time>2026-03-29T17:52:29.581Z</time></trkpt><trkpt lat="38.9074217" lon="16.3280317"><ele>38.0</ele><time>2026-03-29T17:52:30.58Z</time></trkpt><trkpt lat="38.90749" lon="16.3277017"><ele>38.0</ele><time>2026-03-29T17:52:31.58Z</time></trkpt><trkpt lat="38.90756" lon="16.3273617"><ele>38.5</ele><time>2026-03-29T17:52:32.581Z</time></trkpt><trkpt lat="38.9076367" lon="16.3270183"><ele>39.0</ele><time>2026-03-29T17:52:33.58Z</time></trkpt><trkpt lat="38.9076933" lon="16.3266883"><ele>39.0</ele><time>2026-03-29T17:52:34.58Z</time></trkpt><trkpt lat="38.9077567" lon="16.32635"><ele>39.0</ele><time>2026-03-29T17:52:35.58Z</time></trkpt><trkpt lat="38.90783" lon="16.326005"><ele>39.0</ele><time>2026-03-29T17:52:36.58Z</time></trkpt><trkpt lat="38.9079033" lon="16.32566"><ele>39.0</ele><time>2026-03-29T17:52:37.58Z</time></trkpt><trkpt lat="38.9079717" lon="16.32532"><ele>38.5</ele><time>2026-03-29T17:52:38.58Z</time></trkpt><trkpt lat="38.9080367" lon="16.3249783"><ele>38.0</ele><time>2026-03-29T17:52:39.58Z</time></trkpt><trkpt lat="38.9081017" lon="16.3246367"><ele>36.0</ele><time>2026-03-29T17:52:40.58Z</time></trkpt><trkpt lat="38.9081717" lon="16.3243017"><ele>34.0</ele><time>2026-03-29T17:52:41.58Z</time></trkpt><trkpt lat="38.9082417" lon="16.3239667"><ele>34.0</ele><time>2026-03-29T17:52:42.58Z</time></trkpt><trkpt lat="38.9083083" lon="16.3236317"><ele>34.0</ele><time>2026-03-29T17:52:43.58Z</time></trkpt><trkpt lat="38.908385" lon="16.3232883"><ele>34.0</ele><time>2026-03-29T17:52:44.58Z</time></trkpt><trkpt lat="38.9084567" lon="16.322945"><ele>34.0</ele><time>2026-03-29T17:52:45.58Z</time></trkpt><trkpt lat="38.9085317" lon="16.3225917"><ele>34.0</ele><time>2026-03-29T17:52:46.58Z</time></trkpt><trkpt lat="38.908605" lon="16.3222317"><ele>34.0</ele><time>2026-03-29T17:52:47.58Z</time></trkpt><trkpt lat="38.9086717" lon="16.321875"><ele>34.5</ele><time>2026-03-29T17:52:48.58Z</time></trkpt><trkpt lat="38.90874" lon="16.3215167"><ele>35.0</ele><time>2026-03-29T17:52:49.58Z</time></trkpt><trkpt lat="38.908805" lon="16.3211633"><ele>35.0</ele><time>2026-03-29T17:52:50.58Z</time></trkpt><trkpt lat="38.9088783" lon="16.3207967"><ele>35.0</ele><time>2026-03-29T17:52:51.58Z</time></trkpt><trkpt lat="38.9089517" lon="16.3204233"><ele>35.0</ele><time>2026-03-29T17:52:52.58Z</time></trkpt><trkpt lat="38.909025" lon="16.3200517"><ele>35.0</ele><time>2026-03-29T17:52:53.581Z</time></trkpt><trkpt lat="38.909095" lon="16.3196867"><ele>34.5</ele><time>2026-03-29T17:52:54.58Z</time></trkpt><trkpt lat="38.9091617" lon="16.31932"><ele>34.0</ele><time>2026-03-29T17:52:55.58Z</time></trkpt><trkpt lat="38.90923" lon="16.3189517"><ele>33.0</ele><time>2026-03-29T17:52:56.581Z</time></trkpt><trkpt lat="38.9093017" lon="16.3185783"><ele>32.0</ele><time>2026-03-29T17:52:57.58Z</time></trkpt><trkpt lat="38.909375" lon="16.3182017"><ele>32.0</ele><time>2026-03-29T17:52:58.58Z</time></trkpt><trkpt lat="38.909455" lon="16.3178217"><ele>32.0</ele><time>2026-03-29T17:52:59.58Z</time></trkpt><trkpt lat="38.9095217" lon="16.3174567"><ele>32.0</ele><time>2026-03-29T17:53:00.58Z</time></trkpt><trkpt lat="38.9096017" lon="16.3170817"><ele>32.0</ele><time>2026-03-29T17:53:01.58Z</time></trkpt><trkpt lat="38.9096767" lon="16.31672"><ele>31.5</ele><time>2026-03-29T17:53:02.58Z</time></trkpt><trkpt lat="38.9097583" lon="16.316355"><ele>31.0</ele><time>2026-03-29T17:53:03.58Z</time></trkpt><trkpt lat="38.9098283" lon="16.3159883"><ele>31.0</ele><time>2026-03-29T17:53:04.581Z</time></trkpt><trkpt lat="38.9099" lon="16.3156283"><ele>31.0</ele><time>2026-03-29T17:53:05.58Z</time></trkpt><trkpt lat="38.909965" lon="16.315265"><ele>31.5</ele><time>2026-03-29T17:53:06.58Z</time></trkpt><trkpt lat="38.9100467" lon="16.3148967"><ele>32.0</ele><time>2026-03-29T17:53:07.58Z</time></trkpt><trkpt lat="38.9101283" lon="16.31452"><ele>33.0</ele><time>2026-03-29T17:53:08.58Z</time></trkpt><trkpt lat="38.9102033" lon="16.314145"><ele>34.0</ele><time>2026-03-29T17:53:09.58Z</time></trkpt><trkpt lat="38.91028" lon="16.3137767"><ele>34.0</ele><time>2026-03-29T17:53:10.58Z</time></trkpt><trkpt lat="38.9103567" lon="16.3134167"><ele>34.0</ele><time>2026-03-29T17:53:11.58Z</time></trkpt><trkpt lat="38.9104317" lon="16.3130667"><ele>33.0</ele><time>2026-03-29T17:53:12.58Z</time></trkpt><trkpt lat="38.9105133" lon="16.312705"><ele>32.0</ele><time>2026-03-29T17:53:13.58Z</time></trkpt><trkpt lat="38.9105917" lon="16.3123467"><ele>31.5</ele><time>2026-03-29T17:53:14.58Z</time></trkpt><trkpt lat="38.9106617" lon="16.311995"><ele>31.0</ele><time>2026-03-29T17:53:15.58Z</time></trkpt><trkpt lat="38.910735" lon="16.3116433"><ele>31.5</ele><time>2026-03-29T17:53:16.58Z</time></trkpt><trkpt lat="38.910805" lon="16.3112917"><ele>32.0</ele><time>2026-03-29T17:53:17.58Z</time></trkpt><trkpt lat="38.9108783" lon="16.3109383"><ele>33.0</ele><time>2026-03-29T17:53:18.58Z</time></trkpt><trkpt lat="38.910955" lon="16.31059"><ele>34.0</ele><time>2026-03-29T17:53:19.58Z</time></trkpt><trkpt lat="38.9110267" lon="16.3102467"><ele>34.0</ele><time>2026-03-29T17:53:20.58Z</time></trkpt><trkpt lat="38.9110967" lon="16.3099133"><ele>34.0</ele><time>2026-03-29T17:53:21.58Z</time></trkpt><trkpt lat="38.9111717" lon="16.309575"><ele>36.0</ele><time>2026-03-29T17:53:22.58Z</time></trkpt><trkpt lat="38.91124" lon="16.30924"><ele>38.0</ele><time>2026-03-29T17:53:23.58Z</time></trkpt><trkpt lat="38.9113117" lon="16.308905"><ele>38.0</ele><time>2026-03-29T17:53:24.58Z</time></trkpt><trkpt lat="38.91138" lon="16.3085583"><ele>38.0</ele><time>2026-03-29T17:53:25.58Z</time></trkpt><trkpt lat="38.911445" lon="16.3082067"><ele>39.0</ele><time>2026-03-29T17:53:26.58Z</time></trkpt><trkpt lat="38.9115067" lon="16.3078517"><ele>40.0</ele><time>2026-03-29T17:53:27.58Z</time></trkpt><trkpt lat="38.9115667" lon="16.3074967"><ele>40.5</ele><time>2026-03-29T17:53:28.581Z</time></trkpt><trkpt lat="38.91162" lon="16.3071383"><ele>41.0</ele><time>2026-03-29T17:53:29.58Z</time></trkpt><trkpt lat="38.91167" lon="16.3067883"><ele>41.0</ele><time>2026-03-29T17:53:30.58Z</time></trkpt><trkpt lat="38.9117183" lon="16.306435"><ele>41.0</ele><time>2026-03-29T17:53:31.58Z</time></trkpt><trkpt lat="38.9117583" lon="16.3060783"><ele>41.5</ele><time>2026-03-29T17:53:32.58Z</time></trkpt><trkpt lat="38.9118033" lon="16.3057283"><ele>42.0</ele><time>2026-03-29T17:53:33.58Z</time></trkpt><trkpt lat="38.91185" lon="16.3053967"><ele>42.0</ele><time>2026-03-29T17:53:34.58Z</time></trkpt><trkpt lat="38.9119017" lon="16.3050583"><ele>42.0</ele><time>2026-03-29T17:53:35.58Z</time></trkpt><trkpt lat="38.9119467" lon="16.304715"><ele>42.5</ele><time>2026-03-29T17:53:36.58Z</time></trkpt><trkpt lat="38.912" lon="16.3043717"><ele>43.0</ele><time>2026-03-29T17:53:37.58Z</time></trkpt><trkpt lat="38.91205" lon="16.3040267"><ele>44.0</ele><time>2026-03-29T17:53:38.58Z</time></trkpt><trkpt lat="38.9121033" lon="16.30368"><ele>45.0</ele><time>2026-03-29T17:53:39.58Z</time></trkpt><trkpt lat="38.912145" lon="16.3033417"><ele>46.0</ele><time>2026-03-29T17:53:40.58Z</time></trkpt><trkpt lat="38.9122067" lon="16.3029983"><ele>47.0</ele><time>2026-03-29T17:53:41.58Z</time></trkpt><trkpt lat="38.9122583" lon="16.3026633"><ele>47.0</ele><time>2026-03-29T17:53:42.58Z</time></trkpt><trkpt lat="38.9123017" lon="16.30233"><ele>47.0</ele><time>2026-03-29T17:53:43.58Z</time></trkpt><trkpt lat="38.912345" lon="16.3019883"><ele>47.0</ele><time>2026-03-29T17:53:44.58Z</time></trkpt><trkpt lat="38.9123833" lon="16.3016583"><ele>47.0</ele><time>2026-03-29T17:53:45.58Z</time></trkpt><trkpt lat="38.9124217" lon="16.30133"><ele>47.5</ele><time>2026-03-29T17:53:46.58Z</time></trkpt><trkpt lat="38.91247" lon="16.3010017"><ele>48.0</ele><time>2026-03-29T17:53:47.58Z</time></trkpt><trkpt lat="38.912515" lon="16.30068"><ele>48.0</ele><time>2026-03-29T17:53:48.58Z</time></trkpt><trkpt lat="38.9125617" lon="16.30035"><ele>48.0</ele><time>2026-03-29T17:53:49.58Z</time></trkpt><trkpt lat="38.912605" lon="16.300025"><ele>47.5</ele><time>2026-03-29T17:53:50.58Z</time></trkpt><trkpt lat="38.9126517" lon="16.2997067"><ele>47.0</ele><time>2026-03-29T17:53:51.58Z</time></trkpt><trkpt lat="38.9127083" lon="16.29938"><ele>47.0</ele><time>2026-03-29T17:53:52.58Z</time></trkpt><trkpt lat="38.912765" lon="16.2990517"><ele>47.0</ele><time>2026-03-29T17:53:53.58Z</time></trkpt><trkpt lat="38.9128217" lon="16.2987267"><ele>46.5</ele><time>2026-03-29T17:53:54.58Z</time></trkpt><trkpt lat="38.9128717" lon="16.2984017"><ele>46.0</ele><time>2026-03-29T17:53:55.58Z</time></trkpt><trkpt lat="38.91292" lon="16.29807"><ele>44.5</ele><time>2026-03-29T17:53:56.58Z</time></trkpt><trkpt lat="38.91297" lon="16.2977383"><ele>43.0</ele><time>2026-03-29T17:53:57.58Z</time></trkpt><trkpt lat="38.9130183" lon="16.2974067"><ele>44.0</ele><time>2026-03-29T17:53:58.58Z</time></trkpt><trkpt lat="38.9130667" lon="16.29707"><ele>45.0</ele><time>2026-03-29T17:53:59.58Z</time></trkpt><trkpt lat="38.9131133" lon="16.296745"><ele>45.0</ele><time>2026-03-29T17:54:00.58Z</time></trkpt><trkpt lat="38.9131667" lon="16.296415"><ele>45.0</ele><time>2026-03-29T17:54:01.58Z</time></trkpt><trkpt lat="38.9132067" lon="16.296095"><ele>45.0</ele><time>2026-03-29T17:54:02.58Z</time></trkpt><trkpt lat="38.9132633" lon="16.295785"><ele>45.0</ele><time>2026-03-29T17:54:03.58Z</time></trkpt><trkpt lat="38.9133083" lon="16.295495"><ele>44.666666666666664</ele><time>2026-03-29T17:54:04.58Z</time></trkpt><trkpt lat="38.9133567" lon="16.2952117"><ele>44.33333333333333</ele><time>2026-03-29T17:54:05.58Z</time></trkpt><trkpt lat="38.9134017" lon="16.29493"><ele>44.0</ele><time>2026-03-29T17:54:06.58Z</time></trkpt><trkpt lat="38.9134417" lon="16.2946517"><ele>44.0</ele><time>2026-03-29T17:54:07.58Z</time></trkpt><trkpt lat="38.913485" lon="16.2943633"><ele>44.0</ele><time>2026-03-29T17:54:08.58Z</time></trkpt><trkpt lat="38.9135367" lon="16.2940833"><ele>44.666666666666664</ele><time>2026-03-29T17:54:09.58Z</time></trkpt><trkpt lat="38.9135683" lon="16.2938217"><ele>45.333333333333336</ele><time>2026-03-29T17:54:10.58Z</time></trkpt><trkpt lat="38.91361" lon="16.293545"><ele>46.0</ele><time>2026-03-29T17:54:11.58Z</time></trkpt><trkpt lat="38.9136417" lon="16.2932817"><ele>45.333333333333336</ele><time>2026-03-29T17:54:12.58Z</time></trkpt><trkpt lat="38.9136667" lon="16.293015"><ele>44.666666666666664</ele><time>2026-03-29T17:54:13.581Z</time></trkpt><trkpt lat="38.913705" lon="16.2927567"><ele>44.0</ele><time>2026-03-29T17:54:14.58Z</time></trkpt><trkpt lat="38.9137467" lon="16.2924983"><ele>43.666666666666664</ele><time>2026-03-29T17:54:15.58Z</time></trkpt><trkpt lat="38.9137783" lon="16.2922383"><ele>43.333333333333336</ele><time>2026-03-29T17:54:16.58Z</time></trkpt><trkpt lat="38.913825" lon="16.2919767"><ele>43.0</ele><time>2026-03-29T17:54:17.58Z</time></trkpt><trkpt lat="38.9139" lon="16.2914467"><ele>43.333333333333336</ele><time>2026-03-29T17:54:19.58Z</time></trkpt><trkpt lat="38.91394" lon="16.291165"><ele>43.666666666666664</ele><time>2026-03-29T17:54:20.58Z</time></trkpt><trkpt lat="38.9139817" lon="16.290885"><ele>44.0</ele><time>2026-03-29T17:54:21.58Z</time></trkpt><trkpt lat="38.9140117" lon="16.2906"><ele>43.33333333333333</ele><time>2026-03-29T17:54:22.58Z</time></trkpt><trkpt lat="38.914055" lon="16.2903217"><ele>42.666666666666664</ele><time>2026-03-29T17:54:23.58Z</time></trkpt><trkpt lat="38.9140983" lon="16.290035"><ele>42.0</ele><time>2026-03-29T17:54:24.58Z</time></trkpt><trkpt lat="38.9141417" lon="16.28974"><ele>40.5</ele><time>2026-03-29T17:54:25.58Z</time></trkpt><trkpt lat="38.9141817" lon="16.2894417"><ele>39.0</ele><time>2026-03-29T17:54:26.58Z</time></trkpt><trkpt lat="38.9142283" lon="16.2891367"><ele>38.5</ele><time>2026-03-29T17:54:27.58Z</time></trkpt><trkpt lat="38.9142717" lon="16.2888267"><ele>38.0</ele><time>2026-03-29T17:54:28.58Z</time></trkpt><trkpt lat="38.914315" lon="16.2885117"><ele>38.0</ele><time>2026-03-29T17:54:29.58Z</time></trkpt><trkpt lat="38.914365" lon="16.2882067"><ele>38.0</ele><time>2026-03-29T17:54:30.58Z</time></trkpt><trkpt lat="38.9144033" lon="16.2879167"><ele>36.5</ele><time>2026-03-29T17:54:31.58Z</time></trkpt><trkpt lat="38.914455" lon="16.2876333"><ele>35.0</ele><time>2026-03-29T17:54:32.58Z</time></trkpt><trkpt lat="38.9145017" lon="16.2873433"><ele>35.0</ele><time>2026-03-29T17:54:33.58Z</time></trkpt><trkpt lat="38.91454" lon="16.28707"><ele>35.0</ele><time>2026-03-29T17:54:34.58Z</time></trkpt><trkpt lat="38.9145783" lon="16.2868"><ele>35.0</ele><time>2026-03-29T17:54:35.581Z</time></trkpt><trkpt lat="38.914615" lon="16.2865283"><ele>34.666666666666664</ele><time>2026-03-29T17:54:36.58Z</time></trkpt><trkpt lat="38.9146583" lon="16.286255"><ele>34.333333333333336</ele><time>2026-03-29T17:54:37.58Z</time></trkpt><trkpt lat="38.914695" lon="16.2859933"><ele>34.0</ele><time>2026-03-29T17:54:38.58Z</time></trkpt><trkpt lat="38.9147267" lon="16.2857333"><ele>34.0</ele><time>2026-03-29T17:54:39.58Z</time></trkpt><trkpt lat="38.914765" lon="16.28548"><ele>34.0</ele><time>2026-03-29T17:54:40.58Z</time></trkpt><trkpt lat="38.9148033" lon="16.285225"><ele>34.0</ele><time>2026-03-29T17:54:41.58Z</time></trkpt><trkpt lat="38.914845" lon="16.2849567"><ele>34.0</ele><time>2026-03-29T17:54:42.58Z</time></trkpt><trkpt lat="38.91489" lon="16.284695"><ele>34.0</ele><time>2026-03-29T17:54:43.58Z</time></trkpt><trkpt lat="38.91492" lon="16.2844317"><ele>34.0</ele><time>2026-03-29T17:54:44.58Z</time></trkpt><trkpt lat="38.9149533" lon="16.2841667"><ele>33.333333333333336</ele><time>2026-03-29T17:54:45.58Z</time></trkpt><trkpt lat="38.91499" lon="16.2839017"><ele>32.666666666666664</ele><time>2026-03-29T17:54:46.58Z</time></trkpt><trkpt lat="38.9150367" lon="16.2836333"><ele>32.0</ele><time>2026-03-29T17:54:47.581Z</time></trkpt><trkpt lat="38.9150817" lon="16.28336"><ele>34.33333333333333</ele><time>2026-03-29T17:54:48.58Z</time></trkpt><trkpt lat="38.91512" lon="16.2830917"><ele>36.666666666666664</ele><time>2026-03-29T17:54:49.58Z</time></trkpt><trkpt lat="38.915155" lon="16.28283"><ele>39.0</ele><time>2026-03-29T17:54:50.58Z</time></trkpt><trkpt lat="38.9151867" lon="16.2825667"><ele>39.0</ele><time>2026-03-29T17:54:51.58Z</time></trkpt><trkpt lat="38.9152283" lon="16.282305"><ele>39.0</ele><time>2026-03-29T17:54:52.58Z</time></trkpt><trkpt lat="38.91527" lon="16.2820483"><ele>39.0</ele><time>2026-03-29T17:54:53.58Z</time></trkpt><trkpt lat="38.9153167" lon="16.281795"><ele>40.0</ele><time>2026-03-29T17:54:54.58Z</time></trkpt><trkpt lat="38.9153617" lon="16.2815417"><ele>41.0</ele><time>2026-03-29T17:54:55.58Z</time></trkpt><trkpt lat="38.915405" lon="16.281305"><ele>42.0</ele><time>2026-03-29T17:54:56.58Z</time></trkpt><trkpt lat="38.9154517" lon="16.2810633"><ele>43.0</ele><time>2026-03-29T17:54:57.58Z</time></trkpt><trkpt lat="38.9154983" lon="16.28082"><ele>44.0</ele><time>2026-03-29T17:54:58.58Z</time></trkpt><trkpt lat="38.915545" lon="16.2805883"><ele>45.0</ele><time>2026-03-29T17:54:59.58Z</time></trkpt><trkpt lat="38.9155883" lon="16.2803517"><ele>45.333333333333336</ele><time>2026-03-29T17:55:00.581Z</time></trkpt><trkpt lat="38.915625" lon="16.2801217"><ele>45.66666666666667</ele><time>2026-03-29T17:55:01.58Z</time></trkpt><trkpt lat="38.9156667" lon="16.2798867"><ele>46.0</ele><time>2026-03-29T17:55:02.581Z</time></trkpt><trkpt lat="38.915715" lon="16.2796483"><ele>46.0</ele><time>2026-03-29T17:55:03.58Z</time></trkpt><trkpt lat="38.9157583" lon="16.2794033"><ele>46.0</ele><time>2026-03-29T17:55:04.581Z</time></trkpt><trkpt lat="38.9158067" lon="16.2791567"><ele>46.0</ele><time>2026-03-29T17:55:05.581Z</time></trkpt><trkpt lat="38.9158433" lon="16.2788983"><ele>46.0</ele><time>2026-03-29T17:55:06.58Z</time></trkpt><trkpt lat="38.9158817" lon="16.2786167"><ele>46.0</ele><time>2026-03-29T17:55:07.58Z</time></trkpt><trkpt lat="38.9159233" lon="16.2783217"><ele>47.5</ele><time>2026-03-29T17:55:08.58Z</time></trkpt><trkpt lat="38.915975" lon="16.27803"><ele>49.0</ele><time>2026-03-29T17:55:09.58Z</time></trkpt><trkpt lat="38.91603" lon="16.2777283"><ele>49.0</ele><time>2026-03-29T17:55:10.58Z</time></trkpt><trkpt lat="38.9160783" lon="16.2774267"><ele>49.0</ele><time>2026-03-29T17:55:11.58Z</time></trkpt><trkpt lat="38.9161417" lon="16.27713"><ele>48.5</ele><time>2026-03-29T17:55:12.58Z</time></trkpt><trkpt lat="38.9162" lon="16.27682"><ele>48.0</ele><time>2026-03-29T17:55:13.581Z</time></trkpt><trkpt lat="38.9162567" lon="16.27651"><ele>48.0</ele><time>2026-03-29T17:55:14.58Z</time></trkpt><trkpt lat="38.916315" lon="16.2761983"><ele>48.0</ele><time>2026-03-29T17:55:15.58Z</time></trkpt><trkpt lat="38.9163833" lon="16.27588"><ele>47.0</ele><time>2026-03-29T17:55:16.58Z</time></trkpt><trkpt lat="38.9164433" lon="16.2755583"><ele>46.0</ele><time>2026-03-29T17:55:17.58Z</time></trkpt><trkpt lat="38.9165067" lon="16.2752417"><ele>46.0</ele><time>2026-03-29T17:55:18.58Z</time></trkpt><trkpt lat="38.9165667" lon="16.2749217"><ele>46.0</ele><time>2026-03-29T17:55:19.58Z</time></trkpt><trkpt lat="38.91663" lon="16.2746133"><ele>45.5</ele><time>2026-03-29T17:55:20.58Z</time></trkpt><trkpt lat="38.9166917" lon="16.2743033"><ele>45.0</ele><time>2026-03-29T17:55:21.58Z</time></trkpt><trkpt lat="38.9167533" lon="16.2739967"><ele>45.0</ele><time>2026-03-29T17:55:22.58Z</time></trkpt><trkpt lat="38.9168133" lon="16.2737"><ele>45.0</ele><time>2026-03-29T17:55:23.58Z</time></trkpt><trkpt lat="38.91687" lon="16.273405"><ele>45.0</ele><time>2026-03-29T17:55:24.58Z</time></trkpt><trkpt lat="38.9169283" lon="16.2731167"><ele>45.0</ele><time>2026-03-29T17:55:25.58Z</time></trkpt><trkpt lat="38.9169817" lon="16.2728433"><ele>44.666666666666664</ele><time>2026-03-29T17:55:26.58Z</time></trkpt><trkpt lat="38.9170317" lon="16.2725733"><ele>44.33333333333333</ele><time>2026-03-29T17:55:27.58Z</time></trkpt><trkpt lat="38.9170817" lon="16.2723117"><ele>44.0</ele><time>2026-03-29T17:55:28.58Z</time></trkpt><trkpt lat="38.9171267" lon="16.2720467"><ele>43.33333333333333</ele><time>2026-03-29T17:55:29.58Z</time></trkpt><trkpt lat="38.9171683" lon="16.2717767"><ele>42.666666666666664</ele><time>2026-03-29T17:55:30.58Z</time></trkpt><trkpt lat="38.9172267" lon="16.2715183"><ele>42.0</ele><time>2026-03-29T17:55:31.58Z</time></trkpt><trkpt lat="38.91728" lon="16.2712717"><ele>41.333333333333336</ele><time>2026-03-29T17:55:32.58Z</time></trkpt><trkpt lat="38.91732" lon="16.2710317"><ele>40.66666666666667</ele><time>2026-03-29T17:55:33.58Z</time></trkpt><trkpt lat="38.9173583" lon="16.2708117"><ele>40.0</ele><time>2026-03-29T17:55:34.58Z</time></trkpt><trkpt lat="38.9173983" lon="16.27059"><ele>39.0</ele><time>2026-03-29T17:55:35.58Z</time></trkpt><trkpt lat="38.9174517" lon="16.27037"><ele>38.0</ele><time>2026-03-29T17:55:36.58Z</time></trkpt><trkpt lat="38.9174833" lon="16.2701683"><ele>37.0</ele><time>2026-03-29T17:55:37.58Z</time></trkpt><trkpt lat="38.9175267" lon="16.2699683"><ele>37.0</ele><time>2026-03-29T17:55:38.58Z</time></trkpt><trkpt lat="38.917565" lon="16.2697883"><ele>37.0</ele><time>2026-03-29T17:55:39.58Z</time></trkpt><trkpt lat="38.9175917" lon="16.269595"><ele>37.0</ele><time>2026-03-29T17:55:40.58Z</time></trkpt><trkpt lat="38.9176233" lon="16.2694183"><ele>37.0</ele><time>2026-03-29T17:55:41.58Z</time></trkpt><trkpt lat="38.91763" lon="16.2692467"><ele>36.5</ele><time>2026-03-29T17:55:42.58Z</time></trkpt><trkpt lat="38.917625" lon="16.2690833"><ele>36.0</ele><time>2026-03-29T17:55:43.58Z</time></trkpt><trkpt lat="38.917615" lon="16.2689233"><ele>35.5</ele><time>2026-03-29T17:55:44.58Z</time></trkpt><trkpt lat="38.9176167" lon="16.2687717"><ele>35.0</ele><time>2026-03-29T17:55:45.58Z</time></trkpt><trkpt lat="38.9176083" lon="16.2686233"><ele>34.6</ele><time>2026-03-29T17:55:46.58Z</time></trkpt><trkpt lat="38.917615" lon="16.2684917"><ele>34.2</ele><time>2026-03-29T17:55:47.58Z</time></trkpt><trkpt lat="38.9176217" lon="16.26837"><ele>33.8</ele><time>2026-03-29T17:55:48.58Z</time></trkpt><trkpt lat="38.9176417" lon="16.26824"><ele>33.4</ele><time>2026-03-29T17:55:49.58Z</time></trkpt><trkpt lat="38.9176683" lon="16.2681217"><ele>33.0</ele><time>2026-03-29T17:55:50.58Z</time></trkpt><trkpt lat="38.9177133" lon="16.2679967"><ele>32.8</ele><time>2026-03-29T17:55:51.58Z</time></trkpt><trkpt lat="38.9177617" lon="16.2678733"><ele>32.599999999999994</ele><time>2026-03-29T17:55:52.58Z</time></trkpt><trkpt lat="38.9178233" lon="16.2677517"><ele>32.400000000000006</ele><time>2026-03-29T17:55:53.58Z</time></trkpt><trkpt lat="38.91789" lon="16.2676383"><ele>32.2</ele><time>2026-03-29T17:55:54.58Z</time></trkpt><trkpt lat="38.9179567" lon="16.2675183"><ele>32.0</ele><time>2026-03-29T17:55:55.58Z</time></trkpt><trkpt lat="38.918035" lon="16.267415"><ele>32.0</ele><time>2026-03-29T17:55:56.58Z</time></trkpt><trkpt lat="38.9181183" lon="16.267325"><ele>32.0</ele><time>2026-03-29T17:55:57.581Z</time></trkpt><trkpt lat="38.9181933" lon="16.2672383"><ele>32.0</ele><time>2026-03-29T17:55:58.58Z</time></trkpt><trkpt lat="38.9182783" lon="16.2671617"><ele>32.0</ele><time>2026-03-29T17:55:59.581Z</time></trkpt><trkpt lat="38.9183517" lon="16.2671167"><ele>32.0</ele><time>2026-03-29T17:56:00.58Z</time></trkpt><trkpt lat="38.9184517" lon="16.26707"><ele>31.833333333333332</ele><time>2026-03-29T17:56:02.58Z</time></trkpt><trkpt lat="38.91852" lon="16.2670317"><ele>31.666666666666664</ele><time>2026-03-29T17:56:04.58Z</time></trkpt><trkpt lat="38.918595" lon="16.2670083"><ele>31.5</ele><time>2026-03-29T17:56:14.58Z</time></trkpt><trkpt lat="38.9186617" lon="16.2669567"><ele>31.333333333333336</ele><time>2026-03-29T17:56:15.58Z</time></trkpt><trkpt lat="38.91873" lon="16.2668817"><ele>31.166666666666668</ele><time>2026-03-29T17:56:16.58Z</time></trkpt><trkpt lat="38.9188067" lon="16.2667817"><ele>31.0</ele><time>2026-03-29T17:56:17.58Z</time></trkpt><trkpt lat="38.918855" lon="16.2666733"><ele>31.0</ele><time>2026-03-29T17:56:18.58Z</time></trkpt><trkpt lat="38.918895" lon="16.2665517"><ele>31.0</ele><time>2026-03-29T17:56:19.58Z</time></trkpt><trkpt lat="38.9189283" lon="16.26641"><ele>31.0</ele><time>2026-03-29T17:56:20.58Z</time></trkpt><trkpt lat="38.9189317" lon="16.2662567"><ele>31.0</ele><time>2026-03-29T17:56:21.58Z</time></trkpt><trkpt lat="38.9189133" lon="16.2660983"><ele>30.25</ele><time>2026-03-29T17:56:22.58Z</time></trkpt><trkpt lat="38.918865" lon="16.2659333"><ele>29.5</ele><time>2026-03-29T17:56:23.58Z</time></trkpt><trkpt lat="38.91879" lon="16.2657733"><ele>28.75</ele><time>2026-03-29T17:56:24.58Z</time></trkpt><trkpt lat="38.9187067" lon="16.2656183"><ele>28.0</ele><time>2026-03-29T17:56:25.58Z</time></trkpt><trkpt lat="38.9186183" lon="16.265455"><ele>27.666666666666668</ele><time>2026-03-29T17:56:26.58Z</time></trkpt><trkpt lat="38.9185183" lon="16.2652867"><ele>27.333333333333336</ele><time>2026-03-29T17:56:27.58Z</time></trkpt><trkpt lat="38.91843" lon="16.2651117"><ele>27.0</ele><time>2026-03-29T17:56:28.58Z</time></trkpt><trkpt lat="38.918345" lon="16.2649433"><ele>27.25</ele><time>2026-03-29T17:56:29.58Z</time></trkpt><trkpt lat="38.9182583" lon="16.26477"><ele>27.5</ele><time>2026-03-29T17:56:30.58Z</time></trkpt><trkpt lat="38.91816" lon="16.2646283"><ele>27.75</ele><time>2026-03-29T17:56:31.58Z</time></trkpt><trkpt lat="38.9180983" lon="16.2644917"><ele>28.0</ele><time>2026-03-29T17:56:32.58Z</time></trkpt><trkpt lat="38.9180367" lon="16.2643483"><ele>28.0</ele><time>2026-03-29T17:56:33.58Z</time></trkpt><trkpt lat="38.9179583" lon="16.2642133"><ele>28.0</ele><time>2026-03-29T17:56:34.58Z</time></trkpt><trkpt lat="38.9178683" lon="16.2640783"><ele>28.0</ele><time>2026-03-29T17:56:35.58Z</time></trkpt><trkpt lat="38.9177433" lon="16.26397"><ele>28.0</ele><time>2026-03-29T17:56:36.58Z</time></trkpt><trkpt lat="38.917595" lon="16.2638967"><ele>27.333333333333336</ele><time>2026-03-29T17:56:37.58Z</time></trkpt><trkpt lat="38.917435" lon="16.2638917"><ele>26.666666666666664</ele><time>2026-03-29T17:56:38.58Z</time></trkpt><trkpt lat="38.917285" lon="16.2639467"><ele>26.0</ele><time>2026-03-29T17:56:39.58Z</time></trkpt><trkpt lat="38.917155" lon="16.2640433"><ele>25.75</ele><time>2026-03-29T17:56:40.58Z</time></trkpt><trkpt lat="38.9170617" lon="16.26417"><ele>25.5</ele><time>2026-03-29T17:56:41.581Z</time></trkpt><trkpt lat="38.9170017" lon="16.2643133"><ele>25.25</ele><time>2026-03-29T17:56:42.58Z</time></trkpt><trkpt lat="38.9169667" lon="16.264485"><ele>25.0</ele><time>2026-03-29T17:56:43.58Z</time></trkpt><trkpt lat="38.916965" lon="16.2646717"><ele>25.25</ele><time>2026-03-29T17:56:44.58Z</time></trkpt><trkpt lat="38.9169683" lon="16.264855"><ele>25.5</ele><time>2026-03-29T17:56:45.58Z</time></trkpt><trkpt lat="38.9169733" lon="16.2650383"><ele>25.75</ele><time>2026-03-29T17:56:46.58Z</time></trkpt><trkpt lat="38.9169667" lon="16.2652333"><ele>26.0</ele><time>2026-03-29T17:56:47.58Z</time></trkpt><trkpt lat="38.916955" lon="16.2654233"><ele>26.0</ele><time>2026-03-29T17:56:48.58Z</time></trkpt><trkpt lat="38.9169217" lon="16.2656083"><ele>26.0</ele><time>2026-03-29T17:56:49.58Z</time></trkpt><trkpt lat="38.91687" lon="16.2657917"><ele>26.0</ele><time>2026-03-29T17:56:50.58Z</time></trkpt><trkpt lat="38.9167917" lon="16.2659567"><ele>26.5</ele><time>2026-03-29T17:56:51.58Z</time></trkpt><trkpt lat="38.9166967" lon="16.2661067"><ele>27.0</ele><time>2026-03-29T17:56:52.58Z</time></trkpt><trkpt lat="38.9166" lon="16.2662483"><ele>27.5</ele><time>2026-03-29T17:56:53.58Z</time></trkpt><trkpt lat="38.9164933" lon="16.2663833"><ele>28.0</ele><time>2026-03-29T17:56:54.58Z</time></trkpt><trkpt lat="38.916385" lon="16.2665117"><ele>28.666666666666668</ele><time>2026-03-29T17:56:55.58Z</time></trkpt><trkpt lat="38.9162533" lon="16.26662"><ele>29.333333333333336</ele><time>2026-03-29T17:56:56.581Z</time></trkpt><trkpt lat="38.91611" lon="16.2667367"><ele>30.0</ele><time>2026-03-29T17:56:57.58Z</time></trkpt><trkpt lat="38.9159533" lon="16.2668533"><ele>29.333333333333336</ele><time>2026-03-29T17:56:58.58Z</time></trkpt><trkpt lat="38.91581" lon="16.2669667"><ele>28.666666666666668</ele><time>2026-03-29T17:56:59.58Z</time></trkpt><trkpt lat="38.9156683" lon="16.267085"><ele>28.0</ele><time>2026-03-29T17:57:00.58Z</time></trkpt><trkpt lat="38.915525" lon="16.2672133"><ele>28.0</ele><time>2026-03-29T17:57:01.58Z</time></trkpt><trkpt lat="38.91537" lon="16.2673417"><ele>28.0</ele><time>2026-03-29T17:57:02.58Z</time></trkpt><trkpt lat="38.9152067" lon="16.2674833"><ele>28.0</ele><time>2026-03-29T17:57:03.58Z</time></trkpt><trkpt lat="38.915045" lon="16.2676267"><ele>27.333333333333336</ele><time>2026-03-29T17:57:04.58Z</time></trkpt><trkpt lat="38.9148883" lon="16.2677717"><ele>26.666666666666664</ele><time>2026-03-29T17:57:05.58Z</time></trkpt><trkpt lat="38.9147267" lon="16.2679217"><ele>26.0</ele><time>2026-03-29T17:57:06.58Z</time></trkpt><trkpt lat="38.9145567" lon="16.2680733"><ele>26.0</ele><time>2026-03-29T17:57:07.58Z</time></trkpt><trkpt lat="38.9143733" lon="16.2682333"><ele>26.0</ele><time>2026-03-29T17:57:08.58Z</time></trkpt><trkpt lat="38.9141983" lon="16.268395"><ele>26.0</ele><time>2026-03-29T17:57:09.58Z</time></trkpt><trkpt lat="38.914015" lon="16.268555"><ele>26.0</ele><time>2026-03-29T17:57:10.58Z</time></trkpt><trkpt lat="38.9138233" lon="16.26873"><ele>26.0</ele><time>2026-03-29T17:57:11.58Z</time></trkpt><trkpt lat="38.9136283" lon="16.2689067"><ele>26.0</ele><time>2026-03-29T17:57:12.58Z</time></trkpt><trkpt lat="38.9134233" lon="16.2690833"><ele>26.0</ele><time>2026-03-29T17:57:13.58Z</time></trkpt><trkpt lat="38.9132" lon="16.2692783"><ele>26.0</ele><time>2026-03-29T17:57:14.58Z</time></trkpt><trkpt lat="38.9129633" lon="16.2694983"><ele>26.0</ele><time>2026-03-29T17:57:15.58Z</time></trkpt><trkpt lat="38.912715" lon="16.26972"><ele>25.0</ele><time>2026-03-29T17:57:16.58Z</time></trkpt><trkpt lat="38.9124383" lon="16.2699583"><ele>24.0</ele><time>2026-03-29T17:57:17.58Z</time></trkpt><trkpt lat="38.912155" lon="16.2702083"><ele>24.0</ele><time>2026-03-29T17:57:18.58Z</time></trkpt><trkpt lat="38.9118383" lon="16.2704783"><ele>24.0</ele><time>2026-03-29T17:57:19.58Z</time></trkpt><trkpt lat="38.9115083" lon="16.2707633"><ele>24.5</ele><time>2026-03-29T17:57:20.58Z</time></trkpt><trkpt lat="38.91118" lon="16.2710567"><ele>25.0</ele><time>2026-03-29T17:57:21.58Z</time></trkpt><trkpt lat="38.91083" lon="16.2713617"><ele>25.0</ele><time>2026-03-29T17:57:22.58Z</time></trkpt><trkpt lat="38.910475" lon="16.2716783"><ele>25.0</ele><time>2026-03-29T17:57:23.58Z</time></trkpt><trkpt lat="38.910115" lon="16.2719917"><ele>25.0</ele><time>2026-03-29T17:57:24.58Z</time></trkpt><trkpt lat="38.9097683" lon="16.2723"><ele>25.0</ele><time>2026-03-29T17:57:25.58Z</time></trkpt><trkpt lat="38.909425" lon="16.2725883"><ele>25.5</ele><time>2026-03-29T17:57:26.58Z</time></trkpt><trkpt lat="38.9090917" lon="16.2728833"><ele>26.0</ele><time>2026-03-29T17:57:27.58Z</time></trkpt><trkpt lat="38.9087517" lon="16.27318"><ele>26.0</ele><time>2026-03-29T17:57:28.58Z</time></trkpt><trkpt lat="38.9084167" lon="16.2734817"><ele>26.0</ele><time>2026-03-29T17:57:29.58Z</time></trkpt><trkpt lat="38.9080667" lon="16.2737933"><ele>26.0</ele><time>2026-03-29T17:57:30.58Z</time></trkpt><trkpt lat="38.9077067" lon="16.274115"><ele>26.0</ele><time>2026-03-29T17:57:31.58Z</time></trkpt><trkpt lat="38.9073433" lon="16.2744383"><ele>26.0</ele><time>2026-03-29T17:57:32.58Z</time></trkpt><trkpt lat="38.9069683" lon="16.2747633"><ele>24.5</ele><time>2026-03-29T17:57:33.58Z</time></trkpt><trkpt lat="38.90661" lon="16.2750767"><ele>23.0</ele><time>2026-03-29T17:57:34.58Z</time></trkpt><trkpt lat="38.9062717" lon="16.2753683"><ele>23.5</ele><time>2026-03-29T17:57:35.58Z</time></trkpt><trkpt lat="38.90596" lon="16.27564"><ele>24.0</ele><time>2026-03-29T17:57:36.58Z</time></trkpt><trkpt lat="38.9056583" lon="16.2759067"><ele>22.5</ele><time>2026-03-29T17:57:37.58Z</time></trkpt><trkpt lat="38.9053517" lon="16.2761633"><ele>21.0</ele><time>2026-03-29T17:57:38.58Z</time></trkpt><trkpt lat="38.9050417" lon="16.2764133"><ele>21.0</ele><time>2026-03-29T17:57:39.58Z</time></trkpt><trkpt lat="38.904735" lon="16.2766533"><ele>21.0</ele><time>2026-03-29T17:57:40.58Z</time></trkpt><trkpt lat="38.9044267" lon="16.2768767"><ele>21.0</ele><time>2026-03-29T17:57:41.58Z</time></trkpt><trkpt lat="38.9041067" lon="16.2770833"><ele>21.0</ele><time>2026-03-29T17:57:42.58Z</time></trkpt><trkpt lat="38.90378" lon="16.2772767"><ele>20.0</ele><time>2026-03-29T17:57:43.58Z</time></trkpt><trkpt lat="38.9034633" lon="16.2774417"><ele>19.0</ele><time>2026-03-29T17:57:44.58Z</time></trkpt><trkpt lat="38.9031417" lon="16.2775983"><ele>19.0</ele><time>2026-03-29T17:57:45.58Z</time></trkpt><trkpt lat="38.9028167" lon="16.2777383"><ele>19.0</ele><time>2026-03-29T17:57:46.58Z</time></trkpt><trkpt lat="38.9024883" lon="16.277855"><ele>19.0</ele><time>2026-03-29T17:57:47.58Z</time></trkpt><trkpt lat="38.9021483" lon="16.277975"><ele>19.0</ele><time>2026-03-29T17:57:48.58Z</time></trkpt><trkpt lat="38.901815" lon="16.2780633"><ele>19.0</ele><time>2026-03-29T17:57:49.58Z</time></trkpt><trkpt lat="38.9014633" lon="16.27814"><ele>19.0</ele><time>2026-03-29T17:57:50.58Z</time></trkpt><trkpt lat="38.90111" lon="16.2782033"><ele>19.5</ele><time>2026-03-29T17:57:51.58Z</time></trkpt><trkpt lat="38.9007583" lon="16.27825"><ele>20.0</ele><time>2026-03-29T17:57:52.58Z</time></trkpt><trkpt lat="38.9004167" lon="16.278295"><ele>20.0</ele><time>2026-03-29T17:57:53.58Z</time></trkpt><trkpt lat="38.90009" lon="16.2783383"><ele>20.0</ele><time>2026-03-29T17:57:54.58Z</time></trkpt><trkpt lat="38.89978" lon="16.2783783"><ele>19.5</ele><time>2026-03-29T17:57:55.58Z</time></trkpt><trkpt lat="38.8994667" lon="16.2784267"><ele>19.0</ele><time>2026-03-29T17:57:56.58Z</time></trkpt><trkpt lat="38.8991583" lon="16.2784683"><ele>18.5</ele><time>2026-03-29T17:57:57.58Z</time></trkpt><trkpt lat="38.898855" lon="16.278515"><ele>18.0</ele><time>2026-03-29T17:57:58.58Z</time></trkpt><trkpt lat="38.898545" lon="16.27856"><ele>19.0</ele><time>2026-03-29T17:57:59.58Z</time></trkpt><trkpt lat="38.8982333" lon="16.2786"><ele>20.0</ele><time>2026-03-29T17:58:00.58Z</time></trkpt><trkpt lat="38.8979183" lon="16.2786433"><ele>20.0</ele><time>2026-03-29T17:58:01.581Z</time></trkpt><trkpt lat="38.8976017" lon="16.2787"><ele>20.0</ele><time>2026-03-29T17:58:02.58Z</time></trkpt><trkpt lat="38.897265" lon="16.2787383"><ele>19.5</ele><time>2026-03-29T17:58:03.58Z</time></trkpt><trkpt lat="38.896925" lon="16.2787883"><ele>19.0</ele><time>2026-03-29T17:58:04.58Z</time></trkpt><trkpt lat="38.8965983" lon="16.2788433"><ele>19.0</ele><time>2026-03-29T17:58:05.58Z</time></trkpt><trkpt lat="38.896255" lon="16.2788917"><ele>19.0</ele><time>2026-03-29T17:58:06.58Z</time></trkpt><trkpt lat="38.8959167" lon="16.27895"><ele>19.0</ele><time>2026-03-29T17:58:07.58Z</time></trkpt><trkpt lat="38.8955683" lon="16.2790067"><ele>19.0</ele><time>2026-03-29T17:58:08.58Z</time></trkpt><trkpt lat="38.89522" lon="16.2790683"><ele>18.5</ele><time>2026-03-29T17:58:09.581Z</time></trkpt><trkpt lat="38.8948667" lon="16.279125"><ele>18.0</ele><time>2026-03-29T17:58:10.582Z</time></trkpt><trkpt lat="38.8945167" lon="16.27918"><ele>18.5</ele><time>2026-03-29T17:58:11.581Z</time></trkpt><trkpt lat="38.8941583" lon="16.2792367"><ele>19.0</ele><time>2026-03-29T17:58:12.581Z</time></trkpt><trkpt lat="38.8938017" lon="16.2792917"><ele>19.0</ele><time>2026-03-29T17:58:13.581Z</time></trkpt><trkpt lat="38.893445" lon="16.2793483"><ele>19.0</ele><time>2026-03-29T17:58:14.581Z</time></trkpt><trkpt lat="38.8930817" lon="16.2794067"><ele>19.5</ele><time>2026-03-29T17:58:15.581Z</time></trkpt><trkpt lat="38.892705" lon="16.2794717"><ele>20.0</ele><time>2026-03-29T17:58:16.581Z</time></trkpt><trkpt lat="38.8923183" lon="16.2795567"><ele>20.0</ele><time>2026-03-29T17:58:17.581Z</time></trkpt><trkpt lat="38.8919233" lon="16.2796267"><ele>20.0</ele><time>2026-03-29T17:58:18.581Z</time></trkpt><trkpt lat="38.89151" lon="16.2796883"><ele>20.0</ele><time>2026-03-29T17:58:19.581Z</time></trkpt><trkpt lat="38.8910833" lon="16.2797467"><ele>20.0</ele><time>2026-03-29T17:58:20.581Z</time></trkpt><trkpt lat="38.8906567" lon="16.2798133"><ele>19.5</ele><time>2026-03-29T17:58:21.581Z</time></trkpt><trkpt lat="38.89023" lon="16.27987"><ele>19.0</ele><time>2026-03-29T17:58:22.581Z</time></trkpt><trkpt lat="38.88979" lon="16.2799383"><ele>19.0</ele><time>2026-03-29T17:58:23.581Z</time></trkpt><trkpt lat="38.8893383" lon="16.2800133"><ele>20.0</ele><time>2026-03-29T17:58:24.581Z</time></trkpt><trkpt lat="38.88889" lon="16.28008"><ele>20.0</ele><time>2026-03-29T17:58:25.581Z</time></trkpt><trkpt lat="38.8884433" lon="16.2801533"><ele>20.0</ele><time>2026-03-29T17:58:26.581Z</time></trkpt><trkpt lat="38.8880283" lon="16.280215"><ele>20.0</ele><time>2026-03-29T17:58:27.581Z</time></trkpt><trkpt lat="38.8876467" lon="16.2802667"><ele>19.5</ele><time>2026-03-29T17:58:28.581Z</time></trkpt><trkpt lat="38.8872817" lon="16.2803233"><ele>19.0</ele><time>2026-03-29T17:58:29.581Z</time></trkpt><trkpt lat="38.8869183" lon="16.2803767"><ele>20.0</ele><time>2026-03-29T17:58:30.581Z</time></trkpt><trkpt lat="38.8865567" lon="16.2804317"><ele>21.0</ele><time>2026-03-29T17:58:31.581Z</time></trkpt><trkpt lat="38.8862" lon="16.2804883"><ele>20.0</ele><time>2026-03-29T17:58:32.581Z</time></trkpt><trkpt lat="38.8858283" lon="16.2805433"><ele>19.0</ele><time>2026-03-29T17:58:33.581Z</time></trkpt><trkpt lat="38.88545" lon="16.2806083"><ele>19.0</ele><time>2026-03-29T17:58:34.581Z</time></trkpt><trkpt lat="38.8850733" lon="16.2806583"><ele>19.0</ele><time>2026-03-29T17:58:35.581Z</time></trkpt><trkpt lat="38.8847" lon="16.2807233"><ele>19.0</ele><time>2026-03-29T17:58:36.581Z</time></trkpt><trkpt lat="38.8843233" lon="16.2807833"><ele>19.0</ele><time>2026-03-29T17:58:37.581Z</time></trkpt><trkpt lat="38.883945" lon="16.2808367"><ele>18.5</ele><time>2026-03-29T17:58:38.581Z</time></trkpt><trkpt lat="38.8835767" lon="16.2808983"><ele>18.0</ele><time>2026-03-29T17:58:39.581Z</time></trkpt><trkpt lat="38.8832233" lon="16.280955"><ele>18.5</ele><time>2026-03-29T17:58:40.581Z</time></trkpt><trkpt lat="38.8828867" lon="16.2810033"><ele>19.0</ele><time>2026-03-29T17:58:41.581Z</time></trkpt><trkpt lat="38.88254" lon="16.2810517"><ele>19.0</ele><time>2026-03-29T17:58:42.581Z</time></trkpt><trkpt lat="38.882195" lon="16.2810983"><ele>19.0</ele><time>2026-03-29T17:58:43.581Z</time></trkpt><trkpt lat="38.8818483" lon="16.2811483"><ele>19.5</ele><time>2026-03-29T17:58:44.581Z</time></trkpt><trkpt lat="38.8815033" lon="16.2812"><ele>20.0</ele><time>2026-03-29T17:58:45.581Z</time></trkpt><trkpt lat="38.8811517" lon="16.28125"><ele>19.5</ele><time>2026-03-29T17:58:46.581Z</time></trkpt><trkpt lat="38.8807883" lon="16.2812917"><ele>19.0</ele><time>2026-03-29T17:58:47.581Z</time></trkpt><trkpt lat="38.8804083" lon="16.2813233"><ele>19.0</ele><time>2026-03-29T17:58:48.581Z</time></trkpt><trkpt lat="38.8800133" lon="16.2813517"><ele>19.0</ele><time>2026-03-29T17:58:49.581Z</time></trkpt><trkpt lat="38.8796017" lon="16.28137"><ele>19.5</ele><time>2026-03-29T17:58:50.581Z</time></trkpt><trkpt lat="38.8792017" lon="16.281385"><ele>20.0</ele><time>2026-03-29T17:58:51.581Z</time></trkpt><trkpt lat="38.8788317" lon="16.2813983"><ele>20.0</ele><time>2026-03-29T17:58:52.582Z</time></trkpt><trkpt lat="38.8784717" lon="16.2814083"><ele>20.0</ele><time>2026-03-29T17:58:53.581Z</time></trkpt><trkpt lat="38.8781133" lon="16.2814117"><ele>20.0</ele><time>2026-03-29T17:58:54.581Z</time></trkpt><trkpt lat="38.877745" lon="16.2814167"><ele>20.0</ele><time>2026-03-29T17:58:55.581Z</time></trkpt><trkpt lat="38.8773667" lon="16.281425"><ele>20.0</ele><time>2026-03-29T17:58:56.581Z</time></trkpt><trkpt lat="38.8769667" lon="16.28143"><ele>20.0</ele><time>2026-03-29T17:58:57.581Z</time></trkpt><trkpt lat="38.8765567" lon="16.2814483"><ele>20.0</ele><time>2026-03-29T17:58:58.581Z</time></trkpt><trkpt lat="38.8761367" lon="16.2814533"><ele>20.0</ele><time>2026-03-29T17:58:59.581Z</time></trkpt><trkpt lat="38.8757017" lon="16.2814617"><ele>19.5</ele><time>2026-03-29T17:59:00.581Z</time></trkpt><trkpt lat="38.8752733" lon="16.2814767"><ele>19.0</ele><time>2026-03-29T17:59:01.581Z</time></trkpt><trkpt lat="38.874835" lon="16.2814933"><ele>23.0</ele><time>2026-03-29T17:59:02.581Z</time></trkpt><trkpt lat="38.8743933" lon="16.2814983"><ele>27.0</ele><time>2026-03-29T17:59:03.581Z</time></trkpt><trkpt lat="38.8739417" lon="16.2815083"><ele>27.0</ele><time>2026-03-29T17:59:04.581Z</time></trkpt><trkpt lat="38.873495" lon="16.2815233"><ele>27.0</ele><time>2026-03-29T17:59:05.581Z</time></trkpt><trkpt lat="38.873065" lon="16.28154"><ele>27.0</ele><time>2026-03-29T17:59:06.581Z</time></trkpt><trkpt lat="38.8726667" lon="16.2815417"><ele>27.0</ele><time>2026-03-29T17:59:07.581Z</time></trkpt><trkpt lat="38.8722967" lon="16.281555"><ele>28.0</ele><time>2026-03-29T17:59:08.581Z</time></trkpt><trkpt lat="38.87194" lon="16.2815567"><ele>29.0</ele><time>2026-03-29T17:59:09.581Z</time></trkpt><trkpt lat="38.8716083" lon="16.281565"><ele>29.5</ele><time>2026-03-29T17:59:10.581Z</time></trkpt><trkpt lat="38.87127" lon="16.2815717"><ele>30.0</ele><time>2026-03-29T17:59:11.581Z</time></trkpt><trkpt lat="38.8709433" lon="16.2815767"><ele>31.5</ele><time>2026-03-29T17:59:12.581Z</time></trkpt><trkpt lat="38.8706" lon="16.2815667"><ele>33.0</ele><time>2026-03-29T17:59:13.581Z</time></trkpt><trkpt lat="38.8702467" lon="16.28154"><ele>33.0</ele><time>2026-03-29T17:59:14.581Z</time></trkpt><trkpt lat="38.8698817" lon="16.2814833"><ele>33.0</ele><time>2026-03-29T17:59:15.581Z</time></trkpt><trkpt lat="38.8695133" lon="16.2813983"><ele>32.0</ele><time>2026-03-29T17:59:16.581Z</time></trkpt><trkpt lat="38.86916" lon="16.281295"><ele>31.0</ele><time>2026-03-29T17:59:17.581Z</time></trkpt><trkpt lat="38.8688033" lon="16.2811667"><ele>31.0</ele><time>2026-03-29T17:59:18.581Z</time></trkpt><trkpt lat="38.8684533" lon="16.2810067"><ele>31.0</ele><time>2026-03-29T17:59:19.581Z</time></trkpt><trkpt lat="38.8681167" lon="16.280825"><ele>30.5</ele><time>2026-03-29T17:59:20.581Z</time></trkpt><trkpt lat="38.8678033" lon="16.28062"><ele>30.0</ele><time>2026-03-29T17:59:21.581Z</time></trkpt><trkpt lat="38.8675033" lon="16.2804067"><ele>30.0</ele><time>2026-03-29T17:59:22.581Z</time></trkpt><trkpt lat="38.8672017" lon="16.2801683"><ele>30.0</ele><time>2026-03-29T17:59:23.581Z</time></trkpt><trkpt lat="38.8669033" lon="16.2799067"><ele>30.5</ele><time>2026-03-29T17:59:24.581Z</time></trkpt><trkpt lat="38.86662" lon="16.2796367"><ele>31.0</ele><time>2026-03-29T17:59:25.581Z</time></trkpt><trkpt lat="38.8663383" lon="16.2793533"><ele>31.0</ele><time>2026-03-29T17:59:26.581Z</time></trkpt><trkpt lat="38.8660733" lon="16.2790567"><ele>31.0</ele><time>2026-03-29T17:59:27.581Z</time></trkpt><trkpt lat="38.86581" lon="16.278765"><ele>30.5</ele><time>2026-03-29T17:59:28.581Z</time></trkpt><trkpt lat="38.8655517" lon="16.27849"><ele>30.0</ele><time>2026-03-29T17:59:29.581Z</time></trkpt><trkpt lat="38.8652883" lon="16.2782183"><ele>29.5</ele><time>2026-03-29T17:59:30.581Z</time></trkpt><trkpt lat="38.8650217" lon="16.2779517"><ele>29.0</ele><time>2026-03-29T17:59:31.581Z</time></trkpt><trkpt lat="38.8647633" lon="16.2776917"><ele>29.0</ele><time>2026-03-29T17:59:32.581Z</time></trkpt><trkpt lat="38.8645117" lon="16.2774317"><ele>29.0</ele><time>2026-03-29T17:59:33.581Z</time></trkpt><trkpt lat="38.864245" lon="16.2771967"><ele>27.5</ele><time>2026-03-29T17:59:34.581Z</time></trkpt><trkpt lat="38.8639717" lon="16.2769683"><ele>26.0</ele><time>2026-03-29T17:59:35.581Z</time></trkpt><trkpt lat="38.8636933" lon="16.276735"><ele>25.5</ele><time>2026-03-29T17:59:36.581Z</time></trkpt><trkpt lat="38.8633917" lon="16.2765217"><ele>25.0</ele><time>2026-03-29T17:59:37.581Z</time></trkpt><trkpt lat="38.8630817" lon="16.276315"><ele>24.5</ele><time>2026-03-29T17:59:38.581Z</time></trkpt><trkpt lat="38.862765" lon="16.27613"><ele>24.0</ele><time>2026-03-29T17:59:39.581Z</time></trkpt><trkpt lat="38.8624417" lon="16.2759567"><ele>22.5</ele><time>2026-03-29T17:59:40.581Z</time></trkpt><trkpt lat="38.86211" lon="16.2758033"><ele>21.0</ele><time>2026-03-29T17:59:41.581Z</time></trkpt><trkpt lat="38.8617733" lon="16.2756633"><ele>18.5</ele><time>2026-03-29T17:59:42.581Z</time></trkpt><trkpt lat="38.8614267" lon="16.275535"><ele>16.0</ele><time>2026-03-29T17:59:43.581Z</time></trkpt><trkpt lat="38.861085" lon="16.27543"><ele>16.5</ele><time>2026-03-29T17:59:44.581Z</time></trkpt><trkpt lat="38.86075" lon="16.275335"><ele>17.0</ele><time>2026-03-29T17:59:45.582Z</time></trkpt><trkpt lat="38.860415" lon="16.27525"><ele>18.0</ele><time>2026-03-29T17:59:46.581Z</time></trkpt><trkpt lat="38.8600867" lon="16.2751667"><ele>19.0</ele><time>2026-03-29T17:59:47.581Z</time></trkpt><trkpt lat="38.859765" lon="16.2750867"><ele>19.0</ele><time>2026-03-29T17:59:48.581Z</time></trkpt><trkpt lat="38.8594567" lon="16.2750033"><ele>19.0</ele><time>2026-03-29T17:59:49.581Z</time></trkpt><trkpt lat="38.8591567" lon="16.2749167"><ele>18.0</ele><time>2026-03-29T17:59:50.581Z</time></trkpt><trkpt lat="38.8588733" lon="16.2748233"><ele>17.0</ele><time>2026-03-29T17:59:51.581Z</time></trkpt><trkpt lat="38.8585917" lon="16.2747267"><ele>17.0</ele><time>2026-03-29T17:59:52.581Z</time></trkpt><trkpt lat="38.8583067" lon="16.27462"><ele>17.0</ele><time>2026-03-29T17:59:53.581Z</time></trkpt><trkpt lat="38.8580067" lon="16.2745067"><ele>17.0</ele><time>2026-03-29T17:59:54.581Z</time></trkpt><trkpt lat="38.8576917" lon="16.27437"><ele>17.0</ele><time>2026-03-29T17:59:55.581Z</time></trkpt><trkpt lat="38.8573817" lon="16.2742217"><ele>17.0</ele><time>2026-03-29T17:59:56.581Z</time></trkpt><trkpt lat="38.857075" lon="16.2740567"><ele>17.0</ele><time>2026-03-29T17:59:57.581Z</time></trkpt><trkpt lat="38.8567667" lon="16.273875"><ele>17.0</ele><time>2026-03-29T17:59:58.581Z</time></trkpt><trkpt lat="38.856475" lon="16.273675"><ele>17.0</ele><time>2026-03-29T17:59:59.581Z</time></trkpt><trkpt lat="38.8561883" lon="16.273465"><ele>18.0</ele><time>2026-03-29T18:00:00.581Z</time></trkpt><trkpt lat="38.8559117" lon="16.273245"><ele>19.0</ele><time>2026-03-29T18:00:01.581Z</time></trkpt><trkpt lat="38.8556333" lon="16.2730233"><ele>19.5</ele><time>2026-03-29T18:00:02.582Z</time></trkpt><trkpt lat="38.8553483" lon="16.272795"><ele>20.0</ele><time>2026-03-29T18:00:03.581Z</time></trkpt><trkpt lat="38.8550767" lon="16.2725667"><ele>20.5</ele><time>2026-03-29T18:00:04.581Z</time></trkpt><trkpt lat="38.8547983" lon="16.2723483"><ele>21.0</ele><time>2026-03-29T18:00:05.581Z</time></trkpt><trkpt lat="38.854525" lon="16.27212"><ele>21.0</ele><time>2026-03-29T18:00:06.582Z</time></trkpt><trkpt lat="38.8542333" lon="16.2718883"><ele>21.0</ele><time>2026-03-29T18:00:07.581Z</time></trkpt><trkpt lat="38.8539167" lon="16.27164"><ele>21.0</ele><time>2026-03-29T18:00:08.581Z</time></trkpt><trkpt lat="38.8535933" lon="16.2713883"><ele>21.0</ele><time>2026-03-29T18:00:09.581Z</time></trkpt><trkpt lat="38.8532533" lon="16.2711183"><ele>21.0</ele><time>2026-03-29T18:00:10.581Z</time></trkpt><trkpt lat="38.852905" lon="16.2708483"><ele>21.0</ele><time>2026-03-29T18:00:11.582Z</time></trkpt><trkpt lat="38.852545" lon="16.2705733"><ele>22.0</ele><time>2026-03-29T18:00:12.581Z</time></trkpt><trkpt lat="38.8521833" lon="16.270275"><ele>23.0</ele><time>2026-03-29T18:00:13.581Z</time></trkpt><trkpt lat="38.8518233" lon="16.269975"><ele>21.5</ele><time>2026-03-29T18:00:14.581Z</time></trkpt><trkpt lat="38.85145" lon="16.2696683"><ele>20.0</ele><time>2026-03-29T18:00:15.581Z</time></trkpt><trkpt lat="38.851065" lon="16.2693633"><ele>23.0</ele><time>2026-03-29T18:00:16.581Z</time></trkpt><trkpt lat="38.850675" lon="16.2690433"><ele>21.0</ele><time>2026-03-29T18:00:17.581Z</time></trkpt><trkpt lat="38.8502767" lon="16.26873"><ele>25.0</ele><time>2026-03-29T18:00:18.581Z</time></trkpt><trkpt lat="38.8498883" lon="16.2684133"><ele>24.5</ele><time>2026-03-29T18:00:19.581Z</time></trkpt><trkpt lat="38.849515" lon="16.2681017"><ele>24.0</ele><time>2026-03-29T18:00:20.581Z</time></trkpt><trkpt lat="38.849155" lon="16.267805"><ele>24.0</ele><time>2026-03-29T18:00:21.581Z</time></trkpt><trkpt lat="38.8488217" lon="16.2675267"><ele>24.0</ele><time>2026-03-29T18:00:22.581Z</time></trkpt><trkpt lat="38.8485083" lon="16.2672583"><ele>24.5</ele><time>2026-03-29T18:00:23.581Z</time></trkpt><trkpt lat="38.8482067" lon="16.2670067"><ele>25.0</ele><time>2026-03-29T18:00:24.581Z</time></trkpt><trkpt lat="38.8479017" lon="16.2667667"><ele>25.0</ele><time>2026-03-29T18:00:25.581Z</time></trkpt><trkpt lat="38.8476067" lon="16.2665217"><ele>25.0</ele><time>2026-03-29T18:00:26.581Z</time></trkpt><trkpt lat="38.8473067" lon="16.26628"><ele>25.5</ele><time>2026-03-29T18:00:27.581Z</time></trkpt><trkpt lat="38.8470017" lon="16.2660383"><ele>26.0</ele><time>2026-03-29T18:00:28.581Z</time></trkpt><trkpt lat="38.8466983" lon="16.2657917"><ele>27.0</ele><time>2026-03-29T18:00:29.581Z</time></trkpt><trkpt lat="38.8463883" lon="16.2655517"><ele>28.0</ele><time>2026-03-29T18:00:30.581Z</time></trkpt><trkpt lat="38.8460883" lon="16.2653133"><ele>27.5</ele><time>2026-03-29T18:00:31.581Z</time></trkpt><trkpt lat="38.8457783" lon="16.2650983"><ele>27.0</ele><time>2026-03-29T18:00:32.581Z</time></trkpt><trkpt lat="38.845475" lon="16.2648833"><ele>27.0</ele><time>2026-03-29T18:00:33.581Z</time></trkpt><trkpt lat="38.8451783" lon="16.2646867"><ele>27.0</ele><time>2026-03-29T18:00:34.581Z</time></trkpt><trkpt lat="38.8448733" lon="16.2644933"><ele>27.5</ele><time>2026-03-29T18:00:35.581Z</time></trkpt><trkpt lat="38.8445783" lon="16.2643167"><ele>28.0</ele><time>2026-03-29T18:00:36.581Z</time></trkpt><trkpt lat="38.8442783" lon="16.2641517"><ele>28.0</ele><time>2026-03-29T18:00:37.581Z</time></trkpt><trkpt lat="38.8439917" lon="16.2639867"><ele>28.0</ele><time>2026-03-29T18:00:38.582Z</time></trkpt><trkpt lat="38.8437083" lon="16.2638417"><ele>28.5</ele><time>2026-03-29T18:00:39.581Z</time></trkpt><trkpt lat="38.8434233" lon="16.2637033"><ele>29.0</ele><time>2026-03-29T18:00:40.581Z</time></trkpt><trkpt lat="38.8431467" lon="16.2635633"><ele>29.0</ele><time>2026-03-29T18:00:41.581Z</time></trkpt><trkpt lat="38.8428567" lon="16.2634217"><ele>29.0</ele><time>2026-03-29T18:00:42.581Z</time></trkpt><trkpt lat="38.842565" lon="16.2632783"><ele>29.5</ele><time>2026-03-29T18:00:43.581Z</time></trkpt><trkpt lat="38.8422583" lon="16.263135"><ele>30.0</ele><time>2026-03-29T18:00:44.582Z</time></trkpt><trkpt lat="38.841945" lon="16.2629917"><ele>31.0</ele><time>2026-03-29T18:00:45.581Z</time></trkpt><trkpt lat="38.841635" lon="16.2628433"><ele>32.0</ele><time>2026-03-29T18:00:46.581Z</time></trkpt><trkpt lat="38.8413267" lon="16.2626767"><ele>32.0</ele><time>2026-03-29T18:00:47.581Z</time></trkpt><trkpt lat="38.8410133" lon="16.2625117"><ele>32.0</ele><time>2026-03-29T18:00:48.582Z</time></trkpt><trkpt lat="38.8407017" lon="16.2623233"><ele>31.0</ele><time>2026-03-29T18:00:49.581Z</time></trkpt><trkpt lat="38.840365" lon="16.2621283"><ele>30.0</ele><time>2026-03-29T18:00:50.581Z</time></trkpt><trkpt lat="38.840015" lon="16.2619233"><ele>32.0</ele><time>2026-03-29T18:00:51.581Z</time></trkpt><trkpt lat="38.8396733" lon="16.2616933"><ele>34.0</ele><time>2026-03-29T18:00:52.581Z</time></trkpt><trkpt lat="38.8393233" lon="16.2614483"><ele>33.0</ele><time>2026-03-29T18:00:53.581Z</time></trkpt><trkpt lat="38.83897" lon="16.26119"><ele>32.0</ele><time>2026-03-29T18:00:54.581Z</time></trkpt><trkpt lat="38.838625" lon="16.2609233"><ele>32.0</ele><time>2026-03-29T18:00:55.582Z</time></trkpt><trkpt lat="38.838275" lon="16.2606517"><ele>32.0</ele><time>2026-03-29T18:00:56.581Z</time></trkpt><trkpt lat="38.83795" lon="16.260365"><ele>31.5</ele><time>2026-03-29T18:00:57.581Z</time></trkpt><trkpt lat="38.8376233" lon="16.2600917"><ele>31.0</ele><time>2026-03-29T18:00:58.581Z</time></trkpt><trkpt lat="38.83733" lon="16.2598283"><ele>30.0</ele><time>2026-03-29T18:00:59.581Z</time></trkpt><trkpt lat="38.8370467" lon="16.259585"><ele>29.0</ele><time>2026-03-29T18:01:00.581Z</time></trkpt><trkpt lat="38.8367867" lon="16.2593583"><ele>29.0</ele><time>2026-03-29T18:01:01.581Z</time></trkpt><trkpt lat="38.8365233" lon="16.2591233"><ele>29.0</ele><time>2026-03-29T18:01:02.581Z</time></trkpt><trkpt lat="38.83626" lon="16.2588983"><ele>29.0</ele><time>2026-03-29T18:01:03.582Z</time></trkpt><trkpt lat="38.8359783" lon="16.2586717"><ele>29.0</ele><time>2026-03-29T18:01:04.581Z</time></trkpt><trkpt lat="38.83568" lon="16.2584467"><ele>29.0</ele><time>2026-03-29T18:01:05.581Z</time></trkpt><trkpt lat="38.8353833" lon="16.2582233"><ele>29.0</ele><time>2026-03-29T18:01:06.581Z</time></trkpt><trkpt lat="38.835075" lon="16.258005"><ele>29.0</ele><time>2026-03-29T18:01:07.581Z</time></trkpt><trkpt lat="38.8347383" lon="16.2577983"><ele>29.0</ele><time>2026-03-29T18:01:08.581Z</time></trkpt><trkpt lat="38.8343967" lon="16.25758"><ele>29.0</ele><time>2026-03-29T18:01:09.581Z</time></trkpt><trkpt lat="38.8340283" lon="16.2573417"><ele>29.0</ele><time>2026-03-29T18:01:10.581Z</time></trkpt><trkpt lat="38.8336717" lon="16.25709"><ele>27.5</ele><time>2026-03-29T18:01:11.581Z</time></trkpt><trkpt lat="38.8333067" lon="16.256825"><ele>26.0</ele><time>2026-03-29T18:01:12.581Z</time></trkpt><trkpt lat="38.8329283" lon="16.2565733"><ele>26.0</ele><time>2026-03-29T18:01:13.581Z</time></trkpt><trkpt lat="38.83254" lon="16.2563117"><ele>26.0</ele><time>2026-03-29T18:01:14.581Z</time></trkpt><trkpt lat="38.83214" lon="16.2560417"><ele>29.0</ele><time>2026-03-29T18:01:15.581Z</time></trkpt><trkpt lat="38.8317333" lon="16.2557733"><ele>25.0</ele><time>2026-03-29T18:01:16.581Z</time></trkpt><trkpt lat="38.83132" lon="16.2554967"><ele>26.0</ele><time>2026-03-29T18:01:17.581Z</time></trkpt><trkpt lat="38.8309217" lon="16.2552167"><ele>26.0</ele><time>2026-03-29T18:01:18.581Z</time></trkpt><trkpt lat="38.83052" lon="16.2549517"><ele>25.5</ele><time>2026-03-29T18:01:19.581Z</time></trkpt><trkpt lat="38.8301417" lon="16.2546917"><ele>25.0</ele><time>2026-03-29T18:01:20.581Z</time></trkpt><trkpt lat="38.8297733" lon="16.2544417"><ele>25.0</ele><time>2026-03-29T18:01:21.581Z</time></trkpt><trkpt lat="38.82942" lon="16.2541867"><ele>25.0</ele><time>2026-03-29T18:01:22.581Z</time></trkpt><trkpt lat="38.829065" lon="16.2539333"><ele>24.0</ele><time>2026-03-29T18:01:23.581Z</time></trkpt><trkpt lat="38.8287283" lon="16.2536833"><ele>23.0</ele><time>2026-03-29T18:01:24.581Z</time></trkpt><trkpt lat="38.8283983" lon="16.2534317"><ele>23.0</ele><time>2026-03-29T18:01:25.581Z</time></trkpt><trkpt lat="38.828065" lon="16.25317"><ele>23.0</ele><time>2026-03-29T18:01:26.581Z</time></trkpt><trkpt lat="38.8277333" lon="16.2529017"><ele>24.0</ele><time>2026-03-29T18:01:27.581Z</time></trkpt><trkpt lat="38.8274" lon="16.252635"><ele>25.0</ele><time>2026-03-29T18:01:28.581Z</time></trkpt><trkpt lat="38.827075" lon="16.2523533"><ele>23.0</ele><time>2026-03-29T18:01:29.581Z</time></trkpt><trkpt lat="38.8267533" lon="16.25207"><ele>21.0</ele><time>2026-03-29T18:01:30.581Z</time></trkpt><trkpt lat="38.82644" lon="16.2517667"><ele>21.0</ele><time>2026-03-29T18:01:31.581Z</time></trkpt><trkpt lat="38.826125" lon="16.25146"><ele>21.0</ele><time>2026-03-29T18:01:32.581Z</time></trkpt><trkpt lat="38.8258333" lon="16.2511517"><ele>20.0</ele><time>2026-03-29T18:01:33.581Z</time></trkpt><trkpt lat="38.8255583" lon="16.25083"><ele>19.0</ele><time>2026-03-29T18:01:34.581Z</time></trkpt><trkpt lat="38.8252933" lon="16.2505067"><ele>19.0</ele><time>2026-03-29T18:01:35.581Z</time></trkpt><trkpt lat="38.8250367" lon="16.2501767"><ele>19.0</ele><time>2026-03-29T18:01:36.581Z</time></trkpt><trkpt lat="38.8247833" lon="16.24983"><ele>18.5</ele><time>2026-03-29T18:01:37.581Z</time></trkpt><trkpt lat="38.8245367" lon="16.249475"><ele>18.0</ele><time>2026-03-29T18:01:38.581Z</time></trkpt><trkpt lat="38.8243033" lon="16.2491033"><ele>18.5</ele><time>2026-03-29T18:01:39.581Z</time></trkpt><trkpt lat="38.8240817" lon="16.2487217"><ele>19.0</ele><time>2026-03-29T18:01:40.581Z</time></trkpt><trkpt lat="38.8238717" lon="16.2483367"><ele>19.0</ele><time>2026-03-29T18:01:41.581Z</time></trkpt><trkpt lat="38.8236633" lon="16.2479433"><ele>19.0</ele><time>2026-03-29T18:01:42.581Z</time></trkpt><trkpt lat="38.8234633" lon="16.2475383"><ele>19.5</ele><time>2026-03-29T18:01:43.581Z</time></trkpt><trkpt lat="38.82326" lon="16.2471283"><ele>20.0</ele><time>2026-03-29T18:01:44.581Z</time></trkpt><trkpt lat="38.8230783" lon="16.2467117"><ele>20.5</ele><time>2026-03-29T18:01:45.581Z</time></trkpt><trkpt lat="38.8229017" lon="16.2462833"><ele>21.0</ele><time>2026-03-29T18:01:46.581Z</time></trkpt><trkpt lat="38.8227217" lon="16.245865"><ele>20.5</ele><time>2026-03-29T18:01:47.581Z</time></trkpt><trkpt lat="38.822545" lon="16.2454417"><ele>20.0</ele><time>2026-03-29T18:01:48.581Z</time></trkpt><trkpt lat="38.8223633" lon="16.245015"><ele>20.0</ele><time>2026-03-29T18:01:49.581Z</time></trkpt><trkpt lat="38.8221683" lon="16.2445783"><ele>20.0</ele><time>2026-03-29T18:01:50.581Z</time></trkpt><trkpt lat="38.8219833" lon="16.2441567"><ele>20.0</ele><time>2026-03-29T18:01:51.581Z</time></trkpt><trkpt lat="38.8218267" lon="16.24373"><ele>20.0</ele><time>2026-03-29T18:01:52.581Z</time></trkpt><trkpt lat="38.8216767" lon="16.2433167"><ele>21.0</ele><time>2026-03-29T18:01:53.582Z</time></trkpt><trkpt lat="38.8215083" lon="16.2429083"><ele>22.0</ele><time>2026-03-29T18:01:54.581Z</time></trkpt><trkpt lat="38.8213333" lon="16.2425083"><ele>21.0</ele><time>2026-03-29T18:01:55.581Z</time></trkpt><trkpt lat="38.8211633" lon="16.2421217"><ele>20.0</ele><time>2026-03-29T18:01:56.581Z</time></trkpt><trkpt lat="38.8209817" lon="16.2417417"><ele>19.5</ele><time>2026-03-29T18:01:57.581Z</time></trkpt><trkpt lat="38.8207783" lon="16.241355"><ele>19.0</ele><time>2026-03-29T18:01:58.581Z</time></trkpt><trkpt lat="38.8205717" lon="16.2409633"><ele>19.0</ele><time>2026-03-29T18:01:59.581Z</time></trkpt><trkpt lat="38.82035" lon="16.2405917"><ele>19.0</ele><time>2026-03-29T18:02:00.581Z</time></trkpt><trkpt lat="38.8201183" lon="16.2402233"><ele>17.5</ele><time>2026-03-29T18:02:01.581Z</time></trkpt><trkpt lat="38.81987" lon="16.2398417"><ele>16.0</ele><time>2026-03-29T18:02:02.581Z</time></trkpt><trkpt lat="38.8195817" lon="16.2394717"><ele>15.0</ele><time>2026-03-29T18:02:03.581Z</time></trkpt><trkpt lat="38.8192917" lon="16.2390917"><ele>14.0</ele><time>2026-03-29T18:02:04.582Z</time></trkpt><trkpt lat="38.818995" lon="16.23874"><ele>14.0</ele><time>2026-03-29T18:02:05.581Z</time></trkpt><trkpt lat="38.8186967" lon="16.2383933"><ele>14.0</ele><time>2026-03-29T18:02:06.581Z</time></trkpt><trkpt lat="38.8183883" lon="16.2380567"><ele>15.5</ele><time>2026-03-29T18:02:07.581Z</time></trkpt><trkpt lat="38.8180767" lon="16.23775"><ele>17.0</ele><time>2026-03-29T18:02:08.581Z</time></trkpt><trkpt lat="38.8177567" lon="16.237465"><ele>17.5</ele><time>2026-03-29T18:02:09.581Z</time></trkpt><trkpt lat="38.817425" lon="16.2371767"><ele>18.0</ele><time>2026-03-29T18:02:10.581Z</time></trkpt><trkpt lat="38.8170967" lon="16.2369133"><ele>19.5</ele><time>2026-03-29T18:02:11.581Z</time></trkpt><trkpt lat="38.8167583" lon="16.236665"><ele>21.0</ele><time>2026-03-29T18:02:12.581Z</time></trkpt><trkpt lat="38.816415" lon="16.2364283"><ele>20.0</ele><time>2026-03-29T18:02:13.581Z</time></trkpt><trkpt lat="38.8160583" lon="16.2362"><ele>19.0</ele><time>2026-03-29T18:02:14.581Z</time></trkpt><trkpt lat="38.815695" lon="16.235985"><ele>19.0</ele><time>2026-03-29T18:02:15.581Z</time></trkpt><trkpt lat="38.8153233" lon="16.2357717"><ele>19.0</ele><time>2026-03-29T18:02:16.581Z</time></trkpt><trkpt lat="38.8149417" lon="16.23557"><ele>18.5</ele><time>2026-03-29T18:02:17.581Z</time></trkpt><trkpt lat="38.8145567" lon="16.2353733"><ele>18.0</ele><time>2026-03-29T18:02:18.581Z</time></trkpt><trkpt lat="38.81417" lon="16.23519"><ele>18.0</ele><time>2026-03-29T18:02:19.582Z</time></trkpt><trkpt lat="38.813765" lon="16.2350117"><ele>18.0</ele><time>2026-03-29T18:02:20.581Z</time></trkpt><trkpt lat="38.8133683" lon="16.2348383"><ele>15.5</ele><time>2026-03-29T18:02:21.581Z</time></trkpt><trkpt lat="38.8129617" lon="16.23466"><ele>13.0</ele><time>2026-03-29T18:02:22.581Z</time></trkpt><trkpt lat="38.8125467" lon="16.234475"><ele>13.0</ele><time>2026-03-29T18:02:23.581Z</time></trkpt><trkpt lat="38.8121367" lon="16.2342867"><ele>13.0</ele><time>2026-03-29T18:02:24.581Z</time></trkpt><trkpt lat="38.8117533" lon="16.2341117"><ele>12.5</ele><time>2026-03-29T18:02:25.581Z</time></trkpt><trkpt lat="38.8113967" lon="16.2339417"><ele>12.0</ele><time>2026-03-29T18:02:26.581Z</time></trkpt><trkpt lat="38.8110617" lon="16.2337833"><ele>14.0</ele><time>2026-03-29T18:02:27.581Z</time></trkpt><trkpt lat="38.8107233" lon="16.2336267"><ele>16.0</ele><time>2026-03-29T18:02:28.581Z</time></trkpt><trkpt lat="38.8104133" lon="16.2334817"><ele>16.0</ele><time>2026-03-29T18:02:29.581Z</time></trkpt><trkpt lat="38.8101167" lon="16.233345"><ele>16.0</ele><time>2026-03-29T18:02:30.581Z</time></trkpt><trkpt lat="38.8098133" lon="16.2332067"><ele>14.5</ele><time>2026-03-29T18:02:31.581Z</time></trkpt><trkpt lat="38.8095083" lon="16.23307"><ele>13.0</ele><time>2026-03-29T18:02:32.581Z</time></trkpt><trkpt lat="38.8092033" lon="16.2329267"><ele>13.0</ele><time>2026-03-29T18:02:33.581Z</time></trkpt><trkpt lat="38.808875" lon="16.2327867"><ele>13.0</ele><time>2026-03-29T18:02:34.581Z</time></trkpt><trkpt lat="38.8085483" lon="16.2326483"><ele>15.0</ele><time>2026-03-29T18:02:35.581Z</time></trkpt><trkpt lat="38.80824" lon="16.2325117"><ele>17.0</ele><time>2026-03-29T18:02:36.581Z</time></trkpt><trkpt lat="38.8079267" lon="16.2323717"><ele>15.5</ele><time>2026-03-29T18:02:37.581Z</time></trkpt><trkpt lat="38.8076217" lon="16.2322367"><ele>14.0</ele><time>2026-03-29T18:02:38.581Z</time></trkpt><trkpt lat="38.807325" lon="16.2320967"><ele>14.0</ele><time>2026-03-29T18:02:39.581Z</time></trkpt><trkpt lat="38.80702" lon="16.2319667"><ele>14.0</ele><time>2026-03-29T18:02:40.581Z</time></trkpt><trkpt lat="38.80672" lon="16.2318267"><ele>16.5</ele><time>2026-03-29T18:02:41.582Z</time></trkpt><trkpt lat="38.80642" lon="16.231685"><ele>19.0</ele><time>2026-03-29T18:02:42.581Z</time></trkpt><trkpt lat="38.8061317" lon="16.231555"><ele>17.5</ele><time>2026-03-29T18:02:43.581Z</time></trkpt><trkpt lat="38.8058317" lon="16.231415"><ele>16.0</ele><time>2026-03-29T18:02:44.581Z</time></trkpt><trkpt lat="38.8055317" lon="16.2312667"><ele>16.0</ele><time>2026-03-29T18:02:45.581Z</time></trkpt><trkpt lat="38.8052133" lon="16.231115"><ele>16.0</ele><time>2026-03-29T18:02:46.581Z</time></trkpt><trkpt lat="38.8048867" lon="16.2309683"><ele>17.0</ele><time>2026-03-29T18:02:47.581Z</time></trkpt><trkpt lat="38.8045433" lon="16.2308133"><ele>18.0</ele><time>2026-03-29T18:02:48.581Z</time></trkpt><trkpt lat="38.8041983" lon="16.2306533"><ele>17.0</ele><time>2026-03-29T18:02:49.581Z</time></trkpt><trkpt lat="38.8038383" lon="16.2305"><ele>16.0</ele><time>2026-03-29T18:02:50.581Z</time></trkpt><trkpt lat="38.803475" lon="16.2303267"><ele>16.0</ele><time>2026-03-29T18:02:51.581Z</time></trkpt><trkpt lat="38.8031117" lon="16.2301533"><ele>16.0</ele><time>2026-03-29T18:02:52.581Z</time></trkpt><trkpt lat="38.8027417" lon="16.2299817"><ele>15.0</ele><time>2026-03-29T18:02:53.581Z</time></trkpt><trkpt lat="38.8023617" lon="16.2298083"><ele>14.0</ele><time>2026-03-29T18:02:54.581Z</time></trkpt><trkpt lat="38.80199" lon="16.2296283"><ele>15.5</ele><time>2026-03-29T18:02:55.581Z</time></trkpt><trkpt lat="38.8016167" lon="16.2294533"><ele>17.0</ele><time>2026-03-29T18:02:56.581Z</time></trkpt><trkpt lat="38.8012483" lon="16.2292717"><ele>17.0</ele><time>2026-03-29T18:02:57.581Z</time></trkpt><trkpt lat="38.8008883" lon="16.2290767"><ele>17.0</ele><time>2026-03-29T18:02:58.581Z</time></trkpt><trkpt lat="38.800545" lon="16.228865"><ele>17.5</ele><time>2026-03-29T18:02:59.581Z</time></trkpt><trkpt lat="38.800205" lon="16.2286517"><ele>18.0</ele><time>2026-03-29T18:03:00.581Z</time></trkpt><trkpt lat="38.79989" lon="16.2284333"><ele>18.0</ele><time>2026-03-29T18:03:01.581Z</time></trkpt><trkpt lat="38.7995767" lon="16.22817"><ele>18.0</ele><time>2026-03-29T18:03:02.581Z</time></trkpt><trkpt lat="38.799255" lon="16.2279017"><ele>15.5</ele><time>2026-03-29T18:03:03.581Z</time></trkpt><trkpt lat="38.798945" lon="16.2276233"><ele>13.0</ele><time>2026-03-29T18:03:04.581Z</time></trkpt><trkpt lat="38.7986417" lon="16.2273417"><ele>13.0</ele><time>2026-03-29T18:03:05.581Z</time></trkpt><trkpt lat="38.7983467" lon="16.2270617"><ele>13.0</ele><time>2026-03-29T18:03:06.581Z</time></trkpt><trkpt lat="38.7980383" lon="16.226775"><ele>13.0</ele><time>2026-03-29T18:03:07.581Z</time></trkpt><trkpt lat="38.797745" lon="16.226495"><ele>13.0</ele><time>2026-03-29T18:03:08.581Z</time></trkpt><trkpt lat="38.797435" lon="16.2262217"><ele>13.0</ele><time>2026-03-29T18:03:09.581Z</time></trkpt><trkpt lat="38.7971033" lon="16.2259583"><ele>13.0</ele><time>2026-03-29T18:03:10.581Z</time></trkpt><trkpt lat="38.7967717" lon="16.2256983"><ele>12.5</ele><time>2026-03-29T18:03:11.581Z</time></trkpt><trkpt lat="38.79643" lon="16.2254467"><ele>12.0</ele><time>2026-03-29T18:03:12.581Z</time></trkpt><trkpt lat="38.7960833" lon="16.2252083"><ele>12.5</ele><time>2026-03-29T18:03:13.581Z</time></trkpt><trkpt lat="38.795725" lon="16.224985"><ele>13.0</ele><time>2026-03-29T18:03:14.581Z</time></trkpt><trkpt lat="38.7953617" lon="16.2247917"><ele>13.0</ele><time>2026-03-29T18:03:15.581Z</time></trkpt><trkpt lat="38.7949783" lon="16.2246117"><ele>13.0</ele><time>2026-03-29T18:03:16.581Z</time></trkpt><trkpt lat="38.79459" lon="16.2244717"><ele>13.0</ele><time>2026-03-29T18:03:17.581Z</time></trkpt><trkpt lat="38.7942033" lon="16.2243433"><ele>13.0</ele><time>2026-03-29T18:03:18.581Z</time></trkpt><trkpt lat="38.7938033" lon="16.2242317"><ele>13.5</ele><time>2026-03-29T18:03:19.581Z</time></trkpt><trkpt lat="38.7934067" lon="16.22413"><ele>14.0</ele><time>2026-03-29T18:03:20.581Z</time></trkpt><trkpt lat="38.7930017" lon="16.224025"><ele>12.0</ele><time>2026-03-29T18:03:21.581Z</time></trkpt><trkpt lat="38.7925983" lon="16.22391"><ele>10.0</ele><time>2026-03-29T18:03:22.581Z</time></trkpt><trkpt lat="38.7922" lon="16.223795"><ele>10.5</ele><time>2026-03-29T18:03:23.581Z</time></trkpt><trkpt lat="38.7918167" lon="16.2236667"><ele>11.0</ele><time>2026-03-29T18:03:24.581Z</time></trkpt><trkpt lat="38.7914483" lon="16.2235283"><ele>11.0</ele><time>2026-03-29T18:03:25.581Z</time></trkpt><trkpt lat="38.7911033" lon="16.2233683"><ele>11.0</ele><time>2026-03-29T18:03:26.581Z</time></trkpt><trkpt lat="38.79077" lon="16.22319"><ele>11.0</ele><time>2026-03-29T18:03:27.581Z</time></trkpt><trkpt lat="38.7904417" lon="16.2229967"><ele>11.0</ele><time>2026-03-29T18:03:28.581Z</time></trkpt><trkpt lat="38.7901283" lon="16.222785"><ele>11.0</ele><time>2026-03-29T18:03:29.581Z</time></trkpt><trkpt lat="38.7898217" lon="16.22256"><ele>11.0</ele><time>2026-03-29T18:03:30.581Z</time></trkpt><trkpt lat="38.78953" lon="16.2223317"><ele>11.0</ele><time>2026-03-29T18:03:31.581Z</time></trkpt><trkpt lat="38.7892317" lon="16.2220817"><ele>11.0</ele><time>2026-03-29T18:03:32.581Z</time></trkpt><trkpt lat="38.7889217" lon="16.22183"><ele>11.0</ele><time>2026-03-29T18:03:33.581Z</time></trkpt><trkpt lat="38.7886217" lon="16.2215683"><ele>11.0</ele><time>2026-03-29T18:03:34.581Z</time></trkpt><trkpt lat="38.78831" lon="16.221315"><ele>9.5</ele><time>2026-03-29T18:03:35.581Z</time></trkpt><trkpt lat="38.78801" lon="16.2210667"><ele>8.0</ele><time>2026-03-29T18:03:36.582Z</time></trkpt><trkpt lat="38.7877117" lon="16.2208283"><ele>8.0</ele><time>2026-03-29T18:03:37.581Z</time></trkpt><trkpt lat="38.7874083" lon="16.2205817"><ele>8.0</ele><time>2026-03-29T18:03:38.581Z</time></trkpt><trkpt lat="38.7871283" lon="16.22035"><ele>8.0</ele><time>2026-03-29T18:03:39.581Z</time></trkpt><trkpt lat="38.7868467" lon="16.2201167"><ele>8.0</ele><time>2026-03-29T18:03:40.581Z</time></trkpt><trkpt lat="38.7865633" lon="16.2198817"><ele>8.0</ele><time>2026-03-29T18:03:41.581Z</time></trkpt><trkpt lat="38.7862667" lon="16.2196667"><ele>8.0</ele><time>2026-03-29T18:03:42.581Z</time></trkpt><trkpt lat="38.7859533" lon="16.219455"><ele>9.5</ele><time>2026-03-29T18:03:43.581Z</time></trkpt><trkpt lat="38.7856233" lon="16.2192517"><ele>11.0</ele><time>2026-03-29T18:03:44.582Z</time></trkpt><trkpt lat="38.7852633" lon="16.2190667"><ele>8.0</ele><time>2026-03-29T18:03:45.581Z</time></trkpt><trkpt lat="38.7849" lon="16.2188883"><ele>5.0</ele><time>2026-03-29T18:03:46.581Z</time></trkpt><trkpt lat="38.784525" lon="16.2187267"><ele>6.0</ele><time>2026-03-29T18:03:47.581Z</time></trkpt><trkpt lat="38.7841617" lon="16.2185717"><ele>7.0</ele><time>2026-03-29T18:03:48.581Z</time></trkpt><trkpt lat="38.7837883" lon="16.2184283"><ele>7.5</ele><time>2026-03-29T18:03:49.581Z</time></trkpt><trkpt lat="38.7834067" lon="16.218285"><ele>8.0</ele><time>2026-03-29T18:03:50.581Z</time></trkpt><trkpt lat="38.78303" lon="16.2181417"><ele>8.0</ele><time>2026-03-29T18:03:51.581Z</time></trkpt><trkpt lat="38.78266" lon="16.217995"><ele>8.0</ele><time>2026-03-29T18:03:52.581Z</time></trkpt><trkpt lat="38.782285" lon="16.2178383"><ele>8.0</ele><time>2026-03-29T18:03:53.581Z</time></trkpt><trkpt lat="38.781895" lon="16.217685"><ele>8.0</ele><time>2026-03-29T18:03:54.581Z</time></trkpt><trkpt lat="38.781515" lon="16.2175333"><ele>7.5</ele><time>2026-03-29T18:03:55.581Z</time></trkpt><trkpt lat="38.7811517" lon="16.2173867"><ele>7.0</ele><time>2026-03-29T18:03:56.581Z</time></trkpt><trkpt lat="38.780805" lon="16.21725"><ele>6.5</ele><time>2026-03-29T18:03:57.581Z</time></trkpt><trkpt lat="38.7804733" lon="16.2171183"><ele>6.0</ele><time>2026-03-29T18:03:58.581Z</time></trkpt><trkpt lat="38.780155" lon="16.2169967"><ele>6.0</ele><time>2026-03-29T18:03:59.581Z</time></trkpt><trkpt lat="38.779845" lon="16.216875"><ele>6.0</ele><time>2026-03-29T18:04:00.581Z</time></trkpt><trkpt lat="38.779535" lon="16.2167517"><ele>6.5</ele><time>2026-03-29T18:04:01.581Z</time></trkpt><trkpt lat="38.7792233" lon="16.2166317"><ele>7.0</ele><time>2026-03-29T18:04:02.581Z</time></trkpt><trkpt lat="38.778915" lon="16.2165133"><ele>7.0</ele><time>2026-03-29T18:04:03.581Z</time></trkpt><trkpt lat="38.77861" lon="16.2163917"><ele>7.0</ele><time>2026-03-29T18:04:04.581Z</time></trkpt><trkpt lat="38.7783017" lon="16.2162767"><ele>7.0</ele><time>2026-03-29T18:04:05.581Z</time></trkpt><trkpt lat="38.7779767" lon="16.2161517"><ele>7.0</ele><time>2026-03-29T18:04:06.581Z</time></trkpt><trkpt lat="38.7776467" lon="16.21603"><ele>6.5</ele><time>2026-03-29T18:04:07.582Z</time></trkpt><trkpt lat="38.7773117" lon="16.2158967"><ele>6.0</ele><time>2026-03-29T18:04:08.581Z</time></trkpt><trkpt lat="38.776955" lon="16.2157583"><ele>5.5</ele><time>2026-03-29T18:04:09.581Z</time></trkpt><trkpt lat="38.7765933" lon="16.2156083"><ele>5.0</ele><time>2026-03-29T18:04:10.581Z</time></trkpt><trkpt lat="38.776225" lon="16.21545"><ele>5.0</ele><time>2026-03-29T18:04:11.581Z</time></trkpt><trkpt lat="38.7758467" lon="16.215285"><ele>5.0</ele><time>2026-03-29T18:04:12.581Z</time></trkpt><trkpt lat="38.77547" lon="16.2151183"><ele>5.0</ele><time>2026-03-29T18:04:13.581Z</time></trkpt><trkpt lat="38.7750817" lon="16.2149633"><ele>5.0</ele><time>2026-03-29T18:04:14.581Z</time></trkpt><trkpt lat="38.774685" lon="16.2148217"><ele>6.5</ele><time>2026-03-29T18:04:15.581Z</time></trkpt><trkpt lat="38.7743133" lon="16.21468"><ele>8.0</ele><time>2026-03-29T18:04:16.581Z</time></trkpt><trkpt lat="38.7739733" lon="16.2145483"><ele>8.0</ele><time>2026-03-29T18:04:17.581Z</time></trkpt><trkpt lat="38.7736567" lon="16.21442"><ele>8.0</ele><time>2026-03-29T18:04:18.581Z</time></trkpt><trkpt lat="38.7733583" lon="16.2142883"><ele>9.0</ele><time>2026-03-29T18:04:19.581Z</time></trkpt><trkpt lat="38.7730667" lon="16.2141467"><ele>10.0</ele><time>2026-03-29T18:04:20.581Z</time></trkpt><trkpt lat="38.7727983" lon="16.21399"><ele>9.0</ele><time>2026-03-29T18:04:21.581Z</time></trkpt><trkpt lat="38.7725617" lon="16.21382"><ele>8.0</ele><time>2026-03-29T18:04:22.581Z</time></trkpt><trkpt lat="38.7723533" lon="16.2136383"><ele>8.0</ele><time>2026-03-29T18:04:23.581Z</time></trkpt><trkpt lat="38.7721433" lon="16.2134417"><ele>8.0</ele><time>2026-03-29T18:04:24.581Z</time></trkpt><trkpt lat="38.77194" lon="16.213235"><ele>8.0</ele><time>2026-03-29T18:04:25.581Z</time></trkpt><trkpt lat="38.7717567" lon="16.2130183"><ele>8.0</ele><time>2026-03-29T18:04:26.581Z</time></trkpt><trkpt lat="38.7715867" lon="16.2127817"><ele>8.0</ele><time>2026-03-29T18:04:27.581Z</time></trkpt><trkpt lat="38.771425" lon="16.212535"><ele>8.0</ele><time>2026-03-29T18:04:28.581Z</time></trkpt><trkpt lat="38.7712717" lon="16.212275"><ele>8.0</ele><time>2026-03-29T18:04:29.581Z</time></trkpt><trkpt lat="38.77113" lon="16.2120067"><ele>8.0</ele><time>2026-03-29T18:04:30.581Z</time></trkpt><trkpt lat="38.7709817" lon="16.211725"><ele>8.5</ele><time>2026-03-29T18:04:31.581Z</time></trkpt><trkpt lat="38.77083" lon="16.21143"><ele>9.0</ele><time>2026-03-29T18:04:32.581Z</time></trkpt><trkpt lat="38.77068" lon="16.2111383"><ele>9.0</ele><time>2026-03-29T18:04:33.581Z</time></trkpt><trkpt lat="38.770515" lon="16.210835"><ele>9.0</ele><time>2026-03-29T18:04:34.581Z</time></trkpt><trkpt lat="38.7703367" lon="16.2105067"><ele>10.5</ele><time>2026-03-29T18:04:35.581Z</time></trkpt><trkpt lat="38.77016" lon="16.2101767"><ele>12.0</ele><time>2026-03-29T18:04:36.581Z</time></trkpt><trkpt lat="38.7699867" lon="16.2098367"><ele>11.5</ele><time>2026-03-29T18:04:37.581Z</time></trkpt><trkpt lat="38.7698017" lon="16.209505"><ele>11.0</ele><time>2026-03-29T18:04:38.581Z</time></trkpt><trkpt lat="38.7695983" lon="16.20918"><ele>9.5</ele><time>2026-03-29T18:04:39.581Z</time></trkpt><trkpt lat="38.7693783" lon="16.208855"><ele>8.0</ele><time>2026-03-29T18:04:40.581Z</time></trkpt><trkpt lat="38.76914" lon="16.2085367"><ele>8.0</ele><time>2026-03-29T18:04:41.581Z</time></trkpt><trkpt lat="38.7688983" lon="16.208215"><ele>8.0</ele><time>2026-03-29T18:04:42.581Z</time></trkpt><trkpt lat="38.7686483" lon="16.2078883"><ele>7.5</ele><time>2026-03-29T18:04:43.582Z</time></trkpt><trkpt lat="38.7683817" lon="16.207575"><ele>7.0</ele><time>2026-03-29T18:04:44.581Z</time></trkpt><trkpt lat="38.76811" lon="16.207295"><ele>7.0</ele><time>2026-03-29T18:04:45.581Z</time></trkpt><trkpt lat="38.76783" lon="16.207045"><ele>7.0</ele><time>2026-03-29T18:04:46.581Z</time></trkpt><trkpt lat="38.7675383" lon="16.2068083"><ele>7.5</ele><time>2026-03-29T18:04:47.581Z</time></trkpt><trkpt lat="38.7672083" lon="16.2065583"><ele>8.0</ele><time>2026-03-29T18:04:48.581Z</time></trkpt><trkpt lat="38.7668967" lon="16.2063067"><ele>17.5</ele><time>2026-03-29T18:04:49.581Z</time></trkpt><trkpt lat="38.766575" lon="16.2060683"><ele>27.0</ele><time>2026-03-29T18:04:50.581Z</time></trkpt><trkpt lat="38.7662583" lon="16.2058133"><ele>26.5</ele><time>2026-03-29T18:04:51.581Z</time></trkpt><trkpt lat="38.7659467" lon="16.2055817"><ele>26.0</ele><time>2026-03-29T18:04:52.581Z</time></trkpt><trkpt lat="38.7656333" lon="16.205355"><ele>26.0</ele><time>2026-03-29T18:04:53.581Z</time></trkpt><trkpt lat="38.7653133" lon="16.20515"><ele>26.0</ele><time>2026-03-29T18:04:54.581Z</time></trkpt><trkpt lat="38.764985" lon="16.2049483"><ele>22.5</ele><time>2026-03-29T18:04:55.581Z</time></trkpt><trkpt lat="38.7646417" lon="16.2047683"><ele>19.0</ele><time>2026-03-29T18:04:56.581Z</time></trkpt><trkpt lat="38.7643083" lon="16.2045983"><ele>29.5</ele><time>2026-03-29T18:04:57.581Z</time></trkpt><trkpt lat="38.764005" lon="16.204425"><ele>40.0</ele><time>2026-03-29T18:04:58.581Z</time></trkpt><trkpt lat="38.763735" lon="16.2042317"><ele>39.0</ele><time>2026-03-29T18:04:59.581Z</time></trkpt><trkpt lat="38.76349" lon="16.2040417"><ele>38.0</ele><time>2026-03-29T18:05:00.581Z</time></trkpt><trkpt lat="38.7632683" lon="16.20384"><ele>38.0</ele><time>2026-03-29T18:05:01.581Z</time></trkpt><trkpt lat="38.76307" lon="16.2036167"><ele>38.0</ele><time>2026-03-29T18:05:02.581Z</time></trkpt><trkpt lat="38.7628683" lon="16.203405"><ele>34.5</ele><time>2026-03-29T18:05:03.581Z</time></trkpt><trkpt lat="38.762675" lon="16.2032317"><ele>31.0</ele><time>2026-03-29T18:05:04.581Z</time></trkpt><trkpt lat="38.7624733" lon="16.2030733"><ele>31.0</ele><time>2026-03-29T18:05:05.581Z</time></trkpt><trkpt lat="38.7622567" lon="16.202935"><ele>31.0</ele><time>2026-03-29T18:05:06.581Z</time></trkpt><trkpt lat="38.7620367" lon="16.2028183"><ele>42.5</ele><time>2026-03-29T18:05:07.581Z</time></trkpt><trkpt lat="38.7618033" lon="16.2027183"><ele>54.0</ele><time>2026-03-29T18:05:08.581Z</time></trkpt><trkpt lat="38.7615633" lon="16.2026417"><ele>54.0</ele><time>2026-03-29T18:05:09.581Z</time></trkpt><trkpt lat="38.7613167" lon="16.2025617"><ele>54.0</ele><time>2026-03-29T18:05:10.581Z</time></trkpt><trkpt lat="38.7610817" lon="16.20248"><ele>47.0</ele><time>2026-03-29T18:05:11.581Z</time></trkpt><trkpt lat="38.7608383" lon="16.2023983"><ele>40.0</ele><time>2026-03-29T18:05:12.581Z</time></trkpt><trkpt lat="38.7605817" lon="16.202305"><ele>40.0</ele><time>2026-03-29T18:05:13.581Z</time></trkpt><trkpt lat="38.76032" lon="16.202215"><ele>40.0</ele><time>2026-03-29T18:05:14.581Z</time></trkpt><trkpt lat="38.76007" lon="16.2021117"><ele>44.0</ele><time>2026-03-29T18:05:15.582Z</time></trkpt><trkpt lat="38.759815" lon="16.202005"><ele>48.0</ele><time>2026-03-29T18:05:16.581Z</time></trkpt><trkpt lat="38.759555" lon="16.201895"><ele>59.5</ele><time>2026-03-29T18:05:17.581Z</time></trkpt><trkpt lat="38.7592833" lon="16.2017683"><ele>71.0</ele><time>2026-03-29T18:05:18.581Z</time></trkpt><trkpt lat="38.759015" lon="16.20162"><ele>71.0</ele><time>2026-03-29T18:05:19.581Z</time></trkpt><trkpt lat="38.75873" lon="16.2015"><ele>71.0</ele><time>2026-03-29T18:05:20.581Z</time></trkpt><trkpt lat="38.7584433" lon="16.2012867"><ele>70.0</ele><time>2026-03-29T18:05:21.581Z</time></trkpt><trkpt lat="38.7581567" lon="16.20107"><ele>69.0</ele><time>2026-03-29T18:05:22.581Z</time></trkpt><trkpt lat="38.757895" lon="16.20084"><ele>69.0</ele><time>2026-03-29T18:05:23.581Z</time></trkpt><trkpt lat="38.7576383" lon="16.2006133"><ele>69.0</ele><time>2026-03-29T18:05:24.581Z</time></trkpt><trkpt lat="38.7573733" lon="16.200375"><ele>69.0</ele><time>2026-03-29T18:05:25.581Z</time></trkpt><trkpt lat="38.7570967" lon="16.20016"><ele>69.0</ele><time>2026-03-29T18:05:26.581Z</time></trkpt><trkpt lat="38.756815" lon="16.1999417"><ele>69.0</ele><time>2026-03-29T18:05:27.581Z</time></trkpt><trkpt lat="38.7565283" lon="16.19973"><ele>69.0</ele><time>2026-03-29T18:05:28.581Z</time></trkpt><trkpt lat="38.7562417" lon="16.1995283"><ele>77.5</ele><time>2026-03-29T18:05:29.581Z</time></trkpt><trkpt lat="38.755945" lon="16.19934"><ele>86.0</ele><time>2026-03-29T18:05:30.581Z</time></trkpt><trkpt lat="38.755675" lon="16.1991467"><ele>86.5</ele><time>2026-03-29T18:05:31.581Z</time></trkpt><trkpt lat="38.7554317" lon="16.1989367"><ele>87.0</ele><time>2026-03-29T18:05:32.581Z</time></trkpt><trkpt lat="38.7552017" lon="16.19872"><ele>87.0</ele><time>2026-03-29T18:05:33.581Z</time></trkpt><trkpt lat="38.75498" lon="16.1984583"><ele>87.0</ele><time>2026-03-29T18:05:34.581Z</time></trkpt><trkpt lat="38.7547817" lon="16.198165"><ele>81.5</ele><time>2026-03-29T18:05:35.581Z</time></trkpt><trkpt lat="38.7545933" lon="16.197875"><ele>76.0</ele><time>2026-03-29T18:05:36.581Z</time></trkpt><trkpt lat="38.7544233" lon="16.19756"><ele>87.5</ele><time>2026-03-29T18:05:37.582Z</time></trkpt><trkpt lat="38.7542733" lon="16.197225"><ele>99.0</ele><time>2026-03-29T18:05:38.581Z</time></trkpt><trkpt lat="38.75414" lon="16.1968667"><ele>92.5</ele><time>2026-03-29T18:05:39.581Z</time></trkpt><trkpt lat="38.754" lon="16.1965017"><ele>86.0</ele><time>2026-03-29T18:05:40.581Z</time></trkpt><trkpt lat="38.7538633" lon="16.1961267"><ele>86.0</ele><time>2026-03-29T18:05:41.581Z</time></trkpt><trkpt lat="38.7537283" lon="16.195745"><ele>86.0</ele><time>2026-03-29T18:05:42.581Z</time></trkpt><trkpt lat="38.75359" lon="16.1953783"><ele>90.0</ele><time>2026-03-29T18:05:43.581Z</time></trkpt><trkpt lat="38.7534517" lon="16.1950383"><ele>94.0</ele><time>2026-03-29T18:05:44.581Z</time></trkpt><trkpt lat="38.753305" lon="16.1947217"><ele>94.0</ele><time>2026-03-29T18:05:45.581Z</time></trkpt><trkpt lat="38.7531433" lon="16.1944333"><ele>94.0</ele><time>2026-03-29T18:05:46.581Z</time></trkpt><trkpt lat="38.75298" lon="16.1941817"><ele>85.5</ele><time>2026-03-29T18:05:47.581Z</time></trkpt><trkpt lat="38.7528133" lon="16.193955"><ele>77.0</ele><time>2026-03-29T18:05:48.581Z</time></trkpt><trkpt lat="38.752625" lon="16.19375"><ele>94.5</ele><time>2026-03-29T18:05:49.581Z</time></trkpt><trkpt lat="38.75242" lon="16.19357"><ele>112.0</ele><time>2026-03-29T18:05:50.581Z</time></trkpt><trkpt lat="38.7522017" lon="16.193395"><ele>112.0</ele><time>2026-03-29T18:05:51.581Z</time></trkpt><trkpt lat="38.7519783" lon="16.19324"><ele>112.0</ele><time>2026-03-29T18:05:52.581Z</time></trkpt><trkpt lat="38.7517417" lon="16.1931017"><ele>110.0</ele><time>2026-03-29T18:05:53.581Z</time></trkpt><trkpt lat="38.751515" lon="16.1929533"><ele>108.0</ele><time>2026-03-29T18:05:54.581Z</time></trkpt><trkpt lat="38.7512683" lon="16.1928233"><ele>113.0</ele><time>2026-03-29T18:05:55.582Z</time></trkpt><trkpt lat="38.751025" lon="16.1926933"><ele>118.0</ele><time>2026-03-29T18:05:56.581Z</time></trkpt><trkpt lat="38.75079" lon="16.1925467"><ele>118.0</ele><time>2026-03-29T18:05:57.581Z</time></trkpt><trkpt lat="38.7505767" lon="16.1923883"><ele>118.0</ele><time>2026-03-29T18:05:58.581Z</time></trkpt><trkpt lat="38.7503733" lon="16.1922117"><ele>118.0</ele><time>2026-03-29T18:05:59.581Z</time></trkpt><trkpt lat="38.750175" lon="16.192015"><ele>118.0</ele><time>2026-03-29T18:06:00.581Z</time></trkpt><trkpt lat="38.7499933" lon="16.191795"><ele>118.0</ele><time>2026-03-29T18:06:01.581Z</time></trkpt><trkpt lat="38.7498133" lon="16.1915617"><ele>118.0</ele><time>2026-03-29T18:06:02.581Z</time></trkpt><trkpt lat="38.74963" lon="16.191325"><ele>116.0</ele><time>2026-03-29T18:06:03.581Z</time></trkpt><trkpt lat="38.74944" lon="16.1910983"><ele>114.0</ele><time>2026-03-29T18:06:04.581Z</time></trkpt><trkpt lat="38.7492483" lon="16.1908783"><ele>117.0</ele><time>2026-03-29T18:06:05.581Z</time></trkpt><trkpt lat="38.7490567" lon="16.1906633"><ele>120.0</ele><time>2026-03-29T18:06:06.581Z</time></trkpt><trkpt lat="38.7488533" lon="16.1904617"><ele>120.0</ele><time>2026-03-29T18:06:07.581Z</time></trkpt><trkpt lat="38.74864" lon="16.19029"><ele>120.0</ele><time>2026-03-29T18:06:08.581Z</time></trkpt><trkpt lat="38.7484133" lon="16.1901267"><ele>124.0</ele><time>2026-03-29T18:06:09.581Z</time></trkpt><trkpt lat="38.7481783" lon="16.1899767"><ele>128.0</ele><time>2026-03-29T18:06:10.581Z</time></trkpt><trkpt lat="38.7479383" lon="16.1898533"><ele>129.0</ele><time>2026-03-29T18:06:11.581Z</time></trkpt><trkpt lat="38.7476867" lon="16.1897483"><ele>130.0</ele><time>2026-03-29T18:06:12.581Z</time></trkpt><trkpt lat="38.74743" lon="16.1896467"><ele>130.0</ele><time>2026-03-29T18:06:13.581Z</time></trkpt><trkpt lat="38.74717" lon="16.1895567"><ele>130.0</ele><time>2026-03-29T18:06:14.581Z</time></trkpt><trkpt lat="38.746905" lon="16.1894717"><ele>133.5</ele><time>2026-03-29T18:06:15.581Z</time></trkpt><trkpt lat="38.7466433" lon="16.1893833"><ele>137.0</ele><time>2026-03-29T18:06:16.581Z</time></trkpt><trkpt lat="38.7463867" lon="16.189285"><ele>137.0</ele><time>2026-03-29T18:06:17.581Z</time></trkpt><trkpt lat="38.746125" lon="16.18919"><ele>137.0</ele><time>2026-03-29T18:06:18.581Z</time></trkpt><trkpt lat="38.745855" lon="16.1890833"><ele>137.0</ele><time>2026-03-29T18:06:19.581Z</time></trkpt><trkpt lat="38.7455933" lon="16.1889717"><ele>137.0</ele><time>2026-03-29T18:06:20.581Z</time></trkpt><trkpt lat="38.7453317" lon="16.1888633"><ele>138.0</ele><time>2026-03-29T18:06:21.581Z</time></trkpt><trkpt lat="38.74507" lon="16.1887417"><ele>139.0</ele><time>2026-03-29T18:06:22.581Z</time></trkpt><trkpt lat="38.7447983" lon="16.1886133"><ele>139.0</ele><time>2026-03-29T18:06:23.581Z</time></trkpt><trkpt lat="38.744535" lon="16.1884783"><ele>139.0</ele><time>2026-03-29T18:06:24.581Z</time></trkpt><trkpt lat="38.7442767" lon="16.1883433"><ele>137.5</ele><time>2026-03-29T18:06:25.581Z</time></trkpt><trkpt lat="38.7440167" lon="16.1881933"><ele>136.0</ele><time>2026-03-29T18:06:26.581Z</time></trkpt><trkpt lat="38.7437367" lon="16.1880367"><ele>141.5</ele><time>2026-03-29T18:06:27.581Z</time></trkpt><trkpt lat="38.7434667" lon="16.1878733"><ele>147.0</ele><time>2026-03-29T18:06:28.581Z</time></trkpt><trkpt lat="38.74319" lon="16.1877033"><ele>147.0</ele><time>2026-03-29T18:06:29.581Z</time></trkpt><trkpt lat="38.74291" lon="16.187525"><ele>147.0</ele><time>2026-03-29T18:06:30.581Z</time></trkpt><trkpt lat="38.74264" lon="16.18734"><ele>145.5</ele><time>2026-03-29T18:06:31.581Z</time></trkpt><trkpt lat="38.7423833" lon="16.187145"><ele>144.0</ele><time>2026-03-29T18:06:32.581Z</time></trkpt><trkpt lat="38.7421283" lon="16.1869517"><ele>151.0</ele><time>2026-03-29T18:06:33.581Z</time></trkpt><trkpt lat="38.741875" lon="16.1867583"><ele>158.0</ele><time>2026-03-29T18:06:34.582Z</time></trkpt><trkpt lat="38.7416183" lon="16.1865683"><ele>152.0</ele><time>2026-03-29T18:06:35.581Z</time></trkpt><trkpt lat="38.741355" lon="16.186375"><ele>146.0</ele><time>2026-03-29T18:06:36.581Z</time></trkpt><trkpt lat="38.741085" lon="16.1861767"><ele>154.0</ele><time>2026-03-29T18:06:37.581Z</time></trkpt><trkpt lat="38.740815" lon="16.1859817"><ele>162.0</ele><time>2026-03-29T18:06:38.581Z</time></trkpt><trkpt lat="38.74056" lon="16.1857817"><ele>165.5</ele><time>2026-03-29T18:06:39.581Z</time></trkpt><trkpt lat="38.7403233" lon="16.18557"><ele>169.0</ele><time>2026-03-29T18:06:40.581Z</time></trkpt><trkpt lat="38.7401067" lon="16.1853333"><ele>169.0</ele><time>2026-03-29T18:06:41.581Z</time></trkpt><trkpt lat="38.7398933" lon="16.1850567"><ele>169.0</ele><time>2026-03-29T18:06:42.581Z</time></trkpt><trkpt lat="38.7397033" lon="16.1847483"><ele>173.5</ele><time>2026-03-29T18:06:43.581Z</time></trkpt><trkpt lat="38.739515" lon="16.1844"><ele>178.0</ele><time>2026-03-29T18:06:44.581Z</time></trkpt><trkpt lat="38.73934" lon="16.184025"><ele>175.5</ele><time>2026-03-29T18:06:45.581Z</time></trkpt><trkpt lat="38.739175" lon="16.18364"><ele>173.0</ele><time>2026-03-29T18:06:46.581Z</time></trkpt><trkpt lat="38.7390233" lon="16.1832567"><ele>167.0</ele><time>2026-03-29T18:06:47.581Z</time></trkpt><trkpt lat="38.7388717" lon="16.1828917"><ele>161.0</ele><time>2026-03-29T18:06:48.581Z</time></trkpt><trkpt lat="38.7387" lon="16.1825683"><ele>166.5</ele><time>2026-03-29T18:06:49.581Z</time></trkpt><trkpt lat="38.7385083" lon="16.1822717"><ele>172.0</ele><time>2026-03-29T18:06:50.582Z</time></trkpt><trkpt lat="38.7382917" lon="16.1820017"><ele>172.0</ele><time>2026-03-29T18:06:51.581Z</time></trkpt><trkpt lat="38.7380533" lon="16.1817333"><ele>172.0</ele><time>2026-03-29T18:06:52.581Z</time></trkpt><trkpt lat="38.7378033" lon="16.1814817"><ele>174.0</ele><time>2026-03-29T18:06:53.581Z</time></trkpt><trkpt lat="38.737555" lon="16.1812433"><ele>176.0</ele><time>2026-03-29T18:06:54.581Z</time></trkpt><trkpt lat="38.7373117" lon="16.1810117"><ele>176.0</ele><time>2026-03-29T18:06:55.581Z</time></trkpt><trkpt lat="38.7370783" lon="16.18076"><ele>176.0</ele><time>2026-03-29T18:06:56.582Z</time></trkpt><trkpt lat="38.73685" lon="16.18048"><ele>179.5</ele><time>2026-03-29T18:06:57.581Z</time></trkpt><trkpt lat="38.73663" lon="16.1802033"><ele>183.0</ele><time>2026-03-29T18:06:58.581Z</time></trkpt><trkpt lat="38.73642" lon="16.1799217"><ele>177.5</ele><time>2026-03-29T18:06:59.581Z</time></trkpt><trkpt lat="38.73623" lon="16.1796217"><ele>172.0</ele><time>2026-03-29T18:07:00.581Z</time></trkpt><trkpt lat="38.736045" lon="16.17931"><ele>179.5</ele><time>2026-03-29T18:07:01.581Z</time></trkpt><trkpt lat="38.7358717" lon="16.1789933"><ele>187.0</ele><time>2026-03-29T18:07:02.581Z</time></trkpt><trkpt lat="38.7357133" lon="16.1786633"><ele>187.0</ele><time>2026-03-29T18:07:03.581Z</time></trkpt><trkpt lat="38.735555" lon="16.1783317"><ele>187.0</ele><time>2026-03-29T18:07:04.581Z</time></trkpt><trkpt lat="38.73541" lon="16.177995"><ele>181.5</ele><time>2026-03-29T18:07:05.581Z</time></trkpt><trkpt lat="38.7352767" lon="16.1776467"><ele>176.0</ele><time>2026-03-29T18:07:06.581Z</time></trkpt><trkpt lat="38.735145" lon="16.1772933"><ele>187.5</ele><time>2026-03-29T18:07:07.581Z</time></trkpt><trkpt lat="38.7350317" lon="16.17694"><ele>199.0</ele><time>2026-03-29T18:07:08.581Z</time></trkpt><trkpt lat="38.7349167" lon="16.1765867"><ele>191.0</ele><time>2026-03-29T18:07:09.581Z</time></trkpt><trkpt lat="38.734815" lon="16.1762317"><ele>183.0</ele><time>2026-03-29T18:07:10.581Z</time></trkpt><trkpt lat="38.7347267" lon="16.1758617"><ele>174.5</ele><time>2026-03-29T18:07:11.581Z</time></trkpt><trkpt lat="38.7346367" lon="16.1754767"><ele>166.0</ele><time>2026-03-29T18:07:12.581Z</time></trkpt><trkpt lat="38.7345383" lon="16.175095"><ele>160.0</ele><time>2026-03-29T18:07:13.582Z</time></trkpt><trkpt lat="38.73444" lon="16.17469"><ele>154.0</ele><time>2026-03-29T18:07:14.581Z</time></trkpt><trkpt lat="38.734345" lon="16.1742817"><ele>170.5</ele><time>2026-03-29T18:07:15.581Z</time></trkpt><trkpt lat="38.7342467" lon="16.17387"><ele>187.0</ele><time>2026-03-29T18:07:16.581Z</time></trkpt><trkpt lat="38.7341467" lon="16.1734633"><ele>181.5</ele><time>2026-03-29T18:07:17.581Z</time></trkpt><trkpt lat="38.7340517" lon="16.17305"><ele>176.0</ele><time>2026-03-29T18:07:18.581Z</time></trkpt><trkpt lat="38.7339617" lon="16.1726367"><ele>170.0</ele><time>2026-03-29T18:07:19.581Z</time></trkpt><trkpt lat="38.73386" lon="16.1722367"><ele>164.0</ele><time>2026-03-29T18:07:20.581Z</time></trkpt><trkpt lat="38.7337417" lon="16.1718467"><ele>158.5</ele><time>2026-03-29T18:07:21.582Z</time></trkpt><trkpt lat="38.733605" lon="16.17145"><ele>153.0</ele><time>2026-03-29T18:07:22.582Z</time></trkpt><trkpt lat="38.7334633" lon="16.1710617"><ele>159.0</ele><time>2026-03-29T18:07:23.581Z</time></trkpt><trkpt lat="38.7333117" lon="16.1706717"><ele>165.0</ele><time>2026-03-29T18:07:24.581Z</time></trkpt><trkpt lat="38.733135" lon="16.1702933"><ele>165.0</ele><time>2026-03-29T18:07:25.581Z</time></trkpt><trkpt lat="38.7329417" lon="16.169925"><ele>165.0</ele><time>2026-03-29T18:07:26.581Z</time></trkpt><trkpt lat="38.732735" lon="16.1695683"><ele>166.5</ele><time>2026-03-29T18:07:27.581Z</time></trkpt><trkpt lat="38.7325183" lon="16.1692233"><ele>168.0</ele><time>2026-03-29T18:07:28.581Z</time></trkpt><trkpt lat="38.7322767" lon="16.1688817"><ele>168.0</ele><time>2026-03-29T18:07:29.581Z</time></trkpt><trkpt lat="38.7320367" lon="16.1685567"><ele>168.0</ele><time>2026-03-29T18:07:30.581Z</time></trkpt><trkpt lat="38.7317783" lon="16.16824"><ele>177.5</ele><time>2026-03-29T18:07:31.581Z</time></trkpt><trkpt lat="38.7315117" lon="16.16794"><ele>187.0</ele><time>2026-03-29T18:07:32.581Z</time></trkpt><trkpt lat="38.7312517" lon="16.1676617"><ele>197.5</ele><time>2026-03-29T18:07:33.581Z</time></trkpt><trkpt lat="38.731" lon="16.16741"><ele>208.0</ele><time>2026-03-29T18:07:34.581Z</time></trkpt><trkpt lat="38.730755" lon="16.1671733"><ele>208.0</ele><time>2026-03-29T18:07:35.581Z</time></trkpt><trkpt lat="38.7305083" lon="16.16694"><ele>208.0</ele><time>2026-03-29T18:07:36.581Z</time></trkpt><trkpt lat="38.7302617" lon="16.16671"><ele>212.0</ele><time>2026-03-29T18:07:37.582Z</time></trkpt><trkpt lat="38.7300083" lon="16.1664883"><ele>216.0</ele><time>2026-03-29T18:07:38.581Z</time></trkpt><trkpt lat="38.72976" lon="16.166255"><ele>216.0</ele><time>2026-03-29T18:07:39.582Z</time></trkpt><trkpt lat="38.7295117" lon="16.1660233"><ele>216.0</ele><time>2026-03-29T18:07:40.582Z</time></trkpt><trkpt lat="38.7292717" lon="16.1657817"><ele>219.0</ele><time>2026-03-29T18:07:41.583Z</time></trkpt><trkpt lat="38.729015" lon="16.1655517"><ele>222.0</ele><time>2026-03-29T18:07:42.582Z</time></trkpt><trkpt lat="38.728765" lon="16.1653183"><ele>225.0</ele><time>2026-03-29T18:07:43.582Z</time></trkpt><trkpt lat="38.72851" lon="16.1650833"><ele>228.0</ele><time>2026-03-29T18:07:44.582Z</time></trkpt><trkpt lat="38.7282417" lon="16.1648383"><ele>228.0</ele><time>2026-03-29T18:07:45.582Z</time></trkpt><trkpt lat="38.7279683" lon="16.16459"><ele>228.0</ele><time>2026-03-29T18:07:46.582Z</time></trkpt><trkpt lat="38.7276933" lon="16.1643367"><ele>229.5</ele><time>2026-03-29T18:07:47.582Z</time></trkpt><trkpt lat="38.7274267" lon="16.1640867"><ele>231.0</ele><time>2026-03-29T18:07:48.582Z</time></trkpt><trkpt lat="38.7271583" lon="16.1638317"><ele>241.5</ele><time>2026-03-29T18:07:49.582Z</time></trkpt><trkpt lat="38.7268933" lon="16.163585"><ele>252.0</ele><time>2026-03-29T18:07:50.582Z</time></trkpt><trkpt lat="38.7266267" lon="16.16333"><ele>240.0</ele><time>2026-03-29T18:07:51.582Z</time></trkpt><trkpt lat="38.726365" lon="16.163085"><ele>228.0</ele><time>2026-03-29T18:07:52.582Z</time></trkpt><trkpt lat="38.7261083" lon="16.1628367"><ele>228.0</ele><time>2026-03-29T18:07:53.582Z</time></trkpt><trkpt lat="38.725845" lon="16.162585"><ele>228.0</ele><time>2026-03-29T18:07:54.582Z</time></trkpt><trkpt lat="38.7255783" lon="16.1623317"><ele>228.0</ele><time>2026-03-29T18:07:55.582Z</time></trkpt><trkpt lat="38.7253017" lon="16.16208"><ele>228.0</ele><time>2026-03-29T18:07:56.582Z</time></trkpt><trkpt lat="38.72501" lon="16.1618233"><ele>232.0</ele><time>2026-03-29T18:07:57.582Z</time></trkpt><trkpt lat="38.7247283" lon="16.1615583"><ele>236.0</ele><time>2026-03-29T18:07:58.582Z</time></trkpt><trkpt lat="38.7244467" lon="16.1612917"><ele>254.0</ele><time>2026-03-29T18:07:59.582Z</time></trkpt><trkpt lat="38.7241583" lon="16.1610183"><ele>272.0</ele><time>2026-03-29T18:08:00.582Z</time></trkpt><trkpt lat="38.7238617" lon="16.1607617"><ele>273.5</ele><time>2026-03-29T18:08:01.582Z</time></trkpt><trkpt lat="38.7235683" lon="16.1605117"><ele>275.0</ele><time>2026-03-29T18:08:02.582Z</time></trkpt><trkpt lat="38.72328" lon="16.1602717"><ele>275.0</ele><time>2026-03-29T18:08:03.582Z</time></trkpt><trkpt lat="38.722995" lon="16.1600217"><ele>275.0</ele><time>2026-03-29T18:08:04.582Z</time></trkpt><trkpt lat="38.7227133" lon="16.159765"><ele>276.0</ele><time>2026-03-29T18:08:05.582Z</time></trkpt><trkpt lat="38.7224333" lon="16.1594917"><ele>277.0</ele><time>2026-03-29T18:08:06.582Z</time></trkpt><trkpt lat="38.7221583" lon="16.1592117"><ele>281.0</ele><time>2026-03-29T18:08:07.582Z</time></trkpt><trkpt lat="38.7218917" lon="16.1589283"><ele>285.0</ele><time>2026-03-29T18:08:08.582Z</time></trkpt><trkpt lat="38.72164" lon="16.158615"><ele>285.0</ele><time>2026-03-29T18:08:09.582Z</time></trkpt><trkpt lat="38.7214033" lon="16.1582817"><ele>285.0</ele><time>2026-03-29T18:08:10.582Z</time></trkpt><trkpt lat="38.7211617" lon="16.1579533"><ele>291.5</ele><time>2026-03-29T18:08:11.583Z</time></trkpt><trkpt lat="38.720915" lon="16.157625"><ele>298.0</ele><time>2026-03-29T18:08:12.582Z</time></trkpt><trkpt lat="38.7206567" lon="16.15731"><ele>306.0</ele><time>2026-03-29T18:08:13.582Z</time></trkpt><trkpt lat="38.7203967" lon="16.156975"><ele>314.0</ele><time>2026-03-29T18:08:14.582Z</time></trkpt><trkpt lat="38.7201383" lon="16.1566417"><ele>305.0</ele><time>2026-03-29T18:08:15.582Z</time></trkpt><trkpt lat="38.7198767" lon="16.156315"><ele>296.0</ele><time>2026-03-29T18:08:16.582Z</time></trkpt><trkpt lat="38.719615" lon="16.155995"><ele>294.0</ele><time>2026-03-29T18:08:17.582Z</time></trkpt><trkpt lat="38.7193367" lon="16.155705"><ele>292.0</ele><time>2026-03-29T18:08:18.583Z</time></trkpt><trkpt lat="38.7190383" lon="16.1554483"><ele>292.0</ele><time>2026-03-29T18:08:19.582Z</time></trkpt><trkpt lat="38.71873" lon="16.1552317"><ele>292.0</ele><time>2026-03-29T18:08:20.582Z</time></trkpt><trkpt lat="38.7184033" lon="16.155045"><ele>301.0</ele><time>2026-03-29T18:08:21.582Z</time></trkpt><trkpt lat="38.718065" lon="16.1549033"><ele>310.0</ele><time>2026-03-29T18:08:22.582Z</time></trkpt><trkpt lat="38.7177367" lon="16.1547967"><ele>300.0</ele><time>2026-03-29T18:08:23.582Z</time></trkpt><trkpt lat="38.717385" lon="16.1547317"><ele>290.0</ele><time>2026-03-29T18:08:24.582Z</time></trkpt><trkpt lat="38.71703" lon="16.1546583"><ele>298.0</ele><time>2026-03-29T18:08:25.582Z</time></trkpt><trkpt lat="38.7166717" lon="16.1545817"><ele>306.0</ele><time>2026-03-29T18:08:26.582Z</time></trkpt><trkpt lat="38.7163083" lon="16.15449"><ele>312.5</ele><time>2026-03-29T18:08:27.582Z</time></trkpt><trkpt lat="38.7159367" lon="16.1544067"><ele>319.0</ele><time>2026-03-29T18:08:28.582Z</time></trkpt><trkpt lat="38.71557" lon="16.1543217"><ele>323.5</ele><time>2026-03-29T18:08:29.582Z</time></trkpt><trkpt lat="38.715205" lon="16.1542383"><ele>328.0</ele><time>2026-03-29T18:08:30.582Z</time></trkpt><trkpt lat="38.714845" lon="16.154165"><ele>328.0</ele><time>2026-03-29T18:08:31.582Z</time></trkpt><trkpt lat="38.714485" lon="16.1540917"><ele>328.0</ele><time>2026-03-29T18:08:32.582Z</time></trkpt><trkpt lat="38.71413" lon="16.1540117"><ele>326.0</ele><time>2026-03-29T18:08:33.582Z</time></trkpt><trkpt lat="38.713775" lon="16.153945"><ele>324.0</ele><time>2026-03-29T18:08:34.582Z</time></trkpt><trkpt lat="38.71342" lon="16.153895"><ele>328.0</ele><time>2026-03-29T18:08:35.582Z</time></trkpt><trkpt lat="38.7130617" lon="16.1538533"><ele>332.0</ele><time>2026-03-29T18:08:36.582Z</time></trkpt><trkpt lat="38.7127017" lon="16.15382"><ele>337.0</ele><time>2026-03-29T18:08:37.582Z</time></trkpt><trkpt lat="38.7123467" lon="16.1537983"><ele>342.0</ele><time>2026-03-29T18:08:38.582Z</time></trkpt><trkpt lat="38.711995" lon="16.153785"><ele>351.5</ele><time>2026-03-29T18:08:39.582Z</time></trkpt><trkpt lat="38.7116383" lon="16.1537733"><ele>361.0</ele><time>2026-03-29T18:08:40.582Z</time></trkpt><trkpt lat="38.711275" lon="16.1537933"><ele>363.5</ele><time>2026-03-29T18:08:41.582Z</time></trkpt><trkpt lat="38.7109217" lon="16.15379"><ele>366.0</ele><time>2026-03-29T18:08:42.582Z</time></trkpt><trkpt lat="38.7105767" lon="16.1537967"><ele>364.0</ele><time>2026-03-29T18:08:43.582Z</time></trkpt><trkpt lat="38.710235" lon="16.1537883"><ele>362.0</ele><time>2026-03-29T18:08:44.582Z</time></trkpt><trkpt lat="38.709905" lon="16.153785"><ele>362.0</ele><time>2026-03-29T18:08:45.582Z</time></trkpt><trkpt lat="38.7095717" lon="16.1537817"><ele>362.0</ele><time>2026-03-29T18:08:46.582Z</time></trkpt><trkpt lat="38.709235" lon="16.1537767"><ele>362.5</ele><time>2026-03-29T18:08:47.582Z</time></trkpt><trkpt lat="38.708905" lon="16.1537667"><ele>363.0</ele><time>2026-03-29T18:08:48.582Z</time></trkpt><trkpt lat="38.7085717" lon="16.1537633"><ele>364.5</ele><time>2026-03-29T18:08:49.582Z</time></trkpt><trkpt lat="38.7082317" lon="16.153775"><ele>366.0</ele><time>2026-03-29T18:08:50.582Z</time></trkpt><trkpt lat="38.7078933" lon="16.1537767"><ele>371.0</ele><time>2026-03-29T18:08:51.582Z</time></trkpt><trkpt lat="38.7075483" lon="16.1537717"><ele>376.0</ele><time>2026-03-29T18:08:52.582Z</time></trkpt><trkpt lat="38.7072183" lon="16.1537717"><ele>376.0</ele><time>2026-03-29T18:08:53.582Z</time></trkpt><trkpt lat="38.7069" lon="16.1537767"><ele>376.0</ele><time>2026-03-29T18:08:54.582Z</time></trkpt><trkpt lat="38.7065817" lon="16.1537733"><ele>376.0</ele><time>2026-03-29T18:08:55.582Z</time></trkpt><trkpt lat="38.70627" lon="16.15378"><ele>376.0</ele><time>2026-03-29T18:08:56.582Z</time></trkpt><trkpt lat="38.70595" lon="16.1537867"><ele>374.0</ele><time>2026-03-29T18:08:57.582Z</time></trkpt><trkpt lat="38.705625" lon="16.1537867"><ele>372.0</ele><time>2026-03-29T18:08:58.582Z</time></trkpt><trkpt lat="38.7053" lon="16.1537883"><ele>369.5</ele><time>2026-03-29T18:08:59.582Z</time></trkpt><trkpt lat="38.704975" lon="16.15381"><ele>367.0</ele><time>2026-03-29T18:09:00.582Z</time></trkpt><trkpt lat="38.7046533" lon="16.1538483"><ele>368.0</ele><time>2026-03-29T18:09:01.582Z</time></trkpt><trkpt lat="38.70434" lon="16.1539083"><ele>369.0</ele><time>2026-03-29T18:09:02.582Z</time></trkpt><trkpt lat="38.7040333" lon="16.153995"><ele>365.5</ele><time>2026-03-29T18:09:03.582Z</time></trkpt><trkpt lat="38.7037383" lon="16.1541033"><ele>362.0</ele><time>2026-03-29T18:09:04.582Z</time></trkpt><trkpt lat="38.703455" lon="16.1542283"><ele>360.0</ele><time>2026-03-29T18:09:05.582Z</time></trkpt><trkpt lat="38.7031817" lon="16.1543533"><ele>358.0</ele><time>2026-03-29T18:09:06.582Z</time></trkpt><trkpt lat="38.7029067" lon="16.154495"><ele>356.0</ele><time>2026-03-29T18:09:07.582Z</time></trkpt><trkpt lat="38.7026383" lon="16.1546633"><ele>354.0</ele><time>2026-03-29T18:09:08.582Z</time></trkpt><trkpt lat="38.7023733" lon="16.154835"><ele>349.5</ele><time>2026-03-29T18:09:09.582Z</time></trkpt><trkpt lat="38.7021083" lon="16.1550117"><ele>345.0</ele><time>2026-03-29T18:09:10.582Z</time></trkpt><trkpt lat="38.7018317" lon="16.1551783"><ele>343.5</ele><time>2026-03-29T18:09:11.582Z</time></trkpt><trkpt lat="38.7015517" lon="16.1552983"><ele>342.0</ele><time>2026-03-29T18:09:12.582Z</time></trkpt><trkpt lat="38.7012667" lon="16.1554017"><ele>344.5</ele><time>2026-03-29T18:09:13.582Z</time></trkpt><trkpt lat="38.7009783" lon="16.1554783"><ele>347.0</ele><time>2026-03-29T18:09:14.582Z</time></trkpt><trkpt lat="38.7006817" lon="16.1555333"><ele>347.0</ele><time>2026-03-29T18:09:15.582Z</time></trkpt><trkpt lat="38.7003833" lon="16.1555717"><ele>347.0</ele><time>2026-03-29T18:09:16.582Z</time></trkpt><trkpt lat="38.7000817" lon="16.1555883"><ele>344.5</ele><time>2026-03-29T18:09:17.582Z</time></trkpt><trkpt lat="38.699775" lon="16.1555767"><ele>342.0</ele><time>2026-03-29T18:09:18.582Z</time></trkpt><trkpt lat="38.6994767" lon="16.15554"><ele>339.5</ele><time>2026-03-29T18:09:19.582Z</time></trkpt><trkpt lat="38.6991867" lon="16.155495"><ele>337.0</ele><time>2026-03-29T18:09:20.582Z</time></trkpt><trkpt lat="38.69891" lon="16.155445"><ele>337.0</ele><time>2026-03-29T18:09:21.582Z</time></trkpt><trkpt lat="38.6986567" lon="16.15539"><ele>337.0</ele><time>2026-03-29T18:09:22.582Z</time></trkpt><trkpt lat="38.6983983" lon="16.155355"><ele>334.5</ele><time>2026-03-29T18:09:23.582Z</time></trkpt><trkpt lat="38.698125" lon="16.155355"><ele>332.0</ele><time>2026-03-29T18:09:24.582Z</time></trkpt><trkpt lat="38.6978483" lon="16.155375"><ele>329.5</ele><time>2026-03-29T18:09:25.582Z</time></trkpt><trkpt lat="38.697575" lon="16.1554217"><ele>327.0</ele><time>2026-03-29T18:09:26.582Z</time></trkpt><trkpt lat="38.6972933" lon="16.1554783"><ele>327.0</ele><time>2026-03-29T18:09:27.582Z</time></trkpt><trkpt lat="38.6970183" lon="16.155545"><ele>327.0</ele><time>2026-03-29T18:09:28.582Z</time></trkpt><trkpt lat="38.6967467" lon="16.1556233"><ele>327.5</ele><time>2026-03-29T18:09:29.582Z</time></trkpt><trkpt lat="38.696465" lon="16.1556967"><ele>328.0</ele><time>2026-03-29T18:09:30.582Z</time></trkpt><trkpt lat="38.6961717" lon="16.1557767"><ele>326.5</ele><time>2026-03-29T18:09:31.582Z</time></trkpt><trkpt lat="38.6958633" lon="16.1558583"><ele>325.0</ele><time>2026-03-29T18:09:32.582Z</time></trkpt><trkpt lat="38.6955517" lon="16.155945"><ele>324.0</ele><time>2026-03-29T18:09:33.582Z</time></trkpt><trkpt lat="38.69524" lon="16.1560333"><ele>323.0</ele><time>2026-03-29T18:09:34.582Z</time></trkpt><trkpt lat="38.6949217" lon="16.1561233"><ele>323.0</ele><time>2026-03-29T18:09:35.582Z</time></trkpt><trkpt lat="38.6946067" lon="16.1562117"><ele>323.0</ele><time>2026-03-29T18:09:36.582Z</time></trkpt><trkpt lat="38.6942883" lon="16.156295"><ele>322.5</ele><time>2026-03-29T18:09:37.582Z</time></trkpt><trkpt lat="38.6939717" lon="16.1563817"><ele>322.0</ele><time>2026-03-29T18:09:38.582Z</time></trkpt><trkpt lat="38.6936533" lon="16.1564717"><ele>318.0</ele><time>2026-03-29T18:09:39.582Z</time></trkpt><trkpt lat="38.69333" lon="16.1565633"><ele>314.0</ele><time>2026-03-29T18:09:40.582Z</time></trkpt><trkpt lat="38.693015" lon="16.1566567"><ele>311.5</ele><time>2026-03-29T18:09:41.582Z</time></trkpt><trkpt lat="38.6927" lon="16.15674"><ele>309.0</ele><time>2026-03-29T18:09:42.582Z</time></trkpt><trkpt lat="38.6924017" lon="16.156815"><ele>309.0</ele><time>2026-03-29T18:09:43.582Z</time></trkpt><trkpt lat="38.692115" lon="16.1568967"><ele>309.0</ele><time>2026-03-29T18:09:44.582Z</time></trkpt><trkpt lat="38.69183" lon="16.1569867"><ele>308.0</ele><time>2026-03-29T18:09:45.582Z</time></trkpt><trkpt lat="38.6915483" lon="16.15708"><ele>307.0</ele><time>2026-03-29T18:09:46.582Z</time></trkpt><trkpt lat="38.6912767" lon="16.15718"><ele>306.0</ele><time>2026-03-29T18:09:47.582Z</time></trkpt><trkpt lat="38.691015" lon="16.1572833"><ele>305.0</ele><time>2026-03-29T18:09:48.582Z</time></trkpt><trkpt lat="38.69076" lon="16.1574067"><ele>305.0</ele><time>2026-03-29T18:09:49.582Z</time></trkpt><trkpt lat="38.690515" lon="16.1575217"><ele>305.0</ele><time>2026-03-29T18:09:50.582Z</time></trkpt><trkpt lat="38.6902767" lon="16.1576483"><ele>307.5</ele><time>2026-03-29T18:09:51.582Z</time></trkpt><trkpt lat="38.6900367" lon="16.1577933"><ele>310.0</ele><time>2026-03-29T18:09:52.582Z</time></trkpt><trkpt lat="38.6898033" lon="16.1579533"><ele>310.0</ele><time>2026-03-29T18:09:53.582Z</time></trkpt><trkpt lat="38.6895833" lon="16.1581083"><ele>310.0</ele><time>2026-03-29T18:09:54.582Z</time></trkpt><trkpt lat="38.6893733" lon="16.1582717"><ele>303.5</ele><time>2026-03-29T18:09:55.582Z</time></trkpt><trkpt lat="38.6891567" lon="16.1584417"><ele>297.0</ele><time>2026-03-29T18:09:56.582Z</time></trkpt><trkpt lat="38.688945" lon="16.158615"><ele>297.0</ele><time>2026-03-29T18:09:57.582Z</time></trkpt><trkpt lat="38.68874" lon="16.1587917"><ele>297.0</ele><time>2026-03-29T18:09:58.582Z</time></trkpt><trkpt lat="38.688545" lon="16.1589833"><ele>295.5</ele><time>2026-03-29T18:09:59.582Z</time></trkpt><trkpt lat="38.6883433" lon="16.15917"><ele>294.0</ele><time>2026-03-29T18:10:00.582Z</time></trkpt><trkpt lat="38.688145" lon="16.15936"><ele>294.0</ele><time>2026-03-29T18:10:01.582Z</time></trkpt><trkpt lat="38.6879533" lon="16.1595583"><ele>294.0</ele><time>2026-03-29T18:10:02.582Z</time></trkpt><trkpt lat="38.6877617" lon="16.1597483"><ele>293.0</ele><time>2026-03-29T18:10:03.582Z</time></trkpt><trkpt lat="38.6875633" lon="16.15994"><ele>292.0</ele><time>2026-03-29T18:10:04.582Z</time></trkpt><trkpt lat="38.6873717" lon="16.16014"><ele>292.0</ele><time>2026-03-29T18:10:05.582Z</time></trkpt><trkpt lat="38.6871883" lon="16.1603367"><ele>292.0</ele><time>2026-03-29T18:10:06.582Z</time></trkpt><trkpt lat="38.68701" lon="16.1605333"><ele>284.5</ele><time>2026-03-29T18:10:07.582Z</time></trkpt><trkpt lat="38.686825" lon="16.1607283"><ele>277.0</ele><time>2026-03-29T18:10:08.582Z</time></trkpt><trkpt lat="38.6866283" lon="16.1609167"><ele>277.0</ele><time>2026-03-29T18:10:09.582Z</time></trkpt><trkpt lat="38.6864233" lon="16.1611117"><ele>277.0</ele><time>2026-03-29T18:10:10.582Z</time></trkpt><trkpt lat="38.6862317" lon="16.1613083"><ele>273.5</ele><time>2026-03-29T18:10:11.582Z</time></trkpt><trkpt lat="38.6860333" lon="16.1615017"><ele>270.0</ele><time>2026-03-29T18:10:12.582Z</time></trkpt><trkpt lat="38.6858417" lon="16.1616967"><ele>270.0</ele><time>2026-03-29T18:10:13.582Z</time></trkpt><trkpt lat="38.6856517" lon="16.1618933"><ele>270.0</ele><time>2026-03-29T18:10:14.582Z</time></trkpt><trkpt lat="38.6854567" lon="16.1620933"><ele>270.0</ele><time>2026-03-29T18:10:15.582Z</time></trkpt><trkpt lat="38.68527" lon="16.1622767"><ele>270.0</ele><time>2026-03-29T18:10:16.582Z</time></trkpt><trkpt lat="38.6850783" lon="16.1624667"><ele>274.5</ele><time>2026-03-29T18:10:17.582Z</time></trkpt><trkpt lat="38.6848883" lon="16.162665"><ele>279.0</ele><time>2026-03-29T18:10:18.582Z</time></trkpt><trkpt lat="38.6847033" lon="16.1628633"><ele>279.0</ele><time>2026-03-29T18:10:19.582Z</time></trkpt><trkpt lat="38.6845217" lon="16.1630617"><ele>279.0</ele><time>2026-03-29T18:10:20.582Z</time></trkpt><trkpt lat="38.68435" lon="16.1632717"><ele>276.5</ele><time>2026-03-29T18:10:21.582Z</time></trkpt><trkpt lat="38.68418" lon="16.1634817"><ele>274.0</ele><time>2026-03-29T18:10:22.582Z</time></trkpt><trkpt lat="38.684025" lon="16.1637017"><ele>274.0</ele><time>2026-03-29T18:10:23.582Z</time></trkpt><trkpt lat="38.6838733" lon="16.1639267"><ele>274.0</ele><time>2026-03-29T18:10:24.582Z</time></trkpt><trkpt lat="38.683735" lon="16.16416"><ele>265.5</ele><time>2026-03-29T18:10:25.582Z</time></trkpt><trkpt lat="38.6835833" lon="16.1644117"><ele>257.0</ele><time>2026-03-29T18:10:26.582Z</time></trkpt><trkpt lat="38.68344" lon="16.1646667"><ele>256.0</ele><time>2026-03-29T18:10:27.582Z</time></trkpt><trkpt lat="38.6833" lon="16.164935"><ele>255.0</ele><time>2026-03-29T18:10:28.582Z</time></trkpt><trkpt lat="38.6831667" lon="16.1652033"><ele>255.0</ele><time>2026-03-29T18:10:29.582Z</time></trkpt><trkpt lat="38.683045" lon="16.16548"><ele>255.0</ele><time>2026-03-29T18:10:30.582Z</time></trkpt><trkpt lat="38.68293" lon="16.1657617"><ele>252.5</ele><time>2026-03-29T18:10:31.582Z</time></trkpt><trkpt lat="38.6828133" lon="16.166055"><ele>250.0</ele><time>2026-03-29T18:10:32.582Z</time></trkpt><trkpt lat="38.6826967" lon="16.1663567"><ele>254.0</ele><time>2026-03-29T18:10:33.582Z</time></trkpt><trkpt lat="38.68258" lon="16.1666717"><ele>258.0</ele><time>2026-03-29T18:10:34.582Z</time></trkpt><trkpt lat="38.6824617" lon="16.1669817"><ele>258.0</ele><time>2026-03-29T18:10:35.582Z</time></trkpt><trkpt lat="38.682335" lon="16.16731"><ele>258.0</ele><time>2026-03-29T18:10:36.582Z</time></trkpt><trkpt lat="38.68221" lon="16.1676517"><ele>254.0</ele><time>2026-03-29T18:10:37.583Z</time></trkpt><trkpt lat="38.682075" lon="16.1679933"><ele>250.0</ele><time>2026-03-29T18:10:38.582Z</time></trkpt><trkpt lat="38.6819333" lon="16.168345"><ele>248.0</ele><time>2026-03-29T18:10:39.582Z</time></trkpt><trkpt lat="38.68178" lon="16.168705"><ele>246.0</ele><time>2026-03-29T18:10:40.582Z</time></trkpt><trkpt lat="38.68162" lon="16.1690633"><ele>246.0</ele><time>2026-03-29T18:10:41.582Z</time></trkpt><trkpt lat="38.6814583" lon="16.1694283"><ele>246.0</ele><time>2026-03-29T18:10:42.582Z</time></trkpt><trkpt lat="38.681285" lon="16.1697833"><ele>239.5</ele><time>2026-03-29T18:10:43.582Z</time></trkpt><trkpt lat="38.68111" lon="16.1701333"><ele>233.0</ele><time>2026-03-29T18:10:44.582Z</time></trkpt><trkpt lat="38.680935" lon="16.1704783"><ele>230.5</ele><time>2026-03-29T18:10:45.582Z</time></trkpt><trkpt lat="38.68075" lon="16.1708217"><ele>228.0</ele><time>2026-03-29T18:10:46.582Z</time></trkpt><trkpt lat="38.680565" lon="16.171155"><ele>228.0</ele><time>2026-03-29T18:10:47.582Z</time></trkpt><trkpt lat="38.680375" lon="16.171485"><ele>228.0</ele><time>2026-03-29T18:10:48.582Z</time></trkpt><trkpt lat="38.68018" lon="16.1718083"><ele>228.0</ele><time>2026-03-29T18:10:49.582Z</time></trkpt><trkpt lat="38.6799917" lon="16.1721267"><ele>228.0</ele><time>2026-03-29T18:10:50.582Z</time></trkpt><trkpt lat="38.6797933" lon="16.17244"><ele>228.0</ele><time>2026-03-29T18:10:51.582Z</time></trkpt><trkpt lat="38.6795883" lon="16.172745"><ele>228.0</ele><time>2026-03-29T18:10:52.582Z</time></trkpt><trkpt lat="38.679375" lon="16.17305"><ele>214.0</ele><time>2026-03-29T18:10:53.582Z</time></trkpt><trkpt lat="38.6791567" lon="16.1733583"><ele>200.0</ele><time>2026-03-29T18:10:54.582Z</time></trkpt><trkpt lat="38.6789317" lon="16.1736633"><ele>200.0</ele><time>2026-03-29T18:10:55.582Z</time></trkpt><trkpt lat="38.6787" lon="16.1739667"><ele>200.0</ele><time>2026-03-29T18:10:56.582Z</time></trkpt><trkpt lat="38.67846" lon="16.1742683"><ele>199.0</ele><time>2026-03-29T18:10:57.582Z</time></trkpt><trkpt lat="38.6782233" lon="16.1745667"><ele>198.0</ele><time>2026-03-29T18:10:58.582Z</time></trkpt><trkpt lat="38.6779717" lon="16.174875"><ele>207.0</ele><time>2026-03-29T18:10:59.582Z</time></trkpt><trkpt lat="38.67772" lon="16.17517"><ele>216.0</ele><time>2026-03-29T18:11:00.583Z</time></trkpt><trkpt lat="38.6774617" lon="16.1754633"><ele>214.5</ele><time>2026-03-29T18:11:01.582Z</time></trkpt><trkpt lat="38.6772067" lon="16.1757483"><ele>213.0</ele><time>2026-03-29T18:11:02.582Z</time></trkpt><trkpt lat="38.67694" lon="16.176035"><ele>215.0</ele><time>2026-03-29T18:11:03.582Z</time></trkpt><trkpt lat="38.676665" lon="16.17632"><ele>217.0</ele><time>2026-03-29T18:11:04.583Z</time></trkpt><trkpt lat="38.6763883" lon="16.1766017"><ele>217.0</ele><time>2026-03-29T18:11:05.582Z</time></trkpt><trkpt lat="38.6761033" lon="16.17688"><ele>217.0</ele><time>2026-03-29T18:11:06.582Z</time></trkpt><trkpt lat="38.6758" lon="16.17717"><ele>217.0</ele><time>2026-03-29T18:11:07.582Z</time></trkpt><trkpt lat="38.6755017" lon="16.1774517"><ele>217.0</ele><time>2026-03-29T18:11:08.582Z</time></trkpt><trkpt lat="38.67521" lon="16.17773"><ele>217.0</ele><time>2026-03-29T18:11:09.582Z</time></trkpt><trkpt lat="38.6749117" lon="16.178005"><ele>217.0</ele><time>2026-03-29T18:11:10.582Z</time></trkpt><trkpt lat="38.674605" lon="16.17828"><ele>217.5</ele><time>2026-03-29T18:11:11.582Z</time></trkpt><trkpt lat="38.6743017" lon="16.17855"><ele>218.0</ele><time>2026-03-29T18:11:12.582Z</time></trkpt><trkpt lat="38.67401" lon="16.1788217"><ele>211.0</ele><time>2026-03-29T18:11:13.582Z</time></trkpt><trkpt lat="38.6737133" lon="16.17909"><ele>204.0</ele><time>2026-03-29T18:11:14.582Z</time></trkpt><trkpt lat="38.6734233" lon="16.179365"><ele>204.0</ele><time>2026-03-29T18:11:15.582Z</time></trkpt><trkpt lat="38.6731217" lon="16.1796417"><ele>204.0</ele><time>2026-03-29T18:11:16.582Z</time></trkpt><trkpt lat="38.67282" lon="16.179925"><ele>197.5</ele><time>2026-03-29T18:11:17.582Z</time></trkpt><trkpt lat="38.6725133" lon="16.1802"><ele>191.0</ele><time>2026-03-29T18:11:18.582Z</time></trkpt><trkpt lat="38.6722183" lon="16.18048"><ele>195.5</ele><time>2026-03-29T18:11:19.582Z</time></trkpt><trkpt lat="38.6719267" lon="16.1807583"><ele>200.0</ele><time>2026-03-29T18:11:20.582Z</time></trkpt><trkpt lat="38.671625" lon="16.1810317"><ele>200.0</ele><time>2026-03-29T18:11:21.582Z</time></trkpt><trkpt lat="38.6713317" lon="16.1813033"><ele>200.0</ele><time>2026-03-29T18:11:22.582Z</time></trkpt><trkpt lat="38.6710333" lon="16.1815717"><ele>198.5</ele><time>2026-03-29T18:11:23.582Z</time></trkpt><trkpt lat="38.6707317" lon="16.181855"><ele>197.0</ele><time>2026-03-29T18:11:24.582Z</time></trkpt><trkpt lat="38.6704267" lon="16.182135"><ele>196.5</ele><time>2026-03-29T18:11:25.582Z</time></trkpt><trkpt lat="38.670125" lon="16.182405"><ele>196.0</ele><time>2026-03-29T18:11:26.582Z</time></trkpt><trkpt lat="38.6698233" lon="16.1826833"><ele>196.0</ele><time>2026-03-29T18:11:27.582Z</time></trkpt><trkpt lat="38.6695283" lon="16.1829733"><ele>196.0</ele><time>2026-03-29T18:11:28.583Z</time></trkpt><trkpt lat="38.6692283" lon="16.1832517"><ele>195.5</ele><time>2026-03-29T18:11:29.582Z</time></trkpt><trkpt lat="38.6689183" lon="16.18352"><ele>195.0</ele><time>2026-03-29T18:11:30.582Z</time></trkpt><trkpt lat="38.668605" lon="16.1837817"><ele>186.5</ele><time>2026-03-29T18:11:31.582Z</time></trkpt><trkpt lat="38.66829" lon="16.1840283"><ele>178.0</ele><time>2026-03-29T18:11:32.582Z</time></trkpt><trkpt lat="38.6679667" lon="16.184265"><ele>180.5</ele><time>2026-03-29T18:11:33.582Z</time></trkpt><trkpt lat="38.6676333" lon="16.1844983"><ele>183.0</ele><time>2026-03-29T18:11:34.582Z</time></trkpt><trkpt lat="38.6672783" lon="16.18472"><ele>176.0</ele><time>2026-03-29T18:11:35.582Z</time></trkpt><trkpt lat="38.666925" lon="16.1849283"><ele>169.0</ele><time>2026-03-29T18:11:36.582Z</time></trkpt><trkpt lat="38.66657" lon="16.18513"><ele>169.0</ele><time>2026-03-29T18:11:37.582Z</time></trkpt><trkpt lat="38.6662117" lon="16.1853267"><ele>169.0</ele><time>2026-03-29T18:11:38.583Z</time></trkpt><trkpt lat="38.6658483" lon="16.185505"><ele>169.0</ele><time>2026-03-29T18:11:39.582Z</time></trkpt><trkpt lat="38.6654883" lon="16.1856833"><ele>169.0</ele><time>2026-03-29T18:11:40.582Z</time></trkpt><trkpt lat="38.6651317" lon="16.18585"><ele>169.0</ele><time>2026-03-29T18:11:41.582Z</time></trkpt><trkpt lat="38.6647833" lon="16.1860067"><ele>169.0</ele><time>2026-03-29T18:11:42.583Z</time></trkpt><trkpt lat="38.6644483" lon="16.1861567"><ele>176.0</ele><time>2026-03-29T18:11:43.582Z</time></trkpt><trkpt lat="38.6641167" lon="16.18631"><ele>183.0</ele><time>2026-03-29T18:11:44.582Z</time></trkpt><trkpt lat="38.66377" lon="16.18646"><ele>180.5</ele><time>2026-03-29T18:11:45.582Z</time></trkpt><trkpt lat="38.6634367" lon="16.1866083"><ele>178.0</ele><time>2026-03-29T18:11:46.582Z</time></trkpt><trkpt lat="38.6631033" lon="16.1867517"><ele>177.5</ele><time>2026-03-29T18:11:47.582Z</time></trkpt><trkpt lat="38.6627683" lon="16.186895"><ele>177.0</ele><time>2026-03-29T18:11:48.582Z</time></trkpt><trkpt lat="38.6624383" lon="16.1870333"><ele>177.0</ele><time>2026-03-29T18:11:49.582Z</time></trkpt><trkpt lat="38.6621067" lon="16.187175"><ele>177.0</ele><time>2026-03-29T18:11:50.582Z</time></trkpt><trkpt lat="38.6618367" lon="16.1873783"><ele>176.0</ele><time>2026-03-29T18:11:51.582Z</time></trkpt><trkpt lat="38.6615283" lon="16.1875283"><ele>175.0</ele><time>2026-03-29T18:11:52.582Z</time></trkpt><trkpt lat="38.6612517" lon="16.1876517"><ele>175.0</ele><time>2026-03-29T18:11:53.582Z</time></trkpt><trkpt lat="38.6609433" lon="16.18779"><ele>175.0</ele><time>2026-03-29T18:11:54.582Z</time></trkpt><trkpt lat="38.6606483" lon="16.1879233"><ele>175.0</ele><time>2026-03-29T18:11:55.582Z</time></trkpt><trkpt lat="38.66035" lon="16.1880533"><ele>175.0</ele><time>2026-03-29T18:11:56.582Z</time></trkpt><trkpt lat="38.660045" lon="16.1881767"><ele>169.5</ele><time>2026-03-29T18:11:57.582Z</time></trkpt><trkpt lat="38.6597467" lon="16.1882917"><ele>164.0</ele><time>2026-03-29T18:11:58.582Z</time></trkpt><trkpt lat="38.6594383" lon="16.1883983"><ele>164.0</ele><time>2026-03-29T18:11:59.582Z</time></trkpt><trkpt lat="38.6591383" lon="16.1885033"><ele>164.0</ele><time>2026-03-29T18:12:00.582Z</time></trkpt><trkpt lat="38.6588417" lon="16.1885967"><ele>163.5</ele><time>2026-03-29T18:12:01.582Z</time></trkpt><trkpt lat="38.6585383" lon="16.1886817"><ele>163.0</ele><time>2026-03-29T18:12:02.582Z</time></trkpt><trkpt lat="38.6582267" lon="16.1887533"><ele>163.0</ele><time>2026-03-29T18:12:03.582Z</time></trkpt><trkpt lat="38.6579133" lon="16.188825"><ele>163.0</ele><time>2026-03-29T18:12:04.582Z</time></trkpt><trkpt lat="38.6576" lon="16.1888767"><ele>169.0</ele><time>2026-03-29T18:12:05.582Z</time></trkpt><trkpt lat="38.6572767" lon="16.1889283"><ele>175.0</ele><time>2026-03-29T18:12:06.582Z</time></trkpt><trkpt lat="38.6569567" lon="16.1889683"><ele>179.5</ele><time>2026-03-29T18:12:07.582Z</time></trkpt><trkpt lat="38.6566317" lon="16.1889917"><ele>184.0</ele><time>2026-03-29T18:12:08.582Z</time></trkpt><trkpt lat="38.6563117" lon="16.1890017"><ele>182.0</ele><time>2026-03-29T18:12:09.582Z</time></trkpt><trkpt lat="38.655985" lon="16.1890083"><ele>180.0</ele><time>2026-03-29T18:12:10.582Z</time></trkpt><trkpt lat="38.65566" lon="16.18901"><ele>192.0</ele><time>2026-03-29T18:12:11.582Z</time></trkpt><trkpt lat="38.6553367" lon="16.189005"><ele>204.0</ele><time>2026-03-29T18:12:12.582Z</time></trkpt><trkpt lat="38.6550083" lon="16.1890033"><ele>220.5</ele><time>2026-03-29T18:12:13.582Z</time></trkpt><trkpt lat="38.6546767" lon="16.1890033"><ele>237.0</ele><time>2026-03-29T18:12:14.582Z</time></trkpt><trkpt lat="38.6509017" lon="16.187605"><ele>192.5</ele><time>2026-03-29T18:12:26.578Z</time></trkpt><trkpt lat="38.6505267" lon="16.18738"><ele>148.0</ele><time>2026-03-29T18:12:27.578Z</time></trkpt><trkpt lat="38.6501933" lon="16.1871733"><ele>147.5</ele><time>2026-03-29T18:12:28.578Z</time></trkpt><trkpt lat="38.649865" lon="16.1869617"><ele>147.0</ele><time>2026-03-29T18:12:29.578Z</time></trkpt><trkpt lat="38.64955" lon="16.186745"><ele>147.0</ele><time>2026-03-29T18:12:30.578Z</time></trkpt><trkpt lat="38.6492483" lon="16.1865417"><ele>147.0</ele><time>2026-03-29T18:12:31.578Z</time></trkpt><trkpt lat="38.64895" lon="16.1863417"><ele>147.0</ele><time>2026-03-29T18:12:32.578Z</time></trkpt><trkpt lat="38.6486567" lon="16.1861333"><ele>147.0</ele><time>2026-03-29T18:12:33.578Z</time></trkpt><trkpt lat="38.64836" lon="16.185925"><ele>145.5</ele><time>2026-03-29T18:12:34.578Z</time></trkpt><trkpt lat="38.6480617" lon="16.1857183"><ele>144.0</ele><time>2026-03-29T18:12:35.578Z</time></trkpt><trkpt lat="38.6477583" lon="16.1855167"><ele>144.0</ele><time>2026-03-29T18:12:36.578Z</time></trkpt><trkpt lat="38.64746" lon="16.1853217"><ele>144.0</ele><time>2026-03-29T18:12:37.578Z</time></trkpt><trkpt lat="38.647165" lon="16.1851133"><ele>143.5</ele><time>2026-03-29T18:12:38.578Z</time></trkpt><trkpt lat="38.6468567" lon="16.1849117"><ele>143.0</ele><time>2026-03-29T18:12:39.578Z</time></trkpt><trkpt lat="38.646545" lon="16.1847017"><ele>142.5</ele><time>2026-03-29T18:12:40.579Z</time></trkpt><trkpt lat="38.64622" lon="16.1845"><ele>142.0</ele><time>2026-03-29T18:12:41.578Z</time></trkpt><trkpt lat="38.6459017" lon="16.1842917"><ele>141.5</ele><time>2026-03-29T18:12:42.578Z</time></trkpt><trkpt lat="38.6455933" lon="16.184075"><ele>141.0</ele><time>2026-03-29T18:12:43.578Z</time></trkpt><trkpt lat="38.6452783" lon="16.18386"><ele>141.0</ele><time>2026-03-29T18:12:44.578Z</time></trkpt><trkpt lat="38.6449767" lon="16.1836433"><ele>141.0</ele><time>2026-03-29T18:12:45.578Z</time></trkpt><trkpt lat="38.6446833" lon="16.1834267"><ele>141.0</ele><time>2026-03-29T18:12:46.578Z</time></trkpt><trkpt lat="38.6443883" lon="16.18321"><ele>141.0</ele><time>2026-03-29T18:12:47.578Z</time></trkpt><trkpt lat="38.6441033" lon="16.1829983"><ele>141.0</ele><time>2026-03-29T18:12:48.578Z</time></trkpt><trkpt lat="38.6438167" lon="16.182795"><ele>141.0</ele><time>2026-03-29T18:12:49.578Z</time></trkpt><trkpt lat="38.6435283" lon="16.182585"><ele>141.0</ele><time>2026-03-29T18:12:50.578Z</time></trkpt><trkpt lat="38.6432433" lon="16.1823717"><ele>141.0</ele><time>2026-03-29T18:12:51.579Z</time></trkpt><trkpt lat="38.6429567" lon="16.182155"><ele>140.0</ele><time>2026-03-29T18:12:52.578Z</time></trkpt><trkpt lat="38.6426633" lon="16.18193"><ele>139.0</ele><time>2026-03-29T18:12:53.578Z</time></trkpt><trkpt lat="38.6423833" lon="16.1817033"><ele>138.5</ele><time>2026-03-29T18:12:54.578Z</time></trkpt><trkpt lat="38.642095" lon="16.181465"><ele>138.0</ele><time>2026-03-29T18:12:55.578Z</time></trkpt><trkpt lat="38.6418033" lon="16.1812267"><ele>138.0</ele><time>2026-03-29T18:12:56.578Z</time></trkpt><trkpt lat="38.6415083" lon="16.180975"><ele>138.0</ele><time>2026-03-29T18:12:57.578Z</time></trkpt><trkpt lat="38.6412083" lon="16.1807367"><ele>138.0</ele><time>2026-03-29T18:12:58.578Z</time></trkpt><trkpt lat="38.6409267" lon="16.18048"><ele>138.0</ele><time>2026-03-29T18:12:59.579Z</time></trkpt><trkpt lat="38.640645" lon="16.1802183"><ele>138.0</ele><time>2026-03-29T18:13:00.578Z</time></trkpt><trkpt lat="38.64036" lon="16.1799483"><ele>138.0</ele><time>2026-03-29T18:13:01.578Z</time></trkpt><trkpt lat="38.6400783" lon="16.1796683"><ele>137.5</ele><time>2026-03-29T18:13:02.578Z</time></trkpt><trkpt lat="38.6398033" lon="16.1793833"><ele>137.0</ele><time>2026-03-29T18:13:03.578Z</time></trkpt><trkpt lat="38.6395233" lon="16.1790933"><ele>136.5</ele><time>2026-03-29T18:13:04.578Z</time></trkpt><trkpt lat="38.6392483" lon="16.178805"><ele>136.0</ele><time>2026-03-29T18:13:05.578Z</time></trkpt><trkpt lat="38.638985" lon="16.17851"><ele>136.0</ele><time>2026-03-29T18:13:06.578Z</time></trkpt><trkpt lat="38.6387217" lon="16.1782167"><ele>136.0</ele><time>2026-03-29T18:13:07.578Z</time></trkpt><trkpt lat="38.6384583" lon="16.177915"><ele>135.5</ele><time>2026-03-29T18:13:08.578Z</time></trkpt><trkpt lat="38.638205" lon="16.1776183"><ele>135.0</ele><time>2026-03-29T18:13:09.578Z</time></trkpt><trkpt lat="38.6379517" lon="16.1773183"><ele>134.5</ele><time>2026-03-29T18:13:10.578Z</time></trkpt><trkpt lat="38.6377" lon="16.1770183"><ele>134.0</ele><time>2026-03-29T18:13:11.578Z</time></trkpt><trkpt lat="38.63745" lon="16.1767183"><ele>133.0</ele><time>2026-03-29T18:13:12.578Z</time></trkpt><trkpt lat="38.6372033" lon="16.1764183"><ele>132.0</ele><time>2026-03-29T18:13:13.578Z</time></trkpt><trkpt lat="38.6369633" lon="16.1761083"><ele>132.0</ele><time>2026-03-29T18:13:14.578Z</time></trkpt><trkpt lat="38.6367217" lon="16.175795"><ele>132.0</ele><time>2026-03-29T18:13:15.578Z</time></trkpt><trkpt lat="38.6364867" lon="16.175475"><ele>132.0</ele><time>2026-03-29T18:13:16.578Z</time></trkpt><trkpt lat="38.636255" lon="16.175155"><ele>132.0</ele><time>2026-03-29T18:13:17.578Z</time></trkpt><trkpt lat="38.6360333" lon="16.17483"><ele>132.0</ele><time>2026-03-29T18:13:18.578Z</time></trkpt><trkpt lat="38.6358083" lon="16.174505"><ele>132.0</ele><time>2026-03-29T18:13:19.578Z</time></trkpt><trkpt lat="38.6355917" lon="16.174165"><ele>131.5</ele><time>2026-03-29T18:13:20.578Z</time></trkpt><trkpt lat="38.6353717" lon="16.17383"><ele>131.0</ele><time>2026-03-29T18:13:21.578Z</time></trkpt><trkpt lat="38.635155" lon="16.1734917"><ele>131.0</ele><time>2026-03-29T18:13:22.578Z</time></trkpt><trkpt lat="38.6349467" lon="16.1731483"><ele>131.0</ele><time>2026-03-29T18:13:23.578Z</time></trkpt><trkpt lat="38.6347433" lon="16.1728033"><ele>131.0</ele><time>2026-03-29T18:13:24.578Z</time></trkpt><trkpt lat="38.63454" lon="16.1724633"><ele>131.0</ele><time>2026-03-29T18:13:25.578Z</time></trkpt><trkpt lat="38.6343383" lon="16.1721167"><ele>131.5</ele><time>2026-03-29T18:13:26.578Z</time></trkpt><trkpt lat="38.6341333" lon="16.1717667"><ele>132.0</ele><time>2026-03-29T18:13:27.578Z</time></trkpt><trkpt lat="38.6339383" lon="16.171415"><ele>132.0</ele><time>2026-03-29T18:13:28.578Z</time></trkpt><trkpt lat="38.6337433" lon="16.1710617"><ele>132.0</ele><time>2026-03-29T18:13:29.578Z</time></trkpt><trkpt lat="38.63355" lon="16.1707033"><ele>130.5</ele><time>2026-03-29T18:13:30.578Z</time></trkpt><trkpt lat="38.63336" lon="16.1703533"><ele>129.0</ele><time>2026-03-29T18:13:31.578Z</time></trkpt><trkpt lat="38.6331717" lon="16.1700017"><ele>129.0</ele><time>2026-03-29T18:13:32.578Z</time></trkpt><trkpt lat="38.63299" lon="16.169645"><ele>129.0</ele><time>2026-03-29T18:13:33.578Z</time></trkpt><trkpt lat="38.632815" lon="16.169295"><ele>129.0</ele><time>2026-03-29T18:13:34.578Z</time></trkpt><trkpt lat="38.6326317" lon="16.1689433"><ele>129.0</ele><time>2026-03-29T18:13:35.579Z</time></trkpt><trkpt lat="38.6324367" lon="16.168585"><ele>129.0</ele><time>2026-03-29T18:13:36.578Z</time></trkpt><trkpt lat="38.6322483" lon="16.1682317"><ele>129.0</ele><time>2026-03-29T18:13:37.578Z</time></trkpt><trkpt lat="38.6320633" lon="16.1678867"><ele>129.0</ele><time>2026-03-29T18:13:38.578Z</time></trkpt><trkpt lat="38.63187" lon="16.1675433"><ele>129.0</ele><time>2026-03-29T18:13:39.578Z</time></trkpt><trkpt lat="38.6316783" lon="16.167225"><ele>129.0</ele><time>2026-03-29T18:13:40.579Z</time></trkpt><trkpt lat="38.631485" lon="16.16691"><ele>129.0</ele><time>2026-03-29T18:13:41.578Z</time></trkpt><trkpt lat="38.6312833" lon="16.1665933"><ele>129.5</ele><time>2026-03-29T18:13:42.578Z</time></trkpt><trkpt lat="38.6310833" lon="16.1662917"><ele>130.0</ele><time>2026-03-29T18:13:43.578Z</time></trkpt><trkpt lat="38.6308833" lon="16.1659933"><ele>130.0</ele><time>2026-03-29T18:13:44.578Z</time></trkpt><trkpt lat="38.6306717" lon="16.1656983"><ele>130.0</ele><time>2026-03-29T18:13:45.578Z</time></trkpt><trkpt lat="38.6304617" lon="16.1654133"><ele>129.0</ele><time>2026-03-29T18:13:46.578Z</time></trkpt><trkpt lat="38.6302417" lon="16.1651367"><ele>128.0</ele><time>2026-03-29T18:13:47.578Z</time></trkpt><trkpt lat="38.6300083" lon="16.164865"><ele>126.5</ele><time>2026-03-29T18:13:48.578Z</time></trkpt><trkpt lat="38.6297767" lon="16.1645967"><ele>125.0</ele><time>2026-03-29T18:13:49.578Z</time></trkpt><trkpt lat="38.6295483" lon="16.1643367"><ele>125.5</ele><time>2026-03-29T18:13:50.578Z</time></trkpt><trkpt lat="38.6293117" lon="16.1640833"><ele>126.0</ele><time>2026-03-29T18:13:51.578Z</time></trkpt><trkpt lat="38.6290667" lon="16.1638333"><ele>125.0</ele><time>2026-03-29T18:13:52.578Z</time></trkpt><trkpt lat="38.62883" lon="16.1635883"><ele>124.0</ele><time>2026-03-29T18:13:53.578Z</time></trkpt><trkpt lat="38.6285883" lon="16.16335"><ele>123.0</ele><time>2026-03-29T18:13:54.578Z</time></trkpt><trkpt lat="38.6283433" lon="16.1631167"><ele>122.0</ele><time>2026-03-29T18:13:55.578Z</time></trkpt><trkpt lat="38.628085" lon="16.1628967"><ele>122.0</ele><time>2026-03-29T18:13:56.578Z</time></trkpt><trkpt lat="38.6278217" lon="16.16268"><ele>122.0</ele><time>2026-03-29T18:13:57.578Z</time></trkpt><trkpt lat="38.6275567" lon="16.1624717"><ele>121.5</ele><time>2026-03-29T18:13:58.578Z</time></trkpt><trkpt lat="38.627285" lon="16.1622683"><ele>121.0</ele><time>2026-03-29T18:13:59.578Z</time></trkpt><trkpt lat="38.6270083" lon="16.1620733"><ele>121.5</ele><time>2026-03-29T18:14:00.578Z</time></trkpt><trkpt lat="38.6267417" lon="16.1618867"><ele>122.0</ele><time>2026-03-29T18:14:01.578Z</time></trkpt><trkpt lat="38.62647" lon="16.1617"><ele>122.0</ele><time>2026-03-29T18:14:02.578Z</time></trkpt><trkpt lat="38.6261817" lon="16.16152"><ele>122.0</ele><time>2026-03-29T18:14:03.578Z</time></trkpt><trkpt lat="38.6258983" lon="16.161345"><ele>121.0</ele><time>2026-03-29T18:14:04.578Z</time></trkpt><trkpt lat="38.6256133" lon="16.1611817"><ele>120.0</ele><time>2026-03-29T18:14:05.578Z</time></trkpt><trkpt lat="38.625335" lon="16.1610283"><ele>121.5</ele><time>2026-03-29T18:14:06.578Z</time></trkpt><trkpt lat="38.6250517" lon="16.1608867"><ele>123.0</ele><time>2026-03-29T18:14:07.578Z</time></trkpt><trkpt lat="38.6247717" lon="16.1607433"><ele>121.5</ele><time>2026-03-29T18:14:08.578Z</time></trkpt><trkpt lat="38.624475" lon="16.1606133"><ele>120.0</ele><time>2026-03-29T18:14:09.578Z</time></trkpt><trkpt lat="38.6241867" lon="16.1604917"><ele>120.0</ele><time>2026-03-29T18:14:10.578Z</time></trkpt><trkpt lat="38.6239" lon="16.16037"><ele>120.0</ele><time>2026-03-29T18:14:11.578Z</time></trkpt><trkpt lat="38.62362" lon="16.160255"><ele>122.0</ele><time>2026-03-29T18:14:12.578Z</time></trkpt><trkpt lat="38.62332" lon="16.16015"><ele>124.0</ele><time>2026-03-29T18:14:13.578Z</time></trkpt><trkpt lat="38.623025" lon="16.16005"><ele>124.5</ele><time>2026-03-29T18:14:14.578Z</time></trkpt><trkpt lat="38.6227333" lon="16.159945"><ele>125.0</ele><time>2026-03-29T18:14:15.578Z</time></trkpt><trkpt lat="38.6224283" lon="16.15984"><ele>121.5</ele><time>2026-03-29T18:14:16.578Z</time></trkpt><trkpt lat="38.6221233" lon="16.1597267"><ele>118.0</ele><time>2026-03-29T18:14:17.578Z</time></trkpt><trkpt lat="38.621825" lon="16.15962"><ele>116.0</ele><time>2026-03-29T18:14:18.578Z</time></trkpt><trkpt lat="38.6215267" lon="16.1595083"><ele>114.0</ele><time>2026-03-29T18:14:19.578Z</time></trkpt><trkpt lat="38.62123" lon="16.159395"><ele>115.0</ele><time>2026-03-29T18:14:20.578Z</time></trkpt><trkpt lat="38.6209283" lon="16.1592733"><ele>116.0</ele><time>2026-03-29T18:14:21.578Z</time></trkpt><trkpt lat="38.620625" lon="16.159145"><ele>116.0</ele><time>2026-03-29T18:14:22.578Z</time></trkpt><trkpt lat="38.6203317" lon="16.1590133"><ele>116.0</ele><time>2026-03-29T18:14:23.578Z</time></trkpt><trkpt lat="38.62002" lon="16.1588667"><ele>116.0</ele><time>2026-03-29T18:14:24.578Z</time></trkpt><trkpt lat="38.61973" lon="16.1587183"><ele>116.0</ele><time>2026-03-29T18:14:25.578Z</time></trkpt><trkpt lat="38.6194467" lon="16.1585567"><ele>116.5</ele><time>2026-03-29T18:14:26.578Z</time></trkpt><trkpt lat="38.6191483" lon="16.1583783"><ele>117.0</ele><time>2026-03-29T18:14:27.578Z</time></trkpt><trkpt lat="38.61886" lon="16.1581933"><ele>116.0</ele><time>2026-03-29T18:14:28.578Z</time></trkpt><trkpt lat="38.6185717" lon="16.1580233"><ele>115.0</ele><time>2026-03-29T18:14:29.578Z</time></trkpt><trkpt lat="38.6182917" lon="16.1578317"><ele>115.0</ele><time>2026-03-29T18:14:30.578Z</time></trkpt><trkpt lat="38.6180217" lon="16.1576233"><ele>115.0</ele><time>2026-03-29T18:14:31.578Z</time></trkpt><trkpt lat="38.6177517" lon="16.15742"><ele>115.5</ele><time>2026-03-29T18:14:32.578Z</time></trkpt><trkpt lat="38.6174817" lon="16.1572083"><ele>116.0</ele><time>2026-03-29T18:14:33.578Z</time></trkpt><trkpt lat="38.6172233" lon="16.1569933"><ele>115.0</ele><time>2026-03-29T18:14:34.578Z</time></trkpt><trkpt lat="38.616965" lon="16.156765"><ele>114.0</ele><time>2026-03-29T18:14:35.578Z</time></trkpt><trkpt lat="38.6167117" lon="16.1565283"><ele>114.0</ele><time>2026-03-29T18:14:36.578Z</time></trkpt><trkpt lat="38.61645" lon="16.1562833"><ele>114.0</ele><time>2026-03-29T18:14:37.578Z</time></trkpt><trkpt lat="38.6161983" lon="16.1560383"><ele>114.0</ele><time>2026-03-29T18:14:38.578Z</time></trkpt><trkpt lat="38.6159483" lon="16.155775"><ele>114.0</ele><time>2026-03-29T18:14:39.578Z</time></trkpt><trkpt lat="38.6156933" lon="16.1555083"><ele>114.0</ele><time>2026-03-29T18:14:40.578Z</time></trkpt><trkpt lat="38.615445" lon="16.15524"><ele>114.0</ele><time>2026-03-29T18:14:41.578Z</time></trkpt><trkpt lat="38.6151967" lon="16.1549683"><ele>115.0</ele><time>2026-03-29T18:14:42.578Z</time></trkpt><trkpt lat="38.61495" lon="16.15469"><ele>116.0</ele><time>2026-03-29T18:14:43.578Z</time></trkpt><trkpt lat="38.6147033" lon="16.154415"><ele>116.0</ele><time>2026-03-29T18:14:44.578Z</time></trkpt><trkpt lat="38.614465" lon="16.1541383"><ele>116.0</ele><time>2026-03-29T18:14:45.578Z</time></trkpt><trkpt lat="38.6142083" lon="16.1538633"><ele>115.5</ele><time>2026-03-29T18:14:46.578Z</time></trkpt><trkpt lat="38.6139517" lon="16.153585"><ele>115.0</ele><time>2026-03-29T18:14:47.578Z</time></trkpt><trkpt lat="38.6136967" lon="16.153315"><ele>114.5</ele><time>2026-03-29T18:14:48.578Z</time></trkpt><trkpt lat="38.6134317" lon="16.1530483"><ele>114.0</ele><time>2026-03-29T18:14:49.578Z</time></trkpt><trkpt lat="38.6131783" lon="16.1527867"><ele>114.0</ele><time>2026-03-29T18:14:50.579Z</time></trkpt><trkpt lat="38.612915" lon="16.152525"><ele>114.0</ele><time>2026-03-29T18:14:51.578Z</time></trkpt><trkpt lat="38.61266" lon="16.1522667"><ele>113.0</ele><time>2026-03-29T18:14:52.578Z</time></trkpt><trkpt lat="38.612405" lon="16.152005"><ele>112.0</ele><time>2026-03-29T18:14:53.578Z</time></trkpt><trkpt lat="38.6121333" lon="16.1517483"><ele>111.0</ele><time>2026-03-29T18:14:54.578Z</time></trkpt><trkpt lat="38.6118783" lon="16.1515033"><ele>110.0</ele><time>2026-03-29T18:14:55.578Z</time></trkpt><trkpt lat="38.611615" lon="16.1512683"><ele>110.0</ele><time>2026-03-29T18:14:56.578Z</time></trkpt><trkpt lat="38.61135" lon="16.15103"><ele>110.0</ele><time>2026-03-29T18:14:57.578Z</time></trkpt><trkpt lat="38.6110833" lon="16.150815"><ele>111.0</ele><time>2026-03-29T18:14:58.578Z</time></trkpt><trkpt lat="38.6108183" lon="16.1505983"><ele>112.0</ele><time>2026-03-29T18:14:59.578Z</time></trkpt><trkpt lat="38.61055" lon="16.1503933"><ele>111.5</ele><time>2026-03-29T18:15:00.578Z</time></trkpt><trkpt lat="38.61029" lon="16.1501867"><ele>111.0</ele><time>2026-03-29T18:15:01.578Z</time></trkpt><trkpt lat="38.6100317" lon="16.149985"><ele>115.0</ele><time>2026-03-29T18:15:02.578Z</time></trkpt><trkpt lat="38.6097717" lon="16.149785"><ele>119.0</ele><time>2026-03-29T18:15:03.578Z</time></trkpt><trkpt lat="38.6095183" lon="16.1495883"><ele>116.0</ele><time>2026-03-29T18:15:04.578Z</time></trkpt><trkpt lat="38.6092633" lon="16.1493867"><ele>113.0</ele><time>2026-03-29T18:15:05.578Z</time></trkpt><trkpt lat="38.609005" lon="16.1491833"><ele>115.0</ele><time>2026-03-29T18:15:06.578Z</time></trkpt><trkpt lat="38.60874" lon="16.148995"><ele>117.0</ele><time>2026-03-29T18:15:07.578Z</time></trkpt><trkpt lat="38.6084767" lon="16.14881"><ele>117.0</ele><time>2026-03-29T18:15:08.578Z</time></trkpt><trkpt lat="38.608225" lon="16.1486283"><ele>117.0</ele><time>2026-03-29T18:15:09.578Z</time></trkpt><trkpt lat="38.6079767" lon="16.1484433"><ele>114.5</ele><time>2026-03-29T18:15:10.578Z</time></trkpt><trkpt lat="38.6077333" lon="16.1482533"><ele>112.0</ele><time>2026-03-29T18:15:11.578Z</time></trkpt><trkpt lat="38.607495" lon="16.14807"><ele>117.0</ele><time>2026-03-29T18:15:12.578Z</time></trkpt><trkpt lat="38.6072567" lon="16.1478917"><ele>122.0</ele><time>2026-03-29T18:15:13.578Z</time></trkpt><trkpt lat="38.607015" lon="16.1477167"><ele>123.5</ele><time>2026-03-29T18:15:14.578Z</time></trkpt><trkpt lat="38.6067683" lon="16.1475417"><ele>125.0</ele><time>2026-03-29T18:15:15.578Z</time></trkpt><trkpt lat="38.6065283" lon="16.147365"><ele>125.0</ele><time>2026-03-29T18:15:16.578Z</time></trkpt><trkpt lat="38.6062833" lon="16.1471983"><ele>125.0</ele><time>2026-03-29T18:15:17.578Z</time></trkpt><trkpt lat="38.606055" lon="16.1470183"><ele>121.0</ele><time>2026-03-29T18:15:18.578Z</time></trkpt><trkpt lat="38.6058167" lon="16.1468333"><ele>117.0</ele><time>2026-03-29T18:15:19.578Z</time></trkpt><trkpt lat="38.6056017" lon="16.1466517"><ele>116.5</ele><time>2026-03-29T18:15:20.578Z</time></trkpt><trkpt lat="38.6053933" lon="16.1464633"><ele>116.0</ele><time>2026-03-29T18:15:21.578Z</time></trkpt><trkpt lat="38.6051733" lon="16.1462767"><ele>116.0</ele><time>2026-03-29T18:15:22.578Z</time></trkpt><trkpt lat="38.6049517" lon="16.1460833"><ele>116.0</ele><time>2026-03-29T18:15:23.578Z</time></trkpt><trkpt lat="38.6047283" lon="16.14587"><ele>118.5</ele><time>2026-03-29T18:15:24.578Z</time></trkpt><trkpt lat="38.6045267" lon="16.14567"><ele>121.0</ele><time>2026-03-29T18:15:25.578Z</time></trkpt><trkpt lat="38.6043233" lon="16.145465"><ele>115.5</ele><time>2026-03-29T18:15:26.578Z</time></trkpt><trkpt lat="38.6041167" lon="16.1452433"><ele>110.0</ele><time>2026-03-29T18:15:27.578Z</time></trkpt><trkpt lat="38.603905" lon="16.1450167"><ele>110.5</ele><time>2026-03-29T18:15:28.578Z</time></trkpt><trkpt lat="38.603695" lon="16.1447867"><ele>111.0</ele><time>2026-03-29T18:15:29.578Z</time></trkpt><trkpt lat="38.6034833" lon="16.14456"><ele>111.0</ele><time>2026-03-29T18:15:30.579Z</time></trkpt><trkpt lat="38.6032817" lon="16.1443367"><ele>111.0</ele><time>2026-03-29T18:15:31.578Z</time></trkpt><trkpt lat="38.6030783" lon="16.144115"><ele>109.5</ele><time>2026-03-29T18:15:32.578Z</time></trkpt><trkpt lat="38.6028783" lon="16.1438933"><ele>108.0</ele><time>2026-03-29T18:15:33.578Z</time></trkpt><trkpt lat="38.6026783" lon="16.1436683"><ele>108.0</ele><time>2026-03-29T18:15:34.578Z</time></trkpt><trkpt lat="38.6024617" lon="16.1434483"><ele>108.0</ele><time>2026-03-29T18:15:35.578Z</time></trkpt><trkpt lat="38.6022467" lon="16.1432333"><ele>108.0</ele><time>2026-03-29T18:15:36.578Z</time></trkpt><trkpt lat="38.6020433" lon="16.1430233"><ele>108.0</ele><time>2026-03-29T18:15:37.578Z</time></trkpt><trkpt lat="38.6018267" lon="16.142815"><ele>107.5</ele><time>2026-03-29T18:15:38.578Z</time></trkpt><trkpt lat="38.6016" lon="16.1426117"><ele>107.0</ele><time>2026-03-29T18:15:39.578Z</time></trkpt><trkpt lat="38.601375" lon="16.142415"><ele>107.5</ele><time>2026-03-29T18:15:40.578Z</time></trkpt><trkpt lat="38.6011467" lon="16.1422217"><ele>108.0</ele><time>2026-03-29T18:15:41.578Z</time></trkpt><trkpt lat="38.6009033" lon="16.1420367"><ele>108.0</ele><time>2026-03-29T18:15:42.578Z</time></trkpt><trkpt lat="38.600655" lon="16.1418517"><ele>108.0</ele><time>2026-03-29T18:15:43.578Z</time></trkpt><trkpt lat="38.6004233" lon="16.1416633"><ele>114.0</ele><time>2026-03-29T18:15:44.578Z</time></trkpt><trkpt lat="38.60019" lon="16.14148"><ele>120.0</ele><time>2026-03-29T18:15:45.578Z</time></trkpt><trkpt lat="38.5999567" lon="16.1413033"><ele>120.0</ele><time>2026-03-29T18:15:46.578Z</time></trkpt><trkpt lat="38.5997233" lon="16.1411217"><ele>120.0</ele><time>2026-03-29T18:15:47.578Z</time></trkpt><trkpt lat="38.5994917" lon="16.1409367"><ele>121.0</ele><time>2026-03-29T18:15:48.578Z</time></trkpt><trkpt lat="38.5992583" lon="16.14075"><ele>122.0</ele><time>2026-03-29T18:15:49.579Z</time></trkpt><trkpt lat="38.59903" lon="16.1405633"><ele>122.0</ele><time>2026-03-29T18:15:50.579Z</time></trkpt><trkpt lat="38.5987983" lon="16.140385"><ele>122.0</ele><time>2026-03-29T18:15:51.579Z</time></trkpt><trkpt lat="38.5985683" lon="16.14022"><ele>121.5</ele><time>2026-03-29T18:15:52.579Z</time></trkpt><trkpt lat="38.5983417" lon="16.1400467"><ele>121.0</ele><time>2026-03-29T18:15:53.579Z</time></trkpt><trkpt lat="38.59812" lon="16.139875"><ele>121.0</ele><time>2026-03-29T18:15:54.579Z</time></trkpt><trkpt lat="38.59789" lon="16.1397067"><ele>121.0</ele><time>2026-03-29T18:15:55.579Z</time></trkpt><trkpt lat="38.597665" lon="16.1395317"><ele>117.0</ele><time>2026-03-29T18:15:56.579Z</time></trkpt><trkpt lat="38.597445" lon="16.1393517"><ele>113.0</ele><time>2026-03-29T18:15:57.579Z</time></trkpt><trkpt lat="38.59723" lon="16.1391833"><ele>110.5</ele><time>2026-03-29T18:15:58.579Z</time></trkpt><trkpt lat="38.5970183" lon="16.1390083"><ele>108.0</ele><time>2026-03-29T18:15:59.579Z</time></trkpt><trkpt lat="38.596805" lon="16.138845"><ele>108.0</ele><time>2026-03-29T18:16:00.579Z</time></trkpt><trkpt lat="38.5965883" lon="16.1386783"><ele>108.0</ele><time>2026-03-29T18:16:01.579Z</time></trkpt><trkpt lat="38.5963667" lon="16.13852"><ele>106.0</ele><time>2026-03-29T18:16:02.579Z</time></trkpt><trkpt lat="38.5961383" lon="16.138375"><ele>104.0</ele><time>2026-03-29T18:16:03.579Z</time></trkpt><trkpt lat="38.5959083" lon="16.138225"><ele>107.0</ele><time>2026-03-29T18:16:04.579Z</time></trkpt><trkpt lat="38.5956817" lon="16.13809"><ele>110.0</ele><time>2026-03-29T18:16:05.579Z</time></trkpt><trkpt lat="38.5954633" lon="16.1379567"><ele>106.5</ele><time>2026-03-29T18:16:06.579Z</time></trkpt><trkpt lat="38.5952467" lon="16.137825"><ele>103.0</ele><time>2026-03-29T18:16:07.579Z</time></trkpt><trkpt lat="38.5950133" lon="16.1376967"><ele>103.0</ele><time>2026-03-29T18:16:08.579Z</time></trkpt><trkpt lat="38.5947883" lon="16.1375867"><ele>103.0</ele><time>2026-03-29T18:16:09.579Z</time></trkpt><trkpt lat="38.594565" lon="16.1374833"><ele>103.0</ele><time>2026-03-29T18:16:10.579Z</time></trkpt><trkpt lat="38.5943467" lon="16.137375"><ele>103.0</ele><time>2026-03-29T18:16:11.579Z</time></trkpt><trkpt lat="38.5941183" lon="16.1372867"><ele>103.0</ele><time>2026-03-29T18:16:12.579Z</time></trkpt><trkpt lat="38.5938833" lon="16.1372033"><ele>103.0</ele><time>2026-03-29T18:16:13.579Z</time></trkpt><trkpt lat="38.59364" lon="16.1371283"><ele>105.0</ele><time>2026-03-29T18:16:14.579Z</time></trkpt><trkpt lat="38.5934017" lon="16.1370533"><ele>107.0</ele><time>2026-03-29T18:16:15.579Z</time></trkpt><trkpt lat="38.5931667" lon="16.136985"><ele>107.0</ele><time>2026-03-29T18:16:16.579Z</time></trkpt><trkpt lat="38.5929433" lon="16.13692"><ele>107.0</ele><time>2026-03-29T18:16:17.579Z</time></trkpt><trkpt lat="38.5926967" lon="16.1368717"><ele>106.0</ele><time>2026-03-29T18:16:18.579Z</time></trkpt><trkpt lat="38.59244" lon="16.136835"><ele>105.0</ele><time>2026-03-29T18:16:19.579Z</time></trkpt><trkpt lat="38.5921867" lon="16.1367967"><ele>104.0</ele><time>2026-03-29T18:16:20.579Z</time></trkpt><trkpt lat="38.591925" lon="16.13676"><ele>103.0</ele><time>2026-03-29T18:16:21.579Z</time></trkpt><trkpt lat="38.5916517" lon="16.1367217"><ele>103.0</ele><time>2026-03-29T18:16:22.579Z</time></trkpt><trkpt lat="38.5913767" lon="16.1366833"><ele>103.0</ele><time>2026-03-29T18:16:23.579Z</time></trkpt><trkpt lat="38.591105" lon="16.1366317"><ele>102.5</ele><time>2026-03-29T18:16:24.579Z</time></trkpt><trkpt lat="38.5908267" lon="16.136585"><ele>102.0</ele><time>2026-03-29T18:16:25.579Z</time></trkpt><trkpt lat="38.5905567" lon="16.1365267"><ele>110.0</ele><time>2026-03-29T18:16:26.579Z</time></trkpt><trkpt lat="38.59028" lon="16.1364617"><ele>118.0</ele><time>2026-03-29T18:16:27.579Z</time></trkpt><trkpt lat="38.590005" lon="16.1363933"><ele>118.0</ele><time>2026-03-29T18:16:28.579Z</time></trkpt><trkpt lat="38.5897267" lon="16.1363317"><ele>118.0</ele><time>2026-03-29T18:16:29.579Z</time></trkpt><trkpt lat="38.589455" lon="16.136265"><ele>113.0</ele><time>2026-03-29T18:16:30.579Z</time></trkpt><trkpt lat="38.589175" lon="16.1362017"><ele>108.0</ele><time>2026-03-29T18:16:31.579Z</time></trkpt><trkpt lat="38.5889" lon="16.1361333"><ele>106.0</ele><time>2026-03-29T18:16:32.579Z</time></trkpt><trkpt lat="38.5886233" lon="16.13606"><ele>104.0</ele><time>2026-03-29T18:16:33.579Z</time></trkpt><trkpt lat="38.588355" lon="16.13598"><ele>104.0</ele><time>2026-03-29T18:16:34.579Z</time></trkpt><trkpt lat="38.5880883" lon="16.1358933"><ele>104.0</ele><time>2026-03-29T18:16:35.579Z</time></trkpt><trkpt lat="38.5878217" lon="16.1357983"><ele>109.5</ele><time>2026-03-29T18:16:36.579Z</time></trkpt><trkpt lat="38.58755" lon="16.1356967"><ele>115.0</ele><time>2026-03-29T18:16:37.579Z</time></trkpt><trkpt lat="38.5872733" lon="16.1355833"><ele>113.0</ele><time>2026-03-29T18:16:38.579Z</time></trkpt><trkpt lat="38.5870033" lon="16.1354583"><ele>111.0</ele><time>2026-03-29T18:16:39.579Z</time></trkpt><trkpt lat="38.5867283" lon="16.13533"><ele>111.0</ele><time>2026-03-29T18:16:40.579Z</time></trkpt><trkpt lat="38.5864583" lon="16.135195"><ele>111.0</ele><time>2026-03-29T18:16:41.579Z</time></trkpt><trkpt lat="38.5861883" lon="16.13505"><ele>113.0</ele><time>2026-03-29T18:16:42.58Z</time></trkpt><trkpt lat="38.58592" lon="16.1349017"><ele>115.0</ele><time>2026-03-29T18:16:43.579Z</time></trkpt><trkpt lat="38.585655" lon="16.13474"><ele>115.0</ele><time>2026-03-29T18:16:44.579Z</time></trkpt><trkpt lat="38.5854017" lon="16.1345667"><ele>115.0</ele><time>2026-03-29T18:16:45.579Z</time></trkpt><trkpt lat="38.5851517" lon="16.1343833"><ele>114.0</ele><time>2026-03-29T18:16:46.579Z</time></trkpt><trkpt lat="38.5849033" lon="16.1342"><ele>113.0</ele><time>2026-03-29T18:16:47.58Z</time></trkpt><trkpt lat="38.5846517" lon="16.134"><ele>107.5</ele><time>2026-03-29T18:16:48.579Z</time></trkpt><trkpt lat="38.5844033" lon="16.1337967"><ele>102.0</ele><time>2026-03-29T18:16:49.579Z</time></trkpt><trkpt lat="38.5841617" lon="16.133585"><ele>102.0</ele><time>2026-03-29T18:16:50.579Z</time></trkpt><trkpt lat="38.5839267" lon="16.133365"><ele>102.0</ele><time>2026-03-29T18:16:51.579Z</time></trkpt><trkpt lat="38.5837033" lon="16.1331367"><ele>99.5</ele><time>2026-03-29T18:16:52.579Z</time></trkpt><trkpt lat="38.583475" lon="16.1329"><ele>97.0</ele><time>2026-03-29T18:16:53.579Z</time></trkpt><trkpt lat="38.5832483" lon="16.1326567"><ele>97.0</ele><time>2026-03-29T18:16:54.579Z</time></trkpt><trkpt lat="38.5830283" lon="16.132415"><ele>97.0</ele><time>2026-03-29T18:16:55.579Z</time></trkpt><trkpt lat="38.582815" lon="16.1321617"><ele>97.0</ele><time>2026-03-29T18:16:56.579Z</time></trkpt><trkpt lat="38.5826117" lon="16.1318933"><ele>97.0</ele><time>2026-03-29T18:16:57.579Z</time></trkpt><trkpt lat="38.582415" lon="16.1316183"><ele>97.0</ele><time>2026-03-29T18:16:58.579Z</time></trkpt><trkpt lat="38.582215" lon="16.13134"><ele>97.0</ele><time>2026-03-29T18:16:59.579Z</time></trkpt><trkpt lat="38.582025" lon="16.1310517"><ele>96.5</ele><time>2026-03-29T18:17:00.579Z</time></trkpt><trkpt lat="38.58184" lon="16.1307717"><ele>96.0</ele><time>2026-03-29T18:17:01.579Z</time></trkpt><trkpt lat="38.5816583" lon="16.13048"><ele>96.0</ele><time>2026-03-29T18:17:02.579Z</time></trkpt><trkpt lat="38.5814867" lon="16.1301883"><ele>96.0</ele><time>2026-03-29T18:17:03.579Z</time></trkpt><trkpt lat="38.581315" lon="16.1298833"><ele>100.0</ele><time>2026-03-29T18:17:04.579Z</time></trkpt><trkpt lat="38.5811417" lon="16.12958"><ele>104.0</ele><time>2026-03-29T18:17:05.579Z</time></trkpt><trkpt lat="38.5809783" lon="16.1292683"><ele>106.5</ele><time>2026-03-29T18:17:06.579Z</time></trkpt><trkpt lat="38.58082" lon="16.1289483"><ele>109.0</ele><time>2026-03-29T18:17:07.579Z</time></trkpt><trkpt lat="38.5806583" lon="16.1286283"><ele>109.0</ele><time>2026-03-29T18:17:08.579Z</time></trkpt><trkpt lat="38.5804983" lon="16.128315"><ele>109.0</ele><time>2026-03-29T18:17:09.58Z</time></trkpt><trkpt lat="38.5803517" lon="16.1280033"><ele>109.0</ele><time>2026-03-29T18:17:10.579Z</time></trkpt><trkpt lat="38.5802233" lon="16.1276917"><ele>109.0</ele><time>2026-03-29T18:17:11.579Z</time></trkpt><trkpt lat="38.5800983" lon="16.1273817"><ele>109.0</ele><time>2026-03-29T18:17:12.579Z</time></trkpt><trkpt lat="38.5799717" lon="16.1270733"><ele>109.0</ele><time>2026-03-29T18:17:13.579Z</time></trkpt><trkpt lat="38.579835" lon="16.1267633"><ele>111.5</ele><time>2026-03-29T18:17:14.579Z</time></trkpt><trkpt lat="38.5797067" lon="16.1264483"><ele>114.0</ele><time>2026-03-29T18:17:15.579Z</time></trkpt><trkpt lat="38.579575" lon="16.12613"><ele>108.0</ele><time>2026-03-29T18:17:16.579Z</time></trkpt><trkpt lat="38.5794233" lon="16.1258167"><ele>102.0</ele><time>2026-03-29T18:17:17.579Z</time></trkpt><trkpt lat="38.579275" lon="16.1254967"><ele>102.0</ele><time>2026-03-29T18:17:18.579Z</time></trkpt><trkpt lat="38.57914" lon="16.12517"><ele>102.0</ele><time>2026-03-29T18:17:19.579Z</time></trkpt><trkpt lat="38.579" lon="16.1248533"><ele>106.5</ele><time>2026-03-29T18:17:20.579Z</time></trkpt><trkpt lat="38.578865" lon="16.12454"><ele>111.0</ele><time>2026-03-29T18:17:21.579Z</time></trkpt><trkpt lat="38.57873" lon="16.1242267"><ele>109.5</ele><time>2026-03-29T18:17:22.579Z</time></trkpt><trkpt lat="38.5785967" lon="16.123915"><ele>108.0</ele><time>2026-03-29T18:17:23.579Z</time></trkpt><trkpt lat="38.5784617" lon="16.1236233"><ele>108.0</ele><time>2026-03-29T18:17:24.579Z</time></trkpt><trkpt lat="38.5783333" lon="16.1233317"><ele>108.0</ele><time>2026-03-29T18:17:25.579Z</time></trkpt><trkpt lat="38.5781967" lon="16.1230317"><ele>111.0</ele><time>2026-03-29T18:17:26.579Z</time></trkpt><trkpt lat="38.5780717" lon="16.122725"><ele>114.0</ele><time>2026-03-29T18:17:27.579Z</time></trkpt><trkpt lat="38.57795" lon="16.1224183"><ele>113.5</ele><time>2026-03-29T18:17:28.579Z</time></trkpt><trkpt lat="38.577825" lon="16.1221067"><ele>113.0</ele><time>2026-03-29T18:17:29.579Z</time></trkpt><trkpt lat="38.577695" lon="16.1217933"><ele>115.0</ele><time>2026-03-29T18:17:30.579Z</time></trkpt><trkpt lat="38.57757" lon="16.1214867"><ele>117.0</ele><time>2026-03-29T18:17:31.579Z</time></trkpt><trkpt lat="38.5774433" lon="16.1211867"><ele>117.0</ele><time>2026-03-29T18:17:32.579Z</time></trkpt><trkpt lat="38.577315" lon="16.12089"><ele>117.0</ele><time>2026-03-29T18:17:33.579Z</time></trkpt><trkpt lat="38.577195" lon="16.1205967"><ele>119.0</ele><time>2026-03-29T18:17:34.579Z</time></trkpt><trkpt lat="38.5770717" lon="16.1203017"><ele>121.0</ele><time>2026-03-29T18:17:35.579Z</time></trkpt><trkpt lat="38.5769483" lon="16.1200067"><ele>122.5</ele><time>2026-03-29T18:17:36.579Z</time></trkpt><trkpt lat="38.576825" lon="16.11971"><ele>124.0</ele><time>2026-03-29T18:17:37.579Z</time></trkpt><trkpt lat="38.5767017" lon="16.1194133"><ele>124.0</ele><time>2026-03-29T18:17:38.579Z</time></trkpt><trkpt lat="38.5765783" lon="16.1191183"><ele>124.0</ele><time>2026-03-29T18:17:39.579Z</time></trkpt><trkpt lat="38.5748667" lon="16.1110617"><ele>109.5</ele><time>2026-03-29T18:18:03.578Z</time></trkpt><trkpt lat="38.5748183" lon="16.1107067"><ele>95.0</ele><time>2026-03-29T18:18:04.578Z</time></trkpt><trkpt lat="38.5747767" lon="16.1103667"><ele>95.0</ele><time>2026-03-29T18:18:05.578Z</time></trkpt><trkpt lat="38.5747417" lon="16.1100317"><ele>95.0</ele><time>2026-03-29T18:18:06.578Z</time></trkpt><trkpt lat="38.5747083" lon="16.1097083"><ele>101.5</ele><time>2026-03-29T18:18:07.578Z</time></trkpt><trkpt lat="38.5746717" lon="16.1093717"><ele>108.0</ele><time>2026-03-29T18:18:08.578Z</time></trkpt><trkpt lat="38.5746367" lon="16.109035"><ele>108.0</ele><time>2026-03-29T18:18:09.578Z</time></trkpt><trkpt lat="38.5746" lon="16.108695"><ele>108.0</ele><time>2026-03-29T18:18:10.578Z</time></trkpt><trkpt lat="38.5745633" lon="16.1083483"><ele>106.0</ele><time>2026-03-29T18:18:11.578Z</time></trkpt><trkpt lat="38.5745267" lon="16.108005"><ele>104.0</ele><time>2026-03-29T18:18:12.578Z</time></trkpt><trkpt lat="38.5745083" lon="16.1076467"><ele>96.5</ele><time>2026-03-29T18:18:13.578Z</time></trkpt><trkpt lat="38.5744733" lon="16.1073067"><ele>89.0</ele><time>2026-03-29T18:18:14.578Z</time></trkpt><trkpt lat="38.574445" lon="16.1069617"><ele>89.0</ele><time>2026-03-29T18:18:15.578Z</time></trkpt><trkpt lat="38.5744117" lon="16.1066267"><ele>89.0</ele><time>2026-03-29T18:18:16.578Z</time></trkpt><trkpt lat="38.5743817" lon="16.10628"><ele>90.5</ele><time>2026-03-29T18:18:17.578Z</time></trkpt><trkpt lat="38.5743467" lon="16.1059383"><ele>92.0</ele><time>2026-03-29T18:18:18.578Z</time></trkpt><trkpt lat="38.5743117" lon="16.1055933"><ele>92.0</ele><time>2026-03-29T18:18:19.578Z</time></trkpt><trkpt lat="38.5742867" lon="16.1052617"><ele>92.0</ele><time>2026-03-29T18:18:20.578Z</time></trkpt><trkpt lat="38.5742517" lon="16.1049067"><ele>90.5</ele><time>2026-03-29T18:18:21.578Z</time></trkpt><trkpt lat="38.57422" lon="16.1045617"><ele>89.0</ele><time>2026-03-29T18:18:22.578Z</time></trkpt><trkpt lat="38.5741917" lon="16.104225"><ele>88.0</ele><time>2026-03-29T18:18:23.578Z</time></trkpt><trkpt lat="38.5741617" lon="16.1038783"><ele>87.0</ele><time>2026-03-29T18:18:24.578Z</time></trkpt><trkpt lat="38.57413" lon="16.1035433"><ele>86.0</ele><time>2026-03-29T18:18:25.578Z</time></trkpt><trkpt lat="38.5741067" lon="16.1032133"><ele>85.0</ele><time>2026-03-29T18:18:26.578Z</time></trkpt><trkpt lat="38.57408" lon="16.1028833"><ele>85.0</ele><time>2026-03-29T18:18:27.578Z</time></trkpt><trkpt lat="38.57405" lon="16.10255"><ele>85.0</ele><time>2026-03-29T18:18:28.578Z</time></trkpt><trkpt lat="38.5740183" lon="16.1022233"><ele>85.5</ele><time>2026-03-29T18:18:29.578Z</time></trkpt><trkpt lat="38.57399" lon="16.101895"><ele>86.0</ele><time>2026-03-29T18:18:30.578Z</time></trkpt><trkpt lat="38.5739617" lon="16.1015617"><ele>94.0</ele><time>2026-03-29T18:18:31.578Z</time></trkpt><trkpt lat="38.57392" lon="16.101235"><ele>102.0</ele><time>2026-03-29T18:18:32.578Z</time></trkpt><trkpt lat="38.5738817" lon="16.1009"><ele>106.5</ele><time>2026-03-29T18:18:33.578Z</time></trkpt><trkpt lat="38.5738433" lon="16.10057"><ele>111.0</ele><time>2026-03-29T18:18:34.578Z</time></trkpt><trkpt lat="38.5738083" lon="16.1002283"><ele>105.5</ele><time>2026-03-29T18:18:35.578Z</time></trkpt><trkpt lat="38.57379" lon="16.09989"><ele>100.0</ele><time>2026-03-29T18:18:36.579Z</time></trkpt><trkpt lat="38.573755" lon="16.0995517"><ele>100.0</ele><time>2026-03-29T18:18:37.578Z</time></trkpt><trkpt lat="38.573735" lon="16.09921"><ele>100.0</ele><time>2026-03-29T18:18:38.578Z</time></trkpt><trkpt lat="38.573705" lon="16.0988667"><ele>92.5</ele><time>2026-03-29T18:18:39.578Z</time></trkpt><trkpt lat="38.5736767" lon="16.0985283"><ele>85.0</ele><time>2026-03-29T18:18:40.578Z</time></trkpt><trkpt lat="38.5736467" lon="16.09819"><ele>85.0</ele><time>2026-03-29T18:18:41.578Z</time></trkpt><trkpt lat="38.5736067" lon="16.0978567"><ele>85.0</ele><time>2026-03-29T18:18:42.578Z</time></trkpt><trkpt lat="38.573565" lon="16.0975217"><ele>86.0</ele><time>2026-03-29T18:18:43.579Z</time></trkpt><trkpt lat="38.5735283" lon="16.0971833"><ele>87.0</ele><time>2026-03-29T18:18:44.578Z</time></trkpt><trkpt lat="38.5734883" lon="16.0968433"><ele>88.5</ele><time>2026-03-29T18:18:45.578Z</time></trkpt><trkpt lat="38.5734283" lon="16.09652"><ele>90.0</ele><time>2026-03-29T18:18:46.578Z</time></trkpt><trkpt lat="38.573375" lon="16.096185"><ele>90.0</ele><time>2026-03-29T18:18:47.578Z</time></trkpt><trkpt lat="38.57332" lon="16.0958467"><ele>90.0</ele><time>2026-03-29T18:18:48.578Z</time></trkpt><trkpt lat="38.5732617" lon="16.0955217"><ele>93.0</ele><time>2026-03-29T18:18:49.578Z</time></trkpt><trkpt lat="38.5731917" lon="16.0951983"><ele>96.0</ele><time>2026-03-29T18:18:50.578Z</time></trkpt><trkpt lat="38.5731117" lon="16.09487"><ele>97.0</ele><time>2026-03-29T18:18:51.578Z</time></trkpt><trkpt lat="38.57302" lon="16.094545"><ele>98.0</ele><time>2026-03-29T18:18:52.578Z</time></trkpt><trkpt lat="38.5729217" lon="16.09423"><ele>98.0</ele><time>2026-03-29T18:18:53.578Z</time></trkpt><trkpt lat="38.572825" lon="16.0939167"><ele>98.0</ele><time>2026-03-29T18:18:54.578Z</time></trkpt><trkpt lat="38.5727083" lon="16.0936083"><ele>98.0</ele><time>2026-03-29T18:18:55.578Z</time></trkpt><trkpt lat="38.5725917" lon="16.0932983"><ele>98.0</ele><time>2026-03-29T18:18:56.578Z</time></trkpt><trkpt lat="38.5724683" lon="16.0930083"><ele>103.0</ele><time>2026-03-29T18:18:57.578Z</time></trkpt><trkpt lat="38.572355" lon="16.0926983"><ele>108.0</ele><time>2026-03-29T18:18:58.578Z</time></trkpt><trkpt lat="38.5722383" lon="16.09238"><ele>109.5</ele><time>2026-03-29T18:18:59.578Z</time></trkpt><trkpt lat="38.5721183" lon="16.0920633"><ele>111.0</ele><time>2026-03-29T18:19:00.578Z</time></trkpt><trkpt lat="38.5720017" lon="16.0917467"><ele>98.5</ele><time>2026-03-29T18:19:01.578Z</time></trkpt><trkpt lat="38.5718833" lon="16.0914283"><ele>86.0</ele><time>2026-03-29T18:19:02.578Z</time></trkpt><trkpt lat="38.5716417" lon="16.0912667"><ele>86.0</ele><time>2026-03-29T18:19:03.578Z</time></trkpt><trkpt lat="38.57143" lon="16.09107"><ele>86.0</ele><time>2026-03-29T18:19:04.578Z</time></trkpt><trkpt lat="38.5712717" lon="16.0907567"><ele>89.0</ele><time>2026-03-29T18:19:05.578Z</time></trkpt><trkpt lat="38.571105" lon="16.0904817"><ele>92.0</ele><time>2026-03-29T18:19:06.578Z</time></trkpt><trkpt lat="38.570935" lon="16.0902217"><ele>92.0</ele><time>2026-03-29T18:19:07.578Z</time></trkpt><trkpt lat="38.5707483" lon="16.0899783"><ele>92.0</ele><time>2026-03-29T18:19:08.578Z</time></trkpt><trkpt lat="38.5705467" lon="16.0897467"><ele>88.5</ele><time>2026-03-29T18:19:09.578Z</time></trkpt><trkpt lat="38.5703433" lon="16.0895183"><ele>85.0</ele><time>2026-03-29T18:19:10.578Z</time></trkpt><trkpt lat="38.5701533" lon="16.08929"><ele>85.5</ele><time>2026-03-29T18:19:11.578Z</time></trkpt><trkpt lat="38.569965" lon="16.0890617"><ele>86.0</ele><time>2026-03-29T18:19:12.578Z</time></trkpt><trkpt lat="38.56976" lon="16.088835"><ele>86.0</ele><time>2026-03-29T18:19:13.578Z</time></trkpt><trkpt lat="38.5695517" lon="16.0886083"><ele>86.0</ele><time>2026-03-29T18:19:14.578Z</time></trkpt><trkpt lat="38.56934" lon="16.088395"><ele>86.5</ele><time>2026-03-29T18:19:15.578Z</time></trkpt><trkpt lat="38.569125" lon="16.0881833"><ele>87.0</ele><time>2026-03-29T18:19:16.578Z</time></trkpt><trkpt lat="38.5689133" lon="16.0879733"><ele>87.0</ele><time>2026-03-29T18:19:17.578Z</time></trkpt><trkpt lat="38.5686983" lon="16.0877633"><ele>87.0</ele><time>2026-03-29T18:19:18.578Z</time></trkpt><trkpt lat="38.5684833" lon="16.0875533"><ele>89.0</ele><time>2026-03-29T18:19:19.578Z</time></trkpt><trkpt lat="38.5682733" lon="16.087345"><ele>91.0</ele><time>2026-03-29T18:19:20.578Z</time></trkpt><trkpt lat="38.5680783" lon="16.0871233"><ele>91.0</ele><time>2026-03-29T18:19:21.578Z</time></trkpt><trkpt lat="38.56788" lon="16.086905"><ele>91.0</ele><time>2026-03-29T18:19:22.578Z</time></trkpt><trkpt lat="38.5676767" lon="16.0866817"><ele>92.0</ele><time>2026-03-29T18:19:23.578Z</time></trkpt><trkpt lat="38.5674783" lon="16.0864467"><ele>93.0</ele><time>2026-03-29T18:19:24.578Z</time></trkpt><trkpt lat="38.5672867" lon="16.0862117"><ele>93.0</ele><time>2026-03-29T18:19:25.578Z</time></trkpt><trkpt lat="38.5671" lon="16.08597"><ele>93.0</ele><time>2026-03-29T18:19:26.578Z</time></trkpt><trkpt lat="38.5669183" lon="16.08573"><ele>88.5</ele><time>2026-03-29T18:19:27.578Z</time></trkpt><trkpt lat="38.566745" lon="16.0854817"><ele>84.0</ele><time>2026-03-29T18:19:28.578Z</time></trkpt><trkpt lat="38.5665833" lon="16.0852167"><ele>84.0</ele><time>2026-03-29T18:19:29.578Z</time></trkpt><trkpt lat="38.5664267" lon="16.0849333"><ele>84.0</ele><time>2026-03-29T18:19:30.578Z</time></trkpt><trkpt lat="38.5662783" lon="16.0846483"><ele>82.0</ele><time>2026-03-29T18:19:31.578Z</time></trkpt><trkpt lat="38.56613" lon="16.084375"><ele>80.0</ele><time>2026-03-29T18:19:32.578Z</time></trkpt><trkpt lat="38.56599" lon="16.0840883"><ele>80.0</ele><time>2026-03-29T18:19:33.578Z</time></trkpt><trkpt lat="38.5658517" lon="16.083795"><ele>80.0</ele><time>2026-03-29T18:19:34.578Z</time></trkpt><trkpt lat="38.56572" lon="16.0834967"><ele>85.5</ele><time>2026-03-29T18:19:35.578Z</time></trkpt><trkpt lat="38.5655867" lon="16.08321"><ele>91.0</ele><time>2026-03-29T18:19:36.578Z</time></trkpt><trkpt lat="38.5654567" lon="16.08291"><ele>87.0</ele><time>2026-03-29T18:19:37.578Z</time></trkpt><trkpt lat="38.56532" lon="16.08261"><ele>83.0</ele><time>2026-03-29T18:19:38.578Z</time></trkpt><trkpt lat="38.56519" lon="16.082315"><ele>82.0</ele><time>2026-03-29T18:19:39.578Z</time></trkpt><trkpt lat="38.565065" lon="16.08202"><ele>81.0</ele><time>2026-03-29T18:19:40.578Z</time></trkpt><trkpt lat="38.56494" lon="16.0817317"><ele>78.5</ele><time>2026-03-29T18:19:41.578Z</time></trkpt><trkpt lat="38.564805" lon="16.0814283"><ele>76.0</ele><time>2026-03-29T18:19:42.578Z</time></trkpt><trkpt lat="38.5646733" lon="16.0811233"><ele>76.0</ele><time>2026-03-29T18:19:43.578Z</time></trkpt><trkpt lat="38.564545" lon="16.0808233"><ele>76.0</ele><time>2026-03-29T18:19:44.578Z</time></trkpt><trkpt lat="38.5644167" lon="16.0805183"><ele>76.0</ele><time>2026-03-29T18:19:45.578Z</time></trkpt><trkpt lat="38.5643033" lon="16.0802133"><ele>76.0</ele><time>2026-03-29T18:19:46.578Z</time></trkpt><trkpt lat="38.5641883" lon="16.0799083"><ele>77.0</ele><time>2026-03-29T18:19:47.578Z</time></trkpt><trkpt lat="38.56408" lon="16.0796067"><ele>78.0</ele><time>2026-03-29T18:19:48.578Z</time></trkpt><trkpt lat="38.5639733" lon="16.0793017"><ele>83.0</ele><time>2026-03-29T18:19:49.578Z</time></trkpt><trkpt lat="38.56386" lon="16.078985"><ele>88.0</ele><time>2026-03-29T18:19:50.578Z</time></trkpt><trkpt lat="38.5637533" lon="16.0786617"><ele>84.0</ele><time>2026-03-29T18:19:51.578Z</time></trkpt><trkpt lat="38.56364" lon="16.0783533"><ele>80.0</ele><time>2026-03-29T18:19:52.579Z</time></trkpt><trkpt lat="38.563535" lon="16.078045"><ele>80.0</ele><time>2026-03-29T18:19:53.578Z</time></trkpt><trkpt lat="38.5634367" lon="16.077735"><ele>80.0</ele><time>2026-03-29T18:19:54.578Z</time></trkpt><trkpt lat="38.5633317" lon="16.07743"><ele>82.0</ele><time>2026-03-29T18:19:55.578Z</time></trkpt><trkpt lat="38.5632217" lon="16.0771317"><ele>84.0</ele><time>2026-03-29T18:19:56.578Z</time></trkpt><trkpt lat="38.563115" lon="16.0768333"><ele>83.5</ele><time>2026-03-29T18:19:57.578Z</time></trkpt><trkpt lat="38.5629917" lon="16.0765317"><ele>83.0</ele><time>2026-03-29T18:19:58.578Z</time></trkpt><trkpt lat="38.5628617" lon="16.0762367"><ele>82.5</ele><time>2026-03-29T18:19:59.578Z</time></trkpt><trkpt lat="38.56274" lon="16.0759317"><ele>82.0</ele><time>2026-03-29T18:20:00.578Z</time></trkpt><trkpt lat="38.5626083" lon="16.0756233"><ele>82.0</ele><time>2026-03-29T18:20:01.578Z</time></trkpt><trkpt lat="38.5624617" lon="16.0753283"><ele>82.0</ele><time>2026-03-29T18:20:02.578Z</time></trkpt><trkpt lat="38.56231" lon="16.0750433"><ele>83.0</ele><time>2026-03-29T18:20:03.578Z</time></trkpt><trkpt lat="38.56216" lon="16.074765"><ele>84.0</ele><time>2026-03-29T18:20:04.578Z</time></trkpt><trkpt lat="38.5620033" lon="16.0744933"><ele>84.5</ele><time>2026-03-29T18:20:05.578Z</time></trkpt><trkpt lat="38.5618417" lon="16.0742233"><ele>85.0</ele><time>2026-03-29T18:20:06.578Z</time></trkpt><trkpt lat="38.561665" lon="16.0739667"><ele>85.0</ele><time>2026-03-29T18:20:07.578Z</time></trkpt><trkpt lat="38.5614817" lon="16.0737167"><ele>85.0</ele><time>2026-03-29T18:20:08.578Z</time></trkpt><trkpt lat="38.5612967" lon="16.0734683"><ele>85.5</ele><time>2026-03-29T18:20:09.578Z</time></trkpt><trkpt lat="38.5611033" lon="16.073225"><ele>86.0</ele><time>2026-03-29T18:20:10.578Z</time></trkpt><trkpt lat="38.5608983" lon="16.0729967"><ele>86.0</ele><time>2026-03-29T18:20:11.578Z</time></trkpt><trkpt lat="38.5607017" lon="16.07277"><ele>86.0</ele><time>2026-03-29T18:20:12.578Z</time></trkpt><trkpt lat="38.560495" lon="16.072555"><ele>83.0</ele><time>2026-03-29T18:20:13.579Z</time></trkpt><trkpt lat="38.56028" lon="16.07235"><ele>80.0</ele><time>2026-03-29T18:20:14.578Z</time></trkpt><trkpt lat="38.5600733" lon="16.07215"><ele>80.0</ele><time>2026-03-29T18:20:15.578Z</time></trkpt><trkpt lat="38.5598583" lon="16.071955"><ele>80.0</ele><time>2026-03-29T18:20:16.578Z</time></trkpt><trkpt lat="38.55964" lon="16.0717767"><ele>81.5</ele><time>2026-03-29T18:20:17.578Z</time></trkpt><trkpt lat="38.5594167" lon="16.071605"><ele>83.0</ele><time>2026-03-29T18:20:18.578Z</time></trkpt><trkpt lat="38.5591733" lon="16.0714417"><ele>83.0</ele><time>2026-03-29T18:20:19.578Z</time></trkpt><trkpt lat="38.5589267" lon="16.0712883"><ele>83.0</ele><time>2026-03-29T18:20:20.578Z</time></trkpt><trkpt lat="38.5586867" lon="16.071135"><ele>77.5</ele><time>2026-03-29T18:20:21.578Z</time></trkpt><trkpt lat="38.5584517" lon="16.0709883"><ele>72.0</ele><time>2026-03-29T18:20:22.578Z</time></trkpt><trkpt lat="38.558215" lon="16.070855"><ele>71.0</ele><time>2026-03-29T18:20:23.578Z</time></trkpt><trkpt lat="38.5579667" lon="16.0707317"><ele>70.0</ele><time>2026-03-29T18:20:24.578Z</time></trkpt><trkpt lat="38.55771" lon="16.07062"><ele>70.0</ele><time>2026-03-29T18:20:25.578Z</time></trkpt><trkpt lat="38.5574583" lon="16.0705317"><ele>70.0</ele><time>2026-03-29T18:20:26.578Z</time></trkpt><trkpt lat="38.5572017" lon="16.0704433"><ele>69.0</ele><time>2026-03-29T18:20:27.578Z</time></trkpt><trkpt lat="38.5569417" lon="16.0703617"><ele>68.0</ele><time>2026-03-29T18:20:28.578Z</time></trkpt><trkpt lat="38.5566867" lon="16.0702867"><ele>68.0</ele><time>2026-03-29T18:20:29.578Z</time></trkpt><trkpt lat="38.556415" lon="16.070225"><ele>68.0</ele><time>2026-03-29T18:20:30.578Z</time></trkpt><trkpt lat="38.5561567" lon="16.070175"><ele>68.5</ele><time>2026-03-29T18:20:31.578Z</time></trkpt><trkpt lat="38.5558867" lon="16.0701317"><ele>69.0</ele><time>2026-03-29T18:20:32.578Z</time></trkpt><trkpt lat="38.5556317" lon="16.07009"><ele>69.5</ele><time>2026-03-29T18:20:33.578Z</time></trkpt><trkpt lat="38.5553583" lon="16.0700533"><ele>70.0</ele><time>2026-03-29T18:20:34.578Z</time></trkpt><trkpt lat="38.5550833" lon="16.0700217"><ele>70.0</ele><time>2026-03-29T18:20:35.578Z</time></trkpt><trkpt lat="38.5548167" lon="16.0699917"><ele>70.0</ele><time>2026-03-29T18:20:36.578Z</time></trkpt><trkpt lat="38.5545517" lon="16.069965"><ele>74.5</ele><time>2026-03-29T18:20:37.578Z</time></trkpt><trkpt lat="38.5542833" lon="16.0699383"><ele>79.0</ele><time>2026-03-29T18:20:38.578Z</time></trkpt><trkpt lat="38.5540183" lon="16.0699083"><ele>79.0</ele><time>2026-03-29T18:20:39.578Z</time></trkpt><trkpt lat="38.55375" lon="16.0698767"><ele>79.0</ele><time>2026-03-29T18:20:40.578Z</time></trkpt><trkpt lat="38.5534917" lon="16.0698367"><ele>86.0</ele><time>2026-03-29T18:20:41.578Z</time></trkpt><trkpt lat="38.5532333" lon="16.0697917"><ele>93.0</ele><time>2026-03-29T18:20:42.578Z</time></trkpt><trkpt lat="38.5529717" lon="16.069745"><ele>94.5</ele><time>2026-03-29T18:20:43.578Z</time></trkpt><trkpt lat="38.552715" lon="16.0696817"><ele>96.0</ele><time>2026-03-29T18:20:44.578Z</time></trkpt><trkpt lat="38.5524533" lon="16.06962"><ele>96.0</ele><time>2026-03-29T18:20:45.578Z</time></trkpt><trkpt lat="38.5522" lon="16.0695517"><ele>96.0</ele><time>2026-03-29T18:20:46.578Z</time></trkpt><trkpt lat="38.5519483" lon="16.0694583"><ele>93.0</ele><time>2026-03-29T18:20:47.578Z</time></trkpt><trkpt lat="38.5517083" lon="16.0693517"><ele>90.0</ele><time>2026-03-29T18:20:48.578Z</time></trkpt><trkpt lat="38.551465" lon="16.0692367"><ele>90.0</ele><time>2026-03-29T18:20:49.578Z</time></trkpt><trkpt lat="38.551215" lon="16.06911"><ele>90.0</ele><time>2026-03-29T18:20:50.578Z</time></trkpt><trkpt lat="38.55097" lon="16.0689883"><ele>91.0</ele><time>2026-03-29T18:20:51.578Z</time></trkpt><trkpt lat="38.5507317" lon="16.0688533"><ele>92.0</ele><time>2026-03-29T18:20:52.578Z</time></trkpt><trkpt lat="38.5504917" lon="16.0687183"><ele>84.0</ele><time>2026-03-29T18:20:53.578Z</time></trkpt><trkpt lat="38.5502567" lon="16.0685817"><ele>76.0</ele><time>2026-03-29T18:20:54.578Z</time></trkpt><trkpt lat="38.5500167" lon="16.0684417"><ele>76.0</ele><time>2026-03-29T18:20:55.578Z</time></trkpt><trkpt lat="38.5497883" lon="16.0682833"><ele>76.0</ele><time>2026-03-29T18:20:56.578Z</time></trkpt><trkpt lat="38.5495517" lon="16.0681367"><ele>82.0</ele><time>2026-03-29T18:20:57.578Z</time></trkpt><trkpt lat="38.54931" lon="16.0679867"><ele>88.0</ele><time>2026-03-29T18:20:58.578Z</time></trkpt><trkpt lat="38.5490733" lon="16.0678383"><ele>88.0</ele><time>2026-03-29T18:20:59.578Z</time></trkpt><trkpt lat="38.5488333" lon="16.0676883"><ele>88.0</ele><time>2026-03-29T18:21:00.578Z</time></trkpt><trkpt lat="38.548605" lon="16.0675367"><ele>87.0</ele><time>2026-03-29T18:21:01.578Z</time></trkpt><trkpt lat="38.548365" lon="16.0673883"><ele>86.0</ele><time>2026-03-29T18:21:02.578Z</time></trkpt><trkpt lat="38.54812" lon="16.0672533"><ele>86.0</ele><time>2026-03-29T18:21:03.578Z</time></trkpt><trkpt lat="38.5478817" lon="16.0671117"><ele>86.0</ele><time>2026-03-29T18:21:04.578Z</time></trkpt><trkpt lat="38.547655" lon="16.0669633"><ele>83.0</ele><time>2026-03-29T18:21:05.578Z</time></trkpt><trkpt lat="38.5474217" lon="16.0668117"><ele>80.0</ele><time>2026-03-29T18:21:06.578Z</time></trkpt><trkpt lat="38.5471817" lon="16.066655"><ele>80.0</ele><time>2026-03-29T18:21:07.578Z</time></trkpt><trkpt lat="38.5469433" lon="16.06652"><ele>80.0</ele><time>2026-03-29T18:21:08.578Z</time></trkpt><trkpt lat="38.5467067" lon="16.066365"><ele>80.0</ele><time>2026-03-29T18:21:09.578Z</time></trkpt><trkpt lat="38.5464833" lon="16.0662117"><ele>80.0</ele><time>2026-03-29T18:21:10.578Z</time></trkpt><trkpt lat="38.5462533" lon="16.0660583"><ele>73.0</ele><time>2026-03-29T18:21:11.578Z</time></trkpt><trkpt lat="38.54602" lon="16.0659117"><ele>66.0</ele><time>2026-03-29T18:21:12.578Z</time></trkpt><trkpt lat="38.54579" lon="16.0657583"><ele>65.0</ele><time>2026-03-29T18:21:13.578Z</time></trkpt><trkpt lat="38.54556" lon="16.0656033"><ele>64.0</ele><time>2026-03-29T18:21:14.578Z</time></trkpt><trkpt lat="38.5453233" lon="16.0654417"><ele>64.0</ele><time>2026-03-29T18:21:15.578Z</time></trkpt><trkpt lat="38.5450883" lon="16.0652833"><ele>64.0</ele><time>2026-03-29T18:21:16.578Z</time></trkpt><trkpt lat="38.5448733" lon="16.0651233"><ele>64.0</ele><time>2026-03-29T18:21:17.578Z</time></trkpt><trkpt lat="38.5446467" lon="16.0649583"><ele>64.0</ele><time>2026-03-29T18:21:18.578Z</time></trkpt><trkpt lat="38.5444183" lon="16.0647933"><ele>63.0</ele><time>2026-03-29T18:21:19.578Z</time></trkpt><trkpt lat="38.5441967" lon="16.0646133"><ele>62.0</ele><time>2026-03-29T18:21:20.578Z</time></trkpt><trkpt lat="38.5439733" lon="16.0644333"><ele>62.0</ele><time>2026-03-29T18:21:21.578Z</time></trkpt><trkpt lat="38.54375" lon="16.0642417"><ele>62.0</ele><time>2026-03-29T18:21:22.578Z</time></trkpt><trkpt lat="38.5435267" lon="16.0640583"><ele>63.0</ele><time>2026-03-29T18:21:23.578Z</time></trkpt><trkpt lat="38.5433083" lon="16.063865"><ele>64.0</ele><time>2026-03-29T18:21:24.578Z</time></trkpt><trkpt lat="38.5430967" lon="16.0636683"><ele>64.0</ele><time>2026-03-29T18:21:25.578Z</time></trkpt><trkpt lat="38.5428933" lon="16.0634717"><ele>64.0</ele><time>2026-03-29T18:21:26.578Z</time></trkpt><trkpt lat="38.5426833" lon="16.063275"><ele>62.5</ele><time>2026-03-29T18:21:27.578Z</time></trkpt><trkpt lat="38.5424767" lon="16.0630783"><ele>61.0</ele><time>2026-03-29T18:21:28.578Z</time></trkpt><trkpt lat="38.5422667" lon="16.06288"><ele>61.0</ele><time>2026-03-29T18:21:29.578Z</time></trkpt><trkpt lat="38.542065" lon="16.06267"><ele>61.0</ele><time>2026-03-29T18:21:30.578Z</time></trkpt><trkpt lat="38.541855" lon="16.06247"><ele>60.5</ele><time>2026-03-29T18:21:31.578Z</time></trkpt><trkpt lat="38.5416467" lon="16.0622717"><ele>60.0</ele><time>2026-03-29T18:21:32.578Z</time></trkpt><trkpt lat="38.5414383" lon="16.0620533"><ele>60.0</ele><time>2026-03-29T18:21:33.578Z</time></trkpt><trkpt lat="38.54123" lon="16.06185"><ele>60.0</ele><time>2026-03-29T18:21:34.578Z</time></trkpt><trkpt lat="38.5410267" lon="16.061645"><ele>59.5</ele><time>2026-03-29T18:21:35.578Z</time></trkpt><trkpt lat="38.5408233" lon="16.0614333"><ele>59.0</ele><time>2026-03-29T18:21:36.578Z</time></trkpt><trkpt lat="38.54062" lon="16.0612317"><ele>59.0</ele><time>2026-03-29T18:21:37.578Z</time></trkpt><trkpt lat="38.54042" lon="16.0610233"><ele>59.0</ele><time>2026-03-29T18:21:38.578Z</time></trkpt><trkpt lat="38.5402117" lon="16.060825"><ele>58.5</ele><time>2026-03-29T18:21:39.578Z</time></trkpt><trkpt lat="38.5400017" lon="16.060625"><ele>58.0</ele><time>2026-03-29T18:21:40.578Z</time></trkpt><trkpt lat="38.5398" lon="16.0604167"><ele>58.0</ele><time>2026-03-29T18:21:41.578Z</time></trkpt><trkpt lat="38.5395917" lon="16.0602133"><ele>58.0</ele><time>2026-03-29T18:21:42.578Z</time></trkpt><trkpt lat="38.53938" lon="16.0600067"><ele>58.5</ele><time>2026-03-29T18:21:43.578Z</time></trkpt><trkpt lat="38.5391717" lon="16.059805"><ele>59.0</ele><time>2026-03-29T18:21:44.578Z</time></trkpt><trkpt lat="38.53897" lon="16.0595967"><ele>59.0</ele><time>2026-03-29T18:21:45.578Z</time></trkpt><trkpt lat="38.5387683" lon="16.0593833"><ele>59.0</ele><time>2026-03-29T18:21:46.578Z</time></trkpt><trkpt lat="38.5385667" lon="16.0591867"><ele>59.0</ele><time>2026-03-29T18:21:47.578Z</time></trkpt><trkpt lat="38.5383567" lon="16.0589867"><ele>59.0</ele><time>2026-03-29T18:21:48.578Z</time></trkpt><trkpt lat="38.5381383" lon="16.058785"><ele>59.0</ele><time>2026-03-29T18:21:49.578Z</time></trkpt><trkpt lat="38.537935" lon="16.0585833"><ele>59.0</ele><time>2026-03-29T18:21:50.578Z</time></trkpt><trkpt lat="38.5377317" lon="16.0583783"><ele>58.0</ele><time>2026-03-29T18:21:51.578Z</time></trkpt><trkpt lat="38.5375267" lon="16.0581667"><ele>57.0</ele><time>2026-03-29T18:21:52.578Z</time></trkpt><trkpt lat="38.5373167" lon="16.0579633"><ele>57.0</ele><time>2026-03-29T18:21:53.578Z</time></trkpt><trkpt lat="38.537115" lon="16.0577567"><ele>57.0</ele><time>2026-03-29T18:21:54.578Z</time></trkpt><trkpt lat="38.536905" lon="16.0575483"><ele>56.5</ele><time>2026-03-29T18:21:55.578Z</time></trkpt><trkpt lat="38.536695" lon="16.05734"><ele>56.0</ele><time>2026-03-29T18:21:56.578Z</time></trkpt><trkpt lat="38.536485" lon="16.0571333"><ele>56.0</ele><time>2026-03-29T18:21:57.578Z</time></trkpt><trkpt lat="38.5362883" lon="16.0569217"><ele>56.0</ele><time>2026-03-29T18:21:58.578Z</time></trkpt><trkpt lat="38.5360833" lon="16.0567083"><ele>56.0</ele><time>2026-03-29T18:21:59.578Z</time></trkpt><trkpt lat="38.5358867" lon="16.0564917"><ele>56.0</ele><time>2026-03-29T18:22:00.578Z</time></trkpt><trkpt lat="38.5356867" lon="16.0562733"><ele>56.0</ele><time>2026-03-29T18:22:01.578Z</time></trkpt><trkpt lat="38.5354783" lon="16.0560567"><ele>56.0</ele><time>2026-03-29T18:22:02.578Z</time></trkpt><trkpt lat="38.53528" lon="16.0558383"><ele>57.0</ele><time>2026-03-29T18:22:03.578Z</time></trkpt><trkpt lat="38.5350783" lon="16.055625"><ele>58.0</ele><time>2026-03-29T18:22:04.578Z</time></trkpt><trkpt lat="38.5348833" lon="16.0554117"><ele>58.0</ele><time>2026-03-29T18:22:05.579Z</time></trkpt><trkpt lat="38.5346867" lon="16.0551967"><ele>58.0</ele><time>2026-03-29T18:22:06.578Z</time></trkpt><trkpt lat="38.5344817" lon="16.0549867"><ele>60.5</ele><time>2026-03-29T18:22:07.578Z</time></trkpt><trkpt lat="38.5342783" lon="16.054775"><ele>63.0</ele><time>2026-03-29T18:22:08.578Z</time></trkpt><trkpt lat="38.5340717" lon="16.054565"><ele>63.0</ele><time>2026-03-29T18:22:09.578Z</time></trkpt><trkpt lat="38.5338617" lon="16.0543667"><ele>63.0</ele><time>2026-03-29T18:22:10.578Z</time></trkpt><trkpt lat="38.53366" lon="16.0541683"><ele>62.5</ele><time>2026-03-29T18:22:11.578Z</time></trkpt><trkpt lat="38.5334533" lon="16.0539783"><ele>62.0</ele><time>2026-03-29T18:22:12.578Z</time></trkpt><trkpt lat="38.5332333" lon="16.0538033"><ele>62.0</ele><time>2026-03-29T18:22:13.578Z</time></trkpt><trkpt lat="38.5330083" lon="16.0536333"><ele>62.0</ele><time>2026-03-29T18:22:14.578Z</time></trkpt><trkpt lat="38.5327667" lon="16.05347"><ele>65.0</ele><time>2026-03-29T18:22:15.578Z</time></trkpt><trkpt lat="38.5325267" lon="16.053315"><ele>68.0</ele><time>2026-03-29T18:22:16.578Z</time></trkpt><trkpt lat="38.5322967" lon="16.0531667"><ele>62.0</ele><time>2026-03-29T18:22:17.578Z</time></trkpt><trkpt lat="38.5320483" lon="16.0530383"><ele>56.0</ele><time>2026-03-29T18:22:18.578Z</time></trkpt><trkpt lat="38.531815" lon="16.0529067"><ele>56.0</ele><time>2026-03-29T18:22:19.578Z</time></trkpt><trkpt lat="38.531575" lon="16.05279"><ele>56.0</ele><time>2026-03-29T18:22:20.579Z</time></trkpt><trkpt lat="38.5313283" lon="16.05269"><ele>54.0</ele><time>2026-03-29T18:22:21.578Z</time></trkpt><trkpt lat="38.531065" lon="16.052605"><ele>52.0</ele><time>2026-03-29T18:22:22.578Z</time></trkpt><trkpt lat="38.53081" lon="16.0525183"><ele>53.0</ele><time>2026-03-29T18:22:23.578Z</time></trkpt><trkpt lat="38.5305583" lon="16.052435"><ele>54.0</ele><time>2026-03-29T18:22:24.578Z</time></trkpt><trkpt lat="38.5303" lon="16.0523667"><ele>54.0</ele><time>2026-03-29T18:22:25.578Z</time></trkpt><trkpt lat="38.5300433" lon="16.0523033"><ele>54.0</ele><time>2026-03-29T18:22:26.579Z</time></trkpt><trkpt lat="38.52979" lon="16.0522533"><ele>53.5</ele><time>2026-03-29T18:22:27.578Z</time></trkpt><trkpt lat="38.5295333" lon="16.052215"><ele>53.0</ele><time>2026-03-29T18:22:28.578Z</time></trkpt><trkpt lat="38.5292617" lon="16.0522"><ele>53.0</ele><time>2026-03-29T18:22:29.578Z</time></trkpt><trkpt lat="38.5290017" lon="16.0521883"><ele>53.0</ele><time>2026-03-29T18:22:30.578Z</time></trkpt><trkpt lat="38.528745" lon="16.05219"><ele>51.5</ele><time>2026-03-29T18:22:31.578Z</time></trkpt><trkpt lat="38.528485" lon="16.05219"><ele>50.0</ele><time>2026-03-29T18:22:32.578Z</time></trkpt><trkpt lat="38.5282217" lon="16.0522067"><ele>50.0</ele><time>2026-03-29T18:22:33.578Z</time></trkpt><trkpt lat="38.5279567" lon="16.0522233"><ele>50.0</ele><time>2026-03-29T18:22:34.578Z</time></trkpt><trkpt lat="38.5276917" lon="16.0522533"><ele>52.0</ele><time>2026-03-29T18:22:35.578Z</time></trkpt><trkpt lat="38.52743" lon="16.0522917"><ele>54.0</ele><time>2026-03-29T18:22:36.578Z</time></trkpt><trkpt lat="38.5271667" lon="16.0523283"><ele>58.0</ele><time>2026-03-29T18:22:37.578Z</time></trkpt><trkpt lat="38.5269067" lon="16.0523667"><ele>62.0</ele><time>2026-03-29T18:22:38.578Z</time></trkpt><trkpt lat="38.526645" lon="16.0524167"><ele>58.0</ele><time>2026-03-29T18:22:39.578Z</time></trkpt><trkpt lat="38.5263833" lon="16.0524683"><ele>54.0</ele><time>2026-03-29T18:22:40.579Z</time></trkpt><trkpt lat="38.5261267" lon="16.052515"><ele>53.5</ele><time>2026-03-29T18:22:41.578Z</time></trkpt><trkpt lat="38.525865" lon="16.052565"><ele>53.0</ele><time>2026-03-29T18:22:42.578Z</time></trkpt><trkpt lat="38.525605" lon="16.052615"><ele>52.5</ele><time>2026-03-29T18:22:43.578Z</time></trkpt><trkpt lat="38.5253517" lon="16.0526583"><ele>52.0</ele><time>2026-03-29T18:22:44.579Z</time></trkpt><trkpt lat="38.5250983" lon="16.0527017"><ele>52.0</ele><time>2026-03-29T18:22:45.578Z</time></trkpt><trkpt lat="38.5248317" lon="16.0527417"><ele>52.0</ele><time>2026-03-29T18:22:46.578Z</time></trkpt><trkpt lat="38.5245667" lon="16.0527817"><ele>53.5</ele><time>2026-03-29T18:22:47.578Z</time></trkpt><trkpt lat="38.5243083" lon="16.0528183"><ele>55.0</ele><time>2026-03-29T18:22:48.578Z</time></trkpt><trkpt lat="38.5240517" lon="16.0528467"><ele>55.0</ele><time>2026-03-29T18:22:49.578Z</time></trkpt><trkpt lat="38.5238" lon="16.0528683"><ele>55.0</ele><time>2026-03-29T18:22:50.578Z</time></trkpt><trkpt lat="38.5235417" lon="16.052885"><ele>59.5</ele><time>2026-03-29T18:22:51.578Z</time></trkpt><trkpt lat="38.52328" lon="16.0528933"><ele>64.0</ele><time>2026-03-29T18:22:52.578Z</time></trkpt><trkpt lat="38.5230083" lon="16.0528983"><ele>67.0</ele><time>2026-03-29T18:22:53.578Z</time></trkpt><trkpt lat="38.5227417" lon="16.0528967"><ele>70.0</ele><time>2026-03-29T18:22:54.578Z</time></trkpt><trkpt lat="38.522485" lon="16.0528683"><ele>70.0</ele><time>2026-03-29T18:22:55.578Z</time></trkpt><trkpt lat="38.522215" lon="16.0528467"><ele>70.0</ele><time>2026-03-29T18:22:56.578Z</time></trkpt><trkpt lat="38.52195" lon="16.0528117"><ele>63.5</ele><time>2026-03-29T18:22:57.578Z</time></trkpt><trkpt lat="38.5216917" lon="16.0527733"><ele>57.0</ele><time>2026-03-29T18:22:58.578Z</time></trkpt><trkpt lat="38.5214367" lon="16.0527217"><ele>54.0</ele><time>2026-03-29T18:22:59.578Z</time></trkpt><trkpt lat="38.5211833" lon="16.0526583"><ele>51.0</ele><time>2026-03-29T18:23:00.578Z</time></trkpt><trkpt lat="38.5209267" lon="16.0525917"><ele>51.0</ele><time>2026-03-29T18:23:01.578Z</time></trkpt><trkpt lat="38.5206683" lon="16.0525183"><ele>51.0</ele><time>2026-03-29T18:23:02.578Z</time></trkpt><trkpt lat="38.5204183" lon="16.0524317"><ele>53.5</ele><time>2026-03-29T18:23:03.578Z</time></trkpt><trkpt lat="38.5201667" lon="16.05234"><ele>56.0</ele><time>2026-03-29T18:23:04.578Z</time></trkpt><trkpt lat="38.5199117" lon="16.052245"><ele>56.0</ele><time>2026-03-29T18:23:05.578Z</time></trkpt><trkpt lat="38.5196617" lon="16.0521467"><ele>56.0</ele><time>2026-03-29T18:23:06.578Z</time></trkpt><trkpt lat="38.5194083" lon="16.0520417"><ele>53.5</ele><time>2026-03-29T18:23:07.578Z</time></trkpt><trkpt lat="38.5191517" lon="16.0519333"><ele>51.0</ele><time>2026-03-29T18:23:08.578Z</time></trkpt><trkpt lat="38.5189033" lon="16.05182"><ele>50.0</ele><time>2026-03-29T18:23:09.578Z</time></trkpt><trkpt lat="38.5186517" lon="16.05171"><ele>49.0</ele><time>2026-03-29T18:23:10.578Z</time></trkpt><trkpt lat="38.518415" lon="16.05159"><ele>59.5</ele><time>2026-03-29T18:23:11.578Z</time></trkpt><trkpt lat="38.5181783" lon="16.05147"><ele>70.0</ele><time>2026-03-29T18:23:12.578Z</time></trkpt><trkpt lat="38.5179267" lon="16.0513517"><ele>65.5</ele><time>2026-03-29T18:23:13.578Z</time></trkpt><trkpt lat="38.5176733" lon="16.05123"><ele>61.0</ele><time>2026-03-29T18:23:14.578Z</time></trkpt><trkpt lat="38.517425" lon="16.0511083"><ele>61.0</ele><time>2026-03-29T18:23:15.578Z</time></trkpt><trkpt lat="38.5171933" lon="16.050965"><ele>61.0</ele><time>2026-03-29T18:23:16.578Z</time></trkpt><trkpt lat="38.5169367" lon="16.050835"><ele>62.0</ele><time>2026-03-29T18:23:17.579Z</time></trkpt><trkpt lat="38.5167033" lon="16.050685"><ele>63.0</ele><time>2026-03-29T18:23:18.579Z</time></trkpt><trkpt lat="38.5164617" lon="16.0505483"><ele>58.0</ele><time>2026-03-29T18:23:19.579Z</time></trkpt><trkpt lat="38.516225" lon="16.0504033"><ele>53.0</ele><time>2026-03-29T18:23:20.579Z</time></trkpt><trkpt lat="38.5159917" lon="16.050255"><ele>53.0</ele><time>2026-03-29T18:23:21.579Z</time></trkpt><trkpt lat="38.515755" lon="16.0501067"><ele>53.0</ele><time>2026-03-29T18:23:22.579Z</time></trkpt><trkpt lat="38.5155283" lon="16.04996"><ele>51.0</ele><time>2026-03-29T18:23:23.579Z</time></trkpt><trkpt lat="38.5152883" lon="16.0498117"><ele>49.0</ele><time>2026-03-29T18:23:24.579Z</time></trkpt><trkpt lat="38.5150567" lon="16.04966"><ele>49.0</ele><time>2026-03-29T18:23:25.579Z</time></trkpt><trkpt lat="38.51482" lon="16.0495083"><ele>49.0</ele><time>2026-03-29T18:23:26.579Z</time></trkpt><trkpt lat="38.5145867" lon="16.0493517"><ele>48.5</ele><time>2026-03-29T18:23:27.579Z</time></trkpt><trkpt lat="38.5143567" lon="16.0491867"><ele>48.0</ele><time>2026-03-29T18:23:28.579Z</time></trkpt><trkpt lat="38.5141333" lon="16.0490217"><ele>47.5</ele><time>2026-03-29T18:23:29.579Z</time></trkpt><trkpt lat="38.5139167" lon="16.0488483"><ele>47.0</ele><time>2026-03-29T18:23:30.579Z</time></trkpt><trkpt lat="38.5137" lon="16.04867"><ele>46.5</ele><time>2026-03-29T18:23:31.579Z</time></trkpt><trkpt lat="38.5134783" lon="16.0484867"><ele>46.0</ele><time>2026-03-29T18:23:32.579Z</time></trkpt><trkpt lat="38.5132633" lon="16.048295"><ele>46.0</ele><time>2026-03-29T18:23:33.579Z</time></trkpt><trkpt lat="38.5130467" lon="16.0481"><ele>46.0</ele><time>2026-03-29T18:23:34.579Z</time></trkpt><trkpt lat="38.5128333" lon="16.0479033"><ele>46.0</ele><time>2026-03-29T18:23:35.579Z</time></trkpt><trkpt lat="38.5126233" lon="16.0477067"><ele>46.0</ele><time>2026-03-29T18:23:36.579Z</time></trkpt><trkpt lat="38.5124183" lon="16.047505"><ele>46.0</ele><time>2026-03-29T18:23:37.579Z</time></trkpt><trkpt lat="38.51222" lon="16.047295"><ele>46.0</ele><time>2026-03-29T18:23:38.579Z</time></trkpt><trkpt lat="38.5120217" lon="16.047075"><ele>46.0</ele><time>2026-03-29T18:23:39.579Z</time></trkpt><trkpt lat="38.5118267" lon="16.0468617"><ele>46.0</ele><time>2026-03-29T18:23:40.579Z</time></trkpt><trkpt lat="38.5116333" lon="16.0466417"><ele>45.5</ele><time>2026-03-29T18:23:41.579Z</time></trkpt><trkpt lat="38.5114367" lon="16.0464183"><ele>45.0</ele><time>2026-03-29T18:23:42.579Z</time></trkpt><trkpt lat="38.5112467" lon="16.0461883"><ele>45.0</ele><time>2026-03-29T18:23:43.579Z</time></trkpt><trkpt lat="38.5110533" lon="16.04596"><ele>45.0</ele><time>2026-03-29T18:23:44.579Z</time></trkpt><trkpt lat="38.5108633" lon="16.0457267"><ele>45.0</ele><time>2026-03-29T18:23:45.579Z</time></trkpt><trkpt lat="38.5106833" lon="16.0454983"><ele>45.0</ele><time>2026-03-29T18:23:46.579Z</time></trkpt><trkpt lat="38.510495" lon="16.0452683"><ele>45.0</ele><time>2026-03-29T18:23:47.579Z</time></trkpt><trkpt lat="38.5103067" lon="16.0450283"><ele>45.0</ele><time>2026-03-29T18:23:48.579Z</time></trkpt><trkpt lat="38.51012" lon="16.0447867"><ele>45.0</ele><time>2026-03-29T18:23:49.579Z</time></trkpt><trkpt lat="38.5099417" lon="16.0445433"><ele>45.0</ele><time>2026-03-29T18:23:50.579Z</time></trkpt><trkpt lat="38.50976" lon="16.0443"><ele>44.5</ele><time>2026-03-29T18:23:51.579Z</time></trkpt><trkpt lat="38.509575" lon="16.0440567"><ele>44.0</ele><time>2026-03-29T18:23:52.579Z</time></trkpt><trkpt lat="38.5093933" lon="16.0438117"><ele>44.0</ele><time>2026-03-29T18:23:53.579Z</time></trkpt><trkpt lat="38.50922" lon="16.0435717"><ele>44.0</ele><time>2026-03-29T18:23:54.579Z</time></trkpt><trkpt lat="38.5090417" lon="16.043325"><ele>43.5</ele><time>2026-03-29T18:23:55.579Z</time></trkpt><trkpt lat="38.50887" lon="16.0430733"><ele>43.0</ele><time>2026-03-29T18:23:56.579Z</time></trkpt><trkpt lat="38.5086967" lon="16.0428183"><ele>43.0</ele><time>2026-03-29T18:23:57.58Z</time></trkpt><trkpt lat="38.5085117" lon="16.0425767"><ele>43.0</ele><time>2026-03-29T18:23:58.579Z</time></trkpt><trkpt lat="38.5083317" lon="16.0423283"><ele>43.0</ele><time>2026-03-29T18:23:59.579Z</time></trkpt><trkpt lat="38.5081583" lon="16.04208"><ele>43.0</ele><time>2026-03-29T18:24:00.579Z</time></trkpt><trkpt lat="38.5079883" lon="16.0418217"><ele>42.5</ele><time>2026-03-29T18:24:01.579Z</time></trkpt><trkpt lat="38.507815" lon="16.0415633"><ele>42.0</ele><time>2026-03-29T18:24:02.579Z</time></trkpt><trkpt lat="38.507645" lon="16.04129"><ele>42.0</ele><time>2026-03-29T18:24:03.579Z</time></trkpt><trkpt lat="38.5074833" lon="16.0410233"><ele>42.0</ele><time>2026-03-29T18:24:04.579Z</time></trkpt><trkpt lat="38.507335" lon="16.0407633"><ele>42.0</ele><time>2026-03-29T18:24:05.579Z</time></trkpt><trkpt lat="38.50718" lon="16.0405017"><ele>42.0</ele><time>2026-03-29T18:24:06.579Z</time></trkpt><trkpt lat="38.50702" lon="16.0402433"><ele>41.5</ele><time>2026-03-29T18:24:07.579Z</time></trkpt><trkpt lat="38.5068583" lon="16.03998"><ele>41.0</ele><time>2026-03-29T18:24:08.579Z</time></trkpt><trkpt lat="38.5066983" lon="16.03971"><ele>40.5</ele><time>2026-03-29T18:24:09.579Z</time></trkpt><trkpt lat="38.50654" lon="16.03945"><ele>40.0</ele><time>2026-03-29T18:24:10.579Z</time></trkpt><trkpt lat="38.506375" lon="16.03919"><ele>40.5</ele><time>2026-03-29T18:24:11.579Z</time></trkpt><trkpt lat="38.50621" lon="16.0389233"><ele>41.0</ele><time>2026-03-29T18:24:12.579Z</time></trkpt><trkpt lat="38.5060483" lon="16.0386617"><ele>41.0</ele><time>2026-03-29T18:24:13.579Z</time></trkpt><trkpt lat="38.5058883" lon="16.0383917"><ele>41.0</ele><time>2026-03-29T18:24:14.579Z</time></trkpt><trkpt lat="38.5057317" lon="16.0381267"><ele>41.0</ele><time>2026-03-29T18:24:15.579Z</time></trkpt><trkpt lat="38.5055717" lon="16.03787"><ele>41.0</ele><time>2026-03-29T18:24:16.579Z</time></trkpt><trkpt lat="38.5054117" lon="16.0376067"><ele>40.5</ele><time>2026-03-29T18:24:17.579Z</time></trkpt><trkpt lat="38.5052567" lon="16.0373467"><ele>40.0</ele><time>2026-03-29T18:24:18.579Z</time></trkpt><trkpt lat="38.5050967" lon="16.0370717"><ele>40.0</ele><time>2026-03-29T18:24:19.579Z</time></trkpt><trkpt lat="38.50493" lon="16.0368033"><ele>40.0</ele><time>2026-03-29T18:24:20.579Z</time></trkpt><trkpt lat="38.5047733" lon="16.036545"><ele>40.5</ele><time>2026-03-29T18:24:21.579Z</time></trkpt><trkpt lat="38.50462" lon="16.0362817"><ele>41.0</ele><time>2026-03-29T18:24:22.579Z</time></trkpt><trkpt lat="38.504455" lon="16.0360167"><ele>40.0</ele><time>2026-03-29T18:24:23.579Z</time></trkpt><trkpt lat="38.5042967" lon="16.03575"><ele>39.0</ele><time>2026-03-29T18:24:24.579Z</time></trkpt><trkpt lat="38.50413" lon="16.0354767"><ele>39.0</ele><time>2026-03-29T18:24:25.58Z</time></trkpt><trkpt lat="38.5039817" lon="16.0352083"><ele>39.0</ele><time>2026-03-29T18:24:26.579Z</time></trkpt><trkpt lat="38.5038217" lon="16.0349417"><ele>39.5</ele><time>2026-03-29T18:24:27.579Z</time></trkpt><trkpt lat="38.5036617" lon="16.0346883"><ele>40.0</ele><time>2026-03-29T18:24:28.579Z</time></trkpt><trkpt lat="38.5035017" lon="16.034425"><ele>40.0</ele><time>2026-03-29T18:24:29.579Z</time></trkpt><trkpt lat="38.5033433" lon="16.034175"><ele>40.0</ele><time>2026-03-29T18:24:30.579Z</time></trkpt><trkpt lat="38.5031817" lon="16.0339183"><ele>39.5</ele><time>2026-03-29T18:24:31.579Z</time></trkpt><trkpt lat="38.5030283" lon="16.0336583"><ele>39.0</ele><time>2026-03-29T18:24:32.579Z</time></trkpt><trkpt lat="38.5028717" lon="16.033405"><ele>40.0</ele><time>2026-03-29T18:24:33.579Z</time></trkpt><trkpt lat="38.50272" lon="16.033155"><ele>41.0</ele><time>2026-03-29T18:24:34.579Z</time></trkpt><trkpt lat="38.5025733" lon="16.032905"><ele>41.0</ele><time>2026-03-29T18:24:35.58Z</time></trkpt><trkpt lat="38.502435" lon="16.0326433"><ele>41.0</ele><time>2026-03-29T18:24:36.579Z</time></trkpt><trkpt lat="38.5022883" lon="16.0323883"><ele>40.0</ele><time>2026-03-29T18:24:37.579Z</time></trkpt><trkpt lat="38.5021533" lon="16.03214"><ele>39.0</ele><time>2026-03-29T18:24:38.579Z</time></trkpt><trkpt lat="38.5020183" lon="16.0318867"><ele>39.0</ele><time>2026-03-29T18:24:39.579Z</time></trkpt><trkpt lat="38.5018817" lon="16.031635"><ele>39.0</ele><time>2026-03-29T18:24:40.579Z</time></trkpt><trkpt lat="38.5017533" lon="16.0313783"><ele>39.0</ele><time>2026-03-29T18:24:41.579Z</time></trkpt><trkpt lat="38.50163" lon="16.0311217"><ele>39.0</ele><time>2026-03-29T18:24:42.579Z</time></trkpt><trkpt lat="38.501515" lon="16.03086"><ele>40.0</ele><time>2026-03-29T18:24:43.579Z</time></trkpt><trkpt lat="38.5014167" lon="16.0306017"><ele>41.0</ele><time>2026-03-29T18:24:44.579Z</time></trkpt><trkpt lat="38.5013183" lon="16.0303433"><ele>40.0</ele><time>2026-03-29T18:24:45.579Z</time></trkpt><trkpt lat="38.5012183" lon="16.03009"><ele>39.0</ele><time>2026-03-29T18:24:46.579Z</time></trkpt><trkpt lat="38.5011167" lon="16.0298333"><ele>38.0</ele><time>2026-03-29T18:24:47.579Z</time></trkpt><trkpt lat="38.5010233" lon="16.0295783"><ele>38.0</ele><time>2026-03-29T18:24:48.579Z</time></trkpt><trkpt lat="38.50094" lon="16.029315"><ele>38.0</ele><time>2026-03-29T18:24:49.579Z</time></trkpt><trkpt lat="38.5008667" lon="16.0290517"><ele>38.0</ele><time>2026-03-29T18:24:50.579Z</time></trkpt><trkpt lat="38.5007883" lon="16.0287883"><ele>38.0</ele><time>2026-03-29T18:24:51.579Z</time></trkpt><trkpt lat="38.5007183" lon="16.0285333"><ele>38.0</ele><time>2026-03-29T18:24:52.579Z</time></trkpt><trkpt lat="38.5006417" lon="16.0282683"><ele>38.0</ele><time>2026-03-29T18:24:53.579Z</time></trkpt><trkpt lat="38.500575" lon="16.0279983"><ele>37.666666666666664</ele><time>2026-03-29T18:24:54.579Z</time></trkpt><trkpt lat="38.5005183" lon="16.02773"><ele>37.333333333333336</ele><time>2026-03-29T18:24:55.579Z</time></trkpt><trkpt lat="38.5004617" lon="16.0274617"><ele>37.0</ele><time>2026-03-29T18:24:56.579Z</time></trkpt><trkpt lat="38.5004033" lon="16.0272017"><ele>37.0</ele><time>2026-03-29T18:24:57.579Z</time></trkpt><trkpt lat="38.5003433" lon="16.0269233"><ele>37.0</ele><time>2026-03-29T18:24:58.579Z</time></trkpt><trkpt lat="38.5002833" lon="16.0266533"><ele>37.0</ele><time>2026-03-29T18:24:59.579Z</time></trkpt><trkpt lat="38.50023" lon="16.026385"><ele>36.66666666666667</ele><time>2026-03-29T18:25:00.579Z</time></trkpt><trkpt lat="38.50018" lon="16.0261133"><ele>36.333333333333336</ele><time>2026-03-29T18:25:01.579Z</time></trkpt><trkpt lat="38.5001283" lon="16.0258483"><ele>36.0</ele><time>2026-03-29T18:25:02.579Z</time></trkpt><trkpt lat="38.5000717" lon="16.0255717"><ele>35.666666666666664</ele><time>2026-03-29T18:25:03.579Z</time></trkpt><trkpt lat="38.5000233" lon="16.0253033"><ele>35.33333333333333</ele><time>2026-03-29T18:25:04.579Z</time></trkpt><trkpt lat="38.4999733" lon="16.0250333"><ele>35.0</ele><time>2026-03-29T18:25:05.579Z</time></trkpt><trkpt lat="38.4999217" lon="16.02476"><ele>35.0</ele><time>2026-03-29T18:25:06.579Z</time></trkpt><trkpt lat="38.4998717" lon="16.0244867"><ele>35.0</ele><time>2026-03-29T18:25:07.579Z</time></trkpt><trkpt lat="38.499825" lon="16.0242167"><ele>35.0</ele><time>2026-03-29T18:25:08.579Z</time></trkpt><trkpt lat="38.49977" lon="16.02395"><ele>35.33333333333333</ele><time>2026-03-29T18:25:09.579Z</time></trkpt><trkpt lat="38.49972" lon="16.0236767"><ele>35.666666666666664</ele><time>2026-03-29T18:25:10.579Z</time></trkpt><trkpt lat="38.4996633" lon="16.0233983"><ele>36.0</ele><time>2026-03-29T18:25:11.579Z</time></trkpt><trkpt lat="38.4996067" lon="16.0231283"><ele>35.333333333333336</ele><time>2026-03-29T18:25:12.579Z</time></trkpt><trkpt lat="38.499555" lon="16.02286"><ele>34.66666666666667</ele><time>2026-03-29T18:25:13.579Z</time></trkpt><trkpt lat="38.4995033" lon="16.0225933"><ele>34.0</ele><time>2026-03-29T18:25:14.579Z</time></trkpt><trkpt lat="38.4994533" lon="16.0223317"><ele>34.0</ele><time>2026-03-29T18:25:15.579Z</time></trkpt><trkpt lat="38.4993967" lon="16.0220667"><ele>34.0</ele><time>2026-03-29T18:25:16.579Z</time></trkpt><trkpt lat="38.49934" lon="16.0218"><ele>34.0</ele><time>2026-03-29T18:25:17.579Z</time></trkpt><trkpt lat="38.4992767" lon="16.0215317"><ele>34.0</ele><time>2026-03-29T18:25:18.579Z</time></trkpt><trkpt lat="38.49922" lon="16.0212767"><ele>34.0</ele><time>2026-03-29T18:25:19.579Z</time></trkpt><trkpt lat="38.4991467" lon="16.02102"><ele>34.0</ele><time>2026-03-29T18:25:20.579Z</time></trkpt><trkpt lat="38.4990683" lon="16.0207567"><ele>34.0</ele><time>2026-03-29T18:25:21.579Z</time></trkpt><trkpt lat="38.4989867" lon="16.020485"><ele>34.0</ele><time>2026-03-29T18:25:22.579Z</time></trkpt><trkpt lat="38.4988917" lon="16.02019"><ele>34.0</ele><time>2026-03-29T18:25:23.579Z</time></trkpt><trkpt lat="38.49879" lon="16.0198883"><ele>34.0</ele><time>2026-03-29T18:25:24.579Z</time></trkpt><trkpt lat="38.4986883" lon="16.0195567"><ele>35.5</ele><time>2026-03-29T18:25:25.579Z</time></trkpt><trkpt lat="38.4985817" lon="16.0192133"><ele>37.0</ele><time>2026-03-29T18:25:26.579Z</time></trkpt><trkpt lat="38.4984667" lon="16.0188733"><ele>34.0</ele><time>2026-03-29T18:25:27.579Z</time></trkpt><trkpt lat="38.498355" lon="16.0185283"><ele>31.0</ele><time>2026-03-29T18:25:28.579Z</time></trkpt><trkpt lat="38.4982367" lon="16.0181767"><ele>30.5</ele><time>2026-03-29T18:25:29.579Z</time></trkpt><trkpt lat="38.498105" lon="16.0178367"><ele>30.0</ele><time>2026-03-29T18:25:30.579Z</time></trkpt><trkpt lat="38.4979717" lon="16.0175033"><ele>32.0</ele><time>2026-03-29T18:25:31.579Z</time></trkpt><trkpt lat="38.49784" lon="16.0172"><ele>34.0</ele><time>2026-03-29T18:25:32.579Z</time></trkpt><trkpt lat="38.4977083" lon="16.0169117"><ele>33.5</ele><time>2026-03-29T18:25:33.579Z</time></trkpt><trkpt lat="38.497575" lon="16.0166317"><ele>33.0</ele><time>2026-03-29T18:25:34.579Z</time></trkpt><trkpt lat="38.4974433" lon="16.0163567"><ele>33.0</ele><time>2026-03-29T18:25:35.579Z</time></trkpt><trkpt lat="38.4973167" lon="16.0161"><ele>33.0</ele><time>2026-03-29T18:25:36.579Z</time></trkpt><trkpt lat="38.4971817" lon="16.01584"><ele>37.5</ele><time>2026-03-29T18:25:37.579Z</time></trkpt><trkpt lat="38.49705" lon="16.0155717"><ele>42.0</ele><time>2026-03-29T18:25:38.579Z</time></trkpt><trkpt lat="38.4969133" lon="16.015315"><ele>42.0</ele><time>2026-03-29T18:25:39.579Z</time></trkpt><trkpt lat="38.4967717" lon="16.0150617"><ele>42.0</ele><time>2026-03-29T18:25:40.579Z</time></trkpt><trkpt lat="38.4966233" lon="16.014795"><ele>39.5</ele><time>2026-03-29T18:25:41.579Z</time></trkpt><trkpt lat="38.4964683" lon="16.01454"><ele>37.0</ele><time>2026-03-29T18:25:42.579Z</time></trkpt><trkpt lat="38.4963033" lon="16.0142983"><ele>39.0</ele><time>2026-03-29T18:25:43.579Z</time></trkpt><trkpt lat="38.496135" lon="16.01405"><ele>41.0</ele><time>2026-03-29T18:25:44.58Z</time></trkpt><trkpt lat="38.495955" lon="16.0138"><ele>41.0</ele><time>2026-03-29T18:25:45.579Z</time></trkpt><trkpt lat="38.4957733" lon="16.0135567"><ele>41.0</ele><time>2026-03-29T18:25:46.579Z</time></trkpt><trkpt lat="38.49559" lon="16.0133183"><ele>43.0</ele><time>2026-03-29T18:25:47.579Z</time></trkpt><trkpt lat="38.4953933" lon="16.0130867"><ele>45.0</ele><time>2026-03-29T18:25:48.579Z</time></trkpt><trkpt lat="38.49519" lon="16.0128633"><ele>45.0</ele><time>2026-03-29T18:25:49.579Z</time></trkpt><trkpt lat="38.4949867" lon="16.0126383"><ele>45.0</ele><time>2026-03-29T18:25:50.579Z</time></trkpt><trkpt lat="38.494775" lon="16.012425"><ele>44.5</ele><time>2026-03-29T18:25:51.579Z</time></trkpt><trkpt lat="38.4945667" lon="16.0122283"><ele>44.0</ele><time>2026-03-29T18:25:52.579Z</time></trkpt><trkpt lat="38.4943583" lon="16.012035"><ele>44.0</ele><time>2026-03-29T18:25:53.579Z</time></trkpt><trkpt lat="38.4941483" lon="16.0118467"><ele>44.0</ele><time>2026-03-29T18:25:54.579Z</time></trkpt><trkpt lat="38.49392" lon="16.011665"><ele>40.0</ele><time>2026-03-29T18:25:55.579Z</time></trkpt><trkpt lat="38.4936917" lon="16.0114933"><ele>36.0</ele><time>2026-03-29T18:25:56.579Z</time></trkpt><trkpt lat="38.493465" lon="16.0113267"><ele>36.0</ele><time>2026-03-29T18:25:57.579Z</time></trkpt><trkpt lat="38.4932383" lon="16.0111667"><ele>36.0</ele><time>2026-03-29T18:25:58.579Z</time></trkpt><trkpt lat="38.4930067" lon="16.0110133"><ele>35.0</ele><time>2026-03-29T18:25:59.579Z</time></trkpt><trkpt lat="38.492775" lon="16.0108633"><ele>34.0</ele><time>2026-03-29T18:26:00.579Z</time></trkpt><trkpt lat="38.4925467" lon="16.0107233"><ele>34.0</ele><time>2026-03-29T18:26:01.579Z</time></trkpt><trkpt lat="38.4923183" lon="16.0105783"><ele>34.0</ele><time>2026-03-29T18:26:02.579Z</time></trkpt><trkpt lat="38.49209" lon="16.010435"><ele>33.0</ele><time>2026-03-29T18:26:03.579Z</time></trkpt><trkpt lat="38.4918633" lon="16.0102917"><ele>32.0</ele><time>2026-03-29T18:26:04.579Z</time></trkpt><trkpt lat="38.4916367" lon="16.0101517"><ele>32.0</ele><time>2026-03-29T18:26:05.579Z</time></trkpt><trkpt lat="38.4914033" lon="16.0100117"><ele>32.0</ele><time>2026-03-29T18:26:06.579Z</time></trkpt><trkpt lat="38.49117" lon="16.0098767"><ele>31.5</ele><time>2026-03-29T18:26:07.579Z</time></trkpt><trkpt lat="38.4909433" lon="16.0097383"><ele>31.0</ele><time>2026-03-29T18:26:08.579Z</time></trkpt><trkpt lat="38.49071" lon="16.0096033"><ele>31.0</ele><time>2026-03-29T18:26:09.579Z</time></trkpt><trkpt lat="38.4904867" lon="16.009455"><ele>31.0</ele><time>2026-03-29T18:26:10.579Z</time></trkpt><trkpt lat="38.490265" lon="16.0093033"><ele>32.0</ele><time>2026-03-29T18:26:11.579Z</time></trkpt><trkpt lat="38.4900483" lon="16.0091433"><ele>33.0</ele><time>2026-03-29T18:26:12.579Z</time></trkpt><trkpt lat="38.4898367" lon="16.0089833"><ele>33.0</ele><time>2026-03-29T18:26:13.579Z</time></trkpt><trkpt lat="38.48962" lon="16.0088067"><ele>33.0</ele><time>2026-03-29T18:26:14.579Z</time></trkpt><trkpt lat="38.48941" lon="16.0086267"><ele>32.5</ele><time>2026-03-29T18:26:15.579Z</time></trkpt><trkpt lat="38.489205" lon="16.0084417"><ele>32.0</ele><time>2026-03-29T18:26:16.579Z</time></trkpt><trkpt lat="38.489005" lon="16.008245"><ele>31.5</ele><time>2026-03-29T18:26:17.579Z</time></trkpt><trkpt lat="38.4888017" lon="16.0080383"><ele>31.0</ele><time>2026-03-29T18:26:18.579Z</time></trkpt><trkpt lat="38.4886017" lon="16.0078267"><ele>30.5</ele><time>2026-03-29T18:26:19.579Z</time></trkpt><trkpt lat="38.48841" lon="16.0076033"><ele>30.0</ele><time>2026-03-29T18:26:20.579Z</time></trkpt><trkpt lat="38.4882183" lon="16.0073683"><ele>30.0</ele><time>2026-03-29T18:26:21.579Z</time></trkpt><trkpt lat="38.4880417" lon="16.0071283"><ele>30.0</ele><time>2026-03-29T18:26:22.579Z</time></trkpt><trkpt lat="38.4878733" lon="16.0068867"><ele>30.5</ele><time>2026-03-29T18:26:23.579Z</time></trkpt><trkpt lat="38.4876967" lon="16.0066467"><ele>31.0</ele><time>2026-03-29T18:26:24.579Z</time></trkpt><trkpt lat="38.4875317" lon="16.0064017"><ele>31.0</ele><time>2026-03-29T18:26:25.579Z</time></trkpt><trkpt lat="38.4873667" lon="16.0061633"><ele>31.0</ele><time>2026-03-29T18:26:26.579Z</time></trkpt><trkpt lat="38.4871933" lon="16.0059233"><ele>31.0</ele><time>2026-03-29T18:26:27.579Z</time></trkpt><trkpt lat="38.48703" lon="16.0056867"><ele>31.0</ele><time>2026-03-29T18:26:28.58Z</time></trkpt><trkpt lat="38.48687" lon="16.0054483"><ele>31.0</ele><time>2026-03-29T18:26:29.579Z</time></trkpt><trkpt lat="38.4867033" lon="16.005205"><ele>31.0</ele><time>2026-03-29T18:26:30.579Z</time></trkpt><trkpt lat="38.4865333" lon="16.004975"><ele>31.0</ele><time>2026-03-29T18:26:31.579Z</time></trkpt><trkpt lat="38.4863667" lon="16.0047533"><ele>31.0</ele><time>2026-03-29T18:26:32.579Z</time></trkpt><trkpt lat="38.4861883" lon="16.0045317"><ele>31.0</ele><time>2026-03-29T18:26:33.579Z</time></trkpt><trkpt lat="38.4860083" lon="16.00431"><ele>31.0</ele><time>2026-03-29T18:26:34.579Z</time></trkpt><trkpt lat="38.4858317" lon="16.0040967"><ele>31.0</ele><time>2026-03-29T18:26:35.579Z</time></trkpt><trkpt lat="38.485645" lon="16.0038933"><ele>31.0</ele><time>2026-03-29T18:26:36.579Z</time></trkpt><trkpt lat="38.4854433" lon="16.00369"><ele>31.5</ele><time>2026-03-29T18:26:37.579Z</time></trkpt><trkpt lat="38.48524" lon="16.0034933"><ele>32.0</ele><time>2026-03-29T18:26:38.579Z</time></trkpt><trkpt lat="38.4850317" lon="16.00331"><ele>33.0</ele><time>2026-03-29T18:26:39.579Z</time></trkpt><trkpt lat="38.4848283" lon="16.0031333"><ele>34.0</ele><time>2026-03-29T18:26:40.579Z</time></trkpt><trkpt lat="38.4846183" lon="16.0029583"><ele>38.5</ele><time>2026-03-29T18:26:41.579Z</time></trkpt><trkpt lat="38.4843967" lon="16.0027867"><ele>43.0</ele><time>2026-03-29T18:26:42.579Z</time></trkpt><trkpt lat="38.4841783" lon="16.0026317"><ele>41.0</ele><time>2026-03-29T18:26:43.579Z</time></trkpt><trkpt lat="38.4839517" lon="16.0024833"><ele>39.0</ele><time>2026-03-29T18:26:44.579Z</time></trkpt><trkpt lat="38.4837267" lon="16.0023533"><ele>44.0</ele><time>2026-03-29T18:26:45.579Z</time></trkpt><trkpt lat="38.4835033" lon="16.0022233"><ele>49.0</ele><time>2026-03-29T18:26:46.579Z</time></trkpt><trkpt lat="38.4832667" lon="16.0020983"><ele>49.0</ele><time>2026-03-29T18:26:47.579Z</time></trkpt><trkpt lat="38.4830283" lon="16.0019833"><ele>49.0</ele><time>2026-03-29T18:26:48.579Z</time></trkpt><trkpt lat="38.4827967" lon="16.001875"><ele>50.0</ele><time>2026-03-29T18:26:49.579Z</time></trkpt><trkpt lat="38.4825567" lon="16.0017783"><ele>51.0</ele><time>2026-03-29T18:26:50.579Z</time></trkpt><trkpt lat="38.4823183" lon="16.001685"><ele>52.0</ele><time>2026-03-29T18:26:51.579Z</time></trkpt><trkpt lat="38.4820817" lon="16.001595"><ele>53.0</ele><time>2026-03-29T18:26:52.579Z</time></trkpt><trkpt lat="38.481845" lon="16.0014983"><ele>53.0</ele><time>2026-03-29T18:26:53.579Z</time></trkpt><trkpt lat="38.481625" lon="16.0013983"><ele>53.0</ele><time>2026-03-29T18:26:54.579Z</time></trkpt><trkpt lat="38.4813717" lon="16.00133"><ele>49.5</ele><time>2026-03-29T18:26:55.579Z</time></trkpt><trkpt lat="38.481135" lon="16.001255"><ele>46.0</ele><time>2026-03-29T18:26:56.579Z</time></trkpt><trkpt lat="38.4808917" lon="16.0011767"><ele>46.0</ele><time>2026-03-29T18:26:57.579Z</time></trkpt><trkpt lat="38.480645" lon="16.0010983"><ele>46.0</ele><time>2026-03-29T18:26:58.579Z</time></trkpt><trkpt lat="38.4803933" lon="16.00103"><ele>42.0</ele><time>2026-03-29T18:26:59.579Z</time></trkpt><trkpt lat="38.48014" lon="16.0009633"><ele>38.0</ele><time>2026-03-29T18:27:00.579Z</time></trkpt><trkpt lat="38.4798967" lon="16.0008833"><ele>37.0</ele><time>2026-03-29T18:27:01.579Z</time></trkpt><trkpt lat="38.47965" lon="16.0008033"><ele>36.0</ele><time>2026-03-29T18:27:02.579Z</time></trkpt><trkpt lat="38.4794067" lon="16.0007183"><ele>34.0</ele><time>2026-03-29T18:27:03.579Z</time></trkpt><trkpt lat="38.4791617" lon="16.000635"><ele>32.0</ele><time>2026-03-29T18:27:04.579Z</time></trkpt><trkpt lat="38.4789183" lon="16.0005467"><ele>33.5</ele><time>2026-03-29T18:27:05.579Z</time></trkpt><trkpt lat="38.4786717" lon="16.00045"><ele>35.0</ele><time>2026-03-29T18:27:06.579Z</time></trkpt><trkpt lat="38.4784317" lon="16.00034"><ele>35.0</ele><time>2026-03-29T18:27:07.579Z</time></trkpt><trkpt lat="38.4781967" lon="16.0002383"><ele>35.0</ele><time>2026-03-29T18:27:08.579Z</time></trkpt><trkpt lat="38.47796" lon="16.000125"><ele>34.5</ele><time>2026-03-29T18:27:09.579Z</time></trkpt><trkpt lat="38.4777183" lon="16.0"><ele>34.0</ele><time>2026-03-29T18:27:10.579Z</time></trkpt><trkpt lat="38.4774783" lon="15.999875"><ele>34.0</ele><time>2026-03-29T18:27:11.579Z</time></trkpt><trkpt lat="38.4772367" lon="15.99974"><ele>34.0</ele><time>2026-03-29T18:27:12.579Z</time></trkpt><trkpt lat="38.47701" lon="15.9996"><ele>35.0</ele><time>2026-03-29T18:27:13.579Z</time></trkpt><trkpt lat="38.4767733" lon="15.99946"><ele>36.0</ele><time>2026-03-29T18:27:14.579Z</time></trkpt><trkpt lat="38.47655" lon="15.999315"><ele>36.0</ele><time>2026-03-29T18:27:15.579Z</time></trkpt><trkpt lat="38.4763217" lon="15.9991517"><ele>36.0</ele><time>2026-03-29T18:27:16.579Z</time></trkpt><trkpt lat="38.476095" lon="15.9989967"><ele>34.5</ele><time>2026-03-29T18:27:17.579Z</time></trkpt><trkpt lat="38.47588" lon="15.998835"><ele>33.0</ele><time>2026-03-29T18:27:18.579Z</time></trkpt><trkpt lat="38.4756517" lon="15.9986733"><ele>34.0</ele><time>2026-03-29T18:27:19.579Z</time></trkpt><trkpt lat="38.4754233" lon="15.998515"><ele>35.0</ele><time>2026-03-29T18:27:20.579Z</time></trkpt><trkpt lat="38.4752033" lon="15.99835"><ele>35.5</ele><time>2026-03-29T18:27:21.579Z</time></trkpt><trkpt lat="38.4749817" lon="15.9981883"><ele>36.0</ele><time>2026-03-29T18:27:22.579Z</time></trkpt><trkpt lat="38.4747633" lon="15.9980183"><ele>35.0</ele><time>2026-03-29T18:27:23.579Z</time></trkpt><trkpt lat="38.4745467" lon="15.997845"><ele>34.0</ele><time>2026-03-29T18:27:24.579Z</time></trkpt><trkpt lat="38.4743267" lon="15.9976733"><ele>34.0</ele><time>2026-03-29T18:27:25.579Z</time></trkpt><trkpt lat="38.474105" lon="15.997505"><ele>34.0</ele><time>2026-03-29T18:27:26.579Z</time></trkpt><trkpt lat="38.4738833" lon="15.9973417"><ele>34.5</ele><time>2026-03-29T18:27:27.579Z</time></trkpt><trkpt lat="38.473665" lon="15.997175"><ele>35.0</ele><time>2026-03-29T18:27:28.579Z</time></trkpt><trkpt lat="38.4734417" lon="15.99701"><ele>35.0</ele><time>2026-03-29T18:27:29.579Z</time></trkpt><trkpt lat="38.4732217" lon="15.99684"><ele>35.0</ele><time>2026-03-29T18:27:30.579Z</time></trkpt><trkpt lat="38.4730067" lon="15.99666"><ele>35.5</ele><time>2026-03-29T18:27:31.579Z</time></trkpt><trkpt lat="38.4728033" lon="15.996475"><ele>36.0</ele><time>2026-03-29T18:27:32.579Z</time></trkpt><trkpt lat="38.4726" lon="15.9962767"><ele>36.0</ele><time>2026-03-29T18:27:33.579Z</time></trkpt><trkpt lat="38.4724" lon="15.99608"><ele>36.0</ele><time>2026-03-29T18:27:34.579Z</time></trkpt><trkpt lat="38.472205" lon="15.9958767"><ele>35.0</ele><time>2026-03-29T18:27:35.579Z</time></trkpt><trkpt lat="38.4720167" lon="15.99567"><ele>34.0</ele><time>2026-03-29T18:27:36.579Z</time></trkpt><trkpt lat="38.4718333" lon="15.9954517"><ele>34.0</ele><time>2026-03-29T18:27:37.579Z</time></trkpt><trkpt lat="38.4716567" lon="15.9952383"><ele>34.0</ele><time>2026-03-29T18:27:38.579Z</time></trkpt><trkpt lat="38.4714833" lon="15.9950117"><ele>34.0</ele><time>2026-03-29T18:27:39.579Z</time></trkpt><trkpt lat="38.4713067" lon="15.9947783"><ele>34.0</ele><time>2026-03-29T18:27:40.579Z</time></trkpt><trkpt lat="38.4711383" lon="15.9945467"><ele>33.5</ele><time>2026-03-29T18:27:41.579Z</time></trkpt><trkpt lat="38.4709883" lon="15.99431"><ele>33.0</ele><time>2026-03-29T18:27:42.579Z</time></trkpt><trkpt lat="38.4708267" lon="15.9940717"><ele>33.0</ele><time>2026-03-29T18:27:43.579Z</time></trkpt><trkpt lat="38.47067" lon="15.99382"><ele>33.0</ele><time>2026-03-29T18:27:44.579Z</time></trkpt><trkpt lat="38.4705267" lon="15.9935583"><ele>32.0</ele><time>2026-03-29T18:27:45.579Z</time></trkpt><trkpt lat="38.4703917" lon="15.9933133"><ele>31.0</ele><time>2026-03-29T18:27:46.579Z</time></trkpt><trkpt lat="38.470255" lon="15.9930683"><ele>31.0</ele><time>2026-03-29T18:27:47.579Z</time></trkpt><trkpt lat="38.4701233" lon="15.99281"><ele>31.0</ele><time>2026-03-29T18:27:48.579Z</time></trkpt><trkpt lat="38.4699833" lon="15.99255"><ele>32.0</ele><time>2026-03-29T18:27:49.579Z</time></trkpt><trkpt lat="38.4698333" lon="15.992295"><ele>33.0</ele><time>2026-03-29T18:27:50.579Z</time></trkpt><trkpt lat="38.4696917" lon="15.9920417"><ele>42.5</ele><time>2026-03-29T18:27:51.579Z</time></trkpt><trkpt lat="38.4695533" lon="15.9917783"><ele>52.0</ele><time>2026-03-29T18:27:52.579Z</time></trkpt><trkpt lat="38.469425" lon="15.9915133"><ele>55.0</ele><time>2026-03-29T18:27:53.579Z</time></trkpt><trkpt lat="38.4692783" lon="15.9912633"><ele>58.0</ele><time>2026-03-29T18:27:54.579Z</time></trkpt><trkpt lat="38.4691383" lon="15.9910067"><ele>60.0</ele><time>2026-03-29T18:27:55.579Z</time></trkpt><trkpt lat="38.4689883" lon="15.9907717"><ele>62.0</ele><time>2026-03-29T18:27:56.579Z</time></trkpt><trkpt lat="38.4688417" lon="15.9905217"><ele>61.5</ele><time>2026-03-29T18:27:57.579Z</time></trkpt><trkpt lat="38.4687" lon="15.9902783"><ele>61.0</ele><time>2026-03-29T18:27:58.579Z</time></trkpt><trkpt lat="38.4685567" lon="15.990035"><ele>61.0</ele><time>2026-03-29T18:27:59.579Z</time></trkpt><trkpt lat="38.4684167" lon="15.9897917"><ele>61.0</ele><time>2026-03-29T18:28:00.579Z</time></trkpt><trkpt lat="38.4682833" lon="15.9895333"><ele>61.0</ele><time>2026-03-29T18:28:01.579Z</time></trkpt><trkpt lat="38.468145" lon="15.989235"><ele>61.0</ele><time>2026-03-29T18:28:02.579Z</time></trkpt><trkpt lat="38.46803" lon="15.988955"><ele>57.5</ele><time>2026-03-29T18:28:03.579Z</time></trkpt><trkpt lat="38.4679033" lon="15.9886533"><ele>54.0</ele><time>2026-03-29T18:28:04.579Z</time></trkpt><trkpt lat="38.4677617" lon="15.9883867"><ele>54.5</ele><time>2026-03-29T18:28:05.58Z</time></trkpt><trkpt lat="38.4676117" lon="15.9881283"><ele>55.0</ele><time>2026-03-29T18:28:06.579Z</time></trkpt><trkpt lat="38.4674583" lon="15.987865"><ele>55.0</ele><time>2026-03-29T18:28:07.579Z</time></trkpt><trkpt lat="38.4673117" lon="15.9876017"><ele>55.0</ele><time>2026-03-29T18:28:08.579Z</time></trkpt><trkpt lat="38.46717" lon="15.9873333"><ele>55.5</ele><time>2026-03-29T18:28:09.579Z</time></trkpt><trkpt lat="38.467025" lon="15.98707"><ele>56.0</ele><time>2026-03-29T18:28:10.579Z</time></trkpt><trkpt lat="38.4668717" lon="15.9868"><ele>56.5</ele><time>2026-03-29T18:28:11.579Z</time></trkpt><trkpt lat="38.4667233" lon="15.9865317"><ele>57.0</ele><time>2026-03-29T18:28:12.579Z</time></trkpt><trkpt lat="38.4665683" lon="15.9862567"><ele>57.0</ele><time>2026-03-29T18:28:13.579Z</time></trkpt><trkpt lat="38.4664133" lon="15.985985"><ele>57.0</ele><time>2026-03-29T18:28:14.579Z</time></trkpt><trkpt lat="38.4662667" lon="15.985715"><ele>59.0</ele><time>2026-03-29T18:28:15.579Z</time></trkpt><trkpt lat="38.4661267" lon="15.985435"><ele>61.0</ele><time>2026-03-29T18:28:16.579Z</time></trkpt><trkpt lat="38.4659833" lon="15.985165"><ele>60.0</ele><time>2026-03-29T18:28:17.579Z</time></trkpt><trkpt lat="38.465835" lon="15.9848967"><ele>59.0</ele><time>2026-03-29T18:28:18.579Z</time></trkpt><trkpt lat="38.4656883" lon="15.98463"><ele>59.0</ele><time>2026-03-29T18:28:19.579Z</time></trkpt><trkpt lat="38.465535" lon="15.984365"><ele>59.0</ele><time>2026-03-29T18:28:20.579Z</time></trkpt><trkpt lat="38.465385" lon="15.9841083"><ele>62.5</ele><time>2026-03-29T18:28:21.579Z</time></trkpt><trkpt lat="38.465245" lon="15.9838383"><ele>66.0</ele><time>2026-03-29T18:28:22.579Z</time></trkpt><trkpt lat="38.4651033" lon="15.9835667"><ele>63.5</ele><time>2026-03-29T18:28:23.579Z</time></trkpt><trkpt lat="38.4649417" lon="15.9833017"><ele>61.0</ele><time>2026-03-29T18:28:24.579Z</time></trkpt><trkpt lat="38.46479" lon="15.98304"><ele>61.0</ele><time>2026-03-29T18:28:25.579Z</time></trkpt><trkpt lat="38.464635" lon="15.982795"><ele>61.0</ele><time>2026-03-29T18:28:26.579Z</time></trkpt><trkpt lat="38.4644767" lon="15.98255"><ele>62.0</ele><time>2026-03-29T18:28:27.579Z</time></trkpt><trkpt lat="38.464305" lon="15.982315"><ele>63.0</ele><time>2026-03-29T18:28:28.579Z</time></trkpt><trkpt lat="38.464145" lon="15.9820833"><ele>63.0</ele><time>2026-03-29T18:28:29.579Z</time></trkpt><trkpt lat="38.46398" lon="15.9818483"><ele>63.0</ele><time>2026-03-29T18:28:30.579Z</time></trkpt><trkpt lat="38.4638083" lon="15.9816167"><ele>65.0</ele><time>2026-03-29T18:28:31.579Z</time></trkpt><trkpt lat="38.46363" lon="15.9813833"><ele>67.0</ele><time>2026-03-29T18:28:32.579Z</time></trkpt><trkpt lat="38.4634533" lon="15.981155"><ele>67.0</ele><time>2026-03-29T18:28:33.579Z</time></trkpt><trkpt lat="38.4632817" lon="15.980925"><ele>67.0</ele><time>2026-03-29T18:28:34.579Z</time></trkpt><trkpt lat="38.463105" lon="15.9807033"><ele>66.5</ele><time>2026-03-29T18:28:35.579Z</time></trkpt><trkpt lat="38.4629033" lon="15.98049"><ele>66.0</ele><time>2026-03-29T18:28:36.579Z</time></trkpt><trkpt lat="38.46271" lon="15.98028"><ele>66.0</ele><time>2026-03-29T18:28:37.579Z</time></trkpt><trkpt lat="38.4625183" lon="15.9800783"><ele>66.0</ele><time>2026-03-29T18:28:38.579Z</time></trkpt><trkpt lat="38.46233" lon="15.9798767"><ele>66.0</ele><time>2026-03-29T18:28:39.579Z</time></trkpt><trkpt lat="38.46214" lon="15.979675"><ele>66.0</ele><time>2026-03-29T18:28:40.579Z</time></trkpt><trkpt lat="38.4619483" lon="15.97947"><ele>66.0</ele><time>2026-03-29T18:28:41.579Z</time></trkpt><trkpt lat="38.461765" lon="15.9792667"><ele>66.0</ele><time>2026-03-29T18:28:42.579Z</time></trkpt><trkpt lat="38.4615733" lon="15.9790667"><ele>66.0</ele><time>2026-03-29T18:28:43.579Z</time></trkpt><trkpt lat="38.4613783" lon="15.97887"><ele>66.0</ele><time>2026-03-29T18:28:44.579Z</time></trkpt><trkpt lat="38.46118" lon="15.97867"><ele>66.0</ele><time>2026-03-29T18:28:45.579Z</time></trkpt><trkpt lat="38.460985" lon="15.978475"><ele>66.0</ele><time>2026-03-29T18:28:46.58Z</time></trkpt><trkpt lat="38.4608033" lon="15.9782733"><ele>66.0</ele><time>2026-03-29T18:28:47.58Z</time></trkpt><trkpt lat="38.4606167" lon="15.9780717"><ele>66.0</ele><time>2026-03-29T18:28:48.579Z</time></trkpt><trkpt lat="38.4604317" lon="15.9778633"><ele>68.0</ele><time>2026-03-29T18:28:49.579Z</time></trkpt><trkpt lat="38.4602383" lon="15.97766"><ele>70.0</ele><time>2026-03-29T18:28:50.579Z</time></trkpt><trkpt lat="38.4600433" lon="15.9774583"><ele>70.0</ele><time>2026-03-29T18:28:51.579Z</time></trkpt><trkpt lat="38.459845" lon="15.97726"><ele>70.0</ele><time>2026-03-29T18:28:52.579Z</time></trkpt><trkpt lat="38.4596483" lon="15.9770667"><ele>72.0</ele><time>2026-03-29T18:28:53.579Z</time></trkpt><trkpt lat="38.45946" lon="15.9768533"><ele>74.0</ele><time>2026-03-29T18:28:54.579Z</time></trkpt><trkpt lat="38.4592667" lon="15.9766433"><ele>74.0</ele><time>2026-03-29T18:28:55.579Z</time></trkpt><trkpt lat="38.4590717" lon="15.97644"><ele>74.0</ele><time>2026-03-29T18:28:56.579Z</time></trkpt><trkpt lat="38.4588767" lon="15.9762383"><ele>74.5</ele><time>2026-03-29T18:28:57.579Z</time></trkpt><trkpt lat="38.4586833" lon="15.9760333"><ele>75.0</ele><time>2026-03-29T18:28:58.579Z</time></trkpt><trkpt lat="38.4584833" lon="15.9758333"><ele>75.0</ele><time>2026-03-29T18:28:59.579Z</time></trkpt><trkpt lat="38.4582883" lon="15.97564"><ele>75.0</ele><time>2026-03-29T18:29:00.579Z</time></trkpt><trkpt lat="38.4580967" lon="15.975435"><ele>75.5</ele><time>2026-03-29T18:29:01.579Z</time></trkpt><trkpt lat="38.4579067" lon="15.9752317"><ele>76.0</ele><time>2026-03-29T18:29:02.579Z</time></trkpt><trkpt lat="38.4577083" lon="15.9750367"><ele>75.0</ele><time>2026-03-29T18:29:03.579Z</time></trkpt><trkpt lat="38.4575283" lon="15.9748433"><ele>74.0</ele><time>2026-03-29T18:29:04.579Z</time></trkpt><trkpt lat="38.4573517" lon="15.9746517"><ele>74.0</ele><time>2026-03-29T18:29:05.579Z</time></trkpt><trkpt lat="38.4571783" lon="15.9744567"><ele>74.0</ele><time>2026-03-29T18:29:06.579Z</time></trkpt><trkpt lat="38.4569933" lon="15.974265"><ele>73.5</ele><time>2026-03-29T18:29:07.579Z</time></trkpt><trkpt lat="38.456805" lon="15.9740733"><ele>73.0</ele><time>2026-03-29T18:29:08.579Z</time></trkpt><trkpt lat="38.4566217" lon="15.9738833"><ele>73.0</ele><time>2026-03-29T18:29:09.579Z</time></trkpt><trkpt lat="38.4564433" lon="15.9736833"><ele>73.0</ele><time>2026-03-29T18:29:10.579Z</time></trkpt><trkpt lat="38.4562533" lon="15.9734867"><ele>73.0</ele><time>2026-03-29T18:29:11.579Z</time></trkpt><trkpt lat="38.45605" lon="15.9732817"><ele>73.0</ele><time>2026-03-29T18:29:12.579Z</time></trkpt><trkpt lat="38.4558517" lon="15.973075"><ele>73.0</ele><time>2026-03-29T18:29:13.579Z</time></trkpt><trkpt lat="38.455655" lon="15.9728617"><ele>73.0</ele><time>2026-03-29T18:29:14.579Z</time></trkpt><trkpt lat="38.4554517" lon="15.9726483"><ele>72.5</ele><time>2026-03-29T18:29:15.579Z</time></trkpt><trkpt lat="38.4552583" lon="15.9724333"><ele>72.0</ele><time>2026-03-29T18:29:16.579Z</time></trkpt><trkpt lat="38.4550517" lon="15.9722167"><ele>72.0</ele><time>2026-03-29T18:29:17.579Z</time></trkpt><trkpt lat="38.45484" lon="15.9720033"><ele>72.0</ele><time>2026-03-29T18:29:18.579Z</time></trkpt><trkpt lat="38.454635" lon="15.971785"><ele>70.0</ele><time>2026-03-29T18:29:19.579Z</time></trkpt><trkpt lat="38.45443" lon="15.9715617"><ele>68.0</ele><time>2026-03-29T18:29:20.58Z</time></trkpt><trkpt lat="38.4542317" lon="15.97134"><ele>68.0</ele><time>2026-03-29T18:29:21.579Z</time></trkpt><trkpt lat="38.4540383" lon="15.9711133"><ele>68.0</ele><time>2026-03-29T18:29:22.579Z</time></trkpt><trkpt lat="38.4538517" lon="15.9708817"><ele>68.0</ele><time>2026-03-29T18:29:23.579Z</time></trkpt><trkpt lat="38.45366" lon="15.970655"><ele>68.0</ele><time>2026-03-29T18:29:24.579Z</time></trkpt><trkpt lat="38.4534833" lon="15.9704283"><ele>68.0</ele><time>2026-03-29T18:29:25.579Z</time></trkpt><trkpt lat="38.4533" lon="15.9702"><ele>68.0</ele><time>2026-03-29T18:29:26.579Z</time></trkpt><trkpt lat="38.453125" lon="15.969965"><ele>69.0</ele><time>2026-03-29T18:29:27.579Z</time></trkpt><trkpt lat="38.4529467" lon="15.96973"><ele>70.0</ele><time>2026-03-29T18:29:28.579Z</time></trkpt><trkpt lat="38.452765" lon="15.9694933"><ele>70.0</ele><time>2026-03-29T18:29:29.579Z</time></trkpt><trkpt lat="38.4525967" lon="15.969245"><ele>70.0</ele><time>2026-03-29T18:29:30.579Z</time></trkpt><trkpt lat="38.452425" lon="15.969005"><ele>70.0</ele><time>2026-03-29T18:29:31.579Z</time></trkpt><trkpt lat="38.452255" lon="15.9687583"><ele>70.0</ele><time>2026-03-29T18:29:32.579Z</time></trkpt><trkpt lat="38.4520933" lon="15.968515"><ele>68.5</ele><time>2026-03-29T18:29:33.579Z</time></trkpt><trkpt lat="38.45192" lon="15.9682667"><ele>67.0</ele><time>2026-03-29T18:29:34.579Z</time></trkpt><trkpt lat="38.4517583" lon="15.9680083"><ele>67.0</ele><time>2026-03-29T18:29:35.579Z</time></trkpt><trkpt lat="38.4515933" lon="15.9677533"><ele>67.0</ele><time>2026-03-29T18:29:36.58Z</time></trkpt><trkpt lat="38.4514383" lon="15.9675033"><ele>67.5</ele><time>2026-03-29T18:29:37.579Z</time></trkpt><trkpt lat="38.4512817" lon="15.9672583"><ele>68.0</ele><time>2026-03-29T18:29:38.579Z</time></trkpt><trkpt lat="38.4511233" lon="15.9670067"><ele>68.0</ele><time>2026-03-29T18:29:39.579Z</time></trkpt><trkpt lat="38.4509767" lon="15.96674"><ele>68.0</ele><time>2026-03-29T18:29:40.579Z</time></trkpt><trkpt lat="38.4508283" lon="15.966475"><ele>67.5</ele><time>2026-03-29T18:29:41.579Z</time></trkpt><trkpt lat="38.4506867" lon="15.966205"><ele>67.0</ele><time>2026-03-29T18:29:42.579Z</time></trkpt><trkpt lat="38.4505483" lon="15.9659283"><ele>66.5</ele><time>2026-03-29T18:29:43.579Z</time></trkpt><trkpt lat="38.4504117" lon="15.9656483"><ele>66.0</ele><time>2026-03-29T18:29:44.579Z</time></trkpt><trkpt lat="38.4502883" lon="15.9653767"><ele>66.0</ele><time>2026-03-29T18:29:45.579Z</time></trkpt><trkpt lat="38.4501633" lon="15.965095"><ele>66.0</ele><time>2026-03-29T18:29:46.579Z</time></trkpt><trkpt lat="38.4500317" lon="15.96482"><ele>68.0</ele><time>2026-03-29T18:29:47.579Z</time></trkpt><trkpt lat="38.4498983" lon="15.964545"><ele>70.0</ele><time>2026-03-29T18:29:48.579Z</time></trkpt><trkpt lat="38.4497733" lon="15.9642617"><ele>70.0</ele><time>2026-03-29T18:29:49.579Z</time></trkpt><trkpt lat="38.44965" lon="15.96397"><ele>70.0</ele><time>2026-03-29T18:29:50.579Z</time></trkpt><trkpt lat="38.449535" lon="15.9636733"><ele>70.5</ele><time>2026-03-29T18:29:51.579Z</time></trkpt><trkpt lat="38.4494167" lon="15.9633867"><ele>71.0</ele><time>2026-03-29T18:29:52.579Z</time></trkpt><trkpt lat="38.4492867" lon="15.9630967"><ele>71.0</ele><time>2026-03-29T18:29:53.579Z</time></trkpt><trkpt lat="38.4491733" lon="15.9628133"><ele>71.0</ele><time>2026-03-29T18:29:54.579Z</time></trkpt><trkpt lat="38.4490683" lon="15.962525"><ele>71.0</ele><time>2026-03-29T18:29:55.579Z</time></trkpt><trkpt lat="38.4489633" lon="15.962235"><ele>71.0</ele><time>2026-03-29T18:29:56.579Z</time></trkpt><trkpt lat="38.4488667" lon="15.961945"><ele>69.5</ele><time>2026-03-29T18:29:57.579Z</time></trkpt><trkpt lat="38.448765" lon="15.9616567"><ele>68.0</ele><time>2026-03-29T18:29:58.579Z</time></trkpt><trkpt lat="38.448665" lon="15.96136"><ele>68.0</ele><time>2026-03-29T18:29:59.579Z</time></trkpt><trkpt lat="38.4485633" lon="15.9610667"><ele>68.0</ele><time>2026-03-29T18:30:00.579Z</time></trkpt><trkpt lat="38.4484817" lon="15.9607767"><ele>68.0</ele><time>2026-03-29T18:30:01.579Z</time></trkpt><trkpt lat="38.448395" lon="15.9604883"><ele>68.0</ele><time>2026-03-29T18:30:02.579Z</time></trkpt><trkpt lat="38.4483017" lon="15.96019"><ele>68.0</ele><time>2026-03-29T18:30:03.579Z</time></trkpt><trkpt lat="38.44822" lon="15.9598833"><ele>68.0</ele><time>2026-03-29T18:30:04.579Z</time></trkpt><trkpt lat="38.44814" lon="15.9595733"><ele>68.0</ele><time>2026-03-29T18:30:05.579Z</time></trkpt><trkpt lat="38.4480517" lon="15.9592633"><ele>68.0</ele><time>2026-03-29T18:30:06.579Z</time></trkpt><trkpt lat="38.4479617" lon="15.9589517"><ele>68.5</ele><time>2026-03-29T18:30:07.579Z</time></trkpt><trkpt lat="38.4478967" lon="15.9586467"><ele>69.0</ele><time>2026-03-29T18:30:08.579Z</time></trkpt><trkpt lat="38.4478217" lon="15.9583417"><ele>67.5</ele><time>2026-03-29T18:30:09.579Z</time></trkpt><trkpt lat="38.4477467" lon="15.9580367"><ele>66.0</ele><time>2026-03-29T18:30:10.579Z</time></trkpt><trkpt lat="38.4476667" lon="15.95773"><ele>66.0</ele><time>2026-03-29T18:30:11.579Z</time></trkpt><trkpt lat="38.4475867" lon="15.9574217"><ele>66.0</ele><time>2026-03-29T18:30:12.579Z</time></trkpt><trkpt lat="38.4474917" lon="15.9571067"><ele>66.0</ele><time>2026-03-29T18:30:13.579Z</time></trkpt><trkpt lat="38.4474017" lon="15.9568017"><ele>66.0</ele><time>2026-03-29T18:30:14.579Z</time></trkpt><trkpt lat="38.4473117" lon="15.9565017"><ele>66.0</ele><time>2026-03-29T18:30:15.579Z</time></trkpt><trkpt lat="38.4472133" lon="15.95621"><ele>66.0</ele><time>2026-03-29T18:30:16.579Z</time></trkpt><trkpt lat="38.4471183" lon="15.95592"><ele>66.5</ele><time>2026-03-29T18:30:17.579Z</time></trkpt><trkpt lat="38.447025" lon="15.9556317"><ele>67.0</ele><time>2026-03-29T18:30:18.579Z</time></trkpt><trkpt lat="38.4469133" lon="15.9553517"><ele>67.0</ele><time>2026-03-29T18:30:19.579Z</time></trkpt><trkpt lat="38.446795" lon="15.9550717"><ele>67.0</ele><time>2026-03-29T18:30:20.58Z</time></trkpt><trkpt lat="38.4466683" lon="15.954795"><ele>65.0</ele><time>2026-03-29T18:30:21.579Z</time></trkpt><trkpt lat="38.4465433" lon="15.9545283"><ele>63.0</ele><time>2026-03-29T18:30:22.579Z</time></trkpt><trkpt lat="38.44642" lon="15.95426"><ele>64.0</ele><time>2026-03-29T18:30:23.579Z</time></trkpt><trkpt lat="38.4462817" lon="15.9539933"><ele>65.0</ele><time>2026-03-29T18:30:24.579Z</time></trkpt><trkpt lat="38.4461433" lon="15.9537283"><ele>65.0</ele><time>2026-03-29T18:30:25.579Z</time></trkpt><trkpt lat="38.4460067" lon="15.9534783"><ele>65.0</ele><time>2026-03-29T18:30:26.579Z</time></trkpt><trkpt lat="38.4458683" lon="15.9532367"><ele>65.0</ele><time>2026-03-29T18:30:27.579Z</time></trkpt><trkpt lat="38.4457167" lon="15.9529883"><ele>65.0</ele><time>2026-03-29T18:30:28.579Z</time></trkpt><trkpt lat="38.4455533" lon="15.9527517"><ele>64.0</ele><time>2026-03-29T18:30:29.579Z</time></trkpt><trkpt lat="38.445385" lon="15.9525117"><ele>63.0</ele><time>2026-03-29T18:30:30.579Z</time></trkpt><trkpt lat="38.4452217" lon="15.9522683"><ele>63.0</ele><time>2026-03-29T18:30:31.579Z</time></trkpt><trkpt lat="38.4450667" lon="15.9520283"><ele>63.0</ele><time>2026-03-29T18:30:32.579Z</time></trkpt><trkpt lat="38.4449083" lon="15.9517867"><ele>63.0</ele><time>2026-03-29T18:30:33.579Z</time></trkpt><trkpt lat="38.4447383" lon="15.9515567"><ele>63.0</ele><time>2026-03-29T18:30:34.579Z</time></trkpt><trkpt lat="38.4445683" lon="15.9513233"><ele>63.5</ele><time>2026-03-29T18:30:35.579Z</time></trkpt><trkpt lat="38.4443983" lon="15.9510917"><ele>64.0</ele><time>2026-03-29T18:30:36.579Z</time></trkpt><trkpt lat="38.4442317" lon="15.9508667"><ele>64.0</ele><time>2026-03-29T18:30:37.579Z</time></trkpt><trkpt lat="38.4440617" lon="15.950635"><ele>64.0</ele><time>2026-03-29T18:30:38.579Z</time></trkpt><trkpt lat="38.4438883" lon="15.9504017"><ele>64.5</ele><time>2026-03-29T18:30:39.579Z</time></trkpt><trkpt lat="38.44371" lon="15.9501683"><ele>65.0</ele><time>2026-03-29T18:30:40.579Z</time></trkpt><trkpt lat="38.44354" lon="15.9499417"><ele>64.0</ele><time>2026-03-29T18:30:41.579Z</time></trkpt><trkpt lat="38.4433703" lon="15.9497124"><ele>63.0</ele><time>2026-03-29T18:30:42.579Z</time></trkpt><trkpt lat="38.4432003" lon="15.9494826"><ele>63.0</ele><time>2026-03-29T18:30:43.579Z</time></trkpt><trkpt lat="38.4430373" lon="15.949249"><ele>63.0</ele><time>2026-03-29T18:30:44.579Z</time></trkpt><trkpt lat="38.4428723" lon="15.9490053"><ele>62.5</ele><time>2026-03-29T18:30:45.579Z</time></trkpt><trkpt lat="38.4427104" lon="15.9487608"><ele>62.0</ele><time>2026-03-29T18:30:46.579Z</time></trkpt><trkpt lat="38.4425541" lon="15.9485196"><ele>61.5</ele><time>2026-03-29T18:30:47.579Z</time></trkpt><trkpt lat="38.4424007" lon="15.948278"><ele>61.0</ele><time>2026-03-29T18:30:48.579Z</time></trkpt><trkpt lat="38.4422518" lon="15.9480272"><ele>61.5</ele><time>2026-03-29T18:30:49.579Z</time></trkpt><trkpt lat="38.4421054" lon="15.9477746"><ele>62.0</ele><time>2026-03-29T18:30:50.579Z</time></trkpt><trkpt lat="38.4419529" lon="15.9475215"><ele>60.5</ele><time>2026-03-29T18:30:51.579Z</time></trkpt><trkpt lat="38.4418091" lon="15.9472651"><ele>59.0</ele><time>2026-03-29T18:30:52.579Z</time></trkpt><trkpt lat="38.4416668" lon="15.947003"><ele>59.0</ele><time>2026-03-29T18:30:53.579Z</time></trkpt><trkpt lat="38.4415306" lon="15.946738"><ele>59.0</ele><time>2026-03-29T18:30:54.579Z</time></trkpt><trkpt lat="38.4413999" lon="15.9464688"><ele>61.0</ele><time>2026-03-29T18:30:55.579Z</time></trkpt><trkpt lat="38.4412708" lon="15.9462004"><ele>63.0</ele><time>2026-03-29T18:30:56.579Z</time></trkpt><trkpt lat="38.441148" lon="15.9459277"><ele>62.0</ele><time>2026-03-29T18:30:57.579Z</time></trkpt><trkpt lat="38.4410258" lon="15.9456489"><ele>61.0</ele><time>2026-03-29T18:30:58.579Z</time></trkpt><trkpt lat="38.4408993" lon="15.9453693"><ele>61.0</ele><time>2026-03-29T18:30:59.579Z</time></trkpt><trkpt lat="38.4407867" lon="15.9450941"><ele>61.0</ele><time>2026-03-29T18:31:00.579Z</time></trkpt><trkpt lat="38.4406802" lon="15.9448124"><ele>60.5</ele><time>2026-03-29T18:31:01.579Z</time></trkpt><trkpt lat="38.4405681" lon="15.9445281"><ele>60.0</ele><time>2026-03-29T18:31:02.579Z</time></trkpt><trkpt lat="38.4404587" lon="15.9442396"><ele>59.0</ele><time>2026-03-29T18:31:03.579Z</time></trkpt><trkpt lat="38.4403512" lon="15.9439543"><ele>58.0</ele><time>2026-03-29T18:31:04.579Z</time></trkpt><trkpt lat="38.4402532" lon="15.9436741"><ele>58.0</ele><time>2026-03-29T18:31:05.579Z</time></trkpt><trkpt lat="38.4401609" lon="15.9433928"><ele>58.0</ele><time>2026-03-29T18:31:06.579Z</time></trkpt><trkpt lat="38.4400588" lon="15.9431057"><ele>56.5</ele><time>2026-03-29T18:31:07.579Z</time></trkpt><trkpt lat="38.4399447" lon="15.9428229"><ele>55.0</ele><time>2026-03-29T18:31:08.579Z</time></trkpt><trkpt lat="38.4398355" lon="15.9425411"><ele>54.5</ele><time>2026-03-29T18:31:09.579Z</time></trkpt><trkpt lat="38.4397372" lon="15.9422525"><ele>54.0</ele><time>2026-03-29T18:31:10.579Z</time></trkpt><trkpt lat="38.4396285" lon="15.941965"><ele>54.0</ele><time>2026-03-29T18:31:11.58Z</time></trkpt><trkpt lat="38.4395222" lon="15.9416864"><ele>54.0</ele><time>2026-03-29T18:31:12.58Z</time></trkpt><trkpt lat="38.4394179" lon="15.9414044"><ele>54.0</ele><time>2026-03-29T18:31:13.58Z</time></trkpt><trkpt lat="38.4393097" lon="15.941123"><ele>54.0</ele><time>2026-03-29T18:31:14.581Z</time></trkpt><trkpt lat="38.439199" lon="15.940837"><ele>53.5</ele><time>2026-03-29T18:31:15.58Z</time></trkpt><trkpt lat="38.4390762" lon="15.9405592"><ele>53.0</ele><time>2026-03-29T18:31:16.58Z</time></trkpt><trkpt lat="38.4389577" lon="15.9402763"><ele>53.0</ele><time>2026-03-29T18:31:17.58Z</time></trkpt><trkpt lat="38.438839" lon="15.9400007"><ele>53.0</ele><time>2026-03-29T18:31:18.58Z</time></trkpt><trkpt lat="38.4387178" lon="15.9397248"><ele>53.5</ele><time>2026-03-29T18:31:19.58Z</time></trkpt><trkpt lat="38.438597" lon="15.9394474"><ele>54.0</ele><time>2026-03-29T18:31:20.58Z</time></trkpt><trkpt lat="38.4384711" lon="15.9391686"><ele>54.0</ele><time>2026-03-29T18:31:21.58Z</time></trkpt><trkpt lat="38.4383376" lon="15.938898"><ele>54.0</ele><time>2026-03-29T18:31:22.58Z</time></trkpt><trkpt lat="38.4382014" lon="15.9386337"><ele>54.0</ele><time>2026-03-29T18:31:23.58Z</time></trkpt><trkpt lat="38.4380621" lon="15.9383735"><ele>54.0</ele><time>2026-03-29T18:31:24.58Z</time></trkpt><trkpt lat="38.4379212" lon="15.9381157"><ele>55.0</ele><time>2026-03-29T18:31:25.58Z</time></trkpt><trkpt lat="38.4377728" lon="15.9378605"><ele>56.0</ele><time>2026-03-29T18:31:26.58Z</time></trkpt><trkpt lat="38.4376265" lon="15.9376047"><ele>54.5</ele><time>2026-03-29T18:31:27.58Z</time></trkpt><trkpt lat="38.4374829" lon="15.93735"><ele>53.0</ele><time>2026-03-29T18:31:28.58Z</time></trkpt><trkpt lat="38.4373332" lon="15.937098"><ele>53.0</ele><time>2026-03-29T18:31:29.58Z</time></trkpt><trkpt lat="38.437185" lon="15.9368544"><ele>53.0</ele><time>2026-03-29T18:31:30.58Z</time></trkpt><trkpt lat="38.4370334" lon="15.9366046"><ele>51.5</ele><time>2026-03-29T18:31:31.58Z</time></trkpt><trkpt lat="38.4368748" lon="15.9363602"><ele>50.0</ele><time>2026-03-29T18:31:32.58Z</time></trkpt><trkpt lat="38.4367118" lon="15.936126"><ele>50.0</ele><time>2026-03-29T18:31:33.58Z</time></trkpt><trkpt lat="38.436539" lon="15.9358925"><ele>50.0</ele><time>2026-03-29T18:31:34.58Z</time></trkpt><trkpt lat="38.4363621" lon="15.9356554"><ele>49.0</ele><time>2026-03-29T18:31:35.58Z</time></trkpt><trkpt lat="38.4361825" lon="15.9354226"><ele>48.0</ele><time>2026-03-29T18:31:36.581Z</time></trkpt><trkpt lat="38.4360058" lon="15.9351933"><ele>48.5</ele><time>2026-03-29T18:31:37.58Z</time></trkpt><trkpt lat="38.4358347" lon="15.934969"><ele>49.0</ele><time>2026-03-29T18:31:38.58Z</time></trkpt><trkpt lat="38.4356556" lon="15.9347446"><ele>49.0</ele><time>2026-03-29T18:31:39.58Z</time></trkpt><trkpt lat="38.4354728" lon="15.9345256"><ele>49.0</ele><time>2026-03-29T18:31:40.58Z</time></trkpt><trkpt lat="38.4352902" lon="15.9343066"><ele>44.0</ele><time>2026-03-29T18:31:41.58Z</time></trkpt><trkpt lat="38.4351103" lon="15.9340958"><ele>39.0</ele><time>2026-03-29T18:31:42.58Z</time></trkpt><trkpt lat="38.4349287" lon="15.9338779"><ele>39.0</ele><time>2026-03-29T18:31:43.58Z</time></trkpt><trkpt lat="38.4347411" lon="15.9336633"><ele>39.0</ele><time>2026-03-29T18:31:44.58Z</time></trkpt><trkpt lat="38.4345583" lon="15.9334457"><ele>35.5</ele><time>2026-03-29T18:31:45.58Z</time></trkpt><trkpt lat="38.4343863" lon="15.9332264"><ele>32.0</ele><time>2026-03-29T18:31:46.58Z</time></trkpt><trkpt lat="38.4342123" lon="15.9330054"><ele>32.0</ele><time>2026-03-29T18:31:47.581Z</time></trkpt><trkpt lat="38.4340304" lon="15.9327936"><ele>32.0</ele><time>2026-03-29T18:31:48.581Z</time></trkpt><trkpt lat="38.4338535" lon="15.9325723"><ele>30.5</ele><time>2026-03-29T18:31:49.581Z</time></trkpt><trkpt lat="38.433672" lon="15.9323544"><ele>29.0</ele><time>2026-03-29T18:31:50.58Z</time></trkpt><trkpt lat="38.4334904" lon="15.932141"><ele>29.0</ele><time>2026-03-29T18:31:51.58Z</time></trkpt><trkpt lat="38.4333076" lon="15.9319229"><ele>29.0</ele><time>2026-03-29T18:31:52.58Z</time></trkpt><trkpt lat="38.4331253" lon="15.9317109"><ele>27.0</ele><time>2026-03-29T18:31:53.58Z</time></trkpt><trkpt lat="38.4329419" lon="15.9314973"><ele>25.0</ele><time>2026-03-29T18:31:54.58Z</time></trkpt><trkpt lat="38.4327595" lon="15.9312792"><ele>25.0</ele><time>2026-03-29T18:31:55.58Z</time></trkpt><trkpt lat="38.4325824" lon="15.9310658"><ele>25.0</ele><time>2026-03-29T18:31:56.58Z</time></trkpt><trkpt lat="38.4324058" lon="15.930851"><ele>27.0</ele><time>2026-03-29T18:31:57.58Z</time></trkpt><trkpt lat="38.4322296" lon="15.9306342"><ele>29.0</ele><time>2026-03-29T18:31:58.58Z</time></trkpt><trkpt lat="38.4320483" lon="15.9304185"><ele>29.0</ele><time>2026-03-29T18:31:59.58Z</time></trkpt><trkpt lat="38.4318693" lon="15.9302009"><ele>29.0</ele><time>2026-03-29T18:32:00.58Z</time></trkpt><trkpt lat="38.4316858" lon="15.9299842"><ele>28.5</ele><time>2026-03-29T18:32:01.58Z</time></trkpt><trkpt lat="38.4315046" lon="15.9297692"><ele>28.0</ele><time>2026-03-29T18:32:02.58Z</time></trkpt><trkpt lat="38.4313271" lon="15.9295527"><ele>25.0</ele><time>2026-03-29T18:32:03.58Z</time></trkpt><trkpt lat="38.4311467" lon="15.9293336"><ele>22.0</ele><time>2026-03-29T18:32:04.58Z</time></trkpt><trkpt lat="38.4309679" lon="15.9291212"><ele>22.0</ele><time>2026-03-29T18:32:05.58Z</time></trkpt><trkpt lat="38.4307907" lon="15.9289073"><ele>22.0</ele><time>2026-03-29T18:32:06.58Z</time></trkpt><trkpt lat="38.4306122" lon="15.9286979"><ele>21.0</ele><time>2026-03-29T18:32:07.58Z</time></trkpt><trkpt lat="38.4304314" lon="15.9284897"><ele>20.0</ele><time>2026-03-29T18:32:08.58Z</time></trkpt><trkpt lat="38.4302497" lon="15.9282828"><ele>20.0</ele><time>2026-03-29T18:32:09.58Z</time></trkpt><trkpt lat="38.4300652" lon="15.9280803"><ele>20.0</ele><time>2026-03-29T18:32:10.58Z</time></trkpt><trkpt lat="38.4298873" lon="15.9278705"><ele>20.0</ele><time>2026-03-29T18:32:11.58Z</time></trkpt><trkpt lat="38.4296987" lon="15.9276686"><ele>20.0</ele><time>2026-03-29T18:32:12.58Z</time></trkpt><trkpt lat="38.4295012" lon="15.9274735"><ele>18.5</ele><time>2026-03-29T18:32:13.58Z</time></trkpt><trkpt lat="38.4293076" lon="15.9272839"><ele>17.0</ele><time>2026-03-29T18:32:14.58Z</time></trkpt><trkpt lat="38.429111" lon="15.9270925"><ele>17.0</ele><time>2026-03-29T18:32:15.58Z</time></trkpt><trkpt lat="38.4289076" lon="15.9268983"><ele>17.0</ele><time>2026-03-29T18:32:16.58Z</time></trkpt><trkpt lat="38.4287071" lon="15.9267131"><ele>17.0</ele><time>2026-03-29T18:32:17.58Z</time></trkpt><trkpt lat="38.4285074" lon="15.9265377"><ele>17.0</ele><time>2026-03-29T18:32:18.58Z</time></trkpt><trkpt lat="38.4283044" lon="15.926359"><ele>17.0</ele><time>2026-03-29T18:32:19.58Z</time></trkpt><trkpt lat="38.4281006" lon="15.9261864"><ele>17.0</ele><time>2026-03-29T18:32:20.58Z</time></trkpt><trkpt lat="38.4278921" lon="15.9260126"><ele>18.5</ele><time>2026-03-29T18:32:21.58Z</time></trkpt><trkpt lat="38.4276824" lon="15.9258451"><ele>20.0</ele><time>2026-03-29T18:32:22.58Z</time></trkpt><trkpt lat="38.4274714" lon="15.9256786"><ele>20.0</ele><time>2026-03-29T18:32:23.58Z</time></trkpt><trkpt lat="38.4272547" lon="15.9255191"><ele>20.0</ele><time>2026-03-29T18:32:24.58Z</time></trkpt><trkpt lat="38.4270398" lon="15.9253656"><ele>22.5</ele><time>2026-03-29T18:32:25.581Z</time></trkpt><trkpt lat="38.4268333" lon="15.9252146"><ele>25.0</ele><time>2026-03-29T18:32:26.58Z</time></trkpt><trkpt lat="38.4266241" lon="15.9250691"><ele>24.0</ele><time>2026-03-29T18:32:27.58Z</time></trkpt><trkpt lat="38.426411" lon="15.924929"><ele>23.0</ele><time>2026-03-29T18:32:28.58Z</time></trkpt><trkpt lat="38.4261957" lon="15.9247904"><ele>29.0</ele><time>2026-03-29T18:32:29.58Z</time></trkpt><trkpt lat="38.425973" lon="15.9246579"><ele>35.0</ele><time>2026-03-29T18:32:30.58Z</time></trkpt><trkpt lat="38.425746" lon="15.9245226"><ele>35.0</ele><time>2026-03-29T18:32:31.58Z</time></trkpt><trkpt lat="38.4255174" lon="15.9243898"><ele>35.0</ele><time>2026-03-29T18:32:32.58Z</time></trkpt><trkpt lat="38.4252853" lon="15.9242602"><ele>34.5</ele><time>2026-03-29T18:32:33.58Z</time></trkpt><trkpt lat="38.4250552" lon="15.9241353"><ele>34.0</ele><time>2026-03-29T18:32:34.58Z</time></trkpt><trkpt lat="38.4248294" lon="15.9240165"><ele>40.0</ele><time>2026-03-29T18:32:35.58Z</time></trkpt><trkpt lat="38.4246047" lon="15.923902"><ele>46.0</ele><time>2026-03-29T18:32:36.58Z</time></trkpt><trkpt lat="38.4243666" lon="15.9237955"><ele>46.0</ele><time>2026-03-29T18:32:37.58Z</time></trkpt><trkpt lat="38.4241224" lon="15.9236939"><ele>46.0</ele><time>2026-03-29T18:32:38.58Z</time></trkpt><trkpt lat="38.4238792" lon="15.9235951"><ele>48.5</ele><time>2026-03-29T18:32:39.58Z</time></trkpt><trkpt lat="38.4236409" lon="15.9234955"><ele>51.0</ele><time>2026-03-29T18:32:40.58Z</time></trkpt><trkpt lat="38.4233956" lon="15.92339"><ele>51.0</ele><time>2026-03-29T18:32:41.58Z</time></trkpt><trkpt lat="38.4231518" lon="15.9232943"><ele>51.0</ele><time>2026-03-29T18:32:42.58Z</time></trkpt><trkpt lat="38.4229138" lon="15.9232096"><ele>51.0</ele><time>2026-03-29T18:32:43.58Z</time></trkpt><trkpt lat="38.4226687" lon="15.9231179"><ele>51.0</ele><time>2026-03-29T18:32:44.58Z</time></trkpt><trkpt lat="38.4224236" lon="15.9230217"><ele>51.0</ele><time>2026-03-29T18:32:45.58Z</time></trkpt><trkpt lat="38.4221945" lon="15.9229265"><ele>51.0</ele><time>2026-03-29T18:32:46.58Z</time></trkpt><trkpt lat="38.4219653" lon="15.9228338"><ele>54.5</ele><time>2026-03-29T18:32:47.58Z</time></trkpt><trkpt lat="38.4217327" lon="15.9227382"><ele>58.0</ele><time>2026-03-29T18:32:48.58Z</time></trkpt><trkpt lat="38.4215033" lon="15.9226465"><ele>57.5</ele><time>2026-03-29T18:32:49.58Z</time></trkpt><trkpt lat="38.4212741" lon="15.9225534"><ele>57.0</ele><time>2026-03-29T18:32:50.58Z</time></trkpt><trkpt lat="38.4210342" lon="15.922459"><ele>57.0</ele><time>2026-03-29T18:32:51.58Z</time></trkpt><trkpt lat="38.4207921" lon="15.9223642"><ele>57.0</ele><time>2026-03-29T18:32:52.58Z</time></trkpt><trkpt lat="38.4205496" lon="15.9222695"><ele>58.0</ele><time>2026-03-29T18:32:53.58Z</time></trkpt><trkpt lat="38.4203203" lon="15.9221793"><ele>59.0</ele><time>2026-03-29T18:32:54.58Z</time></trkpt><trkpt lat="38.4200832" lon="15.922085"><ele>59.0</ele><time>2026-03-29T18:32:55.58Z</time></trkpt><trkpt lat="38.419836" lon="15.9219972"><ele>59.0</ele><time>2026-03-29T18:32:56.58Z</time></trkpt><trkpt lat="38.4196005" lon="15.9219187"><ele>59.5</ele><time>2026-03-29T18:32:57.58Z</time></trkpt><trkpt lat="38.4193653" lon="15.9218319"><ele>60.0</ele><time>2026-03-29T18:32:58.58Z</time></trkpt><trkpt lat="38.4191292" lon="15.9217425"><ele>60.0</ele><time>2026-03-29T18:32:59.58Z</time></trkpt><trkpt lat="38.4188962" lon="15.9216469"><ele>60.0</ele><time>2026-03-29T18:33:00.58Z</time></trkpt><trkpt lat="38.4186568" lon="15.9215551"><ele>60.0</ele><time>2026-03-29T18:33:01.58Z</time></trkpt><trkpt lat="38.4184207" lon="15.9214667"><ele>60.0</ele><time>2026-03-29T18:33:02.58Z</time></trkpt><trkpt lat="38.4181867" lon="15.9213749"><ele>60.0</ele><time>2026-03-29T18:33:03.58Z</time></trkpt><trkpt lat="38.4179422" lon="15.9212832"><ele>60.0</ele><time>2026-03-29T18:33:04.58Z</time></trkpt><trkpt lat="38.4177044" lon="15.9211889"><ele>60.0</ele><time>2026-03-29T18:33:05.58Z</time></trkpt><trkpt lat="38.4174624" lon="15.921099"><ele>60.0</ele><time>2026-03-29T18:33:06.58Z</time></trkpt><trkpt lat="38.4172215" lon="15.9210029"><ele>60.5</ele><time>2026-03-29T18:33:07.58Z</time></trkpt><trkpt lat="38.4169786" lon="15.9209088"><ele>61.0</ele><time>2026-03-29T18:33:08.58Z</time></trkpt><trkpt lat="38.4167368" lon="15.9208102"><ele>61.0</ele><time>2026-03-29T18:33:09.58Z</time></trkpt><trkpt lat="38.4164965" lon="15.9207157"><ele>61.0</ele><time>2026-03-29T18:33:10.58Z</time></trkpt><trkpt lat="38.4162552" lon="15.9206206"><ele>62.0</ele><time>2026-03-29T18:33:11.58Z</time></trkpt><trkpt lat="38.4160149" lon="15.9205243"><ele>63.0</ele><time>2026-03-29T18:33:12.58Z</time></trkpt><trkpt lat="38.4157725" lon="15.9204253"><ele>63.0</ele><time>2026-03-29T18:33:13.58Z</time></trkpt><trkpt lat="38.4155297" lon="15.9203293"><ele>63.0</ele><time>2026-03-29T18:33:14.58Z</time></trkpt><trkpt lat="38.415289" lon="15.9202365"><ele>63.0</ele><time>2026-03-29T18:33:15.58Z</time></trkpt><trkpt lat="38.4150477" lon="15.920141"><ele>63.0</ele><time>2026-03-29T18:33:16.58Z</time></trkpt><trkpt lat="38.4148075" lon="15.9200384"><ele>63.0</ele><time>2026-03-29T18:33:17.58Z</time></trkpt><trkpt lat="38.4145762" lon="15.9199365"><ele>63.0</ele><time>2026-03-29T18:33:18.58Z</time></trkpt><trkpt lat="38.4143534" lon="15.9198321"><ele>63.0</ele><time>2026-03-29T18:33:19.58Z</time></trkpt><trkpt lat="38.4141343" lon="15.9197195"><ele>63.0</ele><time>2026-03-29T18:33:20.58Z</time></trkpt><trkpt lat="38.4139167" lon="15.9195943"><ele>63.5</ele><time>2026-03-29T18:33:21.58Z</time></trkpt><trkpt lat="38.4136947" lon="15.9194583"><ele>64.0</ele><time>2026-03-29T18:33:22.58Z</time></trkpt><trkpt lat="38.413471" lon="15.919319"><ele>63.0</ele><time>2026-03-29T18:33:23.58Z</time></trkpt><trkpt lat="38.413248" lon="15.9191788"><ele>62.0</ele><time>2026-03-29T18:33:24.58Z</time></trkpt><trkpt lat="38.4130229" lon="15.9190305"><ele>62.0</ele><time>2026-03-29T18:33:25.58Z</time></trkpt><trkpt lat="38.4128019" lon="15.9188794"><ele>62.0</ele><time>2026-03-29T18:33:26.58Z</time></trkpt><trkpt lat="38.4125843" lon="15.9187239"><ele>62.0</ele><time>2026-03-29T18:33:27.58Z</time></trkpt><trkpt lat="38.4123664" lon="15.9185488"><ele>62.0</ele><time>2026-03-29T18:33:28.58Z</time></trkpt><trkpt lat="38.4121511" lon="15.9183722"><ele>61.5</ele><time>2026-03-29T18:33:29.58Z</time></trkpt><trkpt lat="38.4119401" lon="15.918189"><ele>61.0</ele><time>2026-03-29T18:33:30.58Z</time></trkpt><trkpt lat="38.4117293" lon="15.9180031"><ele>61.0</ele><time>2026-03-29T18:33:31.58Z</time></trkpt><trkpt lat="38.4115261" lon="15.9178156"><ele>61.0</ele><time>2026-03-29T18:33:32.58Z</time></trkpt><trkpt lat="38.4113198" lon="15.9176157"><ele>61.5</ele><time>2026-03-29T18:33:33.58Z</time></trkpt><trkpt lat="38.4111223" lon="15.9174158"><ele>62.0</ele><time>2026-03-29T18:33:34.58Z</time></trkpt><trkpt lat="38.4109239" lon="15.9172117"><ele>62.0</ele><time>2026-03-29T18:33:35.58Z</time></trkpt><trkpt lat="38.4107314" lon="15.9169967"><ele>62.0</ele><time>2026-03-29T18:33:36.58Z</time></trkpt><trkpt lat="38.410543" lon="15.9167825"><ele>62.5</ele><time>2026-03-29T18:33:37.58Z</time></trkpt><trkpt lat="38.4103577" lon="15.916563"><ele>63.0</ele><time>2026-03-29T18:33:38.58Z</time></trkpt><trkpt lat="38.4101683" lon="15.9163388"><ele>63.0</ele><time>2026-03-29T18:33:39.58Z</time></trkpt><trkpt lat="38.4099816" lon="15.9161118"><ele>63.0</ele><time>2026-03-29T18:33:40.58Z</time></trkpt><trkpt lat="38.4098051" lon="15.9158795"><ele>64.0</ele><time>2026-03-29T18:33:41.58Z</time></trkpt><trkpt lat="38.4096203" lon="15.9156594"><ele>65.0</ele><time>2026-03-29T18:33:42.58Z</time></trkpt><trkpt lat="38.4094379" lon="15.9154256"><ele>65.0</ele><time>2026-03-29T18:33:43.58Z</time></trkpt><trkpt lat="38.4092526" lon="15.9151907"><ele>65.0</ele><time>2026-03-29T18:33:44.58Z</time></trkpt><trkpt lat="38.4090709" lon="15.9149548"><ele>64.5</ele><time>2026-03-29T18:33:45.58Z</time></trkpt><trkpt lat="38.408889" lon="15.9147231"><ele>64.0</ele><time>2026-03-29T18:33:46.58Z</time></trkpt><trkpt lat="38.4087082" lon="15.9144912"><ele>64.0</ele><time>2026-03-29T18:33:47.58Z</time></trkpt><trkpt lat="38.4085233" lon="15.9142639"><ele>64.0</ele><time>2026-03-29T18:33:48.58Z</time></trkpt><trkpt lat="38.408341" lon="15.9140279"><ele>62.5</ele><time>2026-03-29T18:33:49.58Z</time></trkpt><trkpt lat="38.4081555" lon="15.9137969"><ele>61.0</ele><time>2026-03-29T18:33:50.581Z</time></trkpt><trkpt lat="38.4079688" lon="15.9135643"><ele>57.0</ele><time>2026-03-29T18:33:51.581Z</time></trkpt><trkpt lat="38.4077811" lon="15.9133344"><ele>53.0</ele><time>2026-03-29T18:33:52.58Z</time></trkpt><trkpt lat="38.4075832" lon="15.9131071"><ele>53.0</ele><time>2026-03-29T18:33:53.58Z</time></trkpt><trkpt lat="38.4073764" lon="15.9128891"><ele>53.0</ele><time>2026-03-29T18:33:54.58Z</time></trkpt><trkpt lat="38.407162" lon="15.9126815"><ele>49.5</ele><time>2026-03-29T18:33:55.58Z</time></trkpt><trkpt lat="38.4069483" lon="15.9124803"><ele>46.0</ele><time>2026-03-29T18:33:56.58Z</time></trkpt><trkpt lat="38.4067401" lon="15.9122813"><ele>46.0</ele><time>2026-03-29T18:33:57.58Z</time></trkpt><trkpt lat="38.4065277" lon="15.9120829"><ele>46.0</ele><time>2026-03-29T18:33:58.58Z</time></trkpt><trkpt lat="38.4063143" lon="15.9118849"><ele>43.0</ele><time>2026-03-29T18:33:59.58Z</time></trkpt><trkpt lat="38.4060947" lon="15.9116824"><ele>40.0</ele><time>2026-03-29T18:34:00.581Z</time></trkpt><trkpt lat="38.405876" lon="15.9114849"><ele>40.0</ele><time>2026-03-29T18:34:01.58Z</time></trkpt><trkpt lat="38.4056559" lon="15.9112874"><ele>40.0</ele><time>2026-03-29T18:34:02.58Z</time></trkpt><trkpt lat="38.4054416" lon="15.9110885"><ele>37.5</ele><time>2026-03-29T18:34:03.58Z</time></trkpt><trkpt lat="38.4052203" lon="15.9108943"><ele>35.0</ele><time>2026-03-29T18:34:04.58Z</time></trkpt><trkpt lat="38.4049939" lon="15.9106975"><ele>35.0</ele><time>2026-03-29T18:34:05.58Z</time></trkpt><trkpt lat="38.4047689" lon="15.9105004"><ele>35.0</ele><time>2026-03-29T18:34:06.58Z</time></trkpt><trkpt lat="38.404547" lon="15.9103068"><ele>37.5</ele><time>2026-03-29T18:34:07.58Z</time></trkpt><trkpt lat="38.4043342" lon="15.9101188"><ele>40.0</ele><time>2026-03-29T18:34:08.58Z</time></trkpt><trkpt lat="38.404114" lon="15.9099294"><ele>32.5</ele><time>2026-03-29T18:34:09.58Z</time></trkpt><trkpt lat="38.4038947" lon="15.90973"><ele>25.0</ele><time>2026-03-29T18:34:10.58Z</time></trkpt><trkpt lat="38.4036706" lon="15.9095246"><ele>24.0</ele><time>2026-03-29T18:34:11.58Z</time></trkpt><trkpt lat="38.4034409" lon="15.9093218"><ele>23.0</ele><time>2026-03-29T18:34:12.58Z</time></trkpt><trkpt lat="38.4032081" lon="15.909121"><ele>23.0</ele><time>2026-03-29T18:34:13.58Z</time></trkpt><trkpt lat="38.4029748" lon="15.9089185"><ele>23.0</ele><time>2026-03-29T18:34:14.58Z</time></trkpt><trkpt lat="38.4027409" lon="15.9087136"><ele>23.0</ele><time>2026-03-29T18:34:15.58Z</time></trkpt><trkpt lat="38.4025159" lon="15.9085093"><ele>23.0</ele><time>2026-03-29T18:34:16.58Z</time></trkpt><trkpt lat="38.4022943" lon="15.9083078"><ele>22.5</ele><time>2026-03-29T18:34:17.581Z</time></trkpt><trkpt lat="38.402075" lon="15.9081076"><ele>22.0</ele><time>2026-03-29T18:34:18.581Z</time></trkpt><trkpt lat="38.4018489" lon="15.9079159"><ele>22.0</ele><time>2026-03-29T18:34:19.58Z</time></trkpt><trkpt lat="38.4016159" lon="15.9077319"><ele>22.0</ele><time>2026-03-29T18:34:20.58Z</time></trkpt><trkpt lat="38.4013782" lon="15.9075555"><ele>27.0</ele><time>2026-03-29T18:34:21.58Z</time></trkpt><trkpt lat="38.4011394" lon="15.907394"><ele>32.0</ele><time>2026-03-29T18:34:22.58Z</time></trkpt><trkpt lat="38.400896" lon="15.9072537"><ele>32.0</ele><time>2026-03-29T18:34:23.58Z</time></trkpt><trkpt lat="38.4006559" lon="15.9071238"><ele>32.0</ele><time>2026-03-29T18:34:24.58Z</time></trkpt><trkpt lat="38.4004097" lon="15.9070048"><ele>31.0</ele><time>2026-03-29T18:34:25.58Z</time></trkpt><trkpt lat="38.4001518" lon="15.9069017"><ele>30.0</ele><time>2026-03-29T18:34:26.58Z</time></trkpt><trkpt lat="38.3998899" lon="15.9068086"><ele>38.5</ele><time>2026-03-29T18:34:27.58Z</time></trkpt><trkpt lat="38.3996342" lon="15.9067271"><ele>47.0</ele><time>2026-03-29T18:34:28.58Z</time></trkpt><trkpt lat="38.3993735" lon="15.906661"><ele>47.0</ele><time>2026-03-29T18:34:29.58Z</time></trkpt><trkpt lat="38.3991125" lon="15.9066074"><ele>47.0</ele><time>2026-03-29T18:34:30.58Z</time></trkpt><trkpt lat="38.3988459" lon="15.9065656"><ele>49.0</ele><time>2026-03-29T18:34:31.58Z</time></trkpt><trkpt lat="38.3985729" lon="15.9065356"><ele>51.0</ele><time>2026-03-29T18:34:32.58Z</time></trkpt><trkpt lat="38.3983031" lon="15.9065174"><ele>51.0</ele><time>2026-03-29T18:34:33.58Z</time></trkpt><trkpt lat="38.398034" lon="15.9065086"><ele>51.0</ele><time>2026-03-29T18:34:34.58Z</time></trkpt><trkpt lat="38.3977526" lon="15.906506"><ele>54.5</ele><time>2026-03-29T18:34:35.58Z</time></trkpt><trkpt lat="38.3974811" lon="15.9065007"><ele>58.0</ele><time>2026-03-29T18:34:36.58Z</time></trkpt><trkpt lat="38.3972075" lon="15.9064915"><ele>54.5</ele><time>2026-03-29T18:34:37.58Z</time></trkpt><trkpt lat="38.3969373" lon="15.9064718"><ele>51.0</ele><time>2026-03-29T18:34:38.58Z</time></trkpt><trkpt lat="38.3966637" lon="15.9064369"><ele>51.0</ele><time>2026-03-29T18:34:39.58Z</time></trkpt><trkpt lat="38.3963952" lon="15.9063769"><ele>51.0</ele><time>2026-03-29T18:34:40.58Z</time></trkpt><trkpt lat="38.3961201" lon="15.9063086"><ele>47.0</ele><time>2026-03-29T18:34:41.58Z</time></trkpt><trkpt lat="38.3958476" lon="15.9062298"><ele>43.0</ele><time>2026-03-29T18:34:42.58Z</time></trkpt><trkpt lat="38.3955854" lon="15.9061389"><ele>39.0</ele><time>2026-03-29T18:34:43.58Z</time></trkpt><trkpt lat="38.3953256" lon="15.9060363"><ele>35.0</ele><time>2026-03-29T18:34:44.58Z</time></trkpt><trkpt lat="38.3950643" lon="15.9059178"><ele>43.0</ele><time>2026-03-29T18:34:45.58Z</time></trkpt><trkpt lat="38.3948081" lon="15.9057896"><ele>51.0</ele><time>2026-03-29T18:34:46.58Z</time></trkpt><trkpt lat="38.3945535" lon="15.9056614"><ele>51.0</ele><time>2026-03-29T18:34:47.58Z</time></trkpt><trkpt lat="38.3943032" lon="15.9055324"><ele>51.0</ele><time>2026-03-29T18:34:48.581Z</time></trkpt><trkpt lat="38.3940552" lon="15.9054035"><ele>51.5</ele><time>2026-03-29T18:34:49.58Z</time></trkpt><trkpt lat="38.3938124" lon="15.9052643"><ele>52.0</ele><time>2026-03-29T18:34:50.58Z</time></trkpt><trkpt lat="38.393566" lon="15.9051245"><ele>59.0</ele><time>2026-03-29T18:34:51.58Z</time></trkpt><trkpt lat="38.3933247" lon="15.9049832"><ele>66.0</ele><time>2026-03-29T18:34:52.58Z</time></trkpt><trkpt lat="38.3930919" lon="15.9048264"><ele>61.0</ele><time>2026-03-29T18:34:53.58Z</time></trkpt><trkpt lat="38.3928728" lon="15.904661"><ele>56.0</ele><time>2026-03-29T18:34:54.58Z</time></trkpt><trkpt lat="38.3926596" lon="15.9044871"><ele>56.0</ele><time>2026-03-29T18:34:55.58Z</time></trkpt><trkpt lat="38.3924477" lon="15.9043099"><ele>56.0</ele><time>2026-03-29T18:34:56.58Z</time></trkpt><trkpt lat="38.3922359" lon="15.9041271"><ele>63.5</ele><time>2026-03-29T18:34:57.58Z</time></trkpt><trkpt lat="38.3920304" lon="15.9039439"><ele>71.0</ele><time>2026-03-29T18:34:58.58Z</time></trkpt><trkpt lat="38.3918254" lon="15.9037589"><ele>71.0</ele><time>2026-03-29T18:34:59.58Z</time></trkpt><trkpt lat="38.3916214" lon="15.9035678"><ele>71.0</ele><time>2026-03-29T18:35:00.58Z</time></trkpt><trkpt lat="38.3914275" lon="15.9033725"><ele>77.0</ele><time>2026-03-29T18:35:01.581Z</time></trkpt><trkpt lat="38.391238" lon="15.9031658"><ele>83.0</ele><time>2026-03-29T18:35:02.58Z</time></trkpt><trkpt lat="38.3910517" lon="15.9029511"><ele>83.0</ele><time>2026-03-29T18:35:03.58Z</time></trkpt><trkpt lat="38.3908662" lon="15.9027311"><ele>83.0</ele><time>2026-03-29T18:35:04.58Z</time></trkpt><trkpt lat="38.3906839" lon="15.9025075"><ele>85.5</ele><time>2026-03-29T18:35:05.581Z</time></trkpt><trkpt lat="38.3905037" lon="15.9022883"><ele>88.0</ele><time>2026-03-29T18:35:06.58Z</time></trkpt><trkpt lat="38.3903167" lon="15.9020669"><ele>88.0</ele><time>2026-03-29T18:35:07.58Z</time></trkpt><trkpt lat="38.3901348" lon="15.9018431"><ele>88.0</ele><time>2026-03-29T18:35:08.58Z</time></trkpt><trkpt lat="38.3899583" lon="15.9016145"><ele>87.0</ele><time>2026-03-29T18:35:09.58Z</time></trkpt><trkpt lat="38.3897845" lon="15.9013905"><ele>86.0</ele><time>2026-03-29T18:35:10.58Z</time></trkpt><trkpt lat="38.3896077" lon="15.9011649"><ele>86.0</ele><time>2026-03-29T18:35:11.58Z</time></trkpt><trkpt lat="38.3894273" lon="15.9009421"><ele>86.0</ele><time>2026-03-29T18:35:12.58Z</time></trkpt><trkpt lat="38.3892467" lon="15.900715"><ele>84.0</ele><time>2026-03-29T18:35:13.58Z</time></trkpt><trkpt lat="38.3890617" lon="15.9004867"><ele>82.0</ele><time>2026-03-29T18:35:14.58Z</time></trkpt><trkpt lat="38.3888733" lon="15.9002633"><ele>82.0</ele><time>2026-03-29T18:35:15.58Z</time></trkpt><trkpt lat="38.3886933" lon="15.9000367"><ele>82.0</ele><time>2026-03-29T18:35:16.581Z</time></trkpt><trkpt lat="38.3885217" lon="15.8998183"><ele>82.0</ele><time>2026-03-29T18:35:17.58Z</time></trkpt><trkpt lat="38.38834" lon="15.8996"><ele>82.0</ele><time>2026-03-29T18:35:18.58Z</time></trkpt><trkpt lat="38.38816" lon="15.89938"><ele>86.5</ele><time>2026-03-29T18:35:19.58Z</time></trkpt><trkpt lat="38.387975" lon="15.8991633"><ele>91.0</ele><time>2026-03-29T18:35:20.58Z</time></trkpt><trkpt lat="38.3877983" lon="15.8989417"><ele>91.0</ele><time>2026-03-29T18:35:21.58Z</time></trkpt><trkpt lat="38.387615" lon="15.8987183"><ele>91.0</ele><time>2026-03-29T18:35:22.58Z</time></trkpt><trkpt lat="38.38744" lon="15.8985033"><ele>91.0</ele><time>2026-03-29T18:35:23.58Z</time></trkpt><trkpt lat="38.3872633" lon="15.8982867"><ele>91.0</ele><time>2026-03-29T18:35:24.58Z</time></trkpt><trkpt lat="38.3870783" lon="15.8980617"><ele>91.0</ele><time>2026-03-29T18:35:25.58Z</time></trkpt><trkpt lat="38.3869033" lon="15.89784"><ele>91.0</ele><time>2026-03-29T18:35:26.58Z</time></trkpt><trkpt lat="38.3867333" lon="15.8976183"><ele>97.5</ele><time>2026-03-29T18:35:27.58Z</time></trkpt><trkpt lat="38.386575" lon="15.897405"><ele>104.0</ele><time>2026-03-29T18:35:28.58Z</time></trkpt><trkpt lat="38.3864117" lon="15.8971917"><ele>104.0</ele><time>2026-03-29T18:35:29.581Z</time></trkpt><trkpt lat="38.3862467" lon="15.8969683"><ele>104.0</ele><time>2026-03-29T18:35:30.58Z</time></trkpt><trkpt lat="38.3860733" lon="15.8967483"><ele>104.0</ele><time>2026-03-29T18:35:31.58Z</time></trkpt><trkpt lat="38.385915" lon="15.8965083"><ele>104.0</ele><time>2026-03-29T18:35:32.58Z</time></trkpt><trkpt lat="38.3857717" lon="15.896275"><ele>104.0</ele><time>2026-03-29T18:35:33.58Z</time></trkpt><trkpt lat="38.3856333" lon="15.8960417"><ele>104.0</ele><time>2026-03-29T18:35:34.58Z</time></trkpt><trkpt lat="38.3854983" lon="15.8958017"><ele>106.33333333333333</ele><time>2026-03-29T18:35:35.58Z</time></trkpt><trkpt lat="38.3853783" lon="15.8955667"><ele>108.66666666666666</ele><time>2026-03-29T18:35:36.58Z</time></trkpt><trkpt lat="38.3852533" lon="15.895325"><ele>111.0</ele><time>2026-03-29T18:35:37.58Z</time></trkpt><trkpt lat="38.3851383" lon="15.8950783"><ele>114.5</ele><time>2026-03-29T18:35:38.58Z</time></trkpt><trkpt lat="38.3850267" lon="15.8948267"><ele>118.0</ele><time>2026-03-29T18:35:39.58Z</time></trkpt><trkpt lat="38.3849217" lon="15.89457"><ele>118.0</ele><time>2026-03-29T18:35:40.58Z</time></trkpt><trkpt lat="38.3848233" lon="15.8943083"><ele>118.0</ele><time>2026-03-29T18:35:41.58Z</time></trkpt><trkpt lat="38.3847383" lon="15.8940433"><ele>118.0</ele><time>2026-03-29T18:35:42.58Z</time></trkpt><trkpt lat="38.384655" lon="15.8937833"><ele>118.0</ele><time>2026-03-29T18:35:43.58Z</time></trkpt><trkpt lat="38.3845717" lon="15.8935217"><ele>118.0</ele><time>2026-03-29T18:35:44.58Z</time></trkpt><trkpt lat="38.38449" lon="15.893255"><ele>119.33333333333334</ele><time>2026-03-29T18:35:45.58Z</time></trkpt><trkpt lat="38.3844233" lon="15.892995"><ele>120.66666666666666</ele><time>2026-03-29T18:35:46.58Z</time></trkpt><trkpt lat="38.3843533" lon="15.8927317"><ele>122.0</ele><time>2026-03-29T18:35:47.58Z</time></trkpt><trkpt lat="38.3842833" lon="15.8924733"><ele>122.33333333333333</ele><time>2026-03-29T18:35:48.581Z</time></trkpt><trkpt lat="38.3842167" lon="15.8922167"><ele>122.66666666666666</ele><time>2026-03-29T18:35:49.58Z</time></trkpt><trkpt lat="38.38415" lon="15.8919633"><ele>123.0</ele><time>2026-03-29T18:35:50.58Z</time></trkpt><trkpt lat="38.3840817" lon="15.8917067"><ele>127.66666666666666</ele><time>2026-03-29T18:35:51.58Z</time></trkpt><trkpt lat="38.3840167" lon="15.8914533"><ele>132.33333333333331</ele><time>2026-03-29T18:35:52.58Z</time></trkpt><trkpt lat="38.3839467" lon="15.8912133"><ele>137.0</ele><time>2026-03-29T18:35:53.58Z</time></trkpt><trkpt lat="38.38388" lon="15.890965"><ele>134.66666666666666</ele><time>2026-03-29T18:35:54.58Z</time></trkpt><trkpt lat="38.3838067" lon="15.8907167"><ele>132.33333333333334</ele><time>2026-03-29T18:35:55.58Z</time></trkpt><trkpt lat="38.3837467" lon="15.8904683"><ele>130.0</ele><time>2026-03-29T18:35:56.58Z</time></trkpt><trkpt lat="38.38368" lon="15.890225"><ele>131.66666666666669</ele><time>2026-03-29T18:35:57.58Z</time></trkpt><trkpt lat="38.3836117" lon="15.88998"><ele>133.33333333333334</ele><time>2026-03-29T18:35:58.58Z</time></trkpt><trkpt lat="38.3835567" lon="15.8897383"><ele>135.0</ele><time>2026-03-29T18:35:59.58Z</time></trkpt><trkpt lat="38.3834933" lon="15.88948"><ele>136.0</ele><time>2026-03-29T18:36:00.58Z</time></trkpt><trkpt lat="38.3834467" lon="15.8892367"><ele>137.0</ele><time>2026-03-29T18:36:01.58Z</time></trkpt><trkpt lat="38.383405" lon="15.8889833"><ele>138.0</ele><time>2026-03-29T18:36:02.581Z</time></trkpt><trkpt lat="38.3833483" lon="15.8887367"><ele>138.0</ele><time>2026-03-29T18:36:03.58Z</time></trkpt><trkpt lat="38.38331" lon="15.8885033"><ele>138.0</ele><time>2026-03-29T18:36:04.58Z</time></trkpt><trkpt lat="38.38326" lon="15.88826"><ele>138.0</ele><time>2026-03-29T18:36:05.58Z</time></trkpt><trkpt lat="38.3832283" lon="15.8880167"><ele>138.33333333333334</ele><time>2026-03-29T18:36:06.58Z</time></trkpt><trkpt lat="38.383195" lon="15.8877667"><ele>138.66666666666669</ele><time>2026-03-29T18:36:07.58Z</time></trkpt><trkpt lat="38.3831733" lon="15.8875183"><ele>139.0</ele><time>2026-03-29T18:36:08.58Z</time></trkpt><trkpt lat="38.383145" lon="15.8872667"><ele>140.33333333333334</ele><time>2026-03-29T18:36:09.58Z</time></trkpt><trkpt lat="38.3831217" lon="15.8870167"><ele>141.66666666666666</ele><time>2026-03-29T18:36:10.58Z</time></trkpt><trkpt lat="38.3830983" lon="15.8867733"><ele>143.0</ele><time>2026-03-29T18:36:11.58Z</time></trkpt><trkpt lat="38.3830783" lon="15.886525"><ele>143.66666666666666</ele><time>2026-03-29T18:36:12.58Z</time></trkpt><trkpt lat="38.3830467" lon="15.88627"><ele>144.33333333333334</ele><time>2026-03-29T18:36:13.58Z</time></trkpt><trkpt lat="38.3830233" lon="15.886015"><ele>145.0</ele><time>2026-03-29T18:36:14.58Z</time></trkpt><trkpt lat="38.383005" lon="15.8857633"><ele>145.0</ele><time>2026-03-29T18:36:15.58Z</time></trkpt><trkpt lat="38.382985" lon="15.8855117"><ele>145.0</ele><time>2026-03-29T18:36:16.58Z</time></trkpt><trkpt lat="38.3829633" lon="15.8852533"><ele>145.0</ele><time>2026-03-29T18:36:17.58Z</time></trkpt><trkpt lat="38.3829367" lon="15.885"><ele>146.33333333333334</ele><time>2026-03-29T18:36:18.58Z</time></trkpt><trkpt lat="38.3829" lon="15.88474"><ele>147.66666666666666</ele><time>2026-03-29T18:36:19.58Z</time></trkpt><trkpt lat="38.3828783" lon="15.8844867"><ele>149.0</ele><time>2026-03-29T18:36:20.58Z</time></trkpt><trkpt lat="38.3828583" lon="15.88423"><ele>150.33333333333331</ele><time>2026-03-29T18:36:21.58Z</time></trkpt><trkpt lat="38.3828417" lon="15.883975"><ele>151.66666666666666</ele><time>2026-03-29T18:36:22.58Z</time></trkpt><trkpt lat="38.3828133" lon="15.88372"><ele>153.0</ele><time>2026-03-29T18:36:23.58Z</time></trkpt><trkpt lat="38.3827833" lon="15.8834583"><ele>154.33333333333334</ele><time>2026-03-29T18:36:24.58Z</time></trkpt><trkpt lat="38.3827467" lon="15.8831883"><ele>155.66666666666669</ele><time>2026-03-29T18:36:25.58Z</time></trkpt><trkpt lat="38.3827183" lon="15.8829333"><ele>157.0</ele><time>2026-03-29T18:36:26.58Z</time></trkpt><trkpt lat="38.3826783" lon="15.8826417"><ele>160.0</ele><time>2026-03-29T18:36:27.58Z</time></trkpt><trkpt lat="38.3826467" lon="15.8823317"><ele>163.0</ele><time>2026-03-29T18:36:28.58Z</time></trkpt><trkpt lat="38.3825933" lon="15.8820067"><ele>167.5</ele><time>2026-03-29T18:36:29.58Z</time></trkpt><trkpt lat="38.3825417" lon="15.88168"><ele>172.0</ele><time>2026-03-29T18:36:30.58Z</time></trkpt><trkpt lat="38.382485" lon="15.88136"><ele>172.0</ele><time>2026-03-29T18:36:31.58Z</time></trkpt><trkpt lat="38.3824183" lon="15.88103"><ele>172.0</ele><time>2026-03-29T18:36:32.58Z</time></trkpt><trkpt lat="38.3823517" lon="15.8806867"><ele>179.5</ele><time>2026-03-29T18:36:33.58Z</time></trkpt><trkpt lat="38.3822817" lon="15.8803317"><ele>187.0</ele><time>2026-03-29T18:36:34.58Z</time></trkpt><trkpt lat="38.3822067" lon="15.8799767"><ele>188.5</ele><time>2026-03-29T18:36:35.581Z</time></trkpt><trkpt lat="38.38213" lon="15.879615"><ele>190.0</ele><time>2026-03-29T18:36:36.58Z</time></trkpt><trkpt lat="38.3820483" lon="15.879255"><ele>199.5</ele><time>2026-03-29T18:36:37.58Z</time></trkpt><trkpt lat="38.38196" lon="15.8788883"><ele>209.0</ele><time>2026-03-29T18:36:38.58Z</time></trkpt><trkpt lat="38.3757367" lon="15.8703783"><ele>209.0</ele><time>2026-03-29T18:37:04.578Z</time></trkpt><trkpt lat="38.375505" lon="15.87016"><ele>209.0</ele><time>2026-03-29T18:37:05.579Z</time></trkpt><trkpt lat="38.37526" lon="15.869945"><ele>215.5</ele><time>2026-03-29T18:37:06.578Z</time></trkpt><trkpt lat="38.374995" lon="15.8697217"><ele>222.0</ele><time>2026-03-29T18:37:07.578Z</time></trkpt><trkpt lat="38.3747367" lon="15.8694933"><ele>222.0</ele><time>2026-03-29T18:37:08.578Z</time></trkpt><trkpt lat="38.374485" lon="15.8692533"><ele>222.0</ele><time>2026-03-29T18:37:09.579Z</time></trkpt><trkpt lat="38.3742317" lon="15.869035"><ele>222.0</ele><time>2026-03-29T18:37:10.578Z</time></trkpt><trkpt lat="38.37398" lon="15.8688133"><ele>222.0</ele><time>2026-03-29T18:37:11.578Z</time></trkpt><trkpt lat="38.37373" lon="15.8686"><ele>229.0</ele><time>2026-03-29T18:37:12.578Z</time></trkpt><trkpt lat="38.37349" lon="15.8683867"><ele>236.0</ele><time>2026-03-29T18:37:13.578Z</time></trkpt><trkpt lat="38.3732533" lon="15.8681733"><ele>234.0</ele><time>2026-03-29T18:37:14.578Z</time></trkpt><trkpt lat="38.3730183" lon="15.86797"><ele>232.0</ele><time>2026-03-29T18:37:15.578Z</time></trkpt><trkpt lat="38.37278" lon="15.867755"><ele>236.0</ele><time>2026-03-29T18:37:16.578Z</time></trkpt><trkpt lat="38.3725467" lon="15.867545"><ele>240.0</ele><time>2026-03-29T18:37:17.578Z</time></trkpt><trkpt lat="38.37231" lon="15.8673367"><ele>238.0</ele><time>2026-03-29T18:37:18.578Z</time></trkpt><trkpt lat="38.3720833" lon="15.8671317"><ele>236.0</ele><time>2026-03-29T18:37:19.578Z</time></trkpt><trkpt lat="38.3718683" lon="15.86695"><ele>241.0</ele><time>2026-03-29T18:37:20.578Z</time></trkpt><trkpt lat="38.37167" lon="15.8667767"><ele>246.0</ele><time>2026-03-29T18:37:21.578Z</time></trkpt><trkpt lat="38.3714767" lon="15.8666233"><ele>246.0</ele><time>2026-03-29T18:37:22.578Z</time></trkpt><trkpt lat="38.3712867" lon="15.8664917"><ele>246.0</ele><time>2026-03-29T18:37:23.578Z</time></trkpt><trkpt lat="38.3711067" lon="15.8663567"><ele>246.0</ele><time>2026-03-29T18:37:24.578Z</time></trkpt><trkpt lat="38.3709167" lon="15.866225"><ele>246.0</ele><time>2026-03-29T18:37:25.578Z</time></trkpt><trkpt lat="38.3707267" lon="15.866105"><ele>246.0</ele><time>2026-03-29T18:37:26.578Z</time></trkpt><trkpt lat="38.3705417" lon="15.8660017"><ele>246.0</ele><time>2026-03-29T18:37:27.578Z</time></trkpt><trkpt lat="38.3703683" lon="15.8659017"><ele>244.66666666666669</ele><time>2026-03-29T18:37:28.578Z</time></trkpt><trkpt lat="38.3702033" lon="15.86582"><ele>243.33333333333334</ele><time>2026-03-29T18:37:29.578Z</time></trkpt><trkpt lat="38.3700317" lon="15.8657417"><ele>242.0</ele><time>2026-03-29T18:37:30.578Z</time></trkpt><trkpt lat="38.369855" lon="15.8656767"><ele>244.0</ele><time>2026-03-29T18:37:31.578Z</time></trkpt><trkpt lat="38.3696883" lon="15.8656083"><ele>246.0</ele><time>2026-03-29T18:37:32.578Z</time></trkpt><trkpt lat="38.3695217" lon="15.8655533"><ele>248.0</ele><time>2026-03-29T18:37:33.578Z</time></trkpt><trkpt lat="38.3693833" lon="15.86549"><ele>248.0</ele><time>2026-03-29T18:37:34.578Z</time></trkpt><trkpt lat="38.3692567" lon="15.86542"><ele>248.0</ele><time>2026-03-29T18:37:35.578Z</time></trkpt><trkpt lat="38.3691267" lon="15.8653467"><ele>248.0</ele><time>2026-03-29T18:37:36.578Z</time></trkpt><trkpt lat="38.3690133" lon="15.865255"><ele>248.0</ele><time>2026-03-29T18:37:37.578Z</time></trkpt><trkpt lat="38.3689233" lon="15.8651467"><ele>250.0</ele><time>2026-03-29T18:37:38.578Z</time></trkpt><trkpt lat="38.3688383" lon="15.865035"><ele>252.0</ele><time>2026-03-29T18:37:39.578Z</time></trkpt><trkpt lat="38.3687583" lon="15.86491"><ele>254.0</ele><time>2026-03-29T18:37:40.578Z</time></trkpt><trkpt lat="38.368705" lon="15.8647633"><ele>256.0</ele><time>2026-03-29T18:37:41.578Z</time></trkpt><trkpt lat="38.368645" lon="15.8646117"><ele>256.0</ele><time>2026-03-29T18:37:42.578Z</time></trkpt><trkpt lat="38.3685867" lon="15.864465"><ele>256.0</ele><time>2026-03-29T18:37:43.578Z</time></trkpt><trkpt lat="38.3685317" lon="15.8643367"><ele>256.0</ele><time>2026-03-29T18:37:44.578Z</time></trkpt><trkpt lat="38.3684783" lon="15.86423"><ele>256.0</ele><time>2026-03-29T18:37:45.578Z</time></trkpt><trkpt lat="38.36841" lon="15.8641333"><ele>256.0</ele><time>2026-03-29T18:37:46.578Z</time></trkpt><trkpt lat="38.3683367" lon="15.8640617"><ele>257.0</ele><time>2026-03-29T18:37:47.578Z</time></trkpt><trkpt lat="38.3682467" lon="15.8640083"><ele>258.0</ele><time>2026-03-29T18:37:48.579Z</time></trkpt><trkpt lat="38.3681367" lon="15.8639717"><ele>259.0</ele><time>2026-03-29T18:37:49.579Z</time></trkpt><trkpt lat="38.3680317" lon="15.8639567"><ele>260.0</ele><time>2026-03-29T18:37:50.578Z</time></trkpt><trkpt lat="38.3679367" lon="15.86397"><ele>261.0</ele><time>2026-03-29T18:37:51.578Z</time></trkpt><trkpt lat="38.3678483" lon="15.8640133"><ele>261.6</ele><time>2026-03-29T18:37:52.578Z</time></trkpt><trkpt lat="38.367765" lon="15.8640783"><ele>262.20000000000005</ele><time>2026-03-29T18:37:53.578Z</time></trkpt><trkpt lat="38.3676883" lon="15.8641567"><ele>262.79999999999995</ele><time>2026-03-29T18:37:54.578Z</time></trkpt><trkpt lat="38.3676233" lon="15.8642517"><ele>263.4</ele><time>2026-03-29T18:37:55.579Z</time></trkpt><trkpt lat="38.36757" lon="15.8643683"><ele>264.0</ele><time>2026-03-29T18:37:56.578Z</time></trkpt><trkpt lat="38.3675333" lon="15.8644967"><ele>262.25</ele><time>2026-03-29T18:37:57.578Z</time></trkpt><trkpt lat="38.3675083" lon="15.864625"><ele>260.5</ele><time>2026-03-29T18:37:58.578Z</time></trkpt><trkpt lat="38.367485" lon="15.8647817"><ele>258.75</ele><time>2026-03-29T18:37:59.578Z</time></trkpt><trkpt lat="38.3674667" lon="15.864935"><ele>257.0</ele><time>2026-03-29T18:38:00.578Z</time></trkpt><trkpt lat="38.3674467" lon="15.86507"><ele>255.8</ele><time>2026-03-29T18:38:01.578Z</time></trkpt><trkpt lat="38.36742" lon="15.865205"><ele>254.6</ele><time>2026-03-29T18:38:02.578Z</time></trkpt><trkpt lat="38.367405" lon="15.8653317"><ele>253.40000000000003</ele><time>2026-03-29T18:38:03.578Z</time></trkpt><trkpt lat="38.3674" lon="15.86548"><ele>252.20000000000002</ele><time>2026-03-29T18:38:04.579Z</time></trkpt><trkpt lat="38.3673933" lon="15.865615"><ele>251.0</ele><time>2026-03-29T18:38:05.578Z</time></trkpt><trkpt lat="38.367375" lon="15.8657483"><ele>251.0</ele><time>2026-03-29T18:38:06.578Z</time></trkpt><trkpt lat="38.36735" lon="15.8658867"><ele>251.0</ele><time>2026-03-29T18:38:07.578Z</time></trkpt><trkpt lat="38.3673183" lon="15.86602"><ele>251.0</ele><time>2026-03-29T18:38:08.578Z</time></trkpt><trkpt lat="38.3672917" lon="15.8661667"><ele>251.0</ele><time>2026-03-29T18:38:09.578Z</time></trkpt><trkpt lat="38.367255" lon="15.8663067"><ele>250.75</ele><time>2026-03-29T18:38:10.578Z</time></trkpt><trkpt lat="38.367225" lon="15.86645"><ele>250.5</ele><time>2026-03-29T18:38:11.578Z</time></trkpt><trkpt lat="38.3671933" lon="15.8665983"><ele>250.25</ele><time>2026-03-29T18:38:12.578Z</time></trkpt><trkpt lat="38.3671617" lon="15.86675"><ele>250.0</ele><time>2026-03-29T18:38:13.578Z</time></trkpt><trkpt lat="38.3671383" lon="15.8668783"><ele>248.99999999999997</ele><time>2026-03-29T18:38:14.578Z</time></trkpt><trkpt lat="38.367105" lon="15.8669917"><ele>248.0</ele><time>2026-03-29T18:38:15.578Z</time></trkpt><trkpt lat="38.3670683" lon="15.8670983"><ele>247.0</ele><time>2026-03-29T18:38:16.578Z</time></trkpt><trkpt lat="38.36703" lon="15.8671833"><ele>246.0</ele><time>2026-03-29T18:38:17.578Z</time></trkpt><trkpt lat="38.3669417" lon="15.8672683"><ele>244.99999999999997</ele><time>2026-03-29T18:38:19.578Z</time></trkpt><trkpt lat="38.36688" lon="15.86729"><ele>244.0</ele><time>2026-03-29T18:38:20.578Z</time></trkpt><trkpt lat="38.366815" lon="15.8673133"><ele>243.99999999999997</ele><time>2026-03-29T18:38:21.578Z</time></trkpt><trkpt lat="38.36673" lon="15.86737"><ele>244.0</ele><time>2026-03-29T18:38:23.578Z</time></trkpt><trkpt lat="38.3666733" lon="15.86743"><ele>244.0</ele><time>2026-03-29T18:42:28.579Z</time></trkpt><trkpt lat="38.366665" lon="15.8675533"><ele>244.0</ele><time>2026-03-29T18:42:30.579Z</time></trkpt><trkpt lat="38.366685" lon="15.86764"><ele>243.99999999999997</ele><time>2026-03-29T18:42:31.579Z</time></trkpt><trkpt lat="38.366715" lon="15.8677133"><ele>244.0</ele><time>2026-03-29T18:42:32.579Z</time></trkpt><trkpt lat="38.366775" lon="15.8678033"><ele>243.99999999999997</ele><time>2026-03-29T18:42:34.579Z</time></trkpt><trkpt lat="38.3668433" lon="15.86785"><ele>244.0</ele><time>2026-03-29T18:42:36.579Z</time></trkpt><trkpt lat="38.36692" lon="15.8678633"><ele>244.0</ele><time>2026-03-29T18:42:38.579Z</time></trkpt><trkpt lat="38.3669883" lon="15.867845"><ele>244.0</ele><time>2026-03-29T18:42:40.579Z</time></trkpt><trkpt lat="38.367055" lon="15.8677883"><ele>243.99999999999997</ele><time>2026-03-29T18:42:42.579Z</time></trkpt><trkpt lat="38.3671" lon="15.8677033"><ele>244.0</ele><time>2026-03-29T18:42:44.579Z</time></trkpt><trkpt lat="38.367125" lon="15.8675767"><ele>244.0</ele><time>2026-03-29T18:42:46.579Z</time></trkpt><trkpt lat="38.3671367" lon="15.867435"><ele>243.99999999999997</ele><time>2026-03-29T18:42:48.579Z</time></trkpt><trkpt lat="38.3671367" lon="15.8673517"><ele>243.99999999999997</ele><time>2026-03-29T18:42:49.579Z</time></trkpt><trkpt lat="38.3671467" lon="15.8671817"><ele>244.0</ele><time>2026-03-29T18:42:51.579Z</time></trkpt><trkpt lat="38.3671533" lon="15.8670917"><ele>244.0</ele><time>2026-03-29T18:42:52.579Z</time></trkpt><trkpt lat="38.367165" lon="15.8669933"><ele>244.0</ele><time>2026-03-29T18:42:53.579Z</time></trkpt><trkpt lat="38.36718" lon="15.86688"><ele>243.99999999999997</ele><time>2026-03-29T18:42:54.579Z</time></trkpt><trkpt lat="38.3672017" lon="15.8667417"><ele>243.99999999999997</ele><time>2026-03-29T18:42:55.579Z</time></trkpt><trkpt lat="38.36723" lon="15.8666033"><ele>244.0</ele><time>2026-03-29T18:42:56.579Z</time></trkpt><trkpt lat="38.367255" lon="15.866475"><ele>244.0</ele><time>2026-03-29T18:42:57.579Z</time></trkpt><trkpt lat="38.3672817" lon="15.8663517"><ele>244.49999999999997</ele><time>2026-03-29T18:42:58.579Z</time></trkpt><trkpt lat="38.3673017" lon="15.866255"><ele>245.0</ele><time>2026-03-29T18:42:59.579Z</time></trkpt><trkpt lat="38.3673267" lon="15.8661617"><ele>245.5</ele><time>2026-03-29T18:43:00.579Z</time></trkpt><trkpt lat="38.3673567" lon="15.8660733"><ele>246.0</ele><time>2026-03-29T18:43:01.579Z</time></trkpt><trkpt lat="38.3673933" lon="15.8659833"><ele>246.49999999999997</ele><time>2026-03-29T18:43:02.579Z</time></trkpt><trkpt lat="38.3674433" lon="15.865905"><ele>247.0</ele><time>2026-03-29T18:43:03.579Z</time></trkpt><trkpt lat="38.3675067" lon="15.865835"><ele>247.6</ele><time>2026-03-29T18:43:04.579Z</time></trkpt><trkpt lat="38.3675767" lon="15.8657717"><ele>248.2</ele><time>2026-03-29T18:43:05.579Z</time></trkpt><trkpt lat="38.3676767" lon="15.8657183"><ele>248.8</ele><time>2026-03-29T18:43:06.579Z</time></trkpt><trkpt lat="38.3677917" lon="15.8656817"><ele>249.4</ele><time>2026-03-29T18:43:07.579Z</time></trkpt><trkpt lat="38.3679117" lon="15.865665"><ele>250.0</ele><time>2026-03-29T18:43:08.579Z</time></trkpt><trkpt lat="38.368055" lon="15.865655"><ele>250.0</ele><time>2026-03-29T18:43:09.579Z</time></trkpt><trkpt lat="38.368195" lon="15.865655"><ele>250.0</ele><time>2026-03-29T18:43:10.579Z</time></trkpt><trkpt lat="38.3683367" lon="15.8656567"><ele>250.0</ele><time>2026-03-29T18:43:11.579Z</time></trkpt><trkpt lat="38.368475" lon="15.8656633"><ele>250.0</ele><time>2026-03-29T18:43:12.579Z</time></trkpt><trkpt lat="38.36861" lon="15.8656617"><ele>250.0</ele><time>2026-03-29T18:43:13.58Z</time></trkpt><trkpt lat="38.3687467" lon="15.8656733"><ele>250.0</ele><time>2026-03-29T18:43:14.579Z</time></trkpt><trkpt lat="38.3688917" lon="15.8656767"><ele>250.0</ele><time>2026-03-29T18:43:15.579Z</time></trkpt><trkpt lat="38.3690333" lon="15.8657033"><ele>250.0</ele><time>2026-03-29T18:43:16.579Z</time></trkpt><trkpt lat="38.3691817" lon="15.865735"><ele>249.33333333333331</ele><time>2026-03-29T18:43:17.579Z</time></trkpt><trkpt lat="38.36933" lon="15.8657667"><ele>248.66666666666669</ele><time>2026-03-29T18:43:18.579Z</time></trkpt><trkpt lat="38.369475" lon="15.865815"><ele>248.0</ele><time>2026-03-29T18:43:19.579Z</time></trkpt><trkpt lat="38.36963" lon="15.8658733"><ele>246.0</ele><time>2026-03-29T18:43:20.579Z</time></trkpt><trkpt lat="38.3697833" lon="15.8659317"><ele>244.0</ele><time>2026-03-29T18:43:21.579Z</time></trkpt><trkpt lat="38.3699483" lon="15.865995"><ele>242.0</ele><time>2026-03-29T18:43:22.58Z</time></trkpt><trkpt lat="38.3701217" lon="15.8660683"><ele>243.33333333333334</ele><time>2026-03-29T18:43:23.579Z</time></trkpt><trkpt lat="38.3703" lon="15.8661583"><ele>244.66666666666669</ele><time>2026-03-29T18:43:24.579Z</time></trkpt><trkpt lat="38.3704883" lon="15.8662433"><ele>246.0</ele><time>2026-03-29T18:43:25.579Z</time></trkpt><trkpt lat="38.3706783" lon="15.8663383"><ele>246.0</ele><time>2026-03-29T18:43:26.579Z</time></trkpt><trkpt lat="38.3708683" lon="15.8664533"><ele>246.0</ele><time>2026-03-29T18:43:27.579Z</time></trkpt><trkpt lat="38.37106" lon="15.86658"><ele>246.0</ele><time>2026-03-29T18:43:28.58Z</time></trkpt><trkpt lat="38.3712533" lon="15.8667167"><ele>241.0</ele><time>2026-03-29T18:43:29.579Z</time></trkpt><trkpt lat="38.3714533" lon="15.8668633"><ele>236.0</ele><time>2026-03-29T18:43:30.579Z</time></trkpt><trkpt lat="38.3716567" lon="15.8670283"><ele>236.0</ele><time>2026-03-29T18:43:31.579Z</time></trkpt><trkpt lat="38.37187" lon="15.8672033"><ele>236.0</ele><time>2026-03-29T18:43:32.579Z</time></trkpt><trkpt lat="38.372095" lon="15.8673917"><ele>238.0</ele><time>2026-03-29T18:43:33.579Z</time></trkpt><trkpt lat="38.3723283" lon="15.8675933"><ele>240.0</ele><time>2026-03-29T18:43:34.58Z</time></trkpt><trkpt lat="38.3725667" lon="15.8677983"><ele>238.0</ele><time>2026-03-29T18:43:35.579Z</time></trkpt><trkpt lat="38.3728083" lon="15.868025"><ele>236.0</ele><time>2026-03-29T18:43:36.579Z</time></trkpt><trkpt lat="38.3730733" lon="15.8682667"><ele>232.5</ele><time>2026-03-29T18:43:37.579Z</time></trkpt><trkpt lat="38.37334" lon="15.8685233"><ele>229.0</ele><time>2026-03-29T18:43:38.579Z</time></trkpt><trkpt lat="38.3736167" lon="15.8687933"><ele>225.5</ele><time>2026-03-29T18:43:39.579Z</time></trkpt><trkpt lat="38.3739083" lon="15.8690717"><ele>222.0</ele><time>2026-03-29T18:43:40.579Z</time></trkpt><trkpt lat="38.3742183" lon="15.86935"><ele>222.0</ele><time>2026-03-29T18:43:41.579Z</time></trkpt><trkpt lat="38.3745433" lon="15.8696417"><ele>222.0</ele><time>2026-03-29T18:43:42.579Z</time></trkpt><trkpt lat="38.3748667" lon="15.8699367"><ele>215.5</ele><time>2026-03-29T18:43:43.579Z</time></trkpt><trkpt lat="38.3751833" lon="15.8702433"><ele>209.0</ele><time>2026-03-29T18:43:44.58Z</time></trkpt><trkpt lat="38.3754867" lon="15.8705317"><ele>207.0</ele><time>2026-03-29T18:43:45.579Z</time></trkpt><trkpt lat="38.3757833" lon="15.8708117"><ele>205.0</ele><time>2026-03-29T18:43:46.579Z</time></trkpt><trkpt lat="38.3760733" lon="15.8710833"><ele>205.0</ele><time>2026-03-29T18:43:47.579Z</time></trkpt><trkpt lat="38.376345" lon="15.8713483"><ele>205.0</ele><time>2026-03-29T18:43:48.579Z</time></trkpt><trkpt lat="38.37662" lon="15.8716067"><ele>210.5</ele><time>2026-03-29T18:43:49.579Z</time></trkpt><trkpt lat="38.376905" lon="15.8718567"><ele>216.0</ele><time>2026-03-29T18:43:50.579Z</time></trkpt><trkpt lat="38.3771867" lon="15.8721067"><ele>230.0</ele><time>2026-03-29T18:43:51.579Z</time></trkpt><trkpt lat="38.3774733" lon="15.8723567"><ele>244.0</ele><time>2026-03-29T18:43:52.579Z</time></trkpt><trkpt lat="38.3777617" lon="15.87261"><ele>163.0</ele><time>2026-03-29T18:43:53.579Z</time></trkpt><trkpt lat="38.3822867" lon="15.881795"><ele>163.0</ele><time>2026-03-29T18:44:20.578Z</time></trkpt><trkpt lat="38.3823367" lon="15.8822167"><ele>163.0</ele><time>2026-03-29T18:44:21.578Z</time></trkpt><trkpt lat="38.382385" lon="15.8826833"><ele>160.0</ele><time>2026-03-29T18:44:22.578Z</time></trkpt><trkpt lat="38.3824183" lon="15.8831367"><ele>157.0</ele><time>2026-03-29T18:44:23.578Z</time></trkpt><trkpt lat="38.3824867" lon="15.88362"><ele>155.0</ele><time>2026-03-29T18:44:24.578Z</time></trkpt><trkpt lat="38.382545" lon="15.8841133"><ele>153.0</ele><time>2026-03-29T18:44:25.578Z</time></trkpt><trkpt lat="38.3825983" lon="15.8846017"><ele>151.0</ele><time>2026-03-29T18:44:26.578Z</time></trkpt><trkpt lat="38.3826467" lon="15.8850717"><ele>149.0</ele><time>2026-03-29T18:44:27.578Z</time></trkpt><trkpt lat="38.3826917" lon="15.8855167"><ele>145.5</ele><time>2026-03-29T18:44:28.578Z</time></trkpt><trkpt lat="38.3827317" lon="15.8859383"><ele>142.0</ele><time>2026-03-29T18:44:29.578Z</time></trkpt><trkpt lat="38.3827717" lon="15.8863383"><ele>142.0</ele><time>2026-03-29T18:44:30.578Z</time></trkpt><trkpt lat="38.3828083" lon="15.88671"><ele>142.0</ele><time>2026-03-29T18:44:31.578Z</time></trkpt><trkpt lat="38.3828583" lon="15.8870667"><ele>141.0</ele><time>2026-03-29T18:44:32.579Z</time></trkpt><trkpt lat="38.38291" lon="15.8874367"><ele>140.0</ele><time>2026-03-29T18:44:33.578Z</time></trkpt><trkpt lat="38.38298" lon="15.8878117"><ele>139.5</ele><time>2026-03-29T18:44:34.578Z</time></trkpt><trkpt lat="38.3830483" lon="15.8881967"><ele>139.0</ele><time>2026-03-29T18:44:35.578Z</time></trkpt><trkpt lat="38.3831217" lon="15.8885933"><ele>138.5</ele><time>2026-03-29T18:44:36.578Z</time></trkpt><trkpt lat="38.3832083" lon="15.8889833"><ele>138.0</ele><time>2026-03-29T18:44:37.578Z</time></trkpt><trkpt lat="38.38331" lon="15.88938"><ele>136.5</ele><time>2026-03-29T18:44:38.578Z</time></trkpt><trkpt lat="38.3834083" lon="15.8897867"><ele>135.0</ele><time>2026-03-29T18:44:39.578Z</time></trkpt><trkpt lat="38.3835167" lon="15.8901933"><ele>132.5</ele><time>2026-03-29T18:44:40.578Z</time></trkpt><trkpt lat="38.3836217" lon="15.890605"><ele>130.0</ele><time>2026-03-29T18:44:41.578Z</time></trkpt><trkpt lat="38.38373" lon="15.8910167"><ele>127.0</ele><time>2026-03-29T18:44:42.578Z</time></trkpt><trkpt lat="38.3838417" lon="15.8914283"><ele>124.0</ele><time>2026-03-29T18:44:43.578Z</time></trkpt><trkpt lat="38.38395" lon="15.891835"><ele>123.5</ele><time>2026-03-29T18:44:44.578Z</time></trkpt><trkpt lat="38.3840617" lon="15.8922317"><ele>123.0</ele><time>2026-03-29T18:44:45.579Z</time></trkpt><trkpt lat="38.3841733" lon="15.89263"><ele>122.5</ele><time>2026-03-29T18:44:46.578Z</time></trkpt><trkpt lat="38.3842867" lon="15.8930133"><ele>122.0</ele><time>2026-03-29T18:44:47.578Z</time></trkpt><trkpt lat="38.3844067" lon="15.893405"><ele>120.0</ele><time>2026-03-29T18:44:48.578Z</time></trkpt><trkpt lat="38.38452" lon="15.89378"><ele>118.0</ele><time>2026-03-29T18:44:49.578Z</time></trkpt><trkpt lat="38.3846483" lon="15.8941367"><ele>118.0</ele><time>2026-03-29T18:44:50.578Z</time></trkpt><trkpt lat="38.3847783" lon="15.8945"><ele>118.0</ele><time>2026-03-29T18:44:51.578Z</time></trkpt><trkpt lat="38.3849217" lon="15.8948717"><ele>114.5</ele><time>2026-03-29T18:44:52.578Z</time></trkpt><trkpt lat="38.3850833" lon="15.8952317"><ele>111.0</ele><time>2026-03-29T18:44:53.578Z</time></trkpt><trkpt lat="38.3852617" lon="15.8955933"><ele>107.5</ele><time>2026-03-29T18:44:54.578Z</time></trkpt><trkpt lat="38.3854433" lon="15.8959567"><ele>104.0</ele><time>2026-03-29T18:44:55.578Z</time></trkpt><trkpt lat="38.3856517" lon="15.89631"><ele>104.0</ele><time>2026-03-29T18:44:56.578Z</time></trkpt><trkpt lat="38.3858733" lon="15.8966567"><ele>104.0</ele><time>2026-03-29T18:44:57.578Z</time></trkpt><trkpt lat="38.3861167" lon="15.8969883"><ele>104.0</ele><time>2026-03-29T18:44:58.579Z</time></trkpt><trkpt lat="38.3863617" lon="15.8973233"><ele>104.0</ele><time>2026-03-29T18:44:59.578Z</time></trkpt><trkpt lat="38.3866217" lon="15.89767"><ele>104.0</ele><time>2026-03-29T18:45:00.578Z</time></trkpt><trkpt lat="38.3869" lon="15.8980217"><ele>104.0</ele><time>2026-03-29T18:45:01.578Z</time></trkpt><trkpt lat="38.3871867" lon="15.8983717"><ele>97.5</ele><time>2026-03-29T18:45:02.578Z</time></trkpt><trkpt lat="38.3874833" lon="15.8987333"><ele>91.0</ele><time>2026-03-29T18:45:03.578Z</time></trkpt><trkpt lat="38.3877867" lon="15.8991067"><ele>86.5</ele><time>2026-03-29T18:45:04.578Z</time></trkpt><trkpt lat="38.3880867" lon="15.89949"><ele>82.0</ele><time>2026-03-29T18:45:05.578Z</time></trkpt><trkpt lat="38.3883717" lon="15.8998667"><ele>82.0</ele><time>2026-03-29T18:45:06.578Z</time></trkpt><trkpt lat="38.38865" lon="15.9002233"><ele>82.0</ele><time>2026-03-29T18:45:07.578Z</time></trkpt><trkpt lat="38.3889283" lon="15.900575"><ele>84.0</ele><time>2026-03-29T18:45:08.578Z</time></trkpt><trkpt lat="38.38921" lon="15.90093"><ele>86.0</ele><time>2026-03-29T18:45:09.578Z</time></trkpt><trkpt lat="38.38951" lon="15.9012817"><ele>87.0</ele><time>2026-03-29T18:45:10.578Z</time></trkpt><trkpt lat="38.38981" lon="15.9016383"><ele>88.0</ele><time>2026-03-29T18:45:11.578Z</time></trkpt><trkpt lat="38.3900933" lon="15.901995"><ele>88.0</ele><time>2026-03-29T18:45:12.578Z</time></trkpt><trkpt lat="38.3903717" lon="15.9023383"><ele>88.0</ele><time>2026-03-29T18:45:13.578Z</time></trkpt><trkpt lat="38.3906433" lon="15.9026733"><ele>85.5</ele><time>2026-03-29T18:45:14.578Z</time></trkpt><trkpt lat="38.3909133" lon="15.903"><ele>83.0</ele><time>2026-03-29T18:45:15.578Z</time></trkpt><trkpt lat="38.3911833" lon="15.9033133"><ele>77.0</ele><time>2026-03-29T18:45:16.578Z</time></trkpt><trkpt lat="38.39146" lon="15.9036033"><ele>71.0</ele><time>2026-03-29T18:45:17.578Z</time></trkpt><trkpt lat="38.3917433" lon="15.90388"><ele>71.0</ele><time>2026-03-29T18:45:18.578Z</time></trkpt><trkpt lat="38.39203" lon="15.90415"><ele>71.0</ele><time>2026-03-29T18:45:19.578Z</time></trkpt><trkpt lat="38.3923367" lon="15.9044017"><ele>63.5</ele><time>2026-03-29T18:45:20.578Z</time></trkpt><trkpt lat="38.3926517" lon="15.9046433"><ele>56.0</ele><time>2026-03-29T18:45:21.578Z</time></trkpt><trkpt lat="38.392965" lon="15.9048667"><ele>54.0</ele><time>2026-03-29T18:45:22.578Z</time></trkpt><trkpt lat="38.3932933" lon="15.9050833"><ele>52.0</ele><time>2026-03-29T18:45:23.578Z</time></trkpt><trkpt lat="38.393635" lon="15.9052783"><ele>51.5</ele><time>2026-03-29T18:45:24.578Z</time></trkpt><trkpt lat="38.3939817" lon="15.9054683"><ele>51.0</ele><time>2026-03-29T18:45:25.578Z</time></trkpt><trkpt lat="38.39433" lon="15.9056533"><ele>54.5</ele><time>2026-03-29T18:45:26.578Z</time></trkpt><trkpt lat="38.3946767" lon="15.9058367"><ele>58.0</ele><time>2026-03-29T18:45:27.578Z</time></trkpt><trkpt lat="38.39502" lon="15.9060017"><ele>50.5</ele><time>2026-03-29T18:45:28.578Z</time></trkpt><trkpt lat="38.3953533" lon="15.90617"><ele>43.0</ele><time>2026-03-29T18:45:29.578Z</time></trkpt><trkpt lat="38.39569" lon="15.9063017"><ele>43.0</ele><time>2026-03-29T18:45:30.578Z</time></trkpt><trkpt lat="38.3960217" lon="15.90642"><ele>43.0</ele><time>2026-03-29T18:45:31.578Z</time></trkpt><trkpt lat="38.39636" lon="15.9065133"><ele>47.0</ele><time>2026-03-29T18:45:32.578Z</time></trkpt><trkpt lat="38.3966967" lon="15.9065867"><ele>51.0</ele><time>2026-03-29T18:45:33.578Z</time></trkpt><trkpt lat="38.39704" lon="15.9066317"><ele>54.5</ele><time>2026-03-29T18:45:34.578Z</time></trkpt><trkpt lat="38.397385" lon="15.90666"><ele>58.0</ele><time>2026-03-29T18:45:35.578Z</time></trkpt><trkpt lat="38.3977383" lon="15.9066767"><ele>54.5</ele><time>2026-03-29T18:45:36.578Z</time></trkpt><trkpt lat="38.398085" lon="15.9066833"><ele>51.0</ele><time>2026-03-29T18:45:37.578Z</time></trkpt><trkpt lat="38.3984317" lon="15.9066933"><ele>51.0</ele><time>2026-03-29T18:45:38.578Z</time></trkpt><trkpt lat="38.3987767" lon="15.9067133"><ele>51.0</ele><time>2026-03-29T18:45:39.578Z</time></trkpt><trkpt lat="38.3990733" lon="15.906785"><ele>40.5</ele><time>2026-03-29T18:45:40.578Z</time></trkpt><trkpt lat="38.399435" lon="15.9068567"><ele>30.0</ele><time>2026-03-29T18:45:41.578Z</time></trkpt><trkpt lat="38.3997983" lon="15.9069583"><ele>30.0</ele><time>2026-03-29T18:45:42.578Z</time></trkpt><trkpt lat="38.400155" lon="15.90709"><ele>30.0</ele><time>2026-03-29T18:45:43.578Z</time></trkpt><trkpt lat="38.400525" lon="15.907255"><ele>31.0</ele><time>2026-03-29T18:45:44.578Z</time></trkpt><trkpt lat="38.4008817" lon="15.9074483"><ele>32.0</ele><time>2026-03-29T18:45:45.578Z</time></trkpt><trkpt lat="38.4012383" lon="15.90767"><ele>27.0</ele><time>2026-03-29T18:45:46.578Z</time></trkpt><trkpt lat="38.4015933" lon="15.90793"><ele>22.0</ele><time>2026-03-29T18:45:47.578Z</time></trkpt><trkpt lat="38.4019583" lon="15.9082117"><ele>22.5</ele><time>2026-03-29T18:45:48.578Z</time></trkpt><trkpt lat="38.4023083" lon="15.9085033"><ele>23.0</ele><time>2026-03-29T18:45:49.578Z</time></trkpt><trkpt lat="38.4026617" lon="15.9088033"><ele>23.0</ele><time>2026-03-29T18:45:50.578Z</time></trkpt><trkpt lat="38.4030117" lon="15.9091233"><ele>23.0</ele><time>2026-03-29T18:45:51.578Z</time></trkpt><trkpt lat="38.4033617" lon="15.90944"><ele>23.0</ele><time>2026-03-29T18:45:52.578Z</time></trkpt><trkpt lat="38.4037133" lon="15.9097567"><ele>23.0</ele><time>2026-03-29T18:45:53.578Z</time></trkpt><trkpt lat="38.40407" lon="15.9100767"><ele>29.0</ele><time>2026-03-29T18:45:54.578Z</time></trkpt><trkpt lat="38.40443" lon="15.9104017"><ele>35.0</ele><time>2026-03-29T18:45:55.578Z</time></trkpt><trkpt lat="38.404795" lon="15.910715"><ele>37.5</ele><time>2026-03-29T18:45:56.578Z</time></trkpt><trkpt lat="38.405155" lon="15.9110283"><ele>40.0</ele><time>2026-03-29T18:45:57.578Z</time></trkpt><trkpt lat="38.4055133" lon="15.9113417"><ele>40.0</ele><time>2026-03-29T18:45:58.578Z</time></trkpt><trkpt lat="38.4058767" lon="15.9116517"><ele>40.0</ele><time>2026-03-29T18:45:59.578Z</time></trkpt><trkpt lat="38.4062367" lon="15.911965"><ele>43.0</ele><time>2026-03-29T18:46:00.578Z</time></trkpt><trkpt lat="38.4065967" lon="15.912295"><ele>46.0</ele><time>2026-03-29T18:46:01.578Z</time></trkpt><trkpt lat="38.4069467" lon="15.912635"><ele>49.5</ele><time>2026-03-29T18:46:02.578Z</time></trkpt><trkpt lat="38.4072917" lon="15.9129833"><ele>53.0</ele><time>2026-03-29T18:46:03.578Z</time></trkpt><trkpt lat="38.40762" lon="15.913345"><ele>56.5</ele><time>2026-03-29T18:46:04.578Z</time></trkpt><trkpt lat="38.40794" lon="15.9137233"><ele>60.0</ele><time>2026-03-29T18:46:05.578Z</time></trkpt><trkpt lat="38.40825" lon="15.91412"><ele>61.0</ele><time>2026-03-29T18:46:06.578Z</time></trkpt><trkpt lat="38.4085583" lon="15.9145233"><ele>62.0</ele><time>2026-03-29T18:46:07.578Z</time></trkpt><trkpt lat="38.4088617" lon="15.91491"><ele>63.5</ele><time>2026-03-29T18:46:08.578Z</time></trkpt><trkpt lat="38.4091367" lon="15.9152733"><ele>65.0</ele><time>2026-03-29T18:46:09.578Z</time></trkpt><trkpt lat="38.40938" lon="15.9156"><ele>65.0</ele><time>2026-03-29T18:46:10.579Z</time></trkpt><trkpt lat="38.4095983" lon="15.9159017"><ele>65.0</ele><time>2026-03-29T18:46:11.578Z</time></trkpt><trkpt lat="38.4097867" lon="15.9161583"><ele>64.0</ele><time>2026-03-29T18:46:12.578Z</time></trkpt><trkpt lat="38.409965" lon="15.9163733"><ele>63.0</ele><time>2026-03-29T18:46:13.578Z</time></trkpt><trkpt lat="38.4101133" lon="15.91657"><ele>63.66666666666667</ele><time>2026-03-29T18:46:14.578Z</time></trkpt><trkpt lat="38.4102483" lon="15.9167467"><ele>64.33333333333334</ele><time>2026-03-29T18:46:15.578Z</time></trkpt><trkpt lat="38.4103617" lon="15.9169033"><ele>65.0</ele><time>2026-03-29T18:46:16.578Z</time></trkpt><trkpt lat="38.4104583" lon="15.917055"><ele>64.5</ele><time>2026-03-29T18:46:17.578Z</time></trkpt><trkpt lat="38.4105317" lon="15.9172083"><ele>64.0</ele><time>2026-03-29T18:46:18.578Z</time></trkpt><trkpt lat="38.41059" lon="15.9173667"><ele>63.5</ele><time>2026-03-29T18:46:19.578Z</time></trkpt><trkpt lat="38.4106367" lon="15.9175233"><ele>63.0</ele><time>2026-03-29T18:46:20.578Z</time></trkpt><trkpt lat="38.4106717" lon="15.9176967"><ele>63.0</ele><time>2026-03-29T18:46:21.578Z</time></trkpt><trkpt lat="38.410685" lon="15.9178583"><ele>63.0</ele><time>2026-03-29T18:46:22.578Z</time></trkpt><trkpt lat="38.41067" lon="15.9180183"><ele>63.0</ele><time>2026-03-29T18:46:23.579Z</time></trkpt><trkpt lat="38.4106283" lon="15.9181717"><ele>63.0</ele><time>2026-03-29T18:46:24.578Z</time></trkpt><trkpt lat="38.4105733" lon="15.9183067"><ele>63.4</ele><time>2026-03-29T18:46:25.578Z</time></trkpt><trkpt lat="38.4105067" lon="15.9184167"><ele>63.8</ele><time>2026-03-29T18:46:26.578Z</time></trkpt><trkpt lat="38.4104233" lon="15.9185267"><ele>64.2</ele><time>2026-03-29T18:46:27.578Z</time></trkpt><trkpt lat="38.4103367" lon="15.9186117"><ele>64.6</ele><time>2026-03-29T18:46:28.578Z</time></trkpt><trkpt lat="38.4102433" lon="15.9186783"><ele>65.0</ele><time>2026-03-29T18:46:29.578Z</time></trkpt><trkpt lat="38.4101417" lon="15.918735"><ele>65.25</ele><time>2026-03-29T18:46:30.578Z</time></trkpt><trkpt lat="38.4100383" lon="15.91876"><ele>65.5</ele><time>2026-03-29T18:46:31.578Z</time></trkpt><trkpt lat="38.4099283" lon="15.91878"><ele>65.75</ele><time>2026-03-29T18:46:32.578Z</time></trkpt><trkpt lat="38.4098117" lon="15.9187783"><ele>66.0</ele><time>2026-03-29T18:46:33.578Z</time></trkpt><trkpt lat="38.4096967" lon="15.9187517"><ele>66.0</ele><time>2026-03-29T18:46:34.578Z</time></trkpt><trkpt lat="38.40959" lon="15.9186967"><ele>66.0</ele><time>2026-03-29T18:46:35.578Z</time></trkpt><trkpt lat="38.4094883" lon="15.918635"><ele>66.0</ele><time>2026-03-29T18:46:36.579Z</time></trkpt><trkpt lat="38.4093917" lon="15.9185583"><ele>66.0</ele><time>2026-03-29T18:46:37.578Z</time></trkpt><trkpt lat="38.4093083" lon="15.9184817"><ele>66.0</ele><time>2026-03-29T18:46:38.578Z</time></trkpt><trkpt lat="38.4092333" lon="15.9183983"><ele>66.0</ele><time>2026-03-29T18:46:39.578Z</time></trkpt><trkpt lat="38.4091717" lon="15.9183167"><ele>66.0</ele><time>2026-03-29T18:46:40.578Z</time></trkpt><trkpt lat="38.4091167" lon="15.9182283"><ele>66.0</ele><time>2026-03-29T18:46:41.578Z</time></trkpt><trkpt lat="38.4090633" lon="15.9181533"><ele>66.0</ele><time>2026-03-29T18:46:42.578Z</time></trkpt><trkpt lat="38.40901" lon="15.9180817"><ele>66.0</ele><time>2026-03-29T18:46:43.578Z</time></trkpt><trkpt lat="38.4089533" lon="15.91802"><ele>66.0</ele><time>2026-03-29T18:46:44.578Z</time></trkpt><trkpt lat="38.4088967" lon="15.917945"><ele>66.0</ele><time>2026-03-29T18:46:45.578Z</time></trkpt><trkpt lat="38.4088467" lon="15.9178667"><ele>66.0</ele><time>2026-03-29T18:46:46.578Z</time></trkpt><trkpt lat="38.4088" lon="15.9177783"><ele>66.0</ele><time>2026-03-29T18:46:47.578Z</time></trkpt><trkpt lat="38.40878" lon="15.9176983"><ele>66.0</ele><time>2026-03-29T18:46:48.578Z</time></trkpt><trkpt lat="38.4087683" lon="15.9176067"><ele>66.0</ele><time>2026-03-29T18:46:49.578Z</time></trkpt><trkpt lat="38.408755" lon="15.9175"><ele>66.0</ele><time>2026-03-29T18:46:50.578Z</time></trkpt><trkpt lat="38.408755" lon="15.9173867"><ele>66.0</ele><time>2026-03-29T18:46:51.578Z</time></trkpt><trkpt lat="38.4087517" lon="15.917275"><ele>66.0</ele><time>2026-03-29T18:46:52.578Z</time></trkpt><trkpt lat="38.4087567" lon="15.9171617"><ele>66.0</ele><time>2026-03-29T18:46:53.578Z</time></trkpt><trkpt lat="38.4087833" lon="15.9170483"><ele>66.0</ele><time>2026-03-29T18:46:54.578Z</time></trkpt><trkpt lat="38.4088283" lon="15.9169467"><ele>66.0</ele><time>2026-03-29T18:46:55.578Z</time></trkpt><trkpt lat="38.4088817" lon="15.9168583"><ele>66.0</ele><time>2026-03-29T18:46:56.578Z</time></trkpt><trkpt lat="38.408945" lon="15.9167783"><ele>65.83333333333333</ele><time>2026-03-29T18:46:57.578Z</time></trkpt><trkpt lat="38.4090083" lon="15.916715"><ele>65.66666666666667</ele><time>2026-03-29T18:46:58.578Z</time></trkpt><trkpt lat="38.4090817" lon="15.9166417"><ele>65.5</ele><time>2026-03-29T18:46:59.578Z</time></trkpt><trkpt lat="38.4091517" lon="15.9165633"><ele>65.33333333333334</ele><time>2026-03-29T18:47:00.578Z</time></trkpt><trkpt lat="38.4092183" lon="15.916485"><ele>65.16666666666667</ele><time>2026-03-29T18:47:01.578Z</time></trkpt><trkpt lat="38.409285" lon="15.91641"><ele>65.0</ele><time>2026-03-29T18:47:02.578Z</time></trkpt><trkpt lat="38.4093533" lon="15.916335"><ele>65.0</ele><time>2026-03-29T18:47:03.578Z</time></trkpt><trkpt lat="38.4094233" lon="15.9162633"><ele>65.0</ele><time>2026-03-29T18:47:04.578Z</time></trkpt><trkpt lat="38.4094967" lon="15.9161817"><ele>65.0</ele><time>2026-03-29T18:47:05.578Z</time></trkpt><trkpt lat="38.40957" lon="15.916095"><ele>65.0</ele><time>2026-03-29T18:47:06.578Z</time></trkpt><trkpt lat="38.4096383" lon="15.9160067"><ele>65.0</ele><time>2026-03-29T18:47:07.578Z</time></trkpt><trkpt lat="38.4097167" lon="15.9159233"><ele>64.6</ele><time>2026-03-29T18:47:08.578Z</time></trkpt><trkpt lat="38.4098017" lon="15.9158283"><ele>64.2</ele><time>2026-03-29T18:47:09.578Z</time></trkpt><trkpt lat="38.4098833" lon="15.91574"><ele>63.8</ele><time>2026-03-29T18:47:10.578Z</time></trkpt><trkpt lat="38.4099633" lon="15.9156517"><ele>63.4</ele><time>2026-03-29T18:47:11.578Z</time></trkpt><trkpt lat="38.4100467" lon="15.91556"><ele>63.0</ele><time>2026-03-29T18:47:12.578Z</time></trkpt><trkpt lat="38.4101333" lon="15.9154583"><ele>63.0</ele><time>2026-03-29T18:47:13.578Z</time></trkpt><trkpt lat="38.4102167" lon="15.91536"><ele>63.0</ele><time>2026-03-29T18:47:14.578Z</time></trkpt><trkpt lat="38.4103067" lon="15.91527"><ele>63.0</ele><time>2026-03-29T18:47:15.578Z</time></trkpt><trkpt lat="38.4104033" lon="15.9151717"><ele>63.0</ele><time>2026-03-29T18:47:16.578Z</time></trkpt><trkpt lat="38.4104967" lon="15.9150717"><ele>62.5</ele><time>2026-03-29T18:47:17.578Z</time></trkpt><trkpt lat="38.410585" lon="15.91496"><ele>62.0</ele><time>2026-03-29T18:47:18.578Z</time></trkpt><trkpt lat="38.41068" lon="15.91485"><ele>61.5</ele><time>2026-03-29T18:47:19.578Z</time></trkpt><trkpt lat="38.4107933" lon="15.914745"><ele>61.0</ele><time>2026-03-29T18:47:20.578Z</time></trkpt><trkpt lat="38.410905" lon="15.9146417"><ele>61.0</ele><time>2026-03-29T18:47:21.578Z</time></trkpt><trkpt lat="38.4110067" lon="15.9145283"><ele>61.0</ele><time>2026-03-29T18:47:22.578Z</time></trkpt><trkpt lat="38.4111117" lon="15.914415"><ele>61.0</ele><time>2026-03-29T18:47:23.578Z</time></trkpt><trkpt lat="38.411215" lon="15.9142917"><ele>61.0</ele><time>2026-03-29T18:47:24.578Z</time></trkpt><trkpt lat="38.4113283" lon="15.914175"><ele>60.75</ele><time>2026-03-29T18:47:25.578Z</time></trkpt><trkpt lat="38.4114367" lon="15.91405"><ele>60.5</ele><time>2026-03-29T18:47:26.579Z</time></trkpt><trkpt lat="38.4115433" lon="15.9139233"><ele>60.25</ele><time>2026-03-29T18:47:27.578Z</time></trkpt><trkpt lat="38.4116483" lon="15.9138067"><ele>60.0</ele><time>2026-03-29T18:47:28.578Z</time></trkpt><trkpt lat="38.411755" lon="15.91369"><ele>60.0</ele><time>2026-03-29T18:47:29.578Z</time></trkpt><trkpt lat="38.4118583" lon="15.91356"><ele>60.0</ele><time>2026-03-29T18:47:30.578Z</time></trkpt><trkpt lat="38.41196" lon="15.913425"><ele>60.0</ele><time>2026-03-29T18:47:31.579Z</time></trkpt><trkpt lat="38.4120533" lon="15.9132867"><ele>60.0</ele><time>2026-03-29T18:47:32.578Z</time></trkpt><trkpt lat="38.4121567" lon="15.9131533"><ele>61.75</ele><time>2026-03-29T18:47:33.578Z</time></trkpt><trkpt lat="38.4122517" lon="15.9130167"><ele>63.5</ele><time>2026-03-29T18:47:34.578Z</time></trkpt><trkpt lat="38.4123433" lon="15.912895"><ele>65.25</ele><time>2026-03-29T18:47:35.578Z</time></trkpt><trkpt lat="38.4124167" lon="15.912775"><ele>67.0</ele><time>2026-03-29T18:47:36.578Z</time></trkpt><trkpt lat="38.412475" lon="15.9126733"><ele>67.0</ele><time>2026-03-29T18:47:37.578Z</time></trkpt><trkpt lat="38.41252" lon="15.9125867"><ele>67.0</ele><time>2026-03-29T18:47:38.578Z</time></trkpt><trkpt lat="38.4125467" lon="15.9125117"><ele>67.0</ele><time>2026-03-29T18:47:39.578Z</time></trkpt><trkpt lat="38.412605" lon="15.9124217"><ele>67.0</ele><time>2026-03-29T18:47:41.578Z</time></trkpt><trkpt lat="38.4126417" lon="15.9123467"><ele>67.0</ele><time>2026-03-29T18:47:44.578Z</time></trkpt><trkpt lat="38.412595" lon="15.912245"><ele>67.0</ele><time>2026-03-29T18:47:47.578Z</time></trkpt><trkpt lat="38.41256" lon="15.9121517"><ele>66.33333333333333</ele><time>2026-03-29T18:47:49.578Z</time></trkpt><trkpt lat="38.4125583" lon="15.9120667"><ele>65.66666666666666</ele><time>2026-03-29T18:47:55.578Z</time></trkpt><trkpt lat="38.4126133" lon="15.9119683"><ele>65.0</ele><time>2026-03-29T18:57:41.579Z</time></trkpt><trkpt lat="38.4126233" lon="15.912075"><ele>64.33333333333333</ele><time>2026-03-29T19:00:49.579Z</time></trkpt><trkpt lat="38.4125867" lon="15.91217"><ele>63.666666666666664</ele><time>2026-03-29T19:00:51.579Z</time></trkpt><trkpt lat="38.4125833" lon="15.912255"><ele>63.0</ele><time>2026-03-29T19:00:53.579Z</time></trkpt><trkpt lat="38.4125867" lon="15.9123617"><ele>63.0</ele><time>2026-03-29T19:00:56.579Z</time></trkpt><trkpt lat="38.4125567" lon="15.9124333"><ele>63.0</ele><time>2026-03-29T19:00:59.579Z</time></trkpt><trkpt lat="38.412515" lon="15.9124967"><ele>63.0</ele><time>2026-03-29T19:01:01.579Z</time></trkpt><trkpt lat="38.4124483" lon="15.9126017"><ele>63.0</ele><time>2026-03-29T19:01:03.579Z</time></trkpt><trkpt lat="38.4123933" lon="15.91269"><ele>63.0</ele><time>2026-03-29T19:01:04.579Z</time></trkpt><trkpt lat="38.412325" lon="15.9127917"><ele>63.0</ele><time>2026-03-29T19:01:05.579Z</time></trkpt><trkpt lat="38.4122617" lon="15.91289"><ele>62.75</ele><time>2026-03-29T19:01:06.579Z</time></trkpt><trkpt lat="38.4122017" lon="15.912995"><ele>62.5</ele><time>2026-03-29T19:01:07.579Z</time></trkpt><trkpt lat="38.41213" lon="15.9131067"><ele>62.25</ele><time>2026-03-29T19:01:08.579Z</time></trkpt><trkpt lat="38.4120617" lon="15.913235"><ele>62.0</ele><time>2026-03-29T19:01:09.579Z</time></trkpt><trkpt lat="38.4119833" lon="15.9133583"><ele>61.5</ele><time>2026-03-29T19:01:10.579Z</time></trkpt><trkpt lat="38.4118967" lon="15.9134817"><ele>61.0</ele><time>2026-03-29T19:01:11.579Z</time></trkpt><trkpt lat="38.4117867" lon="15.913605"><ele>60.5</ele><time>2026-03-29T19:01:12.579Z</time></trkpt><trkpt lat="38.4116733" lon="15.9137367"><ele>60.0</ele><time>2026-03-29T19:01:13.579Z</time></trkpt><trkpt lat="38.4115433" lon="15.91387"><ele>60.0</ele><time>2026-03-29T19:01:14.579Z</time></trkpt><trkpt lat="38.4114183" lon="15.9139983"><ele>60.0</ele><time>2026-03-29T19:01:15.579Z</time></trkpt><trkpt lat="38.4112933" lon="15.9141317"><ele>60.0</ele><time>2026-03-29T19:01:16.579Z</time></trkpt><trkpt lat="38.4111817" lon="15.914255"><ele>60.25</ele><time>2026-03-29T19:01:17.579Z</time></trkpt><trkpt lat="38.4110733" lon="15.9143683"><ele>60.5</ele><time>2026-03-29T19:01:18.579Z</time></trkpt><trkpt lat="38.4109667" lon="15.9144783"><ele>60.75</ele><time>2026-03-29T19:01:19.579Z</time></trkpt><trkpt lat="38.41086" lon="15.9145833"><ele>61.0</ele><time>2026-03-29T19:01:20.579Z</time></trkpt><trkpt lat="38.4107533" lon="15.9146883"><ele>61.0</ele><time>2026-03-29T19:01:21.579Z</time></trkpt><trkpt lat="38.41065" lon="15.9147817"><ele>61.0</ele><time>2026-03-29T19:01:22.579Z</time></trkpt><trkpt lat="38.4105483" lon="15.91487"><ele>61.0</ele><time>2026-03-29T19:01:23.579Z</time></trkpt><trkpt lat="38.4104583" lon="15.9149533"><ele>61.0</ele><time>2026-03-29T19:01:24.579Z</time></trkpt><trkpt lat="38.4103717" lon="15.9150383"><ele>61.5</ele><time>2026-03-29T19:01:25.579Z</time></trkpt><trkpt lat="38.4102817" lon="15.9151267"><ele>62.0</ele><time>2026-03-29T19:01:26.579Z</time></trkpt><trkpt lat="38.410185" lon="15.9152233"><ele>62.5</ele><time>2026-03-29T19:01:27.579Z</time></trkpt><trkpt lat="38.4100917" lon="15.9153117"><ele>63.0</ele><time>2026-03-29T19:01:28.579Z</time></trkpt><trkpt lat="38.4099967" lon="15.9154133"><ele>63.0</ele><time>2026-03-29T19:01:29.579Z</time></trkpt><trkpt lat="38.40991" lon="15.9155117"><ele>63.0</ele><time>2026-03-29T19:01:30.579Z</time></trkpt><trkpt lat="38.4098117" lon="15.9156117"><ele>63.0</ele><time>2026-03-29T19:01:31.579Z</time></trkpt><trkpt lat="38.4097117" lon="15.915715"><ele>63.0</ele><time>2026-03-29T19:01:32.579Z</time></trkpt><trkpt lat="38.4096167" lon="15.9158167"><ele>63.5</ele><time>2026-03-29T19:01:33.579Z</time></trkpt><trkpt lat="38.409525" lon="15.9159167"><ele>64.0</ele><time>2026-03-29T19:01:34.579Z</time></trkpt><trkpt lat="38.40944" lon="15.9160117"><ele>64.5</ele><time>2026-03-29T19:01:35.579Z</time></trkpt><trkpt lat="38.409345" lon="15.9161117"><ele>65.0</ele><time>2026-03-29T19:01:36.579Z</time></trkpt><trkpt lat="38.4092583" lon="15.9162017"><ele>65.0</ele><time>2026-03-29T19:01:37.579Z</time></trkpt><trkpt lat="38.40918" lon="15.9162883"><ele>65.0</ele><time>2026-03-29T19:01:38.579Z</time></trkpt><trkpt lat="38.4091133" lon="15.9163633"><ele>65.0</ele><time>2026-03-29T19:01:39.579Z</time></trkpt><trkpt lat="38.4090517" lon="15.9164367"><ele>65.0</ele><time>2026-03-29T19:01:40.579Z</time></trkpt><trkpt lat="38.4089883" lon="15.9165083"><ele>65.0</ele><time>2026-03-29T19:01:41.579Z</time></trkpt><trkpt lat="38.4089283" lon="15.9165767"><ele>65.0</ele><time>2026-03-29T19:01:42.579Z</time></trkpt><trkpt lat="38.4088783" lon="15.9166283"><ele>65.0</ele><time>2026-03-29T19:01:43.579Z</time></trkpt><trkpt lat="38.4088283" lon="15.9166817"><ele>65.0</ele><time>2026-03-29T19:01:44.58Z</time></trkpt><trkpt lat="38.4087417" lon="15.9167783"><ele>65.0</ele><time>2026-03-29T19:01:46.58Z</time></trkpt><trkpt lat="38.4086467" lon="15.91687"><ele>65.0</ele><time>2026-03-29T19:01:48.58Z</time></trkpt><trkpt lat="38.4085917" lon="15.91691"><ele>65.0</ele><time>2026-03-29T19:01:49.58Z</time></trkpt><trkpt lat="38.408495" lon="15.916955"><ele>65.2</ele><time>2026-03-29T19:01:51.58Z</time></trkpt><trkpt lat="38.408415" lon="15.9169767"><ele>65.4</ele><time>2026-03-29T19:01:53.58Z</time></trkpt><trkpt lat="38.4083283" lon="15.9169883"><ele>65.6</ele><time>2026-03-29T19:01:55.581Z</time></trkpt><trkpt lat="38.4082383" lon="15.91703"><ele>65.8</ele><time>2026-03-29T19:01:57.581Z</time></trkpt><trkpt lat="38.40816" lon="15.9171133"><ele>66.0</ele><time>2026-03-29T19:01:59.58Z</time></trkpt><trkpt lat="38.40812" lon="15.91724"><ele>66.0</ele><time>2026-03-29T19:02:01.58Z</time></trkpt><trkpt lat="38.4081417" lon="15.9173917"><ele>66.0</ele><time>2026-03-29T19:02:03.58Z</time></trkpt><trkpt lat="38.408195" lon="15.917535"><ele>66.0</ele><time>2026-03-29T19:02:05.58Z</time></trkpt><trkpt lat="38.4082367" lon="15.9176017"><ele>66.0</ele><time>2026-03-29T19:02:06.58Z</time></trkpt><trkpt lat="38.4082967" lon="15.9176717"><ele>66.0</ele><time>2026-03-29T19:02:07.58Z</time></trkpt><trkpt lat="38.4083717" lon="15.9177317"><ele>66.0</ele><time>2026-03-29T19:02:08.58Z</time></trkpt><trkpt lat="38.4084733" lon="15.917775"><ele>66.0</ele><time>2026-03-29T19:02:09.58Z</time></trkpt><trkpt lat="38.4085867" lon="15.9178183"><ele>66.0</ele><time>2026-03-29T19:02:10.58Z</time></trkpt><trkpt lat="38.408705" lon="15.91787"><ele>66.0</ele><time>2026-03-29T19:02:11.58Z</time></trkpt><trkpt lat="38.4088183" lon="15.9179483"><ele>66.0</ele><time>2026-03-29T19:02:12.58Z</time></trkpt><trkpt lat="38.4089267" lon="15.9180617"><ele>66.0</ele><time>2026-03-29T19:02:13.581Z</time></trkpt><trkpt lat="38.4090367" lon="15.9181933"><ele>66.0</ele><time>2026-03-29T19:02:14.58Z</time></trkpt><trkpt lat="38.4091433" lon="15.9183317"><ele>66.0</ele><time>2026-03-29T19:02:15.58Z</time></trkpt><trkpt lat="38.4092533" lon="15.91847"><ele>66.0</ele><time>2026-03-29T19:02:16.581Z</time></trkpt><trkpt lat="38.40937" lon="15.9185883"><ele>66.0</ele><time>2026-03-29T19:02:17.58Z</time></trkpt><trkpt lat="38.4094983" lon="15.9186867"><ele>66.0</ele><time>2026-03-29T19:02:18.58Z</time></trkpt><trkpt lat="38.4096267" lon="15.9187617"><ele>66.0</ele><time>2026-03-29T19:02:19.58Z</time></trkpt><trkpt lat="38.4097583" lon="15.9188183"><ele>66.0</ele><time>2026-03-29T19:02:20.58Z</time></trkpt><trkpt lat="38.4098933" lon="15.9188383"><ele>66.0</ele><time>2026-03-29T19:02:21.58Z</time></trkpt><trkpt lat="38.4100283" lon="15.9188383"><ele>66.0</ele><time>2026-03-29T19:02:22.58Z</time></trkpt><trkpt lat="38.4101517" lon="15.9188217"><ele>66.0</ele><time>2026-03-29T19:02:23.58Z</time></trkpt><trkpt lat="38.41028" lon="15.9187817"><ele>66.0</ele><time>2026-03-29T19:02:24.58Z</time></trkpt><trkpt lat="38.41042" lon="15.9187183"><ele>66.0</ele><time>2026-03-29T19:02:25.58Z</time></trkpt><trkpt lat="38.4105533" lon="15.9186383"><ele>66.0</ele><time>2026-03-29T19:02:26.58Z</time></trkpt><trkpt lat="38.41068" lon="15.9185333"><ele>66.0</ele><time>2026-03-29T19:02:27.581Z</time></trkpt><trkpt lat="38.4107967" lon="15.918405"><ele>65.0</ele><time>2026-03-29T19:02:28.58Z</time></trkpt><trkpt lat="38.4109" lon="15.9182617"><ele>64.0</ele><time>2026-03-29T19:02:29.58Z</time></trkpt><trkpt lat="38.4110017" lon="15.91811"><ele>63.0</ele><time>2026-03-29T19:02:30.58Z</time></trkpt><trkpt lat="38.41111" lon="15.9179417"><ele>63.0</ele><time>2026-03-29T19:02:31.58Z</time></trkpt><trkpt lat="38.4112183" lon="15.91777"><ele>63.0</ele><time>2026-03-29T19:02:32.58Z</time></trkpt><trkpt lat="38.4113183" lon="15.9176033"><ele>63.0</ele><time>2026-03-29T19:02:33.58Z</time></trkpt><trkpt lat="38.4114183" lon="15.917455"><ele>62.0</ele><time>2026-03-29T19:02:34.581Z</time></trkpt><trkpt lat="38.4115217" lon="15.9173183"><ele>61.0</ele><time>2026-03-29T19:02:35.58Z</time></trkpt><trkpt lat="38.411625" lon="15.9171933"><ele>60.0</ele><time>2026-03-29T19:02:36.58Z</time></trkpt><trkpt lat="38.4117317" lon="15.9170717"><ele>59.0</ele><time>2026-03-29T19:02:37.58Z</time></trkpt><trkpt lat="38.4118533" lon="15.916955"><ele>59.0</ele><time>2026-03-29T19:02:38.58Z</time></trkpt><trkpt lat="38.4119867" lon="15.9168517"><ele>59.0</ele><time>2026-03-29T19:02:39.58Z</time></trkpt><trkpt lat="38.4121283" lon="15.9167683"><ele>59.0</ele><time>2026-03-29T19:02:40.58Z</time></trkpt><trkpt lat="38.4122817" lon="15.9166933"><ele>59.0</ele><time>2026-03-29T19:02:41.58Z</time></trkpt><trkpt lat="38.41243" lon="15.916655"><ele>59.0</ele><time>2026-03-29T19:02:42.58Z</time></trkpt><trkpt lat="38.4126" lon="15.91664"><ele>59.0</ele><time>2026-03-29T19:02:43.58Z</time></trkpt><trkpt lat="38.412755" lon="15.9166433"><ele>59.0</ele><time>2026-03-29T19:02:44.58Z</time></trkpt><trkpt lat="38.4129033" lon="15.91668"><ele>59.0</ele><time>2026-03-29T19:02:45.58Z</time></trkpt><trkpt lat="38.4130433" lon="15.9167333"><ele>59.0</ele><time>2026-03-29T19:02:46.58Z</time></trkpt><trkpt lat="38.41318" lon="15.9168017"><ele>59.0</ele><time>2026-03-29T19:02:47.58Z</time></trkpt><trkpt lat="38.4132883" lon="15.9168917"><ele>58.75</ele><time>2026-03-29T19:02:48.58Z</time></trkpt><trkpt lat="38.4133867" lon="15.917"><ele>58.5</ele><time>2026-03-29T19:02:49.58Z</time></trkpt><trkpt lat="38.4134617" lon="15.91713"><ele>58.25</ele><time>2026-03-29T19:02:50.58Z</time></trkpt><trkpt lat="38.4135117" lon="15.9172683"><ele>58.0</ele><time>2026-03-29T19:02:51.581Z</time></trkpt><trkpt lat="38.413535" lon="15.9174167"><ele>58.5</ele><time>2026-03-29T19:02:52.58Z</time></trkpt><trkpt lat="38.4135467" lon="15.9175733"><ele>59.0</ele><time>2026-03-29T19:02:53.58Z</time></trkpt><trkpt lat="38.41354" lon="15.9177267"><ele>59.5</ele><time>2026-03-29T19:02:54.58Z</time></trkpt><trkpt lat="38.4135083" lon="15.91788"><ele>60.0</ele><time>2026-03-29T19:02:55.58Z</time></trkpt><trkpt lat="38.41345" lon="15.9180233"><ele>60.0</ele><time>2026-03-29T19:02:56.58Z</time></trkpt><trkpt lat="38.4133733" lon="15.9181467"><ele>60.0</ele><time>2026-03-29T19:02:57.58Z</time></trkpt><trkpt lat="38.4132717" lon="15.9182667"><ele>60.0</ele><time>2026-03-29T19:02:58.58Z</time></trkpt><trkpt lat="38.413155" lon="15.918365"><ele>60.0</ele><time>2026-03-29T19:02:59.58Z</time></trkpt><trkpt lat="38.41303" lon="15.9184283"><ele>60.5</ele><time>2026-03-29T19:03:00.58Z</time></trkpt><trkpt lat="38.4128867" lon="15.9184683"><ele>61.0</ele><time>2026-03-29T19:03:01.58Z</time></trkpt><trkpt lat="38.4127417" lon="15.9184783"><ele>61.5</ele><time>2026-03-29T19:03:02.58Z</time></trkpt><trkpt lat="38.41259" lon="15.91846"><ele>62.0</ele><time>2026-03-29T19:03:03.58Z</time></trkpt><trkpt lat="38.4124383" lon="15.9184133"><ele>61.66666666666667</ele><time>2026-03-29T19:03:04.58Z</time></trkpt><trkpt lat="38.4122817" lon="15.9183367"><ele>61.33333333333333</ele><time>2026-03-29T19:03:05.58Z</time></trkpt><trkpt lat="38.4121267" lon="15.9182367"><ele>61.0</ele><time>2026-03-29T19:03:06.58Z</time></trkpt><trkpt lat="38.411955" lon="15.9181317"><ele>61.0</ele><time>2026-03-29T19:03:07.58Z</time></trkpt><trkpt lat="38.4118" lon="15.9180033"><ele>61.0</ele><time>2026-03-29T19:03:08.58Z</time></trkpt><trkpt lat="38.4116267" lon="15.9178567"><ele>61.0</ele><time>2026-03-29T19:03:09.58Z</time></trkpt><trkpt lat="38.411455" lon="15.9176983"><ele>61.5</ele><time>2026-03-29T19:03:10.58Z</time></trkpt><trkpt lat="38.4112767" lon="15.9175017"><ele>62.0</ele><time>2026-03-29T19:03:11.58Z</time></trkpt><trkpt lat="38.411075" lon="15.9173183"><ele>62.0</ele><time>2026-03-29T19:03:12.58Z</time></trkpt><trkpt lat="38.410885" lon="15.9171117"><ele>62.0</ele><time>2026-03-29T19:03:13.58Z</time></trkpt><trkpt lat="38.4106917" lon="15.9168833"><ele>62.0</ele><time>2026-03-29T19:03:14.58Z</time></trkpt><trkpt lat="38.4104933" lon="15.9166433"><ele>62.0</ele><time>2026-03-29T19:03:15.58Z</time></trkpt><trkpt lat="38.4103" lon="15.9164067"><ele>62.5</ele><time>2026-03-29T19:03:16.58Z</time></trkpt><trkpt lat="38.41009" lon="15.9161733"><ele>63.0</ele><time>2026-03-29T19:03:17.58Z</time></trkpt><trkpt lat="38.40988" lon="15.9159367"><ele>63.0</ele><time>2026-03-29T19:03:18.58Z</time></trkpt><trkpt lat="38.4096667" lon="15.91566"><ele>63.0</ele><time>2026-03-29T19:03:19.58Z</time></trkpt><trkpt lat="38.4094383" lon="15.9153967"><ele>62.5</ele><time>2026-03-29T19:03:20.58Z</time></trkpt><trkpt lat="38.4092083" lon="15.9151117"><ele>62.0</ele><time>2026-03-29T19:03:21.58Z</time></trkpt><trkpt lat="38.408965" lon="15.9148167"><ele>63.0</ele><time>2026-03-29T19:03:22.58Z</time></trkpt><trkpt lat="38.40872" lon="15.9144983"><ele>64.0</ele><time>2026-03-29T19:03:23.58Z</time></trkpt><trkpt lat="38.4084667" lon="15.91417"><ele>62.5</ele><time>2026-03-29T19:03:24.58Z</time></trkpt><trkpt lat="38.4082133" lon="15.9138417"><ele>61.0</ele><time>2026-03-29T19:03:25.58Z</time></trkpt><trkpt lat="38.4079483" lon="15.913525"><ele>57.0</ele><time>2026-03-29T19:03:26.58Z</time></trkpt><trkpt lat="38.40768" lon="15.9132283"><ele>53.0</ele><time>2026-03-29T19:03:27.58Z</time></trkpt><trkpt lat="38.4074133" lon="15.9129383"><ele>56.5</ele><time>2026-03-29T19:03:28.58Z</time></trkpt><trkpt lat="38.4071367" lon="15.91265"><ele>60.0</ele><time>2026-03-29T19:03:29.58Z</time></trkpt><trkpt lat="38.4068517" lon="15.9123717"><ele>57.0</ele><time>2026-03-29T19:03:30.58Z</time></trkpt><trkpt lat="38.406555" lon="15.91211"><ele>54.0</ele><time>2026-03-29T19:03:31.58Z</time></trkpt><trkpt lat="38.4062667" lon="15.9118417"><ele>47.0</ele><time>2026-03-29T19:03:32.58Z</time></trkpt><trkpt lat="38.4059767" lon="15.9115833"><ele>40.0</ele><time>2026-03-29T19:03:33.58Z</time></trkpt><trkpt lat="38.405685" lon="15.9113233"><ele>37.5</ele><time>2026-03-29T19:03:34.58Z</time></trkpt><trkpt lat="38.4053983" lon="15.9110633"><ele>35.0</ele><time>2026-03-29T19:03:35.58Z</time></trkpt><trkpt lat="38.4051133" lon="15.9108067"><ele>35.0</ele><time>2026-03-29T19:03:36.58Z</time></trkpt><trkpt lat="38.4048367" lon="15.9105483"><ele>35.0</ele><time>2026-03-29T19:03:37.581Z</time></trkpt><trkpt lat="38.40455" lon="15.9102817"><ele>30.0</ele><time>2026-03-29T19:03:38.58Z</time></trkpt><trkpt lat="38.4042567" lon="15.9100267"><ele>25.0</ele><time>2026-03-29T19:03:39.58Z</time></trkpt><trkpt lat="38.4039583" lon="15.9097733"><ele>24.0</ele><time>2026-03-29T19:03:40.58Z</time></trkpt><trkpt lat="38.4036617" lon="15.9095167"><ele>23.0</ele><time>2026-03-29T19:03:41.58Z</time></trkpt><trkpt lat="38.40337" lon="15.909245"><ele>23.0</ele><time>2026-03-29T19:03:42.58Z</time></trkpt><trkpt lat="38.4030683" lon="15.90898"><ele>23.0</ele><time>2026-03-29T19:03:43.58Z</time></trkpt><trkpt lat="38.4027683" lon="15.9087133"><ele>23.0</ele><time>2026-03-29T19:03:44.58Z</time></trkpt><trkpt lat="38.4024667" lon="15.9084383"><ele>23.0</ele><time>2026-03-29T19:03:45.58Z</time></trkpt><trkpt lat="38.402165" lon="15.908165"><ele>22.5</ele><time>2026-03-29T19:03:46.58Z</time></trkpt><trkpt lat="38.401865" lon="15.9079067"><ele>22.0</ele><time>2026-03-29T19:03:47.58Z</time></trkpt><trkpt lat="38.4015533" lon="15.9076717"><ele>27.0</ele><time>2026-03-29T19:03:48.58Z</time></trkpt><trkpt lat="38.4012433" lon="15.9074583"><ele>32.0</ele><time>2026-03-29T19:03:49.58Z</time></trkpt><trkpt lat="38.40094" lon="15.9072617"><ele>32.0</ele><time>2026-03-29T19:03:50.58Z</time></trkpt><trkpt lat="38.4006383" lon="15.90709"><ele>32.0</ele><time>2026-03-29T19:03:51.58Z</time></trkpt><trkpt lat="38.40033" lon="15.9069467"><ele>31.0</ele><time>2026-03-29T19:03:52.58Z</time></trkpt><trkpt lat="38.4000233" lon="15.9068283"><ele>30.0</ele><time>2026-03-29T19:03:53.58Z</time></trkpt><trkpt lat="38.39971" lon="15.9067333"><ele>38.5</ele><time>2026-03-29T19:03:54.58Z</time></trkpt><trkpt lat="38.3993983" lon="15.9066467"><ele>47.0</ele><time>2026-03-29T19:03:55.58Z</time></trkpt><trkpt lat="38.3990883" lon="15.9065833"><ele>49.0</ele><time>2026-03-29T19:03:56.58Z</time></trkpt><trkpt lat="38.39878" lon="15.9065417"><ele>51.0</ele><time>2026-03-29T19:03:57.58Z</time></trkpt><trkpt lat="38.39847" lon="15.9065133"><ele>51.0</ele><time>2026-03-29T19:03:58.58Z</time></trkpt><trkpt lat="38.398155" lon="15.9064983"><ele>51.0</ele><time>2026-03-29T19:03:59.58Z</time></trkpt><trkpt lat="38.3978483" lon="15.90649"><ele>54.5</ele><time>2026-03-29T19:04:00.58Z</time></trkpt><trkpt lat="38.3975383" lon="15.9064917"><ele>58.0</ele><time>2026-03-29T19:04:01.58Z</time></trkpt><trkpt lat="38.3972367" lon="15.9064833"><ele>54.5</ele><time>2026-03-29T19:04:02.58Z</time></trkpt><trkpt lat="38.3969467" lon="15.90646"><ele>51.0</ele><time>2026-03-29T19:04:03.58Z</time></trkpt><trkpt lat="38.39666" lon="15.90642"><ele>51.0</ele><time>2026-03-29T19:04:04.58Z</time></trkpt><trkpt lat="38.3963833" lon="15.9063667"><ele>51.0</ele><time>2026-03-29T19:04:05.58Z</time></trkpt><trkpt lat="38.3960933" lon="15.906305"><ele>47.0</ele><time>2026-03-29T19:04:06.58Z</time></trkpt><trkpt lat="38.3958067" lon="15.9062267"><ele>43.0</ele><time>2026-03-29T19:04:07.58Z</time></trkpt><trkpt lat="38.3955367" lon="15.9061217"><ele>39.0</ele><time>2026-03-29T19:04:08.58Z</time></trkpt><trkpt lat="38.3952633" lon="15.9060117"><ele>35.0</ele><time>2026-03-29T19:04:09.58Z</time></trkpt><trkpt lat="38.3949883" lon="15.905875"><ele>43.0</ele><time>2026-03-29T19:04:10.58Z</time></trkpt><trkpt lat="38.3946983" lon="15.90573"><ele>51.0</ele><time>2026-03-29T19:04:11.58Z</time></trkpt><trkpt lat="38.3944" lon="15.9055817"><ele>51.0</ele><time>2026-03-29T19:04:12.58Z</time></trkpt><trkpt lat="38.394115" lon="15.9054267"><ele>51.0</ele><time>2026-03-29T19:04:13.58Z</time></trkpt><trkpt lat="38.39382" lon="15.90527"><ele>51.5</ele><time>2026-03-29T19:04:14.58Z</time></trkpt><trkpt lat="38.39353" lon="15.905095"><ele>52.0</ele><time>2026-03-29T19:04:15.58Z</time></trkpt><trkpt lat="38.3932383" lon="15.904915"><ele>54.0</ele><time>2026-03-29T19:04:16.58Z</time></trkpt><trkpt lat="38.3929567" lon="15.9047283"><ele>56.0</ele><time>2026-03-29T19:04:17.58Z</time></trkpt><trkpt lat="38.3926817" lon="15.9045317"><ele>56.0</ele><time>2026-03-29T19:04:18.58Z</time></trkpt><trkpt lat="38.392405" lon="15.9043167"><ele>56.0</ele><time>2026-03-29T19:04:19.58Z</time></trkpt><trkpt lat="38.3921283" lon="15.9040883"><ele>63.5</ele><time>2026-03-29T19:04:20.58Z</time></trkpt><trkpt lat="38.3918583" lon="15.9038533"><ele>71.0</ele><time>2026-03-29T19:04:21.58Z</time></trkpt><trkpt lat="38.3916017" lon="15.9036083"><ele>77.0</ele><time>2026-03-29T19:04:22.58Z</time></trkpt><trkpt lat="38.3913617" lon="15.903345"><ele>83.0</ele><time>2026-03-29T19:04:23.58Z</time></trkpt><trkpt lat="38.3911333" lon="15.90307"><ele>83.0</ele><time>2026-03-29T19:04:24.58Z</time></trkpt><trkpt lat="38.390915" lon="15.9027883"><ele>83.0</ele><time>2026-03-29T19:04:25.58Z</time></trkpt><trkpt lat="38.3906883" lon="15.9025067"><ele>85.5</ele><time>2026-03-29T19:04:26.58Z</time></trkpt><trkpt lat="38.390455" lon="15.9022183"><ele>88.0</ele><time>2026-03-29T19:04:27.58Z</time></trkpt><trkpt lat="38.3902183" lon="15.901925"><ele>92.5</ele><time>2026-03-29T19:04:28.58Z</time></trkpt><trkpt lat="38.3899883" lon="15.9016283"><ele>97.0</ele><time>2026-03-29T19:04:29.58Z</time></trkpt><trkpt lat="38.389755" lon="15.9013367"><ele>91.5</ele><time>2026-03-29T19:04:30.58Z</time></trkpt><trkpt lat="38.3895267" lon="15.9010483"><ele>86.0</ele><time>2026-03-29T19:04:31.581Z</time></trkpt><trkpt lat="38.3893067" lon="15.9007817"><ele>84.0</ele><time>2026-03-29T19:04:32.58Z</time></trkpt><trkpt lat="38.3890883" lon="15.9005117"><ele>82.0</ele><time>2026-03-29T19:04:33.58Z</time></trkpt><trkpt lat="38.3888717" lon="15.900255"><ele>82.0</ele><time>2026-03-29T19:04:34.58Z</time></trkpt><trkpt lat="38.38867" lon="15.8999933"><ele>82.0</ele><time>2026-03-29T19:04:35.58Z</time></trkpt><trkpt lat="38.3884717" lon="15.8997317"><ele>82.0</ele><time>2026-03-29T19:04:36.58Z</time></trkpt><trkpt lat="38.3882633" lon="15.8994733"><ele>82.0</ele><time>2026-03-29T19:04:37.58Z</time></trkpt><trkpt lat="38.3880517" lon="15.8992117"><ele>86.5</ele><time>2026-03-29T19:04:38.58Z</time></trkpt><trkpt lat="38.3878333" lon="15.898945"><ele>91.0</ele><time>2026-03-29T19:04:39.58Z</time></trkpt><trkpt lat="38.387615" lon="15.8986817"><ele>91.0</ele><time>2026-03-29T19:04:40.58Z</time></trkpt><trkpt lat="38.3873933" lon="15.898425"><ele>91.0</ele><time>2026-03-29T19:04:41.58Z</time></trkpt><trkpt lat="38.3871667" lon="15.8981667"><ele>91.0</ele><time>2026-03-29T19:04:42.58Z</time></trkpt><trkpt lat="38.38695" lon="15.8979"><ele>91.0</ele><time>2026-03-29T19:04:43.58Z</time></trkpt><trkpt lat="38.3867267" lon="15.897625"><ele>91.0</ele><time>2026-03-29T19:04:44.58Z</time></trkpt><trkpt lat="38.386505" lon="15.897345"><ele>91.0</ele><time>2026-03-29T19:04:45.58Z</time></trkpt><trkpt lat="38.38629" lon="15.8970567"><ele>91.0</ele><time>2026-03-29T19:04:46.58Z</time></trkpt><trkpt lat="38.386085" lon="15.8967617"><ele>91.0</ele><time>2026-03-29T19:04:47.58Z</time></trkpt><trkpt lat="38.385895" lon="15.896465"><ele>97.5</ele><time>2026-03-29T19:04:48.58Z</time></trkpt><trkpt lat="38.385715" lon="15.8961617"><ele>104.0</ele><time>2026-03-29T19:04:49.58Z</time></trkpt><trkpt lat="38.3855467" lon="15.895855"><ele>107.5</ele><time>2026-03-29T19:04:50.58Z</time></trkpt><trkpt lat="38.3853833" lon="15.8955417"><ele>111.0</ele><time>2026-03-29T19:04:51.58Z</time></trkpt><trkpt lat="38.3852233" lon="15.895225"><ele>114.5</ele><time>2026-03-29T19:04:52.58Z</time></trkpt><trkpt lat="38.38508" lon="15.8949017"><ele>118.0</ele><time>2026-03-29T19:04:53.58Z</time></trkpt><trkpt lat="38.3849467" lon="15.89457"><ele>120.0</ele><time>2026-03-29T19:04:54.58Z</time></trkpt><trkpt lat="38.3848233" lon="15.894245"><ele>122.0</ele><time>2026-03-29T19:04:55.58Z</time></trkpt><trkpt lat="38.3847133" lon="15.8939167"><ele>122.0</ele><time>2026-03-29T19:04:56.58Z</time></trkpt><trkpt lat="38.3846067" lon="15.8935867"><ele>122.0</ele><time>2026-03-29T19:04:57.58Z</time></trkpt><trkpt lat="38.3845083" lon="15.89326"><ele>122.0</ele><time>2026-03-29T19:04:58.58Z</time></trkpt><trkpt lat="38.384405" lon="15.8929233"><ele>122.0</ele><time>2026-03-29T19:04:59.58Z</time></trkpt><trkpt lat="38.3843083" lon="15.892585"><ele>122.5</ele><time>2026-03-29T19:05:00.58Z</time></trkpt><trkpt lat="38.38421" lon="15.8922417"><ele>123.0</ele><time>2026-03-29T19:05:01.58Z</time></trkpt><trkpt lat="38.3841167" lon="15.891895"><ele>130.0</ele><time>2026-03-29T19:05:02.58Z</time></trkpt><trkpt lat="38.3840133" lon="15.8915467"><ele>137.0</ele><time>2026-03-29T19:05:03.58Z</time></trkpt><trkpt lat="38.3839083" lon="15.891195"><ele>133.5</ele><time>2026-03-29T19:05:04.58Z</time></trkpt><trkpt lat="38.3838067" lon="15.8908483"><ele>130.0</ele><time>2026-03-29T19:05:05.58Z</time></trkpt><trkpt lat="38.38371" lon="15.8904967"><ele>130.0</ele><time>2026-03-29T19:05:06.58Z</time></trkpt><trkpt lat="38.3836217" lon="15.890165"><ele>130.0</ele><time>2026-03-29T19:05:07.58Z</time></trkpt><trkpt lat="38.3835383" lon="15.8898267"><ele>132.5</ele><time>2026-03-29T19:05:08.58Z</time></trkpt><trkpt lat="38.383465" lon="15.8894983"><ele>135.0</ele><time>2026-03-29T19:05:09.58Z</time></trkpt><trkpt lat="38.3834" lon="15.889175"><ele>136.5</ele><time>2026-03-29T19:05:10.58Z</time></trkpt><trkpt lat="38.3833417" lon="15.8888583"><ele>138.0</ele><time>2026-03-29T19:05:11.58Z</time></trkpt><trkpt lat="38.3832833" lon="15.88855"><ele>138.5</ele><time>2026-03-29T19:05:12.58Z</time></trkpt><trkpt lat="38.383235" lon="15.8882483"><ele>139.0</ele><time>2026-03-29T19:05:13.58Z</time></trkpt><trkpt lat="38.3831883" lon="15.887935"><ele>139.0</ele><time>2026-03-29T19:05:14.58Z</time></trkpt><trkpt lat="38.3831483" lon="15.8876133"><ele>139.0</ele><time>2026-03-29T19:05:15.58Z</time></trkpt><trkpt lat="38.3831083" lon="15.8872783"><ele>141.0</ele><time>2026-03-29T19:05:16.58Z</time></trkpt><trkpt lat="38.383075" lon="15.88692"><ele>143.0</ele><time>2026-03-29T19:05:17.58Z</time></trkpt><trkpt lat="38.3830417" lon="15.8865467"><ele>142.5</ele><time>2026-03-29T19:05:18.58Z</time></trkpt><trkpt lat="38.3830083" lon="15.8861567"><ele>142.0</ele><time>2026-03-29T19:05:19.58Z</time></trkpt><trkpt lat="38.3829733" lon="15.88575"><ele>143.5</ele><time>2026-03-29T19:05:20.58Z</time></trkpt><trkpt lat="38.3829317" lon="15.8853267"><ele>145.0</ele><time>2026-03-29T19:05:21.58Z</time></trkpt><trkpt lat="38.38289" lon="15.8848933"><ele>147.0</ele><time>2026-03-29T19:05:22.58Z</time></trkpt><trkpt lat="38.38284" lon="15.88445"><ele>149.0</ele><time>2026-03-29T19:05:23.58Z</time></trkpt><trkpt lat="38.382795" lon="15.8840133"><ele>151.0</ele><time>2026-03-29T19:05:24.58Z</time></trkpt><trkpt lat="38.382745" lon="15.883585"><ele>153.0</ele><time>2026-03-29T19:05:25.58Z</time></trkpt><trkpt lat="38.3827" lon="15.8831667"><ele>155.0</ele><time>2026-03-29T19:05:26.58Z</time></trkpt><trkpt lat="38.3826533" lon="15.8827567"><ele>157.0</ele><time>2026-03-29T19:05:27.58Z</time></trkpt><trkpt lat="38.382605" lon="15.882345"><ele>160.0</ele><time>2026-03-29T19:05:28.58Z</time></trkpt><trkpt lat="38.3825483" lon="15.8819417"><ele>163.0</ele><time>2026-03-29T19:05:29.58Z</time></trkpt><trkpt lat="38.3824867" lon="15.8815433"><ele>167.5</ele><time>2026-03-29T19:05:30.58Z</time></trkpt><trkpt lat="38.382425" lon="15.881135"><ele>172.0</ele><time>2026-03-29T19:05:31.58Z</time></trkpt><trkpt lat="38.3823467" lon="15.880715"><ele>179.5</ele><time>2026-03-29T19:05:32.58Z</time></trkpt><trkpt lat="38.3822633" lon="15.8802933"><ele>187.0</ele><time>2026-03-29T19:05:33.58Z</time></trkpt><trkpt lat="38.3821867" lon="15.8798767"><ele>188.5</ele><time>2026-03-29T19:05:34.581Z</time></trkpt><trkpt lat="38.3821067" lon="15.8794533"><ele>190.0</ele><time>2026-03-29T19:05:35.58Z</time></trkpt><trkpt lat="38.3820283" lon="15.8790317"><ele>199.5</ele><time>2026-03-29T19:05:36.58Z</time></trkpt><trkpt lat="38.3819483" lon="15.8786083"><ele>209.0</ele><time>2026-03-29T19:05:37.58Z</time></trkpt><trkpt lat="38.37555" lon="15.870225"><ele>215.5</ele><time>2026-03-29T19:05:57.579Z</time></trkpt><trkpt lat="38.3752783" lon="15.8698983"><ele>222.0</ele><time>2026-03-29T19:05:58.579Z</time></trkpt><trkpt lat="38.37495" lon="15.86954"><ele>222.0</ele><time>2026-03-29T19:05:59.579Z</time></trkpt><trkpt lat="38.3745767" lon="15.86922"><ele>222.0</ele><time>2026-03-29T19:06:00.579Z</time></trkpt><trkpt lat="38.3741617" lon="15.8689283"><ele>229.0</ele><time>2026-03-29T19:06:01.579Z</time></trkpt><trkpt lat="38.373765" lon="15.8686217"><ele>236.0</ele><time>2026-03-29T19:06:02.579Z</time></trkpt><trkpt lat="38.3733783" lon="15.8683183"><ele>232.0</ele><time>2026-03-29T19:06:03.579Z</time></trkpt><trkpt lat="38.3729983" lon="15.8680083"><ele>232.0</ele><time>2026-03-29T19:06:04.579Z</time></trkpt><trkpt lat="38.372635" lon="15.867685"><ele>232.0</ele><time>2026-03-29T19:06:05.579Z</time></trkpt><trkpt lat="38.3722817" lon="15.8673717"><ele>234.0</ele><time>2026-03-29T19:06:06.579Z</time></trkpt><trkpt lat="38.37195" lon="15.8670817"><ele>236.0</ele><time>2026-03-29T19:06:07.579Z</time></trkpt><trkpt lat="38.3716383" lon="15.866815"><ele>241.0</ele><time>2026-03-29T19:06:08.579Z</time></trkpt><trkpt lat="38.371335" lon="15.8665867"><ele>246.0</ele><time>2026-03-29T19:06:09.579Z</time></trkpt><trkpt lat="38.3710483" lon="15.8663817"><ele>246.0</ele><time>2026-03-29T19:06:10.579Z</time></trkpt><trkpt lat="38.3707733" lon="15.8662017"><ele>246.0</ele><time>2026-03-29T19:06:11.579Z</time></trkpt><trkpt lat="38.3705" lon="15.8660483"><ele>244.0</ele><time>2026-03-29T19:06:12.58Z</time></trkpt><trkpt lat="38.3702167" lon="15.8658917"><ele>242.0</ele><time>2026-03-29T19:06:13.579Z</time></trkpt><trkpt lat="38.3699233" lon="15.8657617"><ele>245.0</ele><time>2026-03-29T19:06:14.579Z</time></trkpt><trkpt lat="38.3696283" lon="15.8656617"><ele>248.0</ele><time>2026-03-29T19:06:15.579Z</time></trkpt><trkpt lat="38.3693467" lon="15.86557"><ele>248.0</ele><time>2026-03-29T19:06:16.579Z</time></trkpt><trkpt lat="38.3690533" lon="15.8654917"><ele>248.0</ele><time>2026-03-29T19:06:17.579Z</time></trkpt><trkpt lat="38.36875" lon="15.8654133"><ele>249.0</ele><time>2026-03-29T19:06:18.579Z</time></trkpt><trkpt lat="38.3684517" lon="15.8653633"><ele>250.0</ele><time>2026-03-29T19:06:19.579Z</time></trkpt><trkpt lat="38.3681567" lon="15.8653283"><ele>250.5</ele><time>2026-03-29T19:06:20.579Z</time></trkpt><trkpt lat="38.367865" lon="15.8653083"><ele>251.0</ele><time>2026-03-29T19:06:21.579Z</time></trkpt><trkpt lat="38.3675767" lon="15.8652917"><ele>251.0</ele><time>2026-03-29T19:06:22.579Z</time></trkpt><trkpt lat="38.367305" lon="15.865285"><ele>251.0</ele><time>2026-03-29T19:06:23.579Z</time></trkpt><trkpt lat="38.3670417" lon="15.865275"><ele>252.5</ele><time>2026-03-29T19:06:24.58Z</time></trkpt><trkpt lat="38.3667817" lon="15.8652617"><ele>254.0</ele><time>2026-03-29T19:06:25.58Z</time></trkpt><trkpt lat="38.36651" lon="15.86525"><ele>254.0</ele><time>2026-03-29T19:06:26.579Z</time></trkpt><trkpt lat="38.36623" lon="15.86524"><ele>254.0</ele><time>2026-03-29T19:06:27.579Z</time></trkpt><trkpt lat="38.3659417" lon="15.8652283"><ele>254.0</ele><time>2026-03-29T19:06:28.579Z</time></trkpt><trkpt lat="38.365655" lon="15.8652133"><ele>254.0</ele><time>2026-03-29T19:06:29.579Z</time></trkpt><trkpt lat="38.3653583" lon="15.8651933"><ele>256.5</ele><time>2026-03-29T19:06:30.579Z</time></trkpt><trkpt lat="38.3650533" lon="15.86518"><ele>259.0</ele><time>2026-03-29T19:06:31.579Z</time></trkpt><trkpt lat="38.3647467" lon="15.8651733"><ele>260.5</ele><time>2026-03-29T19:06:32.579Z</time></trkpt><trkpt lat="38.3644433" lon="15.8651617"><ele>262.0</ele><time>2026-03-29T19:06:33.579Z</time></trkpt><trkpt lat="38.364135" lon="15.865145"><ele>264.5</ele><time>2026-03-29T19:06:34.579Z</time></trkpt><trkpt lat="38.363825" lon="15.8651317"><ele>267.0</ele><time>2026-03-29T19:06:35.579Z</time></trkpt><trkpt lat="38.3635017" lon="15.8651133"><ele>269.0</ele><time>2026-03-29T19:06:36.579Z</time></trkpt><trkpt lat="38.3631733" lon="15.8651"><ele>271.0</ele><time>2026-03-29T19:06:37.579Z</time></trkpt><trkpt lat="38.36283" lon="15.8650817"><ele>274.5</ele><time>2026-03-29T19:06:38.58Z</time></trkpt><trkpt lat="38.3624717" lon="15.865065"><ele>278.0</ele><time>2026-03-29T19:06:39.579Z</time></trkpt><trkpt lat="38.362115" lon="15.8650433"><ele>282.5</ele><time>2026-03-29T19:06:40.579Z</time></trkpt><trkpt lat="38.3617533" lon="15.8650267"><ele>287.0</ele><time>2026-03-29T19:06:41.579Z</time></trkpt><trkpt lat="38.361395" lon="15.8650017"><ele>289.0</ele><time>2026-03-29T19:06:42.579Z</time></trkpt><trkpt lat="38.361035" lon="15.8649883"><ele>291.0</ele><time>2026-03-29T19:06:43.579Z</time></trkpt><trkpt lat="38.3606767" lon="15.8649883"><ele>293.5</ele><time>2026-03-29T19:06:44.579Z</time></trkpt><trkpt lat="38.3603133" lon="15.8650083"><ele>296.0</ele><time>2026-03-29T19:06:45.579Z</time></trkpt><trkpt lat="38.359985" lon="15.8650283"><ele>292.5</ele><time>2026-03-29T19:06:46.58Z</time></trkpt><trkpt lat="38.3596517" lon="15.865065"><ele>289.0</ele><time>2026-03-29T19:06:47.579Z</time></trkpt><trkpt lat="38.35931" lon="15.8651183"><ele>289.0</ele><time>2026-03-29T19:06:48.579Z</time></trkpt><trkpt lat="38.3589683" lon="15.8651817"><ele>289.0</ele><time>2026-03-29T19:06:49.579Z</time></trkpt><trkpt lat="38.3586217" lon="15.8652717"><ele>291.0</ele><time>2026-03-29T19:06:50.579Z</time></trkpt><trkpt lat="38.35827" lon="15.8653667"><ele>293.0</ele><time>2026-03-29T19:06:51.579Z</time></trkpt><trkpt lat="38.3579133" lon="15.86548"><ele>295.5</ele><time>2026-03-29T19:06:52.579Z</time></trkpt><trkpt lat="38.3575767" lon="15.865605"><ele>298.0</ele><time>2026-03-29T19:06:53.579Z</time></trkpt><trkpt lat="38.35724" lon="15.86576"><ele>299.0</ele><time>2026-03-29T19:06:54.579Z</time></trkpt><trkpt lat="38.3569067" lon="15.8659383"><ele>300.0</ele><time>2026-03-29T19:06:55.579Z</time></trkpt><trkpt lat="38.3565833" lon="15.8661217"><ele>298.0</ele><time>2026-03-29T19:06:56.579Z</time></trkpt><trkpt lat="38.3562733" lon="15.866325"><ele>296.0</ele><time>2026-03-29T19:06:57.579Z</time></trkpt><trkpt lat="38.355975" lon="15.8665267"><ele>296.0</ele><time>2026-03-29T19:06:58.579Z</time></trkpt><trkpt lat="38.3556983" lon="15.8667217"><ele>296.0</ele><time>2026-03-29T19:06:59.579Z</time></trkpt><trkpt lat="38.3554317" lon="15.8669183"><ele>299.0</ele><time>2026-03-29T19:07:00.579Z</time></trkpt><trkpt lat="38.3551733" lon="15.8671117"><ele>302.0</ele><time>2026-03-29T19:07:01.579Z</time></trkpt><trkpt lat="38.354915" lon="15.8673183"><ele>302.0</ele><time>2026-03-29T19:07:02.579Z</time></trkpt><trkpt lat="38.354655" lon="15.8675233"><ele>302.0</ele><time>2026-03-29T19:07:03.579Z</time></trkpt><trkpt lat="38.3544033" lon="15.86772"><ele>302.0</ele><time>2026-03-29T19:07:04.579Z</time></trkpt><trkpt lat="38.3541483" lon="15.8679117"><ele>302.0</ele><time>2026-03-29T19:07:05.579Z</time></trkpt><trkpt lat="38.353895" lon="15.8681067"><ele>312.0</ele><time>2026-03-29T19:07:06.579Z</time></trkpt><trkpt lat="38.353645" lon="15.8682917"><ele>322.0</ele><time>2026-03-29T19:07:07.579Z</time></trkpt><trkpt lat="38.3534017" lon="15.8684733"><ele>324.5</ele><time>2026-03-29T19:07:08.579Z</time></trkpt><trkpt lat="38.353155" lon="15.868645"><ele>327.0</ele><time>2026-03-29T19:07:09.579Z</time></trkpt><trkpt lat="38.3529117" lon="15.8688083"><ele>347.0</ele><time>2026-03-29T19:07:10.579Z</time></trkpt><trkpt lat="38.3526833" lon="15.86896"><ele>367.0</ele><time>2026-03-29T19:07:11.579Z</time></trkpt><trkpt lat="38.3524483" lon="15.8691133"><ele>367.0</ele><time>2026-03-29T19:07:12.579Z</time></trkpt><trkpt lat="38.3522083" lon="15.8692717"><ele>367.0</ele><time>2026-03-29T19:07:13.579Z</time></trkpt><trkpt lat="38.35197" lon="15.8694417"><ele>378.0</ele><time>2026-03-29T19:07:14.579Z</time></trkpt><trkpt lat="38.35173" lon="15.8696217"><ele>389.0</ele><time>2026-03-29T19:07:15.579Z</time></trkpt><trkpt lat="38.3514883" lon="15.8698117"><ele>390.0</ele><time>2026-03-29T19:07:16.579Z</time></trkpt><trkpt lat="38.35125" lon="15.8699817"><ele>391.0</ele><time>2026-03-29T19:07:17.579Z</time></trkpt><trkpt lat="38.35101" lon="15.87015"><ele>344.0</ele><time>2026-03-29T19:07:18.579Z</time></trkpt><trkpt lat="38.344145" lon="15.86829"><ele>333.0</ele><time>2026-03-29T19:07:37.578Z</time></trkpt><trkpt lat="38.3438117" lon="15.8681417"><ele>322.0</ele><time>2026-03-29T19:07:38.578Z</time></trkpt><trkpt lat="38.3434967" lon="15.86792"><ele>322.0</ele><time>2026-03-29T19:07:39.578Z</time></trkpt><trkpt lat="38.3431633" lon="15.8676433"><ele>322.0</ele><time>2026-03-29T19:07:40.578Z</time></trkpt><trkpt lat="38.342845" lon="15.86737"><ele>322.5</ele><time>2026-03-29T19:07:41.578Z</time></trkpt><trkpt lat="38.3425133" lon="15.8671317"><ele>323.0</ele><time>2026-03-29T19:07:42.578Z</time></trkpt><trkpt lat="38.3421883" lon="15.8668867"><ele>335.5</ele><time>2026-03-29T19:07:43.578Z</time></trkpt><trkpt lat="38.341865" lon="15.86664"><ele>348.0</ele><time>2026-03-29T19:07:44.578Z</time></trkpt><trkpt lat="38.3415533" lon="15.8663767"><ele>354.0</ele><time>2026-03-29T19:07:45.578Z</time></trkpt><trkpt lat="38.3412317" lon="15.86611"><ele>360.0</ele><time>2026-03-29T19:07:46.578Z</time></trkpt><trkpt lat="38.3409133" lon="15.8658367"><ele>360.0</ele><time>2026-03-29T19:07:47.578Z</time></trkpt><trkpt lat="38.3406067" lon="15.8655683"><ele>360.0</ele><time>2026-03-29T19:07:48.578Z</time></trkpt><trkpt lat="38.3402917" lon="15.865305"><ele>360.5</ele><time>2026-03-29T19:07:49.578Z</time></trkpt><trkpt lat="38.3399683" lon="15.8650483"><ele>361.0</ele><time>2026-03-29T19:07:50.578Z</time></trkpt><trkpt lat="38.3396567" lon="15.86479"><ele>355.5</ele><time>2026-03-29T19:07:51.578Z</time></trkpt><trkpt lat="38.3393483" lon="15.8645283"><ele>350.0</ele><time>2026-03-29T19:07:52.578Z</time></trkpt><trkpt lat="38.339035" lon="15.8642733"><ele>342.5</ele><time>2026-03-29T19:07:53.578Z</time></trkpt><trkpt lat="38.3387333" lon="15.8640167"><ele>335.0</ele><time>2026-03-29T19:07:54.578Z</time></trkpt><trkpt lat="38.33842" lon="15.8637633"><ele>335.0</ele><time>2026-03-29T19:07:55.578Z</time></trkpt><trkpt lat="38.3381083" lon="15.8635067"><ele>335.0</ele><time>2026-03-29T19:07:56.578Z</time></trkpt><trkpt lat="38.337795" lon="15.8632483"><ele>339.5</ele><time>2026-03-29T19:07:57.578Z</time></trkpt><trkpt lat="38.3374867" lon="15.8629883"><ele>344.0</ele><time>2026-03-29T19:07:58.578Z</time></trkpt><trkpt lat="38.337175" lon="15.8627367"><ele>352.0</ele><time>2026-03-29T19:07:59.578Z</time></trkpt><trkpt lat="38.33687" lon="15.86248"><ele>360.0</ele><time>2026-03-29T19:08:00.578Z</time></trkpt><trkpt lat="38.3365583" lon="15.8622167"><ele>360.5</ele><time>2026-03-29T19:08:01.578Z</time></trkpt><trkpt lat="38.336245" lon="15.8619467"><ele>361.0</ele><time>2026-03-29T19:08:02.578Z</time></trkpt><trkpt lat="38.3359267" lon="15.8616667"><ele>365.0</ele><time>2026-03-29T19:08:03.578Z</time></trkpt><trkpt lat="38.3356067" lon="15.86139"><ele>369.0</ele><time>2026-03-29T19:08:04.578Z</time></trkpt><trkpt lat="38.3352883" lon="15.8610817"><ele>370.0</ele><time>2026-03-29T19:08:05.578Z</time></trkpt><trkpt lat="38.3349733" lon="15.8607717"><ele>371.0</ele><time>2026-03-29T19:08:06.578Z</time></trkpt><trkpt lat="38.3346633" lon="15.8604483"><ele>371.0</ele><time>2026-03-29T19:08:07.578Z</time></trkpt><trkpt lat="38.3343833" lon="15.86013"><ele>371.0</ele><time>2026-03-29T19:08:08.578Z</time></trkpt><trkpt lat="38.3341233" lon="15.859805"><ele>372.5</ele><time>2026-03-29T19:08:09.578Z</time></trkpt><trkpt lat="38.333885" lon="15.859495"><ele>374.0</ele><time>2026-03-29T19:08:10.578Z</time></trkpt><trkpt lat="38.333655" lon="15.8591683"><ele>379.0</ele><time>2026-03-29T19:08:11.578Z</time></trkpt><trkpt lat="38.333435" lon="15.8588367"><ele>384.0</ele><time>2026-03-29T19:08:12.578Z</time></trkpt><trkpt lat="38.333225" lon="15.8584917"><ele>387.5</ele><time>2026-03-29T19:08:13.578Z</time></trkpt><trkpt lat="38.3330067" lon="15.8581533"><ele>391.0</ele><time>2026-03-29T19:08:14.578Z</time></trkpt><trkpt lat="38.3328017" lon="15.8578033"><ele>399.5</ele><time>2026-03-29T19:08:15.578Z</time></trkpt><trkpt lat="38.3325933" lon="15.8574383"><ele>408.0</ele><time>2026-03-29T19:08:16.578Z</time></trkpt><trkpt lat="38.3323767" lon="15.857065"><ele>412.5</ele><time>2026-03-29T19:08:17.578Z</time></trkpt><trkpt lat="38.3321533" lon="15.85669"><ele>417.0</ele><time>2026-03-29T19:08:18.578Z</time></trkpt><trkpt lat="38.3319317" lon="15.8563167"><ele>417.0</ele><time>2026-03-29T19:08:19.578Z</time></trkpt><trkpt lat="38.3317067" lon="15.8559583"><ele>417.0</ele><time>2026-03-29T19:08:20.578Z</time></trkpt><trkpt lat="38.3314783" lon="15.8555967"><ele>421.0</ele><time>2026-03-29T19:08:21.578Z</time></trkpt><trkpt lat="38.3312583" lon="15.85523"><ele>425.0</ele><time>2026-03-29T19:08:22.578Z</time></trkpt><trkpt lat="38.3144333" lon="15.84249"><ele>453.5</ele><time>2026-03-29T19:09:13.579Z</time></trkpt><trkpt lat="38.314025" lon="15.8425867"><ele>482.0</ele><time>2026-03-29T19:09:14.579Z</time></trkpt><trkpt lat="38.31362" lon="15.8427867"><ele>482.0</ele><time>2026-03-29T19:09:15.579Z</time></trkpt><trkpt lat="38.3132633" lon="15.8429483"><ele>482.0</ele><time>2026-03-29T19:09:16.579Z</time></trkpt><trkpt lat="38.3129217" lon="15.8430817"><ele>480.5</ele><time>2026-03-29T19:09:17.579Z</time></trkpt><trkpt lat="38.3125717" lon="15.8432083"><ele>479.0</ele><time>2026-03-29T19:09:18.579Z</time></trkpt><trkpt lat="38.3122117" lon="15.843335"><ele>477.5</ele><time>2026-03-29T19:09:19.579Z</time></trkpt><trkpt lat="38.3118533" lon="15.8434617"><ele>476.0</ele><time>2026-03-29T19:09:20.579Z</time></trkpt><trkpt lat="38.31148" lon="15.8435783"><ele>477.0</ele><time>2026-03-29T19:09:21.579Z</time></trkpt><trkpt lat="38.3111083" lon="15.84369"><ele>478.0</ele><time>2026-03-29T19:09:22.579Z</time></trkpt><trkpt lat="38.31073" lon="15.84379"><ele>479.0</ele><time>2026-03-29T19:09:23.579Z</time></trkpt><trkpt lat="38.3103683" lon="15.84387"><ele>480.0</ele><time>2026-03-29T19:09:24.579Z</time></trkpt><trkpt lat="38.3099967" lon="15.8439467"><ele>480.5</ele><time>2026-03-29T19:09:25.579Z</time></trkpt><trkpt lat="38.3096233" lon="15.84401"><ele>481.0</ele><time>2026-03-29T19:09:26.579Z</time></trkpt><trkpt lat="38.309255" lon="15.8440633"><ele>481.0</ele><time>2026-03-29T19:09:27.579Z</time></trkpt><trkpt lat="38.3088833" lon="15.8441133"><ele>481.0</ele><time>2026-03-29T19:09:28.579Z</time></trkpt><trkpt lat="38.3085083" lon="15.8441567"><ele>481.0</ele><time>2026-03-29T19:09:29.579Z</time></trkpt><trkpt lat="38.30815" lon="15.84419"><ele>481.0</ele><time>2026-03-29T19:09:30.579Z</time></trkpt><trkpt lat="38.3077983" lon="15.8442117"><ele>482.0</ele><time>2026-03-29T19:09:31.579Z</time></trkpt><trkpt lat="38.3074483" lon="15.8442167"><ele>483.0</ele><time>2026-03-29T19:09:32.579Z</time></trkpt><trkpt lat="38.307105" lon="15.8442067"><ele>484.5</ele><time>2026-03-29T19:09:33.579Z</time></trkpt><trkpt lat="38.3067583" lon="15.8441967"><ele>486.0</ele><time>2026-03-29T19:09:34.579Z</time></trkpt><trkpt lat="38.3063967" lon="15.84418"><ele>487.0</ele><time>2026-03-29T19:09:35.579Z</time></trkpt><trkpt lat="38.3060217" lon="15.8441583"><ele>488.0</ele><time>2026-03-29T19:09:36.579Z</time></trkpt><trkpt lat="38.305645" lon="15.8441267"><ele>488.5</ele><time>2026-03-29T19:09:37.579Z</time></trkpt><trkpt lat="38.3052483" lon="15.844085"><ele>489.0</ele><time>2026-03-29T19:09:38.579Z</time></trkpt><trkpt lat="38.3048517" lon="15.84403"><ele>490.5</ele><time>2026-03-29T19:09:39.579Z</time></trkpt><trkpt lat="38.3044483" lon="15.843965"><ele>492.0</ele><time>2026-03-29T19:09:40.579Z</time></trkpt><trkpt lat="38.304035" lon="15.8438933"><ele>495.0</ele><time>2026-03-29T19:09:41.579Z</time></trkpt><trkpt lat="38.303625" lon="15.8438183"><ele>498.0</ele><time>2026-03-29T19:09:42.579Z</time></trkpt><trkpt lat="38.3031933" lon="15.8437417"><ele>499.5</ele><time>2026-03-29T19:09:43.579Z</time></trkpt><trkpt lat="38.302765" lon="15.84365"><ele>501.0</ele><time>2026-03-29T19:09:44.579Z</time></trkpt><trkpt lat="38.3023317" lon="15.843565"><ele>502.0</ele><time>2026-03-29T19:09:45.579Z</time></trkpt><trkpt lat="38.301895" lon="15.8434767"><ele>503.0</ele><time>2026-03-29T19:09:46.579Z</time></trkpt><trkpt lat="38.3014567" lon="15.843385"><ele>501.0</ele><time>2026-03-29T19:09:47.579Z</time></trkpt><trkpt lat="38.3010183" lon="15.84329"><ele>499.0</ele><time>2026-03-29T19:09:48.58Z</time></trkpt><trkpt lat="38.3005783" lon="15.8431967"><ele>510.0</ele><time>2026-03-29T19:09:49.579Z</time></trkpt><trkpt lat="38.3001433" lon="15.8431117"><ele>521.0</ele><time>2026-03-29T19:09:50.579Z</time></trkpt><trkpt lat="38.2997133" lon="15.8430333"><ele>529.0</ele><time>2026-03-29T19:09:51.579Z</time></trkpt><trkpt lat="38.299275" lon="15.8429517"><ele>537.0</ele><time>2026-03-29T19:09:52.579Z</time></trkpt><trkpt lat="38.298835" lon="15.8428717"><ele>545.5</ele><time>2026-03-29T19:09:53.579Z</time></trkpt><trkpt lat="38.2984017" lon="15.8427933"><ele>554.0</ele><time>2026-03-29T19:09:54.579Z</time></trkpt><trkpt lat="38.2979667" lon="15.8427117"><ele>556.5</ele><time>2026-03-29T19:09:55.579Z</time></trkpt><trkpt lat="38.2975333" lon="15.8426317"><ele>559.0</ele><time>2026-03-29T19:09:56.579Z</time></trkpt><trkpt lat="38.2971033" lon="15.8425517"><ele>558.5</ele><time>2026-03-29T19:09:57.579Z</time></trkpt><trkpt lat="38.2966767" lon="15.8424767"><ele>558.0</ele><time>2026-03-29T19:09:58.579Z</time></trkpt><trkpt lat="38.296255" lon="15.84241"><ele>492.0</ele><time>2026-03-29T19:09:59.579Z</time></trkpt><trkpt lat="38.2944" lon="15.8399833"><ele>492.0</ele><time>2026-03-29T19:10:06.578Z</time></trkpt><trkpt lat="38.29415" lon="15.83966"><ele>492.0</ele><time>2026-03-29T19:10:07.578Z</time></trkpt><trkpt lat="38.29393" lon="15.8393533"><ele>483.5</ele><time>2026-03-29T19:10:08.578Z</time></trkpt><trkpt lat="38.2937117" lon="15.8390583"><ele>475.0</ele><time>2026-03-29T19:10:09.578Z</time></trkpt><trkpt lat="38.2934983" lon="15.83876"><ele>481.5</ele><time>2026-03-29T19:10:10.578Z</time></trkpt><trkpt lat="38.2932817" lon="15.8384417"><ele>488.0</ele><time>2026-03-29T19:10:11.578Z</time></trkpt><trkpt lat="38.2930717" lon="15.8381217"><ele>496.0</ele><time>2026-03-29T19:10:12.578Z</time></trkpt><trkpt lat="38.29286" lon="15.8377983"><ele>504.0</ele><time>2026-03-29T19:10:13.578Z</time></trkpt><trkpt lat="38.29265" lon="15.8374733"><ele>504.0</ele><time>2026-03-29T19:10:14.578Z</time></trkpt><trkpt lat="38.2924383" lon="15.8371417"><ele>504.0</ele><time>2026-03-29T19:10:15.578Z</time></trkpt><trkpt lat="38.2922233" lon="15.8367983"><ele>502.0</ele><time>2026-03-29T19:10:16.578Z</time></trkpt><trkpt lat="38.29201" lon="15.8364633"><ele>500.0</ele><time>2026-03-29T19:10:17.578Z</time></trkpt><trkpt lat="38.29183" lon="15.8360567"><ele>495.5</ele><time>2026-03-29T19:10:18.578Z</time></trkpt><trkpt lat="38.29167" lon="15.8357017"><ele>491.0</ele><time>2026-03-29T19:10:19.578Z</time></trkpt><trkpt lat="38.2914967" lon="15.8353283"><ele>496.0</ele><time>2026-03-29T19:10:20.578Z</time></trkpt><trkpt lat="38.2913217" lon="15.8349617"><ele>501.0</ele><time>2026-03-29T19:10:21.578Z</time></trkpt><trkpt lat="38.2911433" lon="15.8346217"><ele>503.0</ele><time>2026-03-29T19:10:22.578Z</time></trkpt><trkpt lat="38.29096" lon="15.8342783"><ele>505.0</ele><time>2026-03-29T19:10:23.578Z</time></trkpt><trkpt lat="38.290775" lon="15.833935"><ele>505.0</ele><time>2026-03-29T19:10:24.578Z</time></trkpt><trkpt lat="38.290595" lon="15.8335883"><ele>505.0</ele><time>2026-03-29T19:10:25.578Z</time></trkpt><trkpt lat="38.2904233" lon="15.833255"><ele>508.0</ele><time>2026-03-29T19:10:26.578Z</time></trkpt><trkpt lat="38.2902433" lon="15.8329117"><ele>511.0</ele><time>2026-03-29T19:10:27.578Z</time></trkpt><trkpt lat="38.29005" lon="15.8325583"><ele>511.0</ele><time>2026-03-29T19:10:28.578Z</time></trkpt><trkpt lat="38.2898583" lon="15.8322233"><ele>511.0</ele><time>2026-03-29T19:10:29.578Z</time></trkpt><trkpt lat="38.2896483" lon="15.8318883"><ele>511.5</ele><time>2026-03-29T19:10:30.578Z</time></trkpt><trkpt lat="38.28944" lon="15.831545"><ele>512.0</ele><time>2026-03-29T19:10:31.578Z</time></trkpt><trkpt lat="38.2841167" lon="15.8222033"><ele>478.0</ele><time>2026-03-29T19:10:53.58Z</time></trkpt><trkpt lat="38.2840783" lon="15.82136"><ele>522.0</ele><time>2026-03-29T19:10:54.58Z</time></trkpt><trkpt lat="38.2839233" lon="15.8207883"><ele>522.0</ele><time>2026-03-29T19:10:55.58Z</time></trkpt><trkpt lat="38.2837383" lon="15.8203517"><ele>522.0</ele><time>2026-03-29T19:10:56.58Z</time></trkpt><trkpt lat="38.2835517" lon="15.8199333"><ele>530.0</ele><time>2026-03-29T19:10:57.58Z</time></trkpt><trkpt lat="38.2833567" lon="15.8195283"><ele>538.0</ele><time>2026-03-29T19:10:58.58Z</time></trkpt><trkpt lat="38.28316" lon="15.81912"><ele>540.0</ele><time>2026-03-29T19:10:59.58Z</time></trkpt><trkpt lat="38.2829633" lon="15.8187133"><ele>542.0</ele><time>2026-03-29T19:11:00.58Z</time></trkpt><trkpt lat="38.2827667" lon="15.818305"><ele>542.0</ele><time>2026-03-29T19:11:01.58Z</time></trkpt><trkpt lat="38.2825717" lon="15.8178967"><ele>542.0</ele><time>2026-03-29T19:11:02.58Z</time></trkpt><trkpt lat="38.2823817" lon="15.817485"><ele>529.0</ele><time>2026-03-29T19:11:03.58Z</time></trkpt><trkpt lat="38.2821917" lon="15.81707"><ele>516.0</ele><time>2026-03-29T19:11:04.58Z</time></trkpt><trkpt lat="38.2819567" lon="15.8167"><ele>494.5</ele><time>2026-03-29T19:11:05.58Z</time></trkpt><trkpt lat="38.2817567" lon="15.816295"><ele>473.0</ele><time>2026-03-29T19:11:06.58Z</time></trkpt><trkpt lat="38.2813383" lon="15.8162367"><ele>465.0</ele><time>2026-03-29T19:11:07.58Z</time></trkpt><trkpt lat="38.2808133" lon="15.8160217"><ele>490.0</ele><time>2026-03-29T19:11:08.58Z</time></trkpt><trkpt lat="38.2804867" lon="15.8157133"><ele>515.0</ele><time>2026-03-29T19:11:09.58Z</time></trkpt><trkpt lat="38.2802" lon="15.8154033"><ele>520.5</ele><time>2026-03-29T19:11:10.58Z</time></trkpt><trkpt lat="38.279915" lon="15.815095"><ele>526.0</ele><time>2026-03-29T19:11:11.58Z</time></trkpt><trkpt lat="38.27963" lon="15.8147917"><ele>526.0</ele><time>2026-03-29T19:11:12.58Z</time></trkpt><trkpt lat="38.2793517" lon="15.8145033"><ele>526.0</ele><time>2026-03-29T19:11:13.58Z</time></trkpt><trkpt lat="38.279065" lon="15.814205"><ele>350.0</ele><time>2026-03-29T19:11:14.58Z</time></trkpt><trkpt lat="38.2717433" lon="15.8061367"><ele>334.5</ele><time>2026-03-29T19:11:40.581Z</time></trkpt><trkpt lat="38.2717083" lon="15.8056933"><ele>319.0</ele><time>2026-03-29T19:11:41.581Z</time></trkpt><trkpt lat="38.2716567" lon="15.80523"><ele>304.0</ele><time>2026-03-29T19:11:42.581Z</time></trkpt><trkpt lat="38.2715683" lon="15.8047833"><ele>289.0</ele><time>2026-03-29T19:11:43.581Z</time></trkpt><trkpt lat="38.2714667" lon="15.804335"><ele>257.5</ele><time>2026-03-29T19:11:44.581Z</time></trkpt><trkpt lat="38.2713567" lon="15.8038867"><ele>226.0</ele><time>2026-03-29T19:11:45.581Z</time></trkpt><trkpt lat="38.2712417" lon="15.803445"><ele>213.0</ele><time>2026-03-29T19:11:46.581Z</time></trkpt><trkpt lat="38.2711133" lon="15.8030033"><ele>200.0</ele><time>2026-03-29T19:11:47.581Z</time></trkpt><trkpt lat="38.2709933" lon="15.8025633"><ele>200.0</ele><time>2026-03-29T19:11:48.581Z</time></trkpt><trkpt lat="38.2708667" lon="15.8021333"><ele>200.0</ele><time>2026-03-29T19:11:49.581Z</time></trkpt><trkpt lat="38.2707417" lon="15.801695"><ele>215.0</ele><time>2026-03-29T19:11:50.581Z</time></trkpt><trkpt lat="38.2706067" lon="15.801265"><ele>230.0</ele><time>2026-03-29T19:11:51.581Z</time></trkpt><trkpt lat="38.2704917" lon="15.8008617"><ele>255.5</ele><time>2026-03-29T19:11:52.581Z</time></trkpt><trkpt lat="38.27037" lon="15.800455"><ele>281.0</ele><time>2026-03-29T19:11:53.581Z</time></trkpt><trkpt lat="38.2702567" lon="15.80005"><ele>330.0</ele><time>2026-03-29T19:11:54.581Z</time></trkpt><trkpt lat="38.270145" lon="15.7996533"><ele>379.0</ele><time>2026-03-29T19:11:55.581Z</time></trkpt><trkpt lat="38.2700467" lon="15.7992567"><ele>394.0</ele><time>2026-03-29T19:11:56.581Z</time></trkpt><trkpt lat="38.26995" lon="15.7988533"><ele>409.0</ele><time>2026-03-29T19:11:57.581Z</time></trkpt><trkpt lat="38.2698533" lon="15.798445"><ele>444.0</ele><time>2026-03-29T19:11:58.581Z</time></trkpt><trkpt lat="38.269745" lon="15.798025"><ele>479.0</ele><time>2026-03-29T19:11:59.581Z</time></trkpt><trkpt lat="38.2696383" lon="15.79761"><ele>493.5</ele><time>2026-03-29T19:12:00.582Z</time></trkpt><trkpt lat="38.269535" lon="15.7972067"><ele>508.0</ele><time>2026-03-29T19:12:01.582Z</time></trkpt><trkpt lat="38.2694333" lon="15.79681"><ele>518.0</ele><time>2026-03-29T19:12:02.581Z</time></trkpt><trkpt lat="38.2693217" lon="15.7964167"><ele>528.0</ele><time>2026-03-29T19:12:03.581Z</time></trkpt><trkpt lat="38.2691967" lon="15.796025"><ele>531.0</ele><time>2026-03-29T19:12:04.581Z</time></trkpt><trkpt lat="38.2690383" lon="15.7956433"><ele>534.0</ele><time>2026-03-29T19:12:05.581Z</time></trkpt><trkpt lat="38.2689117" lon="15.795245"><ele>536.0</ele><time>2026-03-29T19:12:06.581Z</time></trkpt><trkpt lat="38.2687833" lon="15.79485"><ele>538.0</ele><time>2026-03-29T19:12:07.581Z</time></trkpt><trkpt lat="38.2686533" lon="15.7944517"><ele>536.0</ele><time>2026-03-29T19:12:08.581Z</time></trkpt><trkpt lat="38.2685167" lon="15.7940533"><ele>534.0</ele><time>2026-03-29T19:12:09.581Z</time></trkpt><trkpt lat="38.268375" lon="15.7936533"><ele>532.0</ele><time>2026-03-29T19:12:10.581Z</time></trkpt><trkpt lat="38.2682333" lon="15.7932683"><ele>530.0</ele><time>2026-03-29T19:12:11.581Z</time></trkpt><trkpt lat="38.2654283" lon="15.7851"><ele>375.0</ele><time>2026-03-29T19:12:29.578Z</time></trkpt><trkpt lat="38.2651033" lon="15.784605"><ele>386.0</ele><time>2026-03-29T19:12:30.578Z</time></trkpt><trkpt lat="38.2648433" lon="15.7841"><ele>442.0</ele><time>2026-03-29T19:12:31.578Z</time></trkpt><trkpt lat="38.264585" lon="15.7835967"><ele>472.0</ele><time>2026-03-29T19:12:32.578Z</time></trkpt><trkpt lat="38.2643317" lon="15.7830967"><ele>476.0</ele><time>2026-03-29T19:12:33.578Z</time></trkpt><trkpt lat="38.264065" lon="15.7825833"><ele>502.0</ele><time>2026-03-29T19:12:34.578Z</time></trkpt><trkpt lat="38.263795" lon="15.7820667"><ele>464.0</ele><time>2026-03-29T19:12:35.578Z</time></trkpt><trkpt lat="38.26351" lon="15.7815167"><ele>420.0</ele><time>2026-03-29T19:12:36.578Z</time></trkpt><trkpt lat="38.26324" lon="15.7809933"><ele>410.0</ele><time>2026-03-29T19:12:37.578Z</time></trkpt><trkpt lat="38.26297" lon="15.7804717"><ele>363.0</ele><time>2026-03-29T19:12:38.578Z</time></trkpt><trkpt lat="38.2627" lon="15.7799483"><ele>363.0</ele><time>2026-03-29T19:12:39.578Z</time></trkpt><trkpt lat="38.26243" lon="15.7794217"><ele>341.0</ele><time>2026-03-29T19:12:40.578Z</time></trkpt><trkpt lat="38.262195" lon="15.7789067"><ele>343.0</ele><time>2026-03-29T19:12:41.578Z</time></trkpt><trkpt lat="38.26194" lon="15.7784583"><ele>345.0</ele><time>2026-03-29T19:12:42.578Z</time></trkpt><trkpt lat="38.26168" lon="15.7779917"><ele>370.0</ele><time>2026-03-29T19:12:43.578Z</time></trkpt><trkpt lat="38.26142" lon="15.7775267"><ele>395.0</ele><time>2026-03-29T19:12:44.579Z</time></trkpt><trkpt lat="38.2611617" lon="15.7770567"><ele>387.0</ele><time>2026-03-29T19:12:45.579Z</time></trkpt><trkpt lat="38.2609033" lon="15.77658"><ele>387.0</ele><time>2026-03-29T19:12:46.578Z</time></trkpt><trkpt lat="38.2606467" lon="15.776105"><ele>432.0</ele><time>2026-03-29T19:12:47.578Z</time></trkpt><trkpt lat="38.260395" lon="15.775615"><ele>439.0</ele><time>2026-03-29T19:12:48.578Z</time></trkpt><trkpt lat="38.2601483" lon="15.7751233"><ele>439.0</ele><time>2026-03-29T19:12:49.578Z</time></trkpt><trkpt lat="38.2598967" lon="15.77464"><ele>279.0</ele><time>2026-03-29T19:12:50.578Z</time></trkpt><trkpt lat="38.255375" lon="15.769365"><ele>258.0</ele><time>2026-03-29T19:13:05.579Z</time></trkpt><trkpt lat="38.2552283" lon="15.7689417"><ele>237.0</ele><time>2026-03-29T19:13:06.579Z</time></trkpt><trkpt lat="38.2550483" lon="15.7685233"><ele>226.5</ele><time>2026-03-29T19:13:07.579Z</time></trkpt><trkpt lat="38.2548767" lon="15.768105"><ele>216.0</ele><time>2026-03-29T19:13:08.579Z</time></trkpt><trkpt lat="38.2546983" lon="15.7676717"><ele>222.5</ele><time>2026-03-29T19:13:09.579Z</time></trkpt><trkpt lat="38.2545333" lon="15.7672417"><ele>229.0</ele><time>2026-03-29T19:13:10.579Z</time></trkpt><trkpt lat="38.2543717" lon="15.7668017"><ele>229.0</ele><time>2026-03-29T19:13:11.579Z</time></trkpt><trkpt lat="38.25423" lon="15.7663317"><ele>229.0</ele><time>2026-03-29T19:13:12.579Z</time></trkpt><trkpt lat="38.2540933" lon="15.7658533"><ele>242.0</ele><time>2026-03-29T19:13:13.579Z</time></trkpt><trkpt lat="38.25396" lon="15.7653833"><ele>255.0</ele><time>2026-03-29T19:13:14.579Z</time></trkpt><trkpt lat="38.2538317" lon="15.76492"><ele>291.0</ele><time>2026-03-29T19:13:15.579Z</time></trkpt><trkpt lat="38.2537033" lon="15.7644383"><ele>327.0</ele><time>2026-03-29T19:13:16.579Z</time></trkpt><trkpt lat="38.253575" lon="15.7639583"><ele>346.5</ele><time>2026-03-29T19:13:17.579Z</time></trkpt><trkpt lat="38.2534517" lon="15.763475"><ele>366.0</ele><time>2026-03-29T19:13:18.579Z</time></trkpt><trkpt lat="38.253335" lon="15.76299"><ele>377.0</ele><time>2026-03-29T19:13:19.579Z</time></trkpt><trkpt lat="38.2532367" lon="15.7625117"><ele>388.0</ele><time>2026-03-29T19:13:20.579Z</time></trkpt><trkpt lat="38.2531567" lon="15.7620467"><ele>429.5</ele><time>2026-03-29T19:13:21.579Z</time></trkpt><trkpt lat="38.2530717" lon="15.7615733"><ele>471.0</ele><time>2026-03-29T19:13:22.579Z</time></trkpt><trkpt lat="38.2529683" lon="15.7611017"><ele>469.5</ele><time>2026-03-29T19:13:23.579Z</time></trkpt><trkpt lat="38.2528667" lon="15.7606283"><ele>468.0</ele><time>2026-03-29T19:13:24.579Z</time></trkpt><trkpt lat="38.2527633" lon="15.760155"><ele>468.0</ele><time>2026-03-29T19:13:25.579Z</time></trkpt><trkpt lat="38.25266" lon="15.7596833"><ele>468.0</ele><time>2026-03-29T19:13:26.579Z</time></trkpt><trkpt lat="38.2506583" lon="15.7442"><ele>187.0</ele><time>2026-03-29T19:13:50.578Z</time></trkpt><trkpt lat="38.25054" lon="15.7436267"><ele>199.0</ele><time>2026-03-29T19:13:51.578Z</time></trkpt><trkpt lat="38.2504383" lon="15.7430283"><ele>267.0</ele><time>2026-03-29T19:13:52.578Z</time></trkpt><trkpt lat="38.2503417" lon="15.7424333"><ele>315.0</ele><time>2026-03-29T19:13:53.578Z</time></trkpt><trkpt lat="38.2502583" lon="15.7418317"><ele>315.0</ele><time>2026-03-29T19:13:54.578Z</time></trkpt><trkpt lat="38.250175" lon="15.7412267"><ele>328.0</ele><time>2026-03-29T19:13:55.578Z</time></trkpt><trkpt lat="38.2500867" lon="15.7406183"><ele>307.0</ele><time>2026-03-29T19:13:56.579Z</time></trkpt><trkpt lat="38.2499967" lon="15.7400033"><ele>272.0</ele><time>2026-03-29T19:13:57.578Z</time></trkpt><trkpt lat="38.2499117" lon="15.73937"><ele>272.0</ele><time>2026-03-29T19:13:58.578Z</time></trkpt><trkpt lat="38.2498233" lon="15.73872"><ele>311.0</ele><time>2026-03-29T19:13:59.578Z</time></trkpt><trkpt lat="38.249735" lon="15.7380917"><ele>271.0</ele><time>2026-03-29T19:14:00.578Z</time></trkpt><trkpt lat="38.249645" lon="15.7374617"><ele>237.0</ele><time>2026-03-29T19:14:01.578Z</time></trkpt><trkpt lat="38.249555" lon="15.7368333"><ele>237.0</ele><time>2026-03-29T19:14:02.578Z</time></trkpt><trkpt lat="38.2494633" lon="15.736205"><ele>169.0</ele><time>2026-03-29T19:14:03.578Z</time></trkpt><trkpt lat="38.24867" lon="15.7323967"><ele>169.0</ele><time>2026-03-29T19:14:10.579Z</time></trkpt><trkpt lat="38.248645" lon="15.731895"><ele>169.0</ele><time>2026-03-29T19:14:11.58Z</time></trkpt><trkpt lat="38.2486117" lon="15.7314733"><ele>168.0</ele><time>2026-03-29T19:14:12.579Z</time></trkpt><trkpt lat="38.2486033" lon="15.7310517"><ele>167.0</ele><time>2026-03-29T19:14:13.579Z</time></trkpt><trkpt lat="38.2486083" lon="15.7306583"><ele>167.0</ele><time>2026-03-29T19:14:14.579Z</time></trkpt><trkpt lat="38.2486083" lon="15.7302533"><ele>167.0</ele><time>2026-03-29T19:14:15.579Z</time></trkpt><trkpt lat="38.2486083" lon="15.7298467"><ele>166.0</ele><time>2026-03-29T19:14:16.579Z</time></trkpt><trkpt lat="38.2486083" lon="15.7294383"><ele>165.0</ele><time>2026-03-29T19:14:17.579Z</time></trkpt><trkpt lat="38.2486067" lon="15.729035"><ele>165.0</ele><time>2026-03-29T19:14:18.579Z</time></trkpt><trkpt lat="38.2485917" lon="15.728635"><ele>165.0</ele><time>2026-03-29T19:14:19.579Z</time></trkpt><trkpt lat="38.2485833" lon="15.7282183"><ele>161.5</ele><time>2026-03-29T19:14:20.579Z</time></trkpt><trkpt lat="38.2485683" lon="15.727815"><ele>158.0</ele><time>2026-03-29T19:14:21.579Z</time></trkpt><trkpt lat="38.2485517" lon="15.7274"><ele>149.5</ele><time>2026-03-29T19:14:22.579Z</time></trkpt><trkpt lat="38.2485483" lon="15.7269733"><ele>141.0</ele><time>2026-03-29T19:14:23.579Z</time></trkpt><trkpt lat="38.24853" lon="15.726555"><ele>138.0</ele><time>2026-03-29T19:14:24.579Z</time></trkpt><trkpt lat="38.248525" lon="15.7261217"><ele>135.0</ele><time>2026-03-29T19:14:25.579Z</time></trkpt><trkpt lat="38.2485183" lon="15.725685"><ele>144.5</ele><time>2026-03-29T19:14:26.579Z</time></trkpt><trkpt lat="38.248525" lon="15.7252417"><ele>154.0</ele><time>2026-03-29T19:14:27.579Z</time></trkpt><trkpt lat="38.2485333" lon="15.7247983"><ele>152.0</ele><time>2026-03-29T19:14:28.579Z</time></trkpt><trkpt lat="38.24853" lon="15.7243667"><ele>150.0</ele><time>2026-03-29T19:14:29.579Z</time></trkpt><trkpt lat="38.2485367" lon="15.7239383"><ele>149.5</ele><time>2026-03-29T19:14:30.579Z</time></trkpt><trkpt lat="38.2485417" lon="15.7235183"><ele>149.0</ele><time>2026-03-29T19:14:31.579Z</time></trkpt><trkpt lat="38.2485517" lon="15.7230933"><ele>145.0</ele><time>2026-03-29T19:14:32.579Z</time></trkpt><trkpt lat="38.2485667" lon="15.7226667"><ele>141.0</ele><time>2026-03-29T19:14:33.579Z</time></trkpt><trkpt lat="38.24858" lon="15.72224"><ele>141.5</ele><time>2026-03-29T19:14:34.579Z</time></trkpt><trkpt lat="38.24859" lon="15.7217967"><ele>142.0</ele><time>2026-03-29T19:14:35.579Z</time></trkpt><trkpt lat="38.2485983" lon="15.7213633"><ele>145.5</ele><time>2026-03-29T19:14:36.579Z</time></trkpt><trkpt lat="38.2486067" lon="15.720935"><ele>149.0</ele><time>2026-03-29T19:14:37.579Z</time></trkpt><trkpt lat="38.2486083" lon="15.7204983"><ele>148.0</ele><time>2026-03-29T19:14:38.579Z</time></trkpt><trkpt lat="38.2486267" lon="15.72006"><ele>147.0</ele><time>2026-03-29T19:14:39.579Z</time></trkpt><trkpt lat="38.24863" lon="15.7196433"><ele>148.5</ele><time>2026-03-29T19:14:40.579Z</time></trkpt><trkpt lat="38.24864" lon="15.7192233"><ele>150.0</ele><time>2026-03-29T19:14:41.579Z</time></trkpt><trkpt lat="38.2486417" lon="15.71881"><ele>152.0</ele><time>2026-03-29T19:14:42.579Z</time></trkpt><trkpt lat="38.24864" lon="15.7183983"><ele>154.0</ele><time>2026-03-29T19:14:43.579Z</time></trkpt><trkpt lat="38.2486367" lon="15.71798"><ele>157.5</ele><time>2026-03-29T19:14:44.579Z</time></trkpt><trkpt lat="38.248625" lon="15.7175767"><ele>161.0</ele><time>2026-03-29T19:14:45.579Z</time></trkpt><trkpt lat="38.2486117" lon="15.71717"><ele>158.0</ele><time>2026-03-29T19:14:46.579Z</time></trkpt><trkpt lat="38.248595" lon="15.7167367"><ele>155.0</ele><time>2026-03-29T19:14:47.579Z</time></trkpt><trkpt lat="38.2485517" lon="15.71631"><ele>143.0</ele><time>2026-03-29T19:14:48.579Z</time></trkpt><trkpt lat="38.248515" lon="15.7158617"><ele>131.0</ele><time>2026-03-29T19:14:49.579Z</time></trkpt><trkpt lat="38.2484517" lon="15.7153967"><ele>117.5</ele><time>2026-03-29T19:14:50.579Z</time></trkpt><trkpt lat="38.2483917" lon="15.7149233"><ele>104.0</ele><time>2026-03-29T19:14:51.579Z</time></trkpt><trkpt lat="38.2483283" lon="15.7144317"><ele>108.5</ele><time>2026-03-29T19:14:52.579Z</time></trkpt><trkpt lat="38.248275" lon="15.7139383"><ele>113.0</ele><time>2026-03-29T19:14:53.579Z</time></trkpt><trkpt lat="38.24822" lon="15.713435"><ele>125.0</ele><time>2026-03-29T19:14:54.579Z</time></trkpt><trkpt lat="38.2481417" lon="15.7129183"><ele>137.0</ele><time>2026-03-29T19:14:55.579Z</time></trkpt><trkpt lat="38.2480717" lon="15.7123783"><ele>173.5</ele><time>2026-03-29T19:14:56.579Z</time></trkpt><trkpt lat="38.2480033" lon="15.711845"><ele>210.0</ele><time>2026-03-29T19:14:57.579Z</time></trkpt><trkpt lat="38.24793" lon="15.711305"><ele>206.0</ele><time>2026-03-29T19:14:58.579Z</time></trkpt><trkpt lat="38.2478533" lon="15.710765"><ele>202.0</ele><time>2026-03-29T19:14:59.579Z</time></trkpt><trkpt lat="38.2477783" lon="15.7102117"><ele>188.5</ele><time>2026-03-29T19:15:00.579Z</time></trkpt><trkpt lat="38.2476667" lon="15.709705"><ele>175.0</ele><time>2026-03-29T19:15:01.579Z</time></trkpt><trkpt lat="38.2476233" lon="15.7092017"><ele>175.0</ele><time>2026-03-29T19:15:02.579Z</time></trkpt><trkpt lat="38.247565" lon="15.7086867"><ele>175.0</ele><time>2026-03-29T19:15:03.579Z</time></trkpt><trkpt lat="38.2475067" lon="15.708175"><ele>213.0</ele><time>2026-03-29T19:15:04.579Z</time></trkpt><trkpt lat="38.2474333" lon="15.7076417"><ele>251.0</ele><time>2026-03-29T19:15:05.579Z</time></trkpt><trkpt lat="38.2473683" lon="15.7071167"><ele>258.5</ele><time>2026-03-29T19:15:06.579Z</time></trkpt><trkpt lat="38.2473033" lon="15.7065933"><ele>266.0</ele><time>2026-03-29T19:15:07.579Z</time></trkpt><trkpt lat="38.2472383" lon="15.70607"><ele>129.0</ele><time>2026-03-29T19:15:08.579Z</time></trkpt><trkpt lat="38.24454" lon="15.6887067"><ele>149.0</ele><time>2026-03-29T19:15:41.579Z</time></trkpt><trkpt lat="38.2443417" lon="15.6881317"><ele>158.0</ele><time>2026-03-29T19:15:42.579Z</time></trkpt><trkpt lat="38.24413" lon="15.6875783"><ele>208.0</ele><time>2026-03-29T19:15:43.58Z</time></trkpt><trkpt lat="38.243925" lon="15.6870217"><ele>123.0</ele><time>2026-03-29T19:15:44.579Z</time></trkpt><trkpt lat="38.2402983" lon="15.6810133"><ele>123.0</ele><time>2026-03-29T19:15:59.578Z</time></trkpt><trkpt lat="38.2399367" lon="15.6807767"><ele>123.0</ele><time>2026-03-29T19:16:00.578Z</time></trkpt><trkpt lat="38.239655" lon="15.68052"><ele>119.5</ele><time>2026-03-29T19:16:01.578Z</time></trkpt><trkpt lat="38.2393583" lon="15.6802733"><ele>116.0</ele><time>2026-03-29T19:16:02.578Z</time></trkpt><trkpt lat="38.239075" lon="15.6800267"><ele>111.0</ele><time>2026-03-29T19:16:03.578Z</time></trkpt><trkpt lat="38.2388" lon="15.679795"><ele>106.0</ele><time>2026-03-29T19:16:04.578Z</time></trkpt><trkpt lat="38.238515" lon="15.6795517"><ele>104.5</ele><time>2026-03-29T19:16:05.578Z</time></trkpt><trkpt lat="38.23824" lon="15.6793033"><ele>103.0</ele><time>2026-03-29T19:16:06.579Z</time></trkpt><trkpt lat="38.23798" lon="15.6790483"><ele>111.0</ele><time>2026-03-29T19:16:07.578Z</time></trkpt><trkpt lat="38.2377433" lon="15.6787583"><ele>119.0</ele><time>2026-03-29T19:16:08.578Z</time></trkpt><trkpt lat="38.2375133" lon="15.67845"><ele>130.5</ele><time>2026-03-29T19:16:09.578Z</time></trkpt><trkpt lat="38.237285" lon="15.67813"><ele>142.0</ele><time>2026-03-29T19:16:10.578Z</time></trkpt><trkpt lat="38.237055" lon="15.6778017"><ele>132.5</ele><time>2026-03-29T19:16:11.578Z</time></trkpt><trkpt lat="38.2368417" lon="15.6774333"><ele>123.0</ele><time>2026-03-29T19:16:12.578Z</time></trkpt><trkpt lat="38.2366317" lon="15.67704"><ele>123.0</ele><time>2026-03-29T19:16:13.578Z</time></trkpt><trkpt lat="38.2364417" lon="15.6766467"><ele>123.0</ele><time>2026-03-29T19:16:14.578Z</time></trkpt><trkpt lat="38.236255" lon="15.676235"><ele>112.0</ele><time>2026-03-29T19:16:15.578Z</time></trkpt><trkpt lat="38.2360833" lon="15.6758017"><ele>101.0</ele><time>2026-03-29T19:16:16.578Z</time></trkpt><trkpt lat="38.2358883" lon="15.67536"><ele>103.5</ele><time>2026-03-29T19:16:17.578Z</time></trkpt><trkpt lat="38.2356833" lon="15.67491"><ele>106.0</ele><time>2026-03-29T19:16:18.578Z</time></trkpt><trkpt lat="38.2354617" lon="15.6744367"><ele>107.0</ele><time>2026-03-29T19:16:19.578Z</time></trkpt><trkpt lat="38.2352333" lon="15.673945"><ele>108.0</ele><time>2026-03-29T19:16:20.578Z</time></trkpt><trkpt lat="38.235015" lon="15.673455"><ele>108.0</ele><time>2026-03-29T19:16:21.578Z</time></trkpt><trkpt lat="38.234815" lon="15.6729917"><ele>108.0</ele><time>2026-03-29T19:16:22.578Z</time></trkpt><trkpt lat="38.2346167" lon="15.6725367"><ele>112.5</ele><time>2026-03-29T19:16:23.578Z</time></trkpt><trkpt lat="38.2344267" lon="15.672105"><ele>117.0</ele><time>2026-03-29T19:16:24.578Z</time></trkpt><trkpt lat="38.2342333" lon="15.6716717"><ele>117.0</ele><time>2026-03-29T19:16:25.578Z</time></trkpt><trkpt lat="38.234055" lon="15.6712367"><ele>117.0</ele><time>2026-03-29T19:16:26.578Z</time></trkpt><trkpt lat="38.2338917" lon="15.6708017"><ele>115.0</ele><time>2026-03-29T19:16:27.578Z</time></trkpt><trkpt lat="38.233725" lon="15.67035"><ele>113.0</ele><time>2026-03-29T19:16:28.578Z</time></trkpt><trkpt lat="38.233565" lon="15.669875"><ele>109.5</ele><time>2026-03-29T19:16:29.579Z</time></trkpt><trkpt lat="38.233395" lon="15.6694067"><ele>106.0</ele><time>2026-03-29T19:16:30.578Z</time></trkpt><trkpt lat="38.23323" lon="15.6689183"><ele>107.5</ele><time>2026-03-29T19:16:31.578Z</time></trkpt><trkpt lat="38.23307" lon="15.6684167"><ele>109.0</ele><time>2026-03-29T19:16:32.578Z</time></trkpt><trkpt lat="38.2329067" lon="15.6679"><ele>108.0</ele><time>2026-03-29T19:16:33.578Z</time></trkpt><trkpt lat="38.232725" lon="15.6673783"><ele>107.0</ele><time>2026-03-29T19:16:34.578Z</time></trkpt><trkpt lat="38.2325483" lon="15.6668417"><ele>103.0</ele><time>2026-03-29T19:16:35.578Z</time></trkpt><trkpt lat="38.232365" lon="15.6662967"><ele>108.0</ele><time>2026-03-29T19:16:36.578Z</time></trkpt><trkpt lat="38.232185" lon="15.6657383"><ele>98.0</ele><time>2026-03-29T19:16:37.578Z</time></trkpt><trkpt lat="38.232" lon="15.6651783"><ele>98.0</ele><time>2026-03-29T19:16:38.578Z</time></trkpt><trkpt lat="38.2318267" lon="15.6646183"><ele>92.0</ele><time>2026-03-29T19:16:39.578Z</time></trkpt><trkpt lat="38.23166" lon="15.6640867"><ele>89.0</ele><time>2026-03-29T19:16:40.578Z</time></trkpt><trkpt lat="38.2315067" lon="15.6635683"><ele>86.0</ele><time>2026-03-29T19:16:41.578Z</time></trkpt><trkpt lat="38.23137" lon="15.6630533"><ele>96.5</ele><time>2026-03-29T19:16:42.578Z</time></trkpt><trkpt lat="38.2312283" lon="15.66254"><ele>107.0</ele><time>2026-03-29T19:16:43.578Z</time></trkpt><trkpt lat="38.2310933" lon="15.6620183"><ele>102.0</ele><time>2026-03-29T19:16:44.578Z</time></trkpt><trkpt lat="38.2309517" lon="15.6614983"><ele>97.0</ele><time>2026-03-29T19:16:45.579Z</time></trkpt><trkpt lat="38.230805" lon="15.6609833"><ele>94.5</ele><time>2026-03-29T19:16:46.578Z</time></trkpt><trkpt lat="38.2306433" lon="15.6604633"><ele>92.0</ele><time>2026-03-29T19:16:47.578Z</time></trkpt><trkpt lat="38.2304933" lon="15.6599417"><ele>95.5</ele><time>2026-03-29T19:16:48.578Z</time></trkpt><trkpt lat="38.2303433" lon="15.65945"><ele>99.0</ele><time>2026-03-29T19:16:49.578Z</time></trkpt><trkpt lat="38.2301967" lon="15.6590033"><ele>97.0</ele><time>2026-03-29T19:16:50.579Z</time></trkpt><trkpt lat="38.2300517" lon="15.658565"><ele>95.0</ele><time>2026-03-29T19:16:51.578Z</time></trkpt><trkpt lat="38.2299133" lon="15.6581183"><ele>106.5</ele><time>2026-03-29T19:16:52.578Z</time></trkpt><trkpt lat="38.2297683" lon="15.6576667"><ele>118.0</ele><time>2026-03-29T19:16:53.578Z</time></trkpt><trkpt lat="38.2296167" lon="15.6572"><ele>114.0</ele><time>2026-03-29T19:16:54.578Z</time></trkpt><trkpt lat="38.22947" lon="15.6567283"><ele>110.0</ele><time>2026-03-29T19:16:55.578Z</time></trkpt><trkpt lat="38.229325" lon="15.6562883"><ele>107.5</ele><time>2026-03-29T19:16:56.578Z</time></trkpt><trkpt lat="38.22919" lon="15.6558667"><ele>105.0</ele><time>2026-03-29T19:16:57.578Z</time></trkpt><trkpt lat="38.229055" lon="15.6554733"><ele>115.0</ele><time>2026-03-29T19:16:58.578Z</time></trkpt><trkpt lat="38.2289133" lon="15.655085"><ele>125.0</ele><time>2026-03-29T19:16:59.578Z</time></trkpt><trkpt lat="38.2287567" lon="15.6546967"><ele>121.0</ele><time>2026-03-29T19:17:00.578Z</time></trkpt><trkpt lat="38.228585" lon="15.6543017"><ele>117.0</ele><time>2026-03-29T19:17:01.578Z</time></trkpt><trkpt lat="38.2283983" lon="15.6539117"><ele>114.0</ele><time>2026-03-29T19:17:02.578Z</time></trkpt><trkpt lat="38.2282033" lon="15.6535067"><ele>111.0</ele><time>2026-03-29T19:17:03.578Z</time></trkpt><trkpt lat="38.2279867" lon="15.6531083"><ele>125.5</ele><time>2026-03-29T19:17:04.578Z</time></trkpt><trkpt lat="38.227775" lon="15.6527017"><ele>140.0</ele><time>2026-03-29T19:17:05.578Z</time></trkpt><trkpt lat="38.2275617" lon="15.6522933"><ele>135.5</ele><time>2026-03-29T19:17:06.578Z</time></trkpt><trkpt lat="38.2273583" lon="15.6518767"><ele>131.0</ele><time>2026-03-29T19:17:07.578Z</time></trkpt><trkpt lat="38.2271567" lon="15.651445"><ele>141.0</ele><time>2026-03-29T19:17:08.578Z</time></trkpt><trkpt lat="38.2269633" lon="15.6509967"><ele>151.0</ele><time>2026-03-29T19:17:09.578Z</time></trkpt><trkpt lat="38.2267733" lon="15.650515"><ele>147.5</ele><time>2026-03-29T19:17:10.578Z</time></trkpt><trkpt lat="38.2265733" lon="15.6500667"><ele>144.0</ele><time>2026-03-29T19:17:11.578Z</time></trkpt><trkpt lat="38.21971" lon="15.6478133"><ele>118.0</ele><time>2026-03-29T19:17:28.582Z</time></trkpt><trkpt lat="38.2194" lon="15.6477683"><ele>92.0</ele><time>2026-03-29T19:17:29.582Z</time></trkpt><trkpt lat="38.219025" lon="15.647785"><ele>102.5</ele><time>2026-03-29T19:17:30.582Z</time></trkpt><trkpt lat="38.2186233" lon="15.64782"><ele>113.0</ele><time>2026-03-29T19:17:31.582Z</time></trkpt><trkpt lat="38.218195" lon="15.6478867"><ele>113.0</ele><time>2026-03-29T19:17:32.582Z</time></trkpt><trkpt lat="38.2177483" lon="15.6479433"><ele>113.0</ele><time>2026-03-29T19:17:33.582Z</time></trkpt><trkpt lat="38.217335" lon="15.647965"><ele>113.0</ele><time>2026-03-29T19:17:34.582Z</time></trkpt><trkpt lat="38.2169" lon="15.64798"><ele>113.0</ele><time>2026-03-29T19:17:35.582Z</time></trkpt><trkpt lat="38.2164767" lon="15.6479517"><ele>113.0</ele><time>2026-03-29T19:17:36.582Z</time></trkpt><trkpt lat="38.2160667" lon="15.6478717"><ele>113.0</ele><time>2026-03-29T19:17:37.582Z</time></trkpt><trkpt lat="38.2156583" lon="15.6477633"><ele>107.5</ele><time>2026-03-29T19:17:38.582Z</time></trkpt><trkpt lat="38.21529" lon="15.6476467"><ele>102.0</ele><time>2026-03-29T19:17:39.582Z</time></trkpt><trkpt lat="38.2149333" lon="15.64751"><ele>101.0</ele><time>2026-03-29T19:17:40.582Z</time></trkpt><trkpt lat="38.21459" lon="15.647355"><ele>100.0</ele><time>2026-03-29T19:17:41.582Z</time></trkpt><trkpt lat="38.2142617" lon="15.64719"><ele>91.5</ele><time>2026-03-29T19:17:42.582Z</time></trkpt><trkpt lat="38.21395" lon="15.6469967"><ele>83.0</ele><time>2026-03-29T19:17:43.582Z</time></trkpt><trkpt lat="38.2136433" lon="15.6467967"><ele>81.0</ele><time>2026-03-29T19:17:44.582Z</time></trkpt><trkpt lat="38.2133383" lon="15.6465883"><ele>79.0</ele><time>2026-03-29T19:17:45.582Z</time></trkpt><trkpt lat="38.213045" lon="15.6463617"><ele>80.0</ele><time>2026-03-29T19:17:46.582Z</time></trkpt><trkpt lat="38.21276" lon="15.6461217"><ele>81.0</ele><time>2026-03-29T19:17:47.582Z</time></trkpt><trkpt lat="38.212485" lon="15.6458683"><ele>88.0</ele><time>2026-03-29T19:17:48.582Z</time></trkpt><trkpt lat="38.212215" lon="15.645615"><ele>95.0</ele><time>2026-03-29T19:17:49.582Z</time></trkpt><trkpt lat="38.2119533" lon="15.6453583"><ele>93.0</ele><time>2026-03-29T19:17:50.582Z</time></trkpt><trkpt lat="38.2117033" lon="15.645095"><ele>91.0</ele><time>2026-03-29T19:17:51.582Z</time></trkpt><trkpt lat="38.211465" lon="15.6448333"><ele>91.0</ele><time>2026-03-29T19:17:52.582Z</time></trkpt><trkpt lat="38.2112467" lon="15.6445883"><ele>91.0</ele><time>2026-03-29T19:17:53.582Z</time></trkpt><trkpt lat="38.2110333" lon="15.6443383"><ele>87.5</ele><time>2026-03-29T19:17:54.582Z</time></trkpt><trkpt lat="38.2108117" lon="15.6440933"><ele>84.0</ele><time>2026-03-29T19:17:55.582Z</time></trkpt><trkpt lat="38.210595" lon="15.6438467"><ele>79.0</ele><time>2026-03-29T19:17:56.582Z</time></trkpt><trkpt lat="38.21037" lon="15.6435933"><ele>74.0</ele><time>2026-03-29T19:17:57.582Z</time></trkpt><trkpt lat="38.2101433" lon="15.6433333"><ele>74.0</ele><time>2026-03-29T19:17:58.582Z</time></trkpt><trkpt lat="38.20989" lon="15.64307"><ele>74.0</ele><time>2026-03-29T19:17:59.582Z</time></trkpt><trkpt lat="38.2096217" lon="15.6428167"><ele>69.5</ele><time>2026-03-29T19:18:00.582Z</time></trkpt><trkpt lat="38.20935" lon="15.6425683"><ele>65.0</ele><time>2026-03-29T19:18:01.582Z</time></trkpt><trkpt lat="38.20907" lon="15.6423233"><ele>63.0</ele><time>2026-03-29T19:18:02.582Z</time></trkpt><trkpt lat="38.2087733" lon="15.64209"><ele>61.0</ele><time>2026-03-29T19:18:03.582Z</time></trkpt><trkpt lat="38.2084567" lon="15.6418683"><ele>58.0</ele><time>2026-03-29T19:18:04.583Z</time></trkpt><trkpt lat="38.20812" lon="15.6416583"><ele>55.0</ele><time>2026-03-29T19:18:05.582Z</time></trkpt><trkpt lat="38.2077667" lon="15.6414567"><ele>55.0</ele><time>2026-03-29T19:18:06.582Z</time></trkpt><trkpt lat="38.2073917" lon="15.641285"><ele>55.0</ele><time>2026-03-29T19:18:07.582Z</time></trkpt><trkpt lat="38.206985" lon="15.6411333"><ele>54.0</ele><time>2026-03-29T19:18:08.582Z</time></trkpt><trkpt lat="38.206575" lon="15.6409917"><ele>53.0</ele><time>2026-03-29T19:18:09.582Z</time></trkpt><trkpt lat="38.2061733" lon="15.640875"><ele>53.0</ele><time>2026-03-29T19:18:10.582Z</time></trkpt><trkpt lat="38.2057817" lon="15.6407883"><ele>53.0</ele><time>2026-03-29T19:18:11.582Z</time></trkpt><trkpt lat="38.20541" lon="15.64072"><ele>53.0</ele><time>2026-03-29T19:18:12.582Z</time></trkpt><trkpt lat="38.20504" lon="15.6406733"><ele>53.0</ele><time>2026-03-29T19:18:13.582Z</time></trkpt><trkpt lat="38.2046667" lon="15.640645"><ele>53.0</ele><time>2026-03-29T19:18:14.582Z</time></trkpt><trkpt lat="38.2042817" lon="15.6406333"><ele>53.0</ele><time>2026-03-29T19:18:15.582Z</time></trkpt><trkpt lat="38.203905" lon="15.640625"><ele>54.5</ele><time>2026-03-29T19:18:16.582Z</time></trkpt><trkpt lat="38.20352" lon="15.6406167"><ele>56.0</ele><time>2026-03-29T19:18:17.582Z</time></trkpt><trkpt lat="38.203145" lon="15.6406067"><ele>58.0</ele><time>2026-03-29T19:18:18.582Z</time></trkpt><trkpt lat="38.202775" lon="15.640595"><ele>60.0</ele><time>2026-03-29T19:18:19.582Z</time></trkpt><trkpt lat="38.20241" lon="15.640595"><ele>58.5</ele><time>2026-03-29T19:18:20.582Z</time></trkpt><trkpt lat="38.2020417" lon="15.6406217"><ele>57.0</ele><time>2026-03-29T19:18:21.582Z</time></trkpt><trkpt lat="38.201665" lon="15.6406683"><ele>56.0</ele><time>2026-03-29T19:18:22.582Z</time></trkpt><trkpt lat="38.2012883" lon="15.6407317"><ele>55.0</ele><time>2026-03-29T19:18:23.582Z</time></trkpt><trkpt lat="38.200915" lon="15.64081"><ele>56.0</ele><time>2026-03-29T19:18:24.582Z</time></trkpt><trkpt lat="38.20055" lon="15.6408983"><ele>57.0</ele><time>2026-03-29T19:18:25.582Z</time></trkpt><trkpt lat="38.2001733" lon="15.641005"><ele>57.0</ele><time>2026-03-29T19:18:26.582Z</time></trkpt><trkpt lat="38.1998117" lon="15.6411317"><ele>57.0</ele><time>2026-03-29T19:18:27.582Z</time></trkpt><trkpt lat="38.1994567" lon="15.641265"><ele>58.0</ele><time>2026-03-29T19:18:28.582Z</time></trkpt><trkpt lat="38.19911" lon="15.6414083"><ele>59.0</ele><time>2026-03-29T19:18:29.582Z</time></trkpt><trkpt lat="38.1987817" lon="15.6415683"><ele>58.0</ele><time>2026-03-29T19:18:30.582Z</time></trkpt><trkpt lat="38.1984683" lon="15.6417367"><ele>57.0</ele><time>2026-03-29T19:18:31.582Z</time></trkpt><trkpt lat="38.1981517" lon="15.641925"><ele>56.0</ele><time>2026-03-29T19:18:32.582Z</time></trkpt><trkpt lat="38.19785" lon="15.64214"><ele>55.0</ele><time>2026-03-29T19:18:33.583Z</time></trkpt><trkpt lat="38.19755" lon="15.6423817"><ele>56.0</ele><time>2026-03-29T19:18:34.582Z</time></trkpt><trkpt lat="38.1972683" lon="15.6426"><ele>57.0</ele><time>2026-03-29T19:18:35.582Z</time></trkpt><trkpt lat="38.1970067" lon="15.6428167"><ele>55.0</ele><time>2026-03-29T19:18:36.582Z</time></trkpt><trkpt lat="38.1967833" lon="15.6430283"><ele>53.0</ele><time>2026-03-29T19:18:37.582Z</time></trkpt><trkpt lat="38.1965683" lon="15.6432433"><ele>48.0</ele><time>2026-03-29T19:18:38.582Z</time></trkpt><trkpt lat="38.1963433" lon="15.6434683"><ele>43.0</ele><time>2026-03-29T19:18:39.582Z</time></trkpt><trkpt lat="38.196125" lon="15.6437083"><ele>41.0</ele><time>2026-03-29T19:18:40.582Z</time></trkpt><trkpt lat="38.1958967" lon="15.6439417"><ele>39.0</ele><time>2026-03-29T19:18:41.582Z</time></trkpt><trkpt lat="38.19568" lon="15.6441717"><ele>36.5</ele><time>2026-03-29T19:18:42.582Z</time></trkpt><trkpt lat="38.1954517" lon="15.6443933"><ele>34.0</ele><time>2026-03-29T19:18:43.582Z</time></trkpt><trkpt lat="38.19523" lon="15.6446133"><ele>34.0</ele><time>2026-03-29T19:18:44.582Z</time></trkpt><trkpt lat="38.19502" lon="15.6448383"><ele>34.0</ele><time>2026-03-29T19:18:45.582Z</time></trkpt><trkpt lat="38.1948067" lon="15.6450517"><ele>34.5</ele><time>2026-03-29T19:18:46.582Z</time></trkpt><trkpt lat="38.1945933" lon="15.645275"><ele>35.0</ele><time>2026-03-29T19:18:47.582Z</time></trkpt><trkpt lat="38.1943783" lon="15.6455033"><ele>35.0</ele><time>2026-03-29T19:18:48.582Z</time></trkpt><trkpt lat="38.1941617" lon="15.6457467"><ele>35.0</ele><time>2026-03-29T19:18:49.582Z</time></trkpt><trkpt lat="38.193925" lon="15.6459983"><ele>35.5</ele><time>2026-03-29T19:18:50.582Z</time></trkpt><trkpt lat="38.193685" lon="15.646245"><ele>36.0</ele><time>2026-03-29T19:18:51.582Z</time></trkpt><trkpt lat="38.1934467" lon="15.6464933"><ele>36.0</ele><time>2026-03-29T19:18:52.582Z</time></trkpt><trkpt lat="38.193225" lon="15.646725"><ele>36.0</ele><time>2026-03-29T19:18:53.582Z</time></trkpt><trkpt lat="38.1930067" lon="15.64695"><ele>34.5</ele><time>2026-03-29T19:18:54.582Z</time></trkpt><trkpt lat="38.1927933" lon="15.647165"><ele>33.0</ele><time>2026-03-29T19:18:55.582Z</time></trkpt><trkpt lat="38.1925783" lon="15.6473767"><ele>33.0</ele><time>2026-03-29T19:18:56.582Z</time></trkpt><trkpt lat="38.1923717" lon="15.6475867"><ele>33.0</ele><time>2026-03-29T19:18:57.582Z</time></trkpt><trkpt lat="38.192165" lon="15.6477933"><ele>32.5</ele><time>2026-03-29T19:18:58.583Z</time></trkpt><trkpt lat="38.191955" lon="15.6479733"><ele>32.0</ele><time>2026-03-29T19:18:59.582Z</time></trkpt><trkpt lat="38.1917417" lon="15.6481317"><ele>32.0</ele><time>2026-03-29T19:19:00.582Z</time></trkpt><trkpt lat="38.19152" lon="15.6482733"><ele>32.0</ele><time>2026-03-29T19:19:01.582Z</time></trkpt><trkpt lat="38.19128" lon="15.6484167"><ele>31.0</ele><time>2026-03-29T19:19:02.582Z</time></trkpt><trkpt lat="38.1910333" lon="15.6485333"><ele>30.0</ele><time>2026-03-29T19:19:03.582Z</time></trkpt><trkpt lat="38.19078" lon="15.6486233"><ele>29.0</ele><time>2026-03-29T19:19:04.582Z</time></trkpt><trkpt lat="38.1905217" lon="15.648695"><ele>28.0</ele><time>2026-03-29T19:19:05.582Z</time></trkpt><trkpt lat="38.1902683" lon="15.64874"><ele>28.0</ele><time>2026-03-29T19:19:06.582Z</time></trkpt><trkpt lat="38.19001" lon="15.648765"><ele>28.0</ele><time>2026-03-29T19:19:07.582Z</time></trkpt><trkpt lat="38.1897383" lon="15.6487783"><ele>28.0</ele><time>2026-03-29T19:19:08.582Z</time></trkpt><trkpt lat="38.1894483" lon="15.648765"><ele>28.0</ele><time>2026-03-29T19:19:09.582Z</time></trkpt><trkpt lat="38.18916" lon="15.6487267"><ele>28.5</ele><time>2026-03-29T19:19:10.582Z</time></trkpt><trkpt lat="38.1888633" lon="15.6486567"><ele>29.0</ele><time>2026-03-29T19:19:11.582Z</time></trkpt><trkpt lat="38.18854" lon="15.6485467"><ele>29.0</ele><time>2026-03-29T19:19:12.582Z</time></trkpt><trkpt lat="38.1881883" lon="15.6484267"><ele>29.0</ele><time>2026-03-29T19:19:13.582Z</time></trkpt><trkpt lat="38.187835" lon="15.64829"><ele>29.5</ele><time>2026-03-29T19:19:14.582Z</time></trkpt><trkpt lat="38.187465" lon="15.64817"><ele>30.0</ele><time>2026-03-29T19:19:15.582Z</time></trkpt><trkpt lat="38.18709" lon="15.648075"><ele>30.0</ele><time>2026-03-29T19:19:16.582Z</time></trkpt><trkpt lat="38.18669" lon="15.6479967"><ele>30.0</ele><time>2026-03-29T19:19:17.583Z</time></trkpt><trkpt lat="38.1862767" lon="15.647955"><ele>33.5</ele><time>2026-03-29T19:19:18.582Z</time></trkpt><trkpt lat="38.1858633" lon="15.6479533"><ele>37.0</ele><time>2026-03-29T19:19:19.582Z</time></trkpt><trkpt lat="38.1854567" lon="15.647995"><ele>36.5</ele><time>2026-03-29T19:19:20.582Z</time></trkpt><trkpt lat="38.185085" lon="15.64807"><ele>36.0</ele><time>2026-03-29T19:19:21.582Z</time></trkpt><trkpt lat="38.1847517" lon="15.6481767"><ele>36.0</ele><time>2026-03-29T19:19:22.582Z</time></trkpt><trkpt lat="38.1844367" lon="15.6483017"><ele>36.0</ele><time>2026-03-29T19:19:23.582Z</time></trkpt><trkpt lat="38.1841417" lon="15.6484383"><ele>36.0</ele><time>2026-03-29T19:19:24.582Z</time></trkpt><trkpt lat="38.1838567" lon="15.648585"><ele>36.0</ele><time>2026-03-29T19:19:25.582Z</time></trkpt><trkpt lat="38.1835767" lon="15.64875"><ele>38.0</ele><time>2026-03-29T19:19:26.582Z</time></trkpt><trkpt lat="38.1833017" lon="15.648925"><ele>40.0</ele><time>2026-03-29T19:19:27.583Z</time></trkpt><trkpt lat="38.1830367" lon="15.6491183"><ele>41.0</ele><time>2026-03-29T19:19:28.582Z</time></trkpt><trkpt lat="38.1827933" lon="15.6493133"><ele>42.0</ele><time>2026-03-29T19:19:29.582Z</time></trkpt><trkpt lat="38.1825583" lon="15.649495"><ele>41.0</ele><time>2026-03-29T19:19:30.583Z</time></trkpt><trkpt lat="38.1823283" lon="15.64967"><ele>40.0</ele><time>2026-03-29T19:19:31.582Z</time></trkpt><trkpt lat="38.1821017" lon="15.6498317"><ele>40.0</ele><time>2026-03-29T19:19:32.582Z</time></trkpt><trkpt lat="38.18188" lon="15.6499917"><ele>40.0</ele><time>2026-03-29T19:19:33.582Z</time></trkpt><trkpt lat="38.1816767" lon="15.65014"><ele>41.5</ele><time>2026-03-29T19:19:34.582Z</time></trkpt><trkpt lat="38.1814667" lon="15.6502933"><ele>43.0</ele><time>2026-03-29T19:19:35.582Z</time></trkpt><trkpt lat="38.1812533" lon="15.6504433"><ele>43.0</ele><time>2026-03-29T19:19:36.582Z</time></trkpt><trkpt lat="38.1810267" lon="15.650595"><ele>43.0</ele><time>2026-03-29T19:19:37.582Z</time></trkpt><trkpt lat="38.180795" lon="15.6507367"><ele>44.0</ele><time>2026-03-29T19:19:38.582Z</time></trkpt><trkpt lat="38.1805583" lon="15.6508683"><ele>45.0</ele><time>2026-03-29T19:19:39.582Z</time></trkpt><trkpt lat="38.18031" lon="15.6509967"><ele>45.0</ele><time>2026-03-29T19:19:40.582Z</time></trkpt><trkpt lat="38.1800533" lon="15.65111"><ele>45.0</ele><time>2026-03-29T19:19:41.582Z</time></trkpt><trkpt lat="38.1797967" lon="15.6512317"><ele>48.5</ele><time>2026-03-29T19:19:42.582Z</time></trkpt><trkpt lat="38.179535" lon="15.6513433"><ele>52.0</ele><time>2026-03-29T19:19:43.582Z</time></trkpt><trkpt lat="38.1792717" lon="15.6514467"><ele>49.0</ele><time>2026-03-29T19:19:44.582Z</time></trkpt><trkpt lat="38.1790133" lon="15.6515617"><ele>46.0</ele><time>2026-03-29T19:19:45.582Z</time></trkpt><trkpt lat="38.1787417" lon="15.6516717"><ele>46.0</ele><time>2026-03-29T19:19:46.582Z</time></trkpt><trkpt lat="38.178475" lon="15.6517883"><ele>46.0</ele><time>2026-03-29T19:19:47.582Z</time></trkpt><trkpt lat="38.1781967" lon="15.6519083"><ele>48.0</ele><time>2026-03-29T19:19:48.582Z</time></trkpt><trkpt lat="38.1779317" lon="15.6520317"><ele>50.0</ele><time>2026-03-29T19:19:49.582Z</time></trkpt><trkpt lat="38.1776667" lon="15.6521483"><ele>50.0</ele><time>2026-03-29T19:19:50.582Z</time></trkpt><trkpt lat="38.1773983" lon="15.6522533"><ele>50.0</ele><time>2026-03-29T19:19:51.582Z</time></trkpt><trkpt lat="38.1771217" lon="15.6523583"><ele>49.5</ele><time>2026-03-29T19:19:52.582Z</time></trkpt><trkpt lat="38.1768517" lon="15.6524683"><ele>49.0</ele><time>2026-03-29T19:19:53.582Z</time></trkpt><trkpt lat="38.17658" lon="15.6525833"><ele>45.5</ele><time>2026-03-29T19:19:54.582Z</time></trkpt><trkpt lat="38.1763117" lon="15.6527017"><ele>42.0</ele><time>2026-03-29T19:19:55.582Z</time></trkpt><trkpt lat="38.176045" lon="15.6528133"><ele>41.5</ele><time>2026-03-29T19:19:56.582Z</time></trkpt><trkpt lat="38.1757833" lon="15.65293"><ele>41.0</ele><time>2026-03-29T19:19:57.582Z</time></trkpt><trkpt lat="38.1755333" lon="15.6530383"><ele>39.0</ele><time>2026-03-29T19:19:58.582Z</time></trkpt><trkpt lat="38.17529" lon="15.6531333"><ele>37.0</ele><time>2026-03-29T19:19:59.582Z</time></trkpt><trkpt lat="38.1750583" lon="15.6532367"><ele>36.0</ele><time>2026-03-29T19:20:00.582Z</time></trkpt><trkpt lat="38.174825" lon="15.6533383"><ele>35.0</ele><time>2026-03-29T19:20:01.582Z</time></trkpt><trkpt lat="38.1745817" lon="15.6534467"><ele>35.0</ele><time>2026-03-29T19:20:02.582Z</time></trkpt><trkpt lat="38.17435" lon="15.65355"><ele>35.0</ele><time>2026-03-29T19:20:03.582Z</time></trkpt><trkpt lat="38.1741117" lon="15.65365"><ele>34.5</ele><time>2026-03-29T19:20:04.582Z</time></trkpt><trkpt lat="38.1738783" lon="15.6537433"><ele>34.0</ele><time>2026-03-29T19:20:05.582Z</time></trkpt><trkpt lat="38.17367" lon="15.65383"><ele>34.0</ele><time>2026-03-29T19:20:06.582Z</time></trkpt><trkpt lat="38.1734717" lon="15.6539133"><ele>34.0</ele><time>2026-03-29T19:20:07.583Z</time></trkpt><trkpt lat="38.17328" lon="15.6539933"><ele>34.0</ele><time>2026-03-29T19:20:08.582Z</time></trkpt><trkpt lat="38.1731117" lon="15.6540633"><ele>33.66666666666667</ele><time>2026-03-29T19:20:09.582Z</time></trkpt><trkpt lat="38.1729533" lon="15.6541333"><ele>33.333333333333336</ele><time>2026-03-29T19:20:10.582Z</time></trkpt><trkpt lat="38.1727983" lon="15.6541767"><ele>33.0</ele><time>2026-03-29T19:20:11.582Z</time></trkpt><trkpt lat="38.17265" lon="15.6541867"><ele>31.5</ele><time>2026-03-29T19:20:12.582Z</time></trkpt><trkpt lat="38.17235" lon="15.6540933"><ele>30.0</ele><time>2026-03-29T19:20:14.582Z</time></trkpt><trkpt lat="38.17222" lon="15.6539817"><ele>30.0</ele><time>2026-03-29T19:20:15.582Z</time></trkpt><trkpt lat="38.1721267" lon="15.6538533"><ele>30.0</ele><time>2026-03-29T19:20:16.582Z</time></trkpt><trkpt lat="38.1720533" lon="15.65372"><ele>30.0</ele><time>2026-03-29T19:20:17.582Z</time></trkpt><trkpt lat="38.1720067" lon="15.653595"><ele>30.0</ele><time>2026-03-29T19:20:18.582Z</time></trkpt><trkpt lat="38.1719767" lon="15.6534833"><ele>29.833333333333332</ele><time>2026-03-29T19:20:19.583Z</time></trkpt><trkpt lat="38.1719483" lon="15.65338"><ele>29.666666666666664</ele><time>2026-03-29T19:20:20.582Z</time></trkpt><trkpt lat="38.1719233" lon="15.653295"><ele>29.5</ele><time>2026-03-29T19:20:21.582Z</time></trkpt><trkpt lat="38.1718967" lon="15.65322"><ele>29.333333333333332</ele><time>2026-03-29T19:20:22.582Z</time></trkpt><trkpt lat="38.1718683" lon="15.6531333"><ele>29.166666666666664</ele><time>2026-03-29T19:20:24.582Z</time></trkpt><trkpt lat="38.1718483" lon="15.653035"><ele>29.0</ele><time>2026-03-29T19:20:26.582Z</time></trkpt><trkpt lat="38.1718283" lon="15.6529383"><ele>29.0</ele><time>2026-03-29T19:20:27.582Z</time></trkpt><trkpt lat="38.171795" lon="15.6528033"><ele>29.0</ele><time>2026-03-29T19:20:28.582Z</time></trkpt><trkpt lat="38.17175" lon="15.6526367"><ele>29.0</ele><time>2026-03-29T19:20:29.582Z</time></trkpt><trkpt lat="38.1716967" lon="15.6524683"><ele>29.0</ele><time>2026-03-29T19:20:30.582Z</time></trkpt><trkpt lat="38.1716367" lon="15.6523167"><ele>28.75</ele><time>2026-03-29T19:20:31.582Z</time></trkpt><trkpt lat="38.1715733" lon="15.652175"><ele>28.5</ele><time>2026-03-29T19:20:32.582Z</time></trkpt><trkpt lat="38.1715017" lon="15.65204"><ele>28.25</ele><time>2026-03-29T19:20:33.582Z</time></trkpt><trkpt lat="38.1714267" lon="15.6519217"><ele>28.0</ele><time>2026-03-29T19:20:34.582Z</time></trkpt><trkpt lat="38.171355" lon="15.651815"><ele>27.4</ele><time>2026-03-29T19:20:35.583Z</time></trkpt><trkpt lat="38.1712867" lon="15.6517083"><ele>26.799999999999997</ele><time>2026-03-29T19:20:36.582Z</time></trkpt><trkpt lat="38.17123" lon="15.6516283"><ele>26.2</ele><time>2026-03-29T19:20:37.582Z</time></trkpt><trkpt lat="38.1711883" lon="15.6515683"><ele>25.6</ele><time>2026-03-29T19:20:38.582Z</time></trkpt><trkpt lat="38.1711017" lon="15.6514333"><ele>25.0</ele><time>2026-03-29T19:20:40.582Z</time></trkpt><trkpt lat="38.1710367" lon="15.6513383"><ele>25.000000000000004</ele><time>2026-03-29T19:20:41.582Z</time></trkpt><trkpt lat="38.1709583" lon="15.65125"><ele>25.0</ele><time>2026-03-29T19:20:42.582Z</time></trkpt><trkpt lat="38.17088" lon="15.6511817"><ele>25.0</ele><time>2026-03-29T19:20:43.582Z</time></trkpt><trkpt lat="38.17079" lon="15.651165"><ele>25.0</ele><time>2026-03-29T19:20:44.582Z</time></trkpt><trkpt lat="38.17071" lon="15.651165"><ele>25.000000000000004</ele><time>2026-03-29T19:20:45.582Z</time></trkpt><trkpt lat="38.1706367" lon="15.65119"><ele>25.0</ele><time>2026-03-29T19:20:46.582Z</time></trkpt><trkpt lat="38.17055" lon="15.6512333"><ele>24.666666666666668</ele><time>2026-03-29T19:20:47.582Z</time></trkpt><trkpt lat="38.1704683" lon="15.6512867"><ele>24.333333333333336</ele><time>2026-03-29T19:20:48.582Z</time></trkpt><trkpt lat="38.1703883" lon="15.6513367"><ele>24.0</ele><time>2026-03-29T19:20:49.582Z</time></trkpt><trkpt lat="38.1703083" lon="15.6513867"><ele>23.666666666666668</ele><time>2026-03-29T19:20:50.582Z</time></trkpt><trkpt lat="38.17023" lon="15.65144"><ele>23.333333333333336</ele><time>2026-03-29T19:20:51.582Z</time></trkpt><trkpt lat="38.1701533" lon="15.6514933"><ele>23.0</ele><time>2026-03-29T19:20:52.582Z</time></trkpt><trkpt lat="38.1700633" lon="15.6515567"><ele>23.0</ele><time>2026-03-29T19:20:53.582Z</time></trkpt><trkpt lat="38.169975" lon="15.6516133"><ele>23.0</ele><time>2026-03-29T19:20:54.582Z</time></trkpt><trkpt lat="38.1698767" lon="15.65167"><ele>23.0</ele><time>2026-03-29T19:20:55.582Z</time></trkpt><trkpt lat="38.1697867" lon="15.6517067"><ele>23.0</ele><time>2026-03-29T19:20:56.582Z</time></trkpt><trkpt lat="38.1697033" lon="15.6517267"><ele>23.0</ele><time>2026-03-29T19:20:57.582Z</time></trkpt><trkpt lat="38.1696133" lon="15.65176"><ele>23.2</ele><time>2026-03-29T19:20:58.582Z</time></trkpt><trkpt lat="38.1695167" lon="15.6518083"><ele>23.4</ele><time>2026-03-29T19:20:59.582Z</time></trkpt><trkpt lat="38.16942" lon="15.6518683"><ele>23.599999999999998</ele><time>2026-03-29T19:21:00.582Z</time></trkpt><trkpt lat="38.1693283" lon="15.651935"><ele>23.799999999999997</ele><time>2026-03-29T19:21:01.582Z</time></trkpt><trkpt lat="38.16925" lon="15.6519933"><ele>24.0</ele><time>2026-03-29T19:21:02.582Z</time></trkpt><trkpt lat="38.16916" lon="15.6520633"><ele>24.0</ele><time>2026-03-29T19:21:03.583Z</time></trkpt><trkpt lat="38.1690817" lon="15.65212"><ele>24.0</ele><time>2026-03-29T19:21:04.582Z</time></trkpt><trkpt lat="38.1690017" lon="15.652175"><ele>24.0</ele><time>2026-03-29T19:21:05.582Z</time></trkpt><trkpt lat="38.16892" lon="15.6522367"><ele>24.0</ele><time>2026-03-29T19:21:06.582Z</time></trkpt><trkpt lat="38.1688467" lon="15.6522967"><ele>24.0</ele><time>2026-03-29T19:21:07.582Z</time></trkpt><trkpt lat="38.1687883" lon="15.652365"><ele>24.0</ele><time>2026-03-29T19:21:08.582Z</time></trkpt><trkpt lat="38.1687233" lon="15.6524217"><ele>23.999999999999996</ele><time>2026-03-29T19:21:09.582Z</time></trkpt><trkpt lat="38.16866" lon="15.652475"><ele>24.0</ele><time>2026-03-29T19:21:10.582Z</time></trkpt><trkpt lat="38.1685933" lon="15.6525333"><ele>24.0</ele><time>2026-03-29T19:21:11.582Z</time></trkpt><trkpt lat="38.168535" lon="15.652595"><ele>24.0</ele><time>2026-03-29T19:21:12.582Z</time></trkpt><trkpt lat="38.1684933" lon="15.652665"><ele>24.0</ele><time>2026-03-29T19:21:13.582Z</time></trkpt><trkpt lat="38.1684783" lon="15.6527467"><ele>23.999999999999996</ele><time>2026-03-29T19:21:14.582Z</time></trkpt><trkpt lat="38.1684933" lon="15.6528467"><ele>24.0</ele><time>2026-03-29T19:21:15.582Z</time></trkpt><trkpt lat="38.1685183" lon="15.65296"><ele>24.666666666666664</ele><time>2026-03-29T19:21:16.582Z</time></trkpt><trkpt lat="38.1685667" lon="15.653095"><ele>25.333333333333332</ele><time>2026-03-29T19:21:17.582Z</time></trkpt><trkpt lat="38.1686233" lon="15.6532717"><ele>26.0</ele><time>2026-03-29T19:21:18.582Z</time></trkpt><trkpt lat="38.168705" lon="15.6534867"><ele>26.0</ele><time>2026-03-29T19:21:19.582Z</time></trkpt><trkpt lat="38.1688033" lon="15.6537317"><ele>26.0</ele><time>2026-03-29T19:21:20.582Z</time></trkpt><trkpt lat="38.1689" lon="15.6539633"><ele>26.0</ele><time>2026-03-29T19:21:21.582Z</time></trkpt><trkpt lat="38.1689933" lon="15.6541683"><ele>27.0</ele><time>2026-03-29T19:21:22.582Z</time></trkpt><trkpt lat="38.1690833" lon="15.6543683"><ele>28.0</ele><time>2026-03-29T19:21:23.582Z</time></trkpt><trkpt lat="38.1691883" lon="15.6545867"><ele>29.0</ele><time>2026-03-29T19:21:24.582Z</time></trkpt><trkpt lat="38.16927" lon="15.6548117"><ele>29.333333333333332</ele><time>2026-03-29T19:21:25.582Z</time></trkpt><trkpt lat="38.16935" lon="15.655025"><ele>29.666666666666664</ele><time>2026-03-29T19:21:26.582Z</time></trkpt><trkpt lat="38.16943" lon="15.655225"><ele>30.0</ele><time>2026-03-29T19:21:27.582Z</time></trkpt><trkpt lat="38.1695133" lon="15.6554233"><ele>30.333333333333336</ele><time>2026-03-29T19:21:28.582Z</time></trkpt><trkpt lat="38.16958" lon="15.6556383"><ele>30.666666666666668</ele><time>2026-03-29T19:21:29.582Z</time></trkpt><trkpt lat="38.16965" lon="15.6558383"><ele>31.0</ele><time>2026-03-29T19:21:30.582Z</time></trkpt><trkpt lat="38.169705" lon="15.6560483"><ele>32.0</ele><time>2026-03-29T19:21:31.582Z</time></trkpt><trkpt lat="38.16979" lon="15.65627"><ele>33.0</ele><time>2026-03-29T19:21:32.582Z</time></trkpt><trkpt lat="38.16989" lon="15.6565167"><ele>34.0</ele><time>2026-03-29T19:21:33.582Z</time></trkpt><trkpt lat="38.16999" lon="15.65674"><ele>34.75</ele><time>2026-03-29T19:21:34.582Z</time></trkpt><trkpt lat="38.17006" lon="15.6569217"><ele>35.5</ele><time>2026-03-29T19:21:35.582Z</time></trkpt><trkpt lat="38.1701067" lon="15.65708"><ele>36.25</ele><time>2026-03-29T19:21:36.582Z</time></trkpt><trkpt lat="38.1701433" lon="15.6572233"><ele>37.0</ele><time>2026-03-29T19:21:37.582Z</time></trkpt><trkpt lat="38.1701483" lon="15.6573917"><ele>37.5</ele><time>2026-03-29T19:21:38.582Z</time></trkpt><trkpt lat="38.1701367" lon="15.6575883"><ele>38.0</ele><time>2026-03-29T19:21:39.582Z</time></trkpt><trkpt lat="38.1701167" lon="15.65777"><ele>38.5</ele><time>2026-03-29T19:21:40.582Z</time></trkpt><trkpt lat="38.1701" lon="15.657935"><ele>39.0</ele><time>2026-03-29T19:21:41.582Z</time></trkpt><trkpt lat="38.1700983" lon="15.6580917"><ele>39.2</ele><time>2026-03-29T19:21:42.582Z</time></trkpt><trkpt lat="38.170115" lon="15.6582283"><ele>39.4</ele><time>2026-03-29T19:21:43.582Z</time></trkpt><trkpt lat="38.1701717" lon="15.6583383"><ele>39.6</ele><time>2026-03-29T19:21:44.582Z</time></trkpt><trkpt lat="38.1702367" lon="15.6584333"><ele>39.8</ele><time>2026-03-29T19:21:45.582Z</time></trkpt><trkpt lat="38.1703033" lon="15.658535"><ele>40.0</ele><time>2026-03-29T19:21:46.582Z</time></trkpt><trkpt lat="38.17036" lon="15.658625"><ele>40.8</ele><time>2026-03-29T19:21:47.582Z</time></trkpt><trkpt lat="38.170415" lon="15.658715"><ele>41.6</ele><time>2026-03-29T19:21:48.582Z</time></trkpt><trkpt lat="38.170455" lon="15.6588083"><ele>42.400000000000006</ele><time>2026-03-29T19:21:49.582Z</time></trkpt><trkpt lat="38.1704983" lon="15.6589017"><ele>43.2</ele><time>2026-03-29T19:21:50.582Z</time></trkpt><trkpt lat="38.1705417" lon="15.659005"><ele>44.0</ele><time>2026-03-29T19:21:51.582Z</time></trkpt><trkpt lat="38.1705817" lon="15.65913"><ele>44.0</ele><time>2026-03-29T19:21:52.582Z</time></trkpt><trkpt lat="38.1706433" lon="15.6592917"><ele>44.0</ele><time>2026-03-29T19:21:53.582Z</time></trkpt><trkpt lat="38.1707183" lon="15.6595233"><ele>44.0</ele><time>2026-03-29T19:21:54.582Z</time></trkpt><trkpt lat="38.170815" lon="15.659785"><ele>48.0</ele><time>2026-03-29T19:21:55.582Z</time></trkpt><trkpt lat="38.1709183" lon="15.6600833"><ele>52.0</ele><time>2026-03-29T19:21:56.582Z</time></trkpt><trkpt lat="38.1710167" lon="15.6603633"><ele>53.666666666666664</ele><time>2026-03-29T19:21:57.582Z</time></trkpt><trkpt lat="38.1711017" lon="15.6606017"><ele>55.33333333333333</ele><time>2026-03-29T19:21:58.582Z</time></trkpt><trkpt lat="38.1711617" lon="15.6608217"><ele>57.0</ele><time>2026-03-29T19:21:59.582Z</time></trkpt><trkpt lat="38.1712217" lon="15.661025"><ele>56.66666666666667</ele><time>2026-03-29T19:22:00.582Z</time></trkpt><trkpt lat="38.17128" lon="15.66121"><ele>56.333333333333336</ele><time>2026-03-29T19:22:01.582Z</time></trkpt><trkpt lat="38.1713217" lon="15.6613983"><ele>56.0</ele><time>2026-03-29T19:22:02.582Z</time></trkpt><trkpt lat="38.1713417" lon="15.6616167"><ele>56.0</ele><time>2026-03-29T19:22:03.582Z</time></trkpt><trkpt lat="38.1713367" lon="15.6618383"><ele>56.0</ele><time>2026-03-29T19:22:04.582Z</time></trkpt><trkpt lat="38.1713317" lon="15.6620567"><ele>56.0</ele><time>2026-03-29T19:22:05.582Z</time></trkpt><trkpt lat="38.17134" lon="15.66224"><ele>56.50000000000001</ele><time>2026-03-29T19:22:06.582Z</time></trkpt><trkpt lat="38.1713383" lon="15.66241"><ele>57.0</ele><time>2026-03-29T19:22:07.582Z</time></trkpt><trkpt lat="38.1713433" lon="15.662545"><ele>57.5</ele><time>2026-03-29T19:22:08.582Z</time></trkpt><trkpt lat="38.1713417" lon="15.662635"><ele>58.0</ele><time>2026-03-29T19:22:09.582Z</time></trkpt><trkpt lat="38.17136" lon="15.6627217"><ele>58.50000000000001</ele><time>2026-03-29T19:22:11.582Z</time></trkpt><trkpt lat="38.17141" lon="15.66278"><ele>59.0</ele><time>2026-03-29T19:22:13.582Z</time></trkpt><trkpt lat="38.17144" lon="15.6628733"><ele>59.50000000000001</ele><time>2026-03-29T19:22:15.582Z</time></trkpt><trkpt lat="38.171445" lon="15.662955"><ele>60.0</ele><time>2026-03-29T19:22:17.582Z</time></trkpt><trkpt lat="38.17147" lon="15.6630633"><ele>60.5</ele><time>2026-03-29T19:22:20.582Z</time></trkpt><trkpt lat="38.1715083" lon="15.6631767"><ele>61.0</ele><time>2026-03-29T19:22:22.582Z</time></trkpt><trkpt lat="38.1715433" lon="15.6632633"><ele>61.50000000000001</ele><time>2026-03-29T19:22:23.582Z</time></trkpt><trkpt lat="38.1716117" lon="15.663385"><ele>62.0</ele><time>2026-03-29T19:22:24.582Z</time></trkpt><trkpt lat="38.171725" lon="15.6635483"><ele>64.0</ele><time>2026-03-29T19:22:25.583Z</time></trkpt><trkpt lat="38.17184" lon="15.663755"><ele>66.0</ele><time>2026-03-29T19:22:26.582Z</time></trkpt><trkpt lat="38.1719667" lon="15.6639783"><ele>68.0</ele><time>2026-03-29T19:22:27.582Z</time></trkpt><trkpt lat="38.1721083" lon="15.6642033"><ele>68.0</ele><time>2026-03-29T19:22:28.582Z</time></trkpt><trkpt lat="38.1722933" lon="15.66442"><ele>68.0</ele><time>2026-03-29T19:22:29.582Z</time></trkpt><trkpt lat="38.1725217" lon="15.66463"><ele>69.5</ele><time>2026-03-29T19:22:30.582Z</time></trkpt><trkpt lat="38.1727567" lon="15.664815"><ele>71.0</ele><time>2026-03-29T19:22:31.582Z</time></trkpt><trkpt lat="38.1729967" lon="15.664955"><ele>71.0</ele><time>2026-03-29T19:22:32.583Z</time></trkpt><trkpt lat="38.17316" lon="15.6651067"><ele>71.0</ele><time>2026-03-29T19:22:33.582Z</time></trkpt><trkpt lat="38.1732917" lon="15.6652317"><ele>71.0</ele><time>2026-03-29T19:22:34.582Z</time></trkpt><trkpt lat="38.1733967" lon="15.665325"><ele>72.0</ele><time>2026-03-29T19:22:35.582Z</time></trkpt><trkpt lat="38.1735133" lon="15.6654"><ele>73.0</ele><time>2026-03-29T19:22:36.582Z</time></trkpt><trkpt lat="38.1736367" lon="15.6655"><ele>74.0</ele><time>2026-03-29T19:22:37.583Z</time></trkpt><trkpt lat="38.17378" lon="15.6656233"><ele>74.0</ele><time>2026-03-29T19:22:38.582Z</time></trkpt><trkpt lat="38.1739633" lon="15.6657717"><ele>74.0</ele><time>2026-03-29T19:22:39.582Z</time></trkpt><trkpt lat="38.1741417" lon="15.6659683"><ele>75.66666666666667</ele><time>2026-03-29T19:22:40.582Z</time></trkpt><trkpt lat="38.1743233" lon="15.6661533"><ele>77.33333333333333</ele><time>2026-03-29T19:22:41.582Z</time></trkpt><trkpt lat="38.174495" lon="15.6663017"><ele>79.0</ele><time>2026-03-29T19:22:42.582Z</time></trkpt><trkpt lat="38.174675" lon="15.6664283"><ele>79.0</ele><time>2026-03-29T19:22:43.583Z</time></trkpt><trkpt lat="38.17479" lon="15.6665633"><ele>79.0</ele><time>2026-03-29T19:22:44.582Z</time></trkpt><trkpt lat="38.1749083" lon="15.6666483"><ele>79.0</ele><time>2026-03-29T19:22:45.582Z</time></trkpt><trkpt lat="38.1749917" lon="15.666715"><ele>79.0</ele><time>2026-03-29T19:22:46.583Z</time></trkpt><trkpt lat="38.17506" lon="15.6667617"><ele>79.2</ele><time>2026-03-29T19:22:47.582Z</time></trkpt><trkpt lat="38.1751067" lon="15.6668167"><ele>79.4</ele><time>2026-03-29T19:22:48.582Z</time></trkpt><trkpt lat="38.1751333" lon="15.6669067"><ele>79.6</ele><time>2026-03-29T19:22:50.582Z</time></trkpt><trkpt lat="38.175095" lon="15.6669967"><ele>79.8</ele><time>2026-03-29T19:22:51.582Z</time></trkpt><trkpt lat="38.1750233" lon="15.6671217"><ele>80.0</ele><time>2026-03-29T19:22:52.582Z</time></trkpt><trkpt lat="38.174915" lon="15.6672717"><ele>80.5</ele><time>2026-03-29T19:22:53.582Z</time></trkpt><trkpt lat="38.1747933" lon="15.667435"><ele>81.0</ele><time>2026-03-29T19:22:54.582Z</time></trkpt><trkpt lat="38.17471" lon="15.6675717"><ele>81.5</ele><time>2026-03-29T19:22:55.582Z</time></trkpt><trkpt lat="38.1746667" lon="15.6677217"><ele>82.0</ele><time>2026-03-29T19:22:56.582Z</time></trkpt><trkpt lat="38.1746717" lon="15.6678917"><ele>83.75</ele><time>2026-03-29T19:22:57.583Z</time></trkpt><trkpt lat="38.174695" lon="15.6680433"><ele>85.5</ele><time>2026-03-29T19:22:58.582Z</time></trkpt><trkpt lat="38.1747133" lon="15.6681883"><ele>87.25</ele><time>2026-03-29T19:22:59.582Z</time></trkpt><trkpt lat="38.1747217" lon="15.668335"><ele>89.0</ele><time>2026-03-29T19:23:00.582Z</time></trkpt><trkpt lat="38.1747183" lon="15.6684933"><ele>90.25</ele><time>2026-03-29T19:23:01.582Z</time></trkpt><trkpt lat="38.1747083" lon="15.66866"><ele>91.5</ele><time>2026-03-29T19:23:02.582Z</time></trkpt><trkpt lat="38.1746867" lon="15.6688283"><ele>92.75</ele><time>2026-03-29T19:23:03.582Z</time></trkpt><trkpt lat="38.1746667" lon="15.66899"><ele>94.0</ele><time>2026-03-29T19:23:04.582Z</time></trkpt><trkpt lat="38.1746317" lon="15.66916"><ele>94.0</ele><time>2026-03-29T19:23:05.582Z</time></trkpt><trkpt lat="38.1745883" lon="15.6693317"><ele>94.0</ele><time>2026-03-29T19:23:06.582Z</time></trkpt><trkpt lat="38.17453" lon="15.6695133"><ele>94.0</ele><time>2026-03-29T19:23:07.582Z</time></trkpt><trkpt lat="38.1744833" lon="15.6697033"><ele>95.0</ele><time>2026-03-29T19:23:08.582Z</time></trkpt><trkpt lat="38.17445" lon="15.669895"><ele>96.0</ele><time>2026-03-29T19:23:09.582Z</time></trkpt><trkpt lat="38.1744267" lon="15.670065"><ele>97.0</ele><time>2026-03-29T19:23:10.582Z</time></trkpt><trkpt lat="38.1744167" lon="15.670185"><ele>98.0</ele><time>2026-03-29T19:23:11.582Z</time></trkpt><trkpt lat="38.1744017" lon="15.6702733"><ele>98.60000000000001</ele><time>2026-03-29T19:23:12.582Z</time></trkpt><trkpt lat="38.174335" lon="15.67037"><ele>99.2</ele><time>2026-03-29T19:23:14.582Z</time></trkpt><trkpt lat="38.1741967" lon="15.6703667"><ele>99.8</ele><time>2026-03-29T19:23:16.583Z</time></trkpt><trkpt lat="38.174095" lon="15.670325"><ele>100.4</ele><time>2026-03-29T19:23:17.582Z</time></trkpt><trkpt lat="38.1739983" lon="15.6702917"><ele>101.0</ele><time>2026-03-29T19:23:18.582Z</time></trkpt><trkpt lat="38.1738883" lon="15.6702933"><ele>101.0</ele><time>2026-03-29T19:23:20.582Z</time></trkpt><trkpt lat="38.17383" lon="15.67036"><ele>101.0</ele><time>2026-03-29T19:23:22.582Z</time></trkpt><trkpt lat="38.1737833" lon="15.6705183"><ele>101.0</ele><time>2026-03-29T19:23:24.582Z</time></trkpt><trkpt lat="38.17377" lon="15.67062"><ele>101.0</ele><time>2026-03-29T19:23:25.582Z</time></trkpt><trkpt lat="38.1737633" lon="15.6707233"><ele>101.0</ele><time>2026-03-29T19:23:26.582Z</time></trkpt><trkpt lat="38.173755" lon="15.67082"><ele>100.99999999999999</ele><time>2026-03-29T19:23:27.582Z</time></trkpt><trkpt lat="38.1737383" lon="15.6709033"><ele>101.0</ele><time>2026-03-29T19:23:28.582Z</time></trkpt><trkpt lat="38.1737017" lon="15.6710317"><ele>101.0</ele><time>2026-03-29T19:23:30.582Z</time></trkpt><trkpt lat="38.1736733" lon="15.6711183"><ele>101.0</ele><time>2026-03-29T19:23:33.582Z</time></trkpt><trkpt lat="38.1736783" lon="15.6712033"><ele>100.99999999999999</ele><time>2026-03-29T19:23:36.582Z</time></trkpt><trkpt lat="38.17363" lon="15.6712883"><ele>101.0</ele><time>2026-03-29T19:23:40.582Z</time></trkpt><trkpt lat="38.173645" lon="15.6711917"><ele>100.99999999999999</ele><time>2026-03-29T19:23:50.582Z</time></trkpt><trkpt lat="38.1737033" lon="15.6711133"><ele>101.0</ele><time>2026-03-29T19:23:52.582Z</time></trkpt><trkpt lat="38.1737467" lon="15.6710267"><ele>101.0</ele><time>2026-03-29T19:23:54.582Z</time></trkpt><trkpt lat="38.1737833" lon="15.6709317"><ele>101.0</ele><time>2026-03-29T19:23:56.583Z</time></trkpt><trkpt lat="38.1738317" lon="15.6708133"><ele>100.99999999999999</ele><time>2026-03-29T19:23:58.583Z</time></trkpt><trkpt lat="38.1738767" lon="15.6707517"><ele>101.0</ele><time>2026-03-29T19:24:33.583Z</time></trkpt><trkpt lat="38.173945" lon="15.670755"><ele>101.0</ele><time>2026-03-29T19:24:37.583Z</time></trkpt><trkpt lat="38.174015" lon="15.6707717"><ele>101.0</ele><time>2026-03-29T19:24:40.583Z</time></trkpt><trkpt lat="38.17409" lon="15.6707817"><ele>103.0</ele><time>2026-03-29T19:24:44.583Z</time></trkpt></trkseg></trk></gpx>